<?xml version="1.0" encoding="UTF-8" standalone="no" ?>
<gpx xmlns="http://www.topografix.com/GPX/1/1" xmlns:xsi="http://www.w3.org/2001/XMLSchema-instance" xsi:schemaLocation="http://www.topografix.com/GPX/1/1 http://www.topografix.com/GPX/1/1/gpx.xsd" version="1.1" creator="VisuGPX - https://www.visugpx.com">
  <metadata>
    <name>2017-12-20 Bike ride-Ambérieux-Rancé O 37km</name>
    <desc><![CDATA[2017-12-20 Bike ride-Ambérieux-Rancé O 37km]]></desc>
  </metadata>
  <wpt lat="45.92456" lon="4.73702">
    <ele>174</ele>
    <name><![CDATA[2017-12-20 10:23 (Start)]]></name>
  </wpt>
  <wpt lat="45.92458" lon="4.73713">
    <ele>174</ele>
    <name><![CDATA[2017-12-20 10:23 (End)]]></name>
    <desc><![CDATA[Created by Google My Tracks on Android  Name: 2017-12-20 10:23 Activity type: biking Description: - Total distance: 37.41 km (23.2 mi) Total time: 2:07:16 Moving time: 2:03:56 Average speed: 17.63 km/h (11.0 mi/h) Average moving speed: 18.11 km/h (11.3 mi/h) Max speed: 51.80 km/h (32.2 mi/h) Average pace: 3:24 min/km (5:29 min/mi) Average moving pace: 3:19 min/km (5:20 min/mi) Fastest pace: 1:09 min/km (1:52 min/mi) Max elevation: 348 m (1141 ft) Min elevation: 217 m (711 ft) Elevation gain: 460 m (1508 ft) Max grade: 37 % Min grade: -40 % Recorded: 20/12/2017 10:23]]></desc>
  </wpt>
  <trk>
    <name><![CDATA[2017-12-20 10:23]]></name>
    <trkseg>
      <trkpt lat="45.92456" lon="4.73702">
        <ele>174</ele>
        <time>2017-12-20T09:23:44.872Z</time>
      </trkpt>
      <trkpt lat="45.92457" lon="4.73711">
        <ele>174</ele>
        <time>2017-12-20T09:23:48.492Z</time>
      </trkpt>
      <trkpt lat="45.92457" lon="4.73716">
        <ele>174</ele>
        <time>2017-12-20T09:23:49.483Z</time>
      </trkpt>
      <trkpt lat="45.92462" lon="4.73714">
        <ele>174</ele>
        <time>2017-12-20T09:23:50Z</time>
      </trkpt>
      <trkpt lat="45.92466" lon="4.7372">
        <ele>174</ele>
        <time>2017-12-20T09:23:51Z</time>
      </trkpt>
      <trkpt lat="45.92465" lon="4.73711">
        <ele>174</ele>
        <time>2017-12-20T09:24:15Z</time>
      </trkpt>
      <trkpt lat="45.92466" lon="4.73706">
        <ele>174</ele>
        <time>2017-12-20T09:24:16Z</time>
      </trkpt>
      <trkpt lat="45.92467" lon="4.73695">
        <ele>174</ele>
        <time>2017-12-20T09:24:19Z</time>
      </trkpt>
      <trkpt lat="45.92467" lon="4.73691">
        <ele>174</ele>
        <time>2017-12-20T09:24:20Z</time>
      </trkpt>
      <trkpt lat="45.92468" lon="4.73683">
        <ele>174</ele>
        <time>2017-12-20T09:24:22Z</time>
      </trkpt>
      <trkpt lat="45.92468" lon="4.73678">
        <ele>174</ele>
        <time>2017-12-20T09:24:23Z</time>
      </trkpt>
      <trkpt lat="45.92469" lon="4.73669">
        <ele>174</ele>
        <time>2017-12-20T09:24:25Z</time>
      </trkpt>
      <trkpt lat="45.9247" lon="4.73664">
        <ele>174</ele>
        <time>2017-12-20T09:24:26Z</time>
      </trkpt>
      <trkpt lat="45.92471" lon="4.73654">
        <ele>174</ele>
        <time>2017-12-20T09:24:28Z</time>
      </trkpt>
      <trkpt lat="45.92472" lon="4.7365">
        <ele>174</ele>
        <time>2017-12-20T09:24:29Z</time>
      </trkpt>
      <trkpt lat="45.92476" lon="4.73643">
        <ele>174</ele>
        <time>2017-12-20T09:24:31Z</time>
      </trkpt>
      <trkpt lat="45.92479" lon="4.73641">
        <ele>174</ele>
        <time>2017-12-20T09:24:32Z</time>
      </trkpt>
      <trkpt lat="45.92486" lon="4.73641">
        <ele>174</ele>
        <time>2017-12-20T09:24:34Z</time>
      </trkpt>
      <trkpt lat="45.9249" lon="4.73641">
        <ele>174</ele>
        <time>2017-12-20T09:24:35Z</time>
      </trkpt>
      <trkpt lat="45.92499" lon="4.73642">
        <ele>174</ele>
        <time>2017-12-20T09:24:37Z</time>
      </trkpt>
      <trkpt lat="45.92503" lon="4.73643">
        <ele>174</ele>
        <time>2017-12-20T09:24:38Z</time>
      </trkpt>
      <trkpt lat="45.92511" lon="4.73644">
        <ele>174</ele>
        <time>2017-12-20T09:24:40Z</time>
      </trkpt>
      <trkpt lat="45.92515" lon="4.73643">
        <ele>174</ele>
        <time>2017-12-20T09:24:41Z</time>
      </trkpt>
      <trkpt lat="45.92524" lon="4.73643">
        <ele>173</ele>
        <time>2017-12-20T09:24:43Z</time>
      </trkpt>
      <trkpt lat="45.92528" lon="4.73642">
        <ele>173</ele>
        <time>2017-12-20T09:24:44Z</time>
      </trkpt>
      <trkpt lat="45.92533" lon="4.73641">
        <ele>173</ele>
        <time>2017-12-20T09:24:45Z</time>
      </trkpt>
      <trkpt lat="45.92538" lon="4.73639">
        <ele>173</ele>
        <time>2017-12-20T09:24:46Z</time>
      </trkpt>
      <trkpt lat="45.92547" lon="4.73637">
        <ele>173</ele>
        <time>2017-12-20T09:24:48Z</time>
      </trkpt>
      <trkpt lat="45.92551" lon="4.73636">
        <ele>173</ele>
        <time>2017-12-20T09:24:49Z</time>
      </trkpt>
      <trkpt lat="45.92556" lon="4.73634">
        <ele>173</ele>
        <time>2017-12-20T09:24:50Z</time>
      </trkpt>
      <trkpt lat="45.9256" lon="4.73633">
        <ele>173</ele>
        <time>2017-12-20T09:24:51Z</time>
      </trkpt>
      <trkpt lat="45.92568" lon="4.7363">
        <ele>173</ele>
        <time>2017-12-20T09:24:53Z</time>
      </trkpt>
      <trkpt lat="45.92572" lon="4.73629">
        <ele>173</ele>
        <time>2017-12-20T09:24:54Z</time>
      </trkpt>
      <trkpt lat="45.92577" lon="4.73626">
        <ele>173</ele>
        <time>2017-12-20T09:24:55Z</time>
      </trkpt>
      <trkpt lat="45.92581" lon="4.73625">
        <ele>173</ele>
        <time>2017-12-20T09:24:56Z</time>
      </trkpt>
      <trkpt lat="45.92586" lon="4.73625">
        <ele>172</ele>
        <time>2017-12-20T09:24:57Z</time>
      </trkpt>
      <trkpt lat="45.9259" lon="4.73625">
        <ele>172</ele>
        <time>2017-12-20T09:24:58Z</time>
      </trkpt>
      <trkpt lat="45.92595" lon="4.73626">
        <ele>172</ele>
        <time>2017-12-20T09:24:59Z</time>
      </trkpt>
      <trkpt lat="45.926" lon="4.73627">
        <ele>173</ele>
        <time>2017-12-20T09:25:00Z</time>
      </trkpt>
      <trkpt lat="45.92605" lon="4.73628">
        <ele>173</ele>
        <time>2017-12-20T09:25:01Z</time>
      </trkpt>
      <trkpt lat="45.9261" lon="4.7363">
        <ele>173</ele>
        <time>2017-12-20T09:25:02Z</time>
      </trkpt>
      <trkpt lat="45.92615" lon="4.73633">
        <ele>173</ele>
        <time>2017-12-20T09:25:03Z</time>
      </trkpt>
      <trkpt lat="45.92617" lon="4.73639">
        <ele>173</ele>
        <time>2017-12-20T09:25:04Z</time>
      </trkpt>
      <trkpt lat="45.92623" lon="4.73649">
        <ele>173</ele>
        <time>2017-12-20T09:25:06Z</time>
      </trkpt>
      <trkpt lat="45.92625" lon="4.73654">
        <ele>173</ele>
        <time>2017-12-20T09:25:07Z</time>
      </trkpt>
      <trkpt lat="45.92628" lon="4.7366">
        <ele>173</ele>
        <time>2017-12-20T09:25:08Z</time>
      </trkpt>
      <trkpt lat="45.92631" lon="4.73665">
        <ele>173</ele>
        <time>2017-12-20T09:25:09Z</time>
      </trkpt>
      <trkpt lat="45.92634" lon="4.7367">
        <ele>173</ele>
        <time>2017-12-20T09:25:10Z</time>
      </trkpt>
      <trkpt lat="45.92636" lon="4.73676">
        <ele>173</ele>
        <time>2017-12-20T09:25:11Z</time>
      </trkpt>
      <trkpt lat="45.92639" lon="4.73682">
        <ele>173</ele>
        <time>2017-12-20T09:25:12Z</time>
      </trkpt>
      <trkpt lat="45.92643" lon="4.73687">
        <ele>173</ele>
        <time>2017-12-20T09:25:13Z</time>
      </trkpt>
      <trkpt lat="45.92647" lon="4.73691">
        <ele>173</ele>
        <time>2017-12-20T09:25:14Z</time>
      </trkpt>
      <trkpt lat="45.92652" lon="4.73695">
        <ele>173</ele>
        <time>2017-12-20T09:25:15Z</time>
      </trkpt>
      <trkpt lat="45.92657" lon="4.73699">
        <ele>173</ele>
        <time>2017-12-20T09:25:16Z</time>
      </trkpt>
      <trkpt lat="45.92662" lon="4.73701">
        <ele>173</ele>
        <time>2017-12-20T09:25:17Z</time>
      </trkpt>
      <trkpt lat="45.92668" lon="4.73703">
        <ele>174</ele>
        <time>2017-12-20T09:25:18Z</time>
      </trkpt>
      <trkpt lat="45.92673" lon="4.73705">
        <ele>174</ele>
        <time>2017-12-20T09:25:19Z</time>
      </trkpt>
      <trkpt lat="45.92677" lon="4.73707">
        <ele>173</ele>
        <time>2017-12-20T09:25:20Z</time>
      </trkpt>
      <trkpt lat="45.92683" lon="4.73709">
        <ele>173</ele>
        <time>2017-12-20T09:25:21Z</time>
      </trkpt>
      <trkpt lat="45.92687" lon="4.73712">
        <ele>173</ele>
        <time>2017-12-20T09:25:22Z</time>
      </trkpt>
      <trkpt lat="45.92691" lon="4.73713">
        <ele>173</ele>
        <time>2017-12-20T09:25:23Z</time>
      </trkpt>
      <trkpt lat="45.92696" lon="4.73713">
        <ele>173</ele>
        <time>2017-12-20T09:25:24Z</time>
      </trkpt>
      <trkpt lat="45.92701" lon="4.73714">
        <ele>173</ele>
        <time>2017-12-20T09:25:25Z</time>
      </trkpt>
      <trkpt lat="45.92707" lon="4.73715">
        <ele>173</ele>
        <time>2017-12-20T09:25:26Z</time>
      </trkpt>
      <trkpt lat="45.92712" lon="4.73715">
        <ele>173</ele>
        <time>2017-12-20T09:25:27Z</time>
      </trkpt>
      <trkpt lat="45.92717" lon="4.73716">
        <ele>173</ele>
        <time>2017-12-20T09:25:28Z</time>
      </trkpt>
      <trkpt lat="45.92722" lon="4.73718">
        <ele>173</ele>
        <time>2017-12-20T09:25:29Z</time>
      </trkpt>
      <trkpt lat="45.92727" lon="4.73718">
        <ele>173</ele>
        <time>2017-12-20T09:25:30Z</time>
      </trkpt>
      <trkpt lat="45.92732" lon="4.73719">
        <ele>173</ele>
        <time>2017-12-20T09:25:31Z</time>
      </trkpt>
      <trkpt lat="45.92736" lon="4.7372">
        <ele>173</ele>
        <time>2017-12-20T09:25:32Z</time>
      </trkpt>
      <trkpt lat="45.92741" lon="4.73721">
        <ele>173</ele>
        <time>2017-12-20T09:25:33Z</time>
      </trkpt>
      <trkpt lat="45.92745" lon="4.73722">
        <ele>173</ele>
        <time>2017-12-20T09:25:34Z</time>
      </trkpt>
      <trkpt lat="45.9275" lon="4.73724">
        <ele>172</ele>
        <time>2017-12-20T09:25:35Z</time>
      </trkpt>
      <trkpt lat="45.92759" lon="4.73727">
        <ele>172</ele>
        <time>2017-12-20T09:25:37Z</time>
      </trkpt>
      <trkpt lat="45.92763" lon="4.73729">
        <ele>172</ele>
        <time>2017-12-20T09:25:38Z</time>
      </trkpt>
      <trkpt lat="45.9277" lon="4.73733">
        <ele>172</ele>
        <time>2017-12-20T09:25:40Z</time>
      </trkpt>
      <trkpt lat="45.92774" lon="4.73736">
        <ele>172</ele>
        <time>2017-12-20T09:25:41Z</time>
      </trkpt>
      <trkpt lat="45.92782" lon="4.7374">
        <ele>172</ele>
        <time>2017-12-20T09:25:43Z</time>
      </trkpt>
      <trkpt lat="45.92782" lon="4.73745">
        <ele>172</ele>
        <time>2017-12-20T09:25:44Z</time>
      </trkpt>
      <trkpt lat="45.92786" lon="4.73754">
        <ele>173</ele>
        <time>2017-12-20T09:25:47Z</time>
      </trkpt>
      <trkpt lat="45.92789" lon="4.73757">
        <ele>173</ele>
        <time>2017-12-20T09:25:48Z</time>
      </trkpt>
      <trkpt lat="45.92793" lon="4.73759">
        <ele>173</ele>
        <time>2017-12-20T09:25:49Z</time>
      </trkpt>
      <trkpt lat="45.92798" lon="4.73761">
        <ele>173</ele>
        <time>2017-12-20T09:25:50Z</time>
      </trkpt>
      <trkpt lat="45.92806" lon="4.73765">
        <ele>173</ele>
        <time>2017-12-20T09:25:52Z</time>
      </trkpt>
      <trkpt lat="45.92811" lon="4.73767">
        <ele>173</ele>
        <time>2017-12-20T09:25:53Z</time>
      </trkpt>
      <trkpt lat="45.92817" lon="4.73771">
        <ele>173</ele>
        <time>2017-12-20T09:25:54Z</time>
      </trkpt>
      <trkpt lat="45.92822" lon="4.73774">
        <ele>173</ele>
        <time>2017-12-20T09:25:55Z</time>
      </trkpt>
      <trkpt lat="45.92827" lon="4.73779">
        <ele>173</ele>
        <time>2017-12-20T09:25:56Z</time>
      </trkpt>
      <trkpt lat="45.92832" lon="4.73782">
        <ele>173</ele>
        <time>2017-12-20T09:25:57Z</time>
      </trkpt>
      <trkpt lat="45.92836" lon="4.73786">
        <ele>173</ele>
        <time>2017-12-20T09:25:58Z</time>
      </trkpt>
      <trkpt lat="45.92841" lon="4.73789">
        <ele>173</ele>
        <time>2017-12-20T09:25:59Z</time>
      </trkpt>
      <trkpt lat="45.92846" lon="4.73792">
        <ele>173</ele>
        <time>2017-12-20T09:26:00Z</time>
      </trkpt>
      <trkpt lat="45.92851" lon="4.73797">
        <ele>173</ele>
        <time>2017-12-20T09:26:01Z</time>
      </trkpt>
      <trkpt lat="45.92854" lon="4.73804">
        <ele>173</ele>
        <time>2017-12-20T09:26:02Z</time>
      </trkpt>
      <trkpt lat="45.92857" lon="4.7381">
        <ele>173</ele>
        <time>2017-12-20T09:26:03Z</time>
      </trkpt>
      <trkpt lat="45.92858" lon="4.73817">
        <ele>173</ele>
        <time>2017-12-20T09:26:04Z</time>
      </trkpt>
      <trkpt lat="45.9286" lon="4.73825">
        <ele>173</ele>
        <time>2017-12-20T09:26:05Z</time>
      </trkpt>
      <trkpt lat="45.92862" lon="4.73831">
        <ele>173</ele>
        <time>2017-12-20T09:26:06Z</time>
      </trkpt>
      <trkpt lat="45.92864" lon="4.73836">
        <ele>173</ele>
        <time>2017-12-20T09:26:07Z</time>
      </trkpt>
      <trkpt lat="45.92866" lon="4.73843">
        <ele>173</ele>
        <time>2017-12-20T09:26:08Z</time>
      </trkpt>
      <trkpt lat="45.92867" lon="4.73849">
        <ele>173</ele>
        <time>2017-12-20T09:26:09Z</time>
      </trkpt>
      <trkpt lat="45.92869" lon="4.73855">
        <ele>173</ele>
        <time>2017-12-20T09:26:10Z</time>
      </trkpt>
      <trkpt lat="45.92869" lon="4.73863">
        <ele>173</ele>
        <time>2017-12-20T09:26:11Z</time>
      </trkpt>
      <trkpt lat="45.92872" lon="4.7387">
        <ele>173</ele>
        <time>2017-12-20T09:26:12Z</time>
      </trkpt>
      <trkpt lat="45.92874" lon="4.73877">
        <ele>173</ele>
        <time>2017-12-20T09:26:13Z</time>
      </trkpt>
      <trkpt lat="45.92876" lon="4.73884">
        <ele>173</ele>
        <time>2017-12-20T09:26:14Z</time>
      </trkpt>
      <trkpt lat="45.92877" lon="4.73891">
        <ele>173</ele>
        <time>2017-12-20T09:26:15Z</time>
      </trkpt>
      <trkpt lat="45.92879" lon="4.73897">
        <ele>173</ele>
        <time>2017-12-20T09:26:16Z</time>
      </trkpt>
      <trkpt lat="45.9288" lon="4.73904">
        <ele>173</ele>
        <time>2017-12-20T09:26:17Z</time>
      </trkpt>
      <trkpt lat="45.92881" lon="4.73911">
        <ele>173</ele>
        <time>2017-12-20T09:26:18Z</time>
      </trkpt>
      <trkpt lat="45.92882" lon="4.73919">
        <ele>172</ele>
        <time>2017-12-20T09:26:19Z</time>
      </trkpt>
      <trkpt lat="45.92882" lon="4.73926">
        <ele>172</ele>
        <time>2017-12-20T09:26:20Z</time>
      </trkpt>
      <trkpt lat="45.92882" lon="4.73933">
        <ele>172</ele>
        <time>2017-12-20T09:26:21Z</time>
      </trkpt>
      <trkpt lat="45.92882" lon="4.73941">
        <ele>172</ele>
        <time>2017-12-20T09:26:22Z</time>
      </trkpt>
      <trkpt lat="45.92884" lon="4.73949">
        <ele>172</ele>
        <time>2017-12-20T09:26:23Z</time>
      </trkpt>
      <trkpt lat="45.92884" lon="4.73955">
        <ele>172</ele>
        <time>2017-12-20T09:26:24Z</time>
      </trkpt>
      <trkpt lat="45.92883" lon="4.73961">
        <ele>172</ele>
        <time>2017-12-20T09:26:25Z</time>
      </trkpt>
      <trkpt lat="45.92883" lon="4.73968">
        <ele>172</ele>
        <time>2017-12-20T09:26:26Z</time>
      </trkpt>
      <trkpt lat="45.92882" lon="4.73975">
        <ele>172</ele>
        <time>2017-12-20T09:26:27Z</time>
      </trkpt>
      <trkpt lat="45.92881" lon="4.73982">
        <ele>172</ele>
        <time>2017-12-20T09:26:28Z</time>
      </trkpt>
      <trkpt lat="45.92878" lon="4.73988">
        <ele>172</ele>
        <time>2017-12-20T09:26:29Z</time>
      </trkpt>
      <trkpt lat="45.92876" lon="4.73995">
        <ele>172</ele>
        <time>2017-12-20T09:26:30Z</time>
      </trkpt>
      <trkpt lat="45.92874" lon="4.74002">
        <ele>172</ele>
        <time>2017-12-20T09:26:31Z</time>
      </trkpt>
      <trkpt lat="45.92873" lon="4.7401">
        <ele>172</ele>
        <time>2017-12-20T09:26:32Z</time>
      </trkpt>
      <trkpt lat="45.92873" lon="4.74018">
        <ele>172</ele>
        <time>2017-12-20T09:26:33Z</time>
      </trkpt>
      <trkpt lat="45.92872" lon="4.74025">
        <ele>172</ele>
        <time>2017-12-20T09:26:34Z</time>
      </trkpt>
      <trkpt lat="45.92871" lon="4.74031">
        <ele>172</ele>
        <time>2017-12-20T09:26:35Z</time>
      </trkpt>
      <trkpt lat="45.92867" lon="4.74039">
        <ele>172</ele>
        <time>2017-12-20T09:26:36Z</time>
      </trkpt>
      <trkpt lat="45.92864" lon="4.74045">
        <ele>172</ele>
        <time>2017-12-20T09:26:37Z</time>
      </trkpt>
      <trkpt lat="45.9286" lon="4.74051">
        <ele>172</ele>
        <time>2017-12-20T09:26:38Z</time>
      </trkpt>
      <trkpt lat="45.92856" lon="4.74057">
        <ele>172</ele>
        <time>2017-12-20T09:26:39Z</time>
      </trkpt>
      <trkpt lat="45.92853" lon="4.74063">
        <ele>172</ele>
        <time>2017-12-20T09:26:40Z</time>
      </trkpt>
      <trkpt lat="45.92848" lon="4.74068">
        <ele>172</ele>
        <time>2017-12-20T09:26:41Z</time>
      </trkpt>
      <trkpt lat="45.92844" lon="4.74073">
        <ele>172</ele>
        <time>2017-12-20T09:26:42Z</time>
      </trkpt>
      <trkpt lat="45.9284" lon="4.74077">
        <ele>171</ele>
        <time>2017-12-20T09:26:43Z</time>
      </trkpt>
      <trkpt lat="45.92836" lon="4.74082">
        <ele>171</ele>
        <time>2017-12-20T09:26:44Z</time>
      </trkpt>
      <trkpt lat="45.92832" lon="4.74087">
        <ele>171</ele>
        <time>2017-12-20T09:26:45Z</time>
      </trkpt>
      <trkpt lat="45.92827" lon="4.74092">
        <ele>171</ele>
        <time>2017-12-20T09:26:46Z</time>
      </trkpt>
      <trkpt lat="45.92823" lon="4.74097">
        <ele>171</ele>
        <time>2017-12-20T09:26:47Z</time>
      </trkpt>
      <trkpt lat="45.92818" lon="4.74102">
        <ele>171</ele>
        <time>2017-12-20T09:26:48Z</time>
      </trkpt>
      <trkpt lat="45.92814" lon="4.74108">
        <ele>172</ele>
        <time>2017-12-20T09:26:49Z</time>
      </trkpt>
      <trkpt lat="45.9281" lon="4.74114">
        <ele>172</ele>
        <time>2017-12-20T09:26:50Z</time>
      </trkpt>
      <trkpt lat="45.92805" lon="4.74119">
        <ele>172</ele>
        <time>2017-12-20T09:26:51Z</time>
      </trkpt>
      <trkpt lat="45.92801" lon="4.74123">
        <ele>172</ele>
        <time>2017-12-20T09:26:52Z</time>
      </trkpt>
      <trkpt lat="45.92796" lon="4.74128">
        <ele>172</ele>
        <time>2017-12-20T09:26:53Z</time>
      </trkpt>
      <trkpt lat="45.9279" lon="4.74132">
        <ele>172</ele>
        <time>2017-12-20T09:26:54Z</time>
      </trkpt>
      <trkpt lat="45.92787" lon="4.74136">
        <ele>172</ele>
        <time>2017-12-20T09:26:55Z</time>
      </trkpt>
      <trkpt lat="45.92782" lon="4.7414">
        <ele>172</ele>
        <time>2017-12-20T09:26:56Z</time>
      </trkpt>
      <trkpt lat="45.92777" lon="4.74144">
        <ele>172</ele>
        <time>2017-12-20T09:26:57Z</time>
      </trkpt>
      <trkpt lat="45.92773" lon="4.74149">
        <ele>172</ele>
        <time>2017-12-20T09:26:58Z</time>
      </trkpt>
      <trkpt lat="45.9277" lon="4.74152">
        <ele>172</ele>
        <time>2017-12-20T09:26:59Z</time>
      </trkpt>
      <trkpt lat="45.92766" lon="4.74156">
        <ele>172</ele>
        <time>2017-12-20T09:27:00Z</time>
      </trkpt>
      <trkpt lat="45.92761" lon="4.7416">
        <ele>172</ele>
        <time>2017-12-20T09:27:01Z</time>
      </trkpt>
      <trkpt lat="45.92756" lon="4.74164">
        <ele>172</ele>
        <time>2017-12-20T09:27:02Z</time>
      </trkpt>
      <trkpt lat="45.92751" lon="4.74169">
        <ele>172</ele>
        <time>2017-12-20T09:27:03Z</time>
      </trkpt>
      <trkpt lat="45.92747" lon="4.74173">
        <ele>172</ele>
        <time>2017-12-20T09:27:04Z</time>
      </trkpt>
      <trkpt lat="45.92743" lon="4.74179">
        <ele>172</ele>
        <time>2017-12-20T09:27:05Z</time>
      </trkpt>
      <trkpt lat="45.92739" lon="4.74184">
        <ele>172</ele>
        <time>2017-12-20T09:27:06Z</time>
      </trkpt>
      <trkpt lat="45.92735" lon="4.74188">
        <ele>171</ele>
        <time>2017-12-20T09:27:07Z</time>
      </trkpt>
      <trkpt lat="45.9273" lon="4.74194">
        <ele>171</ele>
        <time>2017-12-20T09:27:08Z</time>
      </trkpt>
      <trkpt lat="45.92726" lon="4.742">
        <ele>171</ele>
        <time>2017-12-20T09:27:09Z</time>
      </trkpt>
      <trkpt lat="45.92722" lon="4.74206">
        <ele>171</ele>
        <time>2017-12-20T09:27:10Z</time>
      </trkpt>
      <trkpt lat="45.92718" lon="4.74212">
        <ele>171</ele>
        <time>2017-12-20T09:27:11Z</time>
      </trkpt>
      <trkpt lat="45.92714" lon="4.74218">
        <ele>171</ele>
        <time>2017-12-20T09:27:12Z</time>
      </trkpt>
      <trkpt lat="45.92709" lon="4.74222">
        <ele>171</ele>
        <time>2017-12-20T09:27:13Z</time>
      </trkpt>
      <trkpt lat="45.92705" lon="4.74228">
        <ele>171</ele>
        <time>2017-12-20T09:27:14Z</time>
      </trkpt>
      <trkpt lat="45.927" lon="4.74234">
        <ele>171</ele>
        <time>2017-12-20T09:27:15Z</time>
      </trkpt>
      <trkpt lat="45.92696" lon="4.7424">
        <ele>171</ele>
        <time>2017-12-20T09:27:16Z</time>
      </trkpt>
      <trkpt lat="45.92693" lon="4.74246">
        <ele>171</ele>
        <time>2017-12-20T09:27:17Z</time>
      </trkpt>
      <trkpt lat="45.9269" lon="4.74253">
        <ele>171</ele>
        <time>2017-12-20T09:27:18Z</time>
      </trkpt>
      <trkpt lat="45.92686" lon="4.74259">
        <ele>171</ele>
        <time>2017-12-20T09:27:19Z</time>
      </trkpt>
      <trkpt lat="45.92683" lon="4.74264">
        <ele>171</ele>
        <time>2017-12-20T09:27:20Z</time>
      </trkpt>
      <trkpt lat="45.9268" lon="4.74271">
        <ele>171</ele>
        <time>2017-12-20T09:27:21Z</time>
      </trkpt>
      <trkpt lat="45.92676" lon="4.74277">
        <ele>171</ele>
        <time>2017-12-20T09:27:22Z</time>
      </trkpt>
      <trkpt lat="45.92672" lon="4.74283">
        <ele>171</ele>
        <time>2017-12-20T09:27:23Z</time>
      </trkpt>
      <trkpt lat="45.9267" lon="4.7429">
        <ele>171</ele>
        <time>2017-12-20T09:27:24Z</time>
      </trkpt>
      <trkpt lat="45.92666" lon="4.74297">
        <ele>171</ele>
        <time>2017-12-20T09:27:25Z</time>
      </trkpt>
      <trkpt lat="45.92662" lon="4.74303">
        <ele>171</ele>
        <time>2017-12-20T09:27:26Z</time>
      </trkpt>
      <trkpt lat="45.92659" lon="4.74308">
        <ele>171</ele>
        <time>2017-12-20T09:27:27Z</time>
      </trkpt>
      <trkpt lat="45.92655" lon="4.74314">
        <ele>171</ele>
        <time>2017-12-20T09:27:28Z</time>
      </trkpt>
      <trkpt lat="45.92652" lon="4.74321">
        <ele>171</ele>
        <time>2017-12-20T09:27:29Z</time>
      </trkpt>
      <trkpt lat="45.92648" lon="4.74328">
        <ele>171</ele>
        <time>2017-12-20T09:27:30Z</time>
      </trkpt>
      <trkpt lat="45.92646" lon="4.74335">
        <ele>171</ele>
        <time>2017-12-20T09:27:31Z</time>
      </trkpt>
      <trkpt lat="45.92642" lon="4.74342">
        <ele>171</ele>
        <time>2017-12-20T09:27:32Z</time>
      </trkpt>
      <trkpt lat="45.92639" lon="4.74349">
        <ele>171</ele>
        <time>2017-12-20T09:27:33Z</time>
      </trkpt>
      <trkpt lat="45.92636" lon="4.74357">
        <ele>171</ele>
        <time>2017-12-20T09:27:34Z</time>
      </trkpt>
      <trkpt lat="45.92632" lon="4.74364">
        <ele>171</ele>
        <time>2017-12-20T09:27:35Z</time>
      </trkpt>
      <trkpt lat="45.92628" lon="4.74371">
        <ele>171</ele>
        <time>2017-12-20T09:27:36Z</time>
      </trkpt>
      <trkpt lat="45.92624" lon="4.74379">
        <ele>170</ele>
        <time>2017-12-20T09:27:37Z</time>
      </trkpt>
      <trkpt lat="45.9262" lon="4.74386">
        <ele>170</ele>
        <time>2017-12-20T09:27:38Z</time>
      </trkpt>
      <trkpt lat="45.92616" lon="4.74394">
        <ele>170</ele>
        <time>2017-12-20T09:27:39Z</time>
      </trkpt>
      <trkpt lat="45.92612" lon="4.744">
        <ele>170</ele>
        <time>2017-12-20T09:27:40Z</time>
      </trkpt>
      <trkpt lat="45.92608" lon="4.74407">
        <ele>170</ele>
        <time>2017-12-20T09:27:41Z</time>
      </trkpt>
      <trkpt lat="45.92604" lon="4.74414">
        <ele>170</ele>
        <time>2017-12-20T09:27:42Z</time>
      </trkpt>
      <trkpt lat="45.926" lon="4.74421">
        <ele>170</ele>
        <time>2017-12-20T09:27:43Z</time>
      </trkpt>
      <trkpt lat="45.92596" lon="4.74428">
        <ele>170</ele>
        <time>2017-12-20T09:27:44Z</time>
      </trkpt>
      <trkpt lat="45.92593" lon="4.74435">
        <ele>170</ele>
        <time>2017-12-20T09:27:45Z</time>
      </trkpt>
      <trkpt lat="45.92589" lon="4.74442">
        <ele>170</ele>
        <time>2017-12-20T09:27:46Z</time>
      </trkpt>
      <trkpt lat="45.92584" lon="4.74449">
        <ele>170</ele>
        <time>2017-12-20T09:27:47Z</time>
      </trkpt>
      <trkpt lat="45.9258" lon="4.74456">
        <ele>170</ele>
        <time>2017-12-20T09:27:48Z</time>
      </trkpt>
      <trkpt lat="45.92576" lon="4.74462">
        <ele>170</ele>
        <time>2017-12-20T09:27:49Z</time>
      </trkpt>
      <trkpt lat="45.92572" lon="4.74469">
        <ele>170</ele>
        <time>2017-12-20T09:27:50Z</time>
      </trkpt>
      <trkpt lat="45.9257" lon="4.74477">
        <ele>170</ele>
        <time>2017-12-20T09:27:51Z</time>
      </trkpt>
      <trkpt lat="45.92566" lon="4.74483">
        <ele>170</ele>
        <time>2017-12-20T09:27:52Z</time>
      </trkpt>
      <trkpt lat="45.92562" lon="4.7449">
        <ele>170</ele>
        <time>2017-12-20T09:27:53Z</time>
      </trkpt>
      <trkpt lat="45.92558" lon="4.74497">
        <ele>170</ele>
        <time>2017-12-20T09:27:54Z</time>
      </trkpt>
      <trkpt lat="45.92555" lon="4.74503">
        <ele>170</ele>
        <time>2017-12-20T09:27:55Z</time>
      </trkpt>
      <trkpt lat="45.92551" lon="4.74511">
        <ele>170</ele>
        <time>2017-12-20T09:27:56Z</time>
      </trkpt>
      <trkpt lat="45.92547" lon="4.74518">
        <ele>170</ele>
        <time>2017-12-20T09:27:57Z</time>
      </trkpt>
      <trkpt lat="45.92543" lon="4.74524">
        <ele>170</ele>
        <time>2017-12-20T09:27:58Z</time>
      </trkpt>
      <trkpt lat="45.92539" lon="4.74532">
        <ele>171</ele>
        <time>2017-12-20T09:27:59Z</time>
      </trkpt>
      <trkpt lat="45.92534" lon="4.74539">
        <ele>171</ele>
        <time>2017-12-20T09:28:00Z</time>
      </trkpt>
      <trkpt lat="45.9253" lon="4.74546">
        <ele>171</ele>
        <time>2017-12-20T09:28:01Z</time>
      </trkpt>
      <trkpt lat="45.92526" lon="4.74552">
        <ele>171</ele>
        <time>2017-12-20T09:28:02Z</time>
      </trkpt>
      <trkpt lat="45.92522" lon="4.74557">
        <ele>171</ele>
        <time>2017-12-20T09:28:03Z</time>
      </trkpt>
      <trkpt lat="45.92518" lon="4.74562">
        <ele>171</ele>
        <time>2017-12-20T09:28:04Z</time>
      </trkpt>
      <trkpt lat="45.92514" lon="4.74567">
        <ele>171</ele>
        <time>2017-12-20T09:28:05Z</time>
      </trkpt>
      <trkpt lat="45.9251" lon="4.74572">
        <ele>171</ele>
        <time>2017-12-20T09:28:06Z</time>
      </trkpt>
      <trkpt lat="45.92506" lon="4.74577">
        <ele>171</ele>
        <time>2017-12-20T09:28:07Z</time>
      </trkpt>
      <trkpt lat="45.92502" lon="4.74583">
        <ele>171</ele>
        <time>2017-12-20T09:28:08Z</time>
      </trkpt>
      <trkpt lat="45.92498" lon="4.74588">
        <ele>171</ele>
        <time>2017-12-20T09:28:09Z</time>
      </trkpt>
      <trkpt lat="45.92493" lon="4.74593">
        <ele>171</ele>
        <time>2017-12-20T09:28:10Z</time>
      </trkpt>
      <trkpt lat="45.9249" lon="4.746">
        <ele>171</ele>
        <time>2017-12-20T09:28:11Z</time>
      </trkpt>
      <trkpt lat="45.92486" lon="4.74604">
        <ele>171</ele>
        <time>2017-12-20T09:28:12Z</time>
      </trkpt>
      <trkpt lat="45.92482" lon="4.74608">
        <ele>171</ele>
        <time>2017-12-20T09:28:13Z</time>
      </trkpt>
      <trkpt lat="45.92478" lon="4.74613">
        <ele>171</ele>
        <time>2017-12-20T09:28:14Z</time>
      </trkpt>
      <trkpt lat="45.92475" lon="4.74619">
        <ele>171</ele>
        <time>2017-12-20T09:28:15Z</time>
      </trkpt>
      <trkpt lat="45.92471" lon="4.74624">
        <ele>171</ele>
        <time>2017-12-20T09:28:16Z</time>
      </trkpt>
      <trkpt lat="45.92467" lon="4.7463">
        <ele>171</ele>
        <time>2017-12-20T09:28:17Z</time>
      </trkpt>
      <trkpt lat="45.92464" lon="4.74635">
        <ele>171</ele>
        <time>2017-12-20T09:28:18Z</time>
      </trkpt>
      <trkpt lat="45.9246" lon="4.74642">
        <ele>171</ele>
        <time>2017-12-20T09:28:19Z</time>
      </trkpt>
      <trkpt lat="45.92456" lon="4.74647">
        <ele>171</ele>
        <time>2017-12-20T09:28:20Z</time>
      </trkpt>
      <trkpt lat="45.92453" lon="4.74651">
        <ele>171</ele>
        <time>2017-12-20T09:28:21Z</time>
      </trkpt>
      <trkpt lat="45.9245" lon="4.74657">
        <ele>171</ele>
        <time>2017-12-20T09:28:22Z</time>
      </trkpt>
      <trkpt lat="45.92446" lon="4.74666">
        <ele>171</ele>
        <time>2017-12-20T09:28:23Z</time>
      </trkpt>
      <trkpt lat="45.92443" lon="4.74672">
        <ele>171</ele>
        <time>2017-12-20T09:28:24Z</time>
      </trkpt>
      <trkpt lat="45.9244" lon="4.74681">
        <ele>171</ele>
        <time>2017-12-20T09:28:25Z</time>
      </trkpt>
      <trkpt lat="45.92438" lon="4.74687">
        <ele>171</ele>
        <time>2017-12-20T09:28:26Z</time>
      </trkpt>
      <trkpt lat="45.92435" lon="4.74695">
        <ele>171</ele>
        <time>2017-12-20T09:28:27Z</time>
      </trkpt>
      <trkpt lat="45.92431" lon="4.74702">
        <ele>171</ele>
        <time>2017-12-20T09:28:28Z</time>
      </trkpt>
      <trkpt lat="45.92429" lon="4.7471">
        <ele>171</ele>
        <time>2017-12-20T09:28:29Z</time>
      </trkpt>
      <trkpt lat="45.92426" lon="4.74718">
        <ele>171</ele>
        <time>2017-12-20T09:28:30Z</time>
      </trkpt>
      <trkpt lat="45.92424" lon="4.74725">
        <ele>171</ele>
        <time>2017-12-20T09:28:31Z</time>
      </trkpt>
      <trkpt lat="45.92421" lon="4.74734">
        <ele>171</ele>
        <time>2017-12-20T09:28:32Z</time>
      </trkpt>
      <trkpt lat="45.92419" lon="4.74741">
        <ele>172</ele>
        <time>2017-12-20T09:28:33Z</time>
      </trkpt>
      <trkpt lat="45.92416" lon="4.74749">
        <ele>172</ele>
        <time>2017-12-20T09:28:34Z</time>
      </trkpt>
      <trkpt lat="45.92413" lon="4.74757">
        <ele>172</ele>
        <time>2017-12-20T09:28:35Z</time>
      </trkpt>
      <trkpt lat="45.92411" lon="4.74765">
        <ele>172</ele>
        <time>2017-12-20T09:28:36Z</time>
      </trkpt>
      <trkpt lat="45.92409" lon="4.74773">
        <ele>171</ele>
        <time>2017-12-20T09:28:37Z</time>
      </trkpt>
      <trkpt lat="45.92407" lon="4.74781">
        <ele>171</ele>
        <time>2017-12-20T09:28:38Z</time>
      </trkpt>
      <trkpt lat="45.92405" lon="4.74789">
        <ele>171</ele>
        <time>2017-12-20T09:28:39Z</time>
      </trkpt>
      <trkpt lat="45.92404" lon="4.74796">
        <ele>171</ele>
        <time>2017-12-20T09:28:40Z</time>
      </trkpt>
      <trkpt lat="45.92402" lon="4.74804">
        <ele>171</ele>
        <time>2017-12-20T09:28:41Z</time>
      </trkpt>
      <trkpt lat="45.924" lon="4.74813">
        <ele>171</ele>
        <time>2017-12-20T09:28:42Z</time>
      </trkpt>
      <trkpt lat="45.92398" lon="4.74821">
        <ele>171</ele>
        <time>2017-12-20T09:28:43Z</time>
      </trkpt>
      <trkpt lat="45.92396" lon="4.74829">
        <ele>171</ele>
        <time>2017-12-20T09:28:44Z</time>
      </trkpt>
      <trkpt lat="45.92394" lon="4.74839">
        <ele>171</ele>
        <time>2017-12-20T09:28:45Z</time>
      </trkpt>
      <trkpt lat="45.9239" lon="4.74848">
        <ele>171</ele>
        <time>2017-12-20T09:28:46Z</time>
      </trkpt>
      <trkpt lat="45.92388" lon="4.74856">
        <ele>171</ele>
        <time>2017-12-20T09:28:47Z</time>
      </trkpt>
      <trkpt lat="45.92385" lon="4.74864">
        <ele>171</ele>
        <time>2017-12-20T09:28:48Z</time>
      </trkpt>
      <trkpt lat="45.92382" lon="4.74872">
        <ele>171</ele>
        <time>2017-12-20T09:28:49Z</time>
      </trkpt>
      <trkpt lat="45.92379" lon="4.74879">
        <ele>171</ele>
        <time>2017-12-20T09:28:50Z</time>
      </trkpt>
      <trkpt lat="45.92376" lon="4.74886">
        <ele>171</ele>
        <time>2017-12-20T09:28:51Z</time>
      </trkpt>
      <trkpt lat="45.92373" lon="4.74892">
        <ele>171</ele>
        <time>2017-12-20T09:28:52Z</time>
      </trkpt>
      <trkpt lat="45.92371" lon="4.74899">
        <ele>171</ele>
        <time>2017-12-20T09:28:53Z</time>
      </trkpt>
      <trkpt lat="45.92368" lon="4.74906">
        <ele>171</ele>
        <time>2017-12-20T09:28:54Z</time>
      </trkpt>
      <trkpt lat="45.92365" lon="4.74912">
        <ele>171</ele>
        <time>2017-12-20T09:28:55Z</time>
      </trkpt>
      <trkpt lat="45.92363" lon="4.74918">
        <ele>170</ele>
        <time>2017-12-20T09:28:56Z</time>
      </trkpt>
      <trkpt lat="45.9236" lon="4.74925">
        <ele>170</ele>
        <time>2017-12-20T09:28:57Z</time>
      </trkpt>
      <trkpt lat="45.92358" lon="4.74932">
        <ele>170</ele>
        <time>2017-12-20T09:28:58Z</time>
      </trkpt>
      <trkpt lat="45.92356" lon="4.74938">
        <ele>170</ele>
        <time>2017-12-20T09:28:59Z</time>
      </trkpt>
      <trkpt lat="45.92354" lon="4.74945">
        <ele>170</ele>
        <time>2017-12-20T09:29:00Z</time>
      </trkpt>
      <trkpt lat="45.92351" lon="4.74952">
        <ele>170</ele>
        <time>2017-12-20T09:29:01Z</time>
      </trkpt>
      <trkpt lat="45.92349" lon="4.74957">
        <ele>170</ele>
        <time>2017-12-20T09:29:02Z</time>
      </trkpt>
      <trkpt lat="45.92346" lon="4.74965">
        <ele>170</ele>
        <time>2017-12-20T09:29:03Z</time>
      </trkpt>
      <trkpt lat="45.92344" lon="4.74972">
        <ele>170</ele>
        <time>2017-12-20T09:29:04Z</time>
      </trkpt>
      <trkpt lat="45.92341" lon="4.74979">
        <ele>170</ele>
        <time>2017-12-20T09:29:05Z</time>
      </trkpt>
      <trkpt lat="45.92338" lon="4.74986">
        <ele>170</ele>
        <time>2017-12-20T09:29:06Z</time>
      </trkpt>
      <trkpt lat="45.92335" lon="4.74992">
        <ele>170</ele>
        <time>2017-12-20T09:29:07Z</time>
      </trkpt>
      <trkpt lat="45.92332" lon="4.74999">
        <ele>170</ele>
        <time>2017-12-20T09:29:08Z</time>
      </trkpt>
      <trkpt lat="45.9233" lon="4.75007">
        <ele>170</ele>
        <time>2017-12-20T09:29:09Z</time>
      </trkpt>
      <trkpt lat="45.92326" lon="4.75014">
        <ele>171</ele>
        <time>2017-12-20T09:29:10Z</time>
      </trkpt>
      <trkpt lat="45.92323" lon="4.75021">
        <ele>171</ele>
        <time>2017-12-20T09:29:11Z</time>
      </trkpt>
      <trkpt lat="45.92319" lon="4.75027">
        <ele>171</ele>
        <time>2017-12-20T09:29:12Z</time>
      </trkpt>
      <trkpt lat="45.92314" lon="4.75034">
        <ele>171</ele>
        <time>2017-12-20T09:29:13Z</time>
      </trkpt>
      <trkpt lat="45.92309" lon="4.7504">
        <ele>172</ele>
        <time>2017-12-20T09:29:14Z</time>
      </trkpt>
      <trkpt lat="45.92306" lon="4.75046">
        <ele>172</ele>
        <time>2017-12-20T09:29:15Z</time>
      </trkpt>
      <trkpt lat="45.92303" lon="4.75052">
        <ele>172</ele>
        <time>2017-12-20T09:29:16Z</time>
      </trkpt>
      <trkpt lat="45.92298" lon="4.75058">
        <ele>172</ele>
        <time>2017-12-20T09:29:17Z</time>
      </trkpt>
      <trkpt lat="45.92294" lon="4.75064">
        <ele>172</ele>
        <time>2017-12-20T09:29:18Z</time>
      </trkpt>
      <trkpt lat="45.92288" lon="4.75069">
        <ele>172</ele>
        <time>2017-12-20T09:29:19Z</time>
      </trkpt>
      <trkpt lat="45.92284" lon="4.75073">
        <ele>172</ele>
        <time>2017-12-20T09:29:20Z</time>
      </trkpt>
      <trkpt lat="45.9228" lon="4.75079">
        <ele>172</ele>
        <time>2017-12-20T09:29:21Z</time>
      </trkpt>
      <trkpt lat="45.92275" lon="4.75084">
        <ele>173</ele>
        <time>2017-12-20T09:29:22Z</time>
      </trkpt>
      <trkpt lat="45.9227" lon="4.75089">
        <ele>173</ele>
        <time>2017-12-20T09:29:23Z</time>
      </trkpt>
      <trkpt lat="45.92265" lon="4.75094">
        <ele>173</ele>
        <time>2017-12-20T09:29:24Z</time>
      </trkpt>
      <trkpt lat="45.92261" lon="4.751">
        <ele>173</ele>
        <time>2017-12-20T09:29:25Z</time>
      </trkpt>
      <trkpt lat="45.92257" lon="4.75105">
        <ele>173</ele>
        <time>2017-12-20T09:29:26Z</time>
      </trkpt>
      <trkpt lat="45.92252" lon="4.7511">
        <ele>174</ele>
        <time>2017-12-20T09:29:27Z</time>
      </trkpt>
      <trkpt lat="45.92247" lon="4.75115">
        <ele>174</ele>
        <time>2017-12-20T09:29:28Z</time>
      </trkpt>
      <trkpt lat="45.92243" lon="4.75121">
        <ele>174</ele>
        <time>2017-12-20T09:29:29Z</time>
      </trkpt>
      <trkpt lat="45.92239" lon="4.75126">
        <ele>174</ele>
        <time>2017-12-20T09:29:30Z</time>
      </trkpt>
      <trkpt lat="45.92235" lon="4.75132">
        <ele>174</ele>
        <time>2017-12-20T09:29:31Z</time>
      </trkpt>
      <trkpt lat="45.92231" lon="4.75139">
        <ele>174</ele>
        <time>2017-12-20T09:29:32Z</time>
      </trkpt>
      <trkpt lat="45.92227" lon="4.75146">
        <ele>174</ele>
        <time>2017-12-20T09:29:33Z</time>
      </trkpt>
      <trkpt lat="45.92225" lon="4.75154">
        <ele>174</ele>
        <time>2017-12-20T09:29:34Z</time>
      </trkpt>
      <trkpt lat="45.92221" lon="4.7516">
        <ele>174</ele>
        <time>2017-12-20T09:29:35Z</time>
      </trkpt>
      <trkpt lat="45.92218" lon="4.75167">
        <ele>175</ele>
        <time>2017-12-20T09:29:36Z</time>
      </trkpt>
      <trkpt lat="45.92216" lon="4.75175">
        <ele>175</ele>
        <time>2017-12-20T09:29:37Z</time>
      </trkpt>
      <trkpt lat="45.92214" lon="4.75182">
        <ele>175</ele>
        <time>2017-12-20T09:29:38Z</time>
      </trkpt>
      <trkpt lat="45.92213" lon="4.75189">
        <ele>175</ele>
        <time>2017-12-20T09:29:39Z</time>
      </trkpt>
      <trkpt lat="45.92212" lon="4.75197">
        <ele>175</ele>
        <time>2017-12-20T09:29:40Z</time>
      </trkpt>
      <trkpt lat="45.92211" lon="4.75204">
        <ele>175</ele>
        <time>2017-12-20T09:29:41Z</time>
      </trkpt>
      <trkpt lat="45.9221" lon="4.75211">
        <ele>175</ele>
        <time>2017-12-20T09:29:42Z</time>
      </trkpt>
      <trkpt lat="45.9221" lon="4.75218">
        <ele>175</ele>
        <time>2017-12-20T09:29:43Z</time>
      </trkpt>
      <trkpt lat="45.92209" lon="4.75226">
        <ele>175</ele>
        <time>2017-12-20T09:29:44Z</time>
      </trkpt>
      <trkpt lat="45.92208" lon="4.75232">
        <ele>175</ele>
        <time>2017-12-20T09:29:45Z</time>
      </trkpt>
      <trkpt lat="45.92208" lon="4.75239">
        <ele>175</ele>
        <time>2017-12-20T09:29:46Z</time>
      </trkpt>
      <trkpt lat="45.92208" lon="4.75246">
        <ele>175</ele>
        <time>2017-12-20T09:29:47Z</time>
      </trkpt>
      <trkpt lat="45.92209" lon="4.75254">
        <ele>175</ele>
        <time>2017-12-20T09:29:48Z</time>
      </trkpt>
      <trkpt lat="45.92209" lon="4.7526">
        <ele>176</ele>
        <time>2017-12-20T09:29:49Z</time>
      </trkpt>
      <trkpt lat="45.92209" lon="4.75267">
        <ele>176</ele>
        <time>2017-12-20T09:29:50Z</time>
      </trkpt>
      <trkpt lat="45.92209" lon="4.75273">
        <ele>176</ele>
        <time>2017-12-20T09:29:51Z</time>
      </trkpt>
      <trkpt lat="45.92209" lon="4.7528">
        <ele>176</ele>
        <time>2017-12-20T09:29:52Z</time>
      </trkpt>
      <trkpt lat="45.92209" lon="4.75287">
        <ele>176</ele>
        <time>2017-12-20T09:29:53Z</time>
      </trkpt>
      <trkpt lat="45.92209" lon="4.75295">
        <ele>176</ele>
        <time>2017-12-20T09:29:54Z</time>
      </trkpt>
      <trkpt lat="45.92208" lon="4.75301">
        <ele>176</ele>
        <time>2017-12-20T09:29:55Z</time>
      </trkpt>
      <trkpt lat="45.92207" lon="4.75308">
        <ele>176</ele>
        <time>2017-12-20T09:29:56Z</time>
      </trkpt>
      <trkpt lat="45.92206" lon="4.75316">
        <ele>176</ele>
        <time>2017-12-20T09:29:57Z</time>
      </trkpt>
      <trkpt lat="45.92203" lon="4.75323">
        <ele>176</ele>
        <time>2017-12-20T09:29:58Z</time>
      </trkpt>
      <trkpt lat="45.92202" lon="4.7533">
        <ele>176</ele>
        <time>2017-12-20T09:29:59Z</time>
      </trkpt>
      <trkpt lat="45.92201" lon="4.75336">
        <ele>177</ele>
        <time>2017-12-20T09:30:00Z</time>
      </trkpt>
      <trkpt lat="45.92199" lon="4.75343">
        <ele>177</ele>
        <time>2017-12-20T09:30:01Z</time>
      </trkpt>
      <trkpt lat="45.92195" lon="4.75354">
        <ele>177</ele>
        <time>2017-12-20T09:30:03Z</time>
      </trkpt>
      <trkpt lat="45.92193" lon="4.7536">
        <ele>177</ele>
        <time>2017-12-20T09:30:04Z</time>
      </trkpt>
      <trkpt lat="45.92191" lon="4.75367">
        <ele>177</ele>
        <time>2017-12-20T09:30:05Z</time>
      </trkpt>
      <trkpt lat="45.92188" lon="4.75373">
        <ele>177</ele>
        <time>2017-12-20T09:30:06Z</time>
      </trkpt>
      <trkpt lat="45.92186" lon="4.7538">
        <ele>177</ele>
        <time>2017-12-20T09:30:07Z</time>
      </trkpt>
      <trkpt lat="45.92184" lon="4.75385">
        <ele>177</ele>
        <time>2017-12-20T09:30:08Z</time>
      </trkpt>
      <trkpt lat="45.92181" lon="4.75392">
        <ele>177</ele>
        <time>2017-12-20T09:30:09Z</time>
      </trkpt>
      <trkpt lat="45.92179" lon="4.75399">
        <ele>177</ele>
        <time>2017-12-20T09:30:10Z</time>
      </trkpt>
      <trkpt lat="45.92177" lon="4.75404">
        <ele>177</ele>
        <time>2017-12-20T09:30:11Z</time>
      </trkpt>
      <trkpt lat="45.92175" lon="4.75412">
        <ele>178</ele>
        <time>2017-12-20T09:30:12Z</time>
      </trkpt>
      <trkpt lat="45.92174" lon="4.75418">
        <ele>177</ele>
        <time>2017-12-20T09:30:13Z</time>
      </trkpt>
      <trkpt lat="45.9217" lon="4.75427">
        <ele>177</ele>
        <time>2017-12-20T09:30:14Z</time>
      </trkpt>
      <trkpt lat="45.92167" lon="4.75434">
        <ele>177</ele>
        <time>2017-12-20T09:30:15Z</time>
      </trkpt>
      <trkpt lat="45.92164" lon="4.75442">
        <ele>177</ele>
        <time>2017-12-20T09:30:16Z</time>
      </trkpt>
      <trkpt lat="45.92161" lon="4.75449">
        <ele>176</ele>
        <time>2017-12-20T09:30:17Z</time>
      </trkpt>
      <trkpt lat="45.92158" lon="4.75456">
        <ele>176</ele>
        <time>2017-12-20T09:30:18Z</time>
      </trkpt>
      <trkpt lat="45.92155" lon="4.75463">
        <ele>176</ele>
        <time>2017-12-20T09:30:19Z</time>
      </trkpt>
      <trkpt lat="45.92153" lon="4.7547">
        <ele>176</ele>
        <time>2017-12-20T09:30:20Z</time>
      </trkpt>
      <trkpt lat="45.9215" lon="4.75478">
        <ele>176</ele>
        <time>2017-12-20T09:30:21Z</time>
      </trkpt>
      <trkpt lat="45.92146" lon="4.75484">
        <ele>176</ele>
        <time>2017-12-20T09:30:22Z</time>
      </trkpt>
      <trkpt lat="45.92143" lon="4.7549">
        <ele>176</ele>
        <time>2017-12-20T09:30:23Z</time>
      </trkpt>
      <trkpt lat="45.92141" lon="4.75498">
        <ele>175</ele>
        <time>2017-12-20T09:30:24Z</time>
      </trkpt>
      <trkpt lat="45.92136" lon="4.75503">
        <ele>174</ele>
        <time>2017-12-20T09:30:25Z</time>
      </trkpt>
      <trkpt lat="45.92133" lon="4.75509">
        <ele>174</ele>
        <time>2017-12-20T09:30:26Z</time>
      </trkpt>
      <trkpt lat="45.92131" lon="4.75515">
        <ele>174</ele>
        <time>2017-12-20T09:30:27Z</time>
      </trkpt>
      <trkpt lat="45.92127" lon="4.75521">
        <ele>174</ele>
        <time>2017-12-20T09:30:28Z</time>
      </trkpt>
      <trkpt lat="45.92124" lon="4.75527">
        <ele>174</ele>
        <time>2017-12-20T09:30:29Z</time>
      </trkpt>
      <trkpt lat="45.9212" lon="4.75533">
        <ele>174</ele>
        <time>2017-12-20T09:30:30Z</time>
      </trkpt>
      <trkpt lat="45.92117" lon="4.75538">
        <ele>174</ele>
        <time>2017-12-20T09:30:31Z</time>
      </trkpt>
      <trkpt lat="45.92114" lon="4.75544">
        <ele>174</ele>
        <time>2017-12-20T09:30:32Z</time>
      </trkpt>
      <trkpt lat="45.92111" lon="4.75549">
        <ele>174</ele>
        <time>2017-12-20T09:30:33Z</time>
      </trkpt>
      <trkpt lat="45.92108" lon="4.75554">
        <ele>174</ele>
        <time>2017-12-20T09:30:34Z</time>
      </trkpt>
      <trkpt lat="45.92106" lon="4.75565">
        <ele>174</ele>
        <time>2017-12-20T09:30:36Z</time>
      </trkpt>
      <trkpt lat="45.92106" lon="4.75571">
        <ele>174</ele>
        <time>2017-12-20T09:30:37Z</time>
      </trkpt>
      <trkpt lat="45.92108" lon="4.75578">
        <ele>174</ele>
        <time>2017-12-20T09:30:38Z</time>
      </trkpt>
      <trkpt lat="45.92113" lon="4.75583">
        <ele>174</ele>
        <time>2017-12-20T09:30:39Z</time>
      </trkpt>
      <trkpt lat="45.92117" lon="4.75588">
        <ele>174</ele>
        <time>2017-12-20T09:30:40Z</time>
      </trkpt>
      <trkpt lat="45.92121" lon="4.75595">
        <ele>174</ele>
        <time>2017-12-20T09:30:41Z</time>
      </trkpt>
      <trkpt lat="45.92126" lon="4.75599">
        <ele>174</ele>
        <time>2017-12-20T09:30:42Z</time>
      </trkpt>
      <trkpt lat="45.92131" lon="4.75603">
        <ele>174</ele>
        <time>2017-12-20T09:30:43Z</time>
      </trkpt>
      <trkpt lat="45.92135" lon="4.75608">
        <ele>174</ele>
        <time>2017-12-20T09:30:44Z</time>
      </trkpt>
      <trkpt lat="45.9214" lon="4.75611">
        <ele>174</ele>
        <time>2017-12-20T09:30:45Z</time>
      </trkpt>
      <trkpt lat="45.92145" lon="4.75617">
        <ele>174</ele>
        <time>2017-12-20T09:30:46Z</time>
      </trkpt>
      <trkpt lat="45.92149" lon="4.75621">
        <ele>174</ele>
        <time>2017-12-20T09:30:47Z</time>
      </trkpt>
      <trkpt lat="45.92154" lon="4.75627">
        <ele>174</ele>
        <time>2017-12-20T09:30:48Z</time>
      </trkpt>
      <trkpt lat="45.92159" lon="4.75632">
        <ele>174</ele>
        <time>2017-12-20T09:30:49Z</time>
      </trkpt>
      <trkpt lat="45.92163" lon="4.75636">
        <ele>174</ele>
        <time>2017-12-20T09:30:50Z</time>
      </trkpt>
      <trkpt lat="45.92168" lon="4.7564">
        <ele>174</ele>
        <time>2017-12-20T09:30:51Z</time>
      </trkpt>
      <trkpt lat="45.92173" lon="4.75645">
        <ele>174</ele>
        <time>2017-12-20T09:30:52Z</time>
      </trkpt>
      <trkpt lat="45.92177" lon="4.75649">
        <ele>174</ele>
        <time>2017-12-20T09:30:53Z</time>
      </trkpt>
      <trkpt lat="45.92182" lon="4.75654">
        <ele>174</ele>
        <time>2017-12-20T09:30:54Z</time>
      </trkpt>
      <trkpt lat="45.92186" lon="4.75658">
        <ele>174</ele>
        <time>2017-12-20T09:30:55Z</time>
      </trkpt>
      <trkpt lat="45.92191" lon="4.75662">
        <ele>174</ele>
        <time>2017-12-20T09:30:56Z</time>
      </trkpt>
      <trkpt lat="45.92195" lon="4.75666">
        <ele>174</ele>
        <time>2017-12-20T09:30:57Z</time>
      </trkpt>
      <trkpt lat="45.92199" lon="4.7567">
        <ele>174</ele>
        <time>2017-12-20T09:30:58Z</time>
      </trkpt>
      <trkpt lat="45.92203" lon="4.75674">
        <ele>174</ele>
        <time>2017-12-20T09:30:59Z</time>
      </trkpt>
      <trkpt lat="45.92208" lon="4.7568">
        <ele>174</ele>
        <time>2017-12-20T09:31:00Z</time>
      </trkpt>
      <trkpt lat="45.92212" lon="4.75682">
        <ele>174</ele>
        <time>2017-12-20T09:31:01Z</time>
      </trkpt>
      <trkpt lat="45.92216" lon="4.75686">
        <ele>174</ele>
        <time>2017-12-20T09:31:02Z</time>
      </trkpt>
      <trkpt lat="45.92221" lon="4.7569">
        <ele>174</ele>
        <time>2017-12-20T09:31:03Z</time>
      </trkpt>
      <trkpt lat="45.92225" lon="4.75695">
        <ele>174</ele>
        <time>2017-12-20T09:31:04Z</time>
      </trkpt>
      <trkpt lat="45.92228" lon="4.75699">
        <ele>174</ele>
        <time>2017-12-20T09:31:05Z</time>
      </trkpt>
      <trkpt lat="45.92233" lon="4.75704">
        <ele>174</ele>
        <time>2017-12-20T09:31:06Z</time>
      </trkpt>
      <trkpt lat="45.92236" lon="4.75709">
        <ele>174</ele>
        <time>2017-12-20T09:31:07Z</time>
      </trkpt>
      <trkpt lat="45.9224" lon="4.75715">
        <ele>174</ele>
        <time>2017-12-20T09:31:08Z</time>
      </trkpt>
      <trkpt lat="45.92242" lon="4.75722">
        <ele>174</ele>
        <time>2017-12-20T09:31:09Z</time>
      </trkpt>
      <trkpt lat="45.92244" lon="4.75728">
        <ele>174</ele>
        <time>2017-12-20T09:31:10Z</time>
      </trkpt>
      <trkpt lat="45.92246" lon="4.75734">
        <ele>174</ele>
        <time>2017-12-20T09:31:11Z</time>
      </trkpt>
      <trkpt lat="45.92248" lon="4.75741">
        <ele>174</ele>
        <time>2017-12-20T09:31:12Z</time>
      </trkpt>
      <trkpt lat="45.92249" lon="4.75748">
        <ele>174</ele>
        <time>2017-12-20T09:31:13Z</time>
      </trkpt>
      <trkpt lat="45.92251" lon="4.75754">
        <ele>174</ele>
        <time>2017-12-20T09:31:14Z</time>
      </trkpt>
      <trkpt lat="45.92251" lon="4.75761">
        <ele>174</ele>
        <time>2017-12-20T09:31:15Z</time>
      </trkpt>
      <trkpt lat="45.92252" lon="4.75768">
        <ele>174</ele>
        <time>2017-12-20T09:31:16Z</time>
      </trkpt>
      <trkpt lat="45.92253" lon="4.75775">
        <ele>174</ele>
        <time>2017-12-20T09:31:17Z</time>
      </trkpt>
      <trkpt lat="45.92255" lon="4.75787">
        <ele>174</ele>
        <time>2017-12-20T09:31:19Z</time>
      </trkpt>
      <trkpt lat="45.92257" lon="4.75793">
        <ele>174</ele>
        <time>2017-12-20T09:31:20Z</time>
      </trkpt>
      <trkpt lat="45.92259" lon="4.758">
        <ele>174</ele>
        <time>2017-12-20T09:31:21Z</time>
      </trkpt>
      <trkpt lat="45.9226" lon="4.75805">
        <ele>174</ele>
        <time>2017-12-20T09:31:22Z</time>
      </trkpt>
      <trkpt lat="45.92262" lon="4.75812">
        <ele>174</ele>
        <time>2017-12-20T09:31:23Z</time>
      </trkpt>
      <trkpt lat="45.92266" lon="4.75817">
        <ele>174</ele>
        <time>2017-12-20T09:31:24Z</time>
      </trkpt>
      <trkpt lat="45.92269" lon="4.75823">
        <ele>174</ele>
        <time>2017-12-20T09:31:25Z</time>
      </trkpt>
      <trkpt lat="45.92273" lon="4.75828">
        <ele>174</ele>
        <time>2017-12-20T09:31:26Z</time>
      </trkpt>
      <trkpt lat="45.92278" lon="4.75832">
        <ele>174</ele>
        <time>2017-12-20T09:31:27Z</time>
      </trkpt>
      <trkpt lat="45.92283" lon="4.75836">
        <ele>173</ele>
        <time>2017-12-20T09:31:28Z</time>
      </trkpt>
      <trkpt lat="45.92289" lon="4.75838">
        <ele>173</ele>
        <time>2017-12-20T09:31:29Z</time>
      </trkpt>
      <trkpt lat="45.92293" lon="4.75841">
        <ele>173</ele>
        <time>2017-12-20T09:31:30Z</time>
      </trkpt>
      <trkpt lat="45.92297" lon="4.75844">
        <ele>173</ele>
        <time>2017-12-20T09:31:31Z</time>
      </trkpt>
      <trkpt lat="45.92302" lon="4.75847">
        <ele>173</ele>
        <time>2017-12-20T09:31:32Z</time>
      </trkpt>
      <trkpt lat="45.92307" lon="4.7585">
        <ele>173</ele>
        <time>2017-12-20T09:31:33Z</time>
      </trkpt>
      <trkpt lat="45.92312" lon="4.75853">
        <ele>173</ele>
        <time>2017-12-20T09:31:34Z</time>
      </trkpt>
      <trkpt lat="45.92317" lon="4.75856">
        <ele>173</ele>
        <time>2017-12-20T09:31:35Z</time>
      </trkpt>
      <trkpt lat="45.92322" lon="4.7586">
        <ele>173</ele>
        <time>2017-12-20T09:31:36Z</time>
      </trkpt>
      <trkpt lat="45.92327" lon="4.75863">
        <ele>173</ele>
        <time>2017-12-20T09:31:37Z</time>
      </trkpt>
      <trkpt lat="45.92332" lon="4.75866">
        <ele>173</ele>
        <time>2017-12-20T09:31:38Z</time>
      </trkpt>
      <trkpt lat="45.92336" lon="4.7587">
        <ele>173</ele>
        <time>2017-12-20T09:31:39Z</time>
      </trkpt>
      <trkpt lat="45.92341" lon="4.75873">
        <ele>173</ele>
        <time>2017-12-20T09:31:40Z</time>
      </trkpt>
      <trkpt lat="45.92347" lon="4.75877">
        <ele>173</ele>
        <time>2017-12-20T09:31:41Z</time>
      </trkpt>
      <trkpt lat="45.92352" lon="4.7588">
        <ele>173</ele>
        <time>2017-12-20T09:31:42Z</time>
      </trkpt>
      <trkpt lat="45.92357" lon="4.75883">
        <ele>173</ele>
        <time>2017-12-20T09:31:43Z</time>
      </trkpt>
      <trkpt lat="45.92362" lon="4.75886">
        <ele>173</ele>
        <time>2017-12-20T09:31:44Z</time>
      </trkpt>
      <trkpt lat="45.92368" lon="4.75889">
        <ele>173</ele>
        <time>2017-12-20T09:31:45Z</time>
      </trkpt>
      <trkpt lat="45.92372" lon="4.75893">
        <ele>173</ele>
        <time>2017-12-20T09:31:46Z</time>
      </trkpt>
      <trkpt lat="45.92377" lon="4.75896">
        <ele>173</ele>
        <time>2017-12-20T09:31:47Z</time>
      </trkpt>
      <trkpt lat="45.92381" lon="4.75898">
        <ele>173</ele>
        <time>2017-12-20T09:31:48Z</time>
      </trkpt>
      <trkpt lat="45.92385" lon="4.75901">
        <ele>173</ele>
        <time>2017-12-20T09:31:49Z</time>
      </trkpt>
      <trkpt lat="45.9239" lon="4.75904">
        <ele>173</ele>
        <time>2017-12-20T09:31:50Z</time>
      </trkpt>
      <trkpt lat="45.92394" lon="4.75907">
        <ele>173</ele>
        <time>2017-12-20T09:31:51Z</time>
      </trkpt>
      <trkpt lat="45.92398" lon="4.75911">
        <ele>173</ele>
        <time>2017-12-20T09:31:52Z</time>
      </trkpt>
      <trkpt lat="45.92402" lon="4.75914">
        <ele>172</ele>
        <time>2017-12-20T09:31:53Z</time>
      </trkpt>
      <trkpt lat="45.92407" lon="4.75916">
        <ele>172</ele>
        <time>2017-12-20T09:31:54Z</time>
      </trkpt>
      <trkpt lat="45.92412" lon="4.75919">
        <ele>172</ele>
        <time>2017-12-20T09:31:55Z</time>
      </trkpt>
      <trkpt lat="45.92416" lon="4.75922">
        <ele>172</ele>
        <time>2017-12-20T09:31:56Z</time>
      </trkpt>
      <trkpt lat="45.9242" lon="4.75926">
        <ele>172</ele>
        <time>2017-12-20T09:31:57Z</time>
      </trkpt>
      <trkpt lat="45.92424" lon="4.75929">
        <ele>172</ele>
        <time>2017-12-20T09:31:58Z</time>
      </trkpt>
      <trkpt lat="45.92429" lon="4.75933">
        <ele>172</ele>
        <time>2017-12-20T09:31:59Z</time>
      </trkpt>
      <trkpt lat="45.92433" lon="4.75936">
        <ele>172</ele>
        <time>2017-12-20T09:32:00Z</time>
      </trkpt>
      <trkpt lat="45.92438" lon="4.7594">
        <ele>172</ele>
        <time>2017-12-20T09:32:01Z</time>
      </trkpt>
      <trkpt lat="45.92441" lon="4.75944">
        <ele>172</ele>
        <time>2017-12-20T09:32:02Z</time>
      </trkpt>
      <trkpt lat="45.92446" lon="4.75946">
        <ele>172</ele>
        <time>2017-12-20T09:32:03Z</time>
      </trkpt>
      <trkpt lat="45.9245" lon="4.75949">
        <ele>172</ele>
        <time>2017-12-20T09:32:04Z</time>
      </trkpt>
      <trkpt lat="45.92454" lon="4.75952">
        <ele>172</ele>
        <time>2017-12-20T09:32:05Z</time>
      </trkpt>
      <trkpt lat="45.92458" lon="4.75955">
        <ele>172</ele>
        <time>2017-12-20T09:32:06Z</time>
      </trkpt>
      <trkpt lat="45.92462" lon="4.75958">
        <ele>172</ele>
        <time>2017-12-20T09:32:07Z</time>
      </trkpt>
      <trkpt lat="45.92466" lon="4.75962">
        <ele>172</ele>
        <time>2017-12-20T09:32:08Z</time>
      </trkpt>
      <trkpt lat="45.9247" lon="4.75964">
        <ele>172</ele>
        <time>2017-12-20T09:32:09Z</time>
      </trkpt>
      <trkpt lat="45.92474" lon="4.75968">
        <ele>172</ele>
        <time>2017-12-20T09:32:10Z</time>
      </trkpt>
      <trkpt lat="45.92478" lon="4.75972">
        <ele>172</ele>
        <time>2017-12-20T09:32:11Z</time>
      </trkpt>
      <trkpt lat="45.92482" lon="4.75976">
        <ele>172</ele>
        <time>2017-12-20T09:32:12Z</time>
      </trkpt>
      <trkpt lat="45.92486" lon="4.75979">
        <ele>172</ele>
        <time>2017-12-20T09:32:13Z</time>
      </trkpt>
      <trkpt lat="45.9249" lon="4.75983">
        <ele>172</ele>
        <time>2017-12-20T09:32:14Z</time>
      </trkpt>
      <trkpt lat="45.92497" lon="4.75989">
        <ele>172</ele>
        <time>2017-12-20T09:32:16Z</time>
      </trkpt>
      <trkpt lat="45.92501" lon="4.75992">
        <ele>172</ele>
        <time>2017-12-20T09:32:17Z</time>
      </trkpt>
      <trkpt lat="45.92505" lon="4.75994">
        <ele>172</ele>
        <time>2017-12-20T09:32:18Z</time>
      </trkpt>
      <trkpt lat="45.92509" lon="4.75997">
        <ele>172</ele>
        <time>2017-12-20T09:32:19Z</time>
      </trkpt>
      <trkpt lat="45.92517" lon="4.76003">
        <ele>172</ele>
        <time>2017-12-20T09:32:21Z</time>
      </trkpt>
      <trkpt lat="45.9252" lon="4.76005">
        <ele>172</ele>
        <time>2017-12-20T09:32:22Z</time>
      </trkpt>
      <trkpt lat="45.92528" lon="4.76011">
        <ele>172</ele>
        <time>2017-12-20T09:32:24Z</time>
      </trkpt>
      <trkpt lat="45.92532" lon="4.76014">
        <ele>172</ele>
        <time>2017-12-20T09:32:25Z</time>
      </trkpt>
      <trkpt lat="45.9254" lon="4.76019">
        <ele>172</ele>
        <time>2017-12-20T09:32:27Z</time>
      </trkpt>
      <trkpt lat="45.92544" lon="4.76022">
        <ele>172</ele>
        <time>2017-12-20T09:32:28Z</time>
      </trkpt>
      <trkpt lat="45.92547" lon="4.76025">
        <ele>172</ele>
        <time>2017-12-20T09:32:29Z</time>
      </trkpt>
      <trkpt lat="45.92552" lon="4.76028">
        <ele>172</ele>
        <time>2017-12-20T09:32:30Z</time>
      </trkpt>
      <trkpt lat="45.92556" lon="4.76032">
        <ele>172</ele>
        <time>2017-12-20T09:32:31Z</time>
      </trkpt>
      <trkpt lat="45.92561" lon="4.76034">
        <ele>172</ele>
        <time>2017-12-20T09:32:32Z</time>
      </trkpt>
      <trkpt lat="45.92565" lon="4.76037">
        <ele>172</ele>
        <time>2017-12-20T09:32:33Z</time>
      </trkpt>
      <trkpt lat="45.92569" lon="4.7604">
        <ele>172</ele>
        <time>2017-12-20T09:32:34Z</time>
      </trkpt>
      <trkpt lat="45.92577" lon="4.76044">
        <ele>171</ele>
        <time>2017-12-20T09:32:36Z</time>
      </trkpt>
      <trkpt lat="45.92581" lon="4.76047">
        <ele>171</ele>
        <time>2017-12-20T09:32:37Z</time>
      </trkpt>
      <trkpt lat="45.92586" lon="4.7605">
        <ele>171</ele>
        <time>2017-12-20T09:32:38Z</time>
      </trkpt>
      <trkpt lat="45.9259" lon="4.76052">
        <ele>171</ele>
        <time>2017-12-20T09:32:39Z</time>
      </trkpt>
      <trkpt lat="45.92595" lon="4.76056">
        <ele>171</ele>
        <time>2017-12-20T09:32:40Z</time>
      </trkpt>
      <trkpt lat="45.92599" lon="4.76059">
        <ele>171</ele>
        <time>2017-12-20T09:32:41Z</time>
      </trkpt>
      <trkpt lat="45.92604" lon="4.76062">
        <ele>171</ele>
        <time>2017-12-20T09:32:42Z</time>
      </trkpt>
      <trkpt lat="45.92609" lon="4.76066">
        <ele>171</ele>
        <time>2017-12-20T09:32:43Z</time>
      </trkpt>
      <trkpt lat="45.92614" lon="4.76069">
        <ele>171</ele>
        <time>2017-12-20T09:32:44Z</time>
      </trkpt>
      <trkpt lat="45.92619" lon="4.76072">
        <ele>171</ele>
        <time>2017-12-20T09:32:45Z</time>
      </trkpt>
      <trkpt lat="45.92624" lon="4.76076">
        <ele>171</ele>
        <time>2017-12-20T09:32:46Z</time>
      </trkpt>
      <trkpt lat="45.92629" lon="4.7608">
        <ele>170</ele>
        <time>2017-12-20T09:32:47Z</time>
      </trkpt>
      <trkpt lat="45.92634" lon="4.76085">
        <ele>170</ele>
        <time>2017-12-20T09:32:48Z</time>
      </trkpt>
      <trkpt lat="45.9264" lon="4.76089">
        <ele>170</ele>
        <time>2017-12-20T09:32:49Z</time>
      </trkpt>
      <trkpt lat="45.92646" lon="4.76093">
        <ele>170</ele>
        <time>2017-12-20T09:32:50Z</time>
      </trkpt>
      <trkpt lat="45.92652" lon="4.76096">
        <ele>170</ele>
        <time>2017-12-20T09:32:51Z</time>
      </trkpt>
      <trkpt lat="45.92657" lon="4.761">
        <ele>170</ele>
        <time>2017-12-20T09:32:52Z</time>
      </trkpt>
      <trkpt lat="45.92662" lon="4.76104">
        <ele>170</ele>
        <time>2017-12-20T09:32:53Z</time>
      </trkpt>
      <trkpt lat="45.92668" lon="4.76109">
        <ele>169</ele>
        <time>2017-12-20T09:32:54Z</time>
      </trkpt>
      <trkpt lat="45.92674" lon="4.76113">
        <ele>169</ele>
        <time>2017-12-20T09:32:55Z</time>
      </trkpt>
      <trkpt lat="45.9268" lon="4.76117">
        <ele>169</ele>
        <time>2017-12-20T09:32:56Z</time>
      </trkpt>
      <trkpt lat="45.92686" lon="4.76121">
        <ele>169</ele>
        <time>2017-12-20T09:32:57Z</time>
      </trkpt>
      <trkpt lat="45.92692" lon="4.76125">
        <ele>169</ele>
        <time>2017-12-20T09:32:58Z</time>
      </trkpt>
      <trkpt lat="45.92699" lon="4.76129">
        <ele>169</ele>
        <time>2017-12-20T09:32:59Z</time>
      </trkpt>
      <trkpt lat="45.92705" lon="4.76133">
        <ele>169</ele>
        <time>2017-12-20T09:33:00Z</time>
      </trkpt>
      <trkpt lat="45.92711" lon="4.76136">
        <ele>168</ele>
        <time>2017-12-20T09:33:01Z</time>
      </trkpt>
      <trkpt lat="45.92717" lon="4.7614">
        <ele>168</ele>
        <time>2017-12-20T09:33:02Z</time>
      </trkpt>
      <trkpt lat="45.92722" lon="4.76144">
        <ele>168</ele>
        <time>2017-12-20T09:33:03Z</time>
      </trkpt>
      <trkpt lat="45.92728" lon="4.76147">
        <ele>168</ele>
        <time>2017-12-20T09:33:04Z</time>
      </trkpt>
      <trkpt lat="45.92734" lon="4.76151">
        <ele>168</ele>
        <time>2017-12-20T09:33:05Z</time>
      </trkpt>
      <trkpt lat="45.92739" lon="4.76154">
        <ele>168</ele>
        <time>2017-12-20T09:33:06Z</time>
      </trkpt>
      <trkpt lat="45.92744" lon="4.76159">
        <ele>167</ele>
        <time>2017-12-20T09:33:07Z</time>
      </trkpt>
      <trkpt lat="45.92749" lon="4.76162">
        <ele>167</ele>
        <time>2017-12-20T09:33:08Z</time>
      </trkpt>
      <trkpt lat="45.92754" lon="4.76165">
        <ele>167</ele>
        <time>2017-12-20T09:33:09Z</time>
      </trkpt>
      <trkpt lat="45.92759" lon="4.76169">
        <ele>167</ele>
        <time>2017-12-20T09:33:10Z</time>
      </trkpt>
      <trkpt lat="45.92763" lon="4.76172">
        <ele>167</ele>
        <time>2017-12-20T09:33:11Z</time>
      </trkpt>
      <trkpt lat="45.92768" lon="4.76175">
        <ele>167</ele>
        <time>2017-12-20T09:33:12Z</time>
      </trkpt>
      <trkpt lat="45.92772" lon="4.76179">
        <ele>167</ele>
        <time>2017-12-20T09:33:13Z</time>
      </trkpt>
      <trkpt lat="45.92776" lon="4.76182">
        <ele>167</ele>
        <time>2017-12-20T09:33:14Z</time>
      </trkpt>
      <trkpt lat="45.9278" lon="4.76187">
        <ele>168</ele>
        <time>2017-12-20T09:33:15Z</time>
      </trkpt>
      <trkpt lat="45.92784" lon="4.76191">
        <ele>168</ele>
        <time>2017-12-20T09:33:16Z</time>
      </trkpt>
      <trkpt lat="45.92789" lon="4.76196">
        <ele>168</ele>
        <time>2017-12-20T09:33:17Z</time>
      </trkpt>
      <trkpt lat="45.92793" lon="4.762">
        <ele>168</ele>
        <time>2017-12-20T09:33:18Z</time>
      </trkpt>
      <trkpt lat="45.92798" lon="4.76205">
        <ele>168</ele>
        <time>2017-12-20T09:33:19Z</time>
      </trkpt>
      <trkpt lat="45.92803" lon="4.76211">
        <ele>168</ele>
        <time>2017-12-20T09:33:20Z</time>
      </trkpt>
      <trkpt lat="45.92808" lon="4.76215">
        <ele>168</ele>
        <time>2017-12-20T09:33:21Z</time>
      </trkpt>
      <trkpt lat="45.92813" lon="4.76219">
        <ele>168</ele>
        <time>2017-12-20T09:33:22Z</time>
      </trkpt>
      <trkpt lat="45.92818" lon="4.76224">
        <ele>168</ele>
        <time>2017-12-20T09:33:23Z</time>
      </trkpt>
      <trkpt lat="45.92822" lon="4.76229">
        <ele>168</ele>
        <time>2017-12-20T09:33:24Z</time>
      </trkpt>
      <trkpt lat="45.92826" lon="4.76233">
        <ele>168</ele>
        <time>2017-12-20T09:33:25Z</time>
      </trkpt>
      <trkpt lat="45.92831" lon="4.76237">
        <ele>168</ele>
        <time>2017-12-20T09:33:26Z</time>
      </trkpt>
      <trkpt lat="45.92836" lon="4.76242">
        <ele>169</ele>
        <time>2017-12-20T09:33:27Z</time>
      </trkpt>
      <trkpt lat="45.9284" lon="4.76246">
        <ele>169</ele>
        <time>2017-12-20T09:33:28Z</time>
      </trkpt>
      <trkpt lat="45.92845" lon="4.7625">
        <ele>169</ele>
        <time>2017-12-20T09:33:29Z</time>
      </trkpt>
      <trkpt lat="45.92849" lon="4.76255">
        <ele>169</ele>
        <time>2017-12-20T09:33:30Z</time>
      </trkpt>
      <trkpt lat="45.92853" lon="4.76258">
        <ele>169</ele>
        <time>2017-12-20T09:33:31Z</time>
      </trkpt>
      <trkpt lat="45.92859" lon="4.76261">
        <ele>169</ele>
        <time>2017-12-20T09:33:32Z</time>
      </trkpt>
      <trkpt lat="45.92864" lon="4.76266">
        <ele>169</ele>
        <time>2017-12-20T09:33:33Z</time>
      </trkpt>
      <trkpt lat="45.92869" lon="4.76272">
        <ele>169</ele>
        <time>2017-12-20T09:33:34Z</time>
      </trkpt>
      <trkpt lat="45.92874" lon="4.76278">
        <ele>169</ele>
        <time>2017-12-20T09:33:35Z</time>
      </trkpt>
      <trkpt lat="45.92878" lon="4.76289">
        <ele>169</ele>
        <time>2017-12-20T09:33:40Z</time>
      </trkpt>
      <trkpt lat="45.92877" lon="4.76291">
        <ele>169</ele>
        <time>2017-12-20T09:33:41Z</time>
      </trkpt>
      <trkpt lat="45.92884" lon="4.76291">
        <ele>169</ele>
        <time>2017-12-20T09:35:26Z</time>
      </trkpt>
      <trkpt lat="45.92886" lon="4.76292">
        <ele>169</ele>
        <time>2017-12-20T09:35:27Z</time>
      </trkpt>
      <trkpt lat="45.92892" lon="4.76299">
        <ele>169</ele>
        <time>2017-12-20T09:35:31Z</time>
      </trkpt>
      <trkpt lat="45.92894" lon="4.76302">
        <ele>169</ele>
        <time>2017-12-20T09:35:32Z</time>
      </trkpt>
      <trkpt lat="45.92898" lon="4.76307">
        <ele>169</ele>
        <time>2017-12-20T09:35:34Z</time>
      </trkpt>
      <trkpt lat="45.92901" lon="4.7631">
        <ele>169</ele>
        <time>2017-12-20T09:35:35Z</time>
      </trkpt>
      <trkpt lat="45.92907" lon="4.76316">
        <ele>169</ele>
        <time>2017-12-20T09:35:37Z</time>
      </trkpt>
      <trkpt lat="45.92911" lon="4.76319">
        <ele>169</ele>
        <time>2017-12-20T09:35:38Z</time>
      </trkpt>
      <trkpt lat="45.92915" lon="4.76323">
        <ele>169</ele>
        <time>2017-12-20T09:35:39Z</time>
      </trkpt>
      <trkpt lat="45.92919" lon="4.76326">
        <ele>169</ele>
        <time>2017-12-20T09:35:40Z</time>
      </trkpt>
      <trkpt lat="45.92923" lon="4.76331">
        <ele>169</ele>
        <time>2017-12-20T09:35:41Z</time>
      </trkpt>
      <trkpt lat="45.92928" lon="4.76335">
        <ele>169</ele>
        <time>2017-12-20T09:35:42Z</time>
      </trkpt>
      <trkpt lat="45.92932" lon="4.76339">
        <ele>169</ele>
        <time>2017-12-20T09:35:43Z</time>
      </trkpt>
      <trkpt lat="45.92937" lon="4.76343">
        <ele>169</ele>
        <time>2017-12-20T09:35:44Z</time>
      </trkpt>
      <trkpt lat="45.92942" lon="4.76349">
        <ele>169</ele>
        <time>2017-12-20T09:35:45Z</time>
      </trkpt>
      <trkpt lat="45.92947" lon="4.76354">
        <ele>169</ele>
        <time>2017-12-20T09:35:46Z</time>
      </trkpt>
      <trkpt lat="45.92951" lon="4.76358">
        <ele>169</ele>
        <time>2017-12-20T09:35:47Z</time>
      </trkpt>
      <trkpt lat="45.92956" lon="4.76363">
        <ele>169</ele>
        <time>2017-12-20T09:35:48Z</time>
      </trkpt>
      <trkpt lat="45.9296" lon="4.76366">
        <ele>169</ele>
        <time>2017-12-20T09:35:49Z</time>
      </trkpt>
      <trkpt lat="45.92966" lon="4.76371">
        <ele>169</ele>
        <time>2017-12-20T09:35:50Z</time>
      </trkpt>
      <trkpt lat="45.9297" lon="4.76375">
        <ele>169</ele>
        <time>2017-12-20T09:35:51Z</time>
      </trkpt>
      <trkpt lat="45.92974" lon="4.7638">
        <ele>169</ele>
        <time>2017-12-20T09:35:52Z</time>
      </trkpt>
      <trkpt lat="45.92979" lon="4.76383">
        <ele>169</ele>
        <time>2017-12-20T09:35:53Z</time>
      </trkpt>
      <trkpt lat="45.92984" lon="4.76388">
        <ele>169</ele>
        <time>2017-12-20T09:35:54Z</time>
      </trkpt>
      <trkpt lat="45.92988" lon="4.76393">
        <ele>169</ele>
        <time>2017-12-20T09:35:55Z</time>
      </trkpt>
      <trkpt lat="45.92992" lon="4.76397">
        <ele>169</ele>
        <time>2017-12-20T09:35:56Z</time>
      </trkpt>
      <trkpt lat="45.92997" lon="4.76401">
        <ele>169</ele>
        <time>2017-12-20T09:35:57Z</time>
      </trkpt>
      <trkpt lat="45.93" lon="4.76406">
        <ele>169</ele>
        <time>2017-12-20T09:35:58Z</time>
      </trkpt>
      <trkpt lat="45.93004" lon="4.7641">
        <ele>169</ele>
        <time>2017-12-20T09:35:59Z</time>
      </trkpt>
      <trkpt lat="45.93009" lon="4.76415">
        <ele>169</ele>
        <time>2017-12-20T09:36:00Z</time>
      </trkpt>
      <trkpt lat="45.93012" lon="4.7642">
        <ele>169</ele>
        <time>2017-12-20T09:36:01Z</time>
      </trkpt>
      <trkpt lat="45.93017" lon="4.76424">
        <ele>169</ele>
        <time>2017-12-20T09:36:02Z</time>
      </trkpt>
      <trkpt lat="45.93022" lon="4.76428">
        <ele>169</ele>
        <time>2017-12-20T09:36:03Z</time>
      </trkpt>
      <trkpt lat="45.93027" lon="4.76431">
        <ele>169</ele>
        <time>2017-12-20T09:36:04Z</time>
      </trkpt>
      <trkpt lat="45.93031" lon="4.76436">
        <ele>169</ele>
        <time>2017-12-20T09:36:05Z</time>
      </trkpt>
      <trkpt lat="45.93037" lon="4.76441">
        <ele>169</ele>
        <time>2017-12-20T09:36:06Z</time>
      </trkpt>
      <trkpt lat="45.93042" lon="4.76446">
        <ele>169</ele>
        <time>2017-12-20T09:36:07Z</time>
      </trkpt>
      <trkpt lat="45.93047" lon="4.76451">
        <ele>169</ele>
        <time>2017-12-20T09:36:08Z</time>
      </trkpt>
      <trkpt lat="45.93052" lon="4.76456">
        <ele>169</ele>
        <time>2017-12-20T09:36:09Z</time>
      </trkpt>
      <trkpt lat="45.93057" lon="4.7646">
        <ele>169</ele>
        <time>2017-12-20T09:36:10Z</time>
      </trkpt>
      <trkpt lat="45.93062" lon="4.76466">
        <ele>169</ele>
        <time>2017-12-20T09:36:11Z</time>
      </trkpt>
      <trkpt lat="45.93068" lon="4.76472">
        <ele>169</ele>
        <time>2017-12-20T09:36:12Z</time>
      </trkpt>
      <trkpt lat="45.93072" lon="4.76478">
        <ele>169</ele>
        <time>2017-12-20T09:36:13Z</time>
      </trkpt>
      <trkpt lat="45.93076" lon="4.76483">
        <ele>169</ele>
        <time>2017-12-20T09:36:14Z</time>
      </trkpt>
      <trkpt lat="45.93081" lon="4.76487">
        <ele>170</ele>
        <time>2017-12-20T09:36:15Z</time>
      </trkpt>
      <trkpt lat="45.93085" lon="4.76492">
        <ele>170</ele>
        <time>2017-12-20T09:36:16Z</time>
      </trkpt>
      <trkpt lat="45.9309" lon="4.76495">
        <ele>170</ele>
        <time>2017-12-20T09:36:17Z</time>
      </trkpt>
      <trkpt lat="45.93095" lon="4.76498">
        <ele>170</ele>
        <time>2017-12-20T09:36:18Z</time>
      </trkpt>
      <trkpt lat="45.93098" lon="4.76503">
        <ele>170</ele>
        <time>2017-12-20T09:36:19Z</time>
      </trkpt>
      <trkpt lat="45.93103" lon="4.76507">
        <ele>170</ele>
        <time>2017-12-20T09:36:20Z</time>
      </trkpt>
      <trkpt lat="45.93108" lon="4.7651">
        <ele>170</ele>
        <time>2017-12-20T09:36:21Z</time>
      </trkpt>
      <trkpt lat="45.93111" lon="4.76516">
        <ele>170</ele>
        <time>2017-12-20T09:36:22Z</time>
      </trkpt>
      <trkpt lat="45.93115" lon="4.76522">
        <ele>170</ele>
        <time>2017-12-20T09:36:23Z</time>
      </trkpt>
      <trkpt lat="45.9312" lon="4.76526">
        <ele>170</ele>
        <time>2017-12-20T09:36:24Z</time>
      </trkpt>
      <trkpt lat="45.93124" lon="4.76531">
        <ele>170</ele>
        <time>2017-12-20T09:36:25Z</time>
      </trkpt>
      <trkpt lat="45.93128" lon="4.76535">
        <ele>170</ele>
        <time>2017-12-20T09:36:26Z</time>
      </trkpt>
      <trkpt lat="45.93133" lon="4.76538">
        <ele>170</ele>
        <time>2017-12-20T09:36:27Z</time>
      </trkpt>
      <trkpt lat="45.93137" lon="4.76541">
        <ele>170</ele>
        <time>2017-12-20T09:36:28Z</time>
      </trkpt>
      <trkpt lat="45.93142" lon="4.76547">
        <ele>170</ele>
        <time>2017-12-20T09:36:29Z</time>
      </trkpt>
      <trkpt lat="45.93146" lon="4.76551">
        <ele>170</ele>
        <time>2017-12-20T09:36:30Z</time>
      </trkpt>
      <trkpt lat="45.93152" lon="4.76555">
        <ele>170</ele>
        <time>2017-12-20T09:36:31Z</time>
      </trkpt>
      <trkpt lat="45.93158" lon="4.7656">
        <ele>170</ele>
        <time>2017-12-20T09:36:32Z</time>
      </trkpt>
      <trkpt lat="45.93162" lon="4.76563">
        <ele>170</ele>
        <time>2017-12-20T09:36:33Z</time>
      </trkpt>
      <trkpt lat="45.93165" lon="4.76568">
        <ele>170</ele>
        <time>2017-12-20T09:36:34Z</time>
      </trkpt>
      <trkpt lat="45.9317" lon="4.76571">
        <ele>170</ele>
        <time>2017-12-20T09:36:35Z</time>
      </trkpt>
      <trkpt lat="45.93175" lon="4.76576">
        <ele>170</ele>
        <time>2017-12-20T09:36:36Z</time>
      </trkpt>
      <trkpt lat="45.9318" lon="4.76582">
        <ele>170</ele>
        <time>2017-12-20T09:36:37Z</time>
      </trkpt>
      <trkpt lat="45.93184" lon="4.76586">
        <ele>171</ele>
        <time>2017-12-20T09:36:38Z</time>
      </trkpt>
      <trkpt lat="45.93189" lon="4.76592">
        <ele>170</ele>
        <time>2017-12-20T09:36:39Z</time>
      </trkpt>
      <trkpt lat="45.93194" lon="4.76598">
        <ele>170</ele>
        <time>2017-12-20T09:36:40Z</time>
      </trkpt>
      <trkpt lat="45.93199" lon="4.76601">
        <ele>170</ele>
        <time>2017-12-20T09:36:41Z</time>
      </trkpt>
      <trkpt lat="45.93204" lon="4.76604">
        <ele>170</ele>
        <time>2017-12-20T09:36:42Z</time>
      </trkpt>
      <trkpt lat="45.93208" lon="4.76609">
        <ele>170</ele>
        <time>2017-12-20T09:36:43Z</time>
      </trkpt>
      <trkpt lat="45.93212" lon="4.76614">
        <ele>170</ele>
        <time>2017-12-20T09:36:44Z</time>
      </trkpt>
      <trkpt lat="45.93217" lon="4.76618">
        <ele>170</ele>
        <time>2017-12-20T09:36:45Z</time>
      </trkpt>
      <trkpt lat="45.93221" lon="4.76623">
        <ele>170</ele>
        <time>2017-12-20T09:36:46Z</time>
      </trkpt>
      <trkpt lat="45.93225" lon="4.76626">
        <ele>170</ele>
        <time>2017-12-20T09:36:47Z</time>
      </trkpt>
      <trkpt lat="45.93229" lon="4.7663">
        <ele>170</ele>
        <time>2017-12-20T09:36:48Z</time>
      </trkpt>
      <trkpt lat="45.93233" lon="4.76635">
        <ele>171</ele>
        <time>2017-12-20T09:36:49Z</time>
      </trkpt>
      <trkpt lat="45.93237" lon="4.7664">
        <ele>171</ele>
        <time>2017-12-20T09:36:50Z</time>
      </trkpt>
      <trkpt lat="45.93241" lon="4.76645">
        <ele>171</ele>
        <time>2017-12-20T09:36:51Z</time>
      </trkpt>
      <trkpt lat="45.93245" lon="4.76648">
        <ele>171</ele>
        <time>2017-12-20T09:36:52Z</time>
      </trkpt>
      <trkpt lat="45.93249" lon="4.76653">
        <ele>171</ele>
        <time>2017-12-20T09:36:53Z</time>
      </trkpt>
      <trkpt lat="45.93254" lon="4.76657">
        <ele>171</ele>
        <time>2017-12-20T09:36:54Z</time>
      </trkpt>
      <trkpt lat="45.93258" lon="4.76661">
        <ele>171</ele>
        <time>2017-12-20T09:36:55Z</time>
      </trkpt>
      <trkpt lat="45.93263" lon="4.76665">
        <ele>171</ele>
        <time>2017-12-20T09:36:56Z</time>
      </trkpt>
      <trkpt lat="45.93267" lon="4.76667">
        <ele>172</ele>
        <time>2017-12-20T09:36:57Z</time>
      </trkpt>
      <trkpt lat="45.93271" lon="4.76672">
        <ele>172</ele>
        <time>2017-12-20T09:36:58Z</time>
      </trkpt>
      <trkpt lat="45.93275" lon="4.76675">
        <ele>172</ele>
        <time>2017-12-20T09:36:59Z</time>
      </trkpt>
      <trkpt lat="45.93279" lon="4.76681">
        <ele>172</ele>
        <time>2017-12-20T09:37:00Z</time>
      </trkpt>
      <trkpt lat="45.93285" lon="4.76686">
        <ele>172</ele>
        <time>2017-12-20T09:37:01Z</time>
      </trkpt>
      <trkpt lat="45.93289" lon="4.7669">
        <ele>172</ele>
        <time>2017-12-20T09:37:02Z</time>
      </trkpt>
      <trkpt lat="45.93294" lon="4.76695">
        <ele>172</ele>
        <time>2017-12-20T09:37:03Z</time>
      </trkpt>
      <trkpt lat="45.93298" lon="4.76699">
        <ele>172</ele>
        <time>2017-12-20T09:37:04Z</time>
      </trkpt>
      <trkpt lat="45.93302" lon="4.76703">
        <ele>172</ele>
        <time>2017-12-20T09:37:05Z</time>
      </trkpt>
      <trkpt lat="45.93305" lon="4.76708">
        <ele>172</ele>
        <time>2017-12-20T09:37:06Z</time>
      </trkpt>
      <trkpt lat="45.93309" lon="4.76712">
        <ele>172</ele>
        <time>2017-12-20T09:37:07Z</time>
      </trkpt>
      <trkpt lat="45.93313" lon="4.76716">
        <ele>172</ele>
        <time>2017-12-20T09:37:08Z</time>
      </trkpt>
      <trkpt lat="45.93318" lon="4.76721">
        <ele>172</ele>
        <time>2017-12-20T09:37:09Z</time>
      </trkpt>
      <trkpt lat="45.93323" lon="4.76725">
        <ele>172</ele>
        <time>2017-12-20T09:37:10Z</time>
      </trkpt>
      <trkpt lat="45.93326" lon="4.76729">
        <ele>172</ele>
        <time>2017-12-20T09:37:11Z</time>
      </trkpt>
      <trkpt lat="45.9333" lon="4.76733">
        <ele>172</ele>
        <time>2017-12-20T09:37:12Z</time>
      </trkpt>
      <trkpt lat="45.93336" lon="4.76741">
        <ele>173</ele>
        <time>2017-12-20T09:37:14Z</time>
      </trkpt>
      <trkpt lat="45.93342" lon="4.76747">
        <ele>173</ele>
        <time>2017-12-20T09:37:15Z</time>
      </trkpt>
      <trkpt lat="45.93347" lon="4.76751">
        <ele>172</ele>
        <time>2017-12-20T09:37:16Z</time>
      </trkpt>
      <trkpt lat="45.9335" lon="4.76756">
        <ele>172</ele>
        <time>2017-12-20T09:37:17Z</time>
      </trkpt>
      <trkpt lat="45.93354" lon="4.7676">
        <ele>172</ele>
        <time>2017-12-20T09:37:18Z</time>
      </trkpt>
      <trkpt lat="45.93359" lon="4.76764">
        <ele>172</ele>
        <time>2017-12-20T09:37:19Z</time>
      </trkpt>
      <trkpt lat="45.93363" lon="4.76768">
        <ele>172</ele>
        <time>2017-12-20T09:37:20Z</time>
      </trkpt>
      <trkpt lat="45.93367" lon="4.76772">
        <ele>172</ele>
        <time>2017-12-20T09:37:21Z</time>
      </trkpt>
      <trkpt lat="45.93371" lon="4.76777">
        <ele>172</ele>
        <time>2017-12-20T09:37:22Z</time>
      </trkpt>
      <trkpt lat="45.93375" lon="4.76781">
        <ele>172</ele>
        <time>2017-12-20T09:37:23Z</time>
      </trkpt>
      <trkpt lat="45.93379" lon="4.76785">
        <ele>172</ele>
        <time>2017-12-20T09:37:24Z</time>
      </trkpt>
      <trkpt lat="45.93384" lon="4.7679">
        <ele>172</ele>
        <time>2017-12-20T09:37:25Z</time>
      </trkpt>
      <trkpt lat="45.93388" lon="4.76794">
        <ele>172</ele>
        <time>2017-12-20T09:37:26Z</time>
      </trkpt>
      <trkpt lat="45.93392" lon="4.768">
        <ele>172</ele>
        <time>2017-12-20T09:37:27Z</time>
      </trkpt>
      <trkpt lat="45.93396" lon="4.76805">
        <ele>172</ele>
        <time>2017-12-20T09:37:28Z</time>
      </trkpt>
      <trkpt lat="45.934" lon="4.7681">
        <ele>172</ele>
        <time>2017-12-20T09:37:29Z</time>
      </trkpt>
      <trkpt lat="45.93403" lon="4.76815">
        <ele>172</ele>
        <time>2017-12-20T09:37:30Z</time>
      </trkpt>
      <trkpt lat="45.93407" lon="4.7682">
        <ele>172</ele>
        <time>2017-12-20T09:37:31Z</time>
      </trkpt>
      <trkpt lat="45.9341" lon="4.76825">
        <ele>172</ele>
        <time>2017-12-20T09:37:32Z</time>
      </trkpt>
      <trkpt lat="45.93413" lon="4.76831">
        <ele>172</ele>
        <time>2017-12-20T09:37:33Z</time>
      </trkpt>
      <trkpt lat="45.93416" lon="4.76837">
        <ele>172</ele>
        <time>2017-12-20T09:37:34Z</time>
      </trkpt>
      <trkpt lat="45.93419" lon="4.76842">
        <ele>171</ele>
        <time>2017-12-20T09:37:35Z</time>
      </trkpt>
      <trkpt lat="45.93421" lon="4.76847">
        <ele>171</ele>
        <time>2017-12-20T09:37:36Z</time>
      </trkpt>
      <trkpt lat="45.93424" lon="4.76854">
        <ele>171</ele>
        <time>2017-12-20T09:37:37Z</time>
      </trkpt>
      <trkpt lat="45.93428" lon="4.76859">
        <ele>171</ele>
        <time>2017-12-20T09:37:38Z</time>
      </trkpt>
      <trkpt lat="45.9343" lon="4.76865">
        <ele>171</ele>
        <time>2017-12-20T09:37:39Z</time>
      </trkpt>
      <trkpt lat="45.93433" lon="4.76871">
        <ele>171</ele>
        <time>2017-12-20T09:37:40Z</time>
      </trkpt>
      <trkpt lat="45.93435" lon="4.76877">
        <ele>171</ele>
        <time>2017-12-20T09:37:41Z</time>
      </trkpt>
      <trkpt lat="45.93437" lon="4.76883">
        <ele>171</ele>
        <time>2017-12-20T09:37:42Z</time>
      </trkpt>
      <trkpt lat="45.93439" lon="4.7689">
        <ele>170</ele>
        <time>2017-12-20T09:37:43Z</time>
      </trkpt>
      <trkpt lat="45.93441" lon="4.76897">
        <ele>170</ele>
        <time>2017-12-20T09:37:44Z</time>
      </trkpt>
      <trkpt lat="45.93442" lon="4.76904">
        <ele>170</ele>
        <time>2017-12-20T09:37:45Z</time>
      </trkpt>
      <trkpt lat="45.93444" lon="4.76911">
        <ele>170</ele>
        <time>2017-12-20T09:37:46Z</time>
      </trkpt>
      <trkpt lat="45.93446" lon="4.76918">
        <ele>170</ele>
        <time>2017-12-20T09:37:47Z</time>
      </trkpt>
      <trkpt lat="45.93448" lon="4.76927">
        <ele>170</ele>
        <time>2017-12-20T09:37:48Z</time>
      </trkpt>
      <trkpt lat="45.93449" lon="4.76934">
        <ele>170</ele>
        <time>2017-12-20T09:37:49Z</time>
      </trkpt>
      <trkpt lat="45.93451" lon="4.76946">
        <ele>170</ele>
        <time>2017-12-20T09:37:51Z</time>
      </trkpt>
      <trkpt lat="45.93452" lon="4.76953">
        <ele>170</ele>
        <time>2017-12-20T09:37:52Z</time>
      </trkpt>
      <trkpt lat="45.93453" lon="4.76959">
        <ele>170</ele>
        <time>2017-12-20T09:37:53Z</time>
      </trkpt>
      <trkpt lat="45.93454" lon="4.76966">
        <ele>170</ele>
        <time>2017-12-20T09:37:54Z</time>
      </trkpt>
      <trkpt lat="45.93455" lon="4.76974">
        <ele>170</ele>
        <time>2017-12-20T09:37:55Z</time>
      </trkpt>
      <trkpt lat="45.93456" lon="4.7698">
        <ele>170</ele>
        <time>2017-12-20T09:37:56Z</time>
      </trkpt>
      <trkpt lat="45.93457" lon="4.76988">
        <ele>170</ele>
        <time>2017-12-20T09:37:57Z</time>
      </trkpt>
      <trkpt lat="45.93458" lon="4.76995">
        <ele>170</ele>
        <time>2017-12-20T09:37:58Z</time>
      </trkpt>
      <trkpt lat="45.93459" lon="4.77002">
        <ele>170</ele>
        <time>2017-12-20T09:37:59Z</time>
      </trkpt>
      <trkpt lat="45.93459" lon="4.77009">
        <ele>170</ele>
        <time>2017-12-20T09:38:00Z</time>
      </trkpt>
      <trkpt lat="45.9346" lon="4.77016">
        <ele>170</ele>
        <time>2017-12-20T09:38:01Z</time>
      </trkpt>
      <trkpt lat="45.93462" lon="4.77024">
        <ele>170</ele>
        <time>2017-12-20T09:38:02Z</time>
      </trkpt>
      <trkpt lat="45.93463" lon="4.77031">
        <ele>170</ele>
        <time>2017-12-20T09:38:03Z</time>
      </trkpt>
      <trkpt lat="45.93465" lon="4.77039">
        <ele>170</ele>
        <time>2017-12-20T09:38:04Z</time>
      </trkpt>
      <trkpt lat="45.93466" lon="4.77045">
        <ele>170</ele>
        <time>2017-12-20T09:38:05Z</time>
      </trkpt>
      <trkpt lat="45.93467" lon="4.77052">
        <ele>170</ele>
        <time>2017-12-20T09:38:06Z</time>
      </trkpt>
      <trkpt lat="45.93468" lon="4.77058">
        <ele>170</ele>
        <time>2017-12-20T09:38:07Z</time>
      </trkpt>
      <trkpt lat="45.93469" lon="4.77064">
        <ele>170</ele>
        <time>2017-12-20T09:38:08Z</time>
      </trkpt>
      <trkpt lat="45.9347" lon="4.77072">
        <ele>170</ele>
        <time>2017-12-20T09:38:09Z</time>
      </trkpt>
      <trkpt lat="45.93472" lon="4.77078">
        <ele>170</ele>
        <time>2017-12-20T09:38:10Z</time>
      </trkpt>
      <trkpt lat="45.93473" lon="4.77086">
        <ele>169</ele>
        <time>2017-12-20T09:38:11Z</time>
      </trkpt>
      <trkpt lat="45.93474" lon="4.77093">
        <ele>169</ele>
        <time>2017-12-20T09:38:12Z</time>
      </trkpt>
      <trkpt lat="45.93475" lon="4.77099">
        <ele>169</ele>
        <time>2017-12-20T09:38:13Z</time>
      </trkpt>
      <trkpt lat="45.93476" lon="4.77107">
        <ele>169</ele>
        <time>2017-12-20T09:38:14Z</time>
      </trkpt>
      <trkpt lat="45.93477" lon="4.77114">
        <ele>169</ele>
        <time>2017-12-20T09:38:15Z</time>
      </trkpt>
      <trkpt lat="45.93478" lon="4.77121">
        <ele>169</ele>
        <time>2017-12-20T09:38:16Z</time>
      </trkpt>
      <trkpt lat="45.93478" lon="4.77128">
        <ele>169</ele>
        <time>2017-12-20T09:38:17Z</time>
      </trkpt>
      <trkpt lat="45.9348" lon="4.77134">
        <ele>169</ele>
        <time>2017-12-20T09:38:18Z</time>
      </trkpt>
      <trkpt lat="45.93482" lon="4.77142">
        <ele>169</ele>
        <time>2017-12-20T09:38:19Z</time>
      </trkpt>
      <trkpt lat="45.93484" lon="4.7715">
        <ele>169</ele>
        <time>2017-12-20T09:38:20Z</time>
      </trkpt>
      <trkpt lat="45.93485" lon="4.77157">
        <ele>169</ele>
        <time>2017-12-20T09:38:21Z</time>
      </trkpt>
      <trkpt lat="45.93486" lon="4.77163">
        <ele>169</ele>
        <time>2017-12-20T09:38:22Z</time>
      </trkpt>
      <trkpt lat="45.93487" lon="4.77171">
        <ele>169</ele>
        <time>2017-12-20T09:38:23Z</time>
      </trkpt>
      <trkpt lat="45.93489" lon="4.77178">
        <ele>169</ele>
        <time>2017-12-20T09:38:24Z</time>
      </trkpt>
      <trkpt lat="45.9349" lon="4.77185">
        <ele>169</ele>
        <time>2017-12-20T09:38:25Z</time>
      </trkpt>
      <trkpt lat="45.93492" lon="4.77192">
        <ele>169</ele>
        <time>2017-12-20T09:38:26Z</time>
      </trkpt>
      <trkpt lat="45.93493" lon="4.77198">
        <ele>169</ele>
        <time>2017-12-20T09:38:27Z</time>
      </trkpt>
      <trkpt lat="45.93495" lon="4.77205">
        <ele>169</ele>
        <time>2017-12-20T09:38:28Z</time>
      </trkpt>
      <trkpt lat="45.93496" lon="4.77212">
        <ele>169</ele>
        <time>2017-12-20T09:38:29Z</time>
      </trkpt>
      <trkpt lat="45.93498" lon="4.77219">
        <ele>169</ele>
        <time>2017-12-20T09:38:30Z</time>
      </trkpt>
      <trkpt lat="45.935" lon="4.77227">
        <ele>169</ele>
        <time>2017-12-20T09:38:31Z</time>
      </trkpt>
      <trkpt lat="45.93502" lon="4.77234">
        <ele>169</ele>
        <time>2017-12-20T09:38:32Z</time>
      </trkpt>
      <trkpt lat="45.93504" lon="4.77241">
        <ele>170</ele>
        <time>2017-12-20T09:38:33Z</time>
      </trkpt>
      <trkpt lat="45.93506" lon="4.77248">
        <ele>170</ele>
        <time>2017-12-20T09:38:34Z</time>
      </trkpt>
      <trkpt lat="45.93508" lon="4.77255">
        <ele>170</ele>
        <time>2017-12-20T09:38:35Z</time>
      </trkpt>
      <trkpt lat="45.93509" lon="4.77262">
        <ele>170</ele>
        <time>2017-12-20T09:38:36Z</time>
      </trkpt>
      <trkpt lat="45.9351" lon="4.77269">
        <ele>170</ele>
        <time>2017-12-20T09:38:37Z</time>
      </trkpt>
      <trkpt lat="45.93512" lon="4.77277">
        <ele>170</ele>
        <time>2017-12-20T09:38:38Z</time>
      </trkpt>
      <trkpt lat="45.93514" lon="4.77284">
        <ele>170</ele>
        <time>2017-12-20T09:38:39Z</time>
      </trkpt>
      <trkpt lat="45.93515" lon="4.77291">
        <ele>170</ele>
        <time>2017-12-20T09:38:40Z</time>
      </trkpt>
      <trkpt lat="45.93517" lon="4.77302">
        <ele>170</ele>
        <time>2017-12-20T09:38:42Z</time>
      </trkpt>
      <trkpt lat="45.93519" lon="4.77308">
        <ele>170</ele>
        <time>2017-12-20T09:38:43Z</time>
      </trkpt>
      <trkpt lat="45.93522" lon="4.7732">
        <ele>170</ele>
        <time>2017-12-20T09:38:45Z</time>
      </trkpt>
      <trkpt lat="45.93523" lon="4.77326">
        <ele>170</ele>
        <time>2017-12-20T09:38:46Z</time>
      </trkpt>
      <trkpt lat="45.93524" lon="4.77332">
        <ele>170</ele>
        <time>2017-12-20T09:38:47Z</time>
      </trkpt>
      <trkpt lat="45.93525" lon="4.77339">
        <ele>170</ele>
        <time>2017-12-20T09:38:48Z</time>
      </trkpt>
      <trkpt lat="45.93526" lon="4.77345">
        <ele>170</ele>
        <time>2017-12-20T09:38:49Z</time>
      </trkpt>
      <trkpt lat="45.93528" lon="4.77353">
        <ele>170</ele>
        <time>2017-12-20T09:38:50Z</time>
      </trkpt>
      <trkpt lat="45.9353" lon="4.7736">
        <ele>170</ele>
        <time>2017-12-20T09:38:51Z</time>
      </trkpt>
      <trkpt lat="45.93532" lon="4.77367">
        <ele>170</ele>
        <time>2017-12-20T09:38:52Z</time>
      </trkpt>
      <trkpt lat="45.93533" lon="4.77373">
        <ele>170</ele>
        <time>2017-12-20T09:38:53Z</time>
      </trkpt>
      <trkpt lat="45.93534" lon="4.77379">
        <ele>170</ele>
        <time>2017-12-20T09:38:54Z</time>
      </trkpt>
      <trkpt lat="45.93536" lon="4.77386">
        <ele>170</ele>
        <time>2017-12-20T09:38:55Z</time>
      </trkpt>
      <trkpt lat="45.93538" lon="4.77393">
        <ele>170</ele>
        <time>2017-12-20T09:38:56Z</time>
      </trkpt>
      <trkpt lat="45.9354" lon="4.774">
        <ele>170</ele>
        <time>2017-12-20T09:38:57Z</time>
      </trkpt>
      <trkpt lat="45.93541" lon="4.77407">
        <ele>170</ele>
        <time>2017-12-20T09:38:58Z</time>
      </trkpt>
      <trkpt lat="45.93543" lon="4.77414">
        <ele>170</ele>
        <time>2017-12-20T09:38:59Z</time>
      </trkpt>
      <trkpt lat="45.93545" lon="4.77421">
        <ele>170</ele>
        <time>2017-12-20T09:39:00Z</time>
      </trkpt>
      <trkpt lat="45.93546" lon="4.77427">
        <ele>170</ele>
        <time>2017-12-20T09:39:01Z</time>
      </trkpt>
      <trkpt lat="45.93548" lon="4.77434">
        <ele>169</ele>
        <time>2017-12-20T09:39:02Z</time>
      </trkpt>
      <trkpt lat="45.9355" lon="4.77443">
        <ele>169</ele>
        <time>2017-12-20T09:39:03Z</time>
      </trkpt>
      <trkpt lat="45.9355" lon="4.7745">
        <ele>169</ele>
        <time>2017-12-20T09:39:04Z</time>
      </trkpt>
      <trkpt lat="45.93552" lon="4.77458">
        <ele>169</ele>
        <time>2017-12-20T09:39:05Z</time>
      </trkpt>
      <trkpt lat="45.93553" lon="4.77466">
        <ele>169</ele>
        <time>2017-12-20T09:39:06Z</time>
      </trkpt>
      <trkpt lat="45.93555" lon="4.77472">
        <ele>169</ele>
        <time>2017-12-20T09:39:07Z</time>
      </trkpt>
      <trkpt lat="45.93556" lon="4.7748">
        <ele>169</ele>
        <time>2017-12-20T09:39:08Z</time>
      </trkpt>
      <trkpt lat="45.93558" lon="4.77487">
        <ele>169</ele>
        <time>2017-12-20T09:39:09Z</time>
      </trkpt>
      <trkpt lat="45.93559" lon="4.77493">
        <ele>169</ele>
        <time>2017-12-20T09:39:10Z</time>
      </trkpt>
      <trkpt lat="45.93562" lon="4.77504">
        <ele>169</ele>
        <time>2017-12-20T09:39:12Z</time>
      </trkpt>
      <trkpt lat="45.93563" lon="4.77511">
        <ele>169</ele>
        <time>2017-12-20T09:39:13Z</time>
      </trkpt>
      <trkpt lat="45.93565" lon="4.77517">
        <ele>169</ele>
        <time>2017-12-20T09:39:14Z</time>
      </trkpt>
      <trkpt lat="45.93567" lon="4.77525">
        <ele>169</ele>
        <time>2017-12-20T09:39:15Z</time>
      </trkpt>
      <trkpt lat="45.93567" lon="4.77531">
        <ele>169</ele>
        <time>2017-12-20T09:39:16Z</time>
      </trkpt>
      <trkpt lat="45.93568" lon="4.77538">
        <ele>169</ele>
        <time>2017-12-20T09:39:17Z</time>
      </trkpt>
      <trkpt lat="45.9357" lon="4.77544">
        <ele>169</ele>
        <time>2017-12-20T09:39:18Z</time>
      </trkpt>
      <trkpt lat="45.93572" lon="4.77551">
        <ele>169</ele>
        <time>2017-12-20T09:39:19Z</time>
      </trkpt>
      <trkpt lat="45.93574" lon="4.77558">
        <ele>169</ele>
        <time>2017-12-20T09:39:20Z</time>
      </trkpt>
      <trkpt lat="45.93576" lon="4.77564">
        <ele>169</ele>
        <time>2017-12-20T09:39:21Z</time>
      </trkpt>
      <trkpt lat="45.93578" lon="4.7757">
        <ele>170</ele>
        <time>2017-12-20T09:39:22Z</time>
      </trkpt>
      <trkpt lat="45.93579" lon="4.77576">
        <ele>170</ele>
        <time>2017-12-20T09:39:23Z</time>
      </trkpt>
      <trkpt lat="45.93581" lon="4.77583">
        <ele>170</ele>
        <time>2017-12-20T09:39:24Z</time>
      </trkpt>
      <trkpt lat="45.93584" lon="4.77589">
        <ele>170</ele>
        <time>2017-12-20T09:39:25Z</time>
      </trkpt>
      <trkpt lat="45.93586" lon="4.77595">
        <ele>170</ele>
        <time>2017-12-20T09:39:26Z</time>
      </trkpt>
      <trkpt lat="45.93588" lon="4.776">
        <ele>170</ele>
        <time>2017-12-20T09:39:27Z</time>
      </trkpt>
      <trkpt lat="45.9359" lon="4.77607">
        <ele>170</ele>
        <time>2017-12-20T09:39:28Z</time>
      </trkpt>
      <trkpt lat="45.93593" lon="4.77613">
        <ele>170</ele>
        <time>2017-12-20T09:39:29Z</time>
      </trkpt>
      <trkpt lat="45.93595" lon="4.77621">
        <ele>170</ele>
        <time>2017-12-20T09:39:30Z</time>
      </trkpt>
      <trkpt lat="45.93598" lon="4.77627">
        <ele>169</ele>
        <time>2017-12-20T09:39:31Z</time>
      </trkpt>
      <trkpt lat="45.93601" lon="4.77634">
        <ele>169</ele>
        <time>2017-12-20T09:39:32Z</time>
      </trkpt>
      <trkpt lat="45.93604" lon="4.77641">
        <ele>169</ele>
        <time>2017-12-20T09:39:33Z</time>
      </trkpt>
      <trkpt lat="45.93607" lon="4.77647">
        <ele>169</ele>
        <time>2017-12-20T09:39:34Z</time>
      </trkpt>
      <trkpt lat="45.9361" lon="4.77653">
        <ele>169</ele>
        <time>2017-12-20T09:39:35Z</time>
      </trkpt>
      <trkpt lat="45.93613" lon="4.77659">
        <ele>169</ele>
        <time>2017-12-20T09:39:36Z</time>
      </trkpt>
      <trkpt lat="45.93616" lon="4.77665">
        <ele>169</ele>
        <time>2017-12-20T09:39:37Z</time>
      </trkpt>
      <trkpt lat="45.93619" lon="4.77671">
        <ele>169</ele>
        <time>2017-12-20T09:39:38Z</time>
      </trkpt>
      <trkpt lat="45.93621" lon="4.77677">
        <ele>169</ele>
        <time>2017-12-20T09:39:39Z</time>
      </trkpt>
      <trkpt lat="45.93626" lon="4.77688">
        <ele>169</ele>
        <time>2017-12-20T09:39:41Z</time>
      </trkpt>
      <trkpt lat="45.93628" lon="4.77693">
        <ele>169</ele>
        <time>2017-12-20T09:39:42Z</time>
      </trkpt>
      <trkpt lat="45.93634" lon="4.77702">
        <ele>169</ele>
        <time>2017-12-20T09:39:44Z</time>
      </trkpt>
      <trkpt lat="45.93637" lon="4.77706">
        <ele>170</ele>
        <time>2017-12-20T09:39:45Z</time>
      </trkpt>
      <trkpt lat="45.93642" lon="4.77715">
        <ele>170</ele>
        <time>2017-12-20T09:39:47Z</time>
      </trkpt>
      <trkpt lat="45.93643" lon="4.77721">
        <ele>170</ele>
        <time>2017-12-20T09:39:48Z</time>
      </trkpt>
      <trkpt lat="45.93649" lon="4.7773">
        <ele>170</ele>
        <time>2017-12-20T09:39:50Z</time>
      </trkpt>
      <trkpt lat="45.93652" lon="4.77734">
        <ele>170</ele>
        <time>2017-12-20T09:39:51Z</time>
      </trkpt>
      <trkpt lat="45.93657" lon="4.77743">
        <ele>170</ele>
        <time>2017-12-20T09:39:53Z</time>
      </trkpt>
      <trkpt lat="45.93659" lon="4.77747">
        <ele>171</ele>
        <time>2017-12-20T09:39:54Z</time>
      </trkpt>
      <trkpt lat="45.93665" lon="4.77756">
        <ele>171</ele>
        <time>2017-12-20T09:39:56Z</time>
      </trkpt>
      <trkpt lat="45.93668" lon="4.77759">
        <ele>171</ele>
        <time>2017-12-20T09:39:57Z</time>
      </trkpt>
      <trkpt lat="45.93673" lon="4.77766">
        <ele>170</ele>
        <time>2017-12-20T09:39:59Z</time>
      </trkpt>
      <trkpt lat="45.93676" lon="4.7777">
        <ele>170</ele>
        <time>2017-12-20T09:40:00Z</time>
      </trkpt>
      <trkpt lat="45.93681" lon="4.77778">
        <ele>170</ele>
        <time>2017-12-20T09:40:02Z</time>
      </trkpt>
      <trkpt lat="45.93684" lon="4.77782">
        <ele>170</ele>
        <time>2017-12-20T09:40:03Z</time>
      </trkpt>
      <trkpt lat="45.93691" lon="4.77791">
        <ele>170</ele>
        <time>2017-12-20T09:40:05Z</time>
      </trkpt>
      <trkpt lat="45.93693" lon="4.77795">
        <ele>169</ele>
        <time>2017-12-20T09:40:06Z</time>
      </trkpt>
      <trkpt lat="45.937" lon="4.77804">
        <ele>169</ele>
        <time>2017-12-20T09:40:08Z</time>
      </trkpt>
      <trkpt lat="45.93703" lon="4.7781">
        <ele>169</ele>
        <time>2017-12-20T09:40:09Z</time>
      </trkpt>
      <trkpt lat="45.93707" lon="4.77815">
        <ele>169</ele>
        <time>2017-12-20T09:40:10Z</time>
      </trkpt>
      <trkpt lat="45.9371" lon="4.77819">
        <ele>169</ele>
        <time>2017-12-20T09:40:11Z</time>
      </trkpt>
      <trkpt lat="45.93716" lon="4.77827">
        <ele>169</ele>
        <time>2017-12-20T09:40:13Z</time>
      </trkpt>
      <trkpt lat="45.9372" lon="4.77831">
        <ele>168</ele>
        <time>2017-12-20T09:40:14Z</time>
      </trkpt>
      <trkpt lat="45.93723" lon="4.77835">
        <ele>167</ele>
        <time>2017-12-20T09:40:15Z</time>
      </trkpt>
      <trkpt lat="45.93726" lon="4.7784">
        <ele>167</ele>
        <time>2017-12-20T09:40:16Z</time>
      </trkpt>
      <trkpt lat="45.93732" lon="4.77848">
        <ele>167</ele>
        <time>2017-12-20T09:40:18Z</time>
      </trkpt>
      <trkpt lat="45.93735" lon="4.77852">
        <ele>167</ele>
        <time>2017-12-20T09:40:19Z</time>
      </trkpt>
      <trkpt lat="45.93741" lon="4.77861">
        <ele>167</ele>
        <time>2017-12-20T09:40:21Z</time>
      </trkpt>
      <trkpt lat="45.93744" lon="4.77865">
        <ele>167</ele>
        <time>2017-12-20T09:40:22Z</time>
      </trkpt>
      <trkpt lat="45.93751" lon="4.77873">
        <ele>166</ele>
        <time>2017-12-20T09:40:24Z</time>
      </trkpt>
      <trkpt lat="45.93754" lon="4.77877">
        <ele>166</ele>
        <time>2017-12-20T09:40:25Z</time>
      </trkpt>
      <trkpt lat="45.93761" lon="4.77885">
        <ele>166</ele>
        <time>2017-12-20T09:40:27Z</time>
      </trkpt>
      <trkpt lat="45.93764" lon="4.77889">
        <ele>166</ele>
        <time>2017-12-20T09:40:28Z</time>
      </trkpt>
      <trkpt lat="45.9377" lon="4.77897">
        <ele>166</ele>
        <time>2017-12-20T09:40:30Z</time>
      </trkpt>
      <trkpt lat="45.93774" lon="4.77902">
        <ele>166</ele>
        <time>2017-12-20T09:40:31Z</time>
      </trkpt>
      <trkpt lat="45.9378" lon="4.7791">
        <ele>166</ele>
        <time>2017-12-20T09:40:33Z</time>
      </trkpt>
      <trkpt lat="45.93783" lon="4.77914">
        <ele>166</ele>
        <time>2017-12-20T09:40:34Z</time>
      </trkpt>
      <trkpt lat="45.93789" lon="4.77921">
        <ele>168</ele>
        <time>2017-12-20T09:40:36Z</time>
      </trkpt>
      <trkpt lat="45.93792" lon="4.77925">
        <ele>168</ele>
        <time>2017-12-20T09:40:37Z</time>
      </trkpt>
      <trkpt lat="45.93798" lon="4.77933">
        <ele>168</ele>
        <time>2017-12-20T09:40:39Z</time>
      </trkpt>
      <trkpt lat="45.93801" lon="4.77937">
        <ele>169</ele>
        <time>2017-12-20T09:40:40Z</time>
      </trkpt>
      <trkpt lat="45.93807" lon="4.77945">
        <ele>169</ele>
        <time>2017-12-20T09:40:42Z</time>
      </trkpt>
      <trkpt lat="45.9381" lon="4.77948">
        <ele>169</ele>
        <time>2017-12-20T09:40:43Z</time>
      </trkpt>
      <trkpt lat="45.93816" lon="4.77957">
        <ele>170</ele>
        <time>2017-12-20T09:40:45Z</time>
      </trkpt>
      <trkpt lat="45.9382" lon="4.77961">
        <ele>170</ele>
        <time>2017-12-20T09:40:46Z</time>
      </trkpt>
      <trkpt lat="45.93823" lon="4.77965">
        <ele>171</ele>
        <time>2017-12-20T09:40:47Z</time>
      </trkpt>
      <trkpt lat="45.93826" lon="4.7797">
        <ele>172</ele>
        <time>2017-12-20T09:40:48Z</time>
      </trkpt>
      <trkpt lat="45.93829" lon="4.77974">
        <ele>172</ele>
        <time>2017-12-20T09:40:49Z</time>
      </trkpt>
      <trkpt lat="45.93833" lon="4.77978">
        <ele>173</ele>
        <time>2017-12-20T09:40:50Z</time>
      </trkpt>
      <trkpt lat="45.93836" lon="4.77983">
        <ele>178</ele>
        <time>2017-12-20T09:40:51Z</time>
      </trkpt>
      <trkpt lat="45.93839" lon="4.77989">
        <ele>179</ele>
        <time>2017-12-20T09:40:52Z</time>
      </trkpt>
      <trkpt lat="45.9384" lon="4.77996">
        <ele>179</ele>
        <time>2017-12-20T09:40:53Z</time>
      </trkpt>
      <trkpt lat="45.93841" lon="4.78003">
        <ele>180</ele>
        <time>2017-12-20T09:40:54Z</time>
      </trkpt>
      <trkpt lat="45.93842" lon="4.7801">
        <ele>181</ele>
        <time>2017-12-20T09:40:55Z</time>
      </trkpt>
      <trkpt lat="45.93843" lon="4.78018">
        <ele>181</ele>
        <time>2017-12-20T09:40:56Z</time>
      </trkpt>
      <trkpt lat="45.93844" lon="4.78025">
        <ele>182</ele>
        <time>2017-12-20T09:40:57Z</time>
      </trkpt>
      <trkpt lat="45.93845" lon="4.78031">
        <ele>182</ele>
        <time>2017-12-20T09:40:58Z</time>
      </trkpt>
      <trkpt lat="45.93847" lon="4.78038">
        <ele>182</ele>
        <time>2017-12-20T09:40:59Z</time>
      </trkpt>
      <trkpt lat="45.93846" lon="4.78044">
        <ele>182</ele>
        <time>2017-12-20T09:41:00Z</time>
      </trkpt>
      <trkpt lat="45.93845" lon="4.78056">
        <ele>182</ele>
        <time>2017-12-20T09:41:02Z</time>
      </trkpt>
      <trkpt lat="45.93843" lon="4.78062">
        <ele>182</ele>
        <time>2017-12-20T09:41:03Z</time>
      </trkpt>
      <trkpt lat="45.93843" lon="4.7807">
        <ele>182</ele>
        <time>2017-12-20T09:41:04Z</time>
      </trkpt>
      <trkpt lat="45.93841" lon="4.78076">
        <ele>181</ele>
        <time>2017-12-20T09:41:05Z</time>
      </trkpt>
      <trkpt lat="45.93839" lon="4.78088">
        <ele>182</ele>
        <time>2017-12-20T09:41:07Z</time>
      </trkpt>
      <trkpt lat="45.93838" lon="4.78094">
        <ele>182</ele>
        <time>2017-12-20T09:41:08Z</time>
      </trkpt>
      <trkpt lat="45.93836" lon="4.781">
        <ele>183</ele>
        <time>2017-12-20T09:41:09Z</time>
      </trkpt>
      <trkpt lat="45.93835" lon="4.78107">
        <ele>183</ele>
        <time>2017-12-20T09:41:10Z</time>
      </trkpt>
      <trkpt lat="45.93833" lon="4.78113">
        <ele>179</ele>
        <time>2017-12-20T09:41:11Z</time>
      </trkpt>
      <trkpt lat="45.93831" lon="4.7812">
        <ele>180</ele>
        <time>2017-12-20T09:41:12Z</time>
      </trkpt>
      <trkpt lat="45.9383" lon="4.78126">
        <ele>180</ele>
        <time>2017-12-20T09:41:13Z</time>
      </trkpt>
      <trkpt lat="45.93827" lon="4.78133">
        <ele>180</ele>
        <time>2017-12-20T09:41:14Z</time>
      </trkpt>
      <trkpt lat="45.93826" lon="4.78139">
        <ele>180</ele>
        <time>2017-12-20T09:41:15Z</time>
      </trkpt>
      <trkpt lat="45.93824" lon="4.78146">
        <ele>180</ele>
        <time>2017-12-20T09:41:16Z</time>
      </trkpt>
      <trkpt lat="45.93822" lon="4.78153">
        <ele>180</ele>
        <time>2017-12-20T09:41:17Z</time>
      </trkpt>
      <trkpt lat="45.93822" lon="4.7816">
        <ele>181</ele>
        <time>2017-12-20T09:41:18Z</time>
      </trkpt>
      <trkpt lat="45.9382" lon="4.78167">
        <ele>182</ele>
        <time>2017-12-20T09:41:19Z</time>
      </trkpt>
      <trkpt lat="45.93818" lon="4.78174">
        <ele>182</ele>
        <time>2017-12-20T09:41:20Z</time>
      </trkpt>
      <trkpt lat="45.93817" lon="4.7818">
        <ele>182</ele>
        <time>2017-12-20T09:41:21Z</time>
      </trkpt>
      <trkpt lat="45.93814" lon="4.78187">
        <ele>182</ele>
        <time>2017-12-20T09:41:22Z</time>
      </trkpt>
      <trkpt lat="45.93813" lon="4.78194">
        <ele>182</ele>
        <time>2017-12-20T09:41:23Z</time>
      </trkpt>
      <trkpt lat="45.93811" lon="4.78201">
        <ele>182</ele>
        <time>2017-12-20T09:41:24Z</time>
      </trkpt>
      <trkpt lat="45.93808" lon="4.78212">
        <ele>182</ele>
        <time>2017-12-20T09:41:26Z</time>
      </trkpt>
      <trkpt lat="45.93806" lon="4.78218">
        <ele>182</ele>
        <time>2017-12-20T09:41:27Z</time>
      </trkpt>
      <trkpt lat="45.93805" lon="4.78224">
        <ele>182</ele>
        <time>2017-12-20T09:41:28Z</time>
      </trkpt>
      <trkpt lat="45.93802" lon="4.7823">
        <ele>182</ele>
        <time>2017-12-20T09:41:29Z</time>
      </trkpt>
      <trkpt lat="45.93799" lon="4.78234">
        <ele>182</ele>
        <time>2017-12-20T09:41:30Z</time>
      </trkpt>
      <trkpt lat="45.93796" lon="4.7824">
        <ele>182</ele>
        <time>2017-12-20T09:41:31Z</time>
      </trkpt>
      <trkpt lat="45.93794" lon="4.78248">
        <ele>182</ele>
        <time>2017-12-20T09:41:32Z</time>
      </trkpt>
      <trkpt lat="45.93792" lon="4.78255">
        <ele>183</ele>
        <time>2017-12-20T09:41:33Z</time>
      </trkpt>
      <trkpt lat="45.93791" lon="4.78263">
        <ele>183</ele>
        <time>2017-12-20T09:41:34Z</time>
      </trkpt>
      <trkpt lat="45.9379" lon="4.7827">
        <ele>183</ele>
        <time>2017-12-20T09:41:35Z</time>
      </trkpt>
      <trkpt lat="45.93789" lon="4.78276">
        <ele>183</ele>
        <time>2017-12-20T09:41:36Z</time>
      </trkpt>
      <trkpt lat="45.93787" lon="4.78282">
        <ele>183</ele>
        <time>2017-12-20T09:41:37Z</time>
      </trkpt>
      <trkpt lat="45.93784" lon="4.78289">
        <ele>183</ele>
        <time>2017-12-20T09:41:38Z</time>
      </trkpt>
      <trkpt lat="45.93781" lon="4.78295">
        <ele>183</ele>
        <time>2017-12-20T09:41:39Z</time>
      </trkpt>
      <trkpt lat="45.9378" lon="4.78303">
        <ele>183</ele>
        <time>2017-12-20T09:41:40Z</time>
      </trkpt>
      <trkpt lat="45.93777" lon="4.7831">
        <ele>183</ele>
        <time>2017-12-20T09:41:41Z</time>
      </trkpt>
      <trkpt lat="45.93775" lon="4.78317">
        <ele>183</ele>
        <time>2017-12-20T09:41:42Z</time>
      </trkpt>
      <trkpt lat="45.93773" lon="4.78324">
        <ele>183</ele>
        <time>2017-12-20T09:41:43Z</time>
      </trkpt>
      <trkpt lat="45.93772" lon="4.78331">
        <ele>183</ele>
        <time>2017-12-20T09:41:44Z</time>
      </trkpt>
      <trkpt lat="45.9377" lon="4.78338">
        <ele>183</ele>
        <time>2017-12-20T09:41:45Z</time>
      </trkpt>
      <trkpt lat="45.93768" lon="4.78345">
        <ele>183</ele>
        <time>2017-12-20T09:41:46Z</time>
      </trkpt>
      <trkpt lat="45.93766" lon="4.78353">
        <ele>183</ele>
        <time>2017-12-20T09:41:47Z</time>
      </trkpt>
      <trkpt lat="45.93765" lon="4.78359">
        <ele>183</ele>
        <time>2017-12-20T09:41:48Z</time>
      </trkpt>
      <trkpt lat="45.93763" lon="4.78366">
        <ele>183</ele>
        <time>2017-12-20T09:41:49Z</time>
      </trkpt>
      <trkpt lat="45.93761" lon="4.78373">
        <ele>183</ele>
        <time>2017-12-20T09:41:50Z</time>
      </trkpt>
      <trkpt lat="45.9376" lon="4.78379">
        <ele>183</ele>
        <time>2017-12-20T09:41:51Z</time>
      </trkpt>
      <trkpt lat="45.93759" lon="4.78385">
        <ele>183</ele>
        <time>2017-12-20T09:41:52Z</time>
      </trkpt>
      <trkpt lat="45.93756" lon="4.78393">
        <ele>183</ele>
        <time>2017-12-20T09:41:53Z</time>
      </trkpt>
      <trkpt lat="45.93754" lon="4.78399">
        <ele>183</ele>
        <time>2017-12-20T09:41:54Z</time>
      </trkpt>
      <trkpt lat="45.93751" lon="4.78408">
        <ele>182</ele>
        <time>2017-12-20T09:41:55Z</time>
      </trkpt>
      <trkpt lat="45.93749" lon="4.78414">
        <ele>181</ele>
        <time>2017-12-20T09:41:56Z</time>
      </trkpt>
      <trkpt lat="45.93747" lon="4.7842">
        <ele>181</ele>
        <time>2017-12-20T09:41:57Z</time>
      </trkpt>
      <trkpt lat="45.93746" lon="4.78428">
        <ele>180</ele>
        <time>2017-12-20T09:41:58Z</time>
      </trkpt>
      <trkpt lat="45.93744" lon="4.78435">
        <ele>180</ele>
        <time>2017-12-20T09:41:59Z</time>
      </trkpt>
      <trkpt lat="45.93742" lon="4.78443">
        <ele>180</ele>
        <time>2017-12-20T09:42:00Z</time>
      </trkpt>
      <trkpt lat="45.9374" lon="4.7845">
        <ele>180</ele>
        <time>2017-12-20T09:42:01Z</time>
      </trkpt>
      <trkpt lat="45.93738" lon="4.78457">
        <ele>180</ele>
        <time>2017-12-20T09:42:02Z</time>
      </trkpt>
      <trkpt lat="45.93737" lon="4.78465">
        <ele>180</ele>
        <time>2017-12-20T09:42:03Z</time>
      </trkpt>
      <trkpt lat="45.93735" lon="4.78472">
        <ele>180</ele>
        <time>2017-12-20T09:42:04Z</time>
      </trkpt>
      <trkpt lat="45.93732" lon="4.78479">
        <ele>180</ele>
        <time>2017-12-20T09:42:05Z</time>
      </trkpt>
      <trkpt lat="45.9373" lon="4.78487">
        <ele>180</ele>
        <time>2017-12-20T09:42:06Z</time>
      </trkpt>
      <trkpt lat="45.93728" lon="4.78495">
        <ele>180</ele>
        <time>2017-12-20T09:42:07Z</time>
      </trkpt>
      <trkpt lat="45.93726" lon="4.78503">
        <ele>179</ele>
        <time>2017-12-20T09:42:08Z</time>
      </trkpt>
      <trkpt lat="45.93725" lon="4.78511">
        <ele>179</ele>
        <time>2017-12-20T09:42:09Z</time>
      </trkpt>
      <trkpt lat="45.93723" lon="4.78519">
        <ele>179</ele>
        <time>2017-12-20T09:42:10Z</time>
      </trkpt>
      <trkpt lat="45.93721" lon="4.78528">
        <ele>178</ele>
        <time>2017-12-20T09:42:11Z</time>
      </trkpt>
      <trkpt lat="45.9372" lon="4.78537">
        <ele>178</ele>
        <time>2017-12-20T09:42:12Z</time>
      </trkpt>
      <trkpt lat="45.93719" lon="4.78546">
        <ele>178</ele>
        <time>2017-12-20T09:42:13Z</time>
      </trkpt>
      <trkpt lat="45.93717" lon="4.78555">
        <ele>178</ele>
        <time>2017-12-20T09:42:14Z</time>
      </trkpt>
      <trkpt lat="45.93714" lon="4.78563">
        <ele>178</ele>
        <time>2017-12-20T09:42:15Z</time>
      </trkpt>
      <trkpt lat="45.93712" lon="4.78571">
        <ele>178</ele>
        <time>2017-12-20T09:42:16Z</time>
      </trkpt>
      <trkpt lat="45.9371" lon="4.7858">
        <ele>177</ele>
        <time>2017-12-20T09:42:17Z</time>
      </trkpt>
      <trkpt lat="45.93708" lon="4.78589">
        <ele>176</ele>
        <time>2017-12-20T09:42:18Z</time>
      </trkpt>
      <trkpt lat="45.93705" lon="4.78597">
        <ele>176</ele>
        <time>2017-12-20T09:42:19Z</time>
      </trkpt>
      <trkpt lat="45.93703" lon="4.78604">
        <ele>176</ele>
        <time>2017-12-20T09:42:20Z</time>
      </trkpt>
      <trkpt lat="45.93702" lon="4.78612">
        <ele>176</ele>
        <time>2017-12-20T09:42:21Z</time>
      </trkpt>
      <trkpt lat="45.93702" lon="4.78619">
        <ele>176</ele>
        <time>2017-12-20T09:42:22Z</time>
      </trkpt>
      <trkpt lat="45.93705" lon="4.78625">
        <ele>176</ele>
        <time>2017-12-20T09:42:23Z</time>
      </trkpt>
      <trkpt lat="45.93713" lon="4.78629">
        <ele>176</ele>
        <time>2017-12-20T09:42:25Z</time>
      </trkpt>
      <trkpt lat="45.93717" lon="4.78628">
        <ele>176</ele>
        <time>2017-12-20T09:42:26Z</time>
      </trkpt>
      <trkpt lat="45.93724" lon="4.78623">
        <ele>177</ele>
        <time>2017-12-20T09:42:28Z</time>
      </trkpt>
      <trkpt lat="45.93727" lon="4.78622">
        <ele>177</ele>
        <time>2017-12-20T09:42:29Z</time>
      </trkpt>
      <trkpt lat="45.93734" lon="4.7862">
        <ele>177</ele>
        <time>2017-12-20T09:42:31Z</time>
      </trkpt>
      <trkpt lat="45.93737" lon="4.78619">
        <ele>177</ele>
        <time>2017-12-20T09:42:32Z</time>
      </trkpt>
      <trkpt lat="45.93744" lon="4.78617">
        <ele>177</ele>
        <time>2017-12-20T09:42:34Z</time>
      </trkpt>
      <trkpt lat="45.93748" lon="4.78616">
        <ele>177</ele>
        <time>2017-12-20T09:42:35Z</time>
      </trkpt>
      <trkpt lat="45.93754" lon="4.78614">
        <ele>181</ele>
        <time>2017-12-20T09:42:37Z</time>
      </trkpt>
      <trkpt lat="45.93758" lon="4.78614">
        <ele>181</ele>
        <time>2017-12-20T09:42:38Z</time>
      </trkpt>
      <trkpt lat="45.93765" lon="4.78612">
        <ele>181</ele>
        <time>2017-12-20T09:42:40Z</time>
      </trkpt>
      <trkpt lat="45.93769" lon="4.78611">
        <ele>181</ele>
        <time>2017-12-20T09:42:41Z</time>
      </trkpt>
      <trkpt lat="45.93776" lon="4.78609">
        <ele>181</ele>
        <time>2017-12-20T09:42:43Z</time>
      </trkpt>
      <trkpt lat="45.9378" lon="4.78608">
        <ele>181</ele>
        <time>2017-12-20T09:42:44Z</time>
      </trkpt>
      <trkpt lat="45.93787" lon="4.78606">
        <ele>182</ele>
        <time>2017-12-20T09:42:46Z</time>
      </trkpt>
      <trkpt lat="45.93791" lon="4.78605">
        <ele>182</ele>
        <time>2017-12-20T09:42:47Z</time>
      </trkpt>
      <trkpt lat="45.93798" lon="4.78604">
        <ele>182</ele>
        <time>2017-12-20T09:42:49Z</time>
      </trkpt>
      <trkpt lat="45.93802" lon="4.78603">
        <ele>183</ele>
        <time>2017-12-20T09:42:50Z</time>
      </trkpt>
      <trkpt lat="45.93809" lon="4.78602">
        <ele>183</ele>
        <time>2017-12-20T09:42:52Z</time>
      </trkpt>
      <trkpt lat="45.93812" lon="4.78601">
        <ele>183</ele>
        <time>2017-12-20T09:42:53Z</time>
      </trkpt>
      <trkpt lat="45.93819" lon="4.78599">
        <ele>184</ele>
        <time>2017-12-20T09:42:55Z</time>
      </trkpt>
      <trkpt lat="45.93823" lon="4.78598">
        <ele>184</ele>
        <time>2017-12-20T09:42:56Z</time>
      </trkpt>
      <trkpt lat="45.93829" lon="4.78597">
        <ele>185</ele>
        <time>2017-12-20T09:42:58Z</time>
      </trkpt>
      <trkpt lat="45.93833" lon="4.78597">
        <ele>185</ele>
        <time>2017-12-20T09:42:59Z</time>
      </trkpt>
      <trkpt lat="45.93841" lon="4.78596">
        <ele>187</ele>
        <time>2017-12-20T09:43:02Z</time>
      </trkpt>
      <trkpt lat="45.93844" lon="4.78596">
        <ele>188</ele>
        <time>2017-12-20T09:43:03Z</time>
      </trkpt>
      <trkpt lat="45.93852" lon="4.78595">
        <ele>188</ele>
        <time>2017-12-20T09:43:06Z</time>
      </trkpt>
      <trkpt lat="45.93855" lon="4.78595">
        <ele>188</ele>
        <time>2017-12-20T09:43:07Z</time>
      </trkpt>
      <trkpt lat="45.93864" lon="4.78593">
        <ele>188</ele>
        <time>2017-12-20T09:43:10Z</time>
      </trkpt>
      <trkpt lat="45.93866" lon="4.78592">
        <ele>188</ele>
        <time>2017-12-20T09:43:11Z</time>
      </trkpt>
      <trkpt lat="45.93874" lon="4.7859">
        <ele>189</ele>
        <time>2017-12-20T09:43:14Z</time>
      </trkpt>
      <trkpt lat="45.93877" lon="4.7859">
        <ele>189</ele>
        <time>2017-12-20T09:43:15Z</time>
      </trkpt>
      <trkpt lat="45.93885" lon="4.78586">
        <ele>189</ele>
        <time>2017-12-20T09:43:18Z</time>
      </trkpt>
      <trkpt lat="45.93887" lon="4.78585">
        <ele>190</ele>
        <time>2017-12-20T09:43:19Z</time>
      </trkpt>
      <trkpt lat="45.93894" lon="4.78582">
        <ele>192</ele>
        <time>2017-12-20T09:43:22Z</time>
      </trkpt>
      <trkpt lat="45.93896" lon="4.78581">
        <ele>192</ele>
        <time>2017-12-20T09:43:23Z</time>
      </trkpt>
      <trkpt lat="45.93903" lon="4.78576">
        <ele>192</ele>
        <time>2017-12-20T09:43:27Z</time>
      </trkpt>
      <trkpt lat="45.93905" lon="4.78575">
        <ele>192</ele>
        <time>2017-12-20T09:43:28Z</time>
      </trkpt>
      <trkpt lat="45.93912" lon="4.7857">
        <ele>192</ele>
        <time>2017-12-20T09:43:32Z</time>
      </trkpt>
      <trkpt lat="45.93914" lon="4.78568">
        <ele>192</ele>
        <time>2017-12-20T09:43:33Z</time>
      </trkpt>
      <trkpt lat="45.93921" lon="4.78562">
        <ele>196</ele>
        <time>2017-12-20T09:43:37Z</time>
      </trkpt>
      <trkpt lat="45.93922" lon="4.78561">
        <ele>196</ele>
        <time>2017-12-20T09:43:38Z</time>
      </trkpt>
      <trkpt lat="45.93928" lon="4.78567">
        <ele>196</ele>
        <time>2017-12-20T09:43:41Z</time>
      </trkpt>
      <trkpt lat="45.93929" lon="4.7857">
        <ele>196</ele>
        <time>2017-12-20T09:43:42Z</time>
      </trkpt>
      <trkpt lat="45.9393" lon="4.7858">
        <ele>195</ele>
        <time>2017-12-20T09:43:44Z</time>
      </trkpt>
      <trkpt lat="45.9393" lon="4.78585">
        <ele>195</ele>
        <time>2017-12-20T09:43:45Z</time>
      </trkpt>
      <trkpt lat="45.9393" lon="4.78595">
        <ele>195</ele>
        <time>2017-12-20T09:43:47Z</time>
      </trkpt>
      <trkpt lat="45.9393" lon="4.786">
        <ele>195</ele>
        <time>2017-12-20T09:43:48Z</time>
      </trkpt>
      <trkpt lat="45.93931" lon="4.78612">
        <ele>195</ele>
        <time>2017-12-20T09:43:51Z</time>
      </trkpt>
      <trkpt lat="45.93931" lon="4.78617">
        <ele>195</ele>
        <time>2017-12-20T09:43:52Z</time>
      </trkpt>
      <trkpt lat="45.93931" lon="4.78627">
        <ele>195</ele>
        <time>2017-12-20T09:43:54Z</time>
      </trkpt>
      <trkpt lat="45.93932" lon="4.78632">
        <ele>195</ele>
        <time>2017-12-20T09:43:55Z</time>
      </trkpt>
      <trkpt lat="45.93932" lon="4.78641">
        <ele>195</ele>
        <time>2017-12-20T09:43:57Z</time>
      </trkpt>
      <trkpt lat="45.93932" lon="4.78645">
        <ele>194</ele>
        <time>2017-12-20T09:43:58Z</time>
      </trkpt>
      <trkpt lat="45.93932" lon="4.78655">
        <ele>194</ele>
        <time>2017-12-20T09:44:00Z</time>
      </trkpt>
      <trkpt lat="45.93932" lon="4.78659">
        <ele>193</ele>
        <time>2017-12-20T09:44:01Z</time>
      </trkpt>
      <trkpt lat="45.93933" lon="4.78669">
        <ele>193</ele>
        <time>2017-12-20T09:44:03Z</time>
      </trkpt>
      <trkpt lat="45.93933" lon="4.78674">
        <ele>193</ele>
        <time>2017-12-20T09:44:04Z</time>
      </trkpt>
      <trkpt lat="45.93935" lon="4.78685">
        <ele>193</ele>
        <time>2017-12-20T09:44:06Z</time>
      </trkpt>
      <trkpt lat="45.93935" lon="4.78689">
        <ele>194</ele>
        <time>2017-12-20T09:44:07Z</time>
      </trkpt>
      <trkpt lat="45.93936" lon="4.78699">
        <ele>194</ele>
        <time>2017-12-20T09:44:09Z</time>
      </trkpt>
      <trkpt lat="45.93936" lon="4.78704">
        <ele>194</ele>
        <time>2017-12-20T09:44:10Z</time>
      </trkpt>
      <trkpt lat="45.93936" lon="4.78714">
        <ele>194</ele>
        <time>2017-12-20T09:44:12Z</time>
      </trkpt>
      <trkpt lat="45.93936" lon="4.7872">
        <ele>194</ele>
        <time>2017-12-20T09:44:13Z</time>
      </trkpt>
      <trkpt lat="45.93936" lon="4.78732">
        <ele>193</ele>
        <time>2017-12-20T09:44:15Z</time>
      </trkpt>
      <trkpt lat="45.93936" lon="4.78738">
        <ele>193</ele>
        <time>2017-12-20T09:44:16Z</time>
      </trkpt>
      <trkpt lat="45.93936" lon="4.78751">
        <ele>193</ele>
        <time>2017-12-20T09:44:18Z</time>
      </trkpt>
      <trkpt lat="45.93935" lon="4.78757">
        <ele>193</ele>
        <time>2017-12-20T09:44:19Z</time>
      </trkpt>
      <trkpt lat="45.93935" lon="4.78764">
        <ele>193</ele>
        <time>2017-12-20T09:44:20Z</time>
      </trkpt>
      <trkpt lat="45.93935" lon="4.7877">
        <ele>193</ele>
        <time>2017-12-20T09:44:21Z</time>
      </trkpt>
      <trkpt lat="45.93934" lon="4.78782">
        <ele>194</ele>
        <time>2017-12-20T09:44:23Z</time>
      </trkpt>
      <trkpt lat="45.93934" lon="4.78788">
        <ele>194</ele>
        <time>2017-12-20T09:44:24Z</time>
      </trkpt>
      <trkpt lat="45.93934" lon="4.78799">
        <ele>194</ele>
        <time>2017-12-20T09:44:26Z</time>
      </trkpt>
      <trkpt lat="45.93934" lon="4.78806">
        <ele>194</ele>
        <time>2017-12-20T09:44:27Z</time>
      </trkpt>
      <trkpt lat="45.93935" lon="4.78818">
        <ele>193</ele>
        <time>2017-12-20T09:44:29Z</time>
      </trkpt>
      <trkpt lat="45.93935" lon="4.78825">
        <ele>193</ele>
        <time>2017-12-20T09:44:30Z</time>
      </trkpt>
      <trkpt lat="45.93936" lon="4.78837">
        <ele>193</ele>
        <time>2017-12-20T09:44:32Z</time>
      </trkpt>
      <trkpt lat="45.93935" lon="4.78844">
        <ele>193</ele>
        <time>2017-12-20T09:44:33Z</time>
      </trkpt>
      <trkpt lat="45.93935" lon="4.78855">
        <ele>193</ele>
        <time>2017-12-20T09:44:35Z</time>
      </trkpt>
      <trkpt lat="45.93936" lon="4.78861">
        <ele>193</ele>
        <time>2017-12-20T09:44:36Z</time>
      </trkpt>
      <trkpt lat="45.93936" lon="4.78874">
        <ele>194</ele>
        <time>2017-12-20T09:44:38Z</time>
      </trkpt>
      <trkpt lat="45.93937" lon="4.78879">
        <ele>193</ele>
        <time>2017-12-20T09:44:39Z</time>
      </trkpt>
      <trkpt lat="45.93936" lon="4.7889">
        <ele>193</ele>
        <time>2017-12-20T09:44:41Z</time>
      </trkpt>
      <trkpt lat="45.93936" lon="4.78895">
        <ele>193</ele>
        <time>2017-12-20T09:44:42Z</time>
      </trkpt>
      <trkpt lat="45.93937" lon="4.78905">
        <ele>193</ele>
        <time>2017-12-20T09:44:44Z</time>
      </trkpt>
      <trkpt lat="45.93937" lon="4.78911">
        <ele>193</ele>
        <time>2017-12-20T09:44:45Z</time>
      </trkpt>
      <trkpt lat="45.93937" lon="4.78922">
        <ele>193</ele>
        <time>2017-12-20T09:44:47Z</time>
      </trkpt>
      <trkpt lat="45.93937" lon="4.78927">
        <ele>193</ele>
        <time>2017-12-20T09:44:48Z</time>
      </trkpt>
      <trkpt lat="45.93938" lon="4.78938">
        <ele>193</ele>
        <time>2017-12-20T09:44:50Z</time>
      </trkpt>
      <trkpt lat="45.93938" lon="4.78945">
        <ele>193</ele>
        <time>2017-12-20T09:44:51Z</time>
      </trkpt>
      <trkpt lat="45.9394" lon="4.78957">
        <ele>194</ele>
        <time>2017-12-20T09:44:53Z</time>
      </trkpt>
      <trkpt lat="45.9394" lon="4.78962">
        <ele>194</ele>
        <time>2017-12-20T09:44:54Z</time>
      </trkpt>
      <trkpt lat="45.93939" lon="4.78973">
        <ele>194</ele>
        <time>2017-12-20T09:44:56Z</time>
      </trkpt>
      <trkpt lat="45.9394" lon="4.78979">
        <ele>194</ele>
        <time>2017-12-20T09:44:57Z</time>
      </trkpt>
      <trkpt lat="45.93941" lon="4.7899">
        <ele>193</ele>
        <time>2017-12-20T09:44:59Z</time>
      </trkpt>
      <trkpt lat="45.93941" lon="4.78996">
        <ele>193</ele>
        <time>2017-12-20T09:45:00Z</time>
      </trkpt>
      <trkpt lat="45.93941" lon="4.79007">
        <ele>194</ele>
        <time>2017-12-20T09:45:02Z</time>
      </trkpt>
      <trkpt lat="45.93941" lon="4.79013">
        <ele>194</ele>
        <time>2017-12-20T09:45:03Z</time>
      </trkpt>
      <trkpt lat="45.93941" lon="4.79024">
        <ele>195</ele>
        <time>2017-12-20T09:45:05Z</time>
      </trkpt>
      <trkpt lat="45.93941" lon="4.79029">
        <ele>195</ele>
        <time>2017-12-20T09:45:06Z</time>
      </trkpt>
      <trkpt lat="45.93942" lon="4.79037">
        <ele>195</ele>
        <time>2017-12-20T09:45:08Z</time>
      </trkpt>
      <trkpt lat="45.93943" lon="4.79043">
        <ele>195</ele>
        <time>2017-12-20T09:45:09Z</time>
      </trkpt>
      <trkpt lat="45.93944" lon="4.79053">
        <ele>195</ele>
        <time>2017-12-20T09:45:11Z</time>
      </trkpt>
      <trkpt lat="45.93944" lon="4.79058">
        <ele>195</ele>
        <time>2017-12-20T09:45:12Z</time>
      </trkpt>
      <trkpt lat="45.93946" lon="4.79069">
        <ele>195</ele>
        <time>2017-12-20T09:45:14Z</time>
      </trkpt>
      <trkpt lat="45.93946" lon="4.79075">
        <ele>195</ele>
        <time>2017-12-20T09:45:15Z</time>
      </trkpt>
      <trkpt lat="45.93946" lon="4.79087">
        <ele>196</ele>
        <time>2017-12-20T09:45:17Z</time>
      </trkpt>
      <trkpt lat="45.93945" lon="4.79093">
        <ele>196</ele>
        <time>2017-12-20T09:45:18Z</time>
      </trkpt>
      <trkpt lat="45.93946" lon="4.79106">
        <ele>196</ele>
        <time>2017-12-20T09:45:20Z</time>
      </trkpt>
      <trkpt lat="45.93946" lon="4.79112">
        <ele>196</ele>
        <time>2017-12-20T09:45:21Z</time>
      </trkpt>
      <trkpt lat="45.93946" lon="4.79124">
        <ele>196</ele>
        <time>2017-12-20T09:45:23Z</time>
      </trkpt>
      <trkpt lat="45.93946" lon="4.7913">
        <ele>196</ele>
        <time>2017-12-20T09:45:24Z</time>
      </trkpt>
      <trkpt lat="45.93945" lon="4.79143">
        <ele>196</ele>
        <time>2017-12-20T09:45:26Z</time>
      </trkpt>
      <trkpt lat="45.93945" lon="4.79149">
        <ele>196</ele>
        <time>2017-12-20T09:45:27Z</time>
      </trkpt>
      <trkpt lat="45.93946" lon="4.79161">
        <ele>196</ele>
        <time>2017-12-20T09:45:29Z</time>
      </trkpt>
      <trkpt lat="45.93946" lon="4.79167">
        <ele>196</ele>
        <time>2017-12-20T09:45:30Z</time>
      </trkpt>
      <trkpt lat="45.93946" lon="4.79179">
        <ele>196</ele>
        <time>2017-12-20T09:45:32Z</time>
      </trkpt>
      <trkpt lat="45.93946" lon="4.79185">
        <ele>196</ele>
        <time>2017-12-20T09:45:33Z</time>
      </trkpt>
      <trkpt lat="45.93946" lon="4.79197">
        <ele>197</ele>
        <time>2017-12-20T09:45:35Z</time>
      </trkpt>
      <trkpt lat="45.93946" lon="4.79202">
        <ele>197</ele>
        <time>2017-12-20T09:45:36Z</time>
      </trkpt>
      <trkpt lat="45.93946" lon="4.79213">
        <ele>197</ele>
        <time>2017-12-20T09:45:38Z</time>
      </trkpt>
      <trkpt lat="45.93946" lon="4.79219">
        <ele>197</ele>
        <time>2017-12-20T09:45:39Z</time>
      </trkpt>
      <trkpt lat="45.93947" lon="4.79231">
        <ele>197</ele>
        <time>2017-12-20T09:45:41Z</time>
      </trkpt>
      <trkpt lat="45.93947" lon="4.79237">
        <ele>196</ele>
        <time>2017-12-20T09:45:42Z</time>
      </trkpt>
      <trkpt lat="45.93947" lon="4.79249">
        <ele>196</ele>
        <time>2017-12-20T09:45:44Z</time>
      </trkpt>
      <trkpt lat="45.93947" lon="4.79255">
        <ele>197</ele>
        <time>2017-12-20T09:45:45Z</time>
      </trkpt>
      <trkpt lat="45.93948" lon="4.79266">
        <ele>197</ele>
        <time>2017-12-20T09:45:47Z</time>
      </trkpt>
      <trkpt lat="45.93948" lon="4.79272">
        <ele>198</ele>
        <time>2017-12-20T09:45:48Z</time>
      </trkpt>
      <trkpt lat="45.93948" lon="4.79283">
        <ele>198</ele>
        <time>2017-12-20T09:45:50Z</time>
      </trkpt>
      <trkpt lat="45.93948" lon="4.79289">
        <ele>198</ele>
        <time>2017-12-20T09:45:51Z</time>
      </trkpt>
      <trkpt lat="45.93949" lon="4.79302">
        <ele>198</ele>
        <time>2017-12-20T09:45:53Z</time>
      </trkpt>
      <trkpt lat="45.93949" lon="4.79308">
        <ele>198</ele>
        <time>2017-12-20T09:45:54Z</time>
      </trkpt>
      <trkpt lat="45.93949" lon="4.79319">
        <ele>198</ele>
        <time>2017-12-20T09:45:56Z</time>
      </trkpt>
      <trkpt lat="45.9395" lon="4.79325">
        <ele>198</ele>
        <time>2017-12-20T09:45:57Z</time>
      </trkpt>
      <trkpt lat="45.9395" lon="4.79337">
        <ele>200</ele>
        <time>2017-12-20T09:45:59Z</time>
      </trkpt>
      <trkpt lat="45.9395" lon="4.79343">
        <ele>200</ele>
        <time>2017-12-20T09:46:00Z</time>
      </trkpt>
      <trkpt lat="45.93949" lon="4.79354">
        <ele>200</ele>
        <time>2017-12-20T09:46:02Z</time>
      </trkpt>
      <trkpt lat="45.93949" lon="4.79359">
        <ele>200</ele>
        <time>2017-12-20T09:46:03Z</time>
      </trkpt>
      <trkpt lat="45.93949" lon="4.79369">
        <ele>200</ele>
        <time>2017-12-20T09:46:05Z</time>
      </trkpt>
      <trkpt lat="45.93949" lon="4.79374">
        <ele>201</ele>
        <time>2017-12-20T09:46:06Z</time>
      </trkpt>
      <trkpt lat="45.93949" lon="4.79384">
        <ele>201</ele>
        <time>2017-12-20T09:46:08Z</time>
      </trkpt>
      <trkpt lat="45.93949" lon="4.7939">
        <ele>201</ele>
        <time>2017-12-20T09:46:09Z</time>
      </trkpt>
      <trkpt lat="45.93948" lon="4.794">
        <ele>201</ele>
        <time>2017-12-20T09:46:11Z</time>
      </trkpt>
      <trkpt lat="45.93948" lon="4.79406">
        <ele>201</ele>
        <time>2017-12-20T09:46:12Z</time>
      </trkpt>
      <trkpt lat="45.93948" lon="4.79415">
        <ele>200</ele>
        <time>2017-12-20T09:46:14Z</time>
      </trkpt>
      <trkpt lat="45.93948" lon="4.79419">
        <ele>202</ele>
        <time>2017-12-20T09:46:15Z</time>
      </trkpt>
      <trkpt lat="45.93947" lon="4.79429">
        <ele>202</ele>
        <time>2017-12-20T09:46:17Z</time>
      </trkpt>
      <trkpt lat="45.93947" lon="4.79434">
        <ele>202</ele>
        <time>2017-12-20T09:46:18Z</time>
      </trkpt>
      <trkpt lat="45.93947" lon="4.79445">
        <ele>202</ele>
        <time>2017-12-20T09:46:20Z</time>
      </trkpt>
      <trkpt lat="45.93947" lon="4.7945">
        <ele>202</ele>
        <time>2017-12-20T09:46:21Z</time>
      </trkpt>
      <trkpt lat="45.93947" lon="4.79462">
        <ele>202</ele>
        <time>2017-12-20T09:46:23Z</time>
      </trkpt>
      <trkpt lat="45.93948" lon="4.79468">
        <ele>202</ele>
        <time>2017-12-20T09:46:24Z</time>
      </trkpt>
      <trkpt lat="45.93948" lon="4.79479">
        <ele>202</ele>
        <time>2017-12-20T09:46:26Z</time>
      </trkpt>
      <trkpt lat="45.93949" lon="4.79485">
        <ele>202</ele>
        <time>2017-12-20T09:46:27Z</time>
      </trkpt>
      <trkpt lat="45.93949" lon="4.79496">
        <ele>202</ele>
        <time>2017-12-20T09:46:29Z</time>
      </trkpt>
      <trkpt lat="45.9395" lon="4.79502">
        <ele>203</ele>
        <time>2017-12-20T09:46:30Z</time>
      </trkpt>
      <trkpt lat="45.93951" lon="4.79513">
        <ele>204</ele>
        <time>2017-12-20T09:46:32Z</time>
      </trkpt>
      <trkpt lat="45.93951" lon="4.79518">
        <ele>204</ele>
        <time>2017-12-20T09:46:33Z</time>
      </trkpt>
      <trkpt lat="45.93952" lon="4.79529">
        <ele>204</ele>
        <time>2017-12-20T09:46:35Z</time>
      </trkpt>
      <trkpt lat="45.93953" lon="4.79534">
        <ele>204</ele>
        <time>2017-12-20T09:46:36Z</time>
      </trkpt>
      <trkpt lat="45.93953" lon="4.79544">
        <ele>205</ele>
        <time>2017-12-20T09:46:38Z</time>
      </trkpt>
      <trkpt lat="45.93953" lon="4.79548">
        <ele>205</ele>
        <time>2017-12-20T09:46:39Z</time>
      </trkpt>
      <trkpt lat="45.93954" lon="4.79559">
        <ele>205</ele>
        <time>2017-12-20T09:46:41Z</time>
      </trkpt>
      <trkpt lat="45.93954" lon="4.79564">
        <ele>205</ele>
        <time>2017-12-20T09:46:42Z</time>
      </trkpt>
      <trkpt lat="45.93955" lon="4.79574">
        <ele>205</ele>
        <time>2017-12-20T09:46:44Z</time>
      </trkpt>
      <trkpt lat="45.93955" lon="4.79578">
        <ele>205</ele>
        <time>2017-12-20T09:46:45Z</time>
      </trkpt>
      <trkpt lat="45.93955" lon="4.79589">
        <ele>206</ele>
        <time>2017-12-20T09:46:47Z</time>
      </trkpt>
      <trkpt lat="45.93956" lon="4.79594">
        <ele>206</ele>
        <time>2017-12-20T09:46:48Z</time>
      </trkpt>
      <trkpt lat="45.93956" lon="4.79605">
        <ele>207</ele>
        <time>2017-12-20T09:46:50Z</time>
      </trkpt>
      <trkpt lat="45.93957" lon="4.7961">
        <ele>207</ele>
        <time>2017-12-20T09:46:51Z</time>
      </trkpt>
      <trkpt lat="45.93958" lon="4.79621">
        <ele>207</ele>
        <time>2017-12-20T09:46:53Z</time>
      </trkpt>
      <trkpt lat="45.93958" lon="4.79626">
        <ele>207</ele>
        <time>2017-12-20T09:46:54Z</time>
      </trkpt>
      <trkpt lat="45.9396" lon="4.79635">
        <ele>207</ele>
        <time>2017-12-20T09:46:56Z</time>
      </trkpt>
      <trkpt lat="45.9396" lon="4.7964">
        <ele>207</ele>
        <time>2017-12-20T09:46:57Z</time>
      </trkpt>
      <trkpt lat="45.93961" lon="4.7965">
        <ele>207</ele>
        <time>2017-12-20T09:46:59Z</time>
      </trkpt>
      <trkpt lat="45.93962" lon="4.79655">
        <ele>207</ele>
        <time>2017-12-20T09:47:00Z</time>
      </trkpt>
      <trkpt lat="45.93962" lon="4.79667">
        <ele>207</ele>
        <time>2017-12-20T09:47:02Z</time>
      </trkpt>
      <trkpt lat="45.93963" lon="4.79673">
        <ele>207</ele>
        <time>2017-12-20T09:47:03Z</time>
      </trkpt>
      <trkpt lat="45.93964" lon="4.79684">
        <ele>207</ele>
        <time>2017-12-20T09:47:05Z</time>
      </trkpt>
      <trkpt lat="45.93965" lon="4.79689">
        <ele>207</ele>
        <time>2017-12-20T09:47:06Z</time>
      </trkpt>
      <trkpt lat="45.93965" lon="4.79699">
        <ele>207</ele>
        <time>2017-12-20T09:47:08Z</time>
      </trkpt>
      <trkpt lat="45.93965" lon="4.79704">
        <ele>207</ele>
        <time>2017-12-20T09:47:09Z</time>
      </trkpt>
      <trkpt lat="45.93966" lon="4.79715">
        <ele>206</ele>
        <time>2017-12-20T09:47:11Z</time>
      </trkpt>
      <trkpt lat="45.93966" lon="4.7972">
        <ele>206</ele>
        <time>2017-12-20T09:47:12Z</time>
      </trkpt>
      <trkpt lat="45.93967" lon="4.7973">
        <ele>206</ele>
        <time>2017-12-20T09:47:14Z</time>
      </trkpt>
      <trkpt lat="45.93968" lon="4.79736">
        <ele>206</ele>
        <time>2017-12-20T09:47:15Z</time>
      </trkpt>
      <trkpt lat="45.93968" lon="4.79748">
        <ele>206</ele>
        <time>2017-12-20T09:47:17Z</time>
      </trkpt>
      <trkpt lat="45.93969" lon="4.79753">
        <ele>206</ele>
        <time>2017-12-20T09:47:18Z</time>
      </trkpt>
      <trkpt lat="45.93969" lon="4.79765">
        <ele>206</ele>
        <time>2017-12-20T09:47:20Z</time>
      </trkpt>
      <trkpt lat="45.9397" lon="4.7977">
        <ele>206</ele>
        <time>2017-12-20T09:47:21Z</time>
      </trkpt>
      <trkpt lat="45.93969" lon="4.79781">
        <ele>206</ele>
        <time>2017-12-20T09:47:23Z</time>
      </trkpt>
      <trkpt lat="45.93968" lon="4.79786">
        <ele>206</ele>
        <time>2017-12-20T09:47:24Z</time>
      </trkpt>
      <trkpt lat="45.93967" lon="4.79797">
        <ele>206</ele>
        <time>2017-12-20T09:47:26Z</time>
      </trkpt>
      <trkpt lat="45.93967" lon="4.79803">
        <ele>206</ele>
        <time>2017-12-20T09:47:27Z</time>
      </trkpt>
      <trkpt lat="45.93966" lon="4.79815">
        <ele>206</ele>
        <time>2017-12-20T09:47:29Z</time>
      </trkpt>
      <trkpt lat="45.93965" lon="4.79822">
        <ele>206</ele>
        <time>2017-12-20T09:47:30Z</time>
      </trkpt>
      <trkpt lat="45.93963" lon="4.7983">
        <ele>206</ele>
        <time>2017-12-20T09:47:31Z</time>
      </trkpt>
      <trkpt lat="45.93962" lon="4.79838">
        <ele>206</ele>
        <time>2017-12-20T09:47:32Z</time>
      </trkpt>
      <trkpt lat="45.93961" lon="4.79844">
        <ele>206</ele>
        <time>2017-12-20T09:47:33Z</time>
      </trkpt>
      <trkpt lat="45.9396" lon="4.79851">
        <ele>206</ele>
        <time>2017-12-20T09:47:34Z</time>
      </trkpt>
      <trkpt lat="45.9396" lon="4.79857">
        <ele>206</ele>
        <time>2017-12-20T09:47:35Z</time>
      </trkpt>
      <trkpt lat="45.93958" lon="4.79863">
        <ele>206</ele>
        <time>2017-12-20T09:47:36Z</time>
      </trkpt>
      <trkpt lat="45.93958" lon="4.7987">
        <ele>206</ele>
        <time>2017-12-20T09:47:37Z</time>
      </trkpt>
      <trkpt lat="45.93956" lon="4.79877">
        <ele>206</ele>
        <time>2017-12-20T09:47:38Z</time>
      </trkpt>
      <trkpt lat="45.93954" lon="4.79889">
        <ele>205</ele>
        <time>2017-12-20T09:47:40Z</time>
      </trkpt>
      <trkpt lat="45.93953" lon="4.79896">
        <ele>205</ele>
        <time>2017-12-20T09:47:41Z</time>
      </trkpt>
      <trkpt lat="45.93953" lon="4.79902">
        <ele>205</ele>
        <time>2017-12-20T09:47:42Z</time>
      </trkpt>
      <trkpt lat="45.93951" lon="4.79909">
        <ele>205</ele>
        <time>2017-12-20T09:47:43Z</time>
      </trkpt>
      <trkpt lat="45.93949" lon="4.79916">
        <ele>205</ele>
        <time>2017-12-20T09:47:44Z</time>
      </trkpt>
      <trkpt lat="45.93948" lon="4.79922">
        <ele>205</ele>
        <time>2017-12-20T09:47:45Z</time>
      </trkpt>
      <trkpt lat="45.93945" lon="4.79927">
        <ele>205</ele>
        <time>2017-12-20T09:47:46Z</time>
      </trkpt>
      <trkpt lat="45.93944" lon="4.79933">
        <ele>205</ele>
        <time>2017-12-20T09:47:47Z</time>
      </trkpt>
      <trkpt lat="45.93943" lon="4.79945">
        <ele>205</ele>
        <time>2017-12-20T09:47:49Z</time>
      </trkpt>
      <trkpt lat="45.93942" lon="4.79952">
        <ele>205</ele>
        <time>2017-12-20T09:47:50Z</time>
      </trkpt>
      <trkpt lat="45.93941" lon="4.79964">
        <ele>205</ele>
        <time>2017-12-20T09:47:52Z</time>
      </trkpt>
      <trkpt lat="45.93941" lon="4.79972">
        <ele>205</ele>
        <time>2017-12-20T09:47:53Z</time>
      </trkpt>
      <trkpt lat="45.93939" lon="4.79984">
        <ele>204</ele>
        <time>2017-12-20T09:47:55Z</time>
      </trkpt>
      <trkpt lat="45.93938" lon="4.7999">
        <ele>204</ele>
        <time>2017-12-20T09:47:56Z</time>
      </trkpt>
      <trkpt lat="45.93936" lon="4.80002">
        <ele>205</ele>
        <time>2017-12-20T09:47:58Z</time>
      </trkpt>
      <trkpt lat="45.93935" lon="4.80009">
        <ele>205</ele>
        <time>2017-12-20T09:47:59Z</time>
      </trkpt>
      <trkpt lat="45.93933" lon="4.80021">
        <ele>206</ele>
        <time>2017-12-20T09:48:01Z</time>
      </trkpt>
      <trkpt lat="45.93933" lon="4.80026">
        <ele>206</ele>
        <time>2017-12-20T09:48:02Z</time>
      </trkpt>
      <trkpt lat="45.93931" lon="4.80038">
        <ele>207</ele>
        <time>2017-12-20T09:48:04Z</time>
      </trkpt>
      <trkpt lat="45.9393" lon="4.80044">
        <ele>207</ele>
        <time>2017-12-20T09:48:05Z</time>
      </trkpt>
      <trkpt lat="45.93929" lon="4.80056">
        <ele>207</ele>
        <time>2017-12-20T09:48:07Z</time>
      </trkpt>
      <trkpt lat="45.93929" lon="4.80062">
        <ele>207</ele>
        <time>2017-12-20T09:48:08Z</time>
      </trkpt>
      <trkpt lat="45.93931" lon="4.80075">
        <ele>207</ele>
        <time>2017-12-20T09:48:10Z</time>
      </trkpt>
      <trkpt lat="45.9393" lon="4.80082">
        <ele>206</ele>
        <time>2017-12-20T09:48:11Z</time>
      </trkpt>
      <trkpt lat="45.9393" lon="4.80089">
        <ele>207</ele>
        <time>2017-12-20T09:48:12Z</time>
      </trkpt>
      <trkpt lat="45.93931" lon="4.80095">
        <ele>207</ele>
        <time>2017-12-20T09:48:13Z</time>
      </trkpt>
      <trkpt lat="45.93931" lon="4.80102">
        <ele>208</ele>
        <time>2017-12-20T09:48:14Z</time>
      </trkpt>
      <trkpt lat="45.93932" lon="4.80108">
        <ele>208</ele>
        <time>2017-12-20T09:48:15Z</time>
      </trkpt>
      <trkpt lat="45.93933" lon="4.80119">
        <ele>208</ele>
        <time>2017-12-20T09:48:17Z</time>
      </trkpt>
      <trkpt lat="45.93935" lon="4.80125">
        <ele>208</ele>
        <time>2017-12-20T09:48:18Z</time>
      </trkpt>
      <trkpt lat="45.93936" lon="4.80136">
        <ele>208</ele>
        <time>2017-12-20T09:48:20Z</time>
      </trkpt>
      <trkpt lat="45.93937" lon="4.80143">
        <ele>208</ele>
        <time>2017-12-20T09:48:21Z</time>
      </trkpt>
      <trkpt lat="45.93939" lon="4.80154">
        <ele>208</ele>
        <time>2017-12-20T09:48:23Z</time>
      </trkpt>
      <trkpt lat="45.9394" lon="4.8016">
        <ele>208</ele>
        <time>2017-12-20T09:48:24Z</time>
      </trkpt>
      <trkpt lat="45.93941" lon="4.80167">
        <ele>208</ele>
        <time>2017-12-20T09:48:25Z</time>
      </trkpt>
      <trkpt lat="45.93942" lon="4.80173">
        <ele>205</ele>
        <time>2017-12-20T09:48:26Z</time>
      </trkpt>
      <trkpt lat="45.93944" lon="4.8018">
        <ele>205</ele>
        <time>2017-12-20T09:48:27Z</time>
      </trkpt>
      <trkpt lat="45.93946" lon="4.80186">
        <ele>205</ele>
        <time>2017-12-20T09:48:28Z</time>
      </trkpt>
      <trkpt lat="45.93948" lon="4.80193">
        <ele>205</ele>
        <time>2017-12-20T09:48:29Z</time>
      </trkpt>
      <trkpt lat="45.93949" lon="4.80199">
        <ele>205</ele>
        <time>2017-12-20T09:48:30Z</time>
      </trkpt>
      <trkpt lat="45.93952" lon="4.8021">
        <ele>205</ele>
        <time>2017-12-20T09:48:32Z</time>
      </trkpt>
      <trkpt lat="45.93953" lon="4.80216">
        <ele>205</ele>
        <time>2017-12-20T09:48:33Z</time>
      </trkpt>
      <trkpt lat="45.93955" lon="4.80222">
        <ele>205</ele>
        <time>2017-12-20T09:48:34Z</time>
      </trkpt>
      <trkpt lat="45.93957" lon="4.80228">
        <ele>204</ele>
        <time>2017-12-20T09:48:35Z</time>
      </trkpt>
      <trkpt lat="45.93959" lon="4.80235">
        <ele>204</ele>
        <time>2017-12-20T09:48:36Z</time>
      </trkpt>
      <trkpt lat="45.9396" lon="4.80241">
        <ele>204</ele>
        <time>2017-12-20T09:48:37Z</time>
      </trkpt>
      <trkpt lat="45.93962" lon="4.80247">
        <ele>204</ele>
        <time>2017-12-20T09:48:38Z</time>
      </trkpt>
      <trkpt lat="45.93964" lon="4.80253">
        <ele>202</ele>
        <time>2017-12-20T09:48:39Z</time>
      </trkpt>
      <trkpt lat="45.93966" lon="4.8026">
        <ele>202</ele>
        <time>2017-12-20T09:48:40Z</time>
      </trkpt>
      <trkpt lat="45.93968" lon="4.80267">
        <ele>202</ele>
        <time>2017-12-20T09:48:41Z</time>
      </trkpt>
      <trkpt lat="45.9397" lon="4.80273">
        <ele>202</ele>
        <time>2017-12-20T09:48:42Z</time>
      </trkpt>
      <trkpt lat="45.93972" lon="4.80278">
        <ele>202</ele>
        <time>2017-12-20T09:48:43Z</time>
      </trkpt>
      <trkpt lat="45.93973" lon="4.80291">
        <ele>203</ele>
        <time>2017-12-20T09:48:45Z</time>
      </trkpt>
      <trkpt lat="45.93975" lon="4.80297">
        <ele>203</ele>
        <time>2017-12-20T09:48:46Z</time>
      </trkpt>
      <trkpt lat="45.93977" lon="4.80303">
        <ele>203</ele>
        <time>2017-12-20T09:48:47Z</time>
      </trkpt>
      <trkpt lat="45.93979" lon="4.80308">
        <ele>203</ele>
        <time>2017-12-20T09:48:48Z</time>
      </trkpt>
      <trkpt lat="45.93982" lon="4.80318">
        <ele>203</ele>
        <time>2017-12-20T09:48:50Z</time>
      </trkpt>
      <trkpt lat="45.93983" lon="4.80323">
        <ele>204</ele>
        <time>2017-12-20T09:48:51Z</time>
      </trkpt>
      <trkpt lat="45.93987" lon="4.80334">
        <ele>206</ele>
        <time>2017-12-20T09:48:53Z</time>
      </trkpt>
      <trkpt lat="45.93988" lon="4.80338">
        <ele>206</ele>
        <time>2017-12-20T09:48:54Z</time>
      </trkpt>
      <trkpt lat="45.93991" lon="4.80347">
        <ele>206</ele>
        <time>2017-12-20T09:48:56Z</time>
      </trkpt>
      <trkpt lat="45.93993" lon="4.80351">
        <ele>206</ele>
        <time>2017-12-20T09:48:57Z</time>
      </trkpt>
      <trkpt lat="45.93995" lon="4.8036">
        <ele>207</ele>
        <time>2017-12-20T09:48:59Z</time>
      </trkpt>
      <trkpt lat="45.93996" lon="4.80364">
        <ele>207</ele>
        <time>2017-12-20T09:49:00Z</time>
      </trkpt>
      <trkpt lat="45.93999" lon="4.80372">
        <ele>207</ele>
        <time>2017-12-20T09:49:02Z</time>
      </trkpt>
      <trkpt lat="45.94" lon="4.80376">
        <ele>216</ele>
        <time>2017-12-20T09:49:03Z</time>
      </trkpt>
      <trkpt lat="45.94004" lon="4.80386">
        <ele>217</ele>
        <time>2017-12-20T09:49:06Z</time>
      </trkpt>
      <trkpt lat="45.94005" lon="4.8039">
        <ele>217</ele>
        <time>2017-12-20T09:49:07Z</time>
      </trkpt>
      <trkpt lat="45.94008" lon="4.804">
        <ele>217</ele>
        <time>2017-12-20T09:49:10Z</time>
      </trkpt>
      <trkpt lat="45.94009" lon="4.80404">
        <ele>217</ele>
        <time>2017-12-20T09:49:11Z</time>
      </trkpt>
      <trkpt lat="45.94012" lon="4.80416">
        <ele>217</ele>
        <time>2017-12-20T09:49:14Z</time>
      </trkpt>
      <trkpt lat="45.94013" lon="4.80419">
        <ele>220</ele>
        <time>2017-12-20T09:49:15Z</time>
      </trkpt>
      <trkpt lat="45.94013" lon="4.80429">
        <ele>221</ele>
        <time>2017-12-20T09:49:18Z</time>
      </trkpt>
      <trkpt lat="45.94014" lon="4.80433">
        <ele>221</ele>
        <time>2017-12-20T09:49:19Z</time>
      </trkpt>
      <trkpt lat="45.94015" lon="4.80442">
        <ele>222</ele>
        <time>2017-12-20T09:49:21Z</time>
      </trkpt>
      <trkpt lat="45.94016" lon="4.80447">
        <ele>223</ele>
        <time>2017-12-20T09:49:22Z</time>
      </trkpt>
      <trkpt lat="45.94017" lon="4.80456">
        <ele>223</ele>
        <time>2017-12-20T09:49:24Z</time>
      </trkpt>
      <trkpt lat="45.94016" lon="4.8046">
        <ele>223</ele>
        <time>2017-12-20T09:49:25Z</time>
      </trkpt>
      <trkpt lat="45.94016" lon="4.80469">
        <ele>223</ele>
        <time>2017-12-20T09:49:27Z</time>
      </trkpt>
      <trkpt lat="45.94016" lon="4.80473">
        <ele>223</ele>
        <time>2017-12-20T09:49:28Z</time>
      </trkpt>
      <trkpt lat="45.94015" lon="4.80485">
        <ele>222</ele>
        <time>2017-12-20T09:49:31Z</time>
      </trkpt>
      <trkpt lat="45.94015" lon="4.80488">
        <ele>222</ele>
        <time>2017-12-20T09:49:32Z</time>
      </trkpt>
      <trkpt lat="45.94016" lon="4.80498">
        <ele>222</ele>
        <time>2017-12-20T09:49:35Z</time>
      </trkpt>
      <trkpt lat="45.94016" lon="4.80502">
        <ele>222</ele>
        <time>2017-12-20T09:49:36Z</time>
      </trkpt>
      <trkpt lat="45.94015" lon="4.80511">
        <ele>223</ele>
        <time>2017-12-20T09:49:38Z</time>
      </trkpt>
      <trkpt lat="45.94014" lon="4.80515">
        <ele>223</ele>
        <time>2017-12-20T09:49:39Z</time>
      </trkpt>
      <trkpt lat="45.94015" lon="4.80524">
        <ele>224</ele>
        <time>2017-12-20T09:49:41Z</time>
      </trkpt>
      <trkpt lat="45.94016" lon="4.80528">
        <ele>224</ele>
        <time>2017-12-20T09:49:42Z</time>
      </trkpt>
      <trkpt lat="45.94016" lon="4.8054">
        <ele>224</ele>
        <time>2017-12-20T09:49:45Z</time>
      </trkpt>
      <trkpt lat="45.94017" lon="4.80545">
        <ele>224</ele>
        <time>2017-12-20T09:49:46Z</time>
      </trkpt>
      <trkpt lat="45.94017" lon="4.80554">
        <ele>224</ele>
        <time>2017-12-20T09:49:48Z</time>
      </trkpt>
      <trkpt lat="45.94017" lon="4.80558">
        <ele>224</ele>
        <time>2017-12-20T09:49:49Z</time>
      </trkpt>
      <trkpt lat="45.94018" lon="4.8057">
        <ele>223</ele>
        <time>2017-12-20T09:49:52Z</time>
      </trkpt>
      <trkpt lat="45.94019" lon="4.80574">
        <ele>223</ele>
        <time>2017-12-20T09:49:53Z</time>
      </trkpt>
      <trkpt lat="45.94019" lon="4.80583">
        <ele>223</ele>
        <time>2017-12-20T09:49:55Z</time>
      </trkpt>
      <trkpt lat="45.94019" lon="4.80587">
        <ele>223</ele>
        <time>2017-12-20T09:49:56Z</time>
      </trkpt>
      <trkpt lat="45.94017" lon="4.80599">
        <ele>223</ele>
        <time>2017-12-20T09:49:59Z</time>
      </trkpt>
      <trkpt lat="45.94017" lon="4.80603">
        <ele>223</ele>
        <time>2017-12-20T09:50:00Z</time>
      </trkpt>
      <trkpt lat="45.94018" lon="4.80615">
        <ele>224</ele>
        <time>2017-12-20T09:50:03Z</time>
      </trkpt>
      <trkpt lat="45.94019" lon="4.80619">
        <ele>224</ele>
        <time>2017-12-20T09:50:04Z</time>
      </trkpt>
      <trkpt lat="45.9402" lon="4.8063">
        <ele>224</ele>
        <time>2017-12-20T09:50:07Z</time>
      </trkpt>
      <trkpt lat="45.94021" lon="4.80634">
        <ele>224</ele>
        <time>2017-12-20T09:50:08Z</time>
      </trkpt>
      <trkpt lat="45.94023" lon="4.80646">
        <ele>224</ele>
        <time>2017-12-20T09:50:11Z</time>
      </trkpt>
      <trkpt lat="45.94023" lon="4.8065">
        <ele>224</ele>
        <time>2017-12-20T09:50:12Z</time>
      </trkpt>
      <trkpt lat="45.94025" lon="4.8066">
        <ele>223</ele>
        <time>2017-12-20T09:50:14Z</time>
      </trkpt>
      <trkpt lat="45.94025" lon="4.80664">
        <ele>223</ele>
        <time>2017-12-20T09:50:15Z</time>
      </trkpt>
      <trkpt lat="45.94027" lon="4.80676">
        <ele>224</ele>
        <time>2017-12-20T09:50:18Z</time>
      </trkpt>
      <trkpt lat="45.94027" lon="4.8068">
        <ele>224</ele>
        <time>2017-12-20T09:50:19Z</time>
      </trkpt>
      <trkpt lat="45.94029" lon="4.80691">
        <ele>225</ele>
        <time>2017-12-20T09:50:22Z</time>
      </trkpt>
      <trkpt lat="45.94029" lon="4.80695">
        <ele>225</ele>
        <time>2017-12-20T09:50:23Z</time>
      </trkpt>
      <trkpt lat="45.94031" lon="4.80703">
        <ele>225</ele>
        <time>2017-12-20T09:50:25Z</time>
      </trkpt>
      <trkpt lat="45.94032" lon="4.80708">
        <ele>226</ele>
        <time>2017-12-20T09:50:26Z</time>
      </trkpt>
      <trkpt lat="45.94034" lon="4.80716">
        <ele>226</ele>
        <time>2017-12-20T09:50:28Z</time>
      </trkpt>
      <trkpt lat="45.94034" lon="4.80721">
        <ele>226</ele>
        <time>2017-12-20T09:50:29Z</time>
      </trkpt>
      <trkpt lat="45.94036" lon="4.80729">
        <ele>226</ele>
        <time>2017-12-20T09:50:31Z</time>
      </trkpt>
      <trkpt lat="45.94037" lon="4.80734">
        <ele>226</ele>
        <time>2017-12-20T09:50:32Z</time>
      </trkpt>
      <trkpt lat="45.94039" lon="4.80745">
        <ele>226</ele>
        <time>2017-12-20T09:50:35Z</time>
      </trkpt>
      <trkpt lat="45.94039" lon="4.80749">
        <ele>227</ele>
        <time>2017-12-20T09:50:36Z</time>
      </trkpt>
      <trkpt lat="45.9404" lon="4.80761">
        <ele>228</ele>
        <time>2017-12-20T09:50:39Z</time>
      </trkpt>
      <trkpt lat="45.9404" lon="4.80765">
        <ele>228</ele>
        <time>2017-12-20T09:50:40Z</time>
      </trkpt>
      <trkpt lat="45.94041" lon="4.80777">
        <ele>228</ele>
        <time>2017-12-20T09:50:43Z</time>
      </trkpt>
      <trkpt lat="45.94041" lon="4.80781">
        <ele>228</ele>
        <time>2017-12-20T09:50:44Z</time>
      </trkpt>
      <trkpt lat="45.94042" lon="4.80793">
        <ele>228</ele>
        <time>2017-12-20T09:50:47Z</time>
      </trkpt>
      <trkpt lat="45.94042" lon="4.80796">
        <ele>228</ele>
        <time>2017-12-20T09:50:48Z</time>
      </trkpt>
      <trkpt lat="45.94043" lon="4.80809">
        <ele>228</ele>
        <time>2017-12-20T09:50:51Z</time>
      </trkpt>
      <trkpt lat="45.94044" lon="4.80813">
        <ele>228</ele>
        <time>2017-12-20T09:50:52Z</time>
      </trkpt>
      <trkpt lat="45.94045" lon="4.80824">
        <ele>229</ele>
        <time>2017-12-20T09:50:55Z</time>
      </trkpt>
      <trkpt lat="45.94046" lon="4.80828">
        <ele>229</ele>
        <time>2017-12-20T09:50:56Z</time>
      </trkpt>
      <trkpt lat="45.94047" lon="4.80841">
        <ele>230</ele>
        <time>2017-12-20T09:50:59Z</time>
      </trkpt>
      <trkpt lat="45.94048" lon="4.80844">
        <ele>230</ele>
        <time>2017-12-20T09:51:00Z</time>
      </trkpt>
      <trkpt lat="45.94049" lon="4.80857">
        <ele>230</ele>
        <time>2017-12-20T09:51:03Z</time>
      </trkpt>
      <trkpt lat="45.9405" lon="4.80861">
        <ele>230</ele>
        <time>2017-12-20T09:51:04Z</time>
      </trkpt>
      <trkpt lat="45.94052" lon="4.80872">
        <ele>230</ele>
        <time>2017-12-20T09:51:07Z</time>
      </trkpt>
      <trkpt lat="45.94052" lon="4.80876">
        <ele>230</ele>
        <time>2017-12-20T09:51:08Z</time>
      </trkpt>
      <trkpt lat="45.94054" lon="4.80887">
        <ele>230</ele>
        <time>2017-12-20T09:51:11Z</time>
      </trkpt>
      <trkpt lat="45.94054" lon="4.80891">
        <ele>230</ele>
        <time>2017-12-20T09:51:12Z</time>
      </trkpt>
      <trkpt lat="45.94056" lon="4.80903">
        <ele>231</ele>
        <time>2017-12-20T09:51:15Z</time>
      </trkpt>
      <trkpt lat="45.94057" lon="4.80906">
        <ele>231</ele>
        <time>2017-12-20T09:51:16Z</time>
      </trkpt>
      <trkpt lat="45.94057" lon="4.80918">
        <ele>232</ele>
        <time>2017-12-20T09:51:19Z</time>
      </trkpt>
      <trkpt lat="45.94058" lon="4.80922">
        <ele>232</ele>
        <time>2017-12-20T09:51:20Z</time>
      </trkpt>
      <trkpt lat="45.94059" lon="4.80933">
        <ele>232</ele>
        <time>2017-12-20T09:51:23Z</time>
      </trkpt>
      <trkpt lat="45.94059" lon="4.80937">
        <ele>232</ele>
        <time>2017-12-20T09:51:24Z</time>
      </trkpt>
      <trkpt lat="45.94061" lon="4.80948">
        <ele>232</ele>
        <time>2017-12-20T09:51:27Z</time>
      </trkpt>
      <trkpt lat="45.94062" lon="4.80951">
        <ele>232</ele>
        <time>2017-12-20T09:51:28Z</time>
      </trkpt>
      <trkpt lat="45.94064" lon="4.80963">
        <ele>232</ele>
        <time>2017-12-20T09:51:31Z</time>
      </trkpt>
      <trkpt lat="45.94064" lon="4.80966">
        <ele>232</ele>
        <time>2017-12-20T09:51:32Z</time>
      </trkpt>
      <trkpt lat="45.94066" lon="4.80977">
        <ele>233</ele>
        <time>2017-12-20T09:51:35Z</time>
      </trkpt>
      <trkpt lat="45.94067" lon="4.80981">
        <ele>233</ele>
        <time>2017-12-20T09:51:36Z</time>
      </trkpt>
      <trkpt lat="45.94068" lon="4.80991">
        <ele>235</ele>
        <time>2017-12-20T09:51:39Z</time>
      </trkpt>
      <trkpt lat="45.94068" lon="4.80995">
        <ele>235</ele>
        <time>2017-12-20T09:51:40Z</time>
      </trkpt>
      <trkpt lat="45.9407" lon="4.81006">
        <ele>236</ele>
        <time>2017-12-20T09:51:43Z</time>
      </trkpt>
      <trkpt lat="45.94071" lon="4.8101">
        <ele>235</ele>
        <time>2017-12-20T09:51:44Z</time>
      </trkpt>
      <trkpt lat="45.94074" lon="4.81022">
        <ele>234</ele>
        <time>2017-12-20T09:51:47Z</time>
      </trkpt>
      <trkpt lat="45.94074" lon="4.81026">
        <ele>234</ele>
        <time>2017-12-20T09:51:48Z</time>
      </trkpt>
      <trkpt lat="45.94077" lon="4.81038">
        <ele>233</ele>
        <time>2017-12-20T09:51:51Z</time>
      </trkpt>
      <trkpt lat="45.94078" lon="4.81042">
        <ele>233</ele>
        <time>2017-12-20T09:51:52Z</time>
      </trkpt>
      <trkpt lat="45.94081" lon="4.81049">
        <ele>233</ele>
        <time>2017-12-20T09:51:54Z</time>
      </trkpt>
      <trkpt lat="45.94082" lon="4.81053">
        <ele>234</ele>
        <time>2017-12-20T09:51:55Z</time>
      </trkpt>
      <trkpt lat="45.94087" lon="4.81064">
        <ele>242</ele>
        <time>2017-12-20T09:51:58Z</time>
      </trkpt>
      <trkpt lat="45.94088" lon="4.81067">
        <ele>241</ele>
        <time>2017-12-20T09:51:59Z</time>
      </trkpt>
      <trkpt lat="45.94093" lon="4.81076">
        <ele>241</ele>
        <time>2017-12-20T09:52:02Z</time>
      </trkpt>
      <trkpt lat="45.94094" lon="4.81079">
        <ele>241</ele>
        <time>2017-12-20T09:52:03Z</time>
      </trkpt>
      <trkpt lat="45.94098" lon="4.81087">
        <ele>240</ele>
        <time>2017-12-20T09:52:06Z</time>
      </trkpt>
      <trkpt lat="45.941" lon="4.8109">
        <ele>240</ele>
        <time>2017-12-20T09:52:07Z</time>
      </trkpt>
      <trkpt lat="45.94104" lon="4.81099">
        <ele>241</ele>
        <time>2017-12-20T09:52:10Z</time>
      </trkpt>
      <trkpt lat="45.94106" lon="4.81102">
        <ele>242</ele>
        <time>2017-12-20T09:52:11Z</time>
      </trkpt>
      <trkpt lat="45.94112" lon="4.8111">
        <ele>242</ele>
        <time>2017-12-20T09:52:14Z</time>
      </trkpt>
      <trkpt lat="45.94113" lon="4.81112">
        <ele>242</ele>
        <time>2017-12-20T09:52:15Z</time>
      </trkpt>
      <trkpt lat="45.94118" lon="4.81121">
        <ele>243</ele>
        <time>2017-12-20T09:52:18Z</time>
      </trkpt>
      <trkpt lat="45.94119" lon="4.81124">
        <ele>243</ele>
        <time>2017-12-20T09:52:19Z</time>
      </trkpt>
      <trkpt lat="45.94124" lon="4.81131">
        <ele>243</ele>
        <time>2017-12-20T09:52:22Z</time>
      </trkpt>
      <trkpt lat="45.94125" lon="4.81134">
        <ele>243</ele>
        <time>2017-12-20T09:52:23Z</time>
      </trkpt>
      <trkpt lat="45.9413" lon="4.81142">
        <ele>243</ele>
        <time>2017-12-20T09:52:26Z</time>
      </trkpt>
      <trkpt lat="45.94131" lon="4.81145">
        <ele>243</ele>
        <time>2017-12-20T09:52:27Z</time>
      </trkpt>
      <trkpt lat="45.94136" lon="4.81154">
        <ele>244</ele>
        <time>2017-12-20T09:52:30Z</time>
      </trkpt>
      <trkpt lat="45.94137" lon="4.81158">
        <ele>244</ele>
        <time>2017-12-20T09:52:31Z</time>
      </trkpt>
      <trkpt lat="45.9414" lon="4.81168">
        <ele>244</ele>
        <time>2017-12-20T09:52:34Z</time>
      </trkpt>
      <trkpt lat="45.94141" lon="4.81171">
        <ele>244</ele>
        <time>2017-12-20T09:52:35Z</time>
      </trkpt>
      <trkpt lat="45.94145" lon="4.8118">
        <ele>244</ele>
        <time>2017-12-20T09:52:38Z</time>
      </trkpt>
      <trkpt lat="45.94146" lon="4.81183">
        <ele>244</ele>
        <time>2017-12-20T09:52:39Z</time>
      </trkpt>
      <trkpt lat="45.94149" lon="4.81193">
        <ele>244</ele>
        <time>2017-12-20T09:52:42Z</time>
      </trkpt>
      <trkpt lat="45.9415" lon="4.81195">
        <ele>244</ele>
        <time>2017-12-20T09:52:43Z</time>
      </trkpt>
      <trkpt lat="45.94151" lon="4.81207">
        <ele>244</ele>
        <time>2017-12-20T09:52:47Z</time>
      </trkpt>
      <trkpt lat="45.94151" lon="4.81211">
        <ele>244</ele>
        <time>2017-12-20T09:52:48Z</time>
      </trkpt>
      <trkpt lat="45.94152" lon="4.81221">
        <ele>245</ele>
        <time>2017-12-20T09:52:51Z</time>
      </trkpt>
      <trkpt lat="45.94152" lon="4.81224">
        <ele>245</ele>
        <time>2017-12-20T09:52:52Z</time>
      </trkpt>
      <trkpt lat="45.94153" lon="4.81236">
        <ele>246</ele>
        <time>2017-12-20T09:52:56Z</time>
      </trkpt>
      <trkpt lat="45.94153" lon="4.81238">
        <ele>246</ele>
        <time>2017-12-20T09:52:57Z</time>
      </trkpt>
      <trkpt lat="45.94153" lon="4.81248">
        <ele>247</ele>
        <time>2017-12-20T09:53:01Z</time>
      </trkpt>
      <trkpt lat="45.94153" lon="4.81252">
        <ele>248</ele>
        <time>2017-12-20T09:53:02Z</time>
      </trkpt>
      <trkpt lat="45.94156" lon="4.81262">
        <ele>248</ele>
        <time>2017-12-20T09:53:05Z</time>
      </trkpt>
      <trkpt lat="45.94157" lon="4.81265">
        <ele>248</ele>
        <time>2017-12-20T09:53:06Z</time>
      </trkpt>
      <trkpt lat="45.94159" lon="4.81274">
        <ele>247</ele>
        <time>2017-12-20T09:53:09Z</time>
      </trkpt>
      <trkpt lat="45.9416" lon="4.81278">
        <ele>247</ele>
        <time>2017-12-20T09:53:10Z</time>
      </trkpt>
      <trkpt lat="45.94161" lon="4.81288">
        <ele>247</ele>
        <time>2017-12-20T09:53:13Z</time>
      </trkpt>
      <trkpt lat="45.94162" lon="4.81291">
        <ele>247</ele>
        <time>2017-12-20T09:53:14Z</time>
      </trkpt>
      <trkpt lat="45.94163" lon="4.813">
        <ele>247</ele>
        <time>2017-12-20T09:53:17Z</time>
      </trkpt>
      <trkpt lat="45.94163" lon="4.81304">
        <ele>248</ele>
        <time>2017-12-20T09:53:18Z</time>
      </trkpt>
      <trkpt lat="45.94162" lon="4.81314">
        <ele>248</ele>
        <time>2017-12-20T09:53:21Z</time>
      </trkpt>
      <trkpt lat="45.94162" lon="4.81317">
        <ele>249</ele>
        <time>2017-12-20T09:53:22Z</time>
      </trkpt>
      <trkpt lat="45.94162" lon="4.81326">
        <ele>250</ele>
        <time>2017-12-20T09:53:25Z</time>
      </trkpt>
      <trkpt lat="45.94162" lon="4.8133">
        <ele>250</ele>
        <time>2017-12-20T09:53:26Z</time>
      </trkpt>
      <trkpt lat="45.94162" lon="4.81341">
        <ele>251</ele>
        <time>2017-12-20T09:53:29Z</time>
      </trkpt>
      <trkpt lat="45.94162" lon="4.81344">
        <ele>251</ele>
        <time>2017-12-20T09:53:30Z</time>
      </trkpt>
      <trkpt lat="45.94161" lon="4.81354">
        <ele>251</ele>
        <time>2017-12-20T09:53:34Z</time>
      </trkpt>
      <trkpt lat="45.94161" lon="4.81358">
        <ele>251</ele>
        <time>2017-12-20T09:53:35Z</time>
      </trkpt>
      <trkpt lat="45.9416" lon="4.81369">
        <ele>251</ele>
        <time>2017-12-20T09:53:38Z</time>
      </trkpt>
      <trkpt lat="45.9416" lon="4.81373">
        <ele>251</ele>
        <time>2017-12-20T09:53:39Z</time>
      </trkpt>
      <trkpt lat="45.9416" lon="4.81384">
        <ele>251</ele>
        <time>2017-12-20T09:53:42Z</time>
      </trkpt>
      <trkpt lat="45.9416" lon="4.81387">
        <ele>251</ele>
        <time>2017-12-20T09:53:43Z</time>
      </trkpt>
      <trkpt lat="45.94158" lon="4.81398">
        <ele>252</ele>
        <time>2017-12-20T09:53:47Z</time>
      </trkpt>
      <trkpt lat="45.94158" lon="4.81401">
        <ele>253</ele>
        <time>2017-12-20T09:53:48Z</time>
      </trkpt>
      <trkpt lat="45.94157" lon="4.81412">
        <ele>254</ele>
        <time>2017-12-20T09:53:51Z</time>
      </trkpt>
      <trkpt lat="45.94157" lon="4.81415">
        <ele>254</ele>
        <time>2017-12-20T09:53:52Z</time>
      </trkpt>
      <trkpt lat="45.94155" lon="4.81426">
        <ele>256</ele>
        <time>2017-12-20T09:53:55Z</time>
      </trkpt>
      <trkpt lat="45.94155" lon="4.81429">
        <ele>256</ele>
        <time>2017-12-20T09:53:56Z</time>
      </trkpt>
      <trkpt lat="45.94154" lon="4.81439">
        <ele>256</ele>
        <time>2017-12-20T09:53:59Z</time>
      </trkpt>
      <trkpt lat="45.94154" lon="4.81443">
        <ele>256</ele>
        <time>2017-12-20T09:54:00Z</time>
      </trkpt>
      <trkpt lat="45.94153" lon="4.81454">
        <ele>257</ele>
        <time>2017-12-20T09:54:03Z</time>
      </trkpt>
      <trkpt lat="45.94152" lon="4.81456">
        <ele>257</ele>
        <time>2017-12-20T09:54:04Z</time>
      </trkpt>
      <trkpt lat="45.94148" lon="4.81466">
        <ele>257</ele>
        <time>2017-12-20T09:54:08Z</time>
      </trkpt>
      <trkpt lat="45.94148" lon="4.81471">
        <ele>258</ele>
        <time>2017-12-20T09:54:09Z</time>
      </trkpt>
      <trkpt lat="45.94149" lon="4.81482">
        <ele>259</ele>
        <time>2017-12-20T09:54:12Z</time>
      </trkpt>
      <trkpt lat="45.94149" lon="4.81485">
        <ele>259</ele>
        <time>2017-12-20T09:54:13Z</time>
      </trkpt>
      <trkpt lat="45.94149" lon="4.81498">
        <ele>260</ele>
        <time>2017-12-20T09:54:17Z</time>
      </trkpt>
      <trkpt lat="45.94148" lon="4.815">
        <ele>260</ele>
        <time>2017-12-20T09:54:18Z</time>
      </trkpt>
      <trkpt lat="45.94146" lon="4.81509">
        <ele>263</ele>
        <time>2017-12-20T09:54:21Z</time>
      </trkpt>
      <trkpt lat="45.94146" lon="4.81513">
        <ele>263</ele>
        <time>2017-12-20T09:54:22Z</time>
      </trkpt>
      <trkpt lat="45.94146" lon="4.81524">
        <ele>263</ele>
        <time>2017-12-20T09:54:25Z</time>
      </trkpt>
      <trkpt lat="45.94147" lon="4.81528">
        <ele>263</ele>
        <time>2017-12-20T09:54:26Z</time>
      </trkpt>
      <trkpt lat="45.94146" lon="4.81539">
        <ele>264</ele>
        <time>2017-12-20T09:54:29Z</time>
      </trkpt>
      <trkpt lat="45.94147" lon="4.81544">
        <ele>264</ele>
        <time>2017-12-20T09:54:30Z</time>
      </trkpt>
      <trkpt lat="45.94149" lon="4.81553">
        <ele>264</ele>
        <time>2017-12-20T09:54:32Z</time>
      </trkpt>
      <trkpt lat="45.94151" lon="4.81558">
        <ele>265</ele>
        <time>2017-12-20T09:54:33Z</time>
      </trkpt>
      <trkpt lat="45.94153" lon="4.81567">
        <ele>265</ele>
        <time>2017-12-20T09:54:35Z</time>
      </trkpt>
      <trkpt lat="45.94153" lon="4.81571">
        <ele>265</ele>
        <time>2017-12-20T09:54:36Z</time>
      </trkpt>
      <trkpt lat="45.94156" lon="4.81581">
        <ele>266</ele>
        <time>2017-12-20T09:54:38Z</time>
      </trkpt>
      <trkpt lat="45.94156" lon="4.81585">
        <ele>267</ele>
        <time>2017-12-20T09:54:39Z</time>
      </trkpt>
      <trkpt lat="45.94158" lon="4.81593">
        <ele>267</ele>
        <time>2017-12-20T09:54:41Z</time>
      </trkpt>
      <trkpt lat="45.94159" lon="4.81597">
        <ele>267</ele>
        <time>2017-12-20T09:54:42Z</time>
      </trkpt>
      <trkpt lat="45.94163" lon="4.81609">
        <ele>267</ele>
        <time>2017-12-20T09:54:45Z</time>
      </trkpt>
      <trkpt lat="45.94163" lon="4.81612">
        <ele>267</ele>
        <time>2017-12-20T09:54:46Z</time>
      </trkpt>
      <trkpt lat="45.94166" lon="4.81624">
        <ele>268</ele>
        <time>2017-12-20T09:54:49Z</time>
      </trkpt>
      <trkpt lat="45.94167" lon="4.81628">
        <ele>267</ele>
        <time>2017-12-20T09:54:50Z</time>
      </trkpt>
      <trkpt lat="45.94169" lon="4.8164">
        <ele>268</ele>
        <time>2017-12-20T09:54:53Z</time>
      </trkpt>
      <trkpt lat="45.9417" lon="4.81643">
        <ele>268</ele>
        <time>2017-12-20T09:54:54Z</time>
      </trkpt>
      <trkpt lat="45.94174" lon="4.81655">
        <ele>268</ele>
        <time>2017-12-20T09:54:57Z</time>
      </trkpt>
      <trkpt lat="45.94175" lon="4.81658">
        <ele>268</ele>
        <time>2017-12-20T09:54:58Z</time>
      </trkpt>
      <trkpt lat="45.94177" lon="4.81669">
        <ele>268</ele>
        <time>2017-12-20T09:55:01Z</time>
      </trkpt>
      <trkpt lat="45.94177" lon="4.81673">
        <ele>268</ele>
        <time>2017-12-20T09:55:02Z</time>
      </trkpt>
      <trkpt lat="45.94179" lon="4.81684">
        <ele>268</ele>
        <time>2017-12-20T09:55:05Z</time>
      </trkpt>
      <trkpt lat="45.94179" lon="4.81688">
        <ele>267</ele>
        <time>2017-12-20T09:55:06Z</time>
      </trkpt>
      <trkpt lat="45.94182" lon="4.817">
        <ele>267</ele>
        <time>2017-12-20T09:55:09Z</time>
      </trkpt>
      <trkpt lat="45.94183" lon="4.81703">
        <ele>267</ele>
        <time>2017-12-20T09:55:10Z</time>
      </trkpt>
      <trkpt lat="45.94185" lon="4.81714">
        <ele>267</ele>
        <time>2017-12-20T09:55:13Z</time>
      </trkpt>
      <trkpt lat="45.94185" lon="4.81718">
        <ele>267</ele>
        <time>2017-12-20T09:55:14Z</time>
      </trkpt>
      <trkpt lat="45.94185" lon="4.81728">
        <ele>267</ele>
        <time>2017-12-20T09:55:16Z</time>
      </trkpt>
      <trkpt lat="45.94185" lon="4.81732">
        <ele>267</ele>
        <time>2017-12-20T09:55:17Z</time>
      </trkpt>
      <trkpt lat="45.94186" lon="4.81742">
        <ele>267</ele>
        <time>2017-12-20T09:55:19Z</time>
      </trkpt>
      <trkpt lat="45.94187" lon="4.81746">
        <ele>267</ele>
        <time>2017-12-20T09:55:20Z</time>
      </trkpt>
      <trkpt lat="45.94191" lon="4.81754">
        <ele>266</ele>
        <time>2017-12-20T09:55:22Z</time>
      </trkpt>
      <trkpt lat="45.94193" lon="4.81757">
        <ele>266</ele>
        <time>2017-12-20T09:55:23Z</time>
      </trkpt>
      <trkpt lat="45.94197" lon="4.81765">
        <ele>266</ele>
        <time>2017-12-20T09:55:25Z</time>
      </trkpt>
      <trkpt lat="45.94198" lon="4.81769">
        <ele>266</ele>
        <time>2017-12-20T09:55:26Z</time>
      </trkpt>
      <trkpt lat="45.94199" lon="4.81781">
        <ele>266</ele>
        <time>2017-12-20T09:55:29Z</time>
      </trkpt>
      <trkpt lat="45.94199" lon="4.81786">
        <ele>266</ele>
        <time>2017-12-20T09:55:30Z</time>
      </trkpt>
      <trkpt lat="45.94199" lon="4.81795">
        <ele>266</ele>
        <time>2017-12-20T09:55:32Z</time>
      </trkpt>
      <trkpt lat="45.94199" lon="4.818">
        <ele>266</ele>
        <time>2017-12-20T09:55:33Z</time>
      </trkpt>
      <trkpt lat="45.942" lon="4.8181">
        <ele>266</ele>
        <time>2017-12-20T09:55:35Z</time>
      </trkpt>
      <trkpt lat="45.942" lon="4.81815">
        <ele>266</ele>
        <time>2017-12-20T09:55:36Z</time>
      </trkpt>
      <trkpt lat="45.94202" lon="4.81824">
        <ele>266</ele>
        <time>2017-12-20T09:55:38Z</time>
      </trkpt>
      <trkpt lat="45.94203" lon="4.81829">
        <ele>266</ele>
        <time>2017-12-20T09:55:39Z</time>
      </trkpt>
      <trkpt lat="45.94205" lon="4.81838">
        <ele>266</ele>
        <time>2017-12-20T09:55:41Z</time>
      </trkpt>
      <trkpt lat="45.94206" lon="4.81843">
        <ele>266</ele>
        <time>2017-12-20T09:55:42Z</time>
      </trkpt>
      <trkpt lat="45.94208" lon="4.81853">
        <ele>265</ele>
        <time>2017-12-20T09:55:44Z</time>
      </trkpt>
      <trkpt lat="45.94209" lon="4.81858">
        <ele>265</ele>
        <time>2017-12-20T09:55:45Z</time>
      </trkpt>
      <trkpt lat="45.94211" lon="4.81868">
        <ele>265</ele>
        <time>2017-12-20T09:55:47Z</time>
      </trkpt>
      <trkpt lat="45.94212" lon="4.81873">
        <ele>265</ele>
        <time>2017-12-20T09:55:48Z</time>
      </trkpt>
      <trkpt lat="45.94214" lon="4.81883">
        <ele>265</ele>
        <time>2017-12-20T09:55:50Z</time>
      </trkpt>
      <trkpt lat="45.94215" lon="4.81888">
        <ele>265</ele>
        <time>2017-12-20T09:55:51Z</time>
      </trkpt>
      <trkpt lat="45.94218" lon="4.819">
        <ele>265</ele>
        <time>2017-12-20T09:55:53Z</time>
      </trkpt>
      <trkpt lat="45.94219" lon="4.81906">
        <ele>265</ele>
        <time>2017-12-20T09:55:54Z</time>
      </trkpt>
      <trkpt lat="45.9422" lon="4.81912">
        <ele>264</ele>
        <time>2017-12-20T09:55:55Z</time>
      </trkpt>
      <trkpt lat="45.94222" lon="4.81918">
        <ele>264</ele>
        <time>2017-12-20T09:55:56Z</time>
      </trkpt>
      <trkpt lat="45.94224" lon="4.8193">
        <ele>264</ele>
        <time>2017-12-20T09:55:58Z</time>
      </trkpt>
      <trkpt lat="45.94225" lon="4.81936">
        <ele>264</ele>
        <time>2017-12-20T09:55:59Z</time>
      </trkpt>
      <trkpt lat="45.94226" lon="4.81948">
        <ele>264</ele>
        <time>2017-12-20T09:56:01Z</time>
      </trkpt>
      <trkpt lat="45.94227" lon="4.81953">
        <ele>264</ele>
        <time>2017-12-20T09:56:02Z</time>
      </trkpt>
      <trkpt lat="45.9423" lon="4.81963">
        <ele>264</ele>
        <time>2017-12-20T09:56:04Z</time>
      </trkpt>
      <trkpt lat="45.94231" lon="4.81968">
        <ele>264</ele>
        <time>2017-12-20T09:56:05Z</time>
      </trkpt>
      <trkpt lat="45.94233" lon="4.81979">
        <ele>263</ele>
        <time>2017-12-20T09:56:07Z</time>
      </trkpt>
      <trkpt lat="45.94234" lon="4.81985">
        <ele>263</ele>
        <time>2017-12-20T09:56:08Z</time>
      </trkpt>
      <trkpt lat="45.94236" lon="4.81998">
        <ele>263</ele>
        <time>2017-12-20T09:56:10Z</time>
      </trkpt>
      <trkpt lat="45.94237" lon="4.82004">
        <ele>263</ele>
        <time>2017-12-20T09:56:11Z</time>
      </trkpt>
      <trkpt lat="45.94239" lon="4.82014">
        <ele>263</ele>
        <time>2017-12-20T09:56:13Z</time>
      </trkpt>
      <trkpt lat="45.9424" lon="4.82019">
        <ele>263</ele>
        <time>2017-12-20T09:56:14Z</time>
      </trkpt>
      <trkpt lat="45.94242" lon="4.8203">
        <ele>263</ele>
        <time>2017-12-20T09:56:16Z</time>
      </trkpt>
      <trkpt lat="45.94243" lon="4.82035">
        <ele>263</ele>
        <time>2017-12-20T09:56:17Z</time>
      </trkpt>
      <trkpt lat="45.94241" lon="4.82045">
        <ele>263</ele>
        <time>2017-12-20T09:56:19Z</time>
      </trkpt>
      <trkpt lat="45.94243" lon="4.82053">
        <ele>263</ele>
        <time>2017-12-20T09:56:20Z</time>
      </trkpt>
      <trkpt lat="45.94244" lon="4.8206">
        <ele>263</ele>
        <time>2017-12-20T09:56:21Z</time>
      </trkpt>
      <trkpt lat="45.94247" lon="4.82066">
        <ele>263</ele>
        <time>2017-12-20T09:56:22Z</time>
      </trkpt>
      <trkpt lat="45.94248" lon="4.82072">
        <ele>263</ele>
        <time>2017-12-20T09:56:23Z</time>
      </trkpt>
      <trkpt lat="45.9425" lon="4.82079">
        <ele>262</ele>
        <time>2017-12-20T09:56:24Z</time>
      </trkpt>
      <trkpt lat="45.94253" lon="4.82091">
        <ele>262</ele>
        <time>2017-12-20T09:56:26Z</time>
      </trkpt>
      <trkpt lat="45.94254" lon="4.82095">
        <ele>262</ele>
        <time>2017-12-20T09:56:27Z</time>
      </trkpt>
      <trkpt lat="45.94256" lon="4.82104">
        <ele>262</ele>
        <time>2017-12-20T09:56:29Z</time>
      </trkpt>
      <trkpt lat="45.94257" lon="4.8211">
        <ele>263</ele>
        <time>2017-12-20T09:56:30Z</time>
      </trkpt>
      <trkpt lat="45.94259" lon="4.82116">
        <ele>263</ele>
        <time>2017-12-20T09:56:31Z</time>
      </trkpt>
      <trkpt lat="45.94261" lon="4.82122">
        <ele>263</ele>
        <time>2017-12-20T09:56:32Z</time>
      </trkpt>
      <trkpt lat="45.94263" lon="4.82133">
        <ele>263</ele>
        <time>2017-12-20T09:56:34Z</time>
      </trkpt>
      <trkpt lat="45.94264" lon="4.82138">
        <ele>263</ele>
        <time>2017-12-20T09:56:35Z</time>
      </trkpt>
      <trkpt lat="45.94266" lon="4.8215">
        <ele>263</ele>
        <time>2017-12-20T09:56:37Z</time>
      </trkpt>
      <trkpt lat="45.94268" lon="4.82156">
        <ele>263</ele>
        <time>2017-12-20T09:56:38Z</time>
      </trkpt>
      <trkpt lat="45.94269" lon="4.82163">
        <ele>263</ele>
        <time>2017-12-20T09:56:39Z</time>
      </trkpt>
      <trkpt lat="45.94269" lon="4.8217">
        <ele>263</ele>
        <time>2017-12-20T09:56:40Z</time>
      </trkpt>
      <trkpt lat="45.9427" lon="4.82176">
        <ele>264</ele>
        <time>2017-12-20T09:56:41Z</time>
      </trkpt>
      <trkpt lat="45.94271" lon="4.82184">
        <ele>264</ele>
        <time>2017-12-20T09:56:42Z</time>
      </trkpt>
      <trkpt lat="45.94273" lon="4.82196">
        <ele>264</ele>
        <time>2017-12-20T09:56:44Z</time>
      </trkpt>
      <trkpt lat="45.94273" lon="4.82201">
        <ele>264</ele>
        <time>2017-12-20T09:56:45Z</time>
      </trkpt>
      <trkpt lat="45.94275" lon="4.8221">
        <ele>264</ele>
        <time>2017-12-20T09:56:47Z</time>
      </trkpt>
      <trkpt lat="45.94276" lon="4.82215">
        <ele>264</ele>
        <time>2017-12-20T09:56:48Z</time>
      </trkpt>
      <trkpt lat="45.94278" lon="4.82227">
        <ele>264</ele>
        <time>2017-12-20T09:56:50Z</time>
      </trkpt>
      <trkpt lat="45.94278" lon="4.82233">
        <ele>264</ele>
        <time>2017-12-20T09:56:51Z</time>
      </trkpt>
      <trkpt lat="45.9428" lon="4.82245">
        <ele>264</ele>
        <time>2017-12-20T09:56:53Z</time>
      </trkpt>
      <trkpt lat="45.9428" lon="4.82251">
        <ele>265</ele>
        <time>2017-12-20T09:56:54Z</time>
      </trkpt>
      <trkpt lat="45.94281" lon="4.82264">
        <ele>265</ele>
        <time>2017-12-20T09:56:56Z</time>
      </trkpt>
      <trkpt lat="45.94281" lon="4.82269">
        <ele>265</ele>
        <time>2017-12-20T09:56:57Z</time>
      </trkpt>
      <trkpt lat="45.94281" lon="4.82281">
        <ele>265</ele>
        <time>2017-12-20T09:56:59Z</time>
      </trkpt>
      <trkpt lat="45.94281" lon="4.82287">
        <ele>265</ele>
        <time>2017-12-20T09:57:00Z</time>
      </trkpt>
      <trkpt lat="45.94281" lon="4.82299">
        <ele>265</ele>
        <time>2017-12-20T09:57:02Z</time>
      </trkpt>
      <trkpt lat="45.94281" lon="4.82305">
        <ele>265</ele>
        <time>2017-12-20T09:57:03Z</time>
      </trkpt>
      <trkpt lat="45.94283" lon="4.82317">
        <ele>265</ele>
        <time>2017-12-20T09:57:05Z</time>
      </trkpt>
      <trkpt lat="45.94283" lon="4.82323">
        <ele>265</ele>
        <time>2017-12-20T09:57:06Z</time>
      </trkpt>
      <trkpt lat="45.94284" lon="4.82335">
        <ele>264</ele>
        <time>2017-12-20T09:57:08Z</time>
      </trkpt>
      <trkpt lat="45.94284" lon="4.82341">
        <ele>264</ele>
        <time>2017-12-20T09:57:09Z</time>
      </trkpt>
      <trkpt lat="45.94284" lon="4.82351">
        <ele>264</ele>
        <time>2017-12-20T09:57:11Z</time>
      </trkpt>
      <trkpt lat="45.94285" lon="4.82357">
        <ele>264</ele>
        <time>2017-12-20T09:57:12Z</time>
      </trkpt>
      <trkpt lat="45.94285" lon="4.82368">
        <ele>264</ele>
        <time>2017-12-20T09:57:14Z</time>
      </trkpt>
      <trkpt lat="45.94285" lon="4.82374">
        <ele>264</ele>
        <time>2017-12-20T09:57:15Z</time>
      </trkpt>
      <trkpt lat="45.94286" lon="4.82385">
        <ele>264</ele>
        <time>2017-12-20T09:57:17Z</time>
      </trkpt>
      <trkpt lat="45.94286" lon="4.8239">
        <ele>264</ele>
        <time>2017-12-20T09:57:18Z</time>
      </trkpt>
      <trkpt lat="45.94287" lon="4.82401">
        <ele>264</ele>
        <time>2017-12-20T09:57:20Z</time>
      </trkpt>
      <trkpt lat="45.94287" lon="4.82406">
        <ele>264</ele>
        <time>2017-12-20T09:57:21Z</time>
      </trkpt>
      <trkpt lat="45.94288" lon="4.82417">
        <ele>264</ele>
        <time>2017-12-20T09:57:23Z</time>
      </trkpt>
      <trkpt lat="45.94288" lon="4.82422">
        <ele>264</ele>
        <time>2017-12-20T09:57:24Z</time>
      </trkpt>
      <trkpt lat="45.94288" lon="4.82433">
        <ele>264</ele>
        <time>2017-12-20T09:57:26Z</time>
      </trkpt>
      <trkpt lat="45.94288" lon="4.82438">
        <ele>264</ele>
        <time>2017-12-20T09:57:27Z</time>
      </trkpt>
      <trkpt lat="45.94288" lon="4.82449">
        <ele>264</ele>
        <time>2017-12-20T09:57:29Z</time>
      </trkpt>
      <trkpt lat="45.94288" lon="4.82455">
        <ele>264</ele>
        <time>2017-12-20T09:57:30Z</time>
      </trkpt>
      <trkpt lat="45.94289" lon="4.82467">
        <ele>264</ele>
        <time>2017-12-20T09:57:32Z</time>
      </trkpt>
      <trkpt lat="45.94289" lon="4.82472">
        <ele>264</ele>
        <time>2017-12-20T09:57:33Z</time>
      </trkpt>
      <trkpt lat="45.94289" lon="4.82484">
        <ele>264</ele>
        <time>2017-12-20T09:57:35Z</time>
      </trkpt>
      <trkpt lat="45.94289" lon="4.8249">
        <ele>264</ele>
        <time>2017-12-20T09:57:36Z</time>
      </trkpt>
      <trkpt lat="45.94289" lon="4.82502">
        <ele>264</ele>
        <time>2017-12-20T09:57:38Z</time>
      </trkpt>
      <trkpt lat="45.94289" lon="4.82508">
        <ele>264</ele>
        <time>2017-12-20T09:57:39Z</time>
      </trkpt>
      <trkpt lat="45.94289" lon="4.82518">
        <ele>264</ele>
        <time>2017-12-20T09:57:41Z</time>
      </trkpt>
      <trkpt lat="45.94289" lon="4.82523">
        <ele>264</ele>
        <time>2017-12-20T09:57:42Z</time>
      </trkpt>
      <trkpt lat="45.94289" lon="4.82534">
        <ele>264</ele>
        <time>2017-12-20T09:57:44Z</time>
      </trkpt>
      <trkpt lat="45.94289" lon="4.8254">
        <ele>264</ele>
        <time>2017-12-20T09:57:45Z</time>
      </trkpt>
      <trkpt lat="45.9429" lon="4.82552">
        <ele>264</ele>
        <time>2017-12-20T09:57:47Z</time>
      </trkpt>
      <trkpt lat="45.9429" lon="4.82558">
        <ele>264</ele>
        <time>2017-12-20T09:57:48Z</time>
      </trkpt>
      <trkpt lat="45.94289" lon="4.82564">
        <ele>264</ele>
        <time>2017-12-20T09:57:49Z</time>
      </trkpt>
      <trkpt lat="45.94289" lon="4.82571">
        <ele>265</ele>
        <time>2017-12-20T09:57:50Z</time>
      </trkpt>
      <trkpt lat="45.94288" lon="4.82583">
        <ele>265</ele>
        <time>2017-12-20T09:57:52Z</time>
      </trkpt>
      <trkpt lat="45.94289" lon="4.82589">
        <ele>265</ele>
        <time>2017-12-20T09:57:53Z</time>
      </trkpt>
      <trkpt lat="45.94289" lon="4.82599">
        <ele>265</ele>
        <time>2017-12-20T09:57:55Z</time>
      </trkpt>
      <trkpt lat="45.94289" lon="4.82603">
        <ele>265</ele>
        <time>2017-12-20T09:57:56Z</time>
      </trkpt>
      <trkpt lat="45.94289" lon="4.82615">
        <ele>265</ele>
        <time>2017-12-20T09:57:58Z</time>
      </trkpt>
      <trkpt lat="45.94289" lon="4.82621">
        <ele>265</ele>
        <time>2017-12-20T09:57:59Z</time>
      </trkpt>
      <trkpt lat="45.94289" lon="4.82634">
        <ele>265</ele>
        <time>2017-12-20T09:58:01Z</time>
      </trkpt>
      <trkpt lat="45.94289" lon="4.8264">
        <ele>265</ele>
        <time>2017-12-20T09:58:02Z</time>
      </trkpt>
      <trkpt lat="45.94289" lon="4.82652">
        <ele>265</ele>
        <time>2017-12-20T09:58:04Z</time>
      </trkpt>
      <trkpt lat="45.94289" lon="4.82657">
        <ele>265</ele>
        <time>2017-12-20T09:58:05Z</time>
      </trkpt>
      <trkpt lat="45.94289" lon="4.82669">
        <ele>265</ele>
        <time>2017-12-20T09:58:07Z</time>
      </trkpt>
      <trkpt lat="45.94289" lon="4.82674">
        <ele>265</ele>
        <time>2017-12-20T09:58:08Z</time>
      </trkpt>
      <trkpt lat="45.94289" lon="4.82686">
        <ele>265</ele>
        <time>2017-12-20T09:58:10Z</time>
      </trkpt>
      <trkpt lat="45.94289" lon="4.82693">
        <ele>265</ele>
        <time>2017-12-20T09:58:11Z</time>
      </trkpt>
      <trkpt lat="45.94289" lon="4.82699">
        <ele>265</ele>
        <time>2017-12-20T09:58:12Z</time>
      </trkpt>
      <trkpt lat="45.94289" lon="4.82706">
        <ele>265</ele>
        <time>2017-12-20T09:58:13Z</time>
      </trkpt>
      <trkpt lat="45.94289" lon="4.82718">
        <ele>265</ele>
        <time>2017-12-20T09:58:15Z</time>
      </trkpt>
      <trkpt lat="45.94289" lon="4.82724">
        <ele>265</ele>
        <time>2017-12-20T09:58:16Z</time>
      </trkpt>
      <trkpt lat="45.94288" lon="4.82735">
        <ele>265</ele>
        <time>2017-12-20T09:58:18Z</time>
      </trkpt>
      <trkpt lat="45.94288" lon="4.82741">
        <ele>265</ele>
        <time>2017-12-20T09:58:19Z</time>
      </trkpt>
      <trkpt lat="45.94288" lon="4.82752">
        <ele>265</ele>
        <time>2017-12-20T09:58:21Z</time>
      </trkpt>
      <trkpt lat="45.94287" lon="4.82758">
        <ele>265</ele>
        <time>2017-12-20T09:58:22Z</time>
      </trkpt>
      <trkpt lat="45.94287" lon="4.8277">
        <ele>265</ele>
        <time>2017-12-20T09:58:24Z</time>
      </trkpt>
      <trkpt lat="45.94287" lon="4.82776">
        <ele>265</ele>
        <time>2017-12-20T09:58:25Z</time>
      </trkpt>
      <trkpt lat="45.94287" lon="4.82788">
        <ele>265</ele>
        <time>2017-12-20T09:58:27Z</time>
      </trkpt>
      <trkpt lat="45.94287" lon="4.82794">
        <ele>265</ele>
        <time>2017-12-20T09:58:28Z</time>
      </trkpt>
      <trkpt lat="45.94287" lon="4.82807">
        <ele>265</ele>
        <time>2017-12-20T09:58:30Z</time>
      </trkpt>
      <trkpt lat="45.94287" lon="4.82813">
        <ele>265</ele>
        <time>2017-12-20T09:58:31Z</time>
      </trkpt>
      <trkpt lat="45.94287" lon="4.82821">
        <ele>265</ele>
        <time>2017-12-20T09:58:32Z</time>
      </trkpt>
      <trkpt lat="45.94287" lon="4.82827">
        <ele>265</ele>
        <time>2017-12-20T09:58:33Z</time>
      </trkpt>
      <trkpt lat="45.94287" lon="4.82834">
        <ele>265</ele>
        <time>2017-12-20T09:58:34Z</time>
      </trkpt>
      <trkpt lat="45.94287" lon="4.8284">
        <ele>265</ele>
        <time>2017-12-20T09:58:35Z</time>
      </trkpt>
      <trkpt lat="45.94286" lon="4.82851">
        <ele>265</ele>
        <time>2017-12-20T09:58:37Z</time>
      </trkpt>
      <trkpt lat="45.94286" lon="4.82857">
        <ele>265</ele>
        <time>2017-12-20T09:58:38Z</time>
      </trkpt>
      <trkpt lat="45.94286" lon="4.82869">
        <ele>265</ele>
        <time>2017-12-20T09:58:40Z</time>
      </trkpt>
      <trkpt lat="45.94286" lon="4.82875">
        <ele>265</ele>
        <time>2017-12-20T09:58:41Z</time>
      </trkpt>
      <trkpt lat="45.94285" lon="4.82888">
        <ele>265</ele>
        <time>2017-12-20T09:58:43Z</time>
      </trkpt>
      <trkpt lat="45.94284" lon="4.82894">
        <ele>265</ele>
        <time>2017-12-20T09:58:44Z</time>
      </trkpt>
      <trkpt lat="45.94283" lon="4.82906">
        <ele>265</ele>
        <time>2017-12-20T09:58:46Z</time>
      </trkpt>
      <trkpt lat="45.94282" lon="4.82911">
        <ele>265</ele>
        <time>2017-12-20T09:58:47Z</time>
      </trkpt>
      <trkpt lat="45.94281" lon="4.82923">
        <ele>265</ele>
        <time>2017-12-20T09:58:49Z</time>
      </trkpt>
      <trkpt lat="45.94279" lon="4.82929">
        <ele>265</ele>
        <time>2017-12-20T09:58:50Z</time>
      </trkpt>
      <trkpt lat="45.94278" lon="4.82936">
        <ele>265</ele>
        <time>2017-12-20T09:58:51Z</time>
      </trkpt>
      <trkpt lat="45.94276" lon="4.82942">
        <ele>265</ele>
        <time>2017-12-20T09:58:52Z</time>
      </trkpt>
      <trkpt lat="45.94274" lon="4.82948">
        <ele>265</ele>
        <time>2017-12-20T09:58:53Z</time>
      </trkpt>
      <trkpt lat="45.94272" lon="4.82955">
        <ele>265</ele>
        <time>2017-12-20T09:58:54Z</time>
      </trkpt>
      <trkpt lat="45.9427" lon="4.82961">
        <ele>265</ele>
        <time>2017-12-20T09:58:55Z</time>
      </trkpt>
      <trkpt lat="45.94268" lon="4.82968">
        <ele>265</ele>
        <time>2017-12-20T09:58:56Z</time>
      </trkpt>
      <trkpt lat="45.94263" lon="4.82978">
        <ele>265</ele>
        <time>2017-12-20T09:58:58Z</time>
      </trkpt>
      <trkpt lat="45.94261" lon="4.82983">
        <ele>266</ele>
        <time>2017-12-20T09:58:59Z</time>
      </trkpt>
      <trkpt lat="45.94258" lon="4.82988">
        <ele>266</ele>
        <time>2017-12-20T09:59:00Z</time>
      </trkpt>
      <trkpt lat="45.94254" lon="4.82992">
        <ele>266</ele>
        <time>2017-12-20T09:59:01Z</time>
      </trkpt>
      <trkpt lat="45.94249" lon="4.83002">
        <ele>266</ele>
        <time>2017-12-20T09:59:03Z</time>
      </trkpt>
      <trkpt lat="45.94245" lon="4.83007">
        <ele>266</ele>
        <time>2017-12-20T09:59:04Z</time>
      </trkpt>
      <trkpt lat="45.94242" lon="4.83013">
        <ele>266</ele>
        <time>2017-12-20T09:59:05Z</time>
      </trkpt>
      <trkpt lat="45.94238" lon="4.83018">
        <ele>266</ele>
        <time>2017-12-20T09:59:06Z</time>
      </trkpt>
      <trkpt lat="45.94234" lon="4.83025">
        <ele>266</ele>
        <time>2017-12-20T09:59:07Z</time>
      </trkpt>
      <trkpt lat="45.9423" lon="4.83029">
        <ele>266</ele>
        <time>2017-12-20T09:59:08Z</time>
      </trkpt>
      <trkpt lat="45.94227" lon="4.83034">
        <ele>266</ele>
        <time>2017-12-20T09:59:09Z</time>
      </trkpt>
      <trkpt lat="45.94223" lon="4.83039">
        <ele>266</ele>
        <time>2017-12-20T09:59:10Z</time>
      </trkpt>
      <trkpt lat="45.9422" lon="4.83045">
        <ele>266</ele>
        <time>2017-12-20T09:59:11Z</time>
      </trkpt>
      <trkpt lat="45.94215" lon="4.83049">
        <ele>266</ele>
        <time>2017-12-20T09:59:12Z</time>
      </trkpt>
      <trkpt lat="45.94211" lon="4.83055">
        <ele>266</ele>
        <time>2017-12-20T09:59:13Z</time>
      </trkpt>
      <trkpt lat="45.94206" lon="4.8306">
        <ele>265</ele>
        <time>2017-12-20T09:59:14Z</time>
      </trkpt>
      <trkpt lat="45.94203" lon="4.83065">
        <ele>265</ele>
        <time>2017-12-20T09:59:15Z</time>
      </trkpt>
      <trkpt lat="45.94199" lon="4.8307">
        <ele>265</ele>
        <time>2017-12-20T09:59:16Z</time>
      </trkpt>
      <trkpt lat="45.94195" lon="4.83074">
        <ele>265</ele>
        <time>2017-12-20T09:59:17Z</time>
      </trkpt>
      <trkpt lat="45.94192" lon="4.83079">
        <ele>265</ele>
        <time>2017-12-20T09:59:18Z</time>
      </trkpt>
      <trkpt lat="45.94189" lon="4.83084">
        <ele>265</ele>
        <time>2017-12-20T09:59:19Z</time>
      </trkpt>
      <trkpt lat="45.94185" lon="4.83089">
        <ele>265</ele>
        <time>2017-12-20T09:59:20Z</time>
      </trkpt>
      <trkpt lat="45.94182" lon="4.83095">
        <ele>265</ele>
        <time>2017-12-20T09:59:21Z</time>
      </trkpt>
      <trkpt lat="45.94177" lon="4.831">
        <ele>265</ele>
        <time>2017-12-20T09:59:22Z</time>
      </trkpt>
      <trkpt lat="45.94174" lon="4.83105">
        <ele>265</ele>
        <time>2017-12-20T09:59:23Z</time>
      </trkpt>
      <trkpt lat="45.94171" lon="4.83111">
        <ele>265</ele>
        <time>2017-12-20T09:59:24Z</time>
      </trkpt>
      <trkpt lat="45.94166" lon="4.83116">
        <ele>265</ele>
        <time>2017-12-20T09:59:25Z</time>
      </trkpt>
      <trkpt lat="45.94163" lon="4.83123">
        <ele>265</ele>
        <time>2017-12-20T09:59:26Z</time>
      </trkpt>
      <trkpt lat="45.94159" lon="4.83128">
        <ele>265</ele>
        <time>2017-12-20T09:59:27Z</time>
      </trkpt>
      <trkpt lat="45.94156" lon="4.83134">
        <ele>265</ele>
        <time>2017-12-20T09:59:28Z</time>
      </trkpt>
      <trkpt lat="45.94153" lon="4.83139">
        <ele>265</ele>
        <time>2017-12-20T09:59:29Z</time>
      </trkpt>
      <trkpt lat="45.94149" lon="4.83144">
        <ele>265</ele>
        <time>2017-12-20T09:59:30Z</time>
      </trkpt>
      <trkpt lat="45.94146" lon="4.83149">
        <ele>265</ele>
        <time>2017-12-20T09:59:31Z</time>
      </trkpt>
      <trkpt lat="45.94144" lon="4.83154">
        <ele>265</ele>
        <time>2017-12-20T09:59:32Z</time>
      </trkpt>
      <trkpt lat="45.94141" lon="4.83159">
        <ele>265</ele>
        <time>2017-12-20T09:59:33Z</time>
      </trkpt>
      <trkpt lat="45.94137" lon="4.83164">
        <ele>266</ele>
        <time>2017-12-20T09:59:34Z</time>
      </trkpt>
      <trkpt lat="45.94134" lon="4.8317">
        <ele>266</ele>
        <time>2017-12-20T09:59:35Z</time>
      </trkpt>
      <trkpt lat="45.94131" lon="4.83176">
        <ele>266</ele>
        <time>2017-12-20T09:59:36Z</time>
      </trkpt>
      <trkpt lat="45.94127" lon="4.83182">
        <ele>266</ele>
        <time>2017-12-20T09:59:37Z</time>
      </trkpt>
      <trkpt lat="45.94124" lon="4.83188">
        <ele>266</ele>
        <time>2017-12-20T09:59:38Z</time>
      </trkpt>
      <trkpt lat="45.9412" lon="4.83193">
        <ele>266</ele>
        <time>2017-12-20T09:59:39Z</time>
      </trkpt>
      <trkpt lat="45.94116" lon="4.83199">
        <ele>266</ele>
        <time>2017-12-20T09:59:40Z</time>
      </trkpt>
      <trkpt lat="45.94111" lon="4.83205">
        <ele>266</ele>
        <time>2017-12-20T09:59:41Z</time>
      </trkpt>
      <trkpt lat="45.94106" lon="4.83211">
        <ele>266</ele>
        <time>2017-12-20T09:59:42Z</time>
      </trkpt>
      <trkpt lat="45.94103" lon="4.83214">
        <ele>266</ele>
        <time>2017-12-20T09:59:43Z</time>
      </trkpt>
      <trkpt lat="45.941" lon="4.8322">
        <ele>266</ele>
        <time>2017-12-20T09:59:44Z</time>
      </trkpt>
      <trkpt lat="45.94096" lon="4.83225">
        <ele>266</ele>
        <time>2017-12-20T09:59:45Z</time>
      </trkpt>
      <trkpt lat="45.94092" lon="4.83231">
        <ele>266</ele>
        <time>2017-12-20T09:59:46Z</time>
      </trkpt>
      <trkpt lat="45.94089" lon="4.83237">
        <ele>266</ele>
        <time>2017-12-20T09:59:47Z</time>
      </trkpt>
      <trkpt lat="45.94085" lon="4.83243">
        <ele>266</ele>
        <time>2017-12-20T09:59:48Z</time>
      </trkpt>
      <trkpt lat="45.94082" lon="4.83248">
        <ele>266</ele>
        <time>2017-12-20T09:59:49Z</time>
      </trkpt>
      <trkpt lat="45.94078" lon="4.83254">
        <ele>266</ele>
        <time>2017-12-20T09:59:50Z</time>
      </trkpt>
      <trkpt lat="45.94074" lon="4.8326">
        <ele>266</ele>
        <time>2017-12-20T09:59:51Z</time>
      </trkpt>
      <trkpt lat="45.9407" lon="4.83266">
        <ele>266</ele>
        <time>2017-12-20T09:59:52Z</time>
      </trkpt>
      <trkpt lat="45.94066" lon="4.83272">
        <ele>266</ele>
        <time>2017-12-20T09:59:53Z</time>
      </trkpt>
      <trkpt lat="45.94062" lon="4.83278">
        <ele>266</ele>
        <time>2017-12-20T09:59:54Z</time>
      </trkpt>
      <trkpt lat="45.94059" lon="4.83284">
        <ele>266</ele>
        <time>2017-12-20T09:59:55Z</time>
      </trkpt>
      <trkpt lat="45.94055" lon="4.83289">
        <ele>266</ele>
        <time>2017-12-20T09:59:56Z</time>
      </trkpt>
      <trkpt lat="45.94051" lon="4.83294">
        <ele>266</ele>
        <time>2017-12-20T09:59:57Z</time>
      </trkpt>
      <trkpt lat="45.94047" lon="4.83299">
        <ele>266</ele>
        <time>2017-12-20T09:59:58Z</time>
      </trkpt>
      <trkpt lat="45.94043" lon="4.83305">
        <ele>266</ele>
        <time>2017-12-20T09:59:59Z</time>
      </trkpt>
      <trkpt lat="45.94039" lon="4.8331">
        <ele>266</ele>
        <time>2017-12-20T10:00:00Z</time>
      </trkpt>
      <trkpt lat="45.94036" lon="4.83313">
        <ele>266</ele>
        <time>2017-12-20T10:00:01Z</time>
      </trkpt>
      <trkpt lat="45.94033" lon="4.83319">
        <ele>266</ele>
        <time>2017-12-20T10:00:02Z</time>
      </trkpt>
      <trkpt lat="45.94029" lon="4.83325">
        <ele>266</ele>
        <time>2017-12-20T10:00:03Z</time>
      </trkpt>
      <trkpt lat="45.94026" lon="4.83332">
        <ele>266</ele>
        <time>2017-12-20T10:00:04Z</time>
      </trkpt>
      <trkpt lat="45.94022" lon="4.83338">
        <ele>266</ele>
        <time>2017-12-20T10:00:05Z</time>
      </trkpt>
      <trkpt lat="45.94018" lon="4.83344">
        <ele>266</ele>
        <time>2017-12-20T10:00:06Z</time>
      </trkpt>
      <trkpt lat="45.94014" lon="4.8335">
        <ele>266</ele>
        <time>2017-12-20T10:00:07Z</time>
      </trkpt>
      <trkpt lat="45.94011" lon="4.83356">
        <ele>266</ele>
        <time>2017-12-20T10:00:08Z</time>
      </trkpt>
      <trkpt lat="45.94007" lon="4.83361">
        <ele>266</ele>
        <time>2017-12-20T10:00:09Z</time>
      </trkpt>
      <trkpt lat="45.94003" lon="4.83365">
        <ele>266</ele>
        <time>2017-12-20T10:00:10Z</time>
      </trkpt>
      <trkpt lat="45.94" lon="4.8337">
        <ele>266</ele>
        <time>2017-12-20T10:00:11Z</time>
      </trkpt>
      <trkpt lat="45.93997" lon="4.83375">
        <ele>266</ele>
        <time>2017-12-20T10:00:12Z</time>
      </trkpt>
      <trkpt lat="45.93994" lon="4.83381">
        <ele>266</ele>
        <time>2017-12-20T10:00:13Z</time>
      </trkpt>
      <trkpt lat="45.93991" lon="4.83386">
        <ele>266</ele>
        <time>2017-12-20T10:00:14Z</time>
      </trkpt>
      <trkpt lat="45.93987" lon="4.83391">
        <ele>266</ele>
        <time>2017-12-20T10:00:15Z</time>
      </trkpt>
      <trkpt lat="45.93984" lon="4.83397">
        <ele>266</ele>
        <time>2017-12-20T10:00:16Z</time>
      </trkpt>
      <trkpt lat="45.9398" lon="4.83403">
        <ele>266</ele>
        <time>2017-12-20T10:00:17Z</time>
      </trkpt>
      <trkpt lat="45.93977" lon="4.83409">
        <ele>266</ele>
        <time>2017-12-20T10:00:18Z</time>
      </trkpt>
      <trkpt lat="45.93973" lon="4.83415">
        <ele>266</ele>
        <time>2017-12-20T10:00:19Z</time>
      </trkpt>
      <trkpt lat="45.93968" lon="4.83421">
        <ele>265</ele>
        <time>2017-12-20T10:00:20Z</time>
      </trkpt>
      <trkpt lat="45.93965" lon="4.83426">
        <ele>265</ele>
        <time>2017-12-20T10:00:21Z</time>
      </trkpt>
      <trkpt lat="45.93961" lon="4.83433">
        <ele>265</ele>
        <time>2017-12-20T10:00:22Z</time>
      </trkpt>
      <trkpt lat="45.93956" lon="4.83438">
        <ele>265</ele>
        <time>2017-12-20T10:00:23Z</time>
      </trkpt>
      <trkpt lat="45.93953" lon="4.83444">
        <ele>265</ele>
        <time>2017-12-20T10:00:24Z</time>
      </trkpt>
      <trkpt lat="45.93949" lon="4.8345">
        <ele>265</ele>
        <time>2017-12-20T10:00:25Z</time>
      </trkpt>
      <trkpt lat="45.93945" lon="4.83455">
        <ele>265</ele>
        <time>2017-12-20T10:00:26Z</time>
      </trkpt>
      <trkpt lat="45.93941" lon="4.83461">
        <ele>265</ele>
        <time>2017-12-20T10:00:27Z</time>
      </trkpt>
      <trkpt lat="45.93937" lon="4.83468">
        <ele>265</ele>
        <time>2017-12-20T10:00:28Z</time>
      </trkpt>
      <trkpt lat="45.93933" lon="4.83474">
        <ele>265</ele>
        <time>2017-12-20T10:00:29Z</time>
      </trkpt>
      <trkpt lat="45.93929" lon="4.83481">
        <ele>265</ele>
        <time>2017-12-20T10:00:30Z</time>
      </trkpt>
      <trkpt lat="45.93926" lon="4.83487">
        <ele>265</ele>
        <time>2017-12-20T10:00:31Z</time>
      </trkpt>
      <trkpt lat="45.93921" lon="4.83494">
        <ele>265</ele>
        <time>2017-12-20T10:00:32Z</time>
      </trkpt>
      <trkpt lat="45.93917" lon="4.835">
        <ele>265</ele>
        <time>2017-12-20T10:00:33Z</time>
      </trkpt>
      <trkpt lat="45.93913" lon="4.83504">
        <ele>265</ele>
        <time>2017-12-20T10:00:34Z</time>
      </trkpt>
      <trkpt lat="45.9391" lon="4.83509">
        <ele>265</ele>
        <time>2017-12-20T10:00:35Z</time>
      </trkpt>
      <trkpt lat="45.93906" lon="4.83515">
        <ele>265</ele>
        <time>2017-12-20T10:00:36Z</time>
      </trkpt>
      <trkpt lat="45.93903" lon="4.8352">
        <ele>265</ele>
        <time>2017-12-20T10:00:37Z</time>
      </trkpt>
      <trkpt lat="45.939" lon="4.83526">
        <ele>265</ele>
        <time>2017-12-20T10:00:38Z</time>
      </trkpt>
      <trkpt lat="45.93897" lon="4.8353">
        <ele>265</ele>
        <time>2017-12-20T10:00:39Z</time>
      </trkpt>
      <trkpt lat="45.93893" lon="4.83536">
        <ele>265</ele>
        <time>2017-12-20T10:00:40Z</time>
      </trkpt>
      <trkpt lat="45.9389" lon="4.83542">
        <ele>265</ele>
        <time>2017-12-20T10:00:41Z</time>
      </trkpt>
      <trkpt lat="45.93886" lon="4.83547">
        <ele>265</ele>
        <time>2017-12-20T10:00:42Z</time>
      </trkpt>
      <trkpt lat="45.93883" lon="4.83554">
        <ele>265</ele>
        <time>2017-12-20T10:00:43Z</time>
      </trkpt>
      <trkpt lat="45.93879" lon="4.83561">
        <ele>265</ele>
        <time>2017-12-20T10:00:44Z</time>
      </trkpt>
      <trkpt lat="45.93876" lon="4.83567">
        <ele>265</ele>
        <time>2017-12-20T10:00:45Z</time>
      </trkpt>
      <trkpt lat="45.93872" lon="4.83573">
        <ele>265</ele>
        <time>2017-12-20T10:00:46Z</time>
      </trkpt>
      <trkpt lat="45.93869" lon="4.83579">
        <ele>265</ele>
        <time>2017-12-20T10:00:47Z</time>
      </trkpt>
      <trkpt lat="45.93866" lon="4.83584">
        <ele>265</ele>
        <time>2017-12-20T10:00:48Z</time>
      </trkpt>
      <trkpt lat="45.93863" lon="4.8359">
        <ele>265</ele>
        <time>2017-12-20T10:00:49Z</time>
      </trkpt>
      <trkpt lat="45.9386" lon="4.83595">
        <ele>265</ele>
        <time>2017-12-20T10:00:50Z</time>
      </trkpt>
      <trkpt lat="45.93858" lon="4.83601">
        <ele>265</ele>
        <time>2017-12-20T10:00:51Z</time>
      </trkpt>
      <trkpt lat="45.93855" lon="4.83606">
        <ele>265</ele>
        <time>2017-12-20T10:00:52Z</time>
      </trkpt>
      <trkpt lat="45.93852" lon="4.83613">
        <ele>265</ele>
        <time>2017-12-20T10:00:53Z</time>
      </trkpt>
      <trkpt lat="45.93849" lon="4.83619">
        <ele>265</ele>
        <time>2017-12-20T10:00:54Z</time>
      </trkpt>
      <trkpt lat="45.93846" lon="4.83626">
        <ele>265</ele>
        <time>2017-12-20T10:00:55Z</time>
      </trkpt>
      <trkpt lat="45.93844" lon="4.83633">
        <ele>265</ele>
        <time>2017-12-20T10:00:56Z</time>
      </trkpt>
      <trkpt lat="45.93842" lon="4.8364">
        <ele>265</ele>
        <time>2017-12-20T10:00:57Z</time>
      </trkpt>
      <trkpt lat="45.93839" lon="4.83647">
        <ele>265</ele>
        <time>2017-12-20T10:00:58Z</time>
      </trkpt>
      <trkpt lat="45.93836" lon="4.83655">
        <ele>265</ele>
        <time>2017-12-20T10:00:59Z</time>
      </trkpt>
      <trkpt lat="45.93834" lon="4.83662">
        <ele>265</ele>
        <time>2017-12-20T10:01:00Z</time>
      </trkpt>
      <trkpt lat="45.9383" lon="4.83668">
        <ele>265</ele>
        <time>2017-12-20T10:01:01Z</time>
      </trkpt>
      <trkpt lat="45.93829" lon="4.83677">
        <ele>265</ele>
        <time>2017-12-20T10:01:02Z</time>
      </trkpt>
      <trkpt lat="45.93826" lon="4.83685">
        <ele>265</ele>
        <time>2017-12-20T10:01:03Z</time>
      </trkpt>
      <trkpt lat="45.93824" lon="4.83692">
        <ele>266</ele>
        <time>2017-12-20T10:01:04Z</time>
      </trkpt>
      <trkpt lat="45.93823" lon="4.83699">
        <ele>266</ele>
        <time>2017-12-20T10:01:05Z</time>
      </trkpt>
      <trkpt lat="45.9382" lon="4.83706">
        <ele>266</ele>
        <time>2017-12-20T10:01:06Z</time>
      </trkpt>
      <trkpt lat="45.93817" lon="4.83713">
        <ele>266</ele>
        <time>2017-12-20T10:01:07Z</time>
      </trkpt>
      <trkpt lat="45.93815" lon="4.8372">
        <ele>266</ele>
        <time>2017-12-20T10:01:08Z</time>
      </trkpt>
      <trkpt lat="45.93814" lon="4.83727">
        <ele>266</ele>
        <time>2017-12-20T10:01:09Z</time>
      </trkpt>
      <trkpt lat="45.93811" lon="4.83735">
        <ele>266</ele>
        <time>2017-12-20T10:01:10Z</time>
      </trkpt>
      <trkpt lat="45.9381" lon="4.83743">
        <ele>266</ele>
        <time>2017-12-20T10:01:11Z</time>
      </trkpt>
      <trkpt lat="45.93808" lon="4.8375">
        <ele>266</ele>
        <time>2017-12-20T10:01:12Z</time>
      </trkpt>
      <trkpt lat="45.93806" lon="4.83758">
        <ele>266</ele>
        <time>2017-12-20T10:01:13Z</time>
      </trkpt>
      <trkpt lat="45.93803" lon="4.83765">
        <ele>266</ele>
        <time>2017-12-20T10:01:14Z</time>
      </trkpt>
      <trkpt lat="45.93801" lon="4.83772">
        <ele>266</ele>
        <time>2017-12-20T10:01:15Z</time>
      </trkpt>
      <trkpt lat="45.938" lon="4.83779">
        <ele>266</ele>
        <time>2017-12-20T10:01:16Z</time>
      </trkpt>
      <trkpt lat="45.93798" lon="4.83785">
        <ele>266</ele>
        <time>2017-12-20T10:01:17Z</time>
      </trkpt>
      <trkpt lat="45.93796" lon="4.83792">
        <ele>266</ele>
        <time>2017-12-20T10:01:18Z</time>
      </trkpt>
      <trkpt lat="45.93795" lon="4.83799">
        <ele>266</ele>
        <time>2017-12-20T10:01:19Z</time>
      </trkpt>
      <trkpt lat="45.93793" lon="4.83805">
        <ele>266</ele>
        <time>2017-12-20T10:01:20Z</time>
      </trkpt>
      <trkpt lat="45.93792" lon="4.83812">
        <ele>266</ele>
        <time>2017-12-20T10:01:21Z</time>
      </trkpt>
      <trkpt lat="45.93791" lon="4.83819">
        <ele>266</ele>
        <time>2017-12-20T10:01:22Z</time>
      </trkpt>
      <trkpt lat="45.9379" lon="4.83826">
        <ele>266</ele>
        <time>2017-12-20T10:01:23Z</time>
      </trkpt>
      <trkpt lat="45.93788" lon="4.83833">
        <ele>266</ele>
        <time>2017-12-20T10:01:24Z</time>
      </trkpt>
      <trkpt lat="45.93786" lon="4.8384">
        <ele>266</ele>
        <time>2017-12-20T10:01:25Z</time>
      </trkpt>
      <trkpt lat="45.93784" lon="4.83847">
        <ele>266</ele>
        <time>2017-12-20T10:01:26Z</time>
      </trkpt>
      <trkpt lat="45.93782" lon="4.83854">
        <ele>266</ele>
        <time>2017-12-20T10:01:27Z</time>
      </trkpt>
      <trkpt lat="45.9378" lon="4.83861">
        <ele>266</ele>
        <time>2017-12-20T10:01:28Z</time>
      </trkpt>
      <trkpt lat="45.93779" lon="4.83869">
        <ele>266</ele>
        <time>2017-12-20T10:01:29Z</time>
      </trkpt>
      <trkpt lat="45.93777" lon="4.83875">
        <ele>266</ele>
        <time>2017-12-20T10:01:30Z</time>
      </trkpt>
      <trkpt lat="45.93775" lon="4.83883">
        <ele>266</ele>
        <time>2017-12-20T10:01:31Z</time>
      </trkpt>
      <trkpt lat="45.93774" lon="4.83891">
        <ele>266</ele>
        <time>2017-12-20T10:01:32Z</time>
      </trkpt>
      <trkpt lat="45.93773" lon="4.83898">
        <ele>266</ele>
        <time>2017-12-20T10:01:33Z</time>
      </trkpt>
      <trkpt lat="45.93771" lon="4.83906">
        <ele>266</ele>
        <time>2017-12-20T10:01:34Z</time>
      </trkpt>
      <trkpt lat="45.9377" lon="4.83913">
        <ele>266</ele>
        <time>2017-12-20T10:01:35Z</time>
      </trkpt>
      <trkpt lat="45.93769" lon="4.83919">
        <ele>267</ele>
        <time>2017-12-20T10:01:36Z</time>
      </trkpt>
      <trkpt lat="45.93769" lon="4.83925">
        <ele>267</ele>
        <time>2017-12-20T10:01:37Z</time>
      </trkpt>
      <trkpt lat="45.93768" lon="4.83932">
        <ele>267</ele>
        <time>2017-12-20T10:01:38Z</time>
      </trkpt>
      <trkpt lat="45.93767" lon="4.83938">
        <ele>267</ele>
        <time>2017-12-20T10:01:39Z</time>
      </trkpt>
      <trkpt lat="45.93766" lon="4.83945">
        <ele>267</ele>
        <time>2017-12-20T10:01:40Z</time>
      </trkpt>
      <trkpt lat="45.93765" lon="4.83951">
        <ele>268</ele>
        <time>2017-12-20T10:01:41Z</time>
      </trkpt>
      <trkpt lat="45.93764" lon="4.83958">
        <ele>268</ele>
        <time>2017-12-20T10:01:42Z</time>
      </trkpt>
      <trkpt lat="45.93764" lon="4.83965">
        <ele>268</ele>
        <time>2017-12-20T10:01:43Z</time>
      </trkpt>
      <trkpt lat="45.93762" lon="4.83973">
        <ele>268</ele>
        <time>2017-12-20T10:01:44Z</time>
      </trkpt>
      <trkpt lat="45.9376" lon="4.83985">
        <ele>268</ele>
        <time>2017-12-20T10:01:46Z</time>
      </trkpt>
      <trkpt lat="45.93758" lon="4.83992">
        <ele>269</ele>
        <time>2017-12-20T10:01:47Z</time>
      </trkpt>
      <trkpt lat="45.93757" lon="4.83998">
        <ele>269</ele>
        <time>2017-12-20T10:01:48Z</time>
      </trkpt>
      <trkpt lat="45.93756" lon="4.84005">
        <ele>269</ele>
        <time>2017-12-20T10:01:49Z</time>
      </trkpt>
      <trkpt lat="45.93756" lon="4.84012">
        <ele>269</ele>
        <time>2017-12-20T10:01:50Z</time>
      </trkpt>
      <trkpt lat="45.93755" lon="4.84019">
        <ele>269</ele>
        <time>2017-12-20T10:01:51Z</time>
      </trkpt>
      <trkpt lat="45.93754" lon="4.84031">
        <ele>269</ele>
        <time>2017-12-20T10:01:53Z</time>
      </trkpt>
      <trkpt lat="45.93752" lon="4.84037">
        <ele>269</ele>
        <time>2017-12-20T10:01:54Z</time>
      </trkpt>
      <trkpt lat="45.93751" lon="4.84049">
        <ele>270</ele>
        <time>2017-12-20T10:01:56Z</time>
      </trkpt>
      <trkpt lat="45.9375" lon="4.84055">
        <ele>270</ele>
        <time>2017-12-20T10:01:57Z</time>
      </trkpt>
      <trkpt lat="45.93749" lon="4.84067">
        <ele>270</ele>
        <time>2017-12-20T10:01:59Z</time>
      </trkpt>
      <trkpt lat="45.93748" lon="4.84074">
        <ele>270</ele>
        <time>2017-12-20T10:02:00Z</time>
      </trkpt>
      <trkpt lat="45.93747" lon="4.8408">
        <ele>270</ele>
        <time>2017-12-20T10:02:01Z</time>
      </trkpt>
      <trkpt lat="45.93747" lon="4.84087">
        <ele>270</ele>
        <time>2017-12-20T10:02:02Z</time>
      </trkpt>
      <trkpt lat="45.93747" lon="4.84095">
        <ele>270</ele>
        <time>2017-12-20T10:02:03Z</time>
      </trkpt>
      <trkpt lat="45.93746" lon="4.84102">
        <ele>270</ele>
        <time>2017-12-20T10:02:04Z</time>
      </trkpt>
      <trkpt lat="45.93746" lon="4.8411">
        <ele>270</ele>
        <time>2017-12-20T10:02:05Z</time>
      </trkpt>
      <trkpt lat="45.93745" lon="4.84117">
        <ele>270</ele>
        <time>2017-12-20T10:02:06Z</time>
      </trkpt>
      <trkpt lat="45.93745" lon="4.84125">
        <ele>270</ele>
        <time>2017-12-20T10:02:07Z</time>
      </trkpt>
      <trkpt lat="45.93745" lon="4.84132">
        <ele>270</ele>
        <time>2017-12-20T10:02:08Z</time>
      </trkpt>
      <trkpt lat="45.93744" lon="4.8414">
        <ele>270</ele>
        <time>2017-12-20T10:02:09Z</time>
      </trkpt>
      <trkpt lat="45.93744" lon="4.84148">
        <ele>270</ele>
        <time>2017-12-20T10:02:10Z</time>
      </trkpt>
      <trkpt lat="45.93744" lon="4.84157">
        <ele>270</ele>
        <time>2017-12-20T10:02:11Z</time>
      </trkpt>
      <trkpt lat="45.93745" lon="4.84165">
        <ele>270</ele>
        <time>2017-12-20T10:02:12Z</time>
      </trkpt>
      <trkpt lat="45.93746" lon="4.84172">
        <ele>270</ele>
        <time>2017-12-20T10:02:13Z</time>
      </trkpt>
      <trkpt lat="45.93746" lon="4.84179">
        <ele>270</ele>
        <time>2017-12-20T10:02:14Z</time>
      </trkpt>
      <trkpt lat="45.93746" lon="4.84186">
        <ele>270</ele>
        <time>2017-12-20T10:02:15Z</time>
      </trkpt>
      <trkpt lat="45.93747" lon="4.84193">
        <ele>270</ele>
        <time>2017-12-20T10:02:16Z</time>
      </trkpt>
      <trkpt lat="45.93747" lon="4.842">
        <ele>270</ele>
        <time>2017-12-20T10:02:17Z</time>
      </trkpt>
      <trkpt lat="45.93747" lon="4.84206">
        <ele>270</ele>
        <time>2017-12-20T10:02:18Z</time>
      </trkpt>
      <trkpt lat="45.93747" lon="4.84212">
        <ele>270</ele>
        <time>2017-12-20T10:02:19Z</time>
      </trkpt>
      <trkpt lat="45.93747" lon="4.84219">
        <ele>270</ele>
        <time>2017-12-20T10:02:20Z</time>
      </trkpt>
      <trkpt lat="45.93748" lon="4.84226">
        <ele>269</ele>
        <time>2017-12-20T10:02:21Z</time>
      </trkpt>
      <trkpt lat="45.93749" lon="4.84233">
        <ele>269</ele>
        <time>2017-12-20T10:02:22Z</time>
      </trkpt>
      <trkpt lat="45.93749" lon="4.84239">
        <ele>269</ele>
        <time>2017-12-20T10:02:23Z</time>
      </trkpt>
      <trkpt lat="45.9375" lon="4.84246">
        <ele>269</ele>
        <time>2017-12-20T10:02:24Z</time>
      </trkpt>
      <trkpt lat="45.93751" lon="4.84253">
        <ele>269</ele>
        <time>2017-12-20T10:02:25Z</time>
      </trkpt>
      <trkpt lat="45.93753" lon="4.8426">
        <ele>269</ele>
        <time>2017-12-20T10:02:26Z</time>
      </trkpt>
      <trkpt lat="45.93753" lon="4.84267">
        <ele>269</ele>
        <time>2017-12-20T10:02:27Z</time>
      </trkpt>
      <trkpt lat="45.93753" lon="4.84275">
        <ele>268</ele>
        <time>2017-12-20T10:02:28Z</time>
      </trkpt>
      <trkpt lat="45.93754" lon="4.84283">
        <ele>268</ele>
        <time>2017-12-20T10:02:29Z</time>
      </trkpt>
      <trkpt lat="45.93755" lon="4.84289">
        <ele>268</ele>
        <time>2017-12-20T10:02:30Z</time>
      </trkpt>
      <trkpt lat="45.93756" lon="4.84297">
        <ele>268</ele>
        <time>2017-12-20T10:02:31Z</time>
      </trkpt>
      <trkpt lat="45.93757" lon="4.84304">
        <ele>268</ele>
        <time>2017-12-20T10:02:32Z</time>
      </trkpt>
      <trkpt lat="45.93758" lon="4.84312">
        <ele>268</ele>
        <time>2017-12-20T10:02:33Z</time>
      </trkpt>
      <trkpt lat="45.93759" lon="4.84318">
        <ele>269</ele>
        <time>2017-12-20T10:02:34Z</time>
      </trkpt>
      <trkpt lat="45.93761" lon="4.84324">
        <ele>269</ele>
        <time>2017-12-20T10:02:35Z</time>
      </trkpt>
      <trkpt lat="45.93762" lon="4.8433">
        <ele>269</ele>
        <time>2017-12-20T10:02:36Z</time>
      </trkpt>
      <trkpt lat="45.93764" lon="4.84337">
        <ele>269</ele>
        <time>2017-12-20T10:02:37Z</time>
      </trkpt>
      <trkpt lat="45.93765" lon="4.84343">
        <ele>269</ele>
        <time>2017-12-20T10:02:38Z</time>
      </trkpt>
      <trkpt lat="45.93765" lon="4.84349">
        <ele>269</ele>
        <time>2017-12-20T10:02:39Z</time>
      </trkpt>
      <trkpt lat="45.93766" lon="4.84356">
        <ele>268</ele>
        <time>2017-12-20T10:02:40Z</time>
      </trkpt>
      <trkpt lat="45.93768" lon="4.84363">
        <ele>268</ele>
        <time>2017-12-20T10:02:41Z</time>
      </trkpt>
      <trkpt lat="45.93769" lon="4.8437">
        <ele>268</ele>
        <time>2017-12-20T10:02:42Z</time>
      </trkpt>
      <trkpt lat="45.9377" lon="4.84376">
        <ele>268</ele>
        <time>2017-12-20T10:02:43Z</time>
      </trkpt>
      <trkpt lat="45.9377" lon="4.84383">
        <ele>268</ele>
        <time>2017-12-20T10:02:44Z</time>
      </trkpt>
      <trkpt lat="45.93772" lon="4.8439">
        <ele>268</ele>
        <time>2017-12-20T10:02:45Z</time>
      </trkpt>
      <trkpt lat="45.93773" lon="4.84396">
        <ele>268</ele>
        <time>2017-12-20T10:02:46Z</time>
      </trkpt>
      <trkpt lat="45.93773" lon="4.84403">
        <ele>269</ele>
        <time>2017-12-20T10:02:47Z</time>
      </trkpt>
      <trkpt lat="45.93773" lon="4.8441">
        <ele>269</ele>
        <time>2017-12-20T10:02:48Z</time>
      </trkpt>
      <trkpt lat="45.93774" lon="4.84417">
        <ele>269</ele>
        <time>2017-12-20T10:02:49Z</time>
      </trkpt>
      <trkpt lat="45.93776" lon="4.84424">
        <ele>269</ele>
        <time>2017-12-20T10:02:50Z</time>
      </trkpt>
      <trkpt lat="45.93777" lon="4.8443">
        <ele>269</ele>
        <time>2017-12-20T10:02:51Z</time>
      </trkpt>
      <trkpt lat="45.93778" lon="4.84437">
        <ele>269</ele>
        <time>2017-12-20T10:02:52Z</time>
      </trkpt>
      <trkpt lat="45.93778" lon="4.84443">
        <ele>269</ele>
        <time>2017-12-20T10:02:53Z</time>
      </trkpt>
      <trkpt lat="45.9378" lon="4.8445">
        <ele>269</ele>
        <time>2017-12-20T10:02:54Z</time>
      </trkpt>
      <trkpt lat="45.9378" lon="4.84458">
        <ele>269</ele>
        <time>2017-12-20T10:02:55Z</time>
      </trkpt>
      <trkpt lat="45.93781" lon="4.84465">
        <ele>269</ele>
        <time>2017-12-20T10:02:56Z</time>
      </trkpt>
      <trkpt lat="45.93782" lon="4.84471">
        <ele>269</ele>
        <time>2017-12-20T10:02:57Z</time>
      </trkpt>
      <trkpt lat="45.93784" lon="4.84479">
        <ele>269</ele>
        <time>2017-12-20T10:02:58Z</time>
      </trkpt>
      <trkpt lat="45.93785" lon="4.84486">
        <ele>269</ele>
        <time>2017-12-20T10:02:59Z</time>
      </trkpt>
      <trkpt lat="45.93786" lon="4.84492">
        <ele>269</ele>
        <time>2017-12-20T10:03:00Z</time>
      </trkpt>
      <trkpt lat="45.93787" lon="4.84499">
        <ele>269</ele>
        <time>2017-12-20T10:03:01Z</time>
      </trkpt>
      <trkpt lat="45.93788" lon="4.84506">
        <ele>270</ele>
        <time>2017-12-20T10:03:02Z</time>
      </trkpt>
      <trkpt lat="45.93788" lon="4.84513">
        <ele>270</ele>
        <time>2017-12-20T10:03:03Z</time>
      </trkpt>
      <trkpt lat="45.93789" lon="4.8452">
        <ele>270</ele>
        <time>2017-12-20T10:03:04Z</time>
      </trkpt>
      <trkpt lat="45.93791" lon="4.84526">
        <ele>270</ele>
        <time>2017-12-20T10:03:05Z</time>
      </trkpt>
      <trkpt lat="45.93792" lon="4.84533">
        <ele>270</ele>
        <time>2017-12-20T10:03:06Z</time>
      </trkpt>
      <trkpt lat="45.93793" lon="4.8454">
        <ele>270</ele>
        <time>2017-12-20T10:03:07Z</time>
      </trkpt>
      <trkpt lat="45.93794" lon="4.84547">
        <ele>270</ele>
        <time>2017-12-20T10:03:08Z</time>
      </trkpt>
      <trkpt lat="45.93796" lon="4.84554">
        <ele>270</ele>
        <time>2017-12-20T10:03:09Z</time>
      </trkpt>
      <trkpt lat="45.93797" lon="4.84561">
        <ele>270</ele>
        <time>2017-12-20T10:03:10Z</time>
      </trkpt>
      <trkpt lat="45.93799" lon="4.84568">
        <ele>270</ele>
        <time>2017-12-20T10:03:11Z</time>
      </trkpt>
      <trkpt lat="45.938" lon="4.84574">
        <ele>270</ele>
        <time>2017-12-20T10:03:12Z</time>
      </trkpt>
      <trkpt lat="45.93801" lon="4.84581">
        <ele>270</ele>
        <time>2017-12-20T10:03:13Z</time>
      </trkpt>
      <trkpt lat="45.93802" lon="4.84587">
        <ele>271</ele>
        <time>2017-12-20T10:03:14Z</time>
      </trkpt>
      <trkpt lat="45.93803" lon="4.84594">
        <ele>271</ele>
        <time>2017-12-20T10:03:15Z</time>
      </trkpt>
      <trkpt lat="45.93804" lon="4.846">
        <ele>271</ele>
        <time>2017-12-20T10:03:16Z</time>
      </trkpt>
      <trkpt lat="45.93806" lon="4.84612">
        <ele>271</ele>
        <time>2017-12-20T10:03:18Z</time>
      </trkpt>
      <trkpt lat="45.93807" lon="4.84617">
        <ele>271</ele>
        <time>2017-12-20T10:03:19Z</time>
      </trkpt>
      <trkpt lat="45.93809" lon="4.84628">
        <ele>271</ele>
        <time>2017-12-20T10:03:21Z</time>
      </trkpt>
      <trkpt lat="45.93811" lon="4.84635">
        <ele>271</ele>
        <time>2017-12-20T10:03:22Z</time>
      </trkpt>
      <trkpt lat="45.93814" lon="4.84647">
        <ele>271</ele>
        <time>2017-12-20T10:03:24Z</time>
      </trkpt>
      <trkpt lat="45.93815" lon="4.84653">
        <ele>271</ele>
        <time>2017-12-20T10:03:25Z</time>
      </trkpt>
      <trkpt lat="45.93817" lon="4.84664">
        <ele>271</ele>
        <time>2017-12-20T10:03:27Z</time>
      </trkpt>
      <trkpt lat="45.93818" lon="4.84671">
        <ele>271</ele>
        <time>2017-12-20T10:03:28Z</time>
      </trkpt>
      <trkpt lat="45.93819" lon="4.84678">
        <ele>271</ele>
        <time>2017-12-20T10:03:29Z</time>
      </trkpt>
      <trkpt lat="45.9382" lon="4.84684">
        <ele>271</ele>
        <time>2017-12-20T10:03:30Z</time>
      </trkpt>
      <trkpt lat="45.93822" lon="4.84696">
        <ele>271</ele>
        <time>2017-12-20T10:03:32Z</time>
      </trkpt>
      <trkpt lat="45.93824" lon="4.84703">
        <ele>271</ele>
        <time>2017-12-20T10:03:33Z</time>
      </trkpt>
      <trkpt lat="45.93826" lon="4.84715">
        <ele>271</ele>
        <time>2017-12-20T10:03:35Z</time>
      </trkpt>
      <trkpt lat="45.93827" lon="4.8472">
        <ele>271</ele>
        <time>2017-12-20T10:03:36Z</time>
      </trkpt>
      <trkpt lat="45.93829" lon="4.84731">
        <ele>271</ele>
        <time>2017-12-20T10:03:38Z</time>
      </trkpt>
      <trkpt lat="45.9383" lon="4.84737">
        <ele>271</ele>
        <time>2017-12-20T10:03:39Z</time>
      </trkpt>
      <trkpt lat="45.93831" lon="4.84747">
        <ele>271</ele>
        <time>2017-12-20T10:03:41Z</time>
      </trkpt>
      <trkpt lat="45.93832" lon="4.84753">
        <ele>271</ele>
        <time>2017-12-20T10:03:42Z</time>
      </trkpt>
      <trkpt lat="45.93834" lon="4.84763">
        <ele>271</ele>
        <time>2017-12-20T10:03:44Z</time>
      </trkpt>
      <trkpt lat="45.93835" lon="4.84769">
        <ele>271</ele>
        <time>2017-12-20T10:03:45Z</time>
      </trkpt>
      <trkpt lat="45.93837" lon="4.84779">
        <ele>270</ele>
        <time>2017-12-20T10:03:47Z</time>
      </trkpt>
      <trkpt lat="45.93837" lon="4.84785">
        <ele>270</ele>
        <time>2017-12-20T10:03:48Z</time>
      </trkpt>
      <trkpt lat="45.93839" lon="4.84796">
        <ele>270</ele>
        <time>2017-12-20T10:03:50Z</time>
      </trkpt>
      <trkpt lat="45.9384" lon="4.84802">
        <ele>270</ele>
        <time>2017-12-20T10:03:51Z</time>
      </trkpt>
      <trkpt lat="45.93842" lon="4.84815">
        <ele>270</ele>
        <time>2017-12-20T10:03:53Z</time>
      </trkpt>
      <trkpt lat="45.93843" lon="4.84821">
        <ele>271</ele>
        <time>2017-12-20T10:03:54Z</time>
      </trkpt>
      <trkpt lat="45.93845" lon="4.84833">
        <ele>271</ele>
        <time>2017-12-20T10:03:56Z</time>
      </trkpt>
      <trkpt lat="45.93845" lon="4.84839">
        <ele>271</ele>
        <time>2017-12-20T10:03:57Z</time>
      </trkpt>
      <trkpt lat="45.93846" lon="4.84846">
        <ele>271</ele>
        <time>2017-12-20T10:03:58Z</time>
      </trkpt>
      <trkpt lat="45.93847" lon="4.84853">
        <ele>271</ele>
        <time>2017-12-20T10:03:59Z</time>
      </trkpt>
      <trkpt lat="45.93849" lon="4.84863">
        <ele>270</ele>
        <time>2017-12-20T10:04:01Z</time>
      </trkpt>
      <trkpt lat="45.93849" lon="4.84869">
        <ele>270</ele>
        <time>2017-12-20T10:04:02Z</time>
      </trkpt>
      <trkpt lat="45.9385" lon="4.8488">
        <ele>270</ele>
        <time>2017-12-20T10:04:04Z</time>
      </trkpt>
      <trkpt lat="45.9385" lon="4.84886">
        <ele>270</ele>
        <time>2017-12-20T10:04:05Z</time>
      </trkpt>
      <trkpt lat="45.93852" lon="4.84898">
        <ele>271</ele>
        <time>2017-12-20T10:04:07Z</time>
      </trkpt>
      <trkpt lat="45.93852" lon="4.84905">
        <ele>271</ele>
        <time>2017-12-20T10:04:08Z</time>
      </trkpt>
      <trkpt lat="45.93852" lon="4.84911">
        <ele>271</ele>
        <time>2017-12-20T10:04:09Z</time>
      </trkpt>
      <trkpt lat="45.93852" lon="4.84919">
        <ele>271</ele>
        <time>2017-12-20T10:04:10Z</time>
      </trkpt>
      <trkpt lat="45.93853" lon="4.84931">
        <ele>271</ele>
        <time>2017-12-20T10:04:12Z</time>
      </trkpt>
      <trkpt lat="45.93853" lon="4.84936">
        <ele>271</ele>
        <time>2017-12-20T10:04:13Z</time>
      </trkpt>
      <trkpt lat="45.93853" lon="4.84947">
        <ele>271</ele>
        <time>2017-12-20T10:04:15Z</time>
      </trkpt>
      <trkpt lat="45.93854" lon="4.84955">
        <ele>272</ele>
        <time>2017-12-20T10:04:16Z</time>
      </trkpt>
      <trkpt lat="45.93854" lon="4.84961">
        <ele>272</ele>
        <time>2017-12-20T10:04:17Z</time>
      </trkpt>
      <trkpt lat="45.93854" lon="4.84968">
        <ele>272</ele>
        <time>2017-12-20T10:04:18Z</time>
      </trkpt>
      <trkpt lat="45.93854" lon="4.84974">
        <ele>272</ele>
        <time>2017-12-20T10:04:19Z</time>
      </trkpt>
      <trkpt lat="45.93855" lon="4.84982">
        <ele>272</ele>
        <time>2017-12-20T10:04:20Z</time>
      </trkpt>
      <trkpt lat="45.93855" lon="4.84989">
        <ele>272</ele>
        <time>2017-12-20T10:04:21Z</time>
      </trkpt>
      <trkpt lat="45.93856" lon="4.84996">
        <ele>272</ele>
        <time>2017-12-20T10:04:22Z</time>
      </trkpt>
      <trkpt lat="45.93855" lon="4.85003">
        <ele>273</ele>
        <time>2017-12-20T10:04:23Z</time>
      </trkpt>
      <trkpt lat="45.93856" lon="4.8501">
        <ele>273</ele>
        <time>2017-12-20T10:04:24Z</time>
      </trkpt>
      <trkpt lat="45.93856" lon="4.85017">
        <ele>273</ele>
        <time>2017-12-20T10:04:25Z</time>
      </trkpt>
      <trkpt lat="45.93855" lon="4.85023">
        <ele>273</ele>
        <time>2017-12-20T10:04:26Z</time>
      </trkpt>
      <trkpt lat="45.93855" lon="4.85036">
        <ele>273</ele>
        <time>2017-12-20T10:04:28Z</time>
      </trkpt>
      <trkpt lat="45.93855" lon="4.85042">
        <ele>273</ele>
        <time>2017-12-20T10:04:29Z</time>
      </trkpt>
      <trkpt lat="45.93856" lon="4.85054">
        <ele>273</ele>
        <time>2017-12-20T10:04:31Z</time>
      </trkpt>
      <trkpt lat="45.93857" lon="4.8506">
        <ele>273</ele>
        <time>2017-12-20T10:04:32Z</time>
      </trkpt>
      <trkpt lat="45.93859" lon="4.85072">
        <ele>273</ele>
        <time>2017-12-20T10:04:34Z</time>
      </trkpt>
      <trkpt lat="45.93859" lon="4.85079">
        <ele>273</ele>
        <time>2017-12-20T10:04:35Z</time>
      </trkpt>
      <trkpt lat="45.93859" lon="4.85091">
        <ele>274</ele>
        <time>2017-12-20T10:04:37Z</time>
      </trkpt>
      <trkpt lat="45.9386" lon="4.85097">
        <ele>274</ele>
        <time>2017-12-20T10:04:38Z</time>
      </trkpt>
      <trkpt lat="45.93861" lon="4.85103">
        <ele>274</ele>
        <time>2017-12-20T10:04:39Z</time>
      </trkpt>
      <trkpt lat="45.93863" lon="4.85109">
        <ele>274</ele>
        <time>2017-12-20T10:04:40Z</time>
      </trkpt>
      <trkpt lat="45.93864" lon="4.85122">
        <ele>274</ele>
        <time>2017-12-20T10:04:42Z</time>
      </trkpt>
      <trkpt lat="45.93865" lon="4.85128">
        <ele>274</ele>
        <time>2017-12-20T10:04:43Z</time>
      </trkpt>
      <trkpt lat="45.93866" lon="4.85139">
        <ele>274</ele>
        <time>2017-12-20T10:04:45Z</time>
      </trkpt>
      <trkpt lat="45.93866" lon="4.85145">
        <ele>275</ele>
        <time>2017-12-20T10:04:46Z</time>
      </trkpt>
      <trkpt lat="45.93867" lon="4.85158">
        <ele>275</ele>
        <time>2017-12-20T10:04:48Z</time>
      </trkpt>
      <trkpt lat="45.93867" lon="4.85163">
        <ele>275</ele>
        <time>2017-12-20T10:04:49Z</time>
      </trkpt>
      <trkpt lat="45.93868" lon="4.85175">
        <ele>276</ele>
        <time>2017-12-20T10:04:51Z</time>
      </trkpt>
      <trkpt lat="45.93869" lon="4.85181">
        <ele>276</ele>
        <time>2017-12-20T10:04:52Z</time>
      </trkpt>
      <trkpt lat="45.93869" lon="4.85193">
        <ele>276</ele>
        <time>2017-12-20T10:04:54Z</time>
      </trkpt>
      <trkpt lat="45.93869" lon="4.85199">
        <ele>276</ele>
        <time>2017-12-20T10:04:55Z</time>
      </trkpt>
      <trkpt lat="45.93869" lon="4.85209">
        <ele>276</ele>
        <time>2017-12-20T10:04:57Z</time>
      </trkpt>
      <trkpt lat="45.9387" lon="4.85215">
        <ele>276</ele>
        <time>2017-12-20T10:04:58Z</time>
      </trkpt>
      <trkpt lat="45.93871" lon="4.85226">
        <ele>276</ele>
        <time>2017-12-20T10:05:00Z</time>
      </trkpt>
      <trkpt lat="45.93871" lon="4.85231">
        <ele>276</ele>
        <time>2017-12-20T10:05:01Z</time>
      </trkpt>
      <trkpt lat="45.93872" lon="4.85243">
        <ele>276</ele>
        <time>2017-12-20T10:05:03Z</time>
      </trkpt>
      <trkpt lat="45.93872" lon="4.85248">
        <ele>276</ele>
        <time>2017-12-20T10:05:04Z</time>
      </trkpt>
      <trkpt lat="45.93872" lon="4.8526">
        <ele>278</ele>
        <time>2017-12-20T10:05:06Z</time>
      </trkpt>
      <trkpt lat="45.93873" lon="4.85265">
        <ele>278</ele>
        <time>2017-12-20T10:05:07Z</time>
      </trkpt>
      <trkpt lat="45.93872" lon="4.85277">
        <ele>278</ele>
        <time>2017-12-20T10:05:09Z</time>
      </trkpt>
      <trkpt lat="45.93872" lon="4.85283">
        <ele>278</ele>
        <time>2017-12-20T10:05:10Z</time>
      </trkpt>
      <trkpt lat="45.93871" lon="4.85294">
        <ele>278</ele>
        <time>2017-12-20T10:05:12Z</time>
      </trkpt>
      <trkpt lat="45.9387" lon="4.853">
        <ele>278</ele>
        <time>2017-12-20T10:05:13Z</time>
      </trkpt>
      <trkpt lat="45.93869" lon="4.85311">
        <ele>279</ele>
        <time>2017-12-20T10:05:15Z</time>
      </trkpt>
      <trkpt lat="45.93868" lon="4.85317">
        <ele>279</ele>
        <time>2017-12-20T10:05:16Z</time>
      </trkpt>
      <trkpt lat="45.93865" lon="4.85328">
        <ele>279</ele>
        <time>2017-12-20T10:05:18Z</time>
      </trkpt>
      <trkpt lat="45.93864" lon="4.85333">
        <ele>279</ele>
        <time>2017-12-20T10:05:19Z</time>
      </trkpt>
      <trkpt lat="45.93862" lon="4.85344">
        <ele>281</ele>
        <time>2017-12-20T10:05:21Z</time>
      </trkpt>
      <trkpt lat="45.9386" lon="4.85349">
        <ele>281</ele>
        <time>2017-12-20T10:05:22Z</time>
      </trkpt>
      <trkpt lat="45.93858" lon="4.8536">
        <ele>281</ele>
        <time>2017-12-20T10:05:24Z</time>
      </trkpt>
      <trkpt lat="45.93856" lon="4.85365">
        <ele>281</ele>
        <time>2017-12-20T10:05:25Z</time>
      </trkpt>
      <trkpt lat="45.93853" lon="4.85375">
        <ele>281</ele>
        <time>2017-12-20T10:05:27Z</time>
      </trkpt>
      <trkpt lat="45.93852" lon="4.8538">
        <ele>281</ele>
        <time>2017-12-20T10:05:28Z</time>
      </trkpt>
      <trkpt lat="45.93849" lon="4.8539">
        <ele>281</ele>
        <time>2017-12-20T10:05:30Z</time>
      </trkpt>
      <trkpt lat="45.93848" lon="4.85395">
        <ele>281</ele>
        <time>2017-12-20T10:05:31Z</time>
      </trkpt>
      <trkpt lat="45.93846" lon="4.85406">
        <ele>281</ele>
        <time>2017-12-20T10:05:33Z</time>
      </trkpt>
      <trkpt lat="45.93845" lon="4.85411">
        <ele>282</ele>
        <time>2017-12-20T10:05:34Z</time>
      </trkpt>
      <trkpt lat="45.93842" lon="4.8542">
        <ele>282</ele>
        <time>2017-12-20T10:05:36Z</time>
      </trkpt>
      <trkpt lat="45.93841" lon="4.85425">
        <ele>282</ele>
        <time>2017-12-20T10:05:37Z</time>
      </trkpt>
      <trkpt lat="45.93839" lon="4.85436">
        <ele>283</ele>
        <time>2017-12-20T10:05:39Z</time>
      </trkpt>
      <trkpt lat="45.93838" lon="4.85441">
        <ele>283</ele>
        <time>2017-12-20T10:05:40Z</time>
      </trkpt>
      <trkpt lat="45.93834" lon="4.85453">
        <ele>283</ele>
        <time>2017-12-20T10:05:42Z</time>
      </trkpt>
      <trkpt lat="45.93833" lon="4.85459">
        <ele>282</ele>
        <time>2017-12-20T10:05:43Z</time>
      </trkpt>
      <trkpt lat="45.93833" lon="4.85466">
        <ele>282</ele>
        <time>2017-12-20T10:05:44Z</time>
      </trkpt>
      <trkpt lat="45.93831" lon="4.85473">
        <ele>282</ele>
        <time>2017-12-20T10:05:45Z</time>
      </trkpt>
      <trkpt lat="45.93831" lon="4.8548">
        <ele>282</ele>
        <time>2017-12-20T10:05:46Z</time>
      </trkpt>
      <trkpt lat="45.93829" lon="4.85487">
        <ele>282</ele>
        <time>2017-12-20T10:05:47Z</time>
      </trkpt>
      <trkpt lat="45.93828" lon="4.85494">
        <ele>283</ele>
        <time>2017-12-20T10:05:48Z</time>
      </trkpt>
      <trkpt lat="45.93827" lon="4.855">
        <ele>283</ele>
        <time>2017-12-20T10:05:49Z</time>
      </trkpt>
      <trkpt lat="45.93826" lon="4.85506">
        <ele>283</ele>
        <time>2017-12-20T10:05:50Z</time>
      </trkpt>
      <trkpt lat="45.93825" lon="4.85513">
        <ele>282</ele>
        <time>2017-12-20T10:05:51Z</time>
      </trkpt>
      <trkpt lat="45.93824" lon="4.8552">
        <ele>282</ele>
        <time>2017-12-20T10:05:52Z</time>
      </trkpt>
      <trkpt lat="45.93823" lon="4.85527">
        <ele>282</ele>
        <time>2017-12-20T10:05:53Z</time>
      </trkpt>
      <trkpt lat="45.93822" lon="4.85534">
        <ele>282</ele>
        <time>2017-12-20T10:05:54Z</time>
      </trkpt>
      <trkpt lat="45.9382" lon="4.8554">
        <ele>282</ele>
        <time>2017-12-20T10:05:55Z</time>
      </trkpt>
      <trkpt lat="45.93819" lon="4.85547">
        <ele>282</ele>
        <time>2017-12-20T10:05:56Z</time>
      </trkpt>
      <trkpt lat="45.93819" lon="4.85554">
        <ele>282</ele>
        <time>2017-12-20T10:05:57Z</time>
      </trkpt>
      <trkpt lat="45.93817" lon="4.85562">
        <ele>282</ele>
        <time>2017-12-20T10:05:58Z</time>
      </trkpt>
      <trkpt lat="45.93816" lon="4.85569">
        <ele>283</ele>
        <time>2017-12-20T10:05:59Z</time>
      </trkpt>
      <trkpt lat="45.93815" lon="4.85576">
        <ele>283</ele>
        <time>2017-12-20T10:06:00Z</time>
      </trkpt>
      <trkpt lat="45.93814" lon="4.85584">
        <ele>283</ele>
        <time>2017-12-20T10:06:01Z</time>
      </trkpt>
      <trkpt lat="45.93814" lon="4.85592">
        <ele>283</ele>
        <time>2017-12-20T10:06:02Z</time>
      </trkpt>
      <trkpt lat="45.93813" lon="4.85599">
        <ele>283</ele>
        <time>2017-12-20T10:06:03Z</time>
      </trkpt>
      <trkpt lat="45.93813" lon="4.85607">
        <ele>283</ele>
        <time>2017-12-20T10:06:04Z</time>
      </trkpt>
      <trkpt lat="45.93813" lon="4.85614">
        <ele>283</ele>
        <time>2017-12-20T10:06:05Z</time>
      </trkpt>
      <trkpt lat="45.93813" lon="4.8562">
        <ele>283</ele>
        <time>2017-12-20T10:06:06Z</time>
      </trkpt>
      <trkpt lat="45.93813" lon="4.85627">
        <ele>283</ele>
        <time>2017-12-20T10:06:07Z</time>
      </trkpt>
      <trkpt lat="45.93813" lon="4.85639">
        <ele>283</ele>
        <time>2017-12-20T10:06:09Z</time>
      </trkpt>
      <trkpt lat="45.93814" lon="4.85645">
        <ele>283</ele>
        <time>2017-12-20T10:06:10Z</time>
      </trkpt>
      <trkpt lat="45.93815" lon="4.85657">
        <ele>283</ele>
        <time>2017-12-20T10:06:12Z</time>
      </trkpt>
      <trkpt lat="45.93815" lon="4.85663">
        <ele>283</ele>
        <time>2017-12-20T10:06:13Z</time>
      </trkpt>
      <trkpt lat="45.93816" lon="4.85674">
        <ele>283</ele>
        <time>2017-12-20T10:06:15Z</time>
      </trkpt>
      <trkpt lat="45.93817" lon="4.8568">
        <ele>283</ele>
        <time>2017-12-20T10:06:16Z</time>
      </trkpt>
      <trkpt lat="45.93819" lon="4.85692">
        <ele>283</ele>
        <time>2017-12-20T10:06:18Z</time>
      </trkpt>
      <trkpt lat="45.9382" lon="4.85698">
        <ele>283</ele>
        <time>2017-12-20T10:06:19Z</time>
      </trkpt>
      <trkpt lat="45.93821" lon="4.85709">
        <ele>283</ele>
        <time>2017-12-20T10:06:21Z</time>
      </trkpt>
      <trkpt lat="45.93822" lon="4.85715">
        <ele>283</ele>
        <time>2017-12-20T10:06:22Z</time>
      </trkpt>
      <trkpt lat="45.93824" lon="4.85727">
        <ele>283</ele>
        <time>2017-12-20T10:06:24Z</time>
      </trkpt>
      <trkpt lat="45.93825" lon="4.85734">
        <ele>283</ele>
        <time>2017-12-20T10:06:25Z</time>
      </trkpt>
      <trkpt lat="45.93826" lon="4.8574">
        <ele>283</ele>
        <time>2017-12-20T10:06:26Z</time>
      </trkpt>
      <trkpt lat="45.93827" lon="4.85747">
        <ele>283</ele>
        <time>2017-12-20T10:06:27Z</time>
      </trkpt>
      <trkpt lat="45.93827" lon="4.85754">
        <ele>283</ele>
        <time>2017-12-20T10:06:28Z</time>
      </trkpt>
      <trkpt lat="45.93828" lon="4.85761">
        <ele>283</ele>
        <time>2017-12-20T10:06:29Z</time>
      </trkpt>
      <trkpt lat="45.9383" lon="4.85773">
        <ele>283</ele>
        <time>2017-12-20T10:06:31Z</time>
      </trkpt>
      <trkpt lat="45.93831" lon="4.85779">
        <ele>283</ele>
        <time>2017-12-20T10:06:32Z</time>
      </trkpt>
      <trkpt lat="45.93832" lon="4.8579">
        <ele>283</ele>
        <time>2017-12-20T10:06:34Z</time>
      </trkpt>
      <trkpt lat="45.93832" lon="4.85795">
        <ele>283</ele>
        <time>2017-12-20T10:06:35Z</time>
      </trkpt>
      <trkpt lat="45.93834" lon="4.85806">
        <ele>284</ele>
        <time>2017-12-20T10:06:37Z</time>
      </trkpt>
      <trkpt lat="45.93835" lon="4.85811">
        <ele>284</ele>
        <time>2017-12-20T10:06:38Z</time>
      </trkpt>
      <trkpt lat="45.93836" lon="4.85822">
        <ele>283</ele>
        <time>2017-12-20T10:06:40Z</time>
      </trkpt>
      <trkpt lat="45.93838" lon="4.85828">
        <ele>283</ele>
        <time>2017-12-20T10:06:41Z</time>
      </trkpt>
      <trkpt lat="45.93839" lon="4.85834">
        <ele>283</ele>
        <time>2017-12-20T10:06:42Z</time>
      </trkpt>
      <trkpt lat="45.9384" lon="4.85841">
        <ele>283</ele>
        <time>2017-12-20T10:06:43Z</time>
      </trkpt>
      <trkpt lat="45.93841" lon="4.85848">
        <ele>284</ele>
        <time>2017-12-20T10:06:44Z</time>
      </trkpt>
      <trkpt lat="45.93843" lon="4.85854">
        <ele>284</ele>
        <time>2017-12-20T10:06:45Z</time>
      </trkpt>
      <trkpt lat="45.93844" lon="4.85867">
        <ele>284</ele>
        <time>2017-12-20T10:06:47Z</time>
      </trkpt>
      <trkpt lat="45.93846" lon="4.85872">
        <ele>284</ele>
        <time>2017-12-20T10:06:48Z</time>
      </trkpt>
      <trkpt lat="45.93848" lon="4.85883">
        <ele>284</ele>
        <time>2017-12-20T10:06:50Z</time>
      </trkpt>
      <trkpt lat="45.9385" lon="4.85889">
        <ele>284</ele>
        <time>2017-12-20T10:06:51Z</time>
      </trkpt>
      <trkpt lat="45.9385" lon="4.85895">
        <ele>284</ele>
        <time>2017-12-20T10:06:52Z</time>
      </trkpt>
      <trkpt lat="45.93852" lon="4.85902">
        <ele>284</ele>
        <time>2017-12-20T10:06:53Z</time>
      </trkpt>
      <trkpt lat="45.93853" lon="4.85908">
        <ele>285</ele>
        <time>2017-12-20T10:06:54Z</time>
      </trkpt>
      <trkpt lat="45.93854" lon="4.85915">
        <ele>285</ele>
        <time>2017-12-20T10:06:55Z</time>
      </trkpt>
      <trkpt lat="45.93855" lon="4.85921">
        <ele>285</ele>
        <time>2017-12-20T10:06:56Z</time>
      </trkpt>
      <trkpt lat="45.93855" lon="4.85928">
        <ele>285</ele>
        <time>2017-12-20T10:06:57Z</time>
      </trkpt>
      <trkpt lat="45.93856" lon="4.85934">
        <ele>284</ele>
        <time>2017-12-20T10:06:58Z</time>
      </trkpt>
      <trkpt lat="45.93856" lon="4.85942">
        <ele>284</ele>
        <time>2017-12-20T10:06:59Z</time>
      </trkpt>
      <trkpt lat="45.93857" lon="4.85949">
        <ele>284</ele>
        <time>2017-12-20T10:07:00Z</time>
      </trkpt>
      <trkpt lat="45.93857" lon="4.85956">
        <ele>284</ele>
        <time>2017-12-20T10:07:01Z</time>
      </trkpt>
      <trkpt lat="45.93857" lon="4.85963">
        <ele>284</ele>
        <time>2017-12-20T10:07:02Z</time>
      </trkpt>
      <trkpt lat="45.93857" lon="4.8597">
        <ele>284</ele>
        <time>2017-12-20T10:07:03Z</time>
      </trkpt>
      <trkpt lat="45.93859" lon="4.85977">
        <ele>284</ele>
        <time>2017-12-20T10:07:04Z</time>
      </trkpt>
      <trkpt lat="45.93859" lon="4.85983">
        <ele>284</ele>
        <time>2017-12-20T10:07:05Z</time>
      </trkpt>
      <trkpt lat="45.93861" lon="4.85995">
        <ele>284</ele>
        <time>2017-12-20T10:07:07Z</time>
      </trkpt>
      <trkpt lat="45.93861" lon="4.86001">
        <ele>284</ele>
        <time>2017-12-20T10:07:08Z</time>
      </trkpt>
      <trkpt lat="45.93861" lon="4.86007">
        <ele>284</ele>
        <time>2017-12-20T10:07:09Z</time>
      </trkpt>
      <trkpt lat="45.93861" lon="4.86014">
        <ele>284</ele>
        <time>2017-12-20T10:07:10Z</time>
      </trkpt>
      <trkpt lat="45.93861" lon="4.8602">
        <ele>284</ele>
        <time>2017-12-20T10:07:11Z</time>
      </trkpt>
      <trkpt lat="45.93862" lon="4.86027">
        <ele>284</ele>
        <time>2017-12-20T10:07:12Z</time>
      </trkpt>
      <trkpt lat="45.93862" lon="4.86034">
        <ele>284</ele>
        <time>2017-12-20T10:07:13Z</time>
      </trkpt>
      <trkpt lat="45.93863" lon="4.8604">
        <ele>284</ele>
        <time>2017-12-20T10:07:14Z</time>
      </trkpt>
      <trkpt lat="45.93863" lon="4.86046">
        <ele>284</ele>
        <time>2017-12-20T10:07:15Z</time>
      </trkpt>
      <trkpt lat="45.93864" lon="4.86053">
        <ele>284</ele>
        <time>2017-12-20T10:07:16Z</time>
      </trkpt>
      <trkpt lat="45.93864" lon="4.86066">
        <ele>285</ele>
        <time>2017-12-20T10:07:18Z</time>
      </trkpt>
      <trkpt lat="45.93864" lon="4.86072">
        <ele>285</ele>
        <time>2017-12-20T10:07:19Z</time>
      </trkpt>
      <trkpt lat="45.93865" lon="4.8608">
        <ele>285</ele>
        <time>2017-12-20T10:07:20Z</time>
      </trkpt>
      <trkpt lat="45.93866" lon="4.86087">
        <ele>285</ele>
        <time>2017-12-20T10:07:21Z</time>
      </trkpt>
      <trkpt lat="45.93866" lon="4.86097">
        <ele>286</ele>
        <time>2017-12-20T10:07:23Z</time>
      </trkpt>
      <trkpt lat="45.93866" lon="4.86103">
        <ele>286</ele>
        <time>2017-12-20T10:07:24Z</time>
      </trkpt>
      <trkpt lat="45.93867" lon="4.86109">
        <ele>286</ele>
        <time>2017-12-20T10:07:25Z</time>
      </trkpt>
      <trkpt lat="45.93868" lon="4.86116">
        <ele>286</ele>
        <time>2017-12-20T10:07:26Z</time>
      </trkpt>
      <trkpt lat="45.93869" lon="4.86122">
        <ele>286</ele>
        <time>2017-12-20T10:07:27Z</time>
      </trkpt>
      <trkpt lat="45.9387" lon="4.86128">
        <ele>286</ele>
        <time>2017-12-20T10:07:28Z</time>
      </trkpt>
      <trkpt lat="45.93871" lon="4.86134">
        <ele>286</ele>
        <time>2017-12-20T10:07:29Z</time>
      </trkpt>
      <trkpt lat="45.93871" lon="4.86141">
        <ele>286</ele>
        <time>2017-12-20T10:07:30Z</time>
      </trkpt>
      <trkpt lat="45.93872" lon="4.86148">
        <ele>286</ele>
        <time>2017-12-20T10:07:31Z</time>
      </trkpt>
      <trkpt lat="45.93872" lon="4.86155">
        <ele>286</ele>
        <time>2017-12-20T10:07:32Z</time>
      </trkpt>
      <trkpt lat="45.93872" lon="4.86161">
        <ele>286</ele>
        <time>2017-12-20T10:07:33Z</time>
      </trkpt>
      <trkpt lat="45.93873" lon="4.86168">
        <ele>287</ele>
        <time>2017-12-20T10:07:34Z</time>
      </trkpt>
      <trkpt lat="45.93874" lon="4.86179">
        <ele>287</ele>
        <time>2017-12-20T10:07:36Z</time>
      </trkpt>
      <trkpt lat="45.93875" lon="4.86184">
        <ele>287</ele>
        <time>2017-12-20T10:07:37Z</time>
      </trkpt>
      <trkpt lat="45.93875" lon="4.86196">
        <ele>287</ele>
        <time>2017-12-20T10:07:39Z</time>
      </trkpt>
      <trkpt lat="45.93875" lon="4.86201">
        <ele>287</ele>
        <time>2017-12-20T10:07:40Z</time>
      </trkpt>
      <trkpt lat="45.93875" lon="4.86208">
        <ele>288</ele>
        <time>2017-12-20T10:07:41Z</time>
      </trkpt>
      <trkpt lat="45.93875" lon="4.86215">
        <ele>288</ele>
        <time>2017-12-20T10:07:42Z</time>
      </trkpt>
      <trkpt lat="45.93876" lon="4.86227">
        <ele>288</ele>
        <time>2017-12-20T10:07:44Z</time>
      </trkpt>
      <trkpt lat="45.93876" lon="4.86234">
        <ele>288</ele>
        <time>2017-12-20T10:07:45Z</time>
      </trkpt>
      <trkpt lat="45.93875" lon="4.8624">
        <ele>288</ele>
        <time>2017-12-20T10:07:46Z</time>
      </trkpt>
      <trkpt lat="45.93875" lon="4.86247">
        <ele>288</ele>
        <time>2017-12-20T10:07:47Z</time>
      </trkpt>
      <trkpt lat="45.93875" lon="4.86254">
        <ele>288</ele>
        <time>2017-12-20T10:07:48Z</time>
      </trkpt>
      <trkpt lat="45.93874" lon="4.86261">
        <ele>288</ele>
        <time>2017-12-20T10:07:49Z</time>
      </trkpt>
      <trkpt lat="45.93873" lon="4.86267">
        <ele>288</ele>
        <time>2017-12-20T10:07:50Z</time>
      </trkpt>
      <trkpt lat="45.93872" lon="4.86273">
        <ele>288</ele>
        <time>2017-12-20T10:07:51Z</time>
      </trkpt>
      <trkpt lat="45.93872" lon="4.8628">
        <ele>288</ele>
        <time>2017-12-20T10:07:52Z</time>
      </trkpt>
      <trkpt lat="45.9387" lon="4.86286">
        <ele>288</ele>
        <time>2017-12-20T10:07:53Z</time>
      </trkpt>
      <trkpt lat="45.93869" lon="4.86298">
        <ele>288</ele>
        <time>2017-12-20T10:07:55Z</time>
      </trkpt>
      <trkpt lat="45.93868" lon="4.86304">
        <ele>288</ele>
        <time>2017-12-20T10:07:56Z</time>
      </trkpt>
      <trkpt lat="45.93865" lon="4.86314">
        <ele>288</ele>
        <time>2017-12-20T10:07:58Z</time>
      </trkpt>
      <trkpt lat="45.93864" lon="4.86319">
        <ele>288</ele>
        <time>2017-12-20T10:07:59Z</time>
      </trkpt>
      <trkpt lat="45.93863" lon="4.86332">
        <ele>288</ele>
        <time>2017-12-20T10:08:01Z</time>
      </trkpt>
      <trkpt lat="45.93862" lon="4.86338">
        <ele>288</ele>
        <time>2017-12-20T10:08:02Z</time>
      </trkpt>
      <trkpt lat="45.93861" lon="4.8635">
        <ele>288</ele>
        <time>2017-12-20T10:08:04Z</time>
      </trkpt>
      <trkpt lat="45.93859" lon="4.86357">
        <ele>288</ele>
        <time>2017-12-20T10:08:05Z</time>
      </trkpt>
      <trkpt lat="45.93857" lon="4.86369">
        <ele>288</ele>
        <time>2017-12-20T10:08:07Z</time>
      </trkpt>
      <trkpt lat="45.93857" lon="4.86375">
        <ele>288</ele>
        <time>2017-12-20T10:08:08Z</time>
      </trkpt>
      <trkpt lat="45.93855" lon="4.86387">
        <ele>288</ele>
        <time>2017-12-20T10:08:10Z</time>
      </trkpt>
      <trkpt lat="45.93854" lon="4.86392">
        <ele>288</ele>
        <time>2017-12-20T10:08:11Z</time>
      </trkpt>
      <trkpt lat="45.93852" lon="4.86404">
        <ele>288</ele>
        <time>2017-12-20T10:08:13Z</time>
      </trkpt>
      <trkpt lat="45.93851" lon="4.86411">
        <ele>288</ele>
        <time>2017-12-20T10:08:14Z</time>
      </trkpt>
      <trkpt lat="45.93851" lon="4.8642">
        <ele>288</ele>
        <time>2017-12-20T10:08:15Z</time>
      </trkpt>
      <trkpt lat="45.9385" lon="4.86426">
        <ele>288</ele>
        <time>2017-12-20T10:08:16Z</time>
      </trkpt>
      <trkpt lat="45.93849" lon="4.86434">
        <ele>288</ele>
        <time>2017-12-20T10:08:17Z</time>
      </trkpt>
      <trkpt lat="45.93847" lon="4.86441">
        <ele>288</ele>
        <time>2017-12-20T10:08:18Z</time>
      </trkpt>
      <trkpt lat="45.93846" lon="4.86453">
        <ele>288</ele>
        <time>2017-12-20T10:08:20Z</time>
      </trkpt>
      <trkpt lat="45.93845" lon="4.8646">
        <ele>288</ele>
        <time>2017-12-20T10:08:21Z</time>
      </trkpt>
      <trkpt lat="45.93844" lon="4.86466">
        <ele>288</ele>
        <time>2017-12-20T10:08:22Z</time>
      </trkpt>
      <trkpt lat="45.93843" lon="4.86473">
        <ele>288</ele>
        <time>2017-12-20T10:08:23Z</time>
      </trkpt>
      <trkpt lat="45.93843" lon="4.8648">
        <ele>288</ele>
        <time>2017-12-20T10:08:24Z</time>
      </trkpt>
      <trkpt lat="45.93842" lon="4.86487">
        <ele>288</ele>
        <time>2017-12-20T10:08:25Z</time>
      </trkpt>
      <trkpt lat="45.93841" lon="4.86494">
        <ele>288</ele>
        <time>2017-12-20T10:08:26Z</time>
      </trkpt>
      <trkpt lat="45.93839" lon="4.86501">
        <ele>288</ele>
        <time>2017-12-20T10:08:27Z</time>
      </trkpt>
      <trkpt lat="45.93839" lon="4.86508">
        <ele>288</ele>
        <time>2017-12-20T10:08:28Z</time>
      </trkpt>
      <trkpt lat="45.93838" lon="4.86514">
        <ele>288</ele>
        <time>2017-12-20T10:08:29Z</time>
      </trkpt>
      <trkpt lat="45.93837" lon="4.86522">
        <ele>288</ele>
        <time>2017-12-20T10:08:30Z</time>
      </trkpt>
      <trkpt lat="45.93836" lon="4.8653">
        <ele>288</ele>
        <time>2017-12-20T10:08:31Z</time>
      </trkpt>
      <trkpt lat="45.93835" lon="4.86537">
        <ele>288</ele>
        <time>2017-12-20T10:08:32Z</time>
      </trkpt>
      <trkpt lat="45.93833" lon="4.86544">
        <ele>290</ele>
        <time>2017-12-20T10:08:33Z</time>
      </trkpt>
      <trkpt lat="45.93832" lon="4.86551">
        <ele>290</ele>
        <time>2017-12-20T10:08:34Z</time>
      </trkpt>
      <trkpt lat="45.9383" lon="4.86558">
        <ele>290</ele>
        <time>2017-12-20T10:08:35Z</time>
      </trkpt>
      <trkpt lat="45.9383" lon="4.86566">
        <ele>289</ele>
        <time>2017-12-20T10:08:36Z</time>
      </trkpt>
      <trkpt lat="45.93829" lon="4.86573">
        <ele>289</ele>
        <time>2017-12-20T10:08:37Z</time>
      </trkpt>
      <trkpt lat="45.93828" lon="4.86579">
        <ele>289</ele>
        <time>2017-12-20T10:08:38Z</time>
      </trkpt>
      <trkpt lat="45.93828" lon="4.86586">
        <ele>288</ele>
        <time>2017-12-20T10:08:39Z</time>
      </trkpt>
      <trkpt lat="45.93827" lon="4.86592">
        <ele>288</ele>
        <time>2017-12-20T10:08:40Z</time>
      </trkpt>
      <trkpt lat="45.93826" lon="4.86599">
        <ele>288</ele>
        <time>2017-12-20T10:08:41Z</time>
      </trkpt>
      <trkpt lat="45.93825" lon="4.86606">
        <ele>288</ele>
        <time>2017-12-20T10:08:42Z</time>
      </trkpt>
      <trkpt lat="45.93823" lon="4.86613">
        <ele>288</ele>
        <time>2017-12-20T10:08:43Z</time>
      </trkpt>
      <trkpt lat="45.93822" lon="4.86621">
        <ele>288</ele>
        <time>2017-12-20T10:08:44Z</time>
      </trkpt>
      <trkpt lat="45.93822" lon="4.86628">
        <ele>288</ele>
        <time>2017-12-20T10:08:45Z</time>
      </trkpt>
      <trkpt lat="45.93821" lon="4.86635">
        <ele>288</ele>
        <time>2017-12-20T10:08:46Z</time>
      </trkpt>
      <trkpt lat="45.9382" lon="4.86642">
        <ele>288</ele>
        <time>2017-12-20T10:08:47Z</time>
      </trkpt>
      <trkpt lat="45.93818" lon="4.86649">
        <ele>288</ele>
        <time>2017-12-20T10:08:48Z</time>
      </trkpt>
      <trkpt lat="45.93817" lon="4.86656">
        <ele>288</ele>
        <time>2017-12-20T10:08:49Z</time>
      </trkpt>
      <trkpt lat="45.93815" lon="4.86668">
        <ele>287</ele>
        <time>2017-12-20T10:08:51Z</time>
      </trkpt>
      <trkpt lat="45.93814" lon="4.86675">
        <ele>287</ele>
        <time>2017-12-20T10:08:52Z</time>
      </trkpt>
      <trkpt lat="45.93812" lon="4.86682">
        <ele>287</ele>
        <time>2017-12-20T10:08:53Z</time>
      </trkpt>
      <trkpt lat="45.93812" lon="4.86689">
        <ele>287</ele>
        <time>2017-12-20T10:08:54Z</time>
      </trkpt>
      <trkpt lat="45.93811" lon="4.86701">
        <ele>287</ele>
        <time>2017-12-20T10:08:56Z</time>
      </trkpt>
      <trkpt lat="45.93811" lon="4.86707">
        <ele>287</ele>
        <time>2017-12-20T10:08:57Z</time>
      </trkpt>
      <trkpt lat="45.9381" lon="4.86714">
        <ele>287</ele>
        <time>2017-12-20T10:08:58Z</time>
      </trkpt>
      <trkpt lat="45.93809" lon="4.8672">
        <ele>287</ele>
        <time>2017-12-20T10:08:59Z</time>
      </trkpt>
      <trkpt lat="45.93808" lon="4.86727">
        <ele>287</ele>
        <time>2017-12-20T10:09:00Z</time>
      </trkpt>
      <trkpt lat="45.93807" lon="4.86735">
        <ele>286</ele>
        <time>2017-12-20T10:09:01Z</time>
      </trkpt>
      <trkpt lat="45.93806" lon="4.86742">
        <ele>286</ele>
        <time>2017-12-20T10:09:02Z</time>
      </trkpt>
      <trkpt lat="45.93806" lon="4.86749">
        <ele>286</ele>
        <time>2017-12-20T10:09:03Z</time>
      </trkpt>
      <trkpt lat="45.93804" lon="4.86761">
        <ele>286</ele>
        <time>2017-12-20T10:09:05Z</time>
      </trkpt>
      <trkpt lat="45.93803" lon="4.86767">
        <ele>286</ele>
        <time>2017-12-20T10:09:06Z</time>
      </trkpt>
      <trkpt lat="45.93802" lon="4.86779">
        <ele>286</ele>
        <time>2017-12-20T10:09:08Z</time>
      </trkpt>
      <trkpt lat="45.93801" lon="4.86785">
        <ele>286</ele>
        <time>2017-12-20T10:09:09Z</time>
      </trkpt>
      <trkpt lat="45.93798" lon="4.86797">
        <ele>286</ele>
        <time>2017-12-20T10:09:11Z</time>
      </trkpt>
      <trkpt lat="45.93797" lon="4.86804">
        <ele>286</ele>
        <time>2017-12-20T10:09:12Z</time>
      </trkpt>
      <trkpt lat="45.93796" lon="4.8681">
        <ele>286</ele>
        <time>2017-12-20T10:09:13Z</time>
      </trkpt>
      <trkpt lat="45.93795" lon="4.86817">
        <ele>286</ele>
        <time>2017-12-20T10:09:14Z</time>
      </trkpt>
      <trkpt lat="45.93794" lon="4.86824">
        <ele>286</ele>
        <time>2017-12-20T10:09:15Z</time>
      </trkpt>
      <trkpt lat="45.93793" lon="4.8683">
        <ele>286</ele>
        <time>2017-12-20T10:09:16Z</time>
      </trkpt>
      <trkpt lat="45.93791" lon="4.86841">
        <ele>286</ele>
        <time>2017-12-20T10:09:18Z</time>
      </trkpt>
      <trkpt lat="45.9379" lon="4.86848">
        <ele>286</ele>
        <time>2017-12-20T10:09:19Z</time>
      </trkpt>
      <trkpt lat="45.93789" lon="4.86859">
        <ele>286</ele>
        <time>2017-12-20T10:09:21Z</time>
      </trkpt>
      <trkpt lat="45.93788" lon="4.86866">
        <ele>286</ele>
        <time>2017-12-20T10:09:22Z</time>
      </trkpt>
      <trkpt lat="45.93787" lon="4.86872">
        <ele>286</ele>
        <time>2017-12-20T10:09:23Z</time>
      </trkpt>
      <trkpt lat="45.93786" lon="4.86879">
        <ele>286</ele>
        <time>2017-12-20T10:09:24Z</time>
      </trkpt>
      <trkpt lat="45.93785" lon="4.86886">
        <ele>286</ele>
        <time>2017-12-20T10:09:25Z</time>
      </trkpt>
      <trkpt lat="45.93784" lon="4.86894">
        <ele>286</ele>
        <time>2017-12-20T10:09:26Z</time>
      </trkpt>
      <trkpt lat="45.93782" lon="4.869">
        <ele>286</ele>
        <time>2017-12-20T10:09:27Z</time>
      </trkpt>
      <trkpt lat="45.93781" lon="4.86908">
        <ele>285</ele>
        <time>2017-12-20T10:09:28Z</time>
      </trkpt>
      <trkpt lat="45.93779" lon="4.86915">
        <ele>285</ele>
        <time>2017-12-20T10:09:29Z</time>
      </trkpt>
      <trkpt lat="45.93778" lon="4.86923">
        <ele>285</ele>
        <time>2017-12-20T10:09:30Z</time>
      </trkpt>
      <trkpt lat="45.93776" lon="4.8693">
        <ele>285</ele>
        <time>2017-12-20T10:09:31Z</time>
      </trkpt>
      <trkpt lat="45.93775" lon="4.86939">
        <ele>285</ele>
        <time>2017-12-20T10:09:32Z</time>
      </trkpt>
      <trkpt lat="45.93773" lon="4.86947">
        <ele>285</ele>
        <time>2017-12-20T10:09:33Z</time>
      </trkpt>
      <trkpt lat="45.93772" lon="4.86955">
        <ele>285</ele>
        <time>2017-12-20T10:09:34Z</time>
      </trkpt>
      <trkpt lat="45.93771" lon="4.86963">
        <ele>285</ele>
        <time>2017-12-20T10:09:35Z</time>
      </trkpt>
      <trkpt lat="45.93771" lon="4.86972">
        <ele>285</ele>
        <time>2017-12-20T10:09:36Z</time>
      </trkpt>
      <trkpt lat="45.9377" lon="4.86981">
        <ele>285</ele>
        <time>2017-12-20T10:09:37Z</time>
      </trkpt>
      <trkpt lat="45.93767" lon="4.86989">
        <ele>285</ele>
        <time>2017-12-20T10:09:38Z</time>
      </trkpt>
      <trkpt lat="45.93766" lon="4.86999">
        <ele>285</ele>
        <time>2017-12-20T10:09:39Z</time>
      </trkpt>
      <trkpt lat="45.93765" lon="4.87007">
        <ele>284</ele>
        <time>2017-12-20T10:09:40Z</time>
      </trkpt>
      <trkpt lat="45.93764" lon="4.87016">
        <ele>284</ele>
        <time>2017-12-20T10:09:41Z</time>
      </trkpt>
      <trkpt lat="45.93763" lon="4.87024">
        <ele>284</ele>
        <time>2017-12-20T10:09:42Z</time>
      </trkpt>
      <trkpt lat="45.93762" lon="4.87032">
        <ele>284</ele>
        <time>2017-12-20T10:09:43Z</time>
      </trkpt>
      <trkpt lat="45.93761" lon="4.87041">
        <ele>284</ele>
        <time>2017-12-20T10:09:44Z</time>
      </trkpt>
      <trkpt lat="45.9376" lon="4.8705">
        <ele>284</ele>
        <time>2017-12-20T10:09:45Z</time>
      </trkpt>
      <trkpt lat="45.93759" lon="4.87059">
        <ele>284</ele>
        <time>2017-12-20T10:09:46Z</time>
      </trkpt>
      <trkpt lat="45.93757" lon="4.87068">
        <ele>284</ele>
        <time>2017-12-20T10:09:47Z</time>
      </trkpt>
      <trkpt lat="45.93757" lon="4.87079">
        <ele>284</ele>
        <time>2017-12-20T10:09:48Z</time>
      </trkpt>
      <trkpt lat="45.93756" lon="4.87088">
        <ele>284</ele>
        <time>2017-12-20T10:09:49Z</time>
      </trkpt>
      <trkpt lat="45.93754" lon="4.87097">
        <ele>284</ele>
        <time>2017-12-20T10:09:50Z</time>
      </trkpt>
      <trkpt lat="45.93752" lon="4.87106">
        <ele>284</ele>
        <time>2017-12-20T10:09:51Z</time>
      </trkpt>
      <trkpt lat="45.9375" lon="4.87116">
        <ele>285</ele>
        <time>2017-12-20T10:09:52Z</time>
      </trkpt>
      <trkpt lat="45.93749" lon="4.87126">
        <ele>285</ele>
        <time>2017-12-20T10:09:53Z</time>
      </trkpt>
      <trkpt lat="45.93748" lon="4.87136">
        <ele>285</ele>
        <time>2017-12-20T10:09:54Z</time>
      </trkpt>
      <trkpt lat="45.93747" lon="4.87145">
        <ele>285</ele>
        <time>2017-12-20T10:09:55Z</time>
      </trkpt>
      <trkpt lat="45.93746" lon="4.87153">
        <ele>285</ele>
        <time>2017-12-20T10:09:56Z</time>
      </trkpt>
      <trkpt lat="45.93745" lon="4.87162">
        <ele>285</ele>
        <time>2017-12-20T10:09:57Z</time>
      </trkpt>
      <trkpt lat="45.93743" lon="4.87171">
        <ele>285</ele>
        <time>2017-12-20T10:09:58Z</time>
      </trkpt>
      <trkpt lat="45.93743" lon="4.8718">
        <ele>285</ele>
        <time>2017-12-20T10:09:59Z</time>
      </trkpt>
      <trkpt lat="45.93741" lon="4.87188">
        <ele>285</ele>
        <time>2017-12-20T10:10:00Z</time>
      </trkpt>
      <trkpt lat="45.9374" lon="4.87196">
        <ele>285</ele>
        <time>2017-12-20T10:10:01Z</time>
      </trkpt>
      <trkpt lat="45.93739" lon="4.87205">
        <ele>285</ele>
        <time>2017-12-20T10:10:02Z</time>
      </trkpt>
      <trkpt lat="45.93738" lon="4.87214">
        <ele>285</ele>
        <time>2017-12-20T10:10:03Z</time>
      </trkpt>
      <trkpt lat="45.93737" lon="4.87222">
        <ele>285</ele>
        <time>2017-12-20T10:10:04Z</time>
      </trkpt>
      <trkpt lat="45.93736" lon="4.87231">
        <ele>285</ele>
        <time>2017-12-20T10:10:05Z</time>
      </trkpt>
      <trkpt lat="45.93734" lon="4.8724">
        <ele>285</ele>
        <time>2017-12-20T10:10:06Z</time>
      </trkpt>
      <trkpt lat="45.93733" lon="4.87249">
        <ele>285</ele>
        <time>2017-12-20T10:10:07Z</time>
      </trkpt>
      <trkpt lat="45.93731" lon="4.87257">
        <ele>285</ele>
        <time>2017-12-20T10:10:08Z</time>
      </trkpt>
      <trkpt lat="45.9373" lon="4.87264">
        <ele>285</ele>
        <time>2017-12-20T10:10:09Z</time>
      </trkpt>
      <trkpt lat="45.93729" lon="4.87272">
        <ele>285</ele>
        <time>2017-12-20T10:10:10Z</time>
      </trkpt>
      <trkpt lat="45.93727" lon="4.8728">
        <ele>285</ele>
        <time>2017-12-20T10:10:11Z</time>
      </trkpt>
      <trkpt lat="45.93727" lon="4.87287">
        <ele>285</ele>
        <time>2017-12-20T10:10:12Z</time>
      </trkpt>
      <trkpt lat="45.93725" lon="4.87295">
        <ele>285</ele>
        <time>2017-12-20T10:10:13Z</time>
      </trkpt>
      <trkpt lat="45.93724" lon="4.87302">
        <ele>285</ele>
        <time>2017-12-20T10:10:14Z</time>
      </trkpt>
      <trkpt lat="45.93723" lon="4.8731">
        <ele>285</ele>
        <time>2017-12-20T10:10:15Z</time>
      </trkpt>
      <trkpt lat="45.93721" lon="4.87319">
        <ele>285</ele>
        <time>2017-12-20T10:10:16Z</time>
      </trkpt>
      <trkpt lat="45.93719" lon="4.87327">
        <ele>285</ele>
        <time>2017-12-20T10:10:17Z</time>
      </trkpt>
      <trkpt lat="45.93717" lon="4.87335">
        <ele>284</ele>
        <time>2017-12-20T10:10:18Z</time>
      </trkpt>
      <trkpt lat="45.93714" lon="4.87343">
        <ele>284</ele>
        <time>2017-12-20T10:10:19Z</time>
      </trkpt>
      <trkpt lat="45.93712" lon="4.87351">
        <ele>284</ele>
        <time>2017-12-20T10:10:20Z</time>
      </trkpt>
      <trkpt lat="45.93709" lon="4.8736">
        <ele>284</ele>
        <time>2017-12-20T10:10:21Z</time>
      </trkpt>
      <trkpt lat="45.93707" lon="4.87367">
        <ele>284</ele>
        <time>2017-12-20T10:10:22Z</time>
      </trkpt>
      <trkpt lat="45.93705" lon="4.87375">
        <ele>284</ele>
        <time>2017-12-20T10:10:23Z</time>
      </trkpt>
      <trkpt lat="45.93702" lon="4.87381">
        <ele>284</ele>
        <time>2017-12-20T10:10:24Z</time>
      </trkpt>
      <trkpt lat="45.937" lon="4.87389">
        <ele>284</ele>
        <time>2017-12-20T10:10:25Z</time>
      </trkpt>
      <trkpt lat="45.93696" lon="4.87398">
        <ele>284</ele>
        <time>2017-12-20T10:10:26Z</time>
      </trkpt>
      <trkpt lat="45.93693" lon="4.87406">
        <ele>284</ele>
        <time>2017-12-20T10:10:27Z</time>
      </trkpt>
      <trkpt lat="45.9369" lon="4.87414">
        <ele>284</ele>
        <time>2017-12-20T10:10:28Z</time>
      </trkpt>
      <trkpt lat="45.93687" lon="4.87422">
        <ele>284</ele>
        <time>2017-12-20T10:10:29Z</time>
      </trkpt>
      <trkpt lat="45.93685" lon="4.87429">
        <ele>284</ele>
        <time>2017-12-20T10:10:30Z</time>
      </trkpt>
      <trkpt lat="45.93682" lon="4.87436">
        <ele>284</ele>
        <time>2017-12-20T10:10:31Z</time>
      </trkpt>
      <trkpt lat="45.93678" lon="4.87441">
        <ele>284</ele>
        <time>2017-12-20T10:10:32Z</time>
      </trkpt>
      <trkpt lat="45.93675" lon="4.87446">
        <ele>284</ele>
        <time>2017-12-20T10:10:33Z</time>
      </trkpt>
      <trkpt lat="45.93672" lon="4.87453">
        <ele>284</ele>
        <time>2017-12-20T10:10:34Z</time>
      </trkpt>
      <trkpt lat="45.93669" lon="4.87458">
        <ele>284</ele>
        <time>2017-12-20T10:10:35Z</time>
      </trkpt>
      <trkpt lat="45.93665" lon="4.87463">
        <ele>285</ele>
        <time>2017-12-20T10:10:36Z</time>
      </trkpt>
      <trkpt lat="45.93663" lon="4.87469">
        <ele>285</ele>
        <time>2017-12-20T10:10:37Z</time>
      </trkpt>
      <trkpt lat="45.93659" lon="4.87475">
        <ele>285</ele>
        <time>2017-12-20T10:10:38Z</time>
      </trkpt>
      <trkpt lat="45.93655" lon="4.87481">
        <ele>285</ele>
        <time>2017-12-20T10:10:39Z</time>
      </trkpt>
      <trkpt lat="45.93652" lon="4.87486">
        <ele>285</ele>
        <time>2017-12-20T10:10:40Z</time>
      </trkpt>
      <trkpt lat="45.93649" lon="4.87492">
        <ele>285</ele>
        <time>2017-12-20T10:10:41Z</time>
      </trkpt>
      <trkpt lat="45.93645" lon="4.87498">
        <ele>285</ele>
        <time>2017-12-20T10:10:42Z</time>
      </trkpt>
      <trkpt lat="45.93641" lon="4.87503">
        <ele>285</ele>
        <time>2017-12-20T10:10:43Z</time>
      </trkpt>
      <trkpt lat="45.93638" lon="4.87509">
        <ele>285</ele>
        <time>2017-12-20T10:10:44Z</time>
      </trkpt>
      <trkpt lat="45.93634" lon="4.87516">
        <ele>285</ele>
        <time>2017-12-20T10:10:45Z</time>
      </trkpt>
      <trkpt lat="45.93631" lon="4.87522">
        <ele>285</ele>
        <time>2017-12-20T10:10:46Z</time>
      </trkpt>
      <trkpt lat="45.93627" lon="4.87529">
        <ele>285</ele>
        <time>2017-12-20T10:10:47Z</time>
      </trkpt>
      <trkpt lat="45.93624" lon="4.87534">
        <ele>286</ele>
        <time>2017-12-20T10:10:48Z</time>
      </trkpt>
      <trkpt lat="45.93618" lon="4.87544">
        <ele>286</ele>
        <time>2017-12-20T10:10:50Z</time>
      </trkpt>
      <trkpt lat="45.93616" lon="4.8755">
        <ele>286</ele>
        <time>2017-12-20T10:10:51Z</time>
      </trkpt>
      <trkpt lat="45.93612" lon="4.87555">
        <ele>286</ele>
        <time>2017-12-20T10:10:52Z</time>
      </trkpt>
      <trkpt lat="45.93609" lon="4.8756">
        <ele>286</ele>
        <time>2017-12-20T10:10:53Z</time>
      </trkpt>
      <trkpt lat="45.93603" lon="4.8757">
        <ele>286</ele>
        <time>2017-12-20T10:10:55Z</time>
      </trkpt>
      <trkpt lat="45.93601" lon="4.87575">
        <ele>286</ele>
        <time>2017-12-20T10:10:56Z</time>
      </trkpt>
      <trkpt lat="45.93598" lon="4.87581">
        <ele>286</ele>
        <time>2017-12-20T10:10:57Z</time>
      </trkpt>
      <trkpt lat="45.93595" lon="4.87586">
        <ele>286</ele>
        <time>2017-12-20T10:10:58Z</time>
      </trkpt>
      <trkpt lat="45.93592" lon="4.87592">
        <ele>285</ele>
        <time>2017-12-20T10:10:59Z</time>
      </trkpt>
      <trkpt lat="45.93589" lon="4.87598">
        <ele>285</ele>
        <time>2017-12-20T10:11:00Z</time>
      </trkpt>
      <trkpt lat="45.93586" lon="4.87605">
        <ele>285</ele>
        <time>2017-12-20T10:11:01Z</time>
      </trkpt>
      <trkpt lat="45.93584" lon="4.8761">
        <ele>285</ele>
        <time>2017-12-20T10:11:02Z</time>
      </trkpt>
      <trkpt lat="45.93581" lon="4.87616">
        <ele>285</ele>
        <time>2017-12-20T10:11:03Z</time>
      </trkpt>
      <trkpt lat="45.93579" lon="4.87623">
        <ele>285</ele>
        <time>2017-12-20T10:11:04Z</time>
      </trkpt>
      <trkpt lat="45.93575" lon="4.87634">
        <ele>285</ele>
        <time>2017-12-20T10:11:06Z</time>
      </trkpt>
      <trkpt lat="45.93572" lon="4.8764">
        <ele>285</ele>
        <time>2017-12-20T10:11:07Z</time>
      </trkpt>
      <trkpt lat="45.9357" lon="4.87647">
        <ele>285</ele>
        <time>2017-12-20T10:11:08Z</time>
      </trkpt>
      <trkpt lat="45.93568" lon="4.87654">
        <ele>285</ele>
        <time>2017-12-20T10:11:09Z</time>
      </trkpt>
      <trkpt lat="45.93566" lon="4.8766">
        <ele>285</ele>
        <time>2017-12-20T10:11:10Z</time>
      </trkpt>
      <trkpt lat="45.93565" lon="4.87668">
        <ele>284</ele>
        <time>2017-12-20T10:11:11Z</time>
      </trkpt>
      <trkpt lat="45.93563" lon="4.87675">
        <ele>284</ele>
        <time>2017-12-20T10:11:12Z</time>
      </trkpt>
      <trkpt lat="45.93561" lon="4.87682">
        <ele>284</ele>
        <time>2017-12-20T10:11:13Z</time>
      </trkpt>
      <trkpt lat="45.93558" lon="4.87688">
        <ele>284</ele>
        <time>2017-12-20T10:11:14Z</time>
      </trkpt>
      <trkpt lat="45.93556" lon="4.87696">
        <ele>284</ele>
        <time>2017-12-20T10:11:15Z</time>
      </trkpt>
      <trkpt lat="45.93555" lon="4.87702">
        <ele>284</ele>
        <time>2017-12-20T10:11:16Z</time>
      </trkpt>
      <trkpt lat="45.93553" lon="4.87709">
        <ele>284</ele>
        <time>2017-12-20T10:11:17Z</time>
      </trkpt>
      <trkpt lat="45.93552" lon="4.87715">
        <ele>284</ele>
        <time>2017-12-20T10:11:18Z</time>
      </trkpt>
      <trkpt lat="45.9355" lon="4.87721">
        <ele>284</ele>
        <time>2017-12-20T10:11:19Z</time>
      </trkpt>
      <trkpt lat="45.93549" lon="4.87727">
        <ele>284</ele>
        <time>2017-12-20T10:11:20Z</time>
      </trkpt>
      <trkpt lat="45.93547" lon="4.87733">
        <ele>284</ele>
        <time>2017-12-20T10:11:21Z</time>
      </trkpt>
      <trkpt lat="45.93545" lon="4.87739">
        <ele>284</ele>
        <time>2017-12-20T10:11:22Z</time>
      </trkpt>
      <trkpt lat="45.93543" lon="4.87745">
        <ele>284</ele>
        <time>2017-12-20T10:11:23Z</time>
      </trkpt>
      <trkpt lat="45.93542" lon="4.87751">
        <ele>284</ele>
        <time>2017-12-20T10:11:24Z</time>
      </trkpt>
      <trkpt lat="45.9354" lon="4.87758">
        <ele>284</ele>
        <time>2017-12-20T10:11:25Z</time>
      </trkpt>
      <trkpt lat="45.93538" lon="4.87765">
        <ele>284</ele>
        <time>2017-12-20T10:11:26Z</time>
      </trkpt>
      <trkpt lat="45.93537" lon="4.87773">
        <ele>284</ele>
        <time>2017-12-20T10:11:27Z</time>
      </trkpt>
      <trkpt lat="45.93535" lon="4.87781">
        <ele>284</ele>
        <time>2017-12-20T10:11:28Z</time>
      </trkpt>
      <trkpt lat="45.93534" lon="4.87789">
        <ele>284</ele>
        <time>2017-12-20T10:11:29Z</time>
      </trkpt>
      <trkpt lat="45.93532" lon="4.87797">
        <ele>284</ele>
        <time>2017-12-20T10:11:30Z</time>
      </trkpt>
      <trkpt lat="45.93531" lon="4.87805">
        <ele>284</ele>
        <time>2017-12-20T10:11:31Z</time>
      </trkpt>
      <trkpt lat="45.93529" lon="4.87814">
        <ele>284</ele>
        <time>2017-12-20T10:11:32Z</time>
      </trkpt>
      <trkpt lat="45.93527" lon="4.87822">
        <ele>284</ele>
        <time>2017-12-20T10:11:33Z</time>
      </trkpt>
      <trkpt lat="45.93526" lon="4.8783">
        <ele>284</ele>
        <time>2017-12-20T10:11:34Z</time>
      </trkpt>
      <trkpt lat="45.93525" lon="4.87839">
        <ele>283</ele>
        <time>2017-12-20T10:11:35Z</time>
      </trkpt>
      <trkpt lat="45.93525" lon="4.87847">
        <ele>283</ele>
        <time>2017-12-20T10:11:36Z</time>
      </trkpt>
      <trkpt lat="45.93525" lon="4.87854">
        <ele>283</ele>
        <time>2017-12-20T10:11:37Z</time>
      </trkpt>
      <trkpt lat="45.93524" lon="4.87862">
        <ele>283</ele>
        <time>2017-12-20T10:11:38Z</time>
      </trkpt>
      <trkpt lat="45.93522" lon="4.87868">
        <ele>283</ele>
        <time>2017-12-20T10:11:39Z</time>
      </trkpt>
      <trkpt lat="45.93522" lon="4.87875">
        <ele>283</ele>
        <time>2017-12-20T10:11:40Z</time>
      </trkpt>
      <trkpt lat="45.93521" lon="4.87883">
        <ele>283</ele>
        <time>2017-12-20T10:11:41Z</time>
      </trkpt>
      <trkpt lat="45.9352" lon="4.87895">
        <ele>283</ele>
        <time>2017-12-20T10:11:43Z</time>
      </trkpt>
      <trkpt lat="45.93518" lon="4.87902">
        <ele>283</ele>
        <time>2017-12-20T10:11:44Z</time>
      </trkpt>
      <trkpt lat="45.93517" lon="4.87909">
        <ele>283</ele>
        <time>2017-12-20T10:11:45Z</time>
      </trkpt>
      <trkpt lat="45.93517" lon="4.87917">
        <ele>284</ele>
        <time>2017-12-20T10:11:46Z</time>
      </trkpt>
      <trkpt lat="45.93517" lon="4.87925">
        <ele>284</ele>
        <time>2017-12-20T10:11:47Z</time>
      </trkpt>
      <trkpt lat="45.93516" lon="4.87933">
        <ele>284</ele>
        <time>2017-12-20T10:11:48Z</time>
      </trkpt>
      <trkpt lat="45.93515" lon="4.87941">
        <ele>284</ele>
        <time>2017-12-20T10:11:49Z</time>
      </trkpt>
      <trkpt lat="45.93515" lon="4.87948">
        <ele>284</ele>
        <time>2017-12-20T10:11:50Z</time>
      </trkpt>
      <trkpt lat="45.93514" lon="4.87957">
        <ele>284</ele>
        <time>2017-12-20T10:11:51Z</time>
      </trkpt>
      <trkpt lat="45.93513" lon="4.87964">
        <ele>284</ele>
        <time>2017-12-20T10:11:52Z</time>
      </trkpt>
      <trkpt lat="45.93512" lon="4.87972">
        <ele>284</ele>
        <time>2017-12-20T10:11:53Z</time>
      </trkpt>
      <trkpt lat="45.93511" lon="4.8798">
        <ele>285</ele>
        <time>2017-12-20T10:11:54Z</time>
      </trkpt>
      <trkpt lat="45.93511" lon="4.87989">
        <ele>285</ele>
        <time>2017-12-20T10:11:55Z</time>
      </trkpt>
      <trkpt lat="45.9351" lon="4.87997">
        <ele>285</ele>
        <time>2017-12-20T10:11:56Z</time>
      </trkpt>
      <trkpt lat="45.9351" lon="4.88006">
        <ele>286</ele>
        <time>2017-12-20T10:11:57Z</time>
      </trkpt>
      <trkpt lat="45.93509" lon="4.88014">
        <ele>286</ele>
        <time>2017-12-20T10:11:58Z</time>
      </trkpt>
      <trkpt lat="45.93508" lon="4.88022">
        <ele>286</ele>
        <time>2017-12-20T10:11:59Z</time>
      </trkpt>
      <trkpt lat="45.93509" lon="4.8803">
        <ele>286</ele>
        <time>2017-12-20T10:12:00Z</time>
      </trkpt>
      <trkpt lat="45.93508" lon="4.88037">
        <ele>286</ele>
        <time>2017-12-20T10:12:01Z</time>
      </trkpt>
      <trkpt lat="45.93507" lon="4.88044">
        <ele>286</ele>
        <time>2017-12-20T10:12:02Z</time>
      </trkpt>
      <trkpt lat="45.93506" lon="4.88052">
        <ele>286</ele>
        <time>2017-12-20T10:12:03Z</time>
      </trkpt>
      <trkpt lat="45.93506" lon="4.88058">
        <ele>286</ele>
        <time>2017-12-20T10:12:04Z</time>
      </trkpt>
      <trkpt lat="45.93505" lon="4.88064">
        <ele>286</ele>
        <time>2017-12-20T10:12:05Z</time>
      </trkpt>
      <trkpt lat="45.93504" lon="4.88071">
        <ele>286</ele>
        <time>2017-12-20T10:12:06Z</time>
      </trkpt>
      <trkpt lat="45.93503" lon="4.88077">
        <ele>287</ele>
        <time>2017-12-20T10:12:07Z</time>
      </trkpt>
      <trkpt lat="45.93502" lon="4.88083">
        <ele>287</ele>
        <time>2017-12-20T10:12:08Z</time>
      </trkpt>
      <trkpt lat="45.935" lon="4.88096">
        <ele>287</ele>
        <time>2017-12-20T10:12:10Z</time>
      </trkpt>
      <trkpt lat="45.93498" lon="4.88102">
        <ele>288</ele>
        <time>2017-12-20T10:12:11Z</time>
      </trkpt>
      <trkpt lat="45.93496" lon="4.88109">
        <ele>288</ele>
        <time>2017-12-20T10:12:12Z</time>
      </trkpt>
      <trkpt lat="45.93494" lon="4.88114">
        <ele>288</ele>
        <time>2017-12-20T10:12:13Z</time>
      </trkpt>
      <trkpt lat="45.93493" lon="4.8812">
        <ele>288</ele>
        <time>2017-12-20T10:12:14Z</time>
      </trkpt>
      <trkpt lat="45.9349" lon="4.88127">
        <ele>288</ele>
        <time>2017-12-20T10:12:15Z</time>
      </trkpt>
      <trkpt lat="45.93488" lon="4.88132">
        <ele>288</ele>
        <time>2017-12-20T10:12:16Z</time>
      </trkpt>
      <trkpt lat="45.93486" lon="4.88139">
        <ele>288</ele>
        <time>2017-12-20T10:12:17Z</time>
      </trkpt>
      <trkpt lat="45.93485" lon="4.88146">
        <ele>288</ele>
        <time>2017-12-20T10:12:18Z</time>
      </trkpt>
      <trkpt lat="45.93484" lon="4.88153">
        <ele>288</ele>
        <time>2017-12-20T10:12:19Z</time>
      </trkpt>
      <trkpt lat="45.93484" lon="4.88161">
        <ele>288</ele>
        <time>2017-12-20T10:12:20Z</time>
      </trkpt>
      <trkpt lat="45.93484" lon="4.88168">
        <ele>288</ele>
        <time>2017-12-20T10:12:21Z</time>
      </trkpt>
      <trkpt lat="45.93483" lon="4.88175">
        <ele>288</ele>
        <time>2017-12-20T10:12:22Z</time>
      </trkpt>
      <trkpt lat="45.93482" lon="4.88183">
        <ele>288</ele>
        <time>2017-12-20T10:12:23Z</time>
      </trkpt>
      <trkpt lat="45.93481" lon="4.88191">
        <ele>289</ele>
        <time>2017-12-20T10:12:24Z</time>
      </trkpt>
      <trkpt lat="45.93479" lon="4.88198">
        <ele>289</ele>
        <time>2017-12-20T10:12:25Z</time>
      </trkpt>
      <trkpt lat="45.93476" lon="4.88205">
        <ele>289</ele>
        <time>2017-12-20T10:12:26Z</time>
      </trkpt>
      <trkpt lat="45.93474" lon="4.88212">
        <ele>289</ele>
        <time>2017-12-20T10:12:27Z</time>
      </trkpt>
      <trkpt lat="45.93474" lon="4.88219">
        <ele>289</ele>
        <time>2017-12-20T10:12:28Z</time>
      </trkpt>
      <trkpt lat="45.93474" lon="4.88225">
        <ele>289</ele>
        <time>2017-12-20T10:12:29Z</time>
      </trkpt>
      <trkpt lat="45.93478" lon="4.88235">
        <ele>289</ele>
        <time>2017-12-20T10:12:31Z</time>
      </trkpt>
      <trkpt lat="45.93481" lon="4.88239">
        <ele>289</ele>
        <time>2017-12-20T10:12:32Z</time>
      </trkpt>
      <trkpt lat="45.93488" lon="4.88243">
        <ele>289</ele>
        <time>2017-12-20T10:12:34Z</time>
      </trkpt>
      <trkpt lat="45.93492" lon="4.88244">
        <ele>289</ele>
        <time>2017-12-20T10:12:35Z</time>
      </trkpt>
      <trkpt lat="45.93498" lon="4.88242">
        <ele>289</ele>
        <time>2017-12-20T10:12:36Z</time>
      </trkpt>
      <trkpt lat="45.93502" lon="4.8824">
        <ele>288</ele>
        <time>2017-12-20T10:12:37Z</time>
      </trkpt>
      <trkpt lat="45.93507" lon="4.88236">
        <ele>288</ele>
        <time>2017-12-20T10:12:38Z</time>
      </trkpt>
      <trkpt lat="45.93511" lon="4.8823">
        <ele>288</ele>
        <time>2017-12-20T10:12:39Z</time>
      </trkpt>
      <trkpt lat="45.93519" lon="4.88225">
        <ele>288</ele>
        <time>2017-12-20T10:12:41Z</time>
      </trkpt>
      <trkpt lat="45.93523" lon="4.88223">
        <ele>288</ele>
        <time>2017-12-20T10:12:42Z</time>
      </trkpt>
      <trkpt lat="45.93531" lon="4.88222">
        <ele>287</ele>
        <time>2017-12-20T10:12:44Z</time>
      </trkpt>
      <trkpt lat="45.93535" lon="4.88222">
        <ele>287</ele>
        <time>2017-12-20T10:12:45Z</time>
      </trkpt>
      <trkpt lat="45.9354" lon="4.8822">
        <ele>287</ele>
        <time>2017-12-20T10:12:46Z</time>
      </trkpt>
      <trkpt lat="45.93544" lon="4.88219">
        <ele>287</ele>
        <time>2017-12-20T10:12:47Z</time>
      </trkpt>
      <trkpt lat="45.9355" lon="4.88219">
        <ele>287</ele>
        <time>2017-12-20T10:12:48Z</time>
      </trkpt>
      <trkpt lat="45.93555" lon="4.88219">
        <ele>287</ele>
        <time>2017-12-20T10:12:49Z</time>
      </trkpt>
      <trkpt lat="45.9356" lon="4.88218">
        <ele>287</ele>
        <time>2017-12-20T10:12:50Z</time>
      </trkpt>
      <trkpt lat="45.93565" lon="4.88218">
        <ele>287</ele>
        <time>2017-12-20T10:12:51Z</time>
      </trkpt>
      <trkpt lat="45.93571" lon="4.88216">
        <ele>287</ele>
        <time>2017-12-20T10:12:52Z</time>
      </trkpt>
      <trkpt lat="45.93576" lon="4.88216">
        <ele>287</ele>
        <time>2017-12-20T10:12:53Z</time>
      </trkpt>
      <trkpt lat="45.93581" lon="4.88215">
        <ele>287</ele>
        <time>2017-12-20T10:12:54Z</time>
      </trkpt>
      <trkpt lat="45.93586" lon="4.88216">
        <ele>286</ele>
        <time>2017-12-20T10:12:55Z</time>
      </trkpt>
      <trkpt lat="45.93591" lon="4.88216">
        <ele>286</ele>
        <time>2017-12-20T10:12:56Z</time>
      </trkpt>
      <trkpt lat="45.93596" lon="4.88216">
        <ele>285</ele>
        <time>2017-12-20T10:12:57Z</time>
      </trkpt>
      <trkpt lat="45.936" lon="4.88216">
        <ele>285</ele>
        <time>2017-12-20T10:12:58Z</time>
      </trkpt>
      <trkpt lat="45.93605" lon="4.88216">
        <ele>285</ele>
        <time>2017-12-20T10:12:59Z</time>
      </trkpt>
      <trkpt lat="45.93614" lon="4.88216">
        <ele>285</ele>
        <time>2017-12-20T10:13:01Z</time>
      </trkpt>
      <trkpt lat="45.93618" lon="4.88216">
        <ele>285</ele>
        <time>2017-12-20T10:13:02Z</time>
      </trkpt>
      <trkpt lat="45.93623" lon="4.88216">
        <ele>285</ele>
        <time>2017-12-20T10:13:03Z</time>
      </trkpt>
      <trkpt lat="45.93628" lon="4.88216">
        <ele>285</ele>
        <time>2017-12-20T10:13:04Z</time>
      </trkpt>
      <trkpt lat="45.93633" lon="4.88217">
        <ele>285</ele>
        <time>2017-12-20T10:13:05Z</time>
      </trkpt>
      <trkpt lat="45.93638" lon="4.88218">
        <ele>285</ele>
        <time>2017-12-20T10:13:06Z</time>
      </trkpt>
      <trkpt lat="45.93643" lon="4.88217">
        <ele>285</ele>
        <time>2017-12-20T10:13:07Z</time>
      </trkpt>
      <trkpt lat="45.93648" lon="4.88216">
        <ele>285</ele>
        <time>2017-12-20T10:13:08Z</time>
      </trkpt>
      <trkpt lat="45.93653" lon="4.88217">
        <ele>285</ele>
        <time>2017-12-20T10:13:09Z</time>
      </trkpt>
      <trkpt lat="45.93658" lon="4.88217">
        <ele>285</ele>
        <time>2017-12-20T10:13:10Z</time>
      </trkpt>
      <trkpt lat="45.93662" lon="4.88217">
        <ele>285</ele>
        <time>2017-12-20T10:13:11Z</time>
      </trkpt>
      <trkpt lat="45.93667" lon="4.88217">
        <ele>285</ele>
        <time>2017-12-20T10:13:12Z</time>
      </trkpt>
      <trkpt lat="45.93672" lon="4.88217">
        <ele>285</ele>
        <time>2017-12-20T10:13:13Z</time>
      </trkpt>
      <trkpt lat="45.93676" lon="4.88217">
        <ele>285</ele>
        <time>2017-12-20T10:13:14Z</time>
      </trkpt>
      <trkpt lat="45.93681" lon="4.88216">
        <ele>285</ele>
        <time>2017-12-20T10:13:15Z</time>
      </trkpt>
      <trkpt lat="45.93687" lon="4.88216">
        <ele>285</ele>
        <time>2017-12-20T10:13:16Z</time>
      </trkpt>
      <trkpt lat="45.93692" lon="4.88215">
        <ele>285</ele>
        <time>2017-12-20T10:13:17Z</time>
      </trkpt>
      <trkpt lat="45.93697" lon="4.88215">
        <ele>285</ele>
        <time>2017-12-20T10:13:18Z</time>
      </trkpt>
      <trkpt lat="45.93702" lon="4.88215">
        <ele>285</ele>
        <time>2017-12-20T10:13:19Z</time>
      </trkpt>
      <trkpt lat="45.93707" lon="4.88215">
        <ele>285</ele>
        <time>2017-12-20T10:13:20Z</time>
      </trkpt>
      <trkpt lat="45.93712" lon="4.88217">
        <ele>285</ele>
        <time>2017-12-20T10:13:21Z</time>
      </trkpt>
      <trkpt lat="45.93717" lon="4.88216">
        <ele>285</ele>
        <time>2017-12-20T10:13:22Z</time>
      </trkpt>
      <trkpt lat="45.93725" lon="4.88218">
        <ele>286</ele>
        <time>2017-12-20T10:13:24Z</time>
      </trkpt>
      <trkpt lat="45.9373" lon="4.88218">
        <ele>286</ele>
        <time>2017-12-20T10:13:25Z</time>
      </trkpt>
      <trkpt lat="45.93739" lon="4.88218">
        <ele>286</ele>
        <time>2017-12-20T10:13:27Z</time>
      </trkpt>
      <trkpt lat="45.93744" lon="4.88219">
        <ele>286</ele>
        <time>2017-12-20T10:13:28Z</time>
      </trkpt>
      <trkpt lat="45.93748" lon="4.88219">
        <ele>286</ele>
        <time>2017-12-20T10:13:29Z</time>
      </trkpt>
      <trkpt lat="45.93753" lon="4.88219">
        <ele>287</ele>
        <time>2017-12-20T10:13:30Z</time>
      </trkpt>
      <trkpt lat="45.93757" lon="4.8822">
        <ele>287</ele>
        <time>2017-12-20T10:13:31Z</time>
      </trkpt>
      <trkpt lat="45.93763" lon="4.8822">
        <ele>287</ele>
        <time>2017-12-20T10:13:32Z</time>
      </trkpt>
      <trkpt lat="45.93767" lon="4.88221">
        <ele>287</ele>
        <time>2017-12-20T10:13:33Z</time>
      </trkpt>
      <trkpt lat="45.93773" lon="4.88221">
        <ele>287</ele>
        <time>2017-12-20T10:13:34Z</time>
      </trkpt>
      <trkpt lat="45.93778" lon="4.88221">
        <ele>287</ele>
        <time>2017-12-20T10:13:35Z</time>
      </trkpt>
      <trkpt lat="45.93783" lon="4.88221">
        <ele>288</ele>
        <time>2017-12-20T10:13:36Z</time>
      </trkpt>
      <trkpt lat="45.93788" lon="4.88222">
        <ele>288</ele>
        <time>2017-12-20T10:13:37Z</time>
      </trkpt>
      <trkpt lat="45.93794" lon="4.88221">
        <ele>288</ele>
        <time>2017-12-20T10:13:38Z</time>
      </trkpt>
      <trkpt lat="45.93799" lon="4.8822">
        <ele>288</ele>
        <time>2017-12-20T10:13:39Z</time>
      </trkpt>
      <trkpt lat="45.93805" lon="4.8822">
        <ele>288</ele>
        <time>2017-12-20T10:13:40Z</time>
      </trkpt>
      <trkpt lat="45.93809" lon="4.88221">
        <ele>288</ele>
        <time>2017-12-20T10:13:41Z</time>
      </trkpt>
      <trkpt lat="45.93815" lon="4.88221">
        <ele>288</ele>
        <time>2017-12-20T10:13:42Z</time>
      </trkpt>
      <trkpt lat="45.9382" lon="4.8822">
        <ele>288</ele>
        <time>2017-12-20T10:13:43Z</time>
      </trkpt>
      <trkpt lat="45.93825" lon="4.88221">
        <ele>288</ele>
        <time>2017-12-20T10:13:44Z</time>
      </trkpt>
      <trkpt lat="45.9383" lon="4.88221">
        <ele>289</ele>
        <time>2017-12-20T10:13:45Z</time>
      </trkpt>
      <trkpt lat="45.93835" lon="4.88221">
        <ele>289</ele>
        <time>2017-12-20T10:13:46Z</time>
      </trkpt>
      <trkpt lat="45.9384" lon="4.8822">
        <ele>289</ele>
        <time>2017-12-20T10:13:47Z</time>
      </trkpt>
      <trkpt lat="45.93844" lon="4.88221">
        <ele>289</ele>
        <time>2017-12-20T10:13:48Z</time>
      </trkpt>
      <trkpt lat="45.93849" lon="4.88221">
        <ele>289</ele>
        <time>2017-12-20T10:13:49Z</time>
      </trkpt>
      <trkpt lat="45.93854" lon="4.88222">
        <ele>289</ele>
        <time>2017-12-20T10:13:50Z</time>
      </trkpt>
      <trkpt lat="45.93859" lon="4.88222">
        <ele>289</ele>
        <time>2017-12-20T10:13:51Z</time>
      </trkpt>
      <trkpt lat="45.93863" lon="4.88221">
        <ele>289</ele>
        <time>2017-12-20T10:13:52Z</time>
      </trkpt>
      <trkpt lat="45.93869" lon="4.88219">
        <ele>289</ele>
        <time>2017-12-20T10:13:53Z</time>
      </trkpt>
      <trkpt lat="45.93875" lon="4.88218">
        <ele>289</ele>
        <time>2017-12-20T10:13:54Z</time>
      </trkpt>
      <trkpt lat="45.9388" lon="4.88218">
        <ele>289</ele>
        <time>2017-12-20T10:13:55Z</time>
      </trkpt>
      <trkpt lat="45.93884" lon="4.88218">
        <ele>289</ele>
        <time>2017-12-20T10:13:56Z</time>
      </trkpt>
      <trkpt lat="45.93889" lon="4.88219">
        <ele>289</ele>
        <time>2017-12-20T10:13:57Z</time>
      </trkpt>
      <trkpt lat="45.93893" lon="4.88218">
        <ele>289</ele>
        <time>2017-12-20T10:13:58Z</time>
      </trkpt>
      <trkpt lat="45.93902" lon="4.88218">
        <ele>289</ele>
        <time>2017-12-20T10:14:00Z</time>
      </trkpt>
      <trkpt lat="45.93906" lon="4.88218">
        <ele>289</ele>
        <time>2017-12-20T10:14:01Z</time>
      </trkpt>
      <trkpt lat="45.93915" lon="4.88218">
        <ele>289</ele>
        <time>2017-12-20T10:14:03Z</time>
      </trkpt>
      <trkpt lat="45.93921" lon="4.88218">
        <ele>287</ele>
        <time>2017-12-20T10:14:04Z</time>
      </trkpt>
      <trkpt lat="45.93926" lon="4.88217">
        <ele>287</ele>
        <time>2017-12-20T10:14:05Z</time>
      </trkpt>
      <trkpt lat="45.93931" lon="4.88217">
        <ele>287</ele>
        <time>2017-12-20T10:14:06Z</time>
      </trkpt>
      <trkpt lat="45.93936" lon="4.88217">
        <ele>287</ele>
        <time>2017-12-20T10:14:07Z</time>
      </trkpt>
      <trkpt lat="45.93942" lon="4.88217">
        <ele>287</ele>
        <time>2017-12-20T10:14:08Z</time>
      </trkpt>
      <trkpt lat="45.93948" lon="4.88217">
        <ele>287</ele>
        <time>2017-12-20T10:14:09Z</time>
      </trkpt>
      <trkpt lat="45.93953" lon="4.88218">
        <ele>287</ele>
        <time>2017-12-20T10:14:10Z</time>
      </trkpt>
      <trkpt lat="45.9396" lon="4.88218">
        <ele>286</ele>
        <time>2017-12-20T10:14:11Z</time>
      </trkpt>
      <trkpt lat="45.93965" lon="4.88218">
        <ele>286</ele>
        <time>2017-12-20T10:14:12Z</time>
      </trkpt>
      <trkpt lat="45.93973" lon="4.88219">
        <ele>286</ele>
        <time>2017-12-20T10:14:13Z</time>
      </trkpt>
      <trkpt lat="45.93979" lon="4.8822">
        <ele>286</ele>
        <time>2017-12-20T10:14:14Z</time>
      </trkpt>
      <trkpt lat="45.93985" lon="4.88221">
        <ele>286</ele>
        <time>2017-12-20T10:14:15Z</time>
      </trkpt>
      <trkpt lat="45.9399" lon="4.8822">
        <ele>286</ele>
        <time>2017-12-20T10:14:16Z</time>
      </trkpt>
      <trkpt lat="45.93996" lon="4.88222">
        <ele>286</ele>
        <time>2017-12-20T10:14:17Z</time>
      </trkpt>
      <trkpt lat="45.94001" lon="4.88224">
        <ele>284</ele>
        <time>2017-12-20T10:14:18Z</time>
      </trkpt>
      <trkpt lat="45.94007" lon="4.88224">
        <ele>284</ele>
        <time>2017-12-20T10:14:19Z</time>
      </trkpt>
      <trkpt lat="45.94012" lon="4.88225">
        <ele>284</ele>
        <time>2017-12-20T10:14:20Z</time>
      </trkpt>
      <trkpt lat="45.94018" lon="4.88226">
        <ele>284</ele>
        <time>2017-12-20T10:14:21Z</time>
      </trkpt>
      <trkpt lat="45.94023" lon="4.88227">
        <ele>284</ele>
        <time>2017-12-20T10:14:22Z</time>
      </trkpt>
      <trkpt lat="45.94029" lon="4.88227">
        <ele>283</ele>
        <time>2017-12-20T10:14:23Z</time>
      </trkpt>
      <trkpt lat="45.94034" lon="4.88228">
        <ele>283</ele>
        <time>2017-12-20T10:14:24Z</time>
      </trkpt>
      <trkpt lat="45.9404" lon="4.88229">
        <ele>283</ele>
        <time>2017-12-20T10:14:25Z</time>
      </trkpt>
      <trkpt lat="45.94045" lon="4.8823">
        <ele>283</ele>
        <time>2017-12-20T10:14:26Z</time>
      </trkpt>
      <trkpt lat="45.9405" lon="4.88232">
        <ele>283</ele>
        <time>2017-12-20T10:14:27Z</time>
      </trkpt>
      <trkpt lat="45.94056" lon="4.88233">
        <ele>283</ele>
        <time>2017-12-20T10:14:28Z</time>
      </trkpt>
      <trkpt lat="45.94061" lon="4.88233">
        <ele>283</ele>
        <time>2017-12-20T10:14:29Z</time>
      </trkpt>
      <trkpt lat="45.94066" lon="4.88233">
        <ele>282</ele>
        <time>2017-12-20T10:14:30Z</time>
      </trkpt>
      <trkpt lat="45.94071" lon="4.88234">
        <ele>282</ele>
        <time>2017-12-20T10:14:31Z</time>
      </trkpt>
      <trkpt lat="45.94076" lon="4.88234">
        <ele>282</ele>
        <time>2017-12-20T10:14:32Z</time>
      </trkpt>
      <trkpt lat="45.94084" lon="4.88237">
        <ele>281</ele>
        <time>2017-12-20T10:14:34Z</time>
      </trkpt>
      <trkpt lat="45.94089" lon="4.88238">
        <ele>281</ele>
        <time>2017-12-20T10:14:35Z</time>
      </trkpt>
      <trkpt lat="45.94093" lon="4.88239">
        <ele>281</ele>
        <time>2017-12-20T10:14:36Z</time>
      </trkpt>
      <trkpt lat="45.94099" lon="4.8824">
        <ele>281</ele>
        <time>2017-12-20T10:14:37Z</time>
      </trkpt>
      <trkpt lat="45.94105" lon="4.88241">
        <ele>281</ele>
        <time>2017-12-20T10:14:38Z</time>
      </trkpt>
      <trkpt lat="45.9411" lon="4.88241">
        <ele>280</ele>
        <time>2017-12-20T10:14:39Z</time>
      </trkpt>
      <trkpt lat="45.94116" lon="4.88241">
        <ele>280</ele>
        <time>2017-12-20T10:14:40Z</time>
      </trkpt>
      <trkpt lat="45.94122" lon="4.88242">
        <ele>280</ele>
        <time>2017-12-20T10:14:41Z</time>
      </trkpt>
      <trkpt lat="45.94128" lon="4.88242">
        <ele>280</ele>
        <time>2017-12-20T10:14:42Z</time>
      </trkpt>
      <trkpt lat="45.94134" lon="4.88242">
        <ele>280</ele>
        <time>2017-12-20T10:14:43Z</time>
      </trkpt>
      <trkpt lat="45.9414" lon="4.88243">
        <ele>280</ele>
        <time>2017-12-20T10:14:44Z</time>
      </trkpt>
      <trkpt lat="45.94146" lon="4.88244">
        <ele>280</ele>
        <time>2017-12-20T10:14:45Z</time>
      </trkpt>
      <trkpt lat="45.94152" lon="4.88245">
        <ele>279</ele>
        <time>2017-12-20T10:14:46Z</time>
      </trkpt>
      <trkpt lat="45.94156" lon="4.88247">
        <ele>279</ele>
        <time>2017-12-20T10:14:47Z</time>
      </trkpt>
      <trkpt lat="45.94162" lon="4.88248">
        <ele>279</ele>
        <time>2017-12-20T10:14:48Z</time>
      </trkpt>
      <trkpt lat="45.94168" lon="4.88247">
        <ele>279</ele>
        <time>2017-12-20T10:14:49Z</time>
      </trkpt>
      <trkpt lat="45.94173" lon="4.88248">
        <ele>279</ele>
        <time>2017-12-20T10:14:50Z</time>
      </trkpt>
      <trkpt lat="45.94178" lon="4.88249">
        <ele>279</ele>
        <time>2017-12-20T10:14:51Z</time>
      </trkpt>
      <trkpt lat="45.94184" lon="4.8825">
        <ele>279</ele>
        <time>2017-12-20T10:14:52Z</time>
      </trkpt>
      <trkpt lat="45.94189" lon="4.88251">
        <ele>279</ele>
        <time>2017-12-20T10:14:53Z</time>
      </trkpt>
      <trkpt lat="45.94195" lon="4.88252">
        <ele>279</ele>
        <time>2017-12-20T10:14:54Z</time>
      </trkpt>
      <trkpt lat="45.94201" lon="4.88252">
        <ele>279</ele>
        <time>2017-12-20T10:14:55Z</time>
      </trkpt>
      <trkpt lat="45.94207" lon="4.88253">
        <ele>279</ele>
        <time>2017-12-20T10:14:56Z</time>
      </trkpt>
      <trkpt lat="45.94213" lon="4.88254">
        <ele>279</ele>
        <time>2017-12-20T10:14:57Z</time>
      </trkpt>
      <trkpt lat="45.94219" lon="4.88255">
        <ele>279</ele>
        <time>2017-12-20T10:14:58Z</time>
      </trkpt>
      <trkpt lat="45.94225" lon="4.88256">
        <ele>279</ele>
        <time>2017-12-20T10:14:59Z</time>
      </trkpt>
      <trkpt lat="45.94231" lon="4.88256">
        <ele>279</ele>
        <time>2017-12-20T10:15:00Z</time>
      </trkpt>
      <trkpt lat="45.94237" lon="4.88257">
        <ele>279</ele>
        <time>2017-12-20T10:15:01Z</time>
      </trkpt>
      <trkpt lat="45.94241" lon="4.88259">
        <ele>278</ele>
        <time>2017-12-20T10:15:02Z</time>
      </trkpt>
      <trkpt lat="45.94247" lon="4.88259">
        <ele>278</ele>
        <time>2017-12-20T10:15:03Z</time>
      </trkpt>
      <trkpt lat="45.94252" lon="4.8826">
        <ele>278</ele>
        <time>2017-12-20T10:15:04Z</time>
      </trkpt>
      <trkpt lat="45.94257" lon="4.88261">
        <ele>278</ele>
        <time>2017-12-20T10:15:05Z</time>
      </trkpt>
      <trkpt lat="45.94262" lon="4.8826">
        <ele>278</ele>
        <time>2017-12-20T10:15:06Z</time>
      </trkpt>
      <trkpt lat="45.94267" lon="4.8826">
        <ele>278</ele>
        <time>2017-12-20T10:15:07Z</time>
      </trkpt>
      <trkpt lat="45.94271" lon="4.88262">
        <ele>278</ele>
        <time>2017-12-20T10:15:08Z</time>
      </trkpt>
      <trkpt lat="45.94276" lon="4.88261">
        <ele>278</ele>
        <time>2017-12-20T10:15:09Z</time>
      </trkpt>
      <trkpt lat="45.9428" lon="4.88262">
        <ele>278</ele>
        <time>2017-12-20T10:15:10Z</time>
      </trkpt>
      <trkpt lat="45.94285" lon="4.88262">
        <ele>277</ele>
        <time>2017-12-20T10:15:11Z</time>
      </trkpt>
      <trkpt lat="45.94294" lon="4.88265">
        <ele>277</ele>
        <time>2017-12-20T10:15:13Z</time>
      </trkpt>
      <trkpt lat="45.94299" lon="4.88266">
        <ele>277</ele>
        <time>2017-12-20T10:15:14Z</time>
      </trkpt>
      <trkpt lat="45.94304" lon="4.88267">
        <ele>277</ele>
        <time>2017-12-20T10:15:15Z</time>
      </trkpt>
      <trkpt lat="45.94309" lon="4.88267">
        <ele>277</ele>
        <time>2017-12-20T10:15:16Z</time>
      </trkpt>
      <trkpt lat="45.94314" lon="4.88268">
        <ele>277</ele>
        <time>2017-12-20T10:15:17Z</time>
      </trkpt>
      <trkpt lat="45.94319" lon="4.88268">
        <ele>277</ele>
        <time>2017-12-20T10:15:18Z</time>
      </trkpt>
      <trkpt lat="45.94325" lon="4.88269">
        <ele>277</ele>
        <time>2017-12-20T10:15:19Z</time>
      </trkpt>
      <trkpt lat="45.9433" lon="4.88271">
        <ele>277</ele>
        <time>2017-12-20T10:15:20Z</time>
      </trkpt>
      <trkpt lat="45.94335" lon="4.88272">
        <ele>276</ele>
        <time>2017-12-20T10:15:21Z</time>
      </trkpt>
      <trkpt lat="45.94341" lon="4.88272">
        <ele>276</ele>
        <time>2017-12-20T10:15:22Z</time>
      </trkpt>
      <trkpt lat="45.94346" lon="4.88273">
        <ele>276</ele>
        <time>2017-12-20T10:15:23Z</time>
      </trkpt>
      <trkpt lat="45.94351" lon="4.88274">
        <ele>276</ele>
        <time>2017-12-20T10:15:24Z</time>
      </trkpt>
      <trkpt lat="45.94357" lon="4.88274">
        <ele>276</ele>
        <time>2017-12-20T10:15:25Z</time>
      </trkpt>
      <trkpt lat="45.94363" lon="4.88275">
        <ele>276</ele>
        <time>2017-12-20T10:15:26Z</time>
      </trkpt>
      <trkpt lat="45.94368" lon="4.88276">
        <ele>276</ele>
        <time>2017-12-20T10:15:27Z</time>
      </trkpt>
      <trkpt lat="45.94372" lon="4.88276">
        <ele>276</ele>
        <time>2017-12-20T10:15:28Z</time>
      </trkpt>
      <trkpt lat="45.94381" lon="4.88277">
        <ele>276</ele>
        <time>2017-12-20T10:15:30Z</time>
      </trkpt>
      <trkpt lat="45.94385" lon="4.88278">
        <ele>276</ele>
        <time>2017-12-20T10:15:31Z</time>
      </trkpt>
      <trkpt lat="45.94394" lon="4.8828">
        <ele>276</ele>
        <time>2017-12-20T10:15:33Z</time>
      </trkpt>
      <trkpt lat="45.94398" lon="4.8828">
        <ele>276</ele>
        <time>2017-12-20T10:15:34Z</time>
      </trkpt>
      <trkpt lat="45.94403" lon="4.88281">
        <ele>276</ele>
        <time>2017-12-20T10:15:35Z</time>
      </trkpt>
      <trkpt lat="45.94407" lon="4.88282">
        <ele>276</ele>
        <time>2017-12-20T10:15:36Z</time>
      </trkpt>
      <trkpt lat="45.94412" lon="4.88283">
        <ele>276</ele>
        <time>2017-12-20T10:15:37Z</time>
      </trkpt>
      <trkpt lat="45.94417" lon="4.88284">
        <ele>276</ele>
        <time>2017-12-20T10:15:38Z</time>
      </trkpt>
      <trkpt lat="45.94422" lon="4.88284">
        <ele>276</ele>
        <time>2017-12-20T10:15:39Z</time>
      </trkpt>
      <trkpt lat="45.94428" lon="4.88286">
        <ele>276</ele>
        <time>2017-12-20T10:15:40Z</time>
      </trkpt>
      <trkpt lat="45.94433" lon="4.88287">
        <ele>276</ele>
        <time>2017-12-20T10:15:41Z</time>
      </trkpt>
      <trkpt lat="45.94439" lon="4.88288">
        <ele>276</ele>
        <time>2017-12-20T10:15:42Z</time>
      </trkpt>
      <trkpt lat="45.94444" lon="4.88289">
        <ele>276</ele>
        <time>2017-12-20T10:15:43Z</time>
      </trkpt>
      <trkpt lat="45.94449" lon="4.8829">
        <ele>276</ele>
        <time>2017-12-20T10:15:44Z</time>
      </trkpt>
      <trkpt lat="45.94454" lon="4.88291">
        <ele>276</ele>
        <time>2017-12-20T10:15:45Z</time>
      </trkpt>
      <trkpt lat="45.9446" lon="4.88292">
        <ele>276</ele>
        <time>2017-12-20T10:15:46Z</time>
      </trkpt>
      <trkpt lat="45.94465" lon="4.88293">
        <ele>276</ele>
        <time>2017-12-20T10:15:47Z</time>
      </trkpt>
      <trkpt lat="45.94471" lon="4.88293">
        <ele>276</ele>
        <time>2017-12-20T10:15:48Z</time>
      </trkpt>
      <trkpt lat="45.94476" lon="4.88294">
        <ele>276</ele>
        <time>2017-12-20T10:15:49Z</time>
      </trkpt>
      <trkpt lat="45.94482" lon="4.88295">
        <ele>276</ele>
        <time>2017-12-20T10:15:50Z</time>
      </trkpt>
      <trkpt lat="45.94486" lon="4.88295">
        <ele>276</ele>
        <time>2017-12-20T10:15:51Z</time>
      </trkpt>
      <trkpt lat="45.94491" lon="4.88295">
        <ele>276</ele>
        <time>2017-12-20T10:15:52Z</time>
      </trkpt>
      <trkpt lat="45.94496" lon="4.88294">
        <ele>276</ele>
        <time>2017-12-20T10:15:53Z</time>
      </trkpt>
      <trkpt lat="45.945" lon="4.88295">
        <ele>275</ele>
        <time>2017-12-20T10:15:54Z</time>
      </trkpt>
      <trkpt lat="45.94505" lon="4.88295">
        <ele>275</ele>
        <time>2017-12-20T10:15:55Z</time>
      </trkpt>
      <trkpt lat="45.9451" lon="4.88296">
        <ele>275</ele>
        <time>2017-12-20T10:15:56Z</time>
      </trkpt>
      <trkpt lat="45.94516" lon="4.88297">
        <ele>275</ele>
        <time>2017-12-20T10:15:57Z</time>
      </trkpt>
      <trkpt lat="45.94521" lon="4.88297">
        <ele>275</ele>
        <time>2017-12-20T10:15:58Z</time>
      </trkpt>
      <trkpt lat="45.94529" lon="4.883">
        <ele>275</ele>
        <time>2017-12-20T10:16:00Z</time>
      </trkpt>
      <trkpt lat="45.94535" lon="4.88301">
        <ele>275</ele>
        <time>2017-12-20T10:16:01Z</time>
      </trkpt>
      <trkpt lat="45.94539" lon="4.88302">
        <ele>275</ele>
        <time>2017-12-20T10:16:02Z</time>
      </trkpt>
      <trkpt lat="45.94544" lon="4.88302">
        <ele>275</ele>
        <time>2017-12-20T10:16:03Z</time>
      </trkpt>
      <trkpt lat="45.9455" lon="4.88303">
        <ele>275</ele>
        <time>2017-12-20T10:16:04Z</time>
      </trkpt>
      <trkpt lat="45.94554" lon="4.88304">
        <ele>275</ele>
        <time>2017-12-20T10:16:05Z</time>
      </trkpt>
      <trkpt lat="45.94559" lon="4.88304">
        <ele>275</ele>
        <time>2017-12-20T10:16:06Z</time>
      </trkpt>
      <trkpt lat="45.94563" lon="4.88305">
        <ele>275</ele>
        <time>2017-12-20T10:16:07Z</time>
      </trkpt>
      <trkpt lat="45.94572" lon="4.88306">
        <ele>275</ele>
        <time>2017-12-20T10:16:09Z</time>
      </trkpt>
      <trkpt lat="45.94576" lon="4.88307">
        <ele>275</ele>
        <time>2017-12-20T10:16:10Z</time>
      </trkpt>
      <trkpt lat="45.94581" lon="4.88308">
        <ele>275</ele>
        <time>2017-12-20T10:16:11Z</time>
      </trkpt>
      <trkpt lat="45.94585" lon="4.88309">
        <ele>275</ele>
        <time>2017-12-20T10:16:12Z</time>
      </trkpt>
      <trkpt lat="45.9459" lon="4.88309">
        <ele>275</ele>
        <time>2017-12-20T10:16:13Z</time>
      </trkpt>
      <trkpt lat="45.94594" lon="4.8831">
        <ele>275</ele>
        <time>2017-12-20T10:16:14Z</time>
      </trkpt>
      <trkpt lat="45.94603" lon="4.8831">
        <ele>275</ele>
        <time>2017-12-20T10:16:16Z</time>
      </trkpt>
      <trkpt lat="45.94607" lon="4.88311">
        <ele>275</ele>
        <time>2017-12-20T10:16:17Z</time>
      </trkpt>
      <trkpt lat="45.94616" lon="4.88313">
        <ele>275</ele>
        <time>2017-12-20T10:16:19Z</time>
      </trkpt>
      <trkpt lat="45.9462" lon="4.88313">
        <ele>275</ele>
        <time>2017-12-20T10:16:20Z</time>
      </trkpt>
      <trkpt lat="45.94624" lon="4.88314">
        <ele>275</ele>
        <time>2017-12-20T10:16:21Z</time>
      </trkpt>
      <trkpt lat="45.9463" lon="4.88315">
        <ele>276</ele>
        <time>2017-12-20T10:16:22Z</time>
      </trkpt>
      <trkpt lat="45.94634" lon="4.88315">
        <ele>276</ele>
        <time>2017-12-20T10:16:23Z</time>
      </trkpt>
      <trkpt lat="45.94639" lon="4.88316">
        <ele>276</ele>
        <time>2017-12-20T10:16:24Z</time>
      </trkpt>
      <trkpt lat="45.94644" lon="4.88317">
        <ele>276</ele>
        <time>2017-12-20T10:16:25Z</time>
      </trkpt>
      <trkpt lat="45.94649" lon="4.88317">
        <ele>276</ele>
        <time>2017-12-20T10:16:26Z</time>
      </trkpt>
      <trkpt lat="45.94654" lon="4.88318">
        <ele>276</ele>
        <time>2017-12-20T10:16:27Z</time>
      </trkpt>
      <trkpt lat="45.94659" lon="4.8832">
        <ele>276</ele>
        <time>2017-12-20T10:16:28Z</time>
      </trkpt>
      <trkpt lat="45.94664" lon="4.88322">
        <ele>276</ele>
        <time>2017-12-20T10:16:29Z</time>
      </trkpt>
      <trkpt lat="45.94669" lon="4.88322">
        <ele>276</ele>
        <time>2017-12-20T10:16:30Z</time>
      </trkpt>
      <trkpt lat="45.94678" lon="4.88323">
        <ele>276</ele>
        <time>2017-12-20T10:16:32Z</time>
      </trkpt>
      <trkpt lat="45.94682" lon="4.88324">
        <ele>276</ele>
        <time>2017-12-20T10:16:33Z</time>
      </trkpt>
      <trkpt lat="45.94686" lon="4.88325">
        <ele>276</ele>
        <time>2017-12-20T10:16:34Z</time>
      </trkpt>
      <trkpt lat="45.94692" lon="4.88325">
        <ele>276</ele>
        <time>2017-12-20T10:16:35Z</time>
      </trkpt>
      <trkpt lat="45.94697" lon="4.88325">
        <ele>276</ele>
        <time>2017-12-20T10:16:36Z</time>
      </trkpt>
      <trkpt lat="45.94701" lon="4.88326">
        <ele>276</ele>
        <time>2017-12-20T10:16:37Z</time>
      </trkpt>
      <trkpt lat="45.9471" lon="4.88326">
        <ele>276</ele>
        <time>2017-12-20T10:16:39Z</time>
      </trkpt>
      <trkpt lat="45.94715" lon="4.88327">
        <ele>276</ele>
        <time>2017-12-20T10:16:40Z</time>
      </trkpt>
      <trkpt lat="45.94723" lon="4.88329">
        <ele>276</ele>
        <time>2017-12-20T10:16:42Z</time>
      </trkpt>
      <trkpt lat="45.94727" lon="4.8833">
        <ele>277</ele>
        <time>2017-12-20T10:16:43Z</time>
      </trkpt>
      <trkpt lat="45.94732" lon="4.88331">
        <ele>277</ele>
        <time>2017-12-20T10:16:44Z</time>
      </trkpt>
      <trkpt lat="45.94736" lon="4.88333">
        <ele>277</ele>
        <time>2017-12-20T10:16:45Z</time>
      </trkpt>
      <trkpt lat="45.94741" lon="4.88333">
        <ele>277</ele>
        <time>2017-12-20T10:16:46Z</time>
      </trkpt>
      <trkpt lat="45.94746" lon="4.88334">
        <ele>277</ele>
        <time>2017-12-20T10:16:47Z</time>
      </trkpt>
      <trkpt lat="45.94754" lon="4.88335">
        <ele>277</ele>
        <time>2017-12-20T10:16:49Z</time>
      </trkpt>
      <trkpt lat="45.94758" lon="4.88335">
        <ele>277</ele>
        <time>2017-12-20T10:16:50Z</time>
      </trkpt>
      <trkpt lat="45.94763" lon="4.88336">
        <ele>277</ele>
        <time>2017-12-20T10:16:51Z</time>
      </trkpt>
      <trkpt lat="45.94767" lon="4.88337">
        <ele>277</ele>
        <time>2017-12-20T10:16:52Z</time>
      </trkpt>
      <trkpt lat="45.94776" lon="4.88339">
        <ele>278</ele>
        <time>2017-12-20T10:16:54Z</time>
      </trkpt>
      <trkpt lat="45.94779" lon="4.8834">
        <ele>278</ele>
        <time>2017-12-20T10:16:55Z</time>
      </trkpt>
      <trkpt lat="45.94785" lon="4.8834">
        <ele>278</ele>
        <time>2017-12-20T10:16:56Z</time>
      </trkpt>
      <trkpt lat="45.94789" lon="4.8834">
        <ele>278</ele>
        <time>2017-12-20T10:16:57Z</time>
      </trkpt>
      <trkpt lat="45.94793" lon="4.88341">
        <ele>278</ele>
        <time>2017-12-20T10:16:58Z</time>
      </trkpt>
      <trkpt lat="45.94798" lon="4.8834">
        <ele>278</ele>
        <time>2017-12-20T10:16:59Z</time>
      </trkpt>
      <trkpt lat="45.94806" lon="4.88341">
        <ele>278</ele>
        <time>2017-12-20T10:17:01Z</time>
      </trkpt>
      <trkpt lat="45.9481" lon="4.88342">
        <ele>278</ele>
        <time>2017-12-20T10:17:02Z</time>
      </trkpt>
      <trkpt lat="45.94817" lon="4.88342">
        <ele>278</ele>
        <time>2017-12-20T10:17:04Z</time>
      </trkpt>
      <trkpt lat="45.94821" lon="4.88342">
        <ele>278</ele>
        <time>2017-12-20T10:17:05Z</time>
      </trkpt>
      <trkpt lat="45.94829" lon="4.88341">
        <ele>279</ele>
        <time>2017-12-20T10:17:07Z</time>
      </trkpt>
      <trkpt lat="45.94832" lon="4.8834">
        <ele>279</ele>
        <time>2017-12-20T10:17:08Z</time>
      </trkpt>
      <trkpt lat="45.94838" lon="4.88339">
        <ele>279</ele>
        <time>2017-12-20T10:17:10Z</time>
      </trkpt>
      <trkpt lat="45.94842" lon="4.88338">
        <ele>279</ele>
        <time>2017-12-20T10:17:11Z</time>
      </trkpt>
      <trkpt lat="45.94848" lon="4.88336">
        <ele>280</ele>
        <time>2017-12-20T10:17:13Z</time>
      </trkpt>
      <trkpt lat="45.94852" lon="4.88335">
        <ele>280</ele>
        <time>2017-12-20T10:17:14Z</time>
      </trkpt>
      <trkpt lat="45.94858" lon="4.88334">
        <ele>280</ele>
        <time>2017-12-20T10:17:16Z</time>
      </trkpt>
      <trkpt lat="45.94862" lon="4.88333">
        <ele>280</ele>
        <time>2017-12-20T10:17:17Z</time>
      </trkpt>
      <trkpt lat="45.94868" lon="4.88332">
        <ele>280</ele>
        <time>2017-12-20T10:17:19Z</time>
      </trkpt>
      <trkpt lat="45.94872" lon="4.88332">
        <ele>280</ele>
        <time>2017-12-20T10:17:20Z</time>
      </trkpt>
      <trkpt lat="45.94878" lon="4.88331">
        <ele>280</ele>
        <time>2017-12-20T10:17:22Z</time>
      </trkpt>
      <trkpt lat="45.94882" lon="4.8833">
        <ele>281</ele>
        <time>2017-12-20T10:17:23Z</time>
      </trkpt>
      <trkpt lat="45.94889" lon="4.88329">
        <ele>281</ele>
        <time>2017-12-20T10:17:25Z</time>
      </trkpt>
      <trkpt lat="45.94892" lon="4.88328">
        <ele>281</ele>
        <time>2017-12-20T10:17:26Z</time>
      </trkpt>
      <trkpt lat="45.94899" lon="4.88326">
        <ele>281</ele>
        <time>2017-12-20T10:17:28Z</time>
      </trkpt>
      <trkpt lat="45.94903" lon="4.88325">
        <ele>281</ele>
        <time>2017-12-20T10:17:29Z</time>
      </trkpt>
      <trkpt lat="45.9491" lon="4.88322">
        <ele>281</ele>
        <time>2017-12-20T10:17:31Z</time>
      </trkpt>
      <trkpt lat="45.94913" lon="4.8832">
        <ele>281</ele>
        <time>2017-12-20T10:17:32Z</time>
      </trkpt>
      <trkpt lat="45.9492" lon="4.88316">
        <ele>282</ele>
        <time>2017-12-20T10:17:34Z</time>
      </trkpt>
      <trkpt lat="45.94923" lon="4.88314">
        <ele>283</ele>
        <time>2017-12-20T10:17:35Z</time>
      </trkpt>
      <trkpt lat="45.94929" lon="4.88311">
        <ele>283</ele>
        <time>2017-12-20T10:17:37Z</time>
      </trkpt>
      <trkpt lat="45.94933" lon="4.88309">
        <ele>283</ele>
        <time>2017-12-20T10:17:38Z</time>
      </trkpt>
      <trkpt lat="45.94941" lon="4.88305">
        <ele>283</ele>
        <time>2017-12-20T10:17:40Z</time>
      </trkpt>
      <trkpt lat="45.94944" lon="4.88303">
        <ele>283</ele>
        <time>2017-12-20T10:17:41Z</time>
      </trkpt>
      <trkpt lat="45.94953" lon="4.883">
        <ele>283</ele>
        <time>2017-12-20T10:17:43Z</time>
      </trkpt>
      <trkpt lat="45.94957" lon="4.88299">
        <ele>283</ele>
        <time>2017-12-20T10:17:44Z</time>
      </trkpt>
      <trkpt lat="45.94966" lon="4.88295">
        <ele>283</ele>
        <time>2017-12-20T10:17:46Z</time>
      </trkpt>
      <trkpt lat="45.9497" lon="4.88294">
        <ele>283</ele>
        <time>2017-12-20T10:17:47Z</time>
      </trkpt>
      <trkpt lat="45.94978" lon="4.88291">
        <ele>283</ele>
        <time>2017-12-20T10:17:49Z</time>
      </trkpt>
      <trkpt lat="45.94982" lon="4.88289">
        <ele>283</ele>
        <time>2017-12-20T10:17:50Z</time>
      </trkpt>
      <trkpt lat="45.94991" lon="4.88286">
        <ele>283</ele>
        <time>2017-12-20T10:17:52Z</time>
      </trkpt>
      <trkpt lat="45.94995" lon="4.88284">
        <ele>283</ele>
        <time>2017-12-20T10:17:53Z</time>
      </trkpt>
      <trkpt lat="45.95003" lon="4.88281">
        <ele>285</ele>
        <time>2017-12-20T10:17:55Z</time>
      </trkpt>
      <trkpt lat="45.95007" lon="4.8828">
        <ele>285</ele>
        <time>2017-12-20T10:17:56Z</time>
      </trkpt>
      <trkpt lat="45.95015" lon="4.88276">
        <ele>285</ele>
        <time>2017-12-20T10:17:58Z</time>
      </trkpt>
      <trkpt lat="45.95019" lon="4.88274">
        <ele>285</ele>
        <time>2017-12-20T10:17:59Z</time>
      </trkpt>
      <trkpt lat="45.95026" lon="4.88271">
        <ele>285</ele>
        <time>2017-12-20T10:18:01Z</time>
      </trkpt>
      <trkpt lat="45.9503" lon="4.8827">
        <ele>285</ele>
        <time>2017-12-20T10:18:02Z</time>
      </trkpt>
      <trkpt lat="45.95037" lon="4.88268">
        <ele>285</ele>
        <time>2017-12-20T10:18:04Z</time>
      </trkpt>
      <trkpt lat="45.9504" lon="4.88266">
        <ele>286</ele>
        <time>2017-12-20T10:18:05Z</time>
      </trkpt>
      <trkpt lat="45.95047" lon="4.88264">
        <ele>286</ele>
        <time>2017-12-20T10:18:07Z</time>
      </trkpt>
      <trkpt lat="45.9505" lon="4.88263">
        <ele>286</ele>
        <time>2017-12-20T10:18:08Z</time>
      </trkpt>
      <trkpt lat="45.95056" lon="4.8826">
        <ele>286</ele>
        <time>2017-12-20T10:18:10Z</time>
      </trkpt>
      <trkpt lat="45.9506" lon="4.88259">
        <ele>286</ele>
        <time>2017-12-20T10:18:11Z</time>
      </trkpt>
      <trkpt lat="45.95067" lon="4.88257">
        <ele>286</ele>
        <time>2017-12-20T10:18:13Z</time>
      </trkpt>
      <trkpt lat="45.95071" lon="4.88256">
        <ele>286</ele>
        <time>2017-12-20T10:18:14Z</time>
      </trkpt>
      <trkpt lat="45.95078" lon="4.88252">
        <ele>287</ele>
        <time>2017-12-20T10:18:16Z</time>
      </trkpt>
      <trkpt lat="45.95082" lon="4.8825">
        <ele>287</ele>
        <time>2017-12-20T10:18:17Z</time>
      </trkpt>
      <trkpt lat="45.95089" lon="4.88248">
        <ele>287</ele>
        <time>2017-12-20T10:18:19Z</time>
      </trkpt>
      <trkpt lat="45.95093" lon="4.88246">
        <ele>287</ele>
        <time>2017-12-20T10:18:20Z</time>
      </trkpt>
      <trkpt lat="45.951" lon="4.88243">
        <ele>287</ele>
        <time>2017-12-20T10:18:22Z</time>
      </trkpt>
      <trkpt lat="45.95104" lon="4.8824">
        <ele>287</ele>
        <time>2017-12-20T10:18:23Z</time>
      </trkpt>
      <trkpt lat="45.95109" lon="4.88231">
        <ele>287</ele>
        <time>2017-12-20T10:18:25Z</time>
      </trkpt>
      <trkpt lat="45.95112" lon="4.88226">
        <ele>287</ele>
        <time>2017-12-20T10:18:26Z</time>
      </trkpt>
      <trkpt lat="45.95114" lon="4.8822">
        <ele>287</ele>
        <time>2017-12-20T10:18:27Z</time>
      </trkpt>
      <trkpt lat="45.95117" lon="4.88215">
        <ele>287</ele>
        <time>2017-12-20T10:18:28Z</time>
      </trkpt>
      <trkpt lat="45.95123" lon="4.88206">
        <ele>287</ele>
        <time>2017-12-20T10:18:30Z</time>
      </trkpt>
      <trkpt lat="45.95126" lon="4.88201">
        <ele>287</ele>
        <time>2017-12-20T10:18:31Z</time>
      </trkpt>
      <trkpt lat="45.95129" lon="4.88196">
        <ele>287</ele>
        <time>2017-12-20T10:18:32Z</time>
      </trkpt>
      <trkpt lat="45.95133" lon="4.88191">
        <ele>286</ele>
        <time>2017-12-20T10:18:33Z</time>
      </trkpt>
      <trkpt lat="45.95137" lon="4.88187">
        <ele>286</ele>
        <time>2017-12-20T10:18:34Z</time>
      </trkpt>
      <trkpt lat="45.95142" lon="4.88184">
        <ele>286</ele>
        <time>2017-12-20T10:18:35Z</time>
      </trkpt>
      <trkpt lat="45.95146" lon="4.88182">
        <ele>286</ele>
        <time>2017-12-20T10:18:36Z</time>
      </trkpt>
      <trkpt lat="45.95151" lon="4.88181">
        <ele>286</ele>
        <time>2017-12-20T10:18:37Z</time>
      </trkpt>
      <trkpt lat="45.95156" lon="4.88179">
        <ele>286</ele>
        <time>2017-12-20T10:18:38Z</time>
      </trkpt>
      <trkpt lat="45.95163" lon="4.88179">
        <ele>286</ele>
        <time>2017-12-20T10:18:39Z</time>
      </trkpt>
      <trkpt lat="45.9517" lon="4.88178">
        <ele>285</ele>
        <time>2017-12-20T10:18:40Z</time>
      </trkpt>
      <trkpt lat="45.95176" lon="4.88176">
        <ele>285</ele>
        <time>2017-12-20T10:18:41Z</time>
      </trkpt>
      <trkpt lat="45.95181" lon="4.88175">
        <ele>285</ele>
        <time>2017-12-20T10:18:42Z</time>
      </trkpt>
      <trkpt lat="45.95186" lon="4.88173">
        <ele>285</ele>
        <time>2017-12-20T10:18:43Z</time>
      </trkpt>
      <trkpt lat="45.95192" lon="4.88172">
        <ele>285</ele>
        <time>2017-12-20T10:18:44Z</time>
      </trkpt>
      <trkpt lat="45.95197" lon="4.88172">
        <ele>285</ele>
        <time>2017-12-20T10:18:45Z</time>
      </trkpt>
      <trkpt lat="45.95202" lon="4.88171">
        <ele>285</ele>
        <time>2017-12-20T10:18:46Z</time>
      </trkpt>
      <trkpt lat="45.95207" lon="4.88172">
        <ele>284</ele>
        <time>2017-12-20T10:18:47Z</time>
      </trkpt>
      <trkpt lat="45.95213" lon="4.88172">
        <ele>284</ele>
        <time>2017-12-20T10:18:48Z</time>
      </trkpt>
      <trkpt lat="45.95219" lon="4.88172">
        <ele>284</ele>
        <time>2017-12-20T10:18:49Z</time>
      </trkpt>
      <trkpt lat="45.95224" lon="4.88172">
        <ele>284</ele>
        <time>2017-12-20T10:18:50Z</time>
      </trkpt>
      <trkpt lat="45.9523" lon="4.88172">
        <ele>283</ele>
        <time>2017-12-20T10:18:51Z</time>
      </trkpt>
      <trkpt lat="45.95236" lon="4.88172">
        <ele>283</ele>
        <time>2017-12-20T10:18:52Z</time>
      </trkpt>
      <trkpt lat="45.95242" lon="4.88172">
        <ele>282</ele>
        <time>2017-12-20T10:18:53Z</time>
      </trkpt>
      <trkpt lat="45.95248" lon="4.88171">
        <ele>282</ele>
        <time>2017-12-20T10:18:54Z</time>
      </trkpt>
      <trkpt lat="45.95255" lon="4.8817">
        <ele>281</ele>
        <time>2017-12-20T10:18:55Z</time>
      </trkpt>
      <trkpt lat="45.95261" lon="4.8817">
        <ele>281</ele>
        <time>2017-12-20T10:18:56Z</time>
      </trkpt>
      <trkpt lat="45.95267" lon="4.8817">
        <ele>281</ele>
        <time>2017-12-20T10:18:57Z</time>
      </trkpt>
      <trkpt lat="45.95273" lon="4.88171">
        <ele>281</ele>
        <time>2017-12-20T10:18:58Z</time>
      </trkpt>
      <trkpt lat="45.95279" lon="4.88172">
        <ele>281</ele>
        <time>2017-12-20T10:18:59Z</time>
      </trkpt>
      <trkpt lat="45.95286" lon="4.88172">
        <ele>281</ele>
        <time>2017-12-20T10:19:00Z</time>
      </trkpt>
      <trkpt lat="45.95291" lon="4.88174">
        <ele>281</ele>
        <time>2017-12-20T10:19:01Z</time>
      </trkpt>
      <trkpt lat="45.95298" lon="4.88175">
        <ele>281</ele>
        <time>2017-12-20T10:19:02Z</time>
      </trkpt>
      <trkpt lat="45.95304" lon="4.88176">
        <ele>281</ele>
        <time>2017-12-20T10:19:03Z</time>
      </trkpt>
      <trkpt lat="45.9531" lon="4.88176">
        <ele>280</ele>
        <time>2017-12-20T10:19:04Z</time>
      </trkpt>
      <trkpt lat="45.95317" lon="4.88176">
        <ele>280</ele>
        <time>2017-12-20T10:19:05Z</time>
      </trkpt>
      <trkpt lat="45.95324" lon="4.88177">
        <ele>280</ele>
        <time>2017-12-20T10:19:06Z</time>
      </trkpt>
      <trkpt lat="45.95331" lon="4.88176">
        <ele>279</ele>
        <time>2017-12-20T10:19:07Z</time>
      </trkpt>
      <trkpt lat="45.95337" lon="4.88175">
        <ele>278</ele>
        <time>2017-12-20T10:19:08Z</time>
      </trkpt>
      <trkpt lat="45.95344" lon="4.88175">
        <ele>278</ele>
        <time>2017-12-20T10:19:09Z</time>
      </trkpt>
      <trkpt lat="45.9535" lon="4.88174">
        <ele>278</ele>
        <time>2017-12-20T10:19:10Z</time>
      </trkpt>
      <trkpt lat="45.95355" lon="4.88174">
        <ele>278</ele>
        <time>2017-12-20T10:19:11Z</time>
      </trkpt>
      <trkpt lat="45.95363" lon="4.8817">
        <ele>278</ele>
        <time>2017-12-20T10:19:12Z</time>
      </trkpt>
      <trkpt lat="45.95368" lon="4.8817">
        <ele>278</ele>
        <time>2017-12-20T10:19:13Z</time>
      </trkpt>
      <trkpt lat="45.95374" lon="4.88168">
        <ele>278</ele>
        <time>2017-12-20T10:19:14Z</time>
      </trkpt>
      <trkpt lat="45.95379" lon="4.88166">
        <ele>276</ele>
        <time>2017-12-20T10:19:15Z</time>
      </trkpt>
      <trkpt lat="45.95385" lon="4.88164">
        <ele>276</ele>
        <time>2017-12-20T10:19:16Z</time>
      </trkpt>
      <trkpt lat="45.9539" lon="4.88163">
        <ele>276</ele>
        <time>2017-12-20T10:19:17Z</time>
      </trkpt>
      <trkpt lat="45.95396" lon="4.88161">
        <ele>276</ele>
        <time>2017-12-20T10:19:18Z</time>
      </trkpt>
      <trkpt lat="45.95401" lon="4.8816">
        <ele>276</ele>
        <time>2017-12-20T10:19:19Z</time>
      </trkpt>
      <trkpt lat="45.95406" lon="4.88158">
        <ele>276</ele>
        <time>2017-12-20T10:19:20Z</time>
      </trkpt>
      <trkpt lat="45.95411" lon="4.88156">
        <ele>276</ele>
        <time>2017-12-20T10:19:21Z</time>
      </trkpt>
      <trkpt lat="45.95416" lon="4.88154">
        <ele>276</ele>
        <time>2017-12-20T10:19:22Z</time>
      </trkpt>
      <trkpt lat="45.95421" lon="4.88152">
        <ele>276</ele>
        <time>2017-12-20T10:19:23Z</time>
      </trkpt>
      <trkpt lat="45.95425" lon="4.8815">
        <ele>276</ele>
        <time>2017-12-20T10:19:24Z</time>
      </trkpt>
      <trkpt lat="45.95431" lon="4.88146">
        <ele>276</ele>
        <time>2017-12-20T10:19:25Z</time>
      </trkpt>
      <trkpt lat="45.95436" lon="4.88144">
        <ele>276</ele>
        <time>2017-12-20T10:19:26Z</time>
      </trkpt>
      <trkpt lat="45.95443" lon="4.88141">
        <ele>276</ele>
        <time>2017-12-20T10:19:27Z</time>
      </trkpt>
      <trkpt lat="45.95449" lon="4.88139">
        <ele>276</ele>
        <time>2017-12-20T10:19:28Z</time>
      </trkpt>
      <trkpt lat="45.95454" lon="4.88137">
        <ele>276</ele>
        <time>2017-12-20T10:19:29Z</time>
      </trkpt>
      <trkpt lat="45.95459" lon="4.88133">
        <ele>276</ele>
        <time>2017-12-20T10:19:30Z</time>
      </trkpt>
      <trkpt lat="45.95464" lon="4.8813">
        <ele>276</ele>
        <time>2017-12-20T10:19:31Z</time>
      </trkpt>
      <trkpt lat="45.95472" lon="4.88128">
        <ele>276</ele>
        <time>2017-12-20T10:19:33Z</time>
      </trkpt>
      <trkpt lat="45.95476" lon="4.88125">
        <ele>276</ele>
        <time>2017-12-20T10:19:34Z</time>
      </trkpt>
      <trkpt lat="45.95481" lon="4.88123">
        <ele>276</ele>
        <time>2017-12-20T10:19:35Z</time>
      </trkpt>
      <trkpt lat="45.95485" lon="4.88122">
        <ele>276</ele>
        <time>2017-12-20T10:19:36Z</time>
      </trkpt>
      <trkpt lat="45.95493" lon="4.88118">
        <ele>276</ele>
        <time>2017-12-20T10:19:38Z</time>
      </trkpt>
      <trkpt lat="45.95496" lon="4.88116">
        <ele>276</ele>
        <time>2017-12-20T10:19:39Z</time>
      </trkpt>
      <trkpt lat="45.95504" lon="4.88113">
        <ele>276</ele>
        <time>2017-12-20T10:19:41Z</time>
      </trkpt>
      <trkpt lat="45.95507" lon="4.88112">
        <ele>276</ele>
        <time>2017-12-20T10:19:42Z</time>
      </trkpt>
      <trkpt lat="45.95514" lon="4.88107">
        <ele>276</ele>
        <time>2017-12-20T10:19:44Z</time>
      </trkpt>
      <trkpt lat="45.95518" lon="4.88105">
        <ele>276</ele>
        <time>2017-12-20T10:19:45Z</time>
      </trkpt>
      <trkpt lat="45.95527" lon="4.88102">
        <ele>277</ele>
        <time>2017-12-20T10:19:47Z</time>
      </trkpt>
      <trkpt lat="45.95531" lon="4.88101">
        <ele>277</ele>
        <time>2017-12-20T10:19:48Z</time>
      </trkpt>
      <trkpt lat="45.95539" lon="4.88098">
        <ele>277</ele>
        <time>2017-12-20T10:19:50Z</time>
      </trkpt>
      <trkpt lat="45.95542" lon="4.88097">
        <ele>277</ele>
        <time>2017-12-20T10:19:51Z</time>
      </trkpt>
      <trkpt lat="45.9555" lon="4.88092">
        <ele>277</ele>
        <time>2017-12-20T10:19:53Z</time>
      </trkpt>
      <trkpt lat="45.95554" lon="4.8809">
        <ele>277</ele>
        <time>2017-12-20T10:19:54Z</time>
      </trkpt>
      <trkpt lat="45.95561" lon="4.88087">
        <ele>277</ele>
        <time>2017-12-20T10:19:56Z</time>
      </trkpt>
      <trkpt lat="45.95565" lon="4.88085">
        <ele>277</ele>
        <time>2017-12-20T10:19:57Z</time>
      </trkpt>
      <trkpt lat="45.95572" lon="4.88081">
        <ele>277</ele>
        <time>2017-12-20T10:19:59Z</time>
      </trkpt>
      <trkpt lat="45.95576" lon="4.88079">
        <ele>277</ele>
        <time>2017-12-20T10:20:00Z</time>
      </trkpt>
      <trkpt lat="45.95583" lon="4.88073">
        <ele>277</ele>
        <time>2017-12-20T10:20:02Z</time>
      </trkpt>
      <trkpt lat="45.95587" lon="4.88069">
        <ele>278</ele>
        <time>2017-12-20T10:20:03Z</time>
      </trkpt>
      <trkpt lat="45.95594" lon="4.88063">
        <ele>278</ele>
        <time>2017-12-20T10:20:05Z</time>
      </trkpt>
      <trkpt lat="45.95598" lon="4.8806">
        <ele>278</ele>
        <time>2017-12-20T10:20:06Z</time>
      </trkpt>
      <trkpt lat="45.95605" lon="4.88054">
        <ele>278</ele>
        <time>2017-12-20T10:20:08Z</time>
      </trkpt>
      <trkpt lat="45.95609" lon="4.88051">
        <ele>278</ele>
        <time>2017-12-20T10:20:09Z</time>
      </trkpt>
      <trkpt lat="45.95611" lon="4.88046">
        <ele>278</ele>
        <time>2017-12-20T10:20:10Z</time>
      </trkpt>
      <trkpt lat="45.95616" lon="4.88042">
        <ele>278</ele>
        <time>2017-12-20T10:20:11Z</time>
      </trkpt>
      <trkpt lat="45.95623" lon="4.88036">
        <ele>278</ele>
        <time>2017-12-20T10:20:13Z</time>
      </trkpt>
      <trkpt lat="45.95628" lon="4.88034">
        <ele>279</ele>
        <time>2017-12-20T10:20:14Z</time>
      </trkpt>
      <trkpt lat="45.95634" lon="4.88028">
        <ele>279</ele>
        <time>2017-12-20T10:20:16Z</time>
      </trkpt>
      <trkpt lat="45.95637" lon="4.88024">
        <ele>279</ele>
        <time>2017-12-20T10:20:17Z</time>
      </trkpt>
      <trkpt lat="45.95644" lon="4.88017">
        <ele>279</ele>
        <time>2017-12-20T10:20:19Z</time>
      </trkpt>
      <trkpt lat="45.95648" lon="4.88015">
        <ele>279</ele>
        <time>2017-12-20T10:20:20Z</time>
      </trkpt>
      <trkpt lat="45.95655" lon="4.88008">
        <ele>280</ele>
        <time>2017-12-20T10:20:22Z</time>
      </trkpt>
      <trkpt lat="45.95658" lon="4.88005">
        <ele>280</ele>
        <time>2017-12-20T10:20:23Z</time>
      </trkpt>
      <trkpt lat="45.95666" lon="4.87999">
        <ele>281</ele>
        <time>2017-12-20T10:20:25Z</time>
      </trkpt>
      <trkpt lat="45.95669" lon="4.87996">
        <ele>281</ele>
        <time>2017-12-20T10:20:26Z</time>
      </trkpt>
      <trkpt lat="45.95676" lon="4.8799">
        <ele>282</ele>
        <time>2017-12-20T10:20:28Z</time>
      </trkpt>
      <trkpt lat="45.9568" lon="4.87987">
        <ele>282</ele>
        <time>2017-12-20T10:20:29Z</time>
      </trkpt>
      <trkpt lat="45.95687" lon="4.87981">
        <ele>282</ele>
        <time>2017-12-20T10:20:31Z</time>
      </trkpt>
      <trkpt lat="45.9569" lon="4.87978">
        <ele>282</ele>
        <time>2017-12-20T10:20:32Z</time>
      </trkpt>
      <trkpt lat="45.95696" lon="4.87972">
        <ele>282</ele>
        <time>2017-12-20T10:20:34Z</time>
      </trkpt>
      <trkpt lat="45.957" lon="4.87968">
        <ele>283</ele>
        <time>2017-12-20T10:20:35Z</time>
      </trkpt>
      <trkpt lat="45.95706" lon="4.87963">
        <ele>283</ele>
        <time>2017-12-20T10:20:37Z</time>
      </trkpt>
      <trkpt lat="45.95708" lon="4.8796">
        <ele>283</ele>
        <time>2017-12-20T10:20:38Z</time>
      </trkpt>
      <trkpt lat="45.95715" lon="4.87954">
        <ele>283</ele>
        <time>2017-12-20T10:20:40Z</time>
      </trkpt>
      <trkpt lat="45.95718" lon="4.87952">
        <ele>283</ele>
        <time>2017-12-20T10:20:41Z</time>
      </trkpt>
      <trkpt lat="45.95724" lon="4.87946">
        <ele>283</ele>
        <time>2017-12-20T10:20:43Z</time>
      </trkpt>
      <trkpt lat="45.95726" lon="4.87943">
        <ele>283</ele>
        <time>2017-12-20T10:20:44Z</time>
      </trkpt>
      <trkpt lat="45.95731" lon="4.87938">
        <ele>283</ele>
        <time>2017-12-20T10:20:46Z</time>
      </trkpt>
      <trkpt lat="45.95734" lon="4.87935">
        <ele>284</ele>
        <time>2017-12-20T10:20:47Z</time>
      </trkpt>
      <trkpt lat="45.9574" lon="4.87929">
        <ele>284</ele>
        <time>2017-12-20T10:20:49Z</time>
      </trkpt>
      <trkpt lat="45.95743" lon="4.87927">
        <ele>284</ele>
        <time>2017-12-20T10:20:50Z</time>
      </trkpt>
      <trkpt lat="45.95749" lon="4.87922">
        <ele>285</ele>
        <time>2017-12-20T10:20:52Z</time>
      </trkpt>
      <trkpt lat="45.95753" lon="4.87919">
        <ele>285</ele>
        <time>2017-12-20T10:20:53Z</time>
      </trkpt>
      <trkpt lat="45.95759" lon="4.87915">
        <ele>285</ele>
        <time>2017-12-20T10:20:55Z</time>
      </trkpt>
      <trkpt lat="45.95762" lon="4.87912">
        <ele>286</ele>
        <time>2017-12-20T10:20:56Z</time>
      </trkpt>
      <trkpt lat="45.95769" lon="4.87908">
        <ele>286</ele>
        <time>2017-12-20T10:20:58Z</time>
      </trkpt>
      <trkpt lat="45.95772" lon="4.87905">
        <ele>286</ele>
        <time>2017-12-20T10:20:59Z</time>
      </trkpt>
      <trkpt lat="45.95779" lon="4.87901">
        <ele>286</ele>
        <time>2017-12-20T10:21:01Z</time>
      </trkpt>
      <trkpt lat="45.95782" lon="4.87898">
        <ele>286</ele>
        <time>2017-12-20T10:21:02Z</time>
      </trkpt>
      <trkpt lat="45.95788" lon="4.87894">
        <ele>286</ele>
        <time>2017-12-20T10:21:04Z</time>
      </trkpt>
      <trkpt lat="45.95791" lon="4.87892">
        <ele>286</ele>
        <time>2017-12-20T10:21:05Z</time>
      </trkpt>
      <trkpt lat="45.95797" lon="4.87889">
        <ele>287</ele>
        <time>2017-12-20T10:21:07Z</time>
      </trkpt>
      <trkpt lat="45.958" lon="4.87887">
        <ele>287</ele>
        <time>2017-12-20T10:21:08Z</time>
      </trkpt>
      <trkpt lat="45.95806" lon="4.87884">
        <ele>287</ele>
        <time>2017-12-20T10:21:10Z</time>
      </trkpt>
      <trkpt lat="45.9581" lon="4.87882">
        <ele>287</ele>
        <time>2017-12-20T10:21:11Z</time>
      </trkpt>
      <trkpt lat="45.95816" lon="4.8788">
        <ele>287</ele>
        <time>2017-12-20T10:21:13Z</time>
      </trkpt>
      <trkpt lat="45.9582" lon="4.87879">
        <ele>287</ele>
        <time>2017-12-20T10:21:14Z</time>
      </trkpt>
      <trkpt lat="45.95828" lon="4.87877">
        <ele>287</ele>
        <time>2017-12-20T10:21:17Z</time>
      </trkpt>
      <trkpt lat="45.9583" lon="4.87878">
        <ele>287</ele>
        <time>2017-12-20T10:21:18Z</time>
      </trkpt>
      <trkpt lat="45.95836" lon="4.87886">
        <ele>289</ele>
        <time>2017-12-20T10:21:22Z</time>
      </trkpt>
      <trkpt lat="45.95838" lon="4.87887">
        <ele>289</ele>
        <time>2017-12-20T10:21:23Z</time>
      </trkpt>
      <trkpt lat="45.95844" lon="4.87883">
        <ele>289</ele>
        <time>2017-12-20T10:21:25Z</time>
      </trkpt>
      <trkpt lat="45.95845" lon="4.87878">
        <ele>289</ele>
        <time>2017-12-20T10:21:26Z</time>
      </trkpt>
      <trkpt lat="45.95848" lon="4.87867">
        <ele>289</ele>
        <time>2017-12-20T10:21:28Z</time>
      </trkpt>
      <trkpt lat="45.9585" lon="4.87862">
        <ele>289</ele>
        <time>2017-12-20T10:21:29Z</time>
      </trkpt>
      <trkpt lat="45.95854" lon="4.87856">
        <ele>289</ele>
        <time>2017-12-20T10:21:30Z</time>
      </trkpt>
      <trkpt lat="45.95858" lon="4.87853">
        <ele>289</ele>
        <time>2017-12-20T10:21:31Z</time>
      </trkpt>
      <trkpt lat="45.95862" lon="4.87849">
        <ele>289</ele>
        <time>2017-12-20T10:21:32Z</time>
      </trkpt>
      <trkpt lat="45.95866" lon="4.87844">
        <ele>289</ele>
        <time>2017-12-20T10:21:33Z</time>
      </trkpt>
      <trkpt lat="45.9587" lon="4.8784">
        <ele>289</ele>
        <time>2017-12-20T10:21:34Z</time>
      </trkpt>
      <trkpt lat="45.95874" lon="4.87837">
        <ele>289</ele>
        <time>2017-12-20T10:21:35Z</time>
      </trkpt>
      <trkpt lat="45.95878" lon="4.87833">
        <ele>288</ele>
        <time>2017-12-20T10:21:36Z</time>
      </trkpt>
      <trkpt lat="45.95883" lon="4.8783">
        <ele>288</ele>
        <time>2017-12-20T10:21:37Z</time>
      </trkpt>
      <trkpt lat="45.95889" lon="4.87821">
        <ele>288</ele>
        <time>2017-12-20T10:21:39Z</time>
      </trkpt>
      <trkpt lat="45.95892" lon="4.87818">
        <ele>288</ele>
        <time>2017-12-20T10:21:40Z</time>
      </trkpt>
      <trkpt lat="45.95895" lon="4.87815">
        <ele>288</ele>
        <time>2017-12-20T10:21:41Z</time>
      </trkpt>
      <trkpt lat="45.95898" lon="4.87809">
        <ele>288</ele>
        <time>2017-12-20T10:21:42Z</time>
      </trkpt>
      <trkpt lat="45.95904" lon="4.87801">
        <ele>288</ele>
        <time>2017-12-20T10:21:44Z</time>
      </trkpt>
      <trkpt lat="45.95906" lon="4.87797">
        <ele>288</ele>
        <time>2017-12-20T10:21:45Z</time>
      </trkpt>
      <trkpt lat="45.95911" lon="4.87789">
        <ele>288</ele>
        <time>2017-12-20T10:21:47Z</time>
      </trkpt>
      <trkpt lat="45.95914" lon="4.87784">
        <ele>288</ele>
        <time>2017-12-20T10:21:48Z</time>
      </trkpt>
      <trkpt lat="45.95919" lon="4.87775">
        <ele>289</ele>
        <time>2017-12-20T10:21:50Z</time>
      </trkpt>
      <trkpt lat="45.95922" lon="4.8777">
        <ele>289</ele>
        <time>2017-12-20T10:21:51Z</time>
      </trkpt>
      <trkpt lat="45.95928" lon="4.87761">
        <ele>288</ele>
        <time>2017-12-20T10:21:53Z</time>
      </trkpt>
      <trkpt lat="45.95931" lon="4.87756">
        <ele>288</ele>
        <time>2017-12-20T10:21:54Z</time>
      </trkpt>
      <trkpt lat="45.95935" lon="4.8775">
        <ele>288</ele>
        <time>2017-12-20T10:21:55Z</time>
      </trkpt>
      <trkpt lat="45.95938" lon="4.87746">
        <ele>288</ele>
        <time>2017-12-20T10:21:56Z</time>
      </trkpt>
      <trkpt lat="45.95943" lon="4.87739">
        <ele>289</ele>
        <time>2017-12-20T10:21:58Z</time>
      </trkpt>
      <trkpt lat="45.95947" lon="4.87735">
        <ele>289</ele>
        <time>2017-12-20T10:21:59Z</time>
      </trkpt>
      <trkpt lat="45.95951" lon="4.87728">
        <ele>289</ele>
        <time>2017-12-20T10:22:01Z</time>
      </trkpt>
      <trkpt lat="45.95954" lon="4.87723">
        <ele>289</ele>
        <time>2017-12-20T10:22:02Z</time>
      </trkpt>
      <trkpt lat="45.9596" lon="4.87714">
        <ele>289</ele>
        <time>2017-12-20T10:22:04Z</time>
      </trkpt>
      <trkpt lat="45.95963" lon="4.87709">
        <ele>289</ele>
        <time>2017-12-20T10:22:05Z</time>
      </trkpt>
      <trkpt lat="45.95971" lon="4.87702">
        <ele>289</ele>
        <time>2017-12-20T10:22:07Z</time>
      </trkpt>
      <trkpt lat="45.95975" lon="4.87698">
        <ele>289</ele>
        <time>2017-12-20T10:22:08Z</time>
      </trkpt>
      <trkpt lat="45.95979" lon="4.87693">
        <ele>289</ele>
        <time>2017-12-20T10:22:09Z</time>
      </trkpt>
      <trkpt lat="45.95983" lon="4.87688">
        <ele>289</ele>
        <time>2017-12-20T10:22:10Z</time>
      </trkpt>
      <trkpt lat="45.95987" lon="4.87683">
        <ele>289</ele>
        <time>2017-12-20T10:22:11Z</time>
      </trkpt>
      <trkpt lat="45.95991" lon="4.87678">
        <ele>289</ele>
        <time>2017-12-20T10:22:12Z</time>
      </trkpt>
      <trkpt lat="45.95995" lon="4.87673">
        <ele>290</ele>
        <time>2017-12-20T10:22:13Z</time>
      </trkpt>
      <trkpt lat="45.95999" lon="4.87668">
        <ele>290</ele>
        <time>2017-12-20T10:22:14Z</time>
      </trkpt>
      <trkpt lat="45.96003" lon="4.87664">
        <ele>290</ele>
        <time>2017-12-20T10:22:15Z</time>
      </trkpt>
      <trkpt lat="45.96007" lon="4.8766">
        <ele>290</ele>
        <time>2017-12-20T10:22:16Z</time>
      </trkpt>
      <trkpt lat="45.96013" lon="4.87652">
        <ele>289</ele>
        <time>2017-12-20T10:22:18Z</time>
      </trkpt>
      <trkpt lat="45.96016" lon="4.87648">
        <ele>289</ele>
        <time>2017-12-20T10:22:19Z</time>
      </trkpt>
      <trkpt lat="45.96022" lon="4.87641">
        <ele>289</ele>
        <time>2017-12-20T10:22:21Z</time>
      </trkpt>
      <trkpt lat="45.96025" lon="4.87637">
        <ele>289</ele>
        <time>2017-12-20T10:22:22Z</time>
      </trkpt>
      <trkpt lat="45.96029" lon="4.87634">
        <ele>289</ele>
        <time>2017-12-20T10:22:23Z</time>
      </trkpt>
      <trkpt lat="45.96033" lon="4.8763">
        <ele>289</ele>
        <time>2017-12-20T10:22:24Z</time>
      </trkpt>
      <trkpt lat="45.96036" lon="4.87626">
        <ele>289</ele>
        <time>2017-12-20T10:22:25Z</time>
      </trkpt>
      <trkpt lat="45.9604" lon="4.87622">
        <ele>289</ele>
        <time>2017-12-20T10:22:26Z</time>
      </trkpt>
      <trkpt lat="45.96044" lon="4.87618">
        <ele>289</ele>
        <time>2017-12-20T10:22:27Z</time>
      </trkpt>
      <trkpt lat="45.96049" lon="4.87612">
        <ele>289</ele>
        <time>2017-12-20T10:22:28Z</time>
      </trkpt>
      <trkpt lat="45.96053" lon="4.87608">
        <ele>289</ele>
        <time>2017-12-20T10:22:29Z</time>
      </trkpt>
      <trkpt lat="45.96056" lon="4.87603">
        <ele>289</ele>
        <time>2017-12-20T10:22:30Z</time>
      </trkpt>
      <trkpt lat="45.96059" lon="4.87599">
        <ele>288</ele>
        <time>2017-12-20T10:22:31Z</time>
      </trkpt>
      <trkpt lat="45.96063" lon="4.87594">
        <ele>288</ele>
        <time>2017-12-20T10:22:32Z</time>
      </trkpt>
      <trkpt lat="45.96067" lon="4.8759">
        <ele>288</ele>
        <time>2017-12-20T10:22:33Z</time>
      </trkpt>
      <trkpt lat="45.9607" lon="4.87586">
        <ele>288</ele>
        <time>2017-12-20T10:22:34Z</time>
      </trkpt>
      <trkpt lat="45.96074" lon="4.87581">
        <ele>288</ele>
        <time>2017-12-20T10:22:35Z</time>
      </trkpt>
      <trkpt lat="45.96077" lon="4.87577">
        <ele>288</ele>
        <time>2017-12-20T10:22:36Z</time>
      </trkpt>
      <trkpt lat="45.96081" lon="4.87574">
        <ele>288</ele>
        <time>2017-12-20T10:22:37Z</time>
      </trkpt>
      <trkpt lat="45.96085" lon="4.8757">
        <ele>287</ele>
        <time>2017-12-20T10:22:38Z</time>
      </trkpt>
      <trkpt lat="45.96089" lon="4.87566">
        <ele>287</ele>
        <time>2017-12-20T10:22:39Z</time>
      </trkpt>
      <trkpt lat="45.96092" lon="4.87562">
        <ele>287</ele>
        <time>2017-12-20T10:22:40Z</time>
      </trkpt>
      <trkpt lat="45.96096" lon="4.87558">
        <ele>287</ele>
        <time>2017-12-20T10:22:41Z</time>
      </trkpt>
      <trkpt lat="45.961" lon="4.87553">
        <ele>287</ele>
        <time>2017-12-20T10:22:42Z</time>
      </trkpt>
      <trkpt lat="45.96104" lon="4.87548">
        <ele>287</ele>
        <time>2017-12-20T10:22:43Z</time>
      </trkpt>
      <trkpt lat="45.96109" lon="4.87543">
        <ele>287</ele>
        <time>2017-12-20T10:22:44Z</time>
      </trkpt>
      <trkpt lat="45.96113" lon="4.87538">
        <ele>287</ele>
        <time>2017-12-20T10:22:45Z</time>
      </trkpt>
      <trkpt lat="45.96117" lon="4.87534">
        <ele>287</ele>
        <time>2017-12-20T10:22:46Z</time>
      </trkpt>
      <trkpt lat="45.96121" lon="4.8753">
        <ele>286</ele>
        <time>2017-12-20T10:22:47Z</time>
      </trkpt>
      <trkpt lat="45.96126" lon="4.87525">
        <ele>286</ele>
        <time>2017-12-20T10:22:48Z</time>
      </trkpt>
      <trkpt lat="45.96131" lon="4.8752">
        <ele>286</ele>
        <time>2017-12-20T10:22:49Z</time>
      </trkpt>
      <trkpt lat="45.96136" lon="4.87514">
        <ele>286</ele>
        <time>2017-12-20T10:22:50Z</time>
      </trkpt>
      <trkpt lat="45.9614" lon="4.87508">
        <ele>286</ele>
        <time>2017-12-20T10:22:51Z</time>
      </trkpt>
      <trkpt lat="45.96144" lon="4.87503">
        <ele>286</ele>
        <time>2017-12-20T10:22:52Z</time>
      </trkpt>
      <trkpt lat="45.96147" lon="4.87497">
        <ele>285</ele>
        <time>2017-12-20T10:22:53Z</time>
      </trkpt>
      <trkpt lat="45.96151" lon="4.87493">
        <ele>285</ele>
        <time>2017-12-20T10:22:54Z</time>
      </trkpt>
      <trkpt lat="45.96156" lon="4.87489">
        <ele>285</ele>
        <time>2017-12-20T10:22:55Z</time>
      </trkpt>
      <trkpt lat="45.9616" lon="4.87484">
        <ele>285</ele>
        <time>2017-12-20T10:22:56Z</time>
      </trkpt>
      <trkpt lat="45.96164" lon="4.8748">
        <ele>285</ele>
        <time>2017-12-20T10:22:57Z</time>
      </trkpt>
      <trkpt lat="45.96167" lon="4.87475">
        <ele>284</ele>
        <time>2017-12-20T10:22:58Z</time>
      </trkpt>
      <trkpt lat="45.96172" lon="4.87471">
        <ele>284</ele>
        <time>2017-12-20T10:22:59Z</time>
      </trkpt>
      <trkpt lat="45.96175" lon="4.87467">
        <ele>284</ele>
        <time>2017-12-20T10:23:00Z</time>
      </trkpt>
      <trkpt lat="45.96179" lon="4.87462">
        <ele>284</ele>
        <time>2017-12-20T10:23:01Z</time>
      </trkpt>
      <trkpt lat="45.96182" lon="4.87458">
        <ele>284</ele>
        <time>2017-12-20T10:23:02Z</time>
      </trkpt>
      <trkpt lat="45.96189" lon="4.87451">
        <ele>284</ele>
        <time>2017-12-20T10:23:04Z</time>
      </trkpt>
      <trkpt lat="45.96193" lon="4.87447">
        <ele>284</ele>
        <time>2017-12-20T10:23:05Z</time>
      </trkpt>
      <trkpt lat="45.96196" lon="4.87442">
        <ele>284</ele>
        <time>2017-12-20T10:23:06Z</time>
      </trkpt>
      <trkpt lat="45.962" lon="4.87438">
        <ele>284</ele>
        <time>2017-12-20T10:23:07Z</time>
      </trkpt>
      <trkpt lat="45.96204" lon="4.87433">
        <ele>284</ele>
        <time>2017-12-20T10:23:08Z</time>
      </trkpt>
      <trkpt lat="45.96209" lon="4.87429">
        <ele>284</ele>
        <time>2017-12-20T10:23:09Z</time>
      </trkpt>
      <trkpt lat="45.96214" lon="4.87424">
        <ele>284</ele>
        <time>2017-12-20T10:23:10Z</time>
      </trkpt>
      <trkpt lat="45.96218" lon="4.87419">
        <ele>284</ele>
        <time>2017-12-20T10:23:11Z</time>
      </trkpt>
      <trkpt lat="45.96223" lon="4.87413">
        <ele>283</ele>
        <time>2017-12-20T10:23:12Z</time>
      </trkpt>
      <trkpt lat="45.96228" lon="4.87407">
        <ele>283</ele>
        <time>2017-12-20T10:23:13Z</time>
      </trkpt>
      <trkpt lat="45.96232" lon="4.87402">
        <ele>283</ele>
        <time>2017-12-20T10:23:14Z</time>
      </trkpt>
      <trkpt lat="45.96236" lon="4.87396">
        <ele>283</ele>
        <time>2017-12-20T10:23:15Z</time>
      </trkpt>
      <trkpt lat="45.9624" lon="4.87392">
        <ele>283</ele>
        <time>2017-12-20T10:23:16Z</time>
      </trkpt>
      <trkpt lat="45.96243" lon="4.87387">
        <ele>283</ele>
        <time>2017-12-20T10:23:17Z</time>
      </trkpt>
      <trkpt lat="45.96248" lon="4.87382">
        <ele>283</ele>
        <time>2017-12-20T10:23:18Z</time>
      </trkpt>
      <trkpt lat="45.96252" lon="4.87378">
        <ele>283</ele>
        <time>2017-12-20T10:23:19Z</time>
      </trkpt>
      <trkpt lat="45.96256" lon="4.87373">
        <ele>283</ele>
        <time>2017-12-20T10:23:20Z</time>
      </trkpt>
      <trkpt lat="45.96259" lon="4.87369">
        <ele>283</ele>
        <time>2017-12-20T10:23:21Z</time>
      </trkpt>
      <trkpt lat="45.96263" lon="4.87365">
        <ele>283</ele>
        <time>2017-12-20T10:23:22Z</time>
      </trkpt>
      <trkpt lat="45.96266" lon="4.8736">
        <ele>283</ele>
        <time>2017-12-20T10:23:23Z</time>
      </trkpt>
      <trkpt lat="45.9627" lon="4.87356">
        <ele>283</ele>
        <time>2017-12-20T10:23:24Z</time>
      </trkpt>
      <trkpt lat="45.96274" lon="4.87352">
        <ele>284</ele>
        <time>2017-12-20T10:23:25Z</time>
      </trkpt>
      <trkpt lat="45.96277" lon="4.87348">
        <ele>284</ele>
        <time>2017-12-20T10:23:26Z</time>
      </trkpt>
      <trkpt lat="45.96281" lon="4.87343">
        <ele>284</ele>
        <time>2017-12-20T10:23:27Z</time>
      </trkpt>
      <trkpt lat="45.96284" lon="4.87338">
        <ele>284</ele>
        <time>2017-12-20T10:23:28Z</time>
      </trkpt>
      <trkpt lat="45.96287" lon="4.87333">
        <ele>283</ele>
        <time>2017-12-20T10:23:29Z</time>
      </trkpt>
      <trkpt lat="45.96291" lon="4.87328">
        <ele>283</ele>
        <time>2017-12-20T10:23:30Z</time>
      </trkpt>
      <trkpt lat="45.96295" lon="4.87323">
        <ele>283</ele>
        <time>2017-12-20T10:23:31Z</time>
      </trkpt>
      <trkpt lat="45.96299" lon="4.87317">
        <ele>283</ele>
        <time>2017-12-20T10:23:32Z</time>
      </trkpt>
      <trkpt lat="45.96304" lon="4.87313">
        <ele>283</ele>
        <time>2017-12-20T10:23:33Z</time>
      </trkpt>
      <trkpt lat="45.96309" lon="4.87306">
        <ele>283</ele>
        <time>2017-12-20T10:23:34Z</time>
      </trkpt>
      <trkpt lat="45.96313" lon="4.87301">
        <ele>283</ele>
        <time>2017-12-20T10:23:35Z</time>
      </trkpt>
      <trkpt lat="45.96316" lon="4.87296">
        <ele>283</ele>
        <time>2017-12-20T10:23:36Z</time>
      </trkpt>
      <trkpt lat="45.96319" lon="4.87291">
        <ele>283</ele>
        <time>2017-12-20T10:23:37Z</time>
      </trkpt>
      <trkpt lat="45.96323" lon="4.87286">
        <ele>283</ele>
        <time>2017-12-20T10:23:38Z</time>
      </trkpt>
      <trkpt lat="45.96326" lon="4.87282">
        <ele>283</ele>
        <time>2017-12-20T10:23:39Z</time>
      </trkpt>
      <trkpt lat="45.9633" lon="4.87278">
        <ele>283</ele>
        <time>2017-12-20T10:23:40Z</time>
      </trkpt>
      <trkpt lat="45.96334" lon="4.87272">
        <ele>283</ele>
        <time>2017-12-20T10:23:41Z</time>
      </trkpt>
      <trkpt lat="45.96337" lon="4.87267">
        <ele>283</ele>
        <time>2017-12-20T10:23:42Z</time>
      </trkpt>
      <trkpt lat="45.96342" lon="4.87263">
        <ele>283</ele>
        <time>2017-12-20T10:23:43Z</time>
      </trkpt>
      <trkpt lat="45.96345" lon="4.87259">
        <ele>283</ele>
        <time>2017-12-20T10:23:44Z</time>
      </trkpt>
      <trkpt lat="45.96349" lon="4.87253">
        <ele>283</ele>
        <time>2017-12-20T10:23:45Z</time>
      </trkpt>
      <trkpt lat="45.96353" lon="4.87248">
        <ele>282</ele>
        <time>2017-12-20T10:23:46Z</time>
      </trkpt>
      <trkpt lat="45.96356" lon="4.87243">
        <ele>282</ele>
        <time>2017-12-20T10:23:47Z</time>
      </trkpt>
      <trkpt lat="45.9636" lon="4.87237">
        <ele>282</ele>
        <time>2017-12-20T10:23:48Z</time>
      </trkpt>
      <trkpt lat="45.96365" lon="4.87232">
        <ele>282</ele>
        <time>2017-12-20T10:23:49Z</time>
      </trkpt>
      <trkpt lat="45.96369" lon="4.87226">
        <ele>282</ele>
        <time>2017-12-20T10:23:50Z</time>
      </trkpt>
      <trkpt lat="45.96372" lon="4.87221">
        <ele>282</ele>
        <time>2017-12-20T10:23:51Z</time>
      </trkpt>
      <trkpt lat="45.96376" lon="4.87216">
        <ele>282</ele>
        <time>2017-12-20T10:23:52Z</time>
      </trkpt>
      <trkpt lat="45.96379" lon="4.87211">
        <ele>282</ele>
        <time>2017-12-20T10:23:53Z</time>
      </trkpt>
      <trkpt lat="45.96383" lon="4.87207">
        <ele>282</ele>
        <time>2017-12-20T10:23:54Z</time>
      </trkpt>
      <trkpt lat="45.96386" lon="4.87202">
        <ele>282</ele>
        <time>2017-12-20T10:23:55Z</time>
      </trkpt>
      <trkpt lat="45.96389" lon="4.87196">
        <ele>282</ele>
        <time>2017-12-20T10:23:56Z</time>
      </trkpt>
      <trkpt lat="45.96393" lon="4.87192">
        <ele>282</ele>
        <time>2017-12-20T10:23:57Z</time>
      </trkpt>
      <trkpt lat="45.96399" lon="4.87183">
        <ele>282</ele>
        <time>2017-12-20T10:23:59Z</time>
      </trkpt>
      <trkpt lat="45.96403" lon="4.87179">
        <ele>282</ele>
        <time>2017-12-20T10:24:00Z</time>
      </trkpt>
      <trkpt lat="45.96408" lon="4.8717">
        <ele>281</ele>
        <time>2017-12-20T10:24:02Z</time>
      </trkpt>
      <trkpt lat="45.96412" lon="4.87166">
        <ele>281</ele>
        <time>2017-12-20T10:24:03Z</time>
      </trkpt>
      <trkpt lat="45.96416" lon="4.87161">
        <ele>281</ele>
        <time>2017-12-20T10:24:04Z</time>
      </trkpt>
      <trkpt lat="45.9642" lon="4.87156">
        <ele>281</ele>
        <time>2017-12-20T10:24:05Z</time>
      </trkpt>
      <trkpt lat="45.96423" lon="4.87152">
        <ele>281</ele>
        <time>2017-12-20T10:24:06Z</time>
      </trkpt>
      <trkpt lat="45.96427" lon="4.87146">
        <ele>281</ele>
        <time>2017-12-20T10:24:07Z</time>
      </trkpt>
      <trkpt lat="45.96433" lon="4.87138">
        <ele>281</ele>
        <time>2017-12-20T10:24:09Z</time>
      </trkpt>
      <trkpt lat="45.96436" lon="4.87133">
        <ele>281</ele>
        <time>2017-12-20T10:24:10Z</time>
      </trkpt>
      <trkpt lat="45.96439" lon="4.87129">
        <ele>281</ele>
        <time>2017-12-20T10:24:11Z</time>
      </trkpt>
      <trkpt lat="45.96443" lon="4.87125">
        <ele>281</ele>
        <time>2017-12-20T10:24:12Z</time>
      </trkpt>
      <trkpt lat="45.9645" lon="4.87118">
        <ele>281</ele>
        <time>2017-12-20T10:24:14Z</time>
      </trkpt>
      <trkpt lat="45.96454" lon="4.87114">
        <ele>281</ele>
        <time>2017-12-20T10:24:15Z</time>
      </trkpt>
      <trkpt lat="45.9646" lon="4.87108">
        <ele>282</ele>
        <time>2017-12-20T10:24:17Z</time>
      </trkpt>
      <trkpt lat="45.96462" lon="4.87104">
        <ele>282</ele>
        <time>2017-12-20T10:24:18Z</time>
      </trkpt>
      <trkpt lat="45.96467" lon="4.87097">
        <ele>282</ele>
        <time>2017-12-20T10:24:20Z</time>
      </trkpt>
      <trkpt lat="45.96472" lon="4.87092">
        <ele>282</ele>
        <time>2017-12-20T10:24:21Z</time>
      </trkpt>
      <trkpt lat="45.96478" lon="4.87085">
        <ele>282</ele>
        <time>2017-12-20T10:24:23Z</time>
      </trkpt>
      <trkpt lat="45.96482" lon="4.87081">
        <ele>282</ele>
        <time>2017-12-20T10:24:24Z</time>
      </trkpt>
      <trkpt lat="45.96486" lon="4.87076">
        <ele>282</ele>
        <time>2017-12-20T10:24:25Z</time>
      </trkpt>
      <trkpt lat="45.96489" lon="4.87072">
        <ele>282</ele>
        <time>2017-12-20T10:24:26Z</time>
      </trkpt>
      <trkpt lat="45.96494" lon="4.87064">
        <ele>282</ele>
        <time>2017-12-20T10:24:28Z</time>
      </trkpt>
      <trkpt lat="45.96497" lon="4.87059">
        <ele>282</ele>
        <time>2017-12-20T10:24:29Z</time>
      </trkpt>
      <trkpt lat="45.96503" lon="4.87052">
        <ele>282</ele>
        <time>2017-12-20T10:24:31Z</time>
      </trkpt>
      <trkpt lat="45.96505" lon="4.87049">
        <ele>282</ele>
        <time>2017-12-20T10:24:32Z</time>
      </trkpt>
      <trkpt lat="45.96513" lon="4.87048">
        <ele>283</ele>
        <time>2017-12-20T10:24:34Z</time>
      </trkpt>
      <trkpt lat="45.96515" lon="4.87049">
        <ele>283</ele>
        <time>2017-12-20T10:24:35Z</time>
      </trkpt>
      <trkpt lat="45.9652" lon="4.87059">
        <ele>283</ele>
        <time>2017-12-20T10:24:38Z</time>
      </trkpt>
      <trkpt lat="45.96521" lon="4.87063">
        <ele>283</ele>
        <time>2017-12-20T10:24:39Z</time>
      </trkpt>
      <trkpt lat="45.96526" lon="4.87069">
        <ele>283</ele>
        <time>2017-12-20T10:24:41Z</time>
      </trkpt>
      <trkpt lat="45.96528" lon="4.87071">
        <ele>283</ele>
        <time>2017-12-20T10:24:42Z</time>
      </trkpt>
      <trkpt lat="45.96537" lon="4.87069">
        <ele>283</ele>
        <time>2017-12-20T10:24:46Z</time>
      </trkpt>
      <trkpt lat="45.96538" lon="4.87066">
        <ele>283</ele>
        <time>2017-12-20T10:24:47Z</time>
      </trkpt>
      <trkpt lat="45.96546" lon="4.87062">
        <ele>283</ele>
        <time>2017-12-20T10:24:52Z</time>
      </trkpt>
      <trkpt lat="45.96547" lon="4.87065">
        <ele>283</ele>
        <time>2017-12-20T10:24:53Z</time>
      </trkpt>
      <trkpt lat="45.96549" lon="4.87077">
        <ele>283</ele>
        <time>2017-12-20T10:24:59Z</time>
      </trkpt>
      <trkpt lat="45.96551" lon="4.87077">
        <ele>283</ele>
        <time>2017-12-20T10:25:00Z</time>
      </trkpt>
      <trkpt lat="45.96559" lon="4.87077">
        <ele>283</ele>
        <time>2017-12-20T10:25:04Z</time>
      </trkpt>
      <trkpt lat="45.9656" lon="4.87074">
        <ele>283</ele>
        <time>2017-12-20T10:25:05Z</time>
      </trkpt>
      <trkpt lat="45.96562" lon="4.87065">
        <ele>283</ele>
        <time>2017-12-20T10:25:07Z</time>
      </trkpt>
      <trkpt lat="45.96561" lon="4.87061">
        <ele>283</ele>
        <time>2017-12-20T10:25:08Z</time>
      </trkpt>
      <trkpt lat="45.96559" lon="4.87049">
        <ele>283</ele>
        <time>2017-12-20T10:25:11Z</time>
      </trkpt>
      <trkpt lat="45.96559" lon="4.87045">
        <ele>283</ele>
        <time>2017-12-20T10:25:12Z</time>
      </trkpt>
      <trkpt lat="45.96555" lon="4.87034">
        <ele>283</ele>
        <time>2017-12-20T10:25:15Z</time>
      </trkpt>
      <trkpt lat="45.96553" lon="4.8703">
        <ele>283</ele>
        <time>2017-12-20T10:25:16Z</time>
      </trkpt>
      <trkpt lat="45.96553" lon="4.8703">
        <ele>283</ele>
        <time>2017-12-20T10:25:49Z</time>
      </trkpt>
      <trkpt lat="45.96553" lon="4.8703">
        <ele>283</ele>
        <time>2017-12-20T10:25:50Z</time>
      </trkpt>
      <trkpt lat="45.96556" lon="4.8703">
        <ele>283</ele>
        <time>2017-12-20T10:26:05Z</time>
      </trkpt>
      <trkpt lat="45.96556" lon="4.8703">
        <ele>283</ele>
        <time>2017-12-20T10:26:06Z</time>
      </trkpt>
      <trkpt lat="45.96555" lon="4.8703">
        <ele>283</ele>
        <time>2017-12-20T10:26:07Z</time>
      </trkpt>
      <trkpt lat="45.96555" lon="4.8703">
        <ele>283</ele>
        <time>2017-12-20T10:26:08Z</time>
      </trkpt>
      <trkpt lat="45.96554" lon="4.8703">
        <ele>283</ele>
        <time>2017-12-20T10:26:28Z</time>
      </trkpt>
      <trkpt lat="45.96555" lon="4.8703">
        <ele>283</ele>
        <time>2017-12-20T10:26:29Z</time>
      </trkpt>
      <trkpt lat="45.9655" lon="4.87027">
        <ele>283</ele>
        <time>2017-12-20T10:27:38Z</time>
      </trkpt>
      <trkpt lat="45.9655" lon="4.87027">
        <ele>283</ele>
        <time>2017-12-20T10:27:39Z</time>
      </trkpt>
      <trkpt lat="45.9655" lon="4.87027">
        <ele>283</ele>
        <time>2017-12-20T10:27:44Z</time>
      </trkpt>
      <trkpt lat="45.96551" lon="4.87027">
        <ele>283</ele>
        <time>2017-12-20T10:27:45Z</time>
      </trkpt>
      <trkpt lat="45.96553" lon="4.87015">
        <ele>283</ele>
        <time>2017-12-20T10:36:29Z</time>
      </trkpt>
      <trkpt lat="45.96553" lon="4.87013">
        <ele>283</ele>
        <time>2017-12-20T10:36:30Z</time>
      </trkpt>
      <trkpt lat="45.96552" lon="4.87001">
        <ele>283</ele>
        <time>2017-12-20T10:36:33Z</time>
      </trkpt>
      <trkpt lat="45.96552" lon="4.86998">
        <ele>283</ele>
        <time>2017-12-20T10:36:34Z</time>
      </trkpt>
      <trkpt lat="45.96557" lon="4.8699">
        <ele>284</ele>
        <time>2017-12-20T10:36:37Z</time>
      </trkpt>
      <trkpt lat="45.96559" lon="4.86987">
        <ele>284</ele>
        <time>2017-12-20T10:36:38Z</time>
      </trkpt>
      <trkpt lat="45.96563" lon="4.86978">
        <ele>284</ele>
        <time>2017-12-20T10:36:40Z</time>
      </trkpt>
      <trkpt lat="45.96566" lon="4.86974">
        <ele>284</ele>
        <time>2017-12-20T10:36:41Z</time>
      </trkpt>
      <trkpt lat="45.9657" lon="4.86966">
        <ele>284</ele>
        <time>2017-12-20T10:36:43Z</time>
      </trkpt>
      <trkpt lat="45.96572" lon="4.86962">
        <ele>284</ele>
        <time>2017-12-20T10:36:44Z</time>
      </trkpt>
      <trkpt lat="45.96577" lon="4.86955">
        <ele>284</ele>
        <time>2017-12-20T10:36:46Z</time>
      </trkpt>
      <trkpt lat="45.96579" lon="4.86951">
        <ele>284</ele>
        <time>2017-12-20T10:36:47Z</time>
      </trkpt>
      <trkpt lat="45.96584" lon="4.86943">
        <ele>286</ele>
        <time>2017-12-20T10:36:49Z</time>
      </trkpt>
      <trkpt lat="45.96586" lon="4.86938">
        <ele>286</ele>
        <time>2017-12-20T10:36:50Z</time>
      </trkpt>
      <trkpt lat="45.9659" lon="4.86929">
        <ele>286</ele>
        <time>2017-12-20T10:36:52Z</time>
      </trkpt>
      <trkpt lat="45.96592" lon="4.86925">
        <ele>285</ele>
        <time>2017-12-20T10:36:53Z</time>
      </trkpt>
      <trkpt lat="45.96597" lon="4.86917">
        <ele>286</ele>
        <time>2017-12-20T10:36:55Z</time>
      </trkpt>
      <trkpt lat="45.96598" lon="4.86913">
        <ele>286</ele>
        <time>2017-12-20T10:36:56Z</time>
      </trkpt>
      <trkpt lat="45.96602" lon="4.86906">
        <ele>286</ele>
        <time>2017-12-20T10:36:57Z</time>
      </trkpt>
      <trkpt lat="45.96604" lon="4.86903">
        <ele>286</ele>
        <time>2017-12-20T10:36:58Z</time>
      </trkpt>
      <trkpt lat="45.96607" lon="4.86895">
        <ele>287</ele>
        <time>2017-12-20T10:36:59Z</time>
      </trkpt>
      <trkpt lat="45.96609" lon="4.86891">
        <ele>287</ele>
        <time>2017-12-20T10:37:00Z</time>
      </trkpt>
      <trkpt lat="45.96612" lon="4.8688">
        <ele>287</ele>
        <time>2017-12-20T10:37:02Z</time>
      </trkpt>
      <trkpt lat="45.96614" lon="4.86877">
        <ele>287</ele>
        <time>2017-12-20T10:37:03Z</time>
      </trkpt>
      <trkpt lat="45.9662" lon="4.8687">
        <ele>287</ele>
        <time>2017-12-20T10:37:05Z</time>
      </trkpt>
      <trkpt lat="45.96622" lon="4.86865">
        <ele>287</ele>
        <time>2017-12-20T10:37:06Z</time>
      </trkpt>
      <trkpt lat="45.96627" lon="4.86858">
        <ele>287</ele>
        <time>2017-12-20T10:37:08Z</time>
      </trkpt>
      <trkpt lat="45.9663" lon="4.86854">
        <ele>287</ele>
        <time>2017-12-20T10:37:09Z</time>
      </trkpt>
      <trkpt lat="45.96635" lon="4.86845">
        <ele>287</ele>
        <time>2017-12-20T10:37:11Z</time>
      </trkpt>
      <trkpt lat="45.96639" lon="4.86834">
        <ele>287</ele>
        <time>2017-12-20T10:37:12Z</time>
      </trkpt>
      <trkpt lat="45.96644" lon="4.86826">
        <ele>288</ele>
        <time>2017-12-20T10:37:14Z</time>
      </trkpt>
      <trkpt lat="45.96647" lon="4.86822">
        <ele>288</ele>
        <time>2017-12-20T10:37:15Z</time>
      </trkpt>
      <trkpt lat="45.96652" lon="4.86815">
        <ele>288</ele>
        <time>2017-12-20T10:37:17Z</time>
      </trkpt>
      <trkpt lat="45.96655" lon="4.8681">
        <ele>288</ele>
        <time>2017-12-20T10:37:18Z</time>
      </trkpt>
      <trkpt lat="45.9666" lon="4.86804">
        <ele>288</ele>
        <time>2017-12-20T10:37:20Z</time>
      </trkpt>
      <trkpt lat="45.96663" lon="4.868">
        <ele>288</ele>
        <time>2017-12-20T10:37:21Z</time>
      </trkpt>
      <trkpt lat="45.96666" lon="4.86795">
        <ele>288</ele>
        <time>2017-12-20T10:37:22Z</time>
      </trkpt>
      <trkpt lat="45.9667" lon="4.8679">
        <ele>289</ele>
        <time>2017-12-20T10:37:23Z</time>
      </trkpt>
      <trkpt lat="45.96673" lon="4.86784">
        <ele>289</ele>
        <time>2017-12-20T10:37:24Z</time>
      </trkpt>
      <trkpt lat="45.96678" lon="4.8678">
        <ele>289</ele>
        <time>2017-12-20T10:37:25Z</time>
      </trkpt>
      <trkpt lat="45.96683" lon="4.8677">
        <ele>289</ele>
        <time>2017-12-20T10:37:27Z</time>
      </trkpt>
      <trkpt lat="45.96687" lon="4.86765">
        <ele>289</ele>
        <time>2017-12-20T10:37:28Z</time>
      </trkpt>
      <trkpt lat="45.96691" lon="4.86755">
        <ele>289</ele>
        <time>2017-12-20T10:37:30Z</time>
      </trkpt>
      <trkpt lat="45.96694" lon="4.8675">
        <ele>289</ele>
        <time>2017-12-20T10:37:31Z</time>
      </trkpt>
      <trkpt lat="45.967" lon="4.86741">
        <ele>289</ele>
        <time>2017-12-20T10:37:33Z</time>
      </trkpt>
      <trkpt lat="45.96702" lon="4.86735">
        <ele>289</ele>
        <time>2017-12-20T10:37:34Z</time>
      </trkpt>
      <trkpt lat="45.96705" lon="4.8673">
        <ele>289</ele>
        <time>2017-12-20T10:37:35Z</time>
      </trkpt>
      <trkpt lat="45.96707" lon="4.86724">
        <ele>289</ele>
        <time>2017-12-20T10:37:36Z</time>
      </trkpt>
      <trkpt lat="45.9671" lon="4.86719">
        <ele>289</ele>
        <time>2017-12-20T10:37:37Z</time>
      </trkpt>
      <trkpt lat="45.96713" lon="4.86714">
        <ele>289</ele>
        <time>2017-12-20T10:37:38Z</time>
      </trkpt>
      <trkpt lat="45.96719" lon="4.86705">
        <ele>289</ele>
        <time>2017-12-20T10:37:40Z</time>
      </trkpt>
      <trkpt lat="45.96723" lon="4.86701">
        <ele>289</ele>
        <time>2017-12-20T10:37:41Z</time>
      </trkpt>
      <trkpt lat="45.96726" lon="4.86697">
        <ele>289</ele>
        <time>2017-12-20T10:37:42Z</time>
      </trkpt>
      <trkpt lat="45.96729" lon="4.86692">
        <ele>289</ele>
        <time>2017-12-20T10:37:43Z</time>
      </trkpt>
      <trkpt lat="45.96734" lon="4.86684">
        <ele>290</ele>
        <time>2017-12-20T10:37:45Z</time>
      </trkpt>
      <trkpt lat="45.96738" lon="4.86679">
        <ele>290</ele>
        <time>2017-12-20T10:37:46Z</time>
      </trkpt>
      <trkpt lat="45.96744" lon="4.8667">
        <ele>290</ele>
        <time>2017-12-20T10:37:48Z</time>
      </trkpt>
      <trkpt lat="45.96747" lon="4.86665">
        <ele>290</ele>
        <time>2017-12-20T10:37:49Z</time>
      </trkpt>
      <trkpt lat="45.96751" lon="4.86655">
        <ele>290</ele>
        <time>2017-12-20T10:37:51Z</time>
      </trkpt>
      <trkpt lat="45.96754" lon="4.8665">
        <ele>290</ele>
        <time>2017-12-20T10:37:52Z</time>
      </trkpt>
      <trkpt lat="45.96759" lon="4.8664">
        <ele>290</ele>
        <time>2017-12-20T10:37:54Z</time>
      </trkpt>
      <trkpt lat="45.96762" lon="4.86635">
        <ele>289</ele>
        <time>2017-12-20T10:37:55Z</time>
      </trkpt>
      <trkpt lat="45.96767" lon="4.86625">
        <ele>289</ele>
        <time>2017-12-20T10:37:57Z</time>
      </trkpt>
      <trkpt lat="45.9677" lon="4.8662">
        <ele>289</ele>
        <time>2017-12-20T10:37:58Z</time>
      </trkpt>
      <trkpt lat="45.96776" lon="4.86611">
        <ele>289</ele>
        <time>2017-12-20T10:38:00Z</time>
      </trkpt>
      <trkpt lat="45.96779" lon="4.86606">
        <ele>289</ele>
        <time>2017-12-20T10:38:01Z</time>
      </trkpt>
      <trkpt lat="45.96784" lon="4.86595">
        <ele>289</ele>
        <time>2017-12-20T10:38:03Z</time>
      </trkpt>
      <trkpt lat="45.96787" lon="4.8659">
        <ele>289</ele>
        <time>2017-12-20T10:38:04Z</time>
      </trkpt>
      <trkpt lat="45.96792" lon="4.86582">
        <ele>290</ele>
        <time>2017-12-20T10:38:06Z</time>
      </trkpt>
      <trkpt lat="45.96794" lon="4.86578">
        <ele>290</ele>
        <time>2017-12-20T10:38:07Z</time>
      </trkpt>
      <trkpt lat="45.968" lon="4.8657">
        <ele>290</ele>
        <time>2017-12-20T10:38:09Z</time>
      </trkpt>
      <trkpt lat="45.96802" lon="4.86565">
        <ele>290</ele>
        <time>2017-12-20T10:38:10Z</time>
      </trkpt>
      <trkpt lat="45.96807" lon="4.86557">
        <ele>290</ele>
        <time>2017-12-20T10:38:12Z</time>
      </trkpt>
      <trkpt lat="45.9681" lon="4.86553">
        <ele>290</ele>
        <time>2017-12-20T10:38:13Z</time>
      </trkpt>
      <trkpt lat="45.96816" lon="4.86544">
        <ele>290</ele>
        <time>2017-12-20T10:38:15Z</time>
      </trkpt>
      <trkpt lat="45.96819" lon="4.8654">
        <ele>290</ele>
        <time>2017-12-20T10:38:16Z</time>
      </trkpt>
      <trkpt lat="45.96825" lon="4.86532">
        <ele>289</ele>
        <time>2017-12-20T10:38:18Z</time>
      </trkpt>
      <trkpt lat="45.96828" lon="4.86527">
        <ele>289</ele>
        <time>2017-12-20T10:38:19Z</time>
      </trkpt>
      <trkpt lat="45.96833" lon="4.86518">
        <ele>289</ele>
        <time>2017-12-20T10:38:21Z</time>
      </trkpt>
      <trkpt lat="45.96836" lon="4.86513">
        <ele>288</ele>
        <time>2017-12-20T10:38:22Z</time>
      </trkpt>
      <trkpt lat="45.96841" lon="4.86503">
        <ele>289</ele>
        <time>2017-12-20T10:38:24Z</time>
      </trkpt>
      <trkpt lat="45.96843" lon="4.86498">
        <ele>289</ele>
        <time>2017-12-20T10:38:25Z</time>
      </trkpt>
      <trkpt lat="45.96846" lon="4.86486">
        <ele>289</ele>
        <time>2017-12-20T10:38:27Z</time>
      </trkpt>
      <trkpt lat="45.96848" lon="4.86481">
        <ele>289</ele>
        <time>2017-12-20T10:38:28Z</time>
      </trkpt>
      <trkpt lat="45.9685" lon="4.8647">
        <ele>289</ele>
        <time>2017-12-20T10:38:30Z</time>
      </trkpt>
      <trkpt lat="45.96851" lon="4.86463">
        <ele>289</ele>
        <time>2017-12-20T10:38:31Z</time>
      </trkpt>
      <trkpt lat="45.96851" lon="4.86455">
        <ele>289</ele>
        <time>2017-12-20T10:38:32Z</time>
      </trkpt>
      <trkpt lat="45.96852" lon="4.86448">
        <ele>289</ele>
        <time>2017-12-20T10:38:33Z</time>
      </trkpt>
      <trkpt lat="45.96854" lon="4.86442">
        <ele>290</ele>
        <time>2017-12-20T10:38:34Z</time>
      </trkpt>
      <trkpt lat="45.96854" lon="4.86436">
        <ele>290</ele>
        <time>2017-12-20T10:38:35Z</time>
      </trkpt>
      <trkpt lat="45.96855" lon="4.86429">
        <ele>290</ele>
        <time>2017-12-20T10:38:36Z</time>
      </trkpt>
      <trkpt lat="45.96857" lon="4.86423">
        <ele>290</ele>
        <time>2017-12-20T10:38:37Z</time>
      </trkpt>
      <trkpt lat="45.96859" lon="4.86411">
        <ele>290</ele>
        <time>2017-12-20T10:38:39Z</time>
      </trkpt>
      <trkpt lat="45.96859" lon="4.86405">
        <ele>290</ele>
        <time>2017-12-20T10:38:40Z</time>
      </trkpt>
      <trkpt lat="45.9686" lon="4.86397">
        <ele>290</ele>
        <time>2017-12-20T10:38:41Z</time>
      </trkpt>
      <trkpt lat="45.96862" lon="4.86389">
        <ele>290</ele>
        <time>2017-12-20T10:38:42Z</time>
      </trkpt>
      <trkpt lat="45.96864" lon="4.86376">
        <ele>290</ele>
        <time>2017-12-20T10:38:44Z</time>
      </trkpt>
      <trkpt lat="45.96865" lon="4.86369">
        <ele>290</ele>
        <time>2017-12-20T10:38:45Z</time>
      </trkpt>
      <trkpt lat="45.96866" lon="4.86362">
        <ele>290</ele>
        <time>2017-12-20T10:38:46Z</time>
      </trkpt>
      <trkpt lat="45.96867" lon="4.86356">
        <ele>290</ele>
        <time>2017-12-20T10:38:47Z</time>
      </trkpt>
      <trkpt lat="45.96868" lon="4.86343">
        <ele>290</ele>
        <time>2017-12-20T10:38:49Z</time>
      </trkpt>
      <trkpt lat="45.96869" lon="4.86337">
        <ele>290</ele>
        <time>2017-12-20T10:38:50Z</time>
      </trkpt>
      <trkpt lat="45.96871" lon="4.8633">
        <ele>289</ele>
        <time>2017-12-20T10:38:51Z</time>
      </trkpt>
      <trkpt lat="45.96871" lon="4.86324">
        <ele>289</ele>
        <time>2017-12-20T10:38:52Z</time>
      </trkpt>
      <trkpt lat="45.96871" lon="4.86315">
        <ele>289</ele>
        <time>2017-12-20T10:38:53Z</time>
      </trkpt>
      <trkpt lat="45.96872" lon="4.86309">
        <ele>289</ele>
        <time>2017-12-20T10:38:54Z</time>
      </trkpt>
      <trkpt lat="45.96873" lon="4.86298">
        <ele>289</ele>
        <time>2017-12-20T10:38:56Z</time>
      </trkpt>
      <trkpt lat="45.96874" lon="4.86291">
        <ele>289</ele>
        <time>2017-12-20T10:38:57Z</time>
      </trkpt>
      <trkpt lat="45.96877" lon="4.86282">
        <ele>289</ele>
        <time>2017-12-20T10:38:59Z</time>
      </trkpt>
      <trkpt lat="45.96878" lon="4.86276">
        <ele>289</ele>
        <time>2017-12-20T10:39:00Z</time>
      </trkpt>
      <trkpt lat="45.96878" lon="4.86269">
        <ele>289</ele>
        <time>2017-12-20T10:39:01Z</time>
      </trkpt>
      <trkpt lat="45.96879" lon="4.86263">
        <ele>288</ele>
        <time>2017-12-20T10:39:02Z</time>
      </trkpt>
      <trkpt lat="45.9688" lon="4.86256">
        <ele>288</ele>
        <time>2017-12-20T10:39:03Z</time>
      </trkpt>
      <trkpt lat="45.96882" lon="4.8625">
        <ele>288</ele>
        <time>2017-12-20T10:39:04Z</time>
      </trkpt>
      <trkpt lat="45.96884" lon="4.86244">
        <ele>288</ele>
        <time>2017-12-20T10:39:05Z</time>
      </trkpt>
      <trkpt lat="45.96885" lon="4.86237">
        <ele>288</ele>
        <time>2017-12-20T10:39:06Z</time>
      </trkpt>
      <trkpt lat="45.96886" lon="4.8623">
        <ele>289</ele>
        <time>2017-12-20T10:39:07Z</time>
      </trkpt>
      <trkpt lat="45.96887" lon="4.86223">
        <ele>289</ele>
        <time>2017-12-20T10:39:08Z</time>
      </trkpt>
      <trkpt lat="45.96888" lon="4.86216">
        <ele>289</ele>
        <time>2017-12-20T10:39:09Z</time>
      </trkpt>
      <trkpt lat="45.96889" lon="4.86209">
        <ele>289</ele>
        <time>2017-12-20T10:39:10Z</time>
      </trkpt>
      <trkpt lat="45.9689" lon="4.86202">
        <ele>289</ele>
        <time>2017-12-20T10:39:11Z</time>
      </trkpt>
      <trkpt lat="45.9689" lon="4.86195">
        <ele>289</ele>
        <time>2017-12-20T10:39:12Z</time>
      </trkpt>
      <trkpt lat="45.96892" lon="4.86189">
        <ele>289</ele>
        <time>2017-12-20T10:39:13Z</time>
      </trkpt>
      <trkpt lat="45.96893" lon="4.86182">
        <ele>289</ele>
        <time>2017-12-20T10:39:14Z</time>
      </trkpt>
      <trkpt lat="45.96893" lon="4.86174">
        <ele>289</ele>
        <time>2017-12-20T10:39:15Z</time>
      </trkpt>
      <trkpt lat="45.96893" lon="4.86166">
        <ele>289</ele>
        <time>2017-12-20T10:39:16Z</time>
      </trkpt>
      <trkpt lat="45.96894" lon="4.86159">
        <ele>289</ele>
        <time>2017-12-20T10:39:17Z</time>
      </trkpt>
      <trkpt lat="45.96894" lon="4.86152">
        <ele>289</ele>
        <time>2017-12-20T10:39:18Z</time>
      </trkpt>
      <trkpt lat="45.96895" lon="4.86143">
        <ele>289</ele>
        <time>2017-12-20T10:39:19Z</time>
      </trkpt>
      <trkpt lat="45.96896" lon="4.86135">
        <ele>289</ele>
        <time>2017-12-20T10:39:20Z</time>
      </trkpt>
      <trkpt lat="45.96898" lon="4.86129">
        <ele>289</ele>
        <time>2017-12-20T10:39:21Z</time>
      </trkpt>
      <trkpt lat="45.969" lon="4.86122">
        <ele>289</ele>
        <time>2017-12-20T10:39:22Z</time>
      </trkpt>
      <trkpt lat="45.96901" lon="4.86115">
        <ele>289</ele>
        <time>2017-12-20T10:39:23Z</time>
      </trkpt>
      <trkpt lat="45.96901" lon="4.86107">
        <ele>289</ele>
        <time>2017-12-20T10:39:24Z</time>
      </trkpt>
      <trkpt lat="45.96901" lon="4.86098">
        <ele>288</ele>
        <time>2017-12-20T10:39:25Z</time>
      </trkpt>
      <trkpt lat="45.96902" lon="4.8609">
        <ele>288</ele>
        <time>2017-12-20T10:39:26Z</time>
      </trkpt>
      <trkpt lat="45.96902" lon="4.86082">
        <ele>288</ele>
        <time>2017-12-20T10:39:27Z</time>
      </trkpt>
      <trkpt lat="45.96904" lon="4.86074">
        <ele>288</ele>
        <time>2017-12-20T10:39:28Z</time>
      </trkpt>
      <trkpt lat="45.96904" lon="4.86066">
        <ele>288</ele>
        <time>2017-12-20T10:39:29Z</time>
      </trkpt>
      <trkpt lat="45.96905" lon="4.86059">
        <ele>288</ele>
        <time>2017-12-20T10:39:30Z</time>
      </trkpt>
      <trkpt lat="45.96907" lon="4.8605">
        <ele>289</ele>
        <time>2017-12-20T10:39:31Z</time>
      </trkpt>
      <trkpt lat="45.96906" lon="4.86043">
        <ele>289</ele>
        <time>2017-12-20T10:39:32Z</time>
      </trkpt>
      <trkpt lat="45.96907" lon="4.86036">
        <ele>289</ele>
        <time>2017-12-20T10:39:33Z</time>
      </trkpt>
      <trkpt lat="45.96908" lon="4.86026">
        <ele>289</ele>
        <time>2017-12-20T10:39:34Z</time>
      </trkpt>
      <trkpt lat="45.9691" lon="4.86018">
        <ele>289</ele>
        <time>2017-12-20T10:39:35Z</time>
      </trkpt>
      <trkpt lat="45.96912" lon="4.8601">
        <ele>288</ele>
        <time>2017-12-20T10:39:36Z</time>
      </trkpt>
      <trkpt lat="45.96914" lon="4.86002">
        <ele>288</ele>
        <time>2017-12-20T10:39:37Z</time>
      </trkpt>
      <trkpt lat="45.96916" lon="4.85993">
        <ele>288</ele>
        <time>2017-12-20T10:39:38Z</time>
      </trkpt>
      <trkpt lat="45.96919" lon="4.85984">
        <ele>287</ele>
        <time>2017-12-20T10:39:39Z</time>
      </trkpt>
      <trkpt lat="45.96922" lon="4.85976">
        <ele>287</ele>
        <time>2017-12-20T10:39:40Z</time>
      </trkpt>
      <trkpt lat="45.96924" lon="4.85968">
        <ele>287</ele>
        <time>2017-12-20T10:39:41Z</time>
      </trkpt>
      <trkpt lat="45.96927" lon="4.85959">
        <ele>287</ele>
        <time>2017-12-20T10:39:42Z</time>
      </trkpt>
      <trkpt lat="45.96928" lon="4.85951">
        <ele>287</ele>
        <time>2017-12-20T10:39:43Z</time>
      </trkpt>
      <trkpt lat="45.9693" lon="4.85943">
        <ele>286</ele>
        <time>2017-12-20T10:39:44Z</time>
      </trkpt>
      <trkpt lat="45.96934" lon="4.85934">
        <ele>286</ele>
        <time>2017-12-20T10:39:45Z</time>
      </trkpt>
      <trkpt lat="45.96936" lon="4.85927">
        <ele>286</ele>
        <time>2017-12-20T10:39:46Z</time>
      </trkpt>
      <trkpt lat="45.96938" lon="4.85918">
        <ele>286</ele>
        <time>2017-12-20T10:39:47Z</time>
      </trkpt>
      <trkpt lat="45.9694" lon="4.85909">
        <ele>286</ele>
        <time>2017-12-20T10:39:48Z</time>
      </trkpt>
      <trkpt lat="45.96941" lon="4.85901">
        <ele>285</ele>
        <time>2017-12-20T10:39:49Z</time>
      </trkpt>
      <trkpt lat="45.96943" lon="4.85892">
        <ele>285</ele>
        <time>2017-12-20T10:39:50Z</time>
      </trkpt>
      <trkpt lat="45.96945" lon="4.85883">
        <ele>285</ele>
        <time>2017-12-20T10:39:51Z</time>
      </trkpt>
      <trkpt lat="45.96947" lon="4.85875">
        <ele>285</ele>
        <time>2017-12-20T10:39:52Z</time>
      </trkpt>
      <trkpt lat="45.9695" lon="4.85868">
        <ele>285</ele>
        <time>2017-12-20T10:39:53Z</time>
      </trkpt>
      <trkpt lat="45.96952" lon="4.8586">
        <ele>285</ele>
        <time>2017-12-20T10:39:54Z</time>
      </trkpt>
      <trkpt lat="45.96954" lon="4.85852">
        <ele>285</ele>
        <time>2017-12-20T10:39:55Z</time>
      </trkpt>
      <trkpt lat="45.96956" lon="4.85843">
        <ele>285</ele>
        <time>2017-12-20T10:39:56Z</time>
      </trkpt>
      <trkpt lat="45.96958" lon="4.85835">
        <ele>285</ele>
        <time>2017-12-20T10:39:57Z</time>
      </trkpt>
      <trkpt lat="45.9696" lon="4.85827">
        <ele>285</ele>
        <time>2017-12-20T10:39:58Z</time>
      </trkpt>
      <trkpt lat="45.96963" lon="4.8582">
        <ele>285</ele>
        <time>2017-12-20T10:39:59Z</time>
      </trkpt>
      <trkpt lat="45.96964" lon="4.85811">
        <ele>285</ele>
        <time>2017-12-20T10:40:00Z</time>
      </trkpt>
      <trkpt lat="45.96965" lon="4.85803">
        <ele>285</ele>
        <time>2017-12-20T10:40:01Z</time>
      </trkpt>
      <trkpt lat="45.96966" lon="4.85795">
        <ele>285</ele>
        <time>2017-12-20T10:40:02Z</time>
      </trkpt>
      <trkpt lat="45.96968" lon="4.85787">
        <ele>285</ele>
        <time>2017-12-20T10:40:03Z</time>
      </trkpt>
      <trkpt lat="45.9697" lon="4.85779">
        <ele>285</ele>
        <time>2017-12-20T10:40:04Z</time>
      </trkpt>
      <trkpt lat="45.96973" lon="4.85771">
        <ele>285</ele>
        <time>2017-12-20T10:40:05Z</time>
      </trkpt>
      <trkpt lat="45.96975" lon="4.85762">
        <ele>285</ele>
        <time>2017-12-20T10:40:06Z</time>
      </trkpt>
      <trkpt lat="45.96977" lon="4.85754">
        <ele>285</ele>
        <time>2017-12-20T10:40:07Z</time>
      </trkpt>
      <trkpt lat="45.96979" lon="4.85745">
        <ele>285</ele>
        <time>2017-12-20T10:40:08Z</time>
      </trkpt>
      <trkpt lat="45.96982" lon="4.85736">
        <ele>285</ele>
        <time>2017-12-20T10:40:09Z</time>
      </trkpt>
      <trkpt lat="45.96984" lon="4.85728">
        <ele>285</ele>
        <time>2017-12-20T10:40:10Z</time>
      </trkpt>
      <trkpt lat="45.96986" lon="4.85721">
        <ele>285</ele>
        <time>2017-12-20T10:40:11Z</time>
      </trkpt>
      <trkpt lat="45.96989" lon="4.85713">
        <ele>285</ele>
        <time>2017-12-20T10:40:12Z</time>
      </trkpt>
      <trkpt lat="45.96991" lon="4.85705">
        <ele>285</ele>
        <time>2017-12-20T10:40:13Z</time>
      </trkpt>
      <trkpt lat="45.96992" lon="4.857">
        <ele>285</ele>
        <time>2017-12-20T10:40:14Z</time>
      </trkpt>
      <trkpt lat="45.96994" lon="4.85694">
        <ele>285</ele>
        <time>2017-12-20T10:40:15Z</time>
      </trkpt>
      <trkpt lat="45.96997" lon="4.85688">
        <ele>285</ele>
        <time>2017-12-20T10:40:16Z</time>
      </trkpt>
      <trkpt lat="45.96999" lon="4.85681">
        <ele>286</ele>
        <time>2017-12-20T10:40:17Z</time>
      </trkpt>
      <trkpt lat="45.97001" lon="4.85675">
        <ele>285</ele>
        <time>2017-12-20T10:40:18Z</time>
      </trkpt>
      <trkpt lat="45.97003" lon="4.85662">
        <ele>285</ele>
        <time>2017-12-20T10:40:20Z</time>
      </trkpt>
      <trkpt lat="45.97005" lon="4.85656">
        <ele>285</ele>
        <time>2017-12-20T10:40:21Z</time>
      </trkpt>
      <trkpt lat="45.97006" lon="4.85648">
        <ele>285</ele>
        <time>2017-12-20T10:40:22Z</time>
      </trkpt>
      <trkpt lat="45.97009" lon="4.85641">
        <ele>284</ele>
        <time>2017-12-20T10:40:23Z</time>
      </trkpt>
      <trkpt lat="45.97011" lon="4.85631">
        <ele>284</ele>
        <time>2017-12-20T10:40:24Z</time>
      </trkpt>
      <trkpt lat="45.97012" lon="4.85623">
        <ele>284</ele>
        <time>2017-12-20T10:40:25Z</time>
      </trkpt>
      <trkpt lat="45.97015" lon="4.85615">
        <ele>284</ele>
        <time>2017-12-20T10:40:26Z</time>
      </trkpt>
      <trkpt lat="45.97016" lon="4.85606">
        <ele>284</ele>
        <time>2017-12-20T10:40:27Z</time>
      </trkpt>
      <trkpt lat="45.97019" lon="4.85597">
        <ele>284</ele>
        <time>2017-12-20T10:40:28Z</time>
      </trkpt>
      <trkpt lat="45.97021" lon="4.85589">
        <ele>284</ele>
        <time>2017-12-20T10:40:29Z</time>
      </trkpt>
      <trkpt lat="45.97023" lon="4.8558">
        <ele>283</ele>
        <time>2017-12-20T10:40:30Z</time>
      </trkpt>
      <trkpt lat="45.97026" lon="4.85571">
        <ele>283</ele>
        <time>2017-12-20T10:40:31Z</time>
      </trkpt>
      <trkpt lat="45.97028" lon="4.85563">
        <ele>283</ele>
        <time>2017-12-20T10:40:32Z</time>
      </trkpt>
      <trkpt lat="45.97032" lon="4.85555">
        <ele>283</ele>
        <time>2017-12-20T10:40:33Z</time>
      </trkpt>
      <trkpt lat="45.97034" lon="4.85546">
        <ele>282</ele>
        <time>2017-12-20T10:40:34Z</time>
      </trkpt>
      <trkpt lat="45.97036" lon="4.85538">
        <ele>282</ele>
        <time>2017-12-20T10:40:35Z</time>
      </trkpt>
      <trkpt lat="45.97039" lon="4.8553">
        <ele>282</ele>
        <time>2017-12-20T10:40:36Z</time>
      </trkpt>
      <trkpt lat="45.9704" lon="4.85524">
        <ele>282</ele>
        <time>2017-12-20T10:40:37Z</time>
      </trkpt>
      <trkpt lat="45.97042" lon="4.85517">
        <ele>282</ele>
        <time>2017-12-20T10:40:38Z</time>
      </trkpt>
      <trkpt lat="45.97045" lon="4.8551">
        <ele>282</ele>
        <time>2017-12-20T10:40:39Z</time>
      </trkpt>
      <trkpt lat="45.97047" lon="4.85503">
        <ele>282</ele>
        <time>2017-12-20T10:40:40Z</time>
      </trkpt>
      <trkpt lat="45.9705" lon="4.85497">
        <ele>281</ele>
        <time>2017-12-20T10:40:41Z</time>
      </trkpt>
      <trkpt lat="45.97053" lon="4.8549">
        <ele>281</ele>
        <time>2017-12-20T10:40:42Z</time>
      </trkpt>
      <trkpt lat="45.97057" lon="4.85481">
        <ele>281</ele>
        <time>2017-12-20T10:40:43Z</time>
      </trkpt>
      <trkpt lat="45.97059" lon="4.85474">
        <ele>281</ele>
        <time>2017-12-20T10:40:44Z</time>
      </trkpt>
      <trkpt lat="45.97061" lon="4.85465">
        <ele>281</ele>
        <time>2017-12-20T10:40:45Z</time>
      </trkpt>
      <trkpt lat="45.97064" lon="4.85458">
        <ele>281</ele>
        <time>2017-12-20T10:40:46Z</time>
      </trkpt>
      <trkpt lat="45.97065" lon="4.85451">
        <ele>281</ele>
        <time>2017-12-20T10:40:47Z</time>
      </trkpt>
      <trkpt lat="45.97068" lon="4.85444">
        <ele>281</ele>
        <time>2017-12-20T10:40:48Z</time>
      </trkpt>
      <trkpt lat="45.9707" lon="4.85437">
        <ele>281</ele>
        <time>2017-12-20T10:40:49Z</time>
      </trkpt>
      <trkpt lat="45.97072" lon="4.85429">
        <ele>281</ele>
        <time>2017-12-20T10:40:50Z</time>
      </trkpt>
      <trkpt lat="45.97075" lon="4.85422">
        <ele>280</ele>
        <time>2017-12-20T10:40:51Z</time>
      </trkpt>
      <trkpt lat="45.97077" lon="4.85414">
        <ele>280</ele>
        <time>2017-12-20T10:40:52Z</time>
      </trkpt>
      <trkpt lat="45.97079" lon="4.85407">
        <ele>281</ele>
        <time>2017-12-20T10:40:53Z</time>
      </trkpt>
      <trkpt lat="45.9708" lon="4.85402">
        <ele>281</ele>
        <time>2017-12-20T10:40:54Z</time>
      </trkpt>
      <trkpt lat="45.97083" lon="4.85393">
        <ele>281</ele>
        <time>2017-12-20T10:40:55Z</time>
      </trkpt>
      <trkpt lat="45.97084" lon="4.85387">
        <ele>280</ele>
        <time>2017-12-20T10:40:56Z</time>
      </trkpt>
      <trkpt lat="45.97087" lon="4.85381">
        <ele>280</ele>
        <time>2017-12-20T10:40:57Z</time>
      </trkpt>
      <trkpt lat="45.97089" lon="4.85374">
        <ele>280</ele>
        <time>2017-12-20T10:40:58Z</time>
      </trkpt>
      <trkpt lat="45.97091" lon="4.85368">
        <ele>280</ele>
        <time>2017-12-20T10:40:59Z</time>
      </trkpt>
      <trkpt lat="45.97096" lon="4.85357">
        <ele>280</ele>
        <time>2017-12-20T10:41:01Z</time>
      </trkpt>
      <trkpt lat="45.97098" lon="4.8535">
        <ele>280</ele>
        <time>2017-12-20T10:41:02Z</time>
      </trkpt>
      <trkpt lat="45.971" lon="4.85343">
        <ele>280</ele>
        <time>2017-12-20T10:41:03Z</time>
      </trkpt>
      <trkpt lat="45.97102" lon="4.85337">
        <ele>280</ele>
        <time>2017-12-20T10:41:04Z</time>
      </trkpt>
      <trkpt lat="45.97105" lon="4.85329">
        <ele>280</ele>
        <time>2017-12-20T10:41:05Z</time>
      </trkpt>
      <trkpt lat="45.97108" lon="4.85322">
        <ele>280</ele>
        <time>2017-12-20T10:41:06Z</time>
      </trkpt>
      <trkpt lat="45.97112" lon="4.85315">
        <ele>280</ele>
        <time>2017-12-20T10:41:07Z</time>
      </trkpt>
      <trkpt lat="45.97116" lon="4.85306">
        <ele>280</ele>
        <time>2017-12-20T10:41:08Z</time>
      </trkpt>
      <trkpt lat="45.97119" lon="4.853">
        <ele>280</ele>
        <time>2017-12-20T10:41:09Z</time>
      </trkpt>
      <trkpt lat="45.97122" lon="4.85292">
        <ele>280</ele>
        <time>2017-12-20T10:41:10Z</time>
      </trkpt>
      <trkpt lat="45.97126" lon="4.85284">
        <ele>279</ele>
        <time>2017-12-20T10:41:11Z</time>
      </trkpt>
      <trkpt lat="45.9713" lon="4.85276">
        <ele>279</ele>
        <time>2017-12-20T10:41:12Z</time>
      </trkpt>
      <trkpt lat="45.97134" lon="4.85271">
        <ele>279</ele>
        <time>2017-12-20T10:41:13Z</time>
      </trkpt>
      <trkpt lat="45.97138" lon="4.85264">
        <ele>279</ele>
        <time>2017-12-20T10:41:14Z</time>
      </trkpt>
      <trkpt lat="45.97141" lon="4.85258">
        <ele>279</ele>
        <time>2017-12-20T10:41:15Z</time>
      </trkpt>
      <trkpt lat="45.97144" lon="4.85251">
        <ele>279</ele>
        <time>2017-12-20T10:41:16Z</time>
      </trkpt>
      <trkpt lat="45.97148" lon="4.85246">
        <ele>279</ele>
        <time>2017-12-20T10:41:17Z</time>
      </trkpt>
      <trkpt lat="45.97151" lon="4.85239">
        <ele>279</ele>
        <time>2017-12-20T10:41:18Z</time>
      </trkpt>
      <trkpt lat="45.97154" lon="4.85233">
        <ele>279</ele>
        <time>2017-12-20T10:41:19Z</time>
      </trkpt>
      <trkpt lat="45.97158" lon="4.85227">
        <ele>279</ele>
        <time>2017-12-20T10:41:20Z</time>
      </trkpt>
      <trkpt lat="45.97161" lon="4.85221">
        <ele>279</ele>
        <time>2017-12-20T10:41:21Z</time>
      </trkpt>
      <trkpt lat="45.97165" lon="4.85214">
        <ele>279</ele>
        <time>2017-12-20T10:41:22Z</time>
      </trkpt>
      <trkpt lat="45.97169" lon="4.85207">
        <ele>278</ele>
        <time>2017-12-20T10:41:23Z</time>
      </trkpt>
      <trkpt lat="45.97172" lon="4.852">
        <ele>278</ele>
        <time>2017-12-20T10:41:24Z</time>
      </trkpt>
      <trkpt lat="45.97175" lon="4.85194">
        <ele>278</ele>
        <time>2017-12-20T10:41:25Z</time>
      </trkpt>
      <trkpt lat="45.97179" lon="4.85186">
        <ele>278</ele>
        <time>2017-12-20T10:41:26Z</time>
      </trkpt>
      <trkpt lat="45.97181" lon="4.85178">
        <ele>278</ele>
        <time>2017-12-20T10:41:27Z</time>
      </trkpt>
      <trkpt lat="45.97184" lon="4.85172">
        <ele>278</ele>
        <time>2017-12-20T10:41:28Z</time>
      </trkpt>
      <trkpt lat="45.97187" lon="4.85165">
        <ele>278</ele>
        <time>2017-12-20T10:41:29Z</time>
      </trkpt>
      <trkpt lat="45.9719" lon="4.85158">
        <ele>278</ele>
        <time>2017-12-20T10:41:30Z</time>
      </trkpt>
      <trkpt lat="45.97194" lon="4.85152">
        <ele>278</ele>
        <time>2017-12-20T10:41:31Z</time>
      </trkpt>
      <trkpt lat="45.97197" lon="4.85145">
        <ele>278</ele>
        <time>2017-12-20T10:41:32Z</time>
      </trkpt>
      <trkpt lat="45.97201" lon="4.85138">
        <ele>278</ele>
        <time>2017-12-20T10:41:33Z</time>
      </trkpt>
      <trkpt lat="45.97204" lon="4.85131">
        <ele>278</ele>
        <time>2017-12-20T10:41:34Z</time>
      </trkpt>
      <trkpt lat="45.97207" lon="4.85124">
        <ele>278</ele>
        <time>2017-12-20T10:41:35Z</time>
      </trkpt>
      <trkpt lat="45.97209" lon="4.85118">
        <ele>278</ele>
        <time>2017-12-20T10:41:36Z</time>
      </trkpt>
      <trkpt lat="45.97213" lon="4.85109">
        <ele>278</ele>
        <time>2017-12-20T10:41:37Z</time>
      </trkpt>
      <trkpt lat="45.97217" lon="4.85103">
        <ele>278</ele>
        <time>2017-12-20T10:41:38Z</time>
      </trkpt>
      <trkpt lat="45.97219" lon="4.85095">
        <ele>278</ele>
        <time>2017-12-20T10:41:39Z</time>
      </trkpt>
      <trkpt lat="45.97223" lon="4.85089">
        <ele>278</ele>
        <time>2017-12-20T10:41:40Z</time>
      </trkpt>
      <trkpt lat="45.97226" lon="4.85079">
        <ele>278</ele>
        <time>2017-12-20T10:41:41Z</time>
      </trkpt>
      <trkpt lat="45.97229" lon="4.85071">
        <ele>278</ele>
        <time>2017-12-20T10:41:42Z</time>
      </trkpt>
      <trkpt lat="45.97233" lon="4.85065">
        <ele>278</ele>
        <time>2017-12-20T10:41:43Z</time>
      </trkpt>
      <trkpt lat="45.97235" lon="4.85056">
        <ele>279</ele>
        <time>2017-12-20T10:41:44Z</time>
      </trkpt>
      <trkpt lat="45.97239" lon="4.85049">
        <ele>279</ele>
        <time>2017-12-20T10:41:45Z</time>
      </trkpt>
      <trkpt lat="45.97242" lon="4.85043">
        <ele>279</ele>
        <time>2017-12-20T10:41:46Z</time>
      </trkpt>
      <trkpt lat="45.97246" lon="4.85035">
        <ele>279</ele>
        <time>2017-12-20T10:41:47Z</time>
      </trkpt>
      <trkpt lat="45.9725" lon="4.85027">
        <ele>279</ele>
        <time>2017-12-20T10:41:48Z</time>
      </trkpt>
      <trkpt lat="45.97254" lon="4.85019">
        <ele>279</ele>
        <time>2017-12-20T10:41:49Z</time>
      </trkpt>
      <trkpt lat="45.97257" lon="4.85012">
        <ele>279</ele>
        <time>2017-12-20T10:41:50Z</time>
      </trkpt>
      <trkpt lat="45.9726" lon="4.85005">
        <ele>279</ele>
        <time>2017-12-20T10:41:51Z</time>
      </trkpt>
      <trkpt lat="45.97264" lon="4.84998">
        <ele>279</ele>
        <time>2017-12-20T10:41:52Z</time>
      </trkpt>
      <trkpt lat="45.97268" lon="4.84991">
        <ele>279</ele>
        <time>2017-12-20T10:41:53Z</time>
      </trkpt>
      <trkpt lat="45.97271" lon="4.84984">
        <ele>279</ele>
        <time>2017-12-20T10:41:54Z</time>
      </trkpt>
      <trkpt lat="45.97275" lon="4.84976">
        <ele>278</ele>
        <time>2017-12-20T10:41:55Z</time>
      </trkpt>
      <trkpt lat="45.97278" lon="4.8497">
        <ele>278</ele>
        <time>2017-12-20T10:41:56Z</time>
      </trkpt>
      <trkpt lat="45.97281" lon="4.84962">
        <ele>278</ele>
        <time>2017-12-20T10:41:57Z</time>
      </trkpt>
      <trkpt lat="45.97284" lon="4.84956">
        <ele>278</ele>
        <time>2017-12-20T10:41:58Z</time>
      </trkpt>
      <trkpt lat="45.97287" lon="4.8495">
        <ele>278</ele>
        <time>2017-12-20T10:41:59Z</time>
      </trkpt>
      <trkpt lat="45.97291" lon="4.84944">
        <ele>278</ele>
        <time>2017-12-20T10:42:00Z</time>
      </trkpt>
      <trkpt lat="45.97294" lon="4.84938">
        <ele>278</ele>
        <time>2017-12-20T10:42:01Z</time>
      </trkpt>
      <trkpt lat="45.97299" lon="4.8493">
        <ele>278</ele>
        <time>2017-12-20T10:42:02Z</time>
      </trkpt>
      <trkpt lat="45.97303" lon="4.84924">
        <ele>278</ele>
        <time>2017-12-20T10:42:03Z</time>
      </trkpt>
      <trkpt lat="45.97307" lon="4.84917">
        <ele>278</ele>
        <time>2017-12-20T10:42:04Z</time>
      </trkpt>
      <trkpt lat="45.97311" lon="4.8491">
        <ele>278</ele>
        <time>2017-12-20T10:42:05Z</time>
      </trkpt>
      <trkpt lat="45.97316" lon="4.84904">
        <ele>278</ele>
        <time>2017-12-20T10:42:06Z</time>
      </trkpt>
      <trkpt lat="45.9732" lon="4.84897">
        <ele>278</ele>
        <time>2017-12-20T10:42:07Z</time>
      </trkpt>
      <trkpt lat="45.97326" lon="4.84889">
        <ele>278</ele>
        <time>2017-12-20T10:42:08Z</time>
      </trkpt>
      <trkpt lat="45.97329" lon="4.84882">
        <ele>278</ele>
        <time>2017-12-20T10:42:09Z</time>
      </trkpt>
      <trkpt lat="45.97332" lon="4.84876">
        <ele>278</ele>
        <time>2017-12-20T10:42:10Z</time>
      </trkpt>
      <trkpt lat="45.97335" lon="4.84869">
        <ele>277</ele>
        <time>2017-12-20T10:42:11Z</time>
      </trkpt>
      <trkpt lat="45.97339" lon="4.84862">
        <ele>277</ele>
        <time>2017-12-20T10:42:12Z</time>
      </trkpt>
      <trkpt lat="45.97342" lon="4.84854">
        <ele>277</ele>
        <time>2017-12-20T10:42:13Z</time>
      </trkpt>
      <trkpt lat="45.97344" lon="4.84847">
        <ele>277</ele>
        <time>2017-12-20T10:42:14Z</time>
      </trkpt>
      <trkpt lat="45.97347" lon="4.8484">
        <ele>277</ele>
        <time>2017-12-20T10:42:15Z</time>
      </trkpt>
      <trkpt lat="45.9735" lon="4.84834">
        <ele>277</ele>
        <time>2017-12-20T10:42:16Z</time>
      </trkpt>
      <trkpt lat="45.97352" lon="4.84826">
        <ele>278</ele>
        <time>2017-12-20T10:42:17Z</time>
      </trkpt>
      <trkpt lat="45.97355" lon="4.84819">
        <ele>278</ele>
        <time>2017-12-20T10:42:18Z</time>
      </trkpt>
      <trkpt lat="45.97357" lon="4.84813">
        <ele>278</ele>
        <time>2017-12-20T10:42:19Z</time>
      </trkpt>
      <trkpt lat="45.9736" lon="4.84806">
        <ele>278</ele>
        <time>2017-12-20T10:42:20Z</time>
      </trkpt>
      <trkpt lat="45.97364" lon="4.84794">
        <ele>278</ele>
        <time>2017-12-20T10:42:21Z</time>
      </trkpt>
      <trkpt lat="45.97366" lon="4.84788">
        <ele>278</ele>
        <time>2017-12-20T10:42:22Z</time>
      </trkpt>
      <trkpt lat="45.9737" lon="4.84781">
        <ele>278</ele>
        <time>2017-12-20T10:42:23Z</time>
      </trkpt>
      <trkpt lat="45.97372" lon="4.84776">
        <ele>278</ele>
        <time>2017-12-20T10:42:24Z</time>
      </trkpt>
      <trkpt lat="45.97374" lon="4.8477">
        <ele>278</ele>
        <time>2017-12-20T10:42:25Z</time>
      </trkpt>
      <trkpt lat="45.97377" lon="4.84763">
        <ele>278</ele>
        <time>2017-12-20T10:42:26Z</time>
      </trkpt>
      <trkpt lat="45.97381" lon="4.84753">
        <ele>278</ele>
        <time>2017-12-20T10:42:28Z</time>
      </trkpt>
      <trkpt lat="45.97383" lon="4.84747">
        <ele>278</ele>
        <time>2017-12-20T10:42:29Z</time>
      </trkpt>
      <trkpt lat="45.97387" lon="4.84742">
        <ele>278</ele>
        <time>2017-12-20T10:42:30Z</time>
      </trkpt>
      <trkpt lat="45.9739" lon="4.84736">
        <ele>278</ele>
        <time>2017-12-20T10:42:31Z</time>
      </trkpt>
      <trkpt lat="45.97397" lon="4.84729">
        <ele>278</ele>
        <time>2017-12-20T10:42:33Z</time>
      </trkpt>
      <trkpt lat="45.97402" lon="4.84725">
        <ele>278</ele>
        <time>2017-12-20T10:42:34Z</time>
      </trkpt>
      <trkpt lat="45.97408" lon="4.84722">
        <ele>278</ele>
        <time>2017-12-20T10:42:35Z</time>
      </trkpt>
      <trkpt lat="45.97414" lon="4.84719">
        <ele>278</ele>
        <time>2017-12-20T10:42:36Z</time>
      </trkpt>
      <trkpt lat="45.97418" lon="4.84717">
        <ele>276</ele>
        <time>2017-12-20T10:42:37Z</time>
      </trkpt>
      <trkpt lat="45.97423" lon="4.84714">
        <ele>276</ele>
        <time>2017-12-20T10:42:38Z</time>
      </trkpt>
      <trkpt lat="45.97428" lon="4.8471">
        <ele>276</ele>
        <time>2017-12-20T10:42:39Z</time>
      </trkpt>
      <trkpt lat="45.97434" lon="4.84707">
        <ele>276</ele>
        <time>2017-12-20T10:42:40Z</time>
      </trkpt>
      <trkpt lat="45.97438" lon="4.84703">
        <ele>276</ele>
        <time>2017-12-20T10:42:41Z</time>
      </trkpt>
      <trkpt lat="45.97444" lon="4.84699">
        <ele>276</ele>
        <time>2017-12-20T10:42:42Z</time>
      </trkpt>
      <trkpt lat="45.97449" lon="4.84697">
        <ele>276</ele>
        <time>2017-12-20T10:42:43Z</time>
      </trkpt>
      <trkpt lat="45.97455" lon="4.84694">
        <ele>276</ele>
        <time>2017-12-20T10:42:44Z</time>
      </trkpt>
      <trkpt lat="45.97461" lon="4.84691">
        <ele>276</ele>
        <time>2017-12-20T10:42:45Z</time>
      </trkpt>
      <trkpt lat="45.97466" lon="4.84687">
        <ele>276</ele>
        <time>2017-12-20T10:42:46Z</time>
      </trkpt>
      <trkpt lat="45.97471" lon="4.84683">
        <ele>276</ele>
        <time>2017-12-20T10:42:47Z</time>
      </trkpt>
      <trkpt lat="45.97476" lon="4.8468">
        <ele>276</ele>
        <time>2017-12-20T10:42:48Z</time>
      </trkpt>
      <trkpt lat="45.97481" lon="4.84676">
        <ele>276</ele>
        <time>2017-12-20T10:42:49Z</time>
      </trkpt>
      <trkpt lat="45.97486" lon="4.84673">
        <ele>275</ele>
        <time>2017-12-20T10:42:50Z</time>
      </trkpt>
      <trkpt lat="45.97491" lon="4.84669">
        <ele>275</ele>
        <time>2017-12-20T10:42:51Z</time>
      </trkpt>
      <trkpt lat="45.97497" lon="4.84665">
        <ele>275</ele>
        <time>2017-12-20T10:42:52Z</time>
      </trkpt>
      <trkpt lat="45.97502" lon="4.8466">
        <ele>275</ele>
        <time>2017-12-20T10:42:53Z</time>
      </trkpt>
      <trkpt lat="45.97506" lon="4.84656">
        <ele>275</ele>
        <time>2017-12-20T10:42:54Z</time>
      </trkpt>
      <trkpt lat="45.97511" lon="4.84652">
        <ele>275</ele>
        <time>2017-12-20T10:42:55Z</time>
      </trkpt>
      <trkpt lat="45.97517" lon="4.84648">
        <ele>275</ele>
        <time>2017-12-20T10:42:56Z</time>
      </trkpt>
      <trkpt lat="45.97521" lon="4.84645">
        <ele>275</ele>
        <time>2017-12-20T10:42:57Z</time>
      </trkpt>
      <trkpt lat="45.97526" lon="4.84642">
        <ele>275</ele>
        <time>2017-12-20T10:42:58Z</time>
      </trkpt>
      <trkpt lat="45.97531" lon="4.84637">
        <ele>275</ele>
        <time>2017-12-20T10:42:59Z</time>
      </trkpt>
      <trkpt lat="45.97537" lon="4.84634">
        <ele>275</ele>
        <time>2017-12-20T10:43:00Z</time>
      </trkpt>
      <trkpt lat="45.97541" lon="4.84628">
        <ele>275</ele>
        <time>2017-12-20T10:43:01Z</time>
      </trkpt>
      <trkpt lat="45.97546" lon="4.84624">
        <ele>274</ele>
        <time>2017-12-20T10:43:02Z</time>
      </trkpt>
      <trkpt lat="45.97551" lon="4.8462">
        <ele>274</ele>
        <time>2017-12-20T10:43:03Z</time>
      </trkpt>
      <trkpt lat="45.97554" lon="4.84615">
        <ele>274</ele>
        <time>2017-12-20T10:43:04Z</time>
      </trkpt>
      <trkpt lat="45.97558" lon="4.84611">
        <ele>274</ele>
        <time>2017-12-20T10:43:05Z</time>
      </trkpt>
      <trkpt lat="45.97563" lon="4.84607">
        <ele>274</ele>
        <time>2017-12-20T10:43:06Z</time>
      </trkpt>
      <trkpt lat="45.97568" lon="4.84603">
        <ele>274</ele>
        <time>2017-12-20T10:43:07Z</time>
      </trkpt>
      <trkpt lat="45.97572" lon="4.84598">
        <ele>274</ele>
        <time>2017-12-20T10:43:08Z</time>
      </trkpt>
      <trkpt lat="45.97576" lon="4.84592">
        <ele>274</ele>
        <time>2017-12-20T10:43:09Z</time>
      </trkpt>
      <trkpt lat="45.9758" lon="4.84587">
        <ele>274</ele>
        <time>2017-12-20T10:43:10Z</time>
      </trkpt>
      <trkpt lat="45.97584" lon="4.84582">
        <ele>274</ele>
        <time>2017-12-20T10:43:11Z</time>
      </trkpt>
      <trkpt lat="45.97589" lon="4.84576">
        <ele>274</ele>
        <time>2017-12-20T10:43:12Z</time>
      </trkpt>
      <trkpt lat="45.97592" lon="4.8457">
        <ele>274</ele>
        <time>2017-12-20T10:43:13Z</time>
      </trkpt>
      <trkpt lat="45.97598" lon="4.84564">
        <ele>274</ele>
        <time>2017-12-20T10:43:14Z</time>
      </trkpt>
      <trkpt lat="45.97601" lon="4.84559">
        <ele>275</ele>
        <time>2017-12-20T10:43:15Z</time>
      </trkpt>
      <trkpt lat="45.97606" lon="4.84555">
        <ele>275</ele>
        <time>2017-12-20T10:43:16Z</time>
      </trkpt>
      <trkpt lat="45.97609" lon="4.84549">
        <ele>275</ele>
        <time>2017-12-20T10:43:17Z</time>
      </trkpt>
      <trkpt lat="45.97614" lon="4.84544">
        <ele>275</ele>
        <time>2017-12-20T10:43:18Z</time>
      </trkpt>
      <trkpt lat="45.97618" lon="4.84539">
        <ele>275</ele>
        <time>2017-12-20T10:43:19Z</time>
      </trkpt>
      <trkpt lat="45.97622" lon="4.84534">
        <ele>275</ele>
        <time>2017-12-20T10:43:20Z</time>
      </trkpt>
      <trkpt lat="45.97626" lon="4.84528">
        <ele>275</ele>
        <time>2017-12-20T10:43:21Z</time>
      </trkpt>
      <trkpt lat="45.9763" lon="4.84523">
        <ele>275</ele>
        <time>2017-12-20T10:43:22Z</time>
      </trkpt>
      <trkpt lat="45.97633" lon="4.84518">
        <ele>275</ele>
        <time>2017-12-20T10:43:23Z</time>
      </trkpt>
      <trkpt lat="45.97637" lon="4.84514">
        <ele>275</ele>
        <time>2017-12-20T10:43:24Z</time>
      </trkpt>
      <trkpt lat="45.97641" lon="4.84509">
        <ele>275</ele>
        <time>2017-12-20T10:43:25Z</time>
      </trkpt>
      <trkpt lat="45.97645" lon="4.84505">
        <ele>275</ele>
        <time>2017-12-20T10:43:26Z</time>
      </trkpt>
      <trkpt lat="45.97649" lon="4.845">
        <ele>275</ele>
        <time>2017-12-20T10:43:27Z</time>
      </trkpt>
      <trkpt lat="45.97654" lon="4.84496">
        <ele>275</ele>
        <time>2017-12-20T10:43:28Z</time>
      </trkpt>
      <trkpt lat="45.97659" lon="4.84491">
        <ele>275</ele>
        <time>2017-12-20T10:43:29Z</time>
      </trkpt>
      <trkpt lat="45.97663" lon="4.84487">
        <ele>275</ele>
        <time>2017-12-20T10:43:30Z</time>
      </trkpt>
      <trkpt lat="45.97667" lon="4.84485">
        <ele>276</ele>
        <time>2017-12-20T10:43:31Z</time>
      </trkpt>
      <trkpt lat="45.97671" lon="4.84481">
        <ele>276</ele>
        <time>2017-12-20T10:43:32Z</time>
      </trkpt>
      <trkpt lat="45.97676" lon="4.84478">
        <ele>276</ele>
        <time>2017-12-20T10:43:33Z</time>
      </trkpt>
      <trkpt lat="45.9768" lon="4.84476">
        <ele>276</ele>
        <time>2017-12-20T10:43:34Z</time>
      </trkpt>
      <trkpt lat="45.97685" lon="4.84473">
        <ele>277</ele>
        <time>2017-12-20T10:43:35Z</time>
      </trkpt>
      <trkpt lat="45.9769" lon="4.84471">
        <ele>277</ele>
        <time>2017-12-20T10:43:36Z</time>
      </trkpt>
      <trkpt lat="45.97695" lon="4.84468">
        <ele>277</ele>
        <time>2017-12-20T10:43:37Z</time>
      </trkpt>
      <trkpt lat="45.977" lon="4.84465">
        <ele>277</ele>
        <time>2017-12-20T10:43:38Z</time>
      </trkpt>
      <trkpt lat="45.97705" lon="4.84462">
        <ele>277</ele>
        <time>2017-12-20T10:43:39Z</time>
      </trkpt>
      <trkpt lat="45.97709" lon="4.84461">
        <ele>277</ele>
        <time>2017-12-20T10:43:40Z</time>
      </trkpt>
      <trkpt lat="45.97714" lon="4.84459">
        <ele>277</ele>
        <time>2017-12-20T10:43:41Z</time>
      </trkpt>
      <trkpt lat="45.97719" lon="4.84457">
        <ele>277</ele>
        <time>2017-12-20T10:43:42Z</time>
      </trkpt>
      <trkpt lat="45.97724" lon="4.84456">
        <ele>277</ele>
        <time>2017-12-20T10:43:43Z</time>
      </trkpt>
      <trkpt lat="45.97729" lon="4.84454">
        <ele>277</ele>
        <time>2017-12-20T10:43:44Z</time>
      </trkpt>
      <trkpt lat="45.97735" lon="4.84452">
        <ele>277</ele>
        <time>2017-12-20T10:43:45Z</time>
      </trkpt>
      <trkpt lat="45.97739" lon="4.8445">
        <ele>277</ele>
        <time>2017-12-20T10:43:46Z</time>
      </trkpt>
      <trkpt lat="45.97744" lon="4.84448">
        <ele>277</ele>
        <time>2017-12-20T10:43:47Z</time>
      </trkpt>
      <trkpt lat="45.97749" lon="4.84447">
        <ele>277</ele>
        <time>2017-12-20T10:43:48Z</time>
      </trkpt>
      <trkpt lat="45.97754" lon="4.84445">
        <ele>277</ele>
        <time>2017-12-20T10:43:49Z</time>
      </trkpt>
      <trkpt lat="45.97759" lon="4.84443">
        <ele>277</ele>
        <time>2017-12-20T10:43:50Z</time>
      </trkpt>
      <trkpt lat="45.97764" lon="4.84442">
        <ele>277</ele>
        <time>2017-12-20T10:43:51Z</time>
      </trkpt>
      <trkpt lat="45.97769" lon="4.8444">
        <ele>277</ele>
        <time>2017-12-20T10:43:52Z</time>
      </trkpt>
      <trkpt lat="45.97775" lon="4.84439">
        <ele>277</ele>
        <time>2017-12-20T10:43:53Z</time>
      </trkpt>
      <trkpt lat="45.97779" lon="4.84436">
        <ele>277</ele>
        <time>2017-12-20T10:43:54Z</time>
      </trkpt>
      <trkpt lat="45.97784" lon="4.84434">
        <ele>277</ele>
        <time>2017-12-20T10:43:55Z</time>
      </trkpt>
      <trkpt lat="45.97789" lon="4.84432">
        <ele>277</ele>
        <time>2017-12-20T10:43:56Z</time>
      </trkpt>
      <trkpt lat="45.97794" lon="4.84429">
        <ele>277</ele>
        <time>2017-12-20T10:43:57Z</time>
      </trkpt>
      <trkpt lat="45.97798" lon="4.84426">
        <ele>277</ele>
        <time>2017-12-20T10:43:58Z</time>
      </trkpt>
      <trkpt lat="45.97803" lon="4.84424">
        <ele>277</ele>
        <time>2017-12-20T10:43:59Z</time>
      </trkpt>
      <trkpt lat="45.97808" lon="4.84421">
        <ele>277</ele>
        <time>2017-12-20T10:44:00Z</time>
      </trkpt>
      <trkpt lat="45.97813" lon="4.84418">
        <ele>276</ele>
        <time>2017-12-20T10:44:01Z</time>
      </trkpt>
      <trkpt lat="45.97818" lon="4.84414">
        <ele>276</ele>
        <time>2017-12-20T10:44:02Z</time>
      </trkpt>
      <trkpt lat="45.97822" lon="4.84409">
        <ele>276</ele>
        <time>2017-12-20T10:44:03Z</time>
      </trkpt>
      <trkpt lat="45.97826" lon="4.84405">
        <ele>276</ele>
        <time>2017-12-20T10:44:04Z</time>
      </trkpt>
      <trkpt lat="45.97831" lon="4.84402">
        <ele>276</ele>
        <time>2017-12-20T10:44:05Z</time>
      </trkpt>
      <trkpt lat="45.97836" lon="4.84398">
        <ele>276</ele>
        <time>2017-12-20T10:44:06Z</time>
      </trkpt>
      <trkpt lat="45.9784" lon="4.84395">
        <ele>276</ele>
        <time>2017-12-20T10:44:07Z</time>
      </trkpt>
      <trkpt lat="45.97844" lon="4.84391">
        <ele>276</ele>
        <time>2017-12-20T10:44:08Z</time>
      </trkpt>
      <trkpt lat="45.97848" lon="4.84386">
        <ele>276</ele>
        <time>2017-12-20T10:44:09Z</time>
      </trkpt>
      <trkpt lat="45.97852" lon="4.84381">
        <ele>276</ele>
        <time>2017-12-20T10:44:10Z</time>
      </trkpt>
      <trkpt lat="45.97856" lon="4.84376">
        <ele>276</ele>
        <time>2017-12-20T10:44:11Z</time>
      </trkpt>
      <trkpt lat="45.97861" lon="4.84372">
        <ele>276</ele>
        <time>2017-12-20T10:44:12Z</time>
      </trkpt>
      <trkpt lat="45.97864" lon="4.84366">
        <ele>276</ele>
        <time>2017-12-20T10:44:13Z</time>
      </trkpt>
      <trkpt lat="45.97868" lon="4.8436">
        <ele>276</ele>
        <time>2017-12-20T10:44:14Z</time>
      </trkpt>
      <trkpt lat="45.97872" lon="4.84355">
        <ele>276</ele>
        <time>2017-12-20T10:44:15Z</time>
      </trkpt>
      <trkpt lat="45.97875" lon="4.84351">
        <ele>276</ele>
        <time>2017-12-20T10:44:16Z</time>
      </trkpt>
      <trkpt lat="45.97878" lon="4.84344">
        <ele>275</ele>
        <time>2017-12-20T10:44:17Z</time>
      </trkpt>
      <trkpt lat="45.9788" lon="4.84339">
        <ele>275</ele>
        <time>2017-12-20T10:44:18Z</time>
      </trkpt>
      <trkpt lat="45.97884" lon="4.84333">
        <ele>275</ele>
        <time>2017-12-20T10:44:19Z</time>
      </trkpt>
      <trkpt lat="45.97887" lon="4.84328">
        <ele>275</ele>
        <time>2017-12-20T10:44:20Z</time>
      </trkpt>
      <trkpt lat="45.9789" lon="4.84323">
        <ele>275</ele>
        <time>2017-12-20T10:44:21Z</time>
      </trkpt>
      <trkpt lat="45.97893" lon="4.84319">
        <ele>275</ele>
        <time>2017-12-20T10:44:22Z</time>
      </trkpt>
      <trkpt lat="45.97898" lon="4.84312">
        <ele>275</ele>
        <time>2017-12-20T10:44:23Z</time>
      </trkpt>
      <trkpt lat="45.97902" lon="4.84307">
        <ele>275</ele>
        <time>2017-12-20T10:44:24Z</time>
      </trkpt>
      <trkpt lat="45.97904" lon="4.84301">
        <ele>275</ele>
        <time>2017-12-20T10:44:25Z</time>
      </trkpt>
      <trkpt lat="45.97908" lon="4.84296">
        <ele>275</ele>
        <time>2017-12-20T10:44:26Z</time>
      </trkpt>
      <trkpt lat="45.97912" lon="4.8429">
        <ele>275</ele>
        <time>2017-12-20T10:44:27Z</time>
      </trkpt>
      <trkpt lat="45.97915" lon="4.84285">
        <ele>275</ele>
        <time>2017-12-20T10:44:28Z</time>
      </trkpt>
      <trkpt lat="45.97919" lon="4.8428">
        <ele>275</ele>
        <time>2017-12-20T10:44:29Z</time>
      </trkpt>
      <trkpt lat="45.97923" lon="4.84275">
        <ele>275</ele>
        <time>2017-12-20T10:44:30Z</time>
      </trkpt>
      <trkpt lat="45.97927" lon="4.84271">
        <ele>275</ele>
        <time>2017-12-20T10:44:31Z</time>
      </trkpt>
      <trkpt lat="45.97931" lon="4.84267">
        <ele>275</ele>
        <time>2017-12-20T10:44:32Z</time>
      </trkpt>
      <trkpt lat="45.97935" lon="4.84263">
        <ele>275</ele>
        <time>2017-12-20T10:44:33Z</time>
      </trkpt>
      <trkpt lat="45.97939" lon="4.84258">
        <ele>275</ele>
        <time>2017-12-20T10:44:34Z</time>
      </trkpt>
      <trkpt lat="45.97943" lon="4.84254">
        <ele>275</ele>
        <time>2017-12-20T10:44:35Z</time>
      </trkpt>
      <trkpt lat="45.97947" lon="4.8425">
        <ele>275</ele>
        <time>2017-12-20T10:44:36Z</time>
      </trkpt>
      <trkpt lat="45.97951" lon="4.84246">
        <ele>275</ele>
        <time>2017-12-20T10:44:37Z</time>
      </trkpt>
      <trkpt lat="45.97955" lon="4.84242">
        <ele>275</ele>
        <time>2017-12-20T10:44:38Z</time>
      </trkpt>
      <trkpt lat="45.9796" lon="4.84238">
        <ele>274</ele>
        <time>2017-12-20T10:44:39Z</time>
      </trkpt>
      <trkpt lat="45.97965" lon="4.84233">
        <ele>274</ele>
        <time>2017-12-20T10:44:40Z</time>
      </trkpt>
      <trkpt lat="45.9797" lon="4.84228">
        <ele>274</ele>
        <time>2017-12-20T10:44:41Z</time>
      </trkpt>
      <trkpt lat="45.97974" lon="4.84225">
        <ele>274</ele>
        <time>2017-12-20T10:44:42Z</time>
      </trkpt>
      <trkpt lat="45.97978" lon="4.84222">
        <ele>274</ele>
        <time>2017-12-20T10:44:43Z</time>
      </trkpt>
      <trkpt lat="45.97983" lon="4.84219">
        <ele>274</ele>
        <time>2017-12-20T10:44:44Z</time>
      </trkpt>
      <trkpt lat="45.97988" lon="4.84215">
        <ele>274</ele>
        <time>2017-12-20T10:44:45Z</time>
      </trkpt>
      <trkpt lat="45.97992" lon="4.84211">
        <ele>274</ele>
        <time>2017-12-20T10:44:46Z</time>
      </trkpt>
      <trkpt lat="45.97996" lon="4.84207">
        <ele>274</ele>
        <time>2017-12-20T10:44:47Z</time>
      </trkpt>
      <trkpt lat="45.98001" lon="4.84203">
        <ele>274</ele>
        <time>2017-12-20T10:44:48Z</time>
      </trkpt>
      <trkpt lat="45.98006" lon="4.842">
        <ele>274</ele>
        <time>2017-12-20T10:44:49Z</time>
      </trkpt>
      <trkpt lat="45.9801" lon="4.84196">
        <ele>274</ele>
        <time>2017-12-20T10:44:50Z</time>
      </trkpt>
      <trkpt lat="45.98014" lon="4.84192">
        <ele>274</ele>
        <time>2017-12-20T10:44:51Z</time>
      </trkpt>
      <trkpt lat="45.98018" lon="4.84188">
        <ele>274</ele>
        <time>2017-12-20T10:44:52Z</time>
      </trkpt>
      <trkpt lat="45.98023" lon="4.84184">
        <ele>274</ele>
        <time>2017-12-20T10:44:53Z</time>
      </trkpt>
      <trkpt lat="45.98026" lon="4.8418">
        <ele>274</ele>
        <time>2017-12-20T10:44:54Z</time>
      </trkpt>
      <trkpt lat="45.98031" lon="4.84176">
        <ele>273</ele>
        <time>2017-12-20T10:44:55Z</time>
      </trkpt>
      <trkpt lat="45.98035" lon="4.84173">
        <ele>273</ele>
        <time>2017-12-20T10:44:56Z</time>
      </trkpt>
      <trkpt lat="45.98039" lon="4.8417">
        <ele>273</ele>
        <time>2017-12-20T10:44:57Z</time>
      </trkpt>
      <trkpt lat="45.98043" lon="4.84166">
        <ele>273</ele>
        <time>2017-12-20T10:44:58Z</time>
      </trkpt>
      <trkpt lat="45.98048" lon="4.84162">
        <ele>273</ele>
        <time>2017-12-20T10:44:59Z</time>
      </trkpt>
      <trkpt lat="45.98052" lon="4.84158">
        <ele>273</ele>
        <time>2017-12-20T10:45:00Z</time>
      </trkpt>
      <trkpt lat="45.98057" lon="4.84155">
        <ele>273</ele>
        <time>2017-12-20T10:45:01Z</time>
      </trkpt>
      <trkpt lat="45.98061" lon="4.84151">
        <ele>273</ele>
        <time>2017-12-20T10:45:02Z</time>
      </trkpt>
      <trkpt lat="45.98065" lon="4.84145">
        <ele>273</ele>
        <time>2017-12-20T10:45:03Z</time>
      </trkpt>
      <trkpt lat="45.9807" lon="4.84141">
        <ele>273</ele>
        <time>2017-12-20T10:45:04Z</time>
      </trkpt>
      <trkpt lat="45.98075" lon="4.84136">
        <ele>273</ele>
        <time>2017-12-20T10:45:05Z</time>
      </trkpt>
      <trkpt lat="45.98079" lon="4.8413">
        <ele>273</ele>
        <time>2017-12-20T10:45:06Z</time>
      </trkpt>
      <trkpt lat="45.98084" lon="4.84127">
        <ele>273</ele>
        <time>2017-12-20T10:45:07Z</time>
      </trkpt>
      <trkpt lat="45.98087" lon="4.84122">
        <ele>273</ele>
        <time>2017-12-20T10:45:08Z</time>
      </trkpt>
      <trkpt lat="45.98092" lon="4.84118">
        <ele>273</ele>
        <time>2017-12-20T10:45:09Z</time>
      </trkpt>
      <trkpt lat="45.98097" lon="4.84115">
        <ele>273</ele>
        <time>2017-12-20T10:45:10Z</time>
      </trkpt>
      <trkpt lat="45.98101" lon="4.84111">
        <ele>273</ele>
        <time>2017-12-20T10:45:11Z</time>
      </trkpt>
      <trkpt lat="45.98106" lon="4.84107">
        <ele>273</ele>
        <time>2017-12-20T10:45:12Z</time>
      </trkpt>
      <trkpt lat="45.98111" lon="4.84101">
        <ele>273</ele>
        <time>2017-12-20T10:45:13Z</time>
      </trkpt>
      <trkpt lat="45.98115" lon="4.84096">
        <ele>273</ele>
        <time>2017-12-20T10:45:14Z</time>
      </trkpt>
      <trkpt lat="45.98119" lon="4.84091">
        <ele>273</ele>
        <time>2017-12-20T10:45:15Z</time>
      </trkpt>
      <trkpt lat="45.98124" lon="4.84087">
        <ele>273</ele>
        <time>2017-12-20T10:45:16Z</time>
      </trkpt>
      <trkpt lat="45.98128" lon="4.84081">
        <ele>273</ele>
        <time>2017-12-20T10:45:17Z</time>
      </trkpt>
      <trkpt lat="45.98133" lon="4.84076">
        <ele>273</ele>
        <time>2017-12-20T10:45:18Z</time>
      </trkpt>
      <trkpt lat="45.98137" lon="4.84071">
        <ele>273</ele>
        <time>2017-12-20T10:45:19Z</time>
      </trkpt>
      <trkpt lat="45.98141" lon="4.84066">
        <ele>273</ele>
        <time>2017-12-20T10:45:20Z</time>
      </trkpt>
      <trkpt lat="45.98146" lon="4.84058">
        <ele>273</ele>
        <time>2017-12-20T10:45:21Z</time>
      </trkpt>
      <trkpt lat="45.98151" lon="4.84052">
        <ele>273</ele>
        <time>2017-12-20T10:45:22Z</time>
      </trkpt>
      <trkpt lat="45.98155" lon="4.84047">
        <ele>273</ele>
        <time>2017-12-20T10:45:23Z</time>
      </trkpt>
      <trkpt lat="45.98159" lon="4.84042">
        <ele>273</ele>
        <time>2017-12-20T10:45:24Z</time>
      </trkpt>
      <trkpt lat="45.98162" lon="4.84037">
        <ele>273</ele>
        <time>2017-12-20T10:45:25Z</time>
      </trkpt>
      <trkpt lat="45.98165" lon="4.84031">
        <ele>273</ele>
        <time>2017-12-20T10:45:26Z</time>
      </trkpt>
      <trkpt lat="45.98168" lon="4.84024">
        <ele>273</ele>
        <time>2017-12-20T10:45:27Z</time>
      </trkpt>
      <trkpt lat="45.98172" lon="4.84019">
        <ele>273</ele>
        <time>2017-12-20T10:45:28Z</time>
      </trkpt>
      <trkpt lat="45.98174" lon="4.84012">
        <ele>273</ele>
        <time>2017-12-20T10:45:29Z</time>
      </trkpt>
      <trkpt lat="45.98177" lon="4.84006">
        <ele>273</ele>
        <time>2017-12-20T10:45:30Z</time>
      </trkpt>
      <trkpt lat="45.9818" lon="4.83999">
        <ele>273</ele>
        <time>2017-12-20T10:45:31Z</time>
      </trkpt>
      <trkpt lat="45.98183" lon="4.83992">
        <ele>273</ele>
        <time>2017-12-20T10:45:32Z</time>
      </trkpt>
      <trkpt lat="45.98186" lon="4.83984">
        <ele>273</ele>
        <time>2017-12-20T10:45:33Z</time>
      </trkpt>
      <trkpt lat="45.98189" lon="4.83976">
        <ele>273</ele>
        <time>2017-12-20T10:45:34Z</time>
      </trkpt>
      <trkpt lat="45.98191" lon="4.83968">
        <ele>273</ele>
        <time>2017-12-20T10:45:35Z</time>
      </trkpt>
      <trkpt lat="45.98194" lon="4.83962">
        <ele>273</ele>
        <time>2017-12-20T10:45:36Z</time>
      </trkpt>
      <trkpt lat="45.98197" lon="4.83956">
        <ele>273</ele>
        <time>2017-12-20T10:45:37Z</time>
      </trkpt>
      <trkpt lat="45.98199" lon="4.83948">
        <ele>273</ele>
        <time>2017-12-20T10:45:38Z</time>
      </trkpt>
      <trkpt lat="45.98201" lon="4.83941">
        <ele>273</ele>
        <time>2017-12-20T10:45:39Z</time>
      </trkpt>
      <trkpt lat="45.98204" lon="4.83933">
        <ele>273</ele>
        <time>2017-12-20T10:45:40Z</time>
      </trkpt>
      <trkpt lat="45.98206" lon="4.83926">
        <ele>273</ele>
        <time>2017-12-20T10:45:41Z</time>
      </trkpt>
      <trkpt lat="45.98208" lon="4.83919">
        <ele>273</ele>
        <time>2017-12-20T10:45:42Z</time>
      </trkpt>
      <trkpt lat="45.9821" lon="4.83912">
        <ele>273</ele>
        <time>2017-12-20T10:45:43Z</time>
      </trkpt>
      <trkpt lat="45.98213" lon="4.83905">
        <ele>273</ele>
        <time>2017-12-20T10:45:44Z</time>
      </trkpt>
      <trkpt lat="45.98215" lon="4.83898">
        <ele>273</ele>
        <time>2017-12-20T10:45:45Z</time>
      </trkpt>
      <trkpt lat="45.98217" lon="4.8389">
        <ele>273</ele>
        <time>2017-12-20T10:45:46Z</time>
      </trkpt>
      <trkpt lat="45.98219" lon="4.83884">
        <ele>272</ele>
        <time>2017-12-20T10:45:47Z</time>
      </trkpt>
      <trkpt lat="45.98221" lon="4.83878">
        <ele>272</ele>
        <time>2017-12-20T10:45:48Z</time>
      </trkpt>
      <trkpt lat="45.98224" lon="4.83872">
        <ele>272</ele>
        <time>2017-12-20T10:45:49Z</time>
      </trkpt>
      <trkpt lat="45.98226" lon="4.83865">
        <ele>272</ele>
        <time>2017-12-20T10:45:50Z</time>
      </trkpt>
      <trkpt lat="45.98229" lon="4.83859">
        <ele>272</ele>
        <time>2017-12-20T10:45:51Z</time>
      </trkpt>
      <trkpt lat="45.98232" lon="4.83852">
        <ele>272</ele>
        <time>2017-12-20T10:45:52Z</time>
      </trkpt>
      <trkpt lat="45.98234" lon="4.83846">
        <ele>272</ele>
        <time>2017-12-20T10:45:53Z</time>
      </trkpt>
      <trkpt lat="45.98237" lon="4.83839">
        <ele>272</ele>
        <time>2017-12-20T10:45:54Z</time>
      </trkpt>
      <trkpt lat="45.98239" lon="4.83831">
        <ele>272</ele>
        <time>2017-12-20T10:45:55Z</time>
      </trkpt>
      <trkpt lat="45.98241" lon="4.83825">
        <ele>272</ele>
        <time>2017-12-20T10:45:56Z</time>
      </trkpt>
      <trkpt lat="45.98243" lon="4.83817">
        <ele>272</ele>
        <time>2017-12-20T10:45:57Z</time>
      </trkpt>
      <trkpt lat="45.98246" lon="4.83811">
        <ele>272</ele>
        <time>2017-12-20T10:45:58Z</time>
      </trkpt>
      <trkpt lat="45.98248" lon="4.83801">
        <ele>272</ele>
        <time>2017-12-20T10:45:59Z</time>
      </trkpt>
      <trkpt lat="45.9825" lon="4.83794">
        <ele>272</ele>
        <time>2017-12-20T10:46:00Z</time>
      </trkpt>
      <trkpt lat="45.98252" lon="4.83787">
        <ele>272</ele>
        <time>2017-12-20T10:46:01Z</time>
      </trkpt>
      <trkpt lat="45.98255" lon="4.8378">
        <ele>272</ele>
        <time>2017-12-20T10:46:02Z</time>
      </trkpt>
      <trkpt lat="45.98258" lon="4.83774">
        <ele>272</ele>
        <time>2017-12-20T10:46:03Z</time>
      </trkpt>
      <trkpt lat="45.9826" lon="4.83767">
        <ele>272</ele>
        <time>2017-12-20T10:46:04Z</time>
      </trkpt>
      <trkpt lat="45.98262" lon="4.83759">
        <ele>272</ele>
        <time>2017-12-20T10:46:05Z</time>
      </trkpt>
      <trkpt lat="45.98265" lon="4.83753">
        <ele>272</ele>
        <time>2017-12-20T10:46:06Z</time>
      </trkpt>
      <trkpt lat="45.98268" lon="4.83746">
        <ele>272</ele>
        <time>2017-12-20T10:46:07Z</time>
      </trkpt>
      <trkpt lat="45.9827" lon="4.83739">
        <ele>272</ele>
        <time>2017-12-20T10:46:08Z</time>
      </trkpt>
      <trkpt lat="45.98273" lon="4.8373">
        <ele>272</ele>
        <time>2017-12-20T10:46:09Z</time>
      </trkpt>
      <trkpt lat="45.98275" lon="4.83724">
        <ele>272</ele>
        <time>2017-12-20T10:46:10Z</time>
      </trkpt>
      <trkpt lat="45.98278" lon="4.83716">
        <ele>272</ele>
        <time>2017-12-20T10:46:11Z</time>
      </trkpt>
      <trkpt lat="45.98281" lon="4.8371">
        <ele>272</ele>
        <time>2017-12-20T10:46:12Z</time>
      </trkpt>
      <trkpt lat="45.98284" lon="4.83702">
        <ele>272</ele>
        <time>2017-12-20T10:46:13Z</time>
      </trkpt>
      <trkpt lat="45.98286" lon="4.83695">
        <ele>272</ele>
        <time>2017-12-20T10:46:14Z</time>
      </trkpt>
      <trkpt lat="45.98288" lon="4.83688">
        <ele>272</ele>
        <time>2017-12-20T10:46:15Z</time>
      </trkpt>
      <trkpt lat="45.98291" lon="4.83681">
        <ele>272</ele>
        <time>2017-12-20T10:46:16Z</time>
      </trkpt>
      <trkpt lat="45.98294" lon="4.83674">
        <ele>272</ele>
        <time>2017-12-20T10:46:17Z</time>
      </trkpt>
      <trkpt lat="45.98298" lon="4.83668">
        <ele>272</ele>
        <time>2017-12-20T10:46:18Z</time>
      </trkpt>
      <trkpt lat="45.98301" lon="4.83661">
        <ele>271</ele>
        <time>2017-12-20T10:46:19Z</time>
      </trkpt>
      <trkpt lat="45.98304" lon="4.83655">
        <ele>271</ele>
        <time>2017-12-20T10:46:20Z</time>
      </trkpt>
      <trkpt lat="45.98308" lon="4.83648">
        <ele>271</ele>
        <time>2017-12-20T10:46:21Z</time>
      </trkpt>
      <trkpt lat="45.98311" lon="4.83642">
        <ele>271</ele>
        <time>2017-12-20T10:46:22Z</time>
      </trkpt>
      <trkpt lat="45.98314" lon="4.83635">
        <ele>271</ele>
        <time>2017-12-20T10:46:23Z</time>
      </trkpt>
      <trkpt lat="45.98317" lon="4.83628">
        <ele>271</ele>
        <time>2017-12-20T10:46:24Z</time>
      </trkpt>
      <trkpt lat="45.9832" lon="4.83621">
        <ele>271</ele>
        <time>2017-12-20T10:46:25Z</time>
      </trkpt>
      <trkpt lat="45.98324" lon="4.83614">
        <ele>271</ele>
        <time>2017-12-20T10:46:26Z</time>
      </trkpt>
      <trkpt lat="45.98328" lon="4.83609">
        <ele>271</ele>
        <time>2017-12-20T10:46:27Z</time>
      </trkpt>
      <trkpt lat="45.98333" lon="4.83603">
        <ele>271</ele>
        <time>2017-12-20T10:46:28Z</time>
      </trkpt>
      <trkpt lat="45.98337" lon="4.83597">
        <ele>270</ele>
        <time>2017-12-20T10:46:29Z</time>
      </trkpt>
      <trkpt lat="45.98342" lon="4.8359">
        <ele>270</ele>
        <time>2017-12-20T10:46:30Z</time>
      </trkpt>
      <trkpt lat="45.98345" lon="4.83584">
        <ele>270</ele>
        <time>2017-12-20T10:46:31Z</time>
      </trkpt>
      <trkpt lat="45.9835" lon="4.83578">
        <ele>269</ele>
        <time>2017-12-20T10:46:32Z</time>
      </trkpt>
      <trkpt lat="45.98354" lon="4.83572">
        <ele>269</ele>
        <time>2017-12-20T10:46:33Z</time>
      </trkpt>
      <trkpt lat="45.98359" lon="4.83566">
        <ele>269</ele>
        <time>2017-12-20T10:46:34Z</time>
      </trkpt>
      <trkpt lat="45.98363" lon="4.8356">
        <ele>269</ele>
        <time>2017-12-20T10:46:35Z</time>
      </trkpt>
      <trkpt lat="45.98368" lon="4.83554">
        <ele>269</ele>
        <time>2017-12-20T10:46:36Z</time>
      </trkpt>
      <trkpt lat="45.98372" lon="4.83549">
        <ele>269</ele>
        <time>2017-12-20T10:46:37Z</time>
      </trkpt>
      <trkpt lat="45.98377" lon="4.83544">
        <ele>269</ele>
        <time>2017-12-20T10:46:38Z</time>
      </trkpt>
      <trkpt lat="45.9838" lon="4.83539">
        <ele>269</ele>
        <time>2017-12-20T10:46:39Z</time>
      </trkpt>
      <trkpt lat="45.98385" lon="4.83533">
        <ele>269</ele>
        <time>2017-12-20T10:46:40Z</time>
      </trkpt>
      <trkpt lat="45.98389" lon="4.83527">
        <ele>269</ele>
        <time>2017-12-20T10:46:41Z</time>
      </trkpt>
      <trkpt lat="45.98393" lon="4.83521">
        <ele>269</ele>
        <time>2017-12-20T10:46:42Z</time>
      </trkpt>
      <trkpt lat="45.98398" lon="4.83516">
        <ele>269</ele>
        <time>2017-12-20T10:46:43Z</time>
      </trkpt>
      <trkpt lat="45.98401" lon="4.83511">
        <ele>269</ele>
        <time>2017-12-20T10:46:44Z</time>
      </trkpt>
      <trkpt lat="45.98406" lon="4.83504">
        <ele>268</ele>
        <time>2017-12-20T10:46:45Z</time>
      </trkpt>
      <trkpt lat="45.98411" lon="4.83498">
        <ele>268</ele>
        <time>2017-12-20T10:46:46Z</time>
      </trkpt>
      <trkpt lat="45.98415" lon="4.83491">
        <ele>268</ele>
        <time>2017-12-20T10:46:47Z</time>
      </trkpt>
      <trkpt lat="45.9842" lon="4.83484">
        <ele>268</ele>
        <time>2017-12-20T10:46:48Z</time>
      </trkpt>
      <trkpt lat="45.98424" lon="4.83479">
        <ele>268</ele>
        <time>2017-12-20T10:46:49Z</time>
      </trkpt>
      <trkpt lat="45.98428" lon="4.83474">
        <ele>268</ele>
        <time>2017-12-20T10:46:50Z</time>
      </trkpt>
      <trkpt lat="45.98432" lon="4.83468">
        <ele>268</ele>
        <time>2017-12-20T10:46:51Z</time>
      </trkpt>
      <trkpt lat="45.98437" lon="4.83462">
        <ele>268</ele>
        <time>2017-12-20T10:46:52Z</time>
      </trkpt>
      <trkpt lat="45.98442" lon="4.83457">
        <ele>268</ele>
        <time>2017-12-20T10:46:53Z</time>
      </trkpt>
      <trkpt lat="45.98446" lon="4.83451">
        <ele>268</ele>
        <time>2017-12-20T10:46:54Z</time>
      </trkpt>
      <trkpt lat="45.9845" lon="4.83445">
        <ele>268</ele>
        <time>2017-12-20T10:46:55Z</time>
      </trkpt>
      <trkpt lat="45.98455" lon="4.8344">
        <ele>268</ele>
        <time>2017-12-20T10:46:56Z</time>
      </trkpt>
      <trkpt lat="45.98459" lon="4.83434">
        <ele>268</ele>
        <time>2017-12-20T10:46:57Z</time>
      </trkpt>
      <trkpt lat="45.98463" lon="4.83427">
        <ele>268</ele>
        <time>2017-12-20T10:46:58Z</time>
      </trkpt>
      <trkpt lat="45.98468" lon="4.83421">
        <ele>269</ele>
        <time>2017-12-20T10:46:59Z</time>
      </trkpt>
      <trkpt lat="45.98472" lon="4.83414">
        <ele>269</ele>
        <time>2017-12-20T10:47:00Z</time>
      </trkpt>
      <trkpt lat="45.98476" lon="4.83409">
        <ele>269</ele>
        <time>2017-12-20T10:47:01Z</time>
      </trkpt>
      <trkpt lat="45.9848" lon="4.83404">
        <ele>269</ele>
        <time>2017-12-20T10:47:02Z</time>
      </trkpt>
      <trkpt lat="45.98483" lon="4.83398">
        <ele>269</ele>
        <time>2017-12-20T10:47:03Z</time>
      </trkpt>
      <trkpt lat="45.98489" lon="4.8339">
        <ele>269</ele>
        <time>2017-12-20T10:47:04Z</time>
      </trkpt>
      <trkpt lat="45.98493" lon="4.83385">
        <ele>269</ele>
        <time>2017-12-20T10:47:05Z</time>
      </trkpt>
      <trkpt lat="45.98497" lon="4.83378">
        <ele>269</ele>
        <time>2017-12-20T10:47:06Z</time>
      </trkpt>
      <trkpt lat="45.98501" lon="4.83372">
        <ele>269</ele>
        <time>2017-12-20T10:47:07Z</time>
      </trkpt>
      <trkpt lat="45.98505" lon="4.83367">
        <ele>269</ele>
        <time>2017-12-20T10:47:08Z</time>
      </trkpt>
      <trkpt lat="45.9851" lon="4.83362">
        <ele>269</ele>
        <time>2017-12-20T10:47:09Z</time>
      </trkpt>
      <trkpt lat="45.98514" lon="4.83358">
        <ele>269</ele>
        <time>2017-12-20T10:47:10Z</time>
      </trkpt>
      <trkpt lat="45.98517" lon="4.83354">
        <ele>269</ele>
        <time>2017-12-20T10:47:11Z</time>
      </trkpt>
      <trkpt lat="45.98521" lon="4.83348">
        <ele>269</ele>
        <time>2017-12-20T10:47:12Z</time>
      </trkpt>
      <trkpt lat="45.98524" lon="4.83346">
        <ele>269</ele>
        <time>2017-12-20T10:47:13Z</time>
      </trkpt>
      <trkpt lat="45.98529" lon="4.8334">
        <ele>269</ele>
        <time>2017-12-20T10:47:14Z</time>
      </trkpt>
      <trkpt lat="45.98534" lon="4.8333">
        <ele>269</ele>
        <time>2017-12-20T10:47:16Z</time>
      </trkpt>
      <trkpt lat="45.98537" lon="4.83325">
        <ele>269</ele>
        <time>2017-12-20T10:47:17Z</time>
      </trkpt>
      <trkpt lat="45.98539" lon="4.83321">
        <ele>269</ele>
        <time>2017-12-20T10:47:18Z</time>
      </trkpt>
      <trkpt lat="45.98543" lon="4.83316">
        <ele>269</ele>
        <time>2017-12-20T10:47:19Z</time>
      </trkpt>
      <trkpt lat="45.98547" lon="4.83311">
        <ele>269</ele>
        <time>2017-12-20T10:47:20Z</time>
      </trkpt>
      <trkpt lat="45.98551" lon="4.83307">
        <ele>269</ele>
        <time>2017-12-20T10:47:21Z</time>
      </trkpt>
      <trkpt lat="45.98555" lon="4.83302">
        <ele>269</ele>
        <time>2017-12-20T10:47:22Z</time>
      </trkpt>
      <trkpt lat="45.98559" lon="4.83298">
        <ele>269</ele>
        <time>2017-12-20T10:47:23Z</time>
      </trkpt>
      <trkpt lat="45.98562" lon="4.83293">
        <ele>269</ele>
        <time>2017-12-20T10:47:24Z</time>
      </trkpt>
      <trkpt lat="45.98565" lon="4.83288">
        <ele>269</ele>
        <time>2017-12-20T10:47:25Z</time>
      </trkpt>
      <trkpt lat="45.98569" lon="4.83283">
        <ele>269</ele>
        <time>2017-12-20T10:47:26Z</time>
      </trkpt>
      <trkpt lat="45.98572" lon="4.83279">
        <ele>269</ele>
        <time>2017-12-20T10:47:27Z</time>
      </trkpt>
      <trkpt lat="45.98576" lon="4.83271">
        <ele>269</ele>
        <time>2017-12-20T10:47:29Z</time>
      </trkpt>
      <trkpt lat="45.9858" lon="4.83264">
        <ele>269</ele>
        <time>2017-12-20T10:47:30Z</time>
      </trkpt>
      <trkpt lat="45.98586" lon="4.83256">
        <ele>268</ele>
        <time>2017-12-20T10:47:32Z</time>
      </trkpt>
      <trkpt lat="45.98589" lon="4.83252">
        <ele>268</ele>
        <time>2017-12-20T10:47:33Z</time>
      </trkpt>
      <trkpt lat="45.98594" lon="4.83244">
        <ele>268</ele>
        <time>2017-12-20T10:47:35Z</time>
      </trkpt>
      <trkpt lat="45.98598" lon="4.8324">
        <ele>268</ele>
        <time>2017-12-20T10:47:36Z</time>
      </trkpt>
      <trkpt lat="45.98603" lon="4.83234">
        <ele>268</ele>
        <time>2017-12-20T10:47:37Z</time>
      </trkpt>
      <trkpt lat="45.98607" lon="4.83228">
        <ele>267</ele>
        <time>2017-12-20T10:47:38Z</time>
      </trkpt>
      <trkpt lat="45.98611" lon="4.83223">
        <ele>267</ele>
        <time>2017-12-20T10:47:39Z</time>
      </trkpt>
      <trkpt lat="45.98616" lon="4.83217">
        <ele>267</ele>
        <time>2017-12-20T10:47:40Z</time>
      </trkpt>
      <trkpt lat="45.9862" lon="4.83212">
        <ele>267</ele>
        <time>2017-12-20T10:47:41Z</time>
      </trkpt>
      <trkpt lat="45.98624" lon="4.83208">
        <ele>267</ele>
        <time>2017-12-20T10:47:42Z</time>
      </trkpt>
      <trkpt lat="45.98629" lon="4.83203">
        <ele>267</ele>
        <time>2017-12-20T10:47:43Z</time>
      </trkpt>
      <trkpt lat="45.98633" lon="4.83197">
        <ele>267</ele>
        <time>2017-12-20T10:47:44Z</time>
      </trkpt>
      <trkpt lat="45.98638" lon="4.83193">
        <ele>267</ele>
        <time>2017-12-20T10:47:45Z</time>
      </trkpt>
      <trkpt lat="45.98642" lon="4.83188">
        <ele>267</ele>
        <time>2017-12-20T10:47:46Z</time>
      </trkpt>
      <trkpt lat="45.98646" lon="4.83183">
        <ele>267</ele>
        <time>2017-12-20T10:47:47Z</time>
      </trkpt>
      <trkpt lat="45.98651" lon="4.83178">
        <ele>267</ele>
        <time>2017-12-20T10:47:48Z</time>
      </trkpt>
      <trkpt lat="45.98655" lon="4.83174">
        <ele>267</ele>
        <time>2017-12-20T10:47:49Z</time>
      </trkpt>
      <trkpt lat="45.98659" lon="4.83171">
        <ele>266</ele>
        <time>2017-12-20T10:47:50Z</time>
      </trkpt>
      <trkpt lat="45.98664" lon="4.83168">
        <ele>266</ele>
        <time>2017-12-20T10:47:51Z</time>
      </trkpt>
      <trkpt lat="45.9867" lon="4.83163">
        <ele>266</ele>
        <time>2017-12-20T10:47:52Z</time>
      </trkpt>
      <trkpt lat="45.98675" lon="4.83158">
        <ele>266</ele>
        <time>2017-12-20T10:47:53Z</time>
      </trkpt>
      <trkpt lat="45.9868" lon="4.83155">
        <ele>266</ele>
        <time>2017-12-20T10:47:54Z</time>
      </trkpt>
      <trkpt lat="45.98686" lon="4.8315">
        <ele>266</ele>
        <time>2017-12-20T10:47:55Z</time>
      </trkpt>
      <trkpt lat="45.98691" lon="4.83146">
        <ele>266</ele>
        <time>2017-12-20T10:47:56Z</time>
      </trkpt>
      <trkpt lat="45.98695" lon="4.83143">
        <ele>266</ele>
        <time>2017-12-20T10:47:57Z</time>
      </trkpt>
      <trkpt lat="45.98699" lon="4.8314">
        <ele>266</ele>
        <time>2017-12-20T10:47:58Z</time>
      </trkpt>
      <trkpt lat="45.98703" lon="4.83137">
        <ele>266</ele>
        <time>2017-12-20T10:47:59Z</time>
      </trkpt>
      <trkpt lat="45.98709" lon="4.83134">
        <ele>266</ele>
        <time>2017-12-20T10:48:00Z</time>
      </trkpt>
      <trkpt lat="45.98714" lon="4.83131">
        <ele>266</ele>
        <time>2017-12-20T10:48:01Z</time>
      </trkpt>
      <trkpt lat="45.98719" lon="4.83126">
        <ele>266</ele>
        <time>2017-12-20T10:48:02Z</time>
      </trkpt>
      <trkpt lat="45.98723" lon="4.83123">
        <ele>266</ele>
        <time>2017-12-20T10:48:03Z</time>
      </trkpt>
      <trkpt lat="45.98728" lon="4.83119">
        <ele>266</ele>
        <time>2017-12-20T10:48:04Z</time>
      </trkpt>
      <trkpt lat="45.98733" lon="4.83115">
        <ele>267</ele>
        <time>2017-12-20T10:48:05Z</time>
      </trkpt>
      <trkpt lat="45.98738" lon="4.83111">
        <ele>267</ele>
        <time>2017-12-20T10:48:06Z</time>
      </trkpt>
      <trkpt lat="45.98742" lon="4.83107">
        <ele>267</ele>
        <time>2017-12-20T10:48:07Z</time>
      </trkpt>
      <trkpt lat="45.98746" lon="4.83103">
        <ele>267</ele>
        <time>2017-12-20T10:48:08Z</time>
      </trkpt>
      <trkpt lat="45.9875" lon="4.83099">
        <ele>265</ele>
        <time>2017-12-20T10:48:09Z</time>
      </trkpt>
      <trkpt lat="45.98755" lon="4.83095">
        <ele>266</ele>
        <time>2017-12-20T10:48:10Z</time>
      </trkpt>
      <trkpt lat="45.9876" lon="4.8309">
        <ele>266</ele>
        <time>2017-12-20T10:48:11Z</time>
      </trkpt>
      <trkpt lat="45.98763" lon="4.83086">
        <ele>265</ele>
        <time>2017-12-20T10:48:12Z</time>
      </trkpt>
      <trkpt lat="45.98768" lon="4.83083">
        <ele>266</ele>
        <time>2017-12-20T10:48:13Z</time>
      </trkpt>
      <trkpt lat="45.98772" lon="4.83079">
        <ele>265</ele>
        <time>2017-12-20T10:48:14Z</time>
      </trkpt>
      <trkpt lat="45.98776" lon="4.83076">
        <ele>265</ele>
        <time>2017-12-20T10:48:15Z</time>
      </trkpt>
      <trkpt lat="45.98781" lon="4.83072">
        <ele>265</ele>
        <time>2017-12-20T10:48:16Z</time>
      </trkpt>
      <trkpt lat="45.98787" lon="4.83068">
        <ele>265</ele>
        <time>2017-12-20T10:48:17Z</time>
      </trkpt>
      <trkpt lat="45.98791" lon="4.83064">
        <ele>265</ele>
        <time>2017-12-20T10:48:18Z</time>
      </trkpt>
      <trkpt lat="45.98796" lon="4.8306">
        <ele>264</ele>
        <time>2017-12-20T10:48:19Z</time>
      </trkpt>
      <trkpt lat="45.988" lon="4.83057">
        <ele>264</ele>
        <time>2017-12-20T10:48:20Z</time>
      </trkpt>
      <trkpt lat="45.98804" lon="4.83053">
        <ele>264</ele>
        <time>2017-12-20T10:48:21Z</time>
      </trkpt>
      <trkpt lat="45.98808" lon="4.8305">
        <ele>264</ele>
        <time>2017-12-20T10:48:22Z</time>
      </trkpt>
      <trkpt lat="45.98814" lon="4.83046">
        <ele>264</ele>
        <time>2017-12-20T10:48:23Z</time>
      </trkpt>
      <trkpt lat="45.98818" lon="4.83041">
        <ele>264</ele>
        <time>2017-12-20T10:48:24Z</time>
      </trkpt>
      <trkpt lat="45.98822" lon="4.83038">
        <ele>264</ele>
        <time>2017-12-20T10:48:25Z</time>
      </trkpt>
      <trkpt lat="45.98827" lon="4.83031">
        <ele>264</ele>
        <time>2017-12-20T10:48:26Z</time>
      </trkpt>
      <trkpt lat="45.98831" lon="4.83027">
        <ele>264</ele>
        <time>2017-12-20T10:48:27Z</time>
      </trkpt>
      <trkpt lat="45.98838" lon="4.83023">
        <ele>261</ele>
        <time>2017-12-20T10:48:28Z</time>
      </trkpt>
      <trkpt lat="45.98844" lon="4.83019">
        <ele>261</ele>
        <time>2017-12-20T10:48:29Z</time>
      </trkpt>
      <trkpt lat="45.9885" lon="4.83016">
        <ele>261</ele>
        <time>2017-12-20T10:48:30Z</time>
      </trkpt>
      <trkpt lat="45.98856" lon="4.83011">
        <ele>261</ele>
        <time>2017-12-20T10:48:31Z</time>
      </trkpt>
      <trkpt lat="45.98863" lon="4.83005">
        <ele>260</ele>
        <time>2017-12-20T10:48:32Z</time>
      </trkpt>
      <trkpt lat="45.9887" lon="4.83001">
        <ele>260</ele>
        <time>2017-12-20T10:48:33Z</time>
      </trkpt>
      <trkpt lat="45.98877" lon="4.82997">
        <ele>260</ele>
        <time>2017-12-20T10:48:34Z</time>
      </trkpt>
      <trkpt lat="45.98883" lon="4.82992">
        <ele>259</ele>
        <time>2017-12-20T10:48:35Z</time>
      </trkpt>
      <trkpt lat="45.9889" lon="4.82986">
        <ele>259</ele>
        <time>2017-12-20T10:48:36Z</time>
      </trkpt>
      <trkpt lat="45.98897" lon="4.8298">
        <ele>259</ele>
        <time>2017-12-20T10:48:37Z</time>
      </trkpt>
      <trkpt lat="45.98904" lon="4.82975">
        <ele>259</ele>
        <time>2017-12-20T10:48:38Z</time>
      </trkpt>
      <trkpt lat="45.98913" lon="4.82969">
        <ele>258</ele>
        <time>2017-12-20T10:48:39Z</time>
      </trkpt>
      <trkpt lat="45.9892" lon="4.82962">
        <ele>255</ele>
        <time>2017-12-20T10:48:40Z</time>
      </trkpt>
      <trkpt lat="45.98925" lon="4.82954">
        <ele>255</ele>
        <time>2017-12-20T10:48:41Z</time>
      </trkpt>
      <trkpt lat="45.98931" lon="4.82944">
        <ele>255</ele>
        <time>2017-12-20T10:48:42Z</time>
      </trkpt>
      <trkpt lat="45.98935" lon="4.82932">
        <ele>255</ele>
        <time>2017-12-20T10:48:43Z</time>
      </trkpt>
      <trkpt lat="45.9894" lon="4.82921">
        <ele>255</ele>
        <time>2017-12-20T10:48:44Z</time>
      </trkpt>
      <trkpt lat="45.98944" lon="4.82909">
        <ele>253</ele>
        <time>2017-12-20T10:48:45Z</time>
      </trkpt>
      <trkpt lat="45.98949" lon="4.82896">
        <ele>253</ele>
        <time>2017-12-20T10:48:46Z</time>
      </trkpt>
      <trkpt lat="45.98957" lon="4.82883">
        <ele>253</ele>
        <time>2017-12-20T10:48:47Z</time>
      </trkpt>
      <trkpt lat="45.98962" lon="4.8287">
        <ele>252</ele>
        <time>2017-12-20T10:48:48Z</time>
      </trkpt>
      <trkpt lat="45.98968" lon="4.82856">
        <ele>252</ele>
        <time>2017-12-20T10:48:49Z</time>
      </trkpt>
      <trkpt lat="45.98973" lon="4.82842">
        <ele>251</ele>
        <time>2017-12-20T10:48:50Z</time>
      </trkpt>
      <trkpt lat="45.98979" lon="4.82829">
        <ele>248</ele>
        <time>2017-12-20T10:48:51Z</time>
      </trkpt>
      <trkpt lat="45.98985" lon="4.82813">
        <ele>248</ele>
        <time>2017-12-20T10:48:52Z</time>
      </trkpt>
      <trkpt lat="45.98992" lon="4.82799">
        <ele>248</ele>
        <time>2017-12-20T10:48:53Z</time>
      </trkpt>
      <trkpt lat="45.98998" lon="4.82784">
        <ele>246</ele>
        <time>2017-12-20T10:48:54Z</time>
      </trkpt>
      <trkpt lat="45.99005" lon="4.82769">
        <ele>241</ele>
        <time>2017-12-20T10:48:55Z</time>
      </trkpt>
      <trkpt lat="45.9901" lon="4.82756">
        <ele>241</ele>
        <time>2017-12-20T10:48:56Z</time>
      </trkpt>
      <trkpt lat="45.99019" lon="4.82738">
        <ele>239</ele>
        <time>2017-12-20T10:48:57Z</time>
      </trkpt>
      <trkpt lat="45.99026" lon="4.82725">
        <ele>239</ele>
        <time>2017-12-20T10:48:58Z</time>
      </trkpt>
      <trkpt lat="45.99032" lon="4.82711">
        <ele>238</ele>
        <time>2017-12-20T10:48:59Z</time>
      </trkpt>
      <trkpt lat="45.99037" lon="4.82697">
        <ele>238</ele>
        <time>2017-12-20T10:49:00Z</time>
      </trkpt>
      <trkpt lat="45.99045" lon="4.82683">
        <ele>238</ele>
        <time>2017-12-20T10:49:01Z</time>
      </trkpt>
      <trkpt lat="45.9905" lon="4.82669">
        <ele>237</ele>
        <time>2017-12-20T10:49:02Z</time>
      </trkpt>
      <trkpt lat="45.99058" lon="4.82658">
        <ele>236</ele>
        <time>2017-12-20T10:49:03Z</time>
      </trkpt>
      <trkpt lat="45.99061" lon="4.82648">
        <ele>236</ele>
        <time>2017-12-20T10:49:04Z</time>
      </trkpt>
      <trkpt lat="45.99065" lon="4.82638">
        <ele>236</ele>
        <time>2017-12-20T10:49:05Z</time>
      </trkpt>
      <trkpt lat="45.9907" lon="4.8263">
        <ele>236</ele>
        <time>2017-12-20T10:49:06Z</time>
      </trkpt>
      <trkpt lat="45.99072" lon="4.82622">
        <ele>236</ele>
        <time>2017-12-20T10:49:07Z</time>
      </trkpt>
      <trkpt lat="45.99076" lon="4.82614">
        <ele>236</ele>
        <time>2017-12-20T10:49:08Z</time>
      </trkpt>
      <trkpt lat="45.99079" lon="4.82607">
        <ele>235</ele>
        <time>2017-12-20T10:49:09Z</time>
      </trkpt>
      <trkpt lat="45.99083" lon="4.82596">
        <ele>235</ele>
        <time>2017-12-20T10:49:11Z</time>
      </trkpt>
      <trkpt lat="45.99086" lon="4.8259">
        <ele>235</ele>
        <time>2017-12-20T10:49:12Z</time>
      </trkpt>
      <trkpt lat="45.99085" lon="4.82579">
        <ele>235</ele>
        <time>2017-12-20T10:49:14Z</time>
      </trkpt>
      <trkpt lat="45.99078" lon="4.82572">
        <ele>235</ele>
        <time>2017-12-20T10:49:15Z</time>
      </trkpt>
      <trkpt lat="45.99072" lon="4.82567">
        <ele>235</ele>
        <time>2017-12-20T10:49:16Z</time>
      </trkpt>
      <trkpt lat="45.99066" lon="4.82566">
        <ele>235</ele>
        <time>2017-12-20T10:49:17Z</time>
      </trkpt>
      <trkpt lat="45.99059" lon="4.82564">
        <ele>235</ele>
        <time>2017-12-20T10:49:18Z</time>
      </trkpt>
      <trkpt lat="45.99054" lon="4.82561">
        <ele>235</ele>
        <time>2017-12-20T10:49:19Z</time>
      </trkpt>
      <trkpt lat="45.99049" lon="4.82558">
        <ele>235</ele>
        <time>2017-12-20T10:49:20Z</time>
      </trkpt>
      <trkpt lat="45.99045" lon="4.82555">
        <ele>235</ele>
        <time>2017-12-20T10:49:21Z</time>
      </trkpt>
      <trkpt lat="45.99042" lon="4.82552">
        <ele>235</ele>
        <time>2017-12-20T10:49:22Z</time>
      </trkpt>
      <trkpt lat="45.99036" lon="4.82547">
        <ele>235</ele>
        <time>2017-12-20T10:49:23Z</time>
      </trkpt>
      <trkpt lat="45.99029" lon="4.82538">
        <ele>235</ele>
        <time>2017-12-20T10:49:25Z</time>
      </trkpt>
      <trkpt lat="45.99025" lon="4.82534">
        <ele>235</ele>
        <time>2017-12-20T10:49:26Z</time>
      </trkpt>
      <trkpt lat="45.99022" lon="4.82529">
        <ele>235</ele>
        <time>2017-12-20T10:49:27Z</time>
      </trkpt>
      <trkpt lat="45.99018" lon="4.82522">
        <ele>235</ele>
        <time>2017-12-20T10:49:28Z</time>
      </trkpt>
      <trkpt lat="45.99014" lon="4.82516">
        <ele>235</ele>
        <time>2017-12-20T10:49:29Z</time>
      </trkpt>
      <trkpt lat="45.9901" lon="4.8251">
        <ele>235</ele>
        <time>2017-12-20T10:49:30Z</time>
      </trkpt>
      <trkpt lat="45.99008" lon="4.82503">
        <ele>235</ele>
        <time>2017-12-20T10:49:31Z</time>
      </trkpt>
      <trkpt lat="45.99005" lon="4.82497">
        <ele>235</ele>
        <time>2017-12-20T10:49:32Z</time>
      </trkpt>
      <trkpt lat="45.99002" lon="4.82488">
        <ele>235</ele>
        <time>2017-12-20T10:49:34Z</time>
      </trkpt>
      <trkpt lat="45.99" lon="4.82482">
        <ele>236</ele>
        <time>2017-12-20T10:49:35Z</time>
      </trkpt>
      <trkpt lat="45.98996" lon="4.82471">
        <ele>236</ele>
        <time>2017-12-20T10:49:37Z</time>
      </trkpt>
      <trkpt lat="45.98994" lon="4.82465">
        <ele>236</ele>
        <time>2017-12-20T10:49:38Z</time>
      </trkpt>
      <trkpt lat="45.98991" lon="4.82457">
        <ele>236</ele>
        <time>2017-12-20T10:49:39Z</time>
      </trkpt>
      <trkpt lat="45.98989" lon="4.8245">
        <ele>236</ele>
        <time>2017-12-20T10:49:40Z</time>
      </trkpt>
      <trkpt lat="45.98987" lon="4.82438">
        <ele>236</ele>
        <time>2017-12-20T10:49:42Z</time>
      </trkpt>
      <trkpt lat="45.98985" lon="4.8243">
        <ele>236</ele>
        <time>2017-12-20T10:49:43Z</time>
      </trkpt>
      <trkpt lat="45.98984" lon="4.82423">
        <ele>235</ele>
        <time>2017-12-20T10:49:44Z</time>
      </trkpt>
      <trkpt lat="45.98982" lon="4.82417">
        <ele>235</ele>
        <time>2017-12-20T10:49:45Z</time>
      </trkpt>
      <trkpt lat="45.9898" lon="4.82409">
        <ele>235</ele>
        <time>2017-12-20T10:49:46Z</time>
      </trkpt>
      <trkpt lat="45.98979" lon="4.82402">
        <ele>235</ele>
        <time>2017-12-20T10:49:47Z</time>
      </trkpt>
      <trkpt lat="45.98978" lon="4.82395">
        <ele>235</ele>
        <time>2017-12-20T10:49:48Z</time>
      </trkpt>
      <trkpt lat="45.98977" lon="4.82388">
        <ele>235</ele>
        <time>2017-12-20T10:49:49Z</time>
      </trkpt>
      <trkpt lat="45.98976" lon="4.82377">
        <ele>235</ele>
        <time>2017-12-20T10:49:51Z</time>
      </trkpt>
      <trkpt lat="45.98974" lon="4.8237">
        <ele>235</ele>
        <time>2017-12-20T10:49:52Z</time>
      </trkpt>
      <trkpt lat="45.98972" lon="4.82363">
        <ele>234</ele>
        <time>2017-12-20T10:49:53Z</time>
      </trkpt>
      <trkpt lat="45.98969" lon="4.82356">
        <ele>234</ele>
        <time>2017-12-20T10:49:54Z</time>
      </trkpt>
      <trkpt lat="45.98967" lon="4.8235">
        <ele>234</ele>
        <time>2017-12-20T10:49:55Z</time>
      </trkpt>
      <trkpt lat="45.98964" lon="4.82343">
        <ele>234</ele>
        <time>2017-12-20T10:49:56Z</time>
      </trkpt>
      <trkpt lat="45.9896" lon="4.82338">
        <ele>235</ele>
        <time>2017-12-20T10:49:57Z</time>
      </trkpt>
      <trkpt lat="45.98957" lon="4.82333">
        <ele>234</ele>
        <time>2017-12-20T10:49:58Z</time>
      </trkpt>
      <trkpt lat="45.98954" lon="4.82326">
        <ele>234</ele>
        <time>2017-12-20T10:49:59Z</time>
      </trkpt>
      <trkpt lat="45.98949" lon="4.82322">
        <ele>234</ele>
        <time>2017-12-20T10:50:00Z</time>
      </trkpt>
      <trkpt lat="45.98944" lon="4.82317">
        <ele>234</ele>
        <time>2017-12-20T10:50:01Z</time>
      </trkpt>
      <trkpt lat="45.98938" lon="4.82312">
        <ele>234</ele>
        <time>2017-12-20T10:50:02Z</time>
      </trkpt>
      <trkpt lat="45.98935" lon="4.82307">
        <ele>234</ele>
        <time>2017-12-20T10:50:03Z</time>
      </trkpt>
      <trkpt lat="45.98931" lon="4.82303">
        <ele>234</ele>
        <time>2017-12-20T10:50:04Z</time>
      </trkpt>
      <trkpt lat="45.98927" lon="4.82298">
        <ele>234</ele>
        <time>2017-12-20T10:50:05Z</time>
      </trkpt>
      <trkpt lat="45.9892" lon="4.82293">
        <ele>234</ele>
        <time>2017-12-20T10:50:06Z</time>
      </trkpt>
      <trkpt lat="45.98915" lon="4.82287">
        <ele>236</ele>
        <time>2017-12-20T10:50:07Z</time>
      </trkpt>
      <trkpt lat="45.98911" lon="4.8228">
        <ele>236</ele>
        <time>2017-12-20T10:50:08Z</time>
      </trkpt>
      <trkpt lat="45.98907" lon="4.82276">
        <ele>236</ele>
        <time>2017-12-20T10:50:09Z</time>
      </trkpt>
      <trkpt lat="45.98904" lon="4.8227">
        <ele>236</ele>
        <time>2017-12-20T10:50:10Z</time>
      </trkpt>
      <trkpt lat="45.98901" lon="4.82264">
        <ele>236</ele>
        <time>2017-12-20T10:50:11Z</time>
      </trkpt>
      <trkpt lat="45.98898" lon="4.8226">
        <ele>236</ele>
        <time>2017-12-20T10:50:12Z</time>
      </trkpt>
      <trkpt lat="45.98895" lon="4.82254">
        <ele>236</ele>
        <time>2017-12-20T10:50:13Z</time>
      </trkpt>
      <trkpt lat="45.98892" lon="4.82248">
        <ele>235</ele>
        <time>2017-12-20T10:50:14Z</time>
      </trkpt>
      <trkpt lat="45.98889" lon="4.82243">
        <ele>235</ele>
        <time>2017-12-20T10:50:15Z</time>
      </trkpt>
      <trkpt lat="45.98887" lon="4.82237">
        <ele>235</ele>
        <time>2017-12-20T10:50:16Z</time>
      </trkpt>
      <trkpt lat="45.98885" lon="4.82231">
        <ele>236</ele>
        <time>2017-12-20T10:50:17Z</time>
      </trkpt>
      <trkpt lat="45.98882" lon="4.82226">
        <ele>236</ele>
        <time>2017-12-20T10:50:18Z</time>
      </trkpt>
      <trkpt lat="45.98879" lon="4.82219">
        <ele>236</ele>
        <time>2017-12-20T10:50:19Z</time>
      </trkpt>
      <trkpt lat="45.98877" lon="4.82213">
        <ele>236</ele>
        <time>2017-12-20T10:50:20Z</time>
      </trkpt>
      <trkpt lat="45.98874" lon="4.82206">
        <ele>236</ele>
        <time>2017-12-20T10:50:21Z</time>
      </trkpt>
      <trkpt lat="45.98872" lon="4.82198">
        <ele>236</ele>
        <time>2017-12-20T10:50:22Z</time>
      </trkpt>
      <trkpt lat="45.98869" lon="4.82191">
        <ele>236</ele>
        <time>2017-12-20T10:50:23Z</time>
      </trkpt>
      <trkpt lat="45.98866" lon="4.82184">
        <ele>236</ele>
        <time>2017-12-20T10:50:24Z</time>
      </trkpt>
      <trkpt lat="45.98864" lon="4.82178">
        <ele>236</ele>
        <time>2017-12-20T10:50:25Z</time>
      </trkpt>
      <trkpt lat="45.98862" lon="4.82171">
        <ele>236</ele>
        <time>2017-12-20T10:50:26Z</time>
      </trkpt>
      <trkpt lat="45.9886" lon="4.82165">
        <ele>236</ele>
        <time>2017-12-20T10:50:27Z</time>
      </trkpt>
      <trkpt lat="45.98859" lon="4.82158">
        <ele>236</ele>
        <time>2017-12-20T10:50:28Z</time>
      </trkpt>
      <trkpt lat="45.98857" lon="4.82151">
        <ele>236</ele>
        <time>2017-12-20T10:50:29Z</time>
      </trkpt>
      <trkpt lat="45.98856" lon="4.82144">
        <ele>236</ele>
        <time>2017-12-20T10:50:30Z</time>
      </trkpt>
      <trkpt lat="45.98852" lon="4.82136">
        <ele>235</ele>
        <time>2017-12-20T10:50:31Z</time>
      </trkpt>
      <trkpt lat="45.9885" lon="4.82128">
        <ele>235</ele>
        <time>2017-12-20T10:50:32Z</time>
      </trkpt>
      <trkpt lat="45.98848" lon="4.82121">
        <ele>235</ele>
        <time>2017-12-20T10:50:33Z</time>
      </trkpt>
      <trkpt lat="45.98845" lon="4.82114">
        <ele>235</ele>
        <time>2017-12-20T10:50:34Z</time>
      </trkpt>
      <trkpt lat="45.98844" lon="4.82107">
        <ele>235</ele>
        <time>2017-12-20T10:50:35Z</time>
      </trkpt>
      <trkpt lat="45.98843" lon="4.82099">
        <ele>236</ele>
        <time>2017-12-20T10:50:36Z</time>
      </trkpt>
      <trkpt lat="45.98843" lon="4.82092">
        <ele>236</ele>
        <time>2017-12-20T10:50:37Z</time>
      </trkpt>
      <trkpt lat="45.98842" lon="4.82086">
        <ele>236</ele>
        <time>2017-12-20T10:50:38Z</time>
      </trkpt>
      <trkpt lat="45.98841" lon="4.82079">
        <ele>236</ele>
        <time>2017-12-20T10:50:39Z</time>
      </trkpt>
      <trkpt lat="45.9884" lon="4.82072">
        <ele>236</ele>
        <time>2017-12-20T10:50:40Z</time>
      </trkpt>
      <trkpt lat="45.9884" lon="4.82066">
        <ele>236</ele>
        <time>2017-12-20T10:50:41Z</time>
      </trkpt>
      <trkpt lat="45.98838" lon="4.82059">
        <ele>236</ele>
        <time>2017-12-20T10:50:42Z</time>
      </trkpt>
      <trkpt lat="45.98836" lon="4.82053">
        <ele>236</ele>
        <time>2017-12-20T10:50:43Z</time>
      </trkpt>
      <trkpt lat="45.98837" lon="4.82046">
        <ele>236</ele>
        <time>2017-12-20T10:50:44Z</time>
      </trkpt>
      <trkpt lat="45.98836" lon="4.8204">
        <ele>236</ele>
        <time>2017-12-20T10:50:45Z</time>
      </trkpt>
      <trkpt lat="45.98835" lon="4.82032">
        <ele>236</ele>
        <time>2017-12-20T10:50:46Z</time>
      </trkpt>
      <trkpt lat="45.98835" lon="4.82026">
        <ele>236</ele>
        <time>2017-12-20T10:50:47Z</time>
      </trkpt>
      <trkpt lat="45.98831" lon="4.82018">
        <ele>238</ele>
        <time>2017-12-20T10:50:48Z</time>
      </trkpt>
      <trkpt lat="45.9883" lon="4.82009">
        <ele>238</ele>
        <time>2017-12-20T10:50:49Z</time>
      </trkpt>
      <trkpt lat="45.98828" lon="4.82003">
        <ele>238</ele>
        <time>2017-12-20T10:50:50Z</time>
      </trkpt>
      <trkpt lat="45.98828" lon="4.81995">
        <ele>238</ele>
        <time>2017-12-20T10:50:51Z</time>
      </trkpt>
      <trkpt lat="45.98827" lon="4.81989">
        <ele>238</ele>
        <time>2017-12-20T10:50:52Z</time>
      </trkpt>
      <trkpt lat="45.98826" lon="4.81981">
        <ele>238</ele>
        <time>2017-12-20T10:50:53Z</time>
      </trkpt>
      <trkpt lat="45.98826" lon="4.81974">
        <ele>239</ele>
        <time>2017-12-20T10:50:54Z</time>
      </trkpt>
      <trkpt lat="45.98826" lon="4.81967">
        <ele>239</ele>
        <time>2017-12-20T10:50:55Z</time>
      </trkpt>
      <trkpt lat="45.98825" lon="4.8196">
        <ele>239</ele>
        <time>2017-12-20T10:50:56Z</time>
      </trkpt>
      <trkpt lat="45.98824" lon="4.81953">
        <ele>239</ele>
        <time>2017-12-20T10:50:57Z</time>
      </trkpt>
      <trkpt lat="45.98823" lon="4.81945">
        <ele>239</ele>
        <time>2017-12-20T10:50:58Z</time>
      </trkpt>
      <trkpt lat="45.98821" lon="4.81938">
        <ele>239</ele>
        <time>2017-12-20T10:50:59Z</time>
      </trkpt>
      <trkpt lat="45.98819" lon="4.81932">
        <ele>239</ele>
        <time>2017-12-20T10:51:00Z</time>
      </trkpt>
      <trkpt lat="45.98816" lon="4.81925">
        <ele>239</ele>
        <time>2017-12-20T10:51:01Z</time>
      </trkpt>
      <trkpt lat="45.98816" lon="4.81919">
        <ele>239</ele>
        <time>2017-12-20T10:51:02Z</time>
      </trkpt>
      <trkpt lat="45.98815" lon="4.81907">
        <ele>239</ele>
        <time>2017-12-20T10:51:04Z</time>
      </trkpt>
      <trkpt lat="45.98813" lon="4.81899">
        <ele>239</ele>
        <time>2017-12-20T10:51:05Z</time>
      </trkpt>
      <trkpt lat="45.98812" lon="4.81893">
        <ele>239</ele>
        <time>2017-12-20T10:51:06Z</time>
      </trkpt>
      <trkpt lat="45.98811" lon="4.81885">
        <ele>239</ele>
        <time>2017-12-20T10:51:07Z</time>
      </trkpt>
      <trkpt lat="45.98809" lon="4.81878">
        <ele>239</ele>
        <time>2017-12-20T10:51:08Z</time>
      </trkpt>
      <trkpt lat="45.98807" lon="4.81871">
        <ele>239</ele>
        <time>2017-12-20T10:51:09Z</time>
      </trkpt>
      <trkpt lat="45.98805" lon="4.8186">
        <ele>239</ele>
        <time>2017-12-20T10:51:11Z</time>
      </trkpt>
      <trkpt lat="45.98801" lon="4.81855">
        <ele>239</ele>
        <time>2017-12-20T10:51:12Z</time>
      </trkpt>
      <trkpt lat="45.98798" lon="4.81849">
        <ele>239</ele>
        <time>2017-12-20T10:51:13Z</time>
      </trkpt>
      <trkpt lat="45.98795" lon="4.81845">
        <ele>239</ele>
        <time>2017-12-20T10:51:14Z</time>
      </trkpt>
      <trkpt lat="45.98789" lon="4.81836">
        <ele>239</ele>
        <time>2017-12-20T10:51:16Z</time>
      </trkpt>
      <trkpt lat="45.98787" lon="4.81829">
        <ele>240</ele>
        <time>2017-12-20T10:51:17Z</time>
      </trkpt>
      <trkpt lat="45.98785" lon="4.8182">
        <ele>240</ele>
        <time>2017-12-20T10:51:19Z</time>
      </trkpt>
      <trkpt lat="45.98783" lon="4.81813">
        <ele>240</ele>
        <time>2017-12-20T10:51:20Z</time>
      </trkpt>
      <trkpt lat="45.98781" lon="4.81808">
        <ele>240</ele>
        <time>2017-12-20T10:51:21Z</time>
      </trkpt>
      <trkpt lat="45.98778" lon="4.81801">
        <ele>240</ele>
        <time>2017-12-20T10:51:22Z</time>
      </trkpt>
      <trkpt lat="45.98776" lon="4.81791">
        <ele>241</ele>
        <time>2017-12-20T10:51:24Z</time>
      </trkpt>
      <trkpt lat="45.98775" lon="4.81785">
        <ele>241</ele>
        <time>2017-12-20T10:51:25Z</time>
      </trkpt>
      <trkpt lat="45.98772" lon="4.81775">
        <ele>241</ele>
        <time>2017-12-20T10:51:27Z</time>
      </trkpt>
      <trkpt lat="45.98769" lon="4.81768">
        <ele>241</ele>
        <time>2017-12-20T10:51:28Z</time>
      </trkpt>
      <trkpt lat="45.98766" lon="4.81757">
        <ele>241</ele>
        <time>2017-12-20T10:51:31Z</time>
      </trkpt>
      <trkpt lat="45.98763" lon="4.81754">
        <ele>241</ele>
        <time>2017-12-20T10:51:32Z</time>
      </trkpt>
      <trkpt lat="45.98759" lon="4.81746">
        <ele>241</ele>
        <time>2017-12-20T10:51:34Z</time>
      </trkpt>
      <trkpt lat="45.98758" lon="4.81743">
        <ele>241</ele>
        <time>2017-12-20T10:51:35Z</time>
      </trkpt>
      <trkpt lat="45.98755" lon="4.81739">
        <ele>241</ele>
        <time>2017-12-20T10:51:36Z</time>
      </trkpt>
      <trkpt lat="45.98748" lon="4.81734">
        <ele>240</ele>
        <time>2017-12-20T10:51:37Z</time>
      </trkpt>
      <trkpt lat="45.9874" lon="4.81733">
        <ele>240</ele>
        <time>2017-12-20T10:51:39Z</time>
      </trkpt>
      <trkpt lat="45.98735" lon="4.81734">
        <ele>240</ele>
        <time>2017-12-20T10:51:40Z</time>
      </trkpt>
      <trkpt lat="45.98731" lon="4.81735">
        <ele>239</ele>
        <time>2017-12-20T10:51:41Z</time>
      </trkpt>
      <trkpt lat="45.98726" lon="4.81736">
        <ele>239</ele>
        <time>2017-12-20T10:51:42Z</time>
      </trkpt>
      <trkpt lat="45.98718" lon="4.81735">
        <ele>239</ele>
        <time>2017-12-20T10:51:43Z</time>
      </trkpt>
      <trkpt lat="45.98713" lon="4.81735">
        <ele>239</ele>
        <time>2017-12-20T10:51:44Z</time>
      </trkpt>
      <trkpt lat="45.98707" lon="4.81735">
        <ele>239</ele>
        <time>2017-12-20T10:51:45Z</time>
      </trkpt>
      <trkpt lat="45.98702" lon="4.81734">
        <ele>239</ele>
        <time>2017-12-20T10:51:46Z</time>
      </trkpt>
      <trkpt lat="45.98694" lon="4.81734">
        <ele>238</ele>
        <time>2017-12-20T10:51:47Z</time>
      </trkpt>
      <trkpt lat="45.98688" lon="4.81734">
        <ele>238</ele>
        <time>2017-12-20T10:51:48Z</time>
      </trkpt>
      <trkpt lat="45.98683" lon="4.81737">
        <ele>238</ele>
        <time>2017-12-20T10:51:49Z</time>
      </trkpt>
      <trkpt lat="45.98679" lon="4.81738">
        <ele>238</ele>
        <time>2017-12-20T10:51:50Z</time>
      </trkpt>
      <trkpt lat="45.98675" lon="4.81739">
        <ele>238</ele>
        <time>2017-12-20T10:51:51Z</time>
      </trkpt>
      <trkpt lat="45.98667" lon="4.81741">
        <ele>238</ele>
        <time>2017-12-20T10:51:52Z</time>
      </trkpt>
      <trkpt lat="45.98663" lon="4.81743">
        <ele>238</ele>
        <time>2017-12-20T10:51:53Z</time>
      </trkpt>
      <trkpt lat="45.98658" lon="4.81745">
        <ele>237</ele>
        <time>2017-12-20T10:51:54Z</time>
      </trkpt>
      <trkpt lat="45.98653" lon="4.81747">
        <ele>237</ele>
        <time>2017-12-20T10:51:55Z</time>
      </trkpt>
      <trkpt lat="45.98647" lon="4.81748">
        <ele>237</ele>
        <time>2017-12-20T10:51:56Z</time>
      </trkpt>
      <trkpt lat="45.98642" lon="4.81749">
        <ele>237</ele>
        <time>2017-12-20T10:51:57Z</time>
      </trkpt>
      <trkpt lat="45.98636" lon="4.8175">
        <ele>237</ele>
        <time>2017-12-20T10:51:58Z</time>
      </trkpt>
      <trkpt lat="45.98629" lon="4.81752">
        <ele>238</ele>
        <time>2017-12-20T10:51:59Z</time>
      </trkpt>
      <trkpt lat="45.98623" lon="4.81753">
        <ele>238</ele>
        <time>2017-12-20T10:52:00Z</time>
      </trkpt>
      <trkpt lat="45.98618" lon="4.81756">
        <ele>238</ele>
        <time>2017-12-20T10:52:01Z</time>
      </trkpt>
      <trkpt lat="45.98613" lon="4.8176">
        <ele>238</ele>
        <time>2017-12-20T10:52:02Z</time>
      </trkpt>
      <trkpt lat="45.98608" lon="4.81762">
        <ele>238</ele>
        <time>2017-12-20T10:52:03Z</time>
      </trkpt>
      <trkpt lat="45.98602" lon="4.81765">
        <ele>238</ele>
        <time>2017-12-20T10:52:04Z</time>
      </trkpt>
      <trkpt lat="45.98597" lon="4.81768">
        <ele>238</ele>
        <time>2017-12-20T10:52:05Z</time>
      </trkpt>
      <trkpt lat="45.98592" lon="4.81773">
        <ele>238</ele>
        <time>2017-12-20T10:52:06Z</time>
      </trkpt>
      <trkpt lat="45.98588" lon="4.81777">
        <ele>238</ele>
        <time>2017-12-20T10:52:07Z</time>
      </trkpt>
      <trkpt lat="45.98585" lon="4.81781">
        <ele>238</ele>
        <time>2017-12-20T10:52:08Z</time>
      </trkpt>
      <trkpt lat="45.98581" lon="4.81786">
        <ele>238</ele>
        <time>2017-12-20T10:52:09Z</time>
      </trkpt>
      <trkpt lat="45.98575" lon="4.81794">
        <ele>238</ele>
        <time>2017-12-20T10:52:10Z</time>
      </trkpt>
      <trkpt lat="45.98569" lon="4.81803">
        <ele>238</ele>
        <time>2017-12-20T10:52:12Z</time>
      </trkpt>
      <trkpt lat="45.98564" lon="4.81807">
        <ele>238</ele>
        <time>2017-12-20T10:52:13Z</time>
      </trkpt>
      <trkpt lat="45.98555" lon="4.81808">
        <ele>238</ele>
        <time>2017-12-20T10:52:15Z</time>
      </trkpt>
      <trkpt lat="45.98551" lon="4.81805">
        <ele>238</ele>
        <time>2017-12-20T10:52:16Z</time>
      </trkpt>
      <trkpt lat="45.98547" lon="4.81802">
        <ele>238</ele>
        <time>2017-12-20T10:52:17Z</time>
      </trkpt>
      <trkpt lat="45.98543" lon="4.81798">
        <ele>238</ele>
        <time>2017-12-20T10:52:18Z</time>
      </trkpt>
      <trkpt lat="45.98538" lon="4.8179">
        <ele>238</ele>
        <time>2017-12-20T10:52:20Z</time>
      </trkpt>
      <trkpt lat="45.98534" lon="4.81785">
        <ele>238</ele>
        <time>2017-12-20T10:52:21Z</time>
      </trkpt>
      <trkpt lat="45.98531" lon="4.81779">
        <ele>238</ele>
        <time>2017-12-20T10:52:22Z</time>
      </trkpt>
      <trkpt lat="45.98527" lon="4.81775">
        <ele>238</ele>
        <time>2017-12-20T10:52:23Z</time>
      </trkpt>
      <trkpt lat="45.98524" lon="4.8177">
        <ele>238</ele>
        <time>2017-12-20T10:52:24Z</time>
      </trkpt>
      <trkpt lat="45.9852" lon="4.81764">
        <ele>237</ele>
        <time>2017-12-20T10:52:25Z</time>
      </trkpt>
      <trkpt lat="45.98516" lon="4.8176">
        <ele>237</ele>
        <time>2017-12-20T10:52:26Z</time>
      </trkpt>
      <trkpt lat="45.98512" lon="4.81756">
        <ele>237</ele>
        <time>2017-12-20T10:52:27Z</time>
      </trkpt>
      <trkpt lat="45.98509" lon="4.81751">
        <ele>237</ele>
        <time>2017-12-20T10:52:28Z</time>
      </trkpt>
      <trkpt lat="45.98504" lon="4.81748">
        <ele>237</ele>
        <time>2017-12-20T10:52:29Z</time>
      </trkpt>
      <trkpt lat="45.98499" lon="4.81743">
        <ele>237</ele>
        <time>2017-12-20T10:52:30Z</time>
      </trkpt>
      <trkpt lat="45.98494" lon="4.81738">
        <ele>238</ele>
        <time>2017-12-20T10:52:31Z</time>
      </trkpt>
      <trkpt lat="45.98489" lon="4.81734">
        <ele>238</ele>
        <time>2017-12-20T10:52:32Z</time>
      </trkpt>
      <trkpt lat="45.98485" lon="4.81731">
        <ele>238</ele>
        <time>2017-12-20T10:52:33Z</time>
      </trkpt>
      <trkpt lat="45.98479" lon="4.81723">
        <ele>238</ele>
        <time>2017-12-20T10:52:35Z</time>
      </trkpt>
      <trkpt lat="45.98476" lon="4.81719">
        <ele>239</ele>
        <time>2017-12-20T10:52:36Z</time>
      </trkpt>
      <trkpt lat="45.98472" lon="4.8171">
        <ele>239</ele>
        <time>2017-12-20T10:52:38Z</time>
      </trkpt>
      <trkpt lat="45.9847" lon="4.81705">
        <ele>239</ele>
        <time>2017-12-20T10:52:39Z</time>
      </trkpt>
      <trkpt lat="45.98465" lon="4.817">
        <ele>239</ele>
        <time>2017-12-20T10:52:41Z</time>
      </trkpt>
      <trkpt lat="45.98463" lon="4.81696">
        <ele>239</ele>
        <time>2017-12-20T10:52:42Z</time>
      </trkpt>
      <trkpt lat="45.98458" lon="4.8169">
        <ele>239</ele>
        <time>2017-12-20T10:52:44Z</time>
      </trkpt>
      <trkpt lat="45.98456" lon="4.81687">
        <ele>239</ele>
        <time>2017-12-20T10:52:45Z</time>
      </trkpt>
      <trkpt lat="45.98451" lon="4.81678">
        <ele>239</ele>
        <time>2017-12-20T10:52:47Z</time>
      </trkpt>
      <trkpt lat="45.98448" lon="4.81674">
        <ele>239</ele>
        <time>2017-12-20T10:52:48Z</time>
      </trkpt>
      <trkpt lat="45.98444" lon="4.81671">
        <ele>239</ele>
        <time>2017-12-20T10:52:49Z</time>
      </trkpt>
      <trkpt lat="45.9844" lon="4.81668">
        <ele>240</ele>
        <time>2017-12-20T10:52:50Z</time>
      </trkpt>
      <trkpt lat="45.98435" lon="4.81666">
        <ele>239</ele>
        <time>2017-12-20T10:52:51Z</time>
      </trkpt>
      <trkpt lat="45.9843" lon="4.81667">
        <ele>239</ele>
        <time>2017-12-20T10:52:52Z</time>
      </trkpt>
      <trkpt lat="45.98426" lon="4.81667">
        <ele>240</ele>
        <time>2017-12-20T10:52:53Z</time>
      </trkpt>
      <trkpt lat="45.9842" lon="4.81667">
        <ele>241</ele>
        <time>2017-12-20T10:52:54Z</time>
      </trkpt>
      <trkpt lat="45.98415" lon="4.81667">
        <ele>241</ele>
        <time>2017-12-20T10:52:55Z</time>
      </trkpt>
      <trkpt lat="45.9841" lon="4.81668">
        <ele>242</ele>
        <time>2017-12-20T10:52:56Z</time>
      </trkpt>
      <trkpt lat="45.98401" lon="4.81671">
        <ele>242</ele>
        <time>2017-12-20T10:52:58Z</time>
      </trkpt>
      <trkpt lat="45.98396" lon="4.81672">
        <ele>243</ele>
        <time>2017-12-20T10:52:59Z</time>
      </trkpt>
      <trkpt lat="45.98392" lon="4.81673">
        <ele>243</ele>
        <time>2017-12-20T10:53:00Z</time>
      </trkpt>
      <trkpt lat="45.98387" lon="4.81675">
        <ele>243</ele>
        <time>2017-12-20T10:53:01Z</time>
      </trkpt>
      <trkpt lat="45.9838" lon="4.81678">
        <ele>244</ele>
        <time>2017-12-20T10:53:03Z</time>
      </trkpt>
      <trkpt lat="45.98376" lon="4.81679">
        <ele>244</ele>
        <time>2017-12-20T10:53:04Z</time>
      </trkpt>
      <trkpt lat="45.98371" lon="4.8168">
        <ele>244</ele>
        <time>2017-12-20T10:53:05Z</time>
      </trkpt>
      <trkpt lat="45.98367" lon="4.8168">
        <ele>244</ele>
        <time>2017-12-20T10:53:06Z</time>
      </trkpt>
      <trkpt lat="45.98358" lon="4.81678">
        <ele>244</ele>
        <time>2017-12-20T10:53:08Z</time>
      </trkpt>
      <trkpt lat="45.98354" lon="4.81677">
        <ele>245</ele>
        <time>2017-12-20T10:53:09Z</time>
      </trkpt>
      <trkpt lat="45.98345" lon="4.81673">
        <ele>245</ele>
        <time>2017-12-20T10:53:11Z</time>
      </trkpt>
      <trkpt lat="45.98342" lon="4.81672">
        <ele>245</ele>
        <time>2017-12-20T10:53:12Z</time>
      </trkpt>
      <trkpt lat="45.98335" lon="4.81667">
        <ele>246</ele>
        <time>2017-12-20T10:53:14Z</time>
      </trkpt>
      <trkpt lat="45.98332" lon="4.81662">
        <ele>246</ele>
        <time>2017-12-20T10:53:15Z</time>
      </trkpt>
      <trkpt lat="45.98327" lon="4.81657">
        <ele>246</ele>
        <time>2017-12-20T10:53:16Z</time>
      </trkpt>
      <trkpt lat="45.98323" lon="4.81654">
        <ele>246</ele>
        <time>2017-12-20T10:53:17Z</time>
      </trkpt>
      <trkpt lat="45.9832" lon="4.81651">
        <ele>246</ele>
        <time>2017-12-20T10:53:18Z</time>
      </trkpt>
      <trkpt lat="45.98316" lon="4.81647">
        <ele>246</ele>
        <time>2017-12-20T10:53:19Z</time>
      </trkpt>
      <trkpt lat="45.98312" lon="4.81642">
        <ele>246</ele>
        <time>2017-12-20T10:53:20Z</time>
      </trkpt>
      <trkpt lat="45.98308" lon="4.81636">
        <ele>246</ele>
        <time>2017-12-20T10:53:21Z</time>
      </trkpt>
      <trkpt lat="45.98302" lon="4.81627">
        <ele>246</ele>
        <time>2017-12-20T10:53:23Z</time>
      </trkpt>
      <trkpt lat="45.98299" lon="4.81623">
        <ele>246</ele>
        <time>2017-12-20T10:53:24Z</time>
      </trkpt>
      <trkpt lat="45.98295" lon="4.81613">
        <ele>246</ele>
        <time>2017-12-20T10:53:26Z</time>
      </trkpt>
      <trkpt lat="45.98292" lon="4.8161">
        <ele>246</ele>
        <time>2017-12-20T10:53:27Z</time>
      </trkpt>
      <trkpt lat="45.98286" lon="4.816">
        <ele>246</ele>
        <time>2017-12-20T10:53:29Z</time>
      </trkpt>
      <trkpt lat="45.98284" lon="4.81595">
        <ele>246</ele>
        <time>2017-12-20T10:53:30Z</time>
      </trkpt>
      <trkpt lat="45.98281" lon="4.81585">
        <ele>247</ele>
        <time>2017-12-20T10:53:32Z</time>
      </trkpt>
      <trkpt lat="45.98278" lon="4.8158">
        <ele>246</ele>
        <time>2017-12-20T10:53:33Z</time>
      </trkpt>
      <trkpt lat="45.98274" lon="4.81568">
        <ele>246</ele>
        <time>2017-12-20T10:53:35Z</time>
      </trkpt>
      <trkpt lat="45.98274" lon="4.81563">
        <ele>246</ele>
        <time>2017-12-20T10:53:36Z</time>
      </trkpt>
      <trkpt lat="45.98272" lon="4.81557">
        <ele>246</ele>
        <time>2017-12-20T10:53:37Z</time>
      </trkpt>
      <trkpt lat="45.98268" lon="4.81547">
        <ele>246</ele>
        <time>2017-12-20T10:53:38Z</time>
      </trkpt>
      <trkpt lat="45.98264" lon="4.81537">
        <ele>247</ele>
        <time>2017-12-20T10:53:40Z</time>
      </trkpt>
      <trkpt lat="45.98263" lon="4.81531">
        <ele>247</ele>
        <time>2017-12-20T10:53:41Z</time>
      </trkpt>
      <trkpt lat="45.9826" lon="4.81526">
        <ele>247</ele>
        <time>2017-12-20T10:53:42Z</time>
      </trkpt>
      <trkpt lat="45.98258" lon="4.8152">
        <ele>247</ele>
        <time>2017-12-20T10:53:43Z</time>
      </trkpt>
      <trkpt lat="45.98256" lon="4.81514">
        <ele>248</ele>
        <time>2017-12-20T10:53:44Z</time>
      </trkpt>
      <trkpt lat="45.98253" lon="4.81507">
        <ele>248</ele>
        <time>2017-12-20T10:53:45Z</time>
      </trkpt>
      <trkpt lat="45.9825" lon="4.81495">
        <ele>248</ele>
        <time>2017-12-20T10:53:47Z</time>
      </trkpt>
      <trkpt lat="45.98248" lon="4.8149">
        <ele>249</ele>
        <time>2017-12-20T10:53:48Z</time>
      </trkpt>
      <trkpt lat="45.98244" lon="4.81479">
        <ele>249</ele>
        <time>2017-12-20T10:53:50Z</time>
      </trkpt>
      <trkpt lat="45.98241" lon="4.81473">
        <ele>249</ele>
        <time>2017-12-20T10:53:51Z</time>
      </trkpt>
      <trkpt lat="45.98239" lon="4.81467">
        <ele>249</ele>
        <time>2017-12-20T10:53:52Z</time>
      </trkpt>
      <trkpt lat="45.98237" lon="4.81461">
        <ele>249</ele>
        <time>2017-12-20T10:53:53Z</time>
      </trkpt>
      <trkpt lat="45.98234" lon="4.81455">
        <ele>249</ele>
        <time>2017-12-20T10:53:54Z</time>
      </trkpt>
      <trkpt lat="45.98232" lon="4.81449">
        <ele>249</ele>
        <time>2017-12-20T10:53:55Z</time>
      </trkpt>
      <trkpt lat="45.9823" lon="4.81442">
        <ele>249</ele>
        <time>2017-12-20T10:53:56Z</time>
      </trkpt>
      <trkpt lat="45.98228" lon="4.81434">
        <ele>249</ele>
        <time>2017-12-20T10:53:57Z</time>
      </trkpt>
      <trkpt lat="45.98226" lon="4.81427">
        <ele>249</ele>
        <time>2017-12-20T10:53:58Z</time>
      </trkpt>
      <trkpt lat="45.98225" lon="4.81421">
        <ele>248</ele>
        <time>2017-12-20T10:53:59Z</time>
      </trkpt>
      <trkpt lat="45.98223" lon="4.81415">
        <ele>248</ele>
        <time>2017-12-20T10:54:00Z</time>
      </trkpt>
      <trkpt lat="45.98221" lon="4.81408">
        <ele>248</ele>
        <time>2017-12-20T10:54:01Z</time>
      </trkpt>
      <trkpt lat="45.98219" lon="4.81401">
        <ele>248</ele>
        <time>2017-12-20T10:54:02Z</time>
      </trkpt>
      <trkpt lat="45.98217" lon="4.81394">
        <ele>248</ele>
        <time>2017-12-20T10:54:03Z</time>
      </trkpt>
      <trkpt lat="45.98215" lon="4.81388">
        <ele>248</ele>
        <time>2017-12-20T10:54:04Z</time>
      </trkpt>
      <trkpt lat="45.98214" lon="4.81381">
        <ele>248</ele>
        <time>2017-12-20T10:54:05Z</time>
      </trkpt>
      <trkpt lat="45.98212" lon="4.81375">
        <ele>248</ele>
        <time>2017-12-20T10:54:06Z</time>
      </trkpt>
      <trkpt lat="45.9821" lon="4.81368">
        <ele>248</ele>
        <time>2017-12-20T10:54:07Z</time>
      </trkpt>
      <trkpt lat="45.98208" lon="4.81362">
        <ele>248</ele>
        <time>2017-12-20T10:54:08Z</time>
      </trkpt>
      <trkpt lat="45.98206" lon="4.81353">
        <ele>248</ele>
        <time>2017-12-20T10:54:09Z</time>
      </trkpt>
      <trkpt lat="45.98203" lon="4.81341">
        <ele>248</ele>
        <time>2017-12-20T10:54:11Z</time>
      </trkpt>
      <trkpt lat="45.98206" lon="4.81336">
        <ele>248</ele>
        <time>2017-12-20T10:54:12Z</time>
      </trkpt>
      <trkpt lat="45.98203" lon="4.81329">
        <ele>247</ele>
        <time>2017-12-20T10:54:13Z</time>
      </trkpt>
      <trkpt lat="45.98202" lon="4.81321">
        <ele>247</ele>
        <time>2017-12-20T10:54:14Z</time>
      </trkpt>
      <trkpt lat="45.98199" lon="4.81314">
        <ele>247</ele>
        <time>2017-12-20T10:54:15Z</time>
      </trkpt>
      <trkpt lat="45.98197" lon="4.81306">
        <ele>247</ele>
        <time>2017-12-20T10:54:16Z</time>
      </trkpt>
      <trkpt lat="45.98197" lon="4.813">
        <ele>247</ele>
        <time>2017-12-20T10:54:17Z</time>
      </trkpt>
      <trkpt lat="45.98195" lon="4.81292">
        <ele>247</ele>
        <time>2017-12-20T10:54:18Z</time>
      </trkpt>
      <trkpt lat="45.98195" lon="4.81286">
        <ele>247</ele>
        <time>2017-12-20T10:54:19Z</time>
      </trkpt>
      <trkpt lat="45.98194" lon="4.81279">
        <ele>247</ele>
        <time>2017-12-20T10:54:20Z</time>
      </trkpt>
      <trkpt lat="45.98193" lon="4.81272">
        <ele>247</ele>
        <time>2017-12-20T10:54:21Z</time>
      </trkpt>
      <trkpt lat="45.98192" lon="4.81265">
        <ele>247</ele>
        <time>2017-12-20T10:54:22Z</time>
      </trkpt>
      <trkpt lat="45.98191" lon="4.81259">
        <ele>247</ele>
        <time>2017-12-20T10:54:23Z</time>
      </trkpt>
      <trkpt lat="45.98189" lon="4.81251">
        <ele>247</ele>
        <time>2017-12-20T10:54:24Z</time>
      </trkpt>
      <trkpt lat="45.98188" lon="4.81244">
        <ele>246</ele>
        <time>2017-12-20T10:54:25Z</time>
      </trkpt>
      <trkpt lat="45.98186" lon="4.81236">
        <ele>246</ele>
        <time>2017-12-20T10:54:26Z</time>
      </trkpt>
      <trkpt lat="45.98185" lon="4.81228">
        <ele>246</ele>
        <time>2017-12-20T10:54:27Z</time>
      </trkpt>
      <trkpt lat="45.98184" lon="4.81221">
        <ele>246</ele>
        <time>2017-12-20T10:54:28Z</time>
      </trkpt>
      <trkpt lat="45.98184" lon="4.81213">
        <ele>246</ele>
        <time>2017-12-20T10:54:29Z</time>
      </trkpt>
      <trkpt lat="45.98183" lon="4.81206">
        <ele>245</ele>
        <time>2017-12-20T10:54:30Z</time>
      </trkpt>
      <trkpt lat="45.9818" lon="4.81197">
        <ele>245</ele>
        <time>2017-12-20T10:54:31Z</time>
      </trkpt>
      <trkpt lat="45.9818" lon="4.8119">
        <ele>245</ele>
        <time>2017-12-20T10:54:32Z</time>
      </trkpt>
      <trkpt lat="45.98179" lon="4.81183">
        <ele>245</ele>
        <time>2017-12-20T10:54:33Z</time>
      </trkpt>
      <trkpt lat="45.98178" lon="4.81176">
        <ele>245</ele>
        <time>2017-12-20T10:54:34Z</time>
      </trkpt>
      <trkpt lat="45.98175" lon="4.81169">
        <ele>245</ele>
        <time>2017-12-20T10:54:35Z</time>
      </trkpt>
      <trkpt lat="45.98173" lon="4.81161">
        <ele>244</ele>
        <time>2017-12-20T10:54:36Z</time>
      </trkpt>
      <trkpt lat="45.98171" lon="4.81154">
        <ele>244</ele>
        <time>2017-12-20T10:54:37Z</time>
      </trkpt>
      <trkpt lat="45.98169" lon="4.81146">
        <ele>244</ele>
        <time>2017-12-20T10:54:38Z</time>
      </trkpt>
      <trkpt lat="45.98168" lon="4.8114">
        <ele>244</ele>
        <time>2017-12-20T10:54:39Z</time>
      </trkpt>
      <trkpt lat="45.98167" lon="4.81132">
        <ele>244</ele>
        <time>2017-12-20T10:54:40Z</time>
      </trkpt>
      <trkpt lat="45.98163" lon="4.81125">
        <ele>245</ele>
        <time>2017-12-20T10:54:41Z</time>
      </trkpt>
      <trkpt lat="45.98158" lon="4.81117">
        <ele>245</ele>
        <time>2017-12-20T10:54:42Z</time>
      </trkpt>
      <trkpt lat="45.98154" lon="4.8111">
        <ele>245</ele>
        <time>2017-12-20T10:54:43Z</time>
      </trkpt>
      <trkpt lat="45.98153" lon="4.81105">
        <ele>245</ele>
        <time>2017-12-20T10:54:44Z</time>
      </trkpt>
      <trkpt lat="45.98152" lon="4.81098">
        <ele>245</ele>
        <time>2017-12-20T10:54:45Z</time>
      </trkpt>
      <trkpt lat="45.98149" lon="4.81091">
        <ele>245</ele>
        <time>2017-12-20T10:54:46Z</time>
      </trkpt>
      <trkpt lat="45.98145" lon="4.81083">
        <ele>243</ele>
        <time>2017-12-20T10:54:47Z</time>
      </trkpt>
      <trkpt lat="45.98139" lon="4.81072">
        <ele>243</ele>
        <time>2017-12-20T10:54:48Z</time>
      </trkpt>
      <trkpt lat="45.98136" lon="4.81064">
        <ele>243</ele>
        <time>2017-12-20T10:54:49Z</time>
      </trkpt>
      <trkpt lat="45.98132" lon="4.81058">
        <ele>243</ele>
        <time>2017-12-20T10:54:50Z</time>
      </trkpt>
      <trkpt lat="45.98129" lon="4.8105">
        <ele>242</ele>
        <time>2017-12-20T10:54:51Z</time>
      </trkpt>
      <trkpt lat="45.98126" lon="4.81043">
        <ele>242</ele>
        <time>2017-12-20T10:54:52Z</time>
      </trkpt>
      <trkpt lat="45.98123" lon="4.81036">
        <ele>242</ele>
        <time>2017-12-20T10:54:53Z</time>
      </trkpt>
      <trkpt lat="45.98121" lon="4.8103">
        <ele>242</ele>
        <time>2017-12-20T10:54:54Z</time>
      </trkpt>
      <trkpt lat="45.98119" lon="4.81023">
        <ele>242</ele>
        <time>2017-12-20T10:54:55Z</time>
      </trkpt>
      <trkpt lat="45.98117" lon="4.81015">
        <ele>242</ele>
        <time>2017-12-20T10:54:56Z</time>
      </trkpt>
      <trkpt lat="45.98114" lon="4.81007">
        <ele>242</ele>
        <time>2017-12-20T10:54:57Z</time>
      </trkpt>
      <trkpt lat="45.98112" lon="4.81002">
        <ele>242</ele>
        <time>2017-12-20T10:54:58Z</time>
      </trkpt>
      <trkpt lat="45.98109" lon="4.8099">
        <ele>239</ele>
        <time>2017-12-20T10:55:00Z</time>
      </trkpt>
      <trkpt lat="45.98106" lon="4.80986">
        <ele>239</ele>
        <time>2017-12-20T10:55:01Z</time>
      </trkpt>
      <trkpt lat="45.98104" lon="4.8098">
        <ele>239</ele>
        <time>2017-12-20T10:55:02Z</time>
      </trkpt>
      <trkpt lat="45.98102" lon="4.80973">
        <ele>239</ele>
        <time>2017-12-20T10:55:03Z</time>
      </trkpt>
      <trkpt lat="45.98101" lon="4.80966">
        <ele>239</ele>
        <time>2017-12-20T10:55:04Z</time>
      </trkpt>
      <trkpt lat="45.98098" lon="4.80957">
        <ele>238</ele>
        <time>2017-12-20T10:55:05Z</time>
      </trkpt>
      <trkpt lat="45.98097" lon="4.80948">
        <ele>238</ele>
        <time>2017-12-20T10:55:06Z</time>
      </trkpt>
      <trkpt lat="45.98094" lon="4.8094">
        <ele>238</ele>
        <time>2017-12-20T10:55:07Z</time>
      </trkpt>
      <trkpt lat="45.98092" lon="4.80929">
        <ele>238</ele>
        <time>2017-12-20T10:55:08Z</time>
      </trkpt>
      <trkpt lat="45.9809" lon="4.80919">
        <ele>239</ele>
        <time>2017-12-20T10:55:09Z</time>
      </trkpt>
      <trkpt lat="45.98087" lon="4.80909">
        <ele>237</ele>
        <time>2017-12-20T10:55:10Z</time>
      </trkpt>
      <trkpt lat="45.98083" lon="4.80898">
        <ele>236</ele>
        <time>2017-12-20T10:55:11Z</time>
      </trkpt>
      <trkpt lat="45.9808" lon="4.80886">
        <ele>237</ele>
        <time>2017-12-20T10:55:12Z</time>
      </trkpt>
      <trkpt lat="45.98077" lon="4.80875">
        <ele>237</ele>
        <time>2017-12-20T10:55:13Z</time>
      </trkpt>
      <trkpt lat="45.98074" lon="4.80864">
        <ele>237</ele>
        <time>2017-12-20T10:55:14Z</time>
      </trkpt>
      <trkpt lat="45.98071" lon="4.80852">
        <ele>236</ele>
        <time>2017-12-20T10:55:15Z</time>
      </trkpt>
      <trkpt lat="45.98068" lon="4.80841">
        <ele>236</ele>
        <time>2017-12-20T10:55:16Z</time>
      </trkpt>
      <trkpt lat="45.98065" lon="4.8083">
        <ele>234</ele>
        <time>2017-12-20T10:55:17Z</time>
      </trkpt>
      <trkpt lat="45.98063" lon="4.80819">
        <ele>234</ele>
        <time>2017-12-20T10:55:18Z</time>
      </trkpt>
      <trkpt lat="45.98061" lon="4.80808">
        <ele>234</ele>
        <time>2017-12-20T10:55:19Z</time>
      </trkpt>
      <trkpt lat="45.98059" lon="4.80798">
        <ele>233</ele>
        <time>2017-12-20T10:55:20Z</time>
      </trkpt>
      <trkpt lat="45.98056" lon="4.80788">
        <ele>233</ele>
        <time>2017-12-20T10:55:21Z</time>
      </trkpt>
      <trkpt lat="45.98054" lon="4.80778">
        <ele>233</ele>
        <time>2017-12-20T10:55:22Z</time>
      </trkpt>
      <trkpt lat="45.98052" lon="4.8077">
        <ele>233</ele>
        <time>2017-12-20T10:55:23Z</time>
      </trkpt>
      <trkpt lat="45.98051" lon="4.80762">
        <ele>233</ele>
        <time>2017-12-20T10:55:24Z</time>
      </trkpt>
      <trkpt lat="45.9805" lon="4.80756">
        <ele>233</ele>
        <time>2017-12-20T10:55:25Z</time>
      </trkpt>
      <trkpt lat="45.98048" lon="4.80748">
        <ele>231</ele>
        <time>2017-12-20T10:55:26Z</time>
      </trkpt>
      <trkpt lat="45.98046" lon="4.80741">
        <ele>231</ele>
        <time>2017-12-20T10:55:27Z</time>
      </trkpt>
      <trkpt lat="45.98045" lon="4.8073">
        <ele>231</ele>
        <time>2017-12-20T10:55:29Z</time>
      </trkpt>
      <trkpt lat="45.98045" lon="4.80724">
        <ele>231</ele>
        <time>2017-12-20T10:55:30Z</time>
      </trkpt>
      <trkpt lat="45.98044" lon="4.80713">
        <ele>231</ele>
        <time>2017-12-20T10:55:32Z</time>
      </trkpt>
      <trkpt lat="45.98045" lon="4.80708">
        <ele>230</ele>
        <time>2017-12-20T10:55:33Z</time>
      </trkpt>
      <trkpt lat="45.98049" lon="4.80701">
        <ele>230</ele>
        <time>2017-12-20T10:55:35Z</time>
      </trkpt>
      <trkpt lat="45.98054" lon="4.807">
        <ele>230</ele>
        <time>2017-12-20T10:55:36Z</time>
      </trkpt>
      <trkpt lat="45.98059" lon="4.80699">
        <ele>230</ele>
        <time>2017-12-20T10:55:37Z</time>
      </trkpt>
      <trkpt lat="45.98065" lon="4.807">
        <ele>230</ele>
        <time>2017-12-20T10:55:38Z</time>
      </trkpt>
      <trkpt lat="45.98071" lon="4.80698">
        <ele>230</ele>
        <time>2017-12-20T10:55:39Z</time>
      </trkpt>
      <trkpt lat="45.98077" lon="4.80699">
        <ele>230</ele>
        <time>2017-12-20T10:55:40Z</time>
      </trkpt>
      <trkpt lat="45.98082" lon="4.80699">
        <ele>230</ele>
        <time>2017-12-20T10:55:41Z</time>
      </trkpt>
      <trkpt lat="45.9809" lon="4.80696">
        <ele>228</ele>
        <time>2017-12-20T10:55:42Z</time>
      </trkpt>
      <trkpt lat="45.98096" lon="4.80696">
        <ele>228</ele>
        <time>2017-12-20T10:55:43Z</time>
      </trkpt>
      <trkpt lat="45.98102" lon="4.80697">
        <ele>228</ele>
        <time>2017-12-20T10:55:44Z</time>
      </trkpt>
      <trkpt lat="45.98109" lon="4.80697">
        <ele>228</ele>
        <time>2017-12-20T10:55:45Z</time>
      </trkpt>
      <trkpt lat="45.98115" lon="4.80696">
        <ele>228</ele>
        <time>2017-12-20T10:55:46Z</time>
      </trkpt>
      <trkpt lat="45.98122" lon="4.80697">
        <ele>228</ele>
        <time>2017-12-20T10:55:47Z</time>
      </trkpt>
      <trkpt lat="45.98128" lon="4.80697">
        <ele>228</ele>
        <time>2017-12-20T10:55:48Z</time>
      </trkpt>
      <trkpt lat="45.98135" lon="4.80697">
        <ele>228</ele>
        <time>2017-12-20T10:55:49Z</time>
      </trkpt>
      <trkpt lat="45.9814" lon="4.80697">
        <ele>228</ele>
        <time>2017-12-20T10:55:50Z</time>
      </trkpt>
      <trkpt lat="45.98146" lon="4.80697">
        <ele>228</ele>
        <time>2017-12-20T10:55:51Z</time>
      </trkpt>
      <trkpt lat="45.98156" lon="4.80694">
        <ele>228</ele>
        <time>2017-12-20T10:55:52Z</time>
      </trkpt>
      <trkpt lat="45.98162" lon="4.80693">
        <ele>227</ele>
        <time>2017-12-20T10:55:53Z</time>
      </trkpt>
      <trkpt lat="45.98167" lon="4.80692">
        <ele>225</ele>
        <time>2017-12-20T10:55:54Z</time>
      </trkpt>
      <trkpt lat="45.98173" lon="4.80693">
        <ele>225</ele>
        <time>2017-12-20T10:55:55Z</time>
      </trkpt>
      <trkpt lat="45.98178" lon="4.80693">
        <ele>225</ele>
        <time>2017-12-20T10:55:56Z</time>
      </trkpt>
      <trkpt lat="45.98183" lon="4.80692">
        <ele>225</ele>
        <time>2017-12-20T10:55:57Z</time>
      </trkpt>
      <trkpt lat="45.98188" lon="4.8069">
        <ele>225</ele>
        <time>2017-12-20T10:55:58Z</time>
      </trkpt>
      <trkpt lat="45.98193" lon="4.80689">
        <ele>225</ele>
        <time>2017-12-20T10:55:59Z</time>
      </trkpt>
      <trkpt lat="45.98198" lon="4.80687">
        <ele>225</ele>
        <time>2017-12-20T10:56:00Z</time>
      </trkpt>
      <trkpt lat="45.98204" lon="4.80684">
        <ele>225</ele>
        <time>2017-12-20T10:56:01Z</time>
      </trkpt>
      <trkpt lat="45.98209" lon="4.8068">
        <ele>224</ele>
        <time>2017-12-20T10:56:02Z</time>
      </trkpt>
      <trkpt lat="45.98216" lon="4.80677">
        <ele>224</ele>
        <time>2017-12-20T10:56:03Z</time>
      </trkpt>
      <trkpt lat="45.9822" lon="4.80673">
        <ele>224</ele>
        <time>2017-12-20T10:56:04Z</time>
      </trkpt>
      <trkpt lat="45.98224" lon="4.80669">
        <ele>224</ele>
        <time>2017-12-20T10:56:05Z</time>
      </trkpt>
      <trkpt lat="45.98227" lon="4.80664">
        <ele>223</ele>
        <time>2017-12-20T10:56:06Z</time>
      </trkpt>
      <trkpt lat="45.9823" lon="4.80657">
        <ele>223</ele>
        <time>2017-12-20T10:56:07Z</time>
      </trkpt>
      <trkpt lat="45.98233" lon="4.80649">
        <ele>223</ele>
        <time>2017-12-20T10:56:08Z</time>
      </trkpt>
      <trkpt lat="45.98236" lon="4.80641">
        <ele>223</ele>
        <time>2017-12-20T10:56:09Z</time>
      </trkpt>
      <trkpt lat="45.98239" lon="4.80633">
        <ele>224</ele>
        <time>2017-12-20T10:56:10Z</time>
      </trkpt>
      <trkpt lat="45.98241" lon="4.80625">
        <ele>224</ele>
        <time>2017-12-20T10:56:11Z</time>
      </trkpt>
      <trkpt lat="45.98245" lon="4.80617">
        <ele>224</ele>
        <time>2017-12-20T10:56:12Z</time>
      </trkpt>
      <trkpt lat="45.98247" lon="4.80609">
        <ele>224</ele>
        <time>2017-12-20T10:56:13Z</time>
      </trkpt>
      <trkpt lat="45.9825" lon="4.80601">
        <ele>224</ele>
        <time>2017-12-20T10:56:14Z</time>
      </trkpt>
      <trkpt lat="45.98254" lon="4.80593">
        <ele>224</ele>
        <time>2017-12-20T10:56:15Z</time>
      </trkpt>
      <trkpt lat="45.98255" lon="4.80585">
        <ele>224</ele>
        <time>2017-12-20T10:56:16Z</time>
      </trkpt>
      <trkpt lat="45.98257" lon="4.80577">
        <ele>224</ele>
        <time>2017-12-20T10:56:17Z</time>
      </trkpt>
      <trkpt lat="45.98259" lon="4.80569">
        <ele>224</ele>
        <time>2017-12-20T10:56:18Z</time>
      </trkpt>
      <trkpt lat="45.98261" lon="4.80562">
        <ele>224</ele>
        <time>2017-12-20T10:56:19Z</time>
      </trkpt>
      <trkpt lat="45.98264" lon="4.80554">
        <ele>224</ele>
        <time>2017-12-20T10:56:20Z</time>
      </trkpt>
      <trkpt lat="45.98266" lon="4.80543">
        <ele>224</ele>
        <time>2017-12-20T10:56:22Z</time>
      </trkpt>
      <trkpt lat="45.98267" lon="4.80536">
        <ele>224</ele>
        <time>2017-12-20T10:56:23Z</time>
      </trkpt>
      <trkpt lat="45.98269" lon="4.80529">
        <ele>224</ele>
        <time>2017-12-20T10:56:24Z</time>
      </trkpt>
      <trkpt lat="45.98273" lon="4.8052">
        <ele>224</ele>
        <time>2017-12-20T10:56:25Z</time>
      </trkpt>
      <trkpt lat="45.98276" lon="4.80511">
        <ele>224</ele>
        <time>2017-12-20T10:56:26Z</time>
      </trkpt>
      <trkpt lat="45.98279" lon="4.80503">
        <ele>224</ele>
        <time>2017-12-20T10:56:27Z</time>
      </trkpt>
      <trkpt lat="45.98281" lon="4.80495">
        <ele>223</ele>
        <time>2017-12-20T10:56:28Z</time>
      </trkpt>
      <trkpt lat="45.98285" lon="4.80485">
        <ele>223</ele>
        <time>2017-12-20T10:56:29Z</time>
      </trkpt>
      <trkpt lat="45.98288" lon="4.80479">
        <ele>224</ele>
        <time>2017-12-20T10:56:30Z</time>
      </trkpt>
      <trkpt lat="45.9829" lon="4.80473">
        <ele>224</ele>
        <time>2017-12-20T10:56:31Z</time>
      </trkpt>
      <trkpt lat="45.98292" lon="4.80464">
        <ele>224</ele>
        <time>2017-12-20T10:56:32Z</time>
      </trkpt>
      <trkpt lat="45.98292" lon="4.80455">
        <ele>224</ele>
        <time>2017-12-20T10:56:33Z</time>
      </trkpt>
      <trkpt lat="45.98292" lon="4.80448">
        <ele>224</ele>
        <time>2017-12-20T10:56:34Z</time>
      </trkpt>
      <trkpt lat="45.98294" lon="4.8044">
        <ele>224</ele>
        <time>2017-12-20T10:56:35Z</time>
      </trkpt>
      <trkpt lat="45.98295" lon="4.80432">
        <ele>224</ele>
        <time>2017-12-20T10:56:36Z</time>
      </trkpt>
      <trkpt lat="45.98295" lon="4.80426">
        <ele>224</ele>
        <time>2017-12-20T10:56:37Z</time>
      </trkpt>
      <trkpt lat="45.98301" lon="4.80416">
        <ele>225</ele>
        <time>2017-12-20T10:56:38Z</time>
      </trkpt>
      <trkpt lat="45.98304" lon="4.8041">
        <ele>225</ele>
        <time>2017-12-20T10:56:39Z</time>
      </trkpt>
      <trkpt lat="45.98307" lon="4.80403">
        <ele>225</ele>
        <time>2017-12-20T10:56:40Z</time>
      </trkpt>
      <trkpt lat="45.98308" lon="4.80396">
        <ele>225</ele>
        <time>2017-12-20T10:56:41Z</time>
      </trkpt>
      <trkpt lat="45.98309" lon="4.80391">
        <ele>225</ele>
        <time>2017-12-20T10:56:42Z</time>
      </trkpt>
      <trkpt lat="45.98312" lon="4.80384">
        <ele>225</ele>
        <time>2017-12-20T10:56:43Z</time>
      </trkpt>
      <trkpt lat="45.98313" lon="4.80376">
        <ele>225</ele>
        <time>2017-12-20T10:56:44Z</time>
      </trkpt>
      <trkpt lat="45.98313" lon="4.8037">
        <ele>225</ele>
        <time>2017-12-20T10:56:45Z</time>
      </trkpt>
      <trkpt lat="45.98315" lon="4.80358">
        <ele>226</ele>
        <time>2017-12-20T10:56:47Z</time>
      </trkpt>
      <trkpt lat="45.98318" lon="4.80351">
        <ele>226</ele>
        <time>2017-12-20T10:56:48Z</time>
      </trkpt>
      <trkpt lat="45.98319" lon="4.80345">
        <ele>227</ele>
        <time>2017-12-20T10:56:49Z</time>
      </trkpt>
      <trkpt lat="45.9832" lon="4.80338">
        <ele>227</ele>
        <time>2017-12-20T10:56:50Z</time>
      </trkpt>
      <trkpt lat="45.98321" lon="4.80331">
        <ele>228</ele>
        <time>2017-12-20T10:56:51Z</time>
      </trkpt>
      <trkpt lat="45.98323" lon="4.80324">
        <ele>228</ele>
        <time>2017-12-20T10:56:52Z</time>
      </trkpt>
      <trkpt lat="45.98326" lon="4.80313">
        <ele>227</ele>
        <time>2017-12-20T10:56:54Z</time>
      </trkpt>
      <trkpt lat="45.98327" lon="4.80306">
        <ele>227</ele>
        <time>2017-12-20T10:56:55Z</time>
      </trkpt>
      <trkpt lat="45.98327" lon="4.803">
        <ele>227</ele>
        <time>2017-12-20T10:56:56Z</time>
      </trkpt>
      <trkpt lat="45.98331" lon="4.80294">
        <ele>227</ele>
        <time>2017-12-20T10:56:57Z</time>
      </trkpt>
      <trkpt lat="45.98334" lon="4.80282">
        <ele>231</ele>
        <time>2017-12-20T10:56:59Z</time>
      </trkpt>
      <trkpt lat="45.98335" lon="4.80275">
        <ele>231</ele>
        <time>2017-12-20T10:57:00Z</time>
      </trkpt>
      <trkpt lat="45.98336" lon="4.80263">
        <ele>230</ele>
        <time>2017-12-20T10:57:03Z</time>
      </trkpt>
      <trkpt lat="45.98336" lon="4.80258">
        <ele>230</ele>
        <time>2017-12-20T10:57:04Z</time>
      </trkpt>
      <trkpt lat="45.98336" lon="4.80252">
        <ele>230</ele>
        <time>2017-12-20T10:57:05Z</time>
      </trkpt>
      <trkpt lat="45.9834" lon="4.80246">
        <ele>230</ele>
        <time>2017-12-20T10:57:06Z</time>
      </trkpt>
      <trkpt lat="45.98343" lon="4.80235">
        <ele>230</ele>
        <time>2017-12-20T10:57:09Z</time>
      </trkpt>
      <trkpt lat="45.98346" lon="4.80232">
        <ele>230</ele>
        <time>2017-12-20T10:57:10Z</time>
      </trkpt>
      <trkpt lat="45.98349" lon="4.80223">
        <ele>230</ele>
        <time>2017-12-20T10:57:12Z</time>
      </trkpt>
      <trkpt lat="45.98348" lon="4.80217">
        <ele>230</ele>
        <time>2017-12-20T10:57:13Z</time>
      </trkpt>
      <trkpt lat="45.98345" lon="4.80211">
        <ele>230</ele>
        <time>2017-12-20T10:57:14Z</time>
      </trkpt>
      <trkpt lat="45.98342" lon="4.80206">
        <ele>230</ele>
        <time>2017-12-20T10:57:15Z</time>
      </trkpt>
      <trkpt lat="45.9834" lon="4.802">
        <ele>230</ele>
        <time>2017-12-20T10:57:16Z</time>
      </trkpt>
      <trkpt lat="45.98337" lon="4.80194">
        <ele>230</ele>
        <time>2017-12-20T10:57:17Z</time>
      </trkpt>
      <trkpt lat="45.98335" lon="4.80188">
        <ele>230</ele>
        <time>2017-12-20T10:57:18Z</time>
      </trkpt>
      <trkpt lat="45.98329" lon="4.80179">
        <ele>227</ele>
        <time>2017-12-20T10:57:19Z</time>
      </trkpt>
      <trkpt lat="45.98325" lon="4.80173">
        <ele>227</ele>
        <time>2017-12-20T10:57:20Z</time>
      </trkpt>
      <trkpt lat="45.98322" lon="4.80167">
        <ele>228</ele>
        <time>2017-12-20T10:57:21Z</time>
      </trkpt>
      <trkpt lat="45.9832" lon="4.80159">
        <ele>228</ele>
        <time>2017-12-20T10:57:22Z</time>
      </trkpt>
      <trkpt lat="45.98317" lon="4.80152">
        <ele>228</ele>
        <time>2017-12-20T10:57:23Z</time>
      </trkpt>
      <trkpt lat="45.98313" lon="4.80142">
        <ele>228</ele>
        <time>2017-12-20T10:57:24Z</time>
      </trkpt>
      <trkpt lat="45.9831" lon="4.80134">
        <ele>228</ele>
        <time>2017-12-20T10:57:25Z</time>
      </trkpt>
      <trkpt lat="45.98308" lon="4.80128">
        <ele>228</ele>
        <time>2017-12-20T10:57:26Z</time>
      </trkpt>
      <trkpt lat="45.98304" lon="4.80121">
        <ele>228</ele>
        <time>2017-12-20T10:57:27Z</time>
      </trkpt>
      <trkpt lat="45.983" lon="4.80115">
        <ele>228</ele>
        <time>2017-12-20T10:57:28Z</time>
      </trkpt>
      <trkpt lat="45.98298" lon="4.80107">
        <ele>228</ele>
        <time>2017-12-20T10:57:29Z</time>
      </trkpt>
      <trkpt lat="45.98295" lon="4.80095">
        <ele>228</ele>
        <time>2017-12-20T10:57:31Z</time>
      </trkpt>
      <trkpt lat="45.98294" lon="4.8009">
        <ele>228</ele>
        <time>2017-12-20T10:57:32Z</time>
      </trkpt>
      <trkpt lat="45.98292" lon="4.80084">
        <ele>228</ele>
        <time>2017-12-20T10:57:33Z</time>
      </trkpt>
      <trkpt lat="45.98291" lon="4.80078">
        <ele>229</ele>
        <time>2017-12-20T10:57:34Z</time>
      </trkpt>
      <trkpt lat="45.98289" lon="4.80071">
        <ele>229</ele>
        <time>2017-12-20T10:57:35Z</time>
      </trkpt>
      <trkpt lat="45.98287" lon="4.80064">
        <ele>229</ele>
        <time>2017-12-20T10:57:36Z</time>
      </trkpt>
      <trkpt lat="45.98283" lon="4.80057">
        <ele>229</ele>
        <time>2017-12-20T10:57:37Z</time>
      </trkpt>
      <trkpt lat="45.9828" lon="4.80052">
        <ele>229</ele>
        <time>2017-12-20T10:57:38Z</time>
      </trkpt>
      <trkpt lat="45.98277" lon="4.80043">
        <ele>229</ele>
        <time>2017-12-20T10:57:39Z</time>
      </trkpt>
      <trkpt lat="45.98273" lon="4.80037">
        <ele>229</ele>
        <time>2017-12-20T10:57:40Z</time>
      </trkpt>
      <trkpt lat="45.9827" lon="4.8003">
        <ele>229</ele>
        <time>2017-12-20T10:57:41Z</time>
      </trkpt>
      <trkpt lat="45.98269" lon="4.80024">
        <ele>228</ele>
        <time>2017-12-20T10:57:42Z</time>
      </trkpt>
      <trkpt lat="45.98266" lon="4.80017">
        <ele>228</ele>
        <time>2017-12-20T10:57:43Z</time>
      </trkpt>
      <trkpt lat="45.98263" lon="4.80009">
        <ele>228</ele>
        <time>2017-12-20T10:57:44Z</time>
      </trkpt>
      <trkpt lat="45.98261" lon="4.80003">
        <ele>227</ele>
        <time>2017-12-20T10:57:45Z</time>
      </trkpt>
      <trkpt lat="45.98259" lon="4.79997">
        <ele>227</ele>
        <time>2017-12-20T10:57:46Z</time>
      </trkpt>
      <trkpt lat="45.98258" lon="4.79991">
        <ele>227</ele>
        <time>2017-12-20T10:57:47Z</time>
      </trkpt>
      <trkpt lat="45.98255" lon="4.79984">
        <ele>228</ele>
        <time>2017-12-20T10:57:48Z</time>
      </trkpt>
      <trkpt lat="45.98252" lon="4.79976">
        <ele>228</ele>
        <time>2017-12-20T10:57:49Z</time>
      </trkpt>
      <trkpt lat="45.9825" lon="4.7997">
        <ele>225</ele>
        <time>2017-12-20T10:57:50Z</time>
      </trkpt>
      <trkpt lat="45.98247" lon="4.79962">
        <ele>225</ele>
        <time>2017-12-20T10:57:51Z</time>
      </trkpt>
      <trkpt lat="45.98244" lon="4.79955">
        <ele>225</ele>
        <time>2017-12-20T10:57:52Z</time>
      </trkpt>
      <trkpt lat="45.98242" lon="4.79948">
        <ele>225</ele>
        <time>2017-12-20T10:57:53Z</time>
      </trkpt>
      <trkpt lat="45.98241" lon="4.7994">
        <ele>225</ele>
        <time>2017-12-20T10:57:54Z</time>
      </trkpt>
      <trkpt lat="45.98241" lon="4.79933">
        <ele>225</ele>
        <time>2017-12-20T10:57:55Z</time>
      </trkpt>
      <trkpt lat="45.98238" lon="4.79926">
        <ele>225</ele>
        <time>2017-12-20T10:57:56Z</time>
      </trkpt>
      <trkpt lat="45.98235" lon="4.79918">
        <ele>225</ele>
        <time>2017-12-20T10:57:57Z</time>
      </trkpt>
      <trkpt lat="45.98233" lon="4.79912">
        <ele>225</ele>
        <time>2017-12-20T10:57:58Z</time>
      </trkpt>
      <trkpt lat="45.9823" lon="4.79905">
        <ele>225</ele>
        <time>2017-12-20T10:57:59Z</time>
      </trkpt>
      <trkpt lat="45.98227" lon="4.799">
        <ele>225</ele>
        <time>2017-12-20T10:58:00Z</time>
      </trkpt>
      <trkpt lat="45.98225" lon="4.79893">
        <ele>225</ele>
        <time>2017-12-20T10:58:01Z</time>
      </trkpt>
      <trkpt lat="45.98222" lon="4.79886">
        <ele>225</ele>
        <time>2017-12-20T10:58:02Z</time>
      </trkpt>
      <trkpt lat="45.98219" lon="4.79877">
        <ele>225</ele>
        <time>2017-12-20T10:58:04Z</time>
      </trkpt>
      <trkpt lat="45.98216" lon="4.7987">
        <ele>225</ele>
        <time>2017-12-20T10:58:05Z</time>
      </trkpt>
      <trkpt lat="45.98215" lon="4.79864">
        <ele>225</ele>
        <time>2017-12-20T10:58:06Z</time>
      </trkpt>
      <trkpt lat="45.98213" lon="4.79858">
        <ele>225</ele>
        <time>2017-12-20T10:58:07Z</time>
      </trkpt>
      <trkpt lat="45.9821" lon="4.79852">
        <ele>225</ele>
        <time>2017-12-20T10:58:08Z</time>
      </trkpt>
      <trkpt lat="45.98208" lon="4.79846">
        <ele>225</ele>
        <time>2017-12-20T10:58:09Z</time>
      </trkpt>
      <trkpt lat="45.98207" lon="4.7984">
        <ele>225</ele>
        <time>2017-12-20T10:58:10Z</time>
      </trkpt>
      <trkpt lat="45.98205" lon="4.79833">
        <ele>226</ele>
        <time>2017-12-20T10:58:11Z</time>
      </trkpt>
      <trkpt lat="45.982" lon="4.79823">
        <ele>226</ele>
        <time>2017-12-20T10:58:13Z</time>
      </trkpt>
      <trkpt lat="45.98199" lon="4.79819">
        <ele>226</ele>
        <time>2017-12-20T10:58:14Z</time>
      </trkpt>
      <trkpt lat="45.98196" lon="4.79809">
        <ele>226</ele>
        <time>2017-12-20T10:58:16Z</time>
      </trkpt>
      <trkpt lat="45.98194" lon="4.79803">
        <ele>226</ele>
        <time>2017-12-20T10:58:17Z</time>
      </trkpt>
      <trkpt lat="45.98192" lon="4.79791">
        <ele>226</ele>
        <time>2017-12-20T10:58:19Z</time>
      </trkpt>
      <trkpt lat="45.98191" lon="4.79786">
        <ele>226</ele>
        <time>2017-12-20T10:58:20Z</time>
      </trkpt>
      <trkpt lat="45.98192" lon="4.79776">
        <ele>226</ele>
        <time>2017-12-20T10:58:22Z</time>
      </trkpt>
      <trkpt lat="45.98193" lon="4.79771">
        <ele>226</ele>
        <time>2017-12-20T10:58:23Z</time>
      </trkpt>
      <trkpt lat="45.982" lon="4.79763">
        <ele>226</ele>
        <time>2017-12-20T10:58:26Z</time>
      </trkpt>
      <trkpt lat="45.98203" lon="4.7976">
        <ele>226</ele>
        <time>2017-12-20T10:58:27Z</time>
      </trkpt>
      <trkpt lat="45.98209" lon="4.79757">
        <ele>226</ele>
        <time>2017-12-20T10:58:29Z</time>
      </trkpt>
      <trkpt lat="45.98212" lon="4.79757">
        <ele>226</ele>
        <time>2017-12-20T10:58:30Z</time>
      </trkpt>
      <trkpt lat="45.98219" lon="4.79756">
        <ele>227</ele>
        <time>2017-12-20T10:58:32Z</time>
      </trkpt>
      <trkpt lat="45.98222" lon="4.79756">
        <ele>227</ele>
        <time>2017-12-20T10:58:33Z</time>
      </trkpt>
      <trkpt lat="45.98229" lon="4.79755">
        <ele>227</ele>
        <time>2017-12-20T10:58:35Z</time>
      </trkpt>
      <trkpt lat="45.98233" lon="4.79754">
        <ele>227</ele>
        <time>2017-12-20T10:58:36Z</time>
      </trkpt>
      <trkpt lat="45.9824" lon="4.79753">
        <ele>227</ele>
        <time>2017-12-20T10:58:38Z</time>
      </trkpt>
      <trkpt lat="45.98243" lon="4.79752">
        <ele>228</ele>
        <time>2017-12-20T10:58:39Z</time>
      </trkpt>
      <trkpt lat="45.9825" lon="4.7975">
        <ele>228</ele>
        <time>2017-12-20T10:58:41Z</time>
      </trkpt>
      <trkpt lat="45.98254" lon="4.79749">
        <ele>229</ele>
        <time>2017-12-20T10:58:42Z</time>
      </trkpt>
      <trkpt lat="45.9826" lon="4.79748">
        <ele>230</ele>
        <time>2017-12-20T10:58:44Z</time>
      </trkpt>
      <trkpt lat="45.98263" lon="4.79748">
        <ele>231</ele>
        <time>2017-12-20T10:58:45Z</time>
      </trkpt>
      <trkpt lat="45.9827" lon="4.79746">
        <ele>232</ele>
        <time>2017-12-20T10:58:47Z</time>
      </trkpt>
      <trkpt lat="45.98273" lon="4.79745">
        <ele>232</ele>
        <time>2017-12-20T10:58:48Z</time>
      </trkpt>
      <trkpt lat="45.9828" lon="4.79744">
        <ele>233</ele>
        <time>2017-12-20T10:58:50Z</time>
      </trkpt>
      <trkpt lat="45.98283" lon="4.79744">
        <ele>234</ele>
        <time>2017-12-20T10:58:51Z</time>
      </trkpt>
      <trkpt lat="45.9829" lon="4.79744">
        <ele>234</ele>
        <time>2017-12-20T10:58:53Z</time>
      </trkpt>
      <trkpt lat="45.98293" lon="4.79743">
        <ele>234</ele>
        <time>2017-12-20T10:58:54Z</time>
      </trkpt>
      <trkpt lat="45.98299" lon="4.79743">
        <ele>235</ele>
        <time>2017-12-20T10:58:56Z</time>
      </trkpt>
      <trkpt lat="45.98302" lon="4.79742">
        <ele>235</ele>
        <time>2017-12-20T10:58:57Z</time>
      </trkpt>
      <trkpt lat="45.98308" lon="4.79742">
        <ele>235</ele>
        <time>2017-12-20T10:58:59Z</time>
      </trkpt>
      <trkpt lat="45.98311" lon="4.79741">
        <ele>236</ele>
        <time>2017-12-20T10:59:00Z</time>
      </trkpt>
      <trkpt lat="45.98317" lon="4.79741">
        <ele>236</ele>
        <time>2017-12-20T10:59:02Z</time>
      </trkpt>
      <trkpt lat="45.9832" lon="4.7974">
        <ele>236</ele>
        <time>2017-12-20T10:59:03Z</time>
      </trkpt>
      <trkpt lat="45.98327" lon="4.7974">
        <ele>236</ele>
        <time>2017-12-20T10:59:05Z</time>
      </trkpt>
      <trkpt lat="45.9833" lon="4.7974">
        <ele>236</ele>
        <time>2017-12-20T10:59:06Z</time>
      </trkpt>
      <trkpt lat="45.98336" lon="4.79739">
        <ele>239</ele>
        <time>2017-12-20T10:59:08Z</time>
      </trkpt>
      <trkpt lat="45.98339" lon="4.79738">
        <ele>239</ele>
        <time>2017-12-20T10:59:09Z</time>
      </trkpt>
      <trkpt lat="45.98348" lon="4.79737">
        <ele>239</ele>
        <time>2017-12-20T10:59:12Z</time>
      </trkpt>
      <trkpt lat="45.98351" lon="4.79736">
        <ele>239</ele>
        <time>2017-12-20T10:59:13Z</time>
      </trkpt>
      <trkpt lat="45.98358" lon="4.79735">
        <ele>240</ele>
        <time>2017-12-20T10:59:15Z</time>
      </trkpt>
      <trkpt lat="45.9836" lon="4.79735">
        <ele>240</ele>
        <time>2017-12-20T10:59:16Z</time>
      </trkpt>
      <trkpt lat="45.98366" lon="4.79734">
        <ele>240</ele>
        <time>2017-12-20T10:59:18Z</time>
      </trkpt>
      <trkpt lat="45.98369" lon="4.79733">
        <ele>240</ele>
        <time>2017-12-20T10:59:19Z</time>
      </trkpt>
      <trkpt lat="45.98375" lon="4.79731">
        <ele>240</ele>
        <time>2017-12-20T10:59:21Z</time>
      </trkpt>
      <trkpt lat="45.98378" lon="4.79731">
        <ele>241</ele>
        <time>2017-12-20T10:59:22Z</time>
      </trkpt>
      <trkpt lat="45.98387" lon="4.7973">
        <ele>241</ele>
        <time>2017-12-20T10:59:25Z</time>
      </trkpt>
      <trkpt lat="45.9839" lon="4.79729">
        <ele>241</ele>
        <time>2017-12-20T10:59:26Z</time>
      </trkpt>
      <trkpt lat="45.98397" lon="4.79728">
        <ele>241</ele>
        <time>2017-12-20T10:59:28Z</time>
      </trkpt>
      <trkpt lat="45.984" lon="4.79728">
        <ele>241</ele>
        <time>2017-12-20T10:59:29Z</time>
      </trkpt>
      <trkpt lat="45.98407" lon="4.79727">
        <ele>241</ele>
        <time>2017-12-20T10:59:31Z</time>
      </trkpt>
      <trkpt lat="45.98411" lon="4.79726">
        <ele>241</ele>
        <time>2017-12-20T10:59:32Z</time>
      </trkpt>
      <trkpt lat="45.98417" lon="4.79726">
        <ele>242</ele>
        <time>2017-12-20T10:59:34Z</time>
      </trkpt>
      <trkpt lat="45.98421" lon="4.79726">
        <ele>242</ele>
        <time>2017-12-20T10:59:35Z</time>
      </trkpt>
      <trkpt lat="45.98427" lon="4.79725">
        <ele>242</ele>
        <time>2017-12-20T10:59:37Z</time>
      </trkpt>
      <trkpt lat="45.9843" lon="4.79725">
        <ele>242</ele>
        <time>2017-12-20T10:59:38Z</time>
      </trkpt>
      <trkpt lat="45.98437" lon="4.79724">
        <ele>242</ele>
        <time>2017-12-20T10:59:40Z</time>
      </trkpt>
      <trkpt lat="45.9844" lon="4.79724">
        <ele>242</ele>
        <time>2017-12-20T10:59:41Z</time>
      </trkpt>
      <trkpt lat="45.98446" lon="4.79725">
        <ele>242</ele>
        <time>2017-12-20T10:59:43Z</time>
      </trkpt>
      <trkpt lat="45.9845" lon="4.79725">
        <ele>242</ele>
        <time>2017-12-20T10:59:44Z</time>
      </trkpt>
      <trkpt lat="45.98456" lon="4.79724">
        <ele>243</ele>
        <time>2017-12-20T10:59:46Z</time>
      </trkpt>
      <trkpt lat="45.98459" lon="4.79724">
        <ele>243</ele>
        <time>2017-12-20T10:59:47Z</time>
      </trkpt>
      <trkpt lat="45.98465" lon="4.79725">
        <ele>243</ele>
        <time>2017-12-20T10:59:49Z</time>
      </trkpt>
      <trkpt lat="45.98469" lon="4.79725">
        <ele>243</ele>
        <time>2017-12-20T10:59:50Z</time>
      </trkpt>
      <trkpt lat="45.98475" lon="4.79724">
        <ele>243</ele>
        <time>2017-12-20T10:59:52Z</time>
      </trkpt>
      <trkpt lat="45.98478" lon="4.79724">
        <ele>243</ele>
        <time>2017-12-20T10:59:53Z</time>
      </trkpt>
      <trkpt lat="45.98485" lon="4.79724">
        <ele>243</ele>
        <time>2017-12-20T10:59:55Z</time>
      </trkpt>
      <trkpt lat="45.98488" lon="4.79723">
        <ele>243</ele>
        <time>2017-12-20T10:59:56Z</time>
      </trkpt>
      <trkpt lat="45.98491" lon="4.79723">
        <ele>243</ele>
        <time>2017-12-20T10:59:57Z</time>
      </trkpt>
      <trkpt lat="45.98497" lon="4.79723">
        <ele>243</ele>
        <time>2017-12-20T10:59:59Z</time>
      </trkpt>
      <trkpt lat="45.98504" lon="4.79723">
        <ele>244</ele>
        <time>2017-12-20T11:00:01Z</time>
      </trkpt>
      <trkpt lat="45.98508" lon="4.79723">
        <ele>244</ele>
        <time>2017-12-20T11:00:02Z</time>
      </trkpt>
      <trkpt lat="45.98514" lon="4.79723">
        <ele>244</ele>
        <time>2017-12-20T11:00:04Z</time>
      </trkpt>
      <trkpt lat="45.98518" lon="4.79723">
        <ele>244</ele>
        <time>2017-12-20T11:00:05Z</time>
      </trkpt>
      <trkpt lat="45.98524" lon="4.79723">
        <ele>244</ele>
        <time>2017-12-20T11:00:07Z</time>
      </trkpt>
      <trkpt lat="45.98527" lon="4.79723">
        <ele>244</ele>
        <time>2017-12-20T11:00:08Z</time>
      </trkpt>
      <trkpt lat="45.98533" lon="4.79721">
        <ele>244</ele>
        <time>2017-12-20T11:00:10Z</time>
      </trkpt>
      <trkpt lat="45.98536" lon="4.79721">
        <ele>244</ele>
        <time>2017-12-20T11:00:11Z</time>
      </trkpt>
      <trkpt lat="45.98543" lon="4.79717">
        <ele>244</ele>
        <time>2017-12-20T11:00:13Z</time>
      </trkpt>
      <trkpt lat="45.98546" lon="4.79715">
        <ele>244</ele>
        <time>2017-12-20T11:00:14Z</time>
      </trkpt>
      <trkpt lat="45.98552" lon="4.79712">
        <ele>244</ele>
        <time>2017-12-20T11:00:16Z</time>
      </trkpt>
      <trkpt lat="45.98555" lon="4.7971">
        <ele>244</ele>
        <time>2017-12-20T11:00:17Z</time>
      </trkpt>
      <trkpt lat="45.98561" lon="4.79704">
        <ele>244</ele>
        <time>2017-12-20T11:00:19Z</time>
      </trkpt>
      <trkpt lat="45.98563" lon="4.79701">
        <ele>244</ele>
        <time>2017-12-20T11:00:20Z</time>
      </trkpt>
      <trkpt lat="45.9857" lon="4.79693">
        <ele>244</ele>
        <time>2017-12-20T11:00:23Z</time>
      </trkpt>
      <trkpt lat="45.98572" lon="4.7969">
        <ele>244</ele>
        <time>2017-12-20T11:00:24Z</time>
      </trkpt>
      <trkpt lat="45.98577" lon="4.79684">
        <ele>244</ele>
        <time>2017-12-20T11:00:26Z</time>
      </trkpt>
      <trkpt lat="45.98578" lon="4.7968">
        <ele>245</ele>
        <time>2017-12-20T11:00:27Z</time>
      </trkpt>
      <trkpt lat="45.98582" lon="4.79673">
        <ele>245</ele>
        <time>2017-12-20T11:00:29Z</time>
      </trkpt>
      <trkpt lat="45.98584" lon="4.7967">
        <ele>245</ele>
        <time>2017-12-20T11:00:30Z</time>
      </trkpt>
      <trkpt lat="45.98588" lon="4.79662">
        <ele>245</ele>
        <time>2017-12-20T11:00:32Z</time>
      </trkpt>
      <trkpt lat="45.98589" lon="4.79658">
        <ele>245</ele>
        <time>2017-12-20T11:00:33Z</time>
      </trkpt>
      <trkpt lat="45.98596" lon="4.7965">
        <ele>245</ele>
        <time>2017-12-20T11:00:36Z</time>
      </trkpt>
      <trkpt lat="45.98597" lon="4.79647">
        <ele>245</ele>
        <time>2017-12-20T11:00:37Z</time>
      </trkpt>
      <trkpt lat="45.98603" lon="4.79641">
        <ele>245</ele>
        <time>2017-12-20T11:00:39Z</time>
      </trkpt>
      <trkpt lat="45.98606" lon="4.79638">
        <ele>245</ele>
        <time>2017-12-20T11:00:40Z</time>
      </trkpt>
      <trkpt lat="45.98614" lon="4.79633">
        <ele>245</ele>
        <time>2017-12-20T11:00:42Z</time>
      </trkpt>
      <trkpt lat="45.98617" lon="4.79631">
        <ele>245</ele>
        <time>2017-12-20T11:00:43Z</time>
      </trkpt>
      <trkpt lat="45.98624" lon="4.79627">
        <ele>245</ele>
        <time>2017-12-20T11:00:45Z</time>
      </trkpt>
      <trkpt lat="45.98627" lon="4.79623">
        <ele>245</ele>
        <time>2017-12-20T11:00:46Z</time>
      </trkpt>
      <trkpt lat="45.98632" lon="4.79614">
        <ele>245</ele>
        <time>2017-12-20T11:00:48Z</time>
      </trkpt>
      <trkpt lat="45.98634" lon="4.79609">
        <ele>245</ele>
        <time>2017-12-20T11:00:49Z</time>
      </trkpt>
      <trkpt lat="45.98635" lon="4.79599">
        <ele>245</ele>
        <time>2017-12-20T11:00:51Z</time>
      </trkpt>
      <trkpt lat="45.98628" lon="4.79591">
        <ele>245</ele>
        <time>2017-12-20T11:00:52Z</time>
      </trkpt>
      <trkpt lat="45.98624" lon="4.79588">
        <ele>245</ele>
        <time>2017-12-20T11:00:53Z</time>
      </trkpt>
      <trkpt lat="45.9862" lon="4.79586">
        <ele>245</ele>
        <time>2017-12-20T11:00:54Z</time>
      </trkpt>
      <trkpt lat="45.98615" lon="4.79585">
        <ele>245</ele>
        <time>2017-12-20T11:00:55Z</time>
      </trkpt>
      <trkpt lat="45.9861" lon="4.79585">
        <ele>245</ele>
        <time>2017-12-20T11:00:56Z</time>
      </trkpt>
      <trkpt lat="45.98606" lon="4.79585">
        <ele>245</ele>
        <time>2017-12-20T11:00:57Z</time>
      </trkpt>
      <trkpt lat="45.98601" lon="4.79588">
        <ele>245</ele>
        <time>2017-12-20T11:00:58Z</time>
      </trkpt>
      <trkpt lat="45.98596" lon="4.79588">
        <ele>245</ele>
        <time>2017-12-20T11:00:59Z</time>
      </trkpt>
      <trkpt lat="45.98591" lon="4.79587">
        <ele>245</ele>
        <time>2017-12-20T11:01:00Z</time>
      </trkpt>
      <trkpt lat="45.98586" lon="4.79587">
        <ele>245</ele>
        <time>2017-12-20T11:01:01Z</time>
      </trkpt>
      <trkpt lat="45.98581" lon="4.79583">
        <ele>245</ele>
        <time>2017-12-20T11:01:02Z</time>
      </trkpt>
      <trkpt lat="45.98576" lon="4.79582">
        <ele>245</ele>
        <time>2017-12-20T11:01:03Z</time>
      </trkpt>
      <trkpt lat="45.98572" lon="4.79577">
        <ele>245</ele>
        <time>2017-12-20T11:01:04Z</time>
      </trkpt>
      <trkpt lat="45.98568" lon="4.79572">
        <ele>244</ele>
        <time>2017-12-20T11:01:05Z</time>
      </trkpt>
      <trkpt lat="45.98564" lon="4.79567">
        <ele>244</ele>
        <time>2017-12-20T11:01:06Z</time>
      </trkpt>
      <trkpt lat="45.9856" lon="4.79563">
        <ele>244</ele>
        <time>2017-12-20T11:01:07Z</time>
      </trkpt>
      <trkpt lat="45.98556" lon="4.79557">
        <ele>244</ele>
        <time>2017-12-20T11:01:08Z</time>
      </trkpt>
      <trkpt lat="45.98553" lon="4.79551">
        <ele>244</ele>
        <time>2017-12-20T11:01:09Z</time>
      </trkpt>
      <trkpt lat="45.9855" lon="4.79546">
        <ele>244</ele>
        <time>2017-12-20T11:01:10Z</time>
      </trkpt>
      <trkpt lat="45.98547" lon="4.79539">
        <ele>244</ele>
        <time>2017-12-20T11:01:11Z</time>
      </trkpt>
      <trkpt lat="45.98542" lon="4.79532">
        <ele>244</ele>
        <time>2017-12-20T11:01:12Z</time>
      </trkpt>
      <trkpt lat="45.9854" lon="4.79524">
        <ele>244</ele>
        <time>2017-12-20T11:01:13Z</time>
      </trkpt>
      <trkpt lat="45.98538" lon="4.79517">
        <ele>244</ele>
        <time>2017-12-20T11:01:14Z</time>
      </trkpt>
      <trkpt lat="45.98537" lon="4.79509">
        <ele>244</ele>
        <time>2017-12-20T11:01:15Z</time>
      </trkpt>
      <trkpt lat="45.98536" lon="4.79501">
        <ele>244</ele>
        <time>2017-12-20T11:01:16Z</time>
      </trkpt>
      <trkpt lat="45.98535" lon="4.79493">
        <ele>244</ele>
        <time>2017-12-20T11:01:17Z</time>
      </trkpt>
      <trkpt lat="45.98533" lon="4.79484">
        <ele>244</ele>
        <time>2017-12-20T11:01:18Z</time>
      </trkpt>
      <trkpt lat="45.98533" lon="4.79475">
        <ele>244</ele>
        <time>2017-12-20T11:01:19Z</time>
      </trkpt>
      <trkpt lat="45.98533" lon="4.79466">
        <ele>244</ele>
        <time>2017-12-20T11:01:20Z</time>
      </trkpt>
      <trkpt lat="45.98533" lon="4.79457">
        <ele>244</ele>
        <time>2017-12-20T11:01:21Z</time>
      </trkpt>
      <trkpt lat="45.98533" lon="4.79447">
        <ele>244</ele>
        <time>2017-12-20T11:01:22Z</time>
      </trkpt>
      <trkpt lat="45.98532" lon="4.79437">
        <ele>244</ele>
        <time>2017-12-20T11:01:23Z</time>
      </trkpt>
      <trkpt lat="45.98532" lon="4.79428">
        <ele>244</ele>
        <time>2017-12-20T11:01:24Z</time>
      </trkpt>
      <trkpt lat="45.98532" lon="4.7942">
        <ele>244</ele>
        <time>2017-12-20T11:01:25Z</time>
      </trkpt>
      <trkpt lat="45.98531" lon="4.7941">
        <ele>244</ele>
        <time>2017-12-20T11:01:26Z</time>
      </trkpt>
      <trkpt lat="45.9853" lon="4.79402">
        <ele>244</ele>
        <time>2017-12-20T11:01:27Z</time>
      </trkpt>
      <trkpt lat="45.98528" lon="4.79394">
        <ele>244</ele>
        <time>2017-12-20T11:01:28Z</time>
      </trkpt>
      <trkpt lat="45.98526" lon="4.79385">
        <ele>244</ele>
        <time>2017-12-20T11:01:29Z</time>
      </trkpt>
      <trkpt lat="45.98525" lon="4.79376">
        <ele>244</ele>
        <time>2017-12-20T11:01:30Z</time>
      </trkpt>
      <trkpt lat="45.98523" lon="4.79367">
        <ele>243</ele>
        <time>2017-12-20T11:01:31Z</time>
      </trkpt>
      <trkpt lat="45.98521" lon="4.79358">
        <ele>243</ele>
        <time>2017-12-20T11:01:32Z</time>
      </trkpt>
      <trkpt lat="45.9852" lon="4.79349">
        <ele>243</ele>
        <time>2017-12-20T11:01:33Z</time>
      </trkpt>
      <trkpt lat="45.98518" lon="4.7934">
        <ele>243</ele>
        <time>2017-12-20T11:01:34Z</time>
      </trkpt>
      <trkpt lat="45.98517" lon="4.79331">
        <ele>243</ele>
        <time>2017-12-20T11:01:35Z</time>
      </trkpt>
      <trkpt lat="45.98514" lon="4.79322">
        <ele>243</ele>
        <time>2017-12-20T11:01:36Z</time>
      </trkpt>
      <trkpt lat="45.98512" lon="4.79314">
        <ele>243</ele>
        <time>2017-12-20T11:01:37Z</time>
      </trkpt>
      <trkpt lat="45.98509" lon="4.79305">
        <ele>243</ele>
        <time>2017-12-20T11:01:38Z</time>
      </trkpt>
      <trkpt lat="45.98505" lon="4.79298">
        <ele>243</ele>
        <time>2017-12-20T11:01:39Z</time>
      </trkpt>
      <trkpt lat="45.98501" lon="4.7929">
        <ele>243</ele>
        <time>2017-12-20T11:01:40Z</time>
      </trkpt>
      <trkpt lat="45.98499" lon="4.79284">
        <ele>243</ele>
        <time>2017-12-20T11:01:41Z</time>
      </trkpt>
      <trkpt lat="45.98495" lon="4.79276">
        <ele>243</ele>
        <time>2017-12-20T11:01:42Z</time>
      </trkpt>
      <trkpt lat="45.98491" lon="4.7927">
        <ele>243</ele>
        <time>2017-12-20T11:01:43Z</time>
      </trkpt>
      <trkpt lat="45.98489" lon="4.79262">
        <ele>243</ele>
        <time>2017-12-20T11:01:44Z</time>
      </trkpt>
      <trkpt lat="45.98485" lon="4.79256">
        <ele>243</ele>
        <time>2017-12-20T11:01:45Z</time>
      </trkpt>
      <trkpt lat="45.98481" lon="4.79249">
        <ele>243</ele>
        <time>2017-12-20T11:01:46Z</time>
      </trkpt>
      <trkpt lat="45.98478" lon="4.79243">
        <ele>243</ele>
        <time>2017-12-20T11:01:47Z</time>
      </trkpt>
      <trkpt lat="45.98474" lon="4.79236">
        <ele>243</ele>
        <time>2017-12-20T11:01:48Z</time>
      </trkpt>
      <trkpt lat="45.9847" lon="4.79229">
        <ele>243</ele>
        <time>2017-12-20T11:01:49Z</time>
      </trkpt>
      <trkpt lat="45.98464" lon="4.79221">
        <ele>243</ele>
        <time>2017-12-20T11:01:50Z</time>
      </trkpt>
      <trkpt lat="45.9846" lon="4.79215">
        <ele>243</ele>
        <time>2017-12-20T11:01:51Z</time>
      </trkpt>
      <trkpt lat="45.98456" lon="4.79209">
        <ele>242</ele>
        <time>2017-12-20T11:01:52Z</time>
      </trkpt>
      <trkpt lat="45.98451" lon="4.79203">
        <ele>242</ele>
        <time>2017-12-20T11:01:53Z</time>
      </trkpt>
      <trkpt lat="45.98448" lon="4.79197">
        <ele>242</ele>
        <time>2017-12-20T11:01:54Z</time>
      </trkpt>
      <trkpt lat="45.98446" lon="4.79191">
        <ele>242</ele>
        <time>2017-12-20T11:01:55Z</time>
      </trkpt>
      <trkpt lat="45.98443" lon="4.79185">
        <ele>242</ele>
        <time>2017-12-20T11:01:56Z</time>
      </trkpt>
      <trkpt lat="45.98439" lon="4.79178">
        <ele>242</ele>
        <time>2017-12-20T11:01:57Z</time>
      </trkpt>
      <trkpt lat="45.98435" lon="4.79171">
        <ele>242</ele>
        <time>2017-12-20T11:01:58Z</time>
      </trkpt>
      <trkpt lat="45.98431" lon="4.79163">
        <ele>242</ele>
        <time>2017-12-20T11:01:59Z</time>
      </trkpt>
      <trkpt lat="45.98427" lon="4.79156">
        <ele>242</ele>
        <time>2017-12-20T11:02:00Z</time>
      </trkpt>
      <trkpt lat="45.98424" lon="4.79149">
        <ele>242</ele>
        <time>2017-12-20T11:02:01Z</time>
      </trkpt>
      <trkpt lat="45.9842" lon="4.79142">
        <ele>242</ele>
        <time>2017-12-20T11:02:02Z</time>
      </trkpt>
      <trkpt lat="45.98416" lon="4.79134">
        <ele>242</ele>
        <time>2017-12-20T11:02:03Z</time>
      </trkpt>
      <trkpt lat="45.98413" lon="4.79128">
        <ele>242</ele>
        <time>2017-12-20T11:02:04Z</time>
      </trkpt>
      <trkpt lat="45.98409" lon="4.7912">
        <ele>242</ele>
        <time>2017-12-20T11:02:05Z</time>
      </trkpt>
      <trkpt lat="45.98407" lon="4.79114">
        <ele>242</ele>
        <time>2017-12-20T11:02:06Z</time>
      </trkpt>
      <trkpt lat="45.98403" lon="4.79107">
        <ele>242</ele>
        <time>2017-12-20T11:02:07Z</time>
      </trkpt>
      <trkpt lat="45.98398" lon="4.791">
        <ele>242</ele>
        <time>2017-12-20T11:02:08Z</time>
      </trkpt>
      <trkpt lat="45.98394" lon="4.79092">
        <ele>242</ele>
        <time>2017-12-20T11:02:09Z</time>
      </trkpt>
      <trkpt lat="45.9839" lon="4.79086">
        <ele>242</ele>
        <time>2017-12-20T11:02:10Z</time>
      </trkpt>
      <trkpt lat="45.98386" lon="4.7908">
        <ele>242</ele>
        <time>2017-12-20T11:02:11Z</time>
      </trkpt>
      <trkpt lat="45.98384" lon="4.79074">
        <ele>242</ele>
        <time>2017-12-20T11:02:12Z</time>
      </trkpt>
      <trkpt lat="45.98383" lon="4.79068">
        <ele>242</ele>
        <time>2017-12-20T11:02:13Z</time>
      </trkpt>
      <trkpt lat="45.98377" lon="4.79061">
        <ele>242</ele>
        <time>2017-12-20T11:02:14Z</time>
      </trkpt>
      <trkpt lat="45.98375" lon="4.79057">
        <ele>242</ele>
        <time>2017-12-20T11:02:15Z</time>
      </trkpt>
      <trkpt lat="45.98371" lon="4.79049">
        <ele>242</ele>
        <time>2017-12-20T11:02:16Z</time>
      </trkpt>
      <trkpt lat="45.98366" lon="4.79038">
        <ele>242</ele>
        <time>2017-12-20T11:02:18Z</time>
      </trkpt>
      <trkpt lat="45.98361" lon="4.79032">
        <ele>242</ele>
        <time>2017-12-20T11:02:19Z</time>
      </trkpt>
      <trkpt lat="45.98357" lon="4.79026">
        <ele>242</ele>
        <time>2017-12-20T11:02:20Z</time>
      </trkpt>
      <trkpt lat="45.98352" lon="4.7902">
        <ele>242</ele>
        <time>2017-12-20T11:02:21Z</time>
      </trkpt>
      <trkpt lat="45.98346" lon="4.79015">
        <ele>242</ele>
        <time>2017-12-20T11:02:22Z</time>
      </trkpt>
      <trkpt lat="45.98341" lon="4.79011">
        <ele>242</ele>
        <time>2017-12-20T11:02:23Z</time>
      </trkpt>
      <trkpt lat="45.98334" lon="4.79007">
        <ele>242</ele>
        <time>2017-12-20T11:02:24Z</time>
      </trkpt>
      <trkpt lat="45.98328" lon="4.79004">
        <ele>242</ele>
        <time>2017-12-20T11:02:25Z</time>
      </trkpt>
      <trkpt lat="45.98321" lon="4.79">
        <ele>242</ele>
        <time>2017-12-20T11:02:26Z</time>
      </trkpt>
      <trkpt lat="45.98314" lon="4.78996">
        <ele>242</ele>
        <time>2017-12-20T11:02:27Z</time>
      </trkpt>
      <trkpt lat="45.98308" lon="4.78993">
        <ele>241</ele>
        <time>2017-12-20T11:02:28Z</time>
      </trkpt>
      <trkpt lat="45.98302" lon="4.78989">
        <ele>241</ele>
        <time>2017-12-20T11:02:29Z</time>
      </trkpt>
      <trkpt lat="45.98297" lon="4.78986">
        <ele>241</ele>
        <time>2017-12-20T11:02:30Z</time>
      </trkpt>
      <trkpt lat="45.98292" lon="4.78983">
        <ele>241</ele>
        <time>2017-12-20T11:02:31Z</time>
      </trkpt>
      <trkpt lat="45.98286" lon="4.78981">
        <ele>241</ele>
        <time>2017-12-20T11:02:32Z</time>
      </trkpt>
      <trkpt lat="45.98281" lon="4.78978">
        <ele>241</ele>
        <time>2017-12-20T11:02:33Z</time>
      </trkpt>
      <trkpt lat="45.98275" lon="4.78975">
        <ele>241</ele>
        <time>2017-12-20T11:02:34Z</time>
      </trkpt>
      <trkpt lat="45.9827" lon="4.78972">
        <ele>241</ele>
        <time>2017-12-20T11:02:35Z</time>
      </trkpt>
      <trkpt lat="45.98265" lon="4.78968">
        <ele>241</ele>
        <time>2017-12-20T11:02:36Z</time>
      </trkpt>
      <trkpt lat="45.98258" lon="4.78964">
        <ele>241</ele>
        <time>2017-12-20T11:02:37Z</time>
      </trkpt>
      <trkpt lat="45.98253" lon="4.78961">
        <ele>241</ele>
        <time>2017-12-20T11:02:38Z</time>
      </trkpt>
      <trkpt lat="45.98247" lon="4.78956">
        <ele>241</ele>
        <time>2017-12-20T11:02:39Z</time>
      </trkpt>
      <trkpt lat="45.98241" lon="4.78953">
        <ele>241</ele>
        <time>2017-12-20T11:02:40Z</time>
      </trkpt>
      <trkpt lat="45.98235" lon="4.7895">
        <ele>241</ele>
        <time>2017-12-20T11:02:41Z</time>
      </trkpt>
      <trkpt lat="45.98226" lon="4.78945">
        <ele>241</ele>
        <time>2017-12-20T11:02:42Z</time>
      </trkpt>
      <trkpt lat="45.9822" lon="4.78942">
        <ele>241</ele>
        <time>2017-12-20T11:02:43Z</time>
      </trkpt>
      <trkpt lat="45.98214" lon="4.78937">
        <ele>241</ele>
        <time>2017-12-20T11:02:44Z</time>
      </trkpt>
      <trkpt lat="45.98207" lon="4.78935">
        <ele>241</ele>
        <time>2017-12-20T11:02:45Z</time>
      </trkpt>
      <trkpt lat="45.98201" lon="4.78931">
        <ele>241</ele>
        <time>2017-12-20T11:02:46Z</time>
      </trkpt>
      <trkpt lat="45.98195" lon="4.78928">
        <ele>241</ele>
        <time>2017-12-20T11:02:47Z</time>
      </trkpt>
      <trkpt lat="45.98189" lon="4.78924">
        <ele>241</ele>
        <time>2017-12-20T11:02:48Z</time>
      </trkpt>
      <trkpt lat="45.98183" lon="4.78921">
        <ele>240</ele>
        <time>2017-12-20T11:02:49Z</time>
      </trkpt>
      <trkpt lat="45.98177" lon="4.78918">
        <ele>240</ele>
        <time>2017-12-20T11:02:50Z</time>
      </trkpt>
      <trkpt lat="45.98171" lon="4.78914">
        <ele>240</ele>
        <time>2017-12-20T11:02:51Z</time>
      </trkpt>
      <trkpt lat="45.98165" lon="4.78911">
        <ele>240</ele>
        <time>2017-12-20T11:02:52Z</time>
      </trkpt>
      <trkpt lat="45.9816" lon="4.78907">
        <ele>240</ele>
        <time>2017-12-20T11:02:53Z</time>
      </trkpt>
      <trkpt lat="45.98154" lon="4.78904">
        <ele>240</ele>
        <time>2017-12-20T11:02:54Z</time>
      </trkpt>
      <trkpt lat="45.98148" lon="4.78901">
        <ele>240</ele>
        <time>2017-12-20T11:02:55Z</time>
      </trkpt>
      <trkpt lat="45.98143" lon="4.78897">
        <ele>240</ele>
        <time>2017-12-20T11:02:56Z</time>
      </trkpt>
      <trkpt lat="45.98138" lon="4.78893">
        <ele>240</ele>
        <time>2017-12-20T11:02:57Z</time>
      </trkpt>
      <trkpt lat="45.98132" lon="4.7889">
        <ele>240</ele>
        <time>2017-12-20T11:02:58Z</time>
      </trkpt>
      <trkpt lat="45.98125" lon="4.78886">
        <ele>240</ele>
        <time>2017-12-20T11:02:59Z</time>
      </trkpt>
      <trkpt lat="45.9812" lon="4.78883">
        <ele>240</ele>
        <time>2017-12-20T11:03:00Z</time>
      </trkpt>
      <trkpt lat="45.98113" lon="4.7888">
        <ele>240</ele>
        <time>2017-12-20T11:03:01Z</time>
      </trkpt>
      <trkpt lat="45.98108" lon="4.78877">
        <ele>240</ele>
        <time>2017-12-20T11:03:02Z</time>
      </trkpt>
      <trkpt lat="45.98103" lon="4.78874">
        <ele>239</ele>
        <time>2017-12-20T11:03:03Z</time>
      </trkpt>
      <trkpt lat="45.98097" lon="4.78868">
        <ele>239</ele>
        <time>2017-12-20T11:03:04Z</time>
      </trkpt>
      <trkpt lat="45.98091" lon="4.78864">
        <ele>239</ele>
        <time>2017-12-20T11:03:05Z</time>
      </trkpt>
      <trkpt lat="45.98084" lon="4.78859">
        <ele>239</ele>
        <time>2017-12-20T11:03:06Z</time>
      </trkpt>
      <trkpt lat="45.98077" lon="4.78854">
        <ele>239</ele>
        <time>2017-12-20T11:03:07Z</time>
      </trkpt>
      <trkpt lat="45.9807" lon="4.78849">
        <ele>238</ele>
        <time>2017-12-20T11:03:08Z</time>
      </trkpt>
      <trkpt lat="45.98064" lon="4.78845">
        <ele>238</ele>
        <time>2017-12-20T11:03:09Z</time>
      </trkpt>
      <trkpt lat="45.98058" lon="4.78841">
        <ele>238</ele>
        <time>2017-12-20T11:03:10Z</time>
      </trkpt>
      <trkpt lat="45.98052" lon="4.78837">
        <ele>238</ele>
        <time>2017-12-20T11:03:11Z</time>
      </trkpt>
      <trkpt lat="45.98048" lon="4.78834">
        <ele>238</ele>
        <time>2017-12-20T11:03:12Z</time>
      </trkpt>
      <trkpt lat="45.98044" lon="4.7883">
        <ele>238</ele>
        <time>2017-12-20T11:03:13Z</time>
      </trkpt>
      <trkpt lat="45.98038" lon="4.78825">
        <ele>238</ele>
        <time>2017-12-20T11:03:14Z</time>
      </trkpt>
      <trkpt lat="45.98033" lon="4.78822">
        <ele>238</ele>
        <time>2017-12-20T11:03:15Z</time>
      </trkpt>
      <trkpt lat="45.98027" lon="4.78818">
        <ele>238</ele>
        <time>2017-12-20T11:03:16Z</time>
      </trkpt>
      <trkpt lat="45.98023" lon="4.78814">
        <ele>238</ele>
        <time>2017-12-20T11:03:17Z</time>
      </trkpt>
      <trkpt lat="45.98017" lon="4.78811">
        <ele>238</ele>
        <time>2017-12-20T11:03:18Z</time>
      </trkpt>
      <trkpt lat="45.98011" lon="4.78807">
        <ele>238</ele>
        <time>2017-12-20T11:03:19Z</time>
      </trkpt>
      <trkpt lat="45.98004" lon="4.78803">
        <ele>238</ele>
        <time>2017-12-20T11:03:20Z</time>
      </trkpt>
      <trkpt lat="45.97999" lon="4.78799">
        <ele>238</ele>
        <time>2017-12-20T11:03:21Z</time>
      </trkpt>
      <trkpt lat="45.97994" lon="4.78795">
        <ele>238</ele>
        <time>2017-12-20T11:03:22Z</time>
      </trkpt>
      <trkpt lat="45.97987" lon="4.78791">
        <ele>238</ele>
        <time>2017-12-20T11:03:23Z</time>
      </trkpt>
      <trkpt lat="45.97981" lon="4.78787">
        <ele>238</ele>
        <time>2017-12-20T11:03:24Z</time>
      </trkpt>
      <trkpt lat="45.97975" lon="4.78782">
        <ele>238</ele>
        <time>2017-12-20T11:03:25Z</time>
      </trkpt>
      <trkpt lat="45.97968" lon="4.78777">
        <ele>238</ele>
        <time>2017-12-20T11:03:26Z</time>
      </trkpt>
      <trkpt lat="45.97962" lon="4.78772">
        <ele>238</ele>
        <time>2017-12-20T11:03:27Z</time>
      </trkpt>
      <trkpt lat="45.97955" lon="4.78767">
        <ele>238</ele>
        <time>2017-12-20T11:03:28Z</time>
      </trkpt>
      <trkpt lat="45.97949" lon="4.78763">
        <ele>238</ele>
        <time>2017-12-20T11:03:29Z</time>
      </trkpt>
      <trkpt lat="45.97943" lon="4.78759">
        <ele>238</ele>
        <time>2017-12-20T11:03:30Z</time>
      </trkpt>
      <trkpt lat="45.97937" lon="4.78754">
        <ele>238</ele>
        <time>2017-12-20T11:03:31Z</time>
      </trkpt>
      <trkpt lat="45.97931" lon="4.7875">
        <ele>237</ele>
        <time>2017-12-20T11:03:32Z</time>
      </trkpt>
      <trkpt lat="45.97925" lon="4.78746">
        <ele>237</ele>
        <time>2017-12-20T11:03:33Z</time>
      </trkpt>
      <trkpt lat="45.97919" lon="4.78742">
        <ele>237</ele>
        <time>2017-12-20T11:03:34Z</time>
      </trkpt>
      <trkpt lat="45.97913" lon="4.78738">
        <ele>237</ele>
        <time>2017-12-20T11:03:35Z</time>
      </trkpt>
      <trkpt lat="45.97905" lon="4.78734">
        <ele>237</ele>
        <time>2017-12-20T11:03:36Z</time>
      </trkpt>
      <trkpt lat="45.979" lon="4.78728">
        <ele>237</ele>
        <time>2017-12-20T11:03:37Z</time>
      </trkpt>
      <trkpt lat="45.97895" lon="4.78724">
        <ele>236</ele>
        <time>2017-12-20T11:03:38Z</time>
      </trkpt>
      <trkpt lat="45.97887" lon="4.7872">
        <ele>236</ele>
        <time>2017-12-20T11:03:39Z</time>
      </trkpt>
      <trkpt lat="45.9788" lon="4.78715">
        <ele>236</ele>
        <time>2017-12-20T11:03:40Z</time>
      </trkpt>
      <trkpt lat="45.97874" lon="4.78712">
        <ele>236</ele>
        <time>2017-12-20T11:03:41Z</time>
      </trkpt>
      <trkpt lat="45.97867" lon="4.78708">
        <ele>236</ele>
        <time>2017-12-20T11:03:42Z</time>
      </trkpt>
      <trkpt lat="45.97861" lon="4.78704">
        <ele>236</ele>
        <time>2017-12-20T11:03:43Z</time>
      </trkpt>
      <trkpt lat="45.97854" lon="4.787">
        <ele>236</ele>
        <time>2017-12-20T11:03:44Z</time>
      </trkpt>
      <trkpt lat="45.97846" lon="4.78696">
        <ele>236</ele>
        <time>2017-12-20T11:03:45Z</time>
      </trkpt>
      <trkpt lat="45.97839" lon="4.78691">
        <ele>236</ele>
        <time>2017-12-20T11:03:46Z</time>
      </trkpt>
      <trkpt lat="45.97834" lon="4.78688">
        <ele>236</ele>
        <time>2017-12-20T11:03:47Z</time>
      </trkpt>
      <trkpt lat="45.97827" lon="4.78684">
        <ele>235</ele>
        <time>2017-12-20T11:03:48Z</time>
      </trkpt>
      <trkpt lat="45.97819" lon="4.7868">
        <ele>235</ele>
        <time>2017-12-20T11:03:49Z</time>
      </trkpt>
      <trkpt lat="45.97812" lon="4.78677">
        <ele>235</ele>
        <time>2017-12-20T11:03:50Z</time>
      </trkpt>
      <trkpt lat="45.97805" lon="4.78674">
        <ele>235</ele>
        <time>2017-12-20T11:03:51Z</time>
      </trkpt>
      <trkpt lat="45.97798" lon="4.78671">
        <ele>235</ele>
        <time>2017-12-20T11:03:52Z</time>
      </trkpt>
      <trkpt lat="45.97791" lon="4.78668">
        <ele>235</ele>
        <time>2017-12-20T11:03:53Z</time>
      </trkpt>
      <trkpt lat="45.97784" lon="4.78665">
        <ele>235</ele>
        <time>2017-12-20T11:03:54Z</time>
      </trkpt>
      <trkpt lat="45.97779" lon="4.78663">
        <ele>235</ele>
        <time>2017-12-20T11:03:55Z</time>
      </trkpt>
      <trkpt lat="45.97773" lon="4.78661">
        <ele>235</ele>
        <time>2017-12-20T11:03:56Z</time>
      </trkpt>
      <trkpt lat="45.97767" lon="4.78659">
        <ele>235</ele>
        <time>2017-12-20T11:03:57Z</time>
      </trkpt>
      <trkpt lat="45.97761" lon="4.78656">
        <ele>235</ele>
        <time>2017-12-20T11:03:58Z</time>
      </trkpt>
      <trkpt lat="45.97755" lon="4.78654">
        <ele>235</ele>
        <time>2017-12-20T11:03:59Z</time>
      </trkpt>
      <trkpt lat="45.97749" lon="4.78651">
        <ele>234</ele>
        <time>2017-12-20T11:04:00Z</time>
      </trkpt>
      <trkpt lat="45.97744" lon="4.78649">
        <ele>234</ele>
        <time>2017-12-20T11:04:01Z</time>
      </trkpt>
      <trkpt lat="45.97737" lon="4.78646">
        <ele>234</ele>
        <time>2017-12-20T11:04:02Z</time>
      </trkpt>
      <trkpt lat="45.97731" lon="4.78643">
        <ele>234</ele>
        <time>2017-12-20T11:04:03Z</time>
      </trkpt>
      <trkpt lat="45.97725" lon="4.7864">
        <ele>234</ele>
        <time>2017-12-20T11:04:04Z</time>
      </trkpt>
      <trkpt lat="45.97719" lon="4.78637">
        <ele>234</ele>
        <time>2017-12-20T11:04:05Z</time>
      </trkpt>
      <trkpt lat="45.97713" lon="4.78634">
        <ele>234</ele>
        <time>2017-12-20T11:04:06Z</time>
      </trkpt>
      <trkpt lat="45.97706" lon="4.78631">
        <ele>234</ele>
        <time>2017-12-20T11:04:07Z</time>
      </trkpt>
      <trkpt lat="45.977" lon="4.78628">
        <ele>234</ele>
        <time>2017-12-20T11:04:08Z</time>
      </trkpt>
      <trkpt lat="45.97693" lon="4.78627">
        <ele>234</ele>
        <time>2017-12-20T11:04:09Z</time>
      </trkpt>
      <trkpt lat="45.97687" lon="4.78624">
        <ele>234</ele>
        <time>2017-12-20T11:04:10Z</time>
      </trkpt>
      <trkpt lat="45.97682" lon="4.78623">
        <ele>234</ele>
        <time>2017-12-20T11:04:11Z</time>
      </trkpt>
      <trkpt lat="45.97675" lon="4.78621">
        <ele>234</ele>
        <time>2017-12-20T11:04:12Z</time>
      </trkpt>
      <trkpt lat="45.9767" lon="4.78618">
        <ele>234</ele>
        <time>2017-12-20T11:04:13Z</time>
      </trkpt>
      <trkpt lat="45.97664" lon="4.78616">
        <ele>233</ele>
        <time>2017-12-20T11:04:14Z</time>
      </trkpt>
      <trkpt lat="45.97658" lon="4.78613">
        <ele>233</ele>
        <time>2017-12-20T11:04:15Z</time>
      </trkpt>
      <trkpt lat="45.97653" lon="4.78611">
        <ele>233</ele>
        <time>2017-12-20T11:04:16Z</time>
      </trkpt>
      <trkpt lat="45.97649" lon="4.78609">
        <ele>233</ele>
        <time>2017-12-20T11:04:17Z</time>
      </trkpt>
      <trkpt lat="45.97641" lon="4.78605">
        <ele>233</ele>
        <time>2017-12-20T11:04:18Z</time>
      </trkpt>
      <trkpt lat="45.97635" lon="4.78602">
        <ele>233</ele>
        <time>2017-12-20T11:04:19Z</time>
      </trkpt>
      <trkpt lat="45.97629" lon="4.78601">
        <ele>233</ele>
        <time>2017-12-20T11:04:20Z</time>
      </trkpt>
      <trkpt lat="45.97623" lon="4.78599">
        <ele>233</ele>
        <time>2017-12-20T11:04:21Z</time>
      </trkpt>
      <trkpt lat="45.97616" lon="4.78595">
        <ele>233</ele>
        <time>2017-12-20T11:04:22Z</time>
      </trkpt>
      <trkpt lat="45.97611" lon="4.78592">
        <ele>233</ele>
        <time>2017-12-20T11:04:23Z</time>
      </trkpt>
      <trkpt lat="45.97604" lon="4.7859">
        <ele>233</ele>
        <time>2017-12-20T11:04:24Z</time>
      </trkpt>
      <trkpt lat="45.97597" lon="4.78588">
        <ele>233</ele>
        <time>2017-12-20T11:04:25Z</time>
      </trkpt>
      <trkpt lat="45.9759" lon="4.78585">
        <ele>233</ele>
        <time>2017-12-20T11:04:26Z</time>
      </trkpt>
      <trkpt lat="45.97586" lon="4.78586">
        <ele>233</ele>
        <time>2017-12-20T11:04:27Z</time>
      </trkpt>
      <trkpt lat="45.97579" lon="4.78584">
        <ele>233</ele>
        <time>2017-12-20T11:04:28Z</time>
      </trkpt>
      <trkpt lat="45.97573" lon="4.7858">
        <ele>233</ele>
        <time>2017-12-20T11:04:29Z</time>
      </trkpt>
      <trkpt lat="45.97567" lon="4.78576">
        <ele>233</ele>
        <time>2017-12-20T11:04:30Z</time>
      </trkpt>
      <trkpt lat="45.9756" lon="4.78574">
        <ele>233</ele>
        <time>2017-12-20T11:04:31Z</time>
      </trkpt>
      <trkpt lat="45.97555" lon="4.78572">
        <ele>233</ele>
        <time>2017-12-20T11:04:32Z</time>
      </trkpt>
      <trkpt lat="45.97547" lon="4.78567">
        <ele>234</ele>
        <time>2017-12-20T11:04:33Z</time>
      </trkpt>
      <trkpt lat="45.9754" lon="4.78563">
        <ele>234</ele>
        <time>2017-12-20T11:04:34Z</time>
      </trkpt>
      <trkpt lat="45.97534" lon="4.7856">
        <ele>234</ele>
        <time>2017-12-20T11:04:35Z</time>
      </trkpt>
      <trkpt lat="45.97529" lon="4.78556">
        <ele>234</ele>
        <time>2017-12-20T11:04:36Z</time>
      </trkpt>
      <trkpt lat="45.97523" lon="4.78553">
        <ele>234</ele>
        <time>2017-12-20T11:04:37Z</time>
      </trkpt>
      <trkpt lat="45.97516" lon="4.7855">
        <ele>234</ele>
        <time>2017-12-20T11:04:38Z</time>
      </trkpt>
      <trkpt lat="45.9751" lon="4.78546">
        <ele>234</ele>
        <time>2017-12-20T11:04:39Z</time>
      </trkpt>
      <trkpt lat="45.97504" lon="4.78542">
        <ele>234</ele>
        <time>2017-12-20T11:04:40Z</time>
      </trkpt>
      <trkpt lat="45.97498" lon="4.78537">
        <ele>233</ele>
        <time>2017-12-20T11:04:41Z</time>
      </trkpt>
      <trkpt lat="45.97493" lon="4.78533">
        <ele>233</ele>
        <time>2017-12-20T11:04:42Z</time>
      </trkpt>
      <trkpt lat="45.97487" lon="4.78529">
        <ele>233</ele>
        <time>2017-12-20T11:04:43Z</time>
      </trkpt>
      <trkpt lat="45.97481" lon="4.78525">
        <ele>233</ele>
        <time>2017-12-20T11:04:44Z</time>
      </trkpt>
      <trkpt lat="45.97476" lon="4.7852">
        <ele>233</ele>
        <time>2017-12-20T11:04:45Z</time>
      </trkpt>
      <trkpt lat="45.9747" lon="4.78515">
        <ele>234</ele>
        <time>2017-12-20T11:04:46Z</time>
      </trkpt>
      <trkpt lat="45.97463" lon="4.7851">
        <ele>234</ele>
        <time>2017-12-20T11:04:47Z</time>
      </trkpt>
      <trkpt lat="45.97458" lon="4.78506">
        <ele>234</ele>
        <time>2017-12-20T11:04:48Z</time>
      </trkpt>
      <trkpt lat="45.97453" lon="4.78502">
        <ele>234</ele>
        <time>2017-12-20T11:04:49Z</time>
      </trkpt>
      <trkpt lat="45.97447" lon="4.78497">
        <ele>234</ele>
        <time>2017-12-20T11:04:50Z</time>
      </trkpt>
      <trkpt lat="45.97441" lon="4.78492">
        <ele>234</ele>
        <time>2017-12-20T11:04:51Z</time>
      </trkpt>
      <trkpt lat="45.97436" lon="4.78487">
        <ele>234</ele>
        <time>2017-12-20T11:04:52Z</time>
      </trkpt>
      <trkpt lat="45.97431" lon="4.78482">
        <ele>234</ele>
        <time>2017-12-20T11:04:53Z</time>
      </trkpt>
      <trkpt lat="45.97425" lon="4.78476">
        <ele>234</ele>
        <time>2017-12-20T11:04:54Z</time>
      </trkpt>
      <trkpt lat="45.9742" lon="4.78472">
        <ele>234</ele>
        <time>2017-12-20T11:04:55Z</time>
      </trkpt>
      <trkpt lat="45.97415" lon="4.78467">
        <ele>233</ele>
        <time>2017-12-20T11:04:56Z</time>
      </trkpt>
      <trkpt lat="45.9741" lon="4.78461">
        <ele>233</ele>
        <time>2017-12-20T11:04:57Z</time>
      </trkpt>
      <trkpt lat="45.97405" lon="4.78456">
        <ele>233</ele>
        <time>2017-12-20T11:04:58Z</time>
      </trkpt>
      <trkpt lat="45.974" lon="4.78451">
        <ele>233</ele>
        <time>2017-12-20T11:04:59Z</time>
      </trkpt>
      <trkpt lat="45.97396" lon="4.78448">
        <ele>233</ele>
        <time>2017-12-20T11:05:00Z</time>
      </trkpt>
      <trkpt lat="45.97392" lon="4.78442">
        <ele>233</ele>
        <time>2017-12-20T11:05:01Z</time>
      </trkpt>
      <trkpt lat="45.97388" lon="4.78438">
        <ele>233</ele>
        <time>2017-12-20T11:05:02Z</time>
      </trkpt>
      <trkpt lat="45.97383" lon="4.78433">
        <ele>233</ele>
        <time>2017-12-20T11:05:03Z</time>
      </trkpt>
      <trkpt lat="45.97379" lon="4.7843">
        <ele>233</ele>
        <time>2017-12-20T11:05:04Z</time>
      </trkpt>
      <trkpt lat="45.97375" lon="4.78426">
        <ele>233</ele>
        <time>2017-12-20T11:05:05Z</time>
      </trkpt>
      <trkpt lat="45.9737" lon="4.78422">
        <ele>233</ele>
        <time>2017-12-20T11:05:06Z</time>
      </trkpt>
      <trkpt lat="45.97366" lon="4.78417">
        <ele>233</ele>
        <time>2017-12-20T11:05:07Z</time>
      </trkpt>
      <trkpt lat="45.9736" lon="4.78413">
        <ele>233</ele>
        <time>2017-12-20T11:05:08Z</time>
      </trkpt>
      <trkpt lat="45.97356" lon="4.78408">
        <ele>232</ele>
        <time>2017-12-20T11:05:09Z</time>
      </trkpt>
      <trkpt lat="45.97351" lon="4.78403">
        <ele>232</ele>
        <time>2017-12-20T11:05:10Z</time>
      </trkpt>
      <trkpt lat="45.97347" lon="4.78399">
        <ele>232</ele>
        <time>2017-12-20T11:05:11Z</time>
      </trkpt>
      <trkpt lat="45.97341" lon="4.78393">
        <ele>232</ele>
        <time>2017-12-20T11:05:12Z</time>
      </trkpt>
      <trkpt lat="45.97336" lon="4.78388">
        <ele>233</ele>
        <time>2017-12-20T11:05:13Z</time>
      </trkpt>
      <trkpt lat="45.97331" lon="4.78382">
        <ele>232</ele>
        <time>2017-12-20T11:05:14Z</time>
      </trkpt>
      <trkpt lat="45.97326" lon="4.78376">
        <ele>232</ele>
        <time>2017-12-20T11:05:15Z</time>
      </trkpt>
      <trkpt lat="45.97319" lon="4.78369">
        <ele>232</ele>
        <time>2017-12-20T11:05:16Z</time>
      </trkpt>
      <trkpt lat="45.97313" lon="4.78363">
        <ele>232</ele>
        <time>2017-12-20T11:05:17Z</time>
      </trkpt>
      <trkpt lat="45.97308" lon="4.78356">
        <ele>232</ele>
        <time>2017-12-20T11:05:18Z</time>
      </trkpt>
      <trkpt lat="45.97303" lon="4.78349">
        <ele>232</ele>
        <time>2017-12-20T11:05:19Z</time>
      </trkpt>
      <trkpt lat="45.97297" lon="4.78342">
        <ele>232</ele>
        <time>2017-12-20T11:05:20Z</time>
      </trkpt>
      <trkpt lat="45.97292" lon="4.78335">
        <ele>232</ele>
        <time>2017-12-20T11:05:21Z</time>
      </trkpt>
      <trkpt lat="45.97288" lon="4.78328">
        <ele>232</ele>
        <time>2017-12-20T11:05:22Z</time>
      </trkpt>
      <trkpt lat="45.97283" lon="4.78321">
        <ele>232</ele>
        <time>2017-12-20T11:05:23Z</time>
      </trkpt>
      <trkpt lat="45.97277" lon="4.78314">
        <ele>232</ele>
        <time>2017-12-20T11:05:24Z</time>
      </trkpt>
      <trkpt lat="45.97272" lon="4.78308">
        <ele>232</ele>
        <time>2017-12-20T11:05:25Z</time>
      </trkpt>
      <trkpt lat="45.97267" lon="4.78302">
        <ele>232</ele>
        <time>2017-12-20T11:05:26Z</time>
      </trkpt>
      <trkpt lat="45.97263" lon="4.78295">
        <ele>232</ele>
        <time>2017-12-20T11:05:27Z</time>
      </trkpt>
      <trkpt lat="45.97258" lon="4.78287">
        <ele>232</ele>
        <time>2017-12-20T11:05:28Z</time>
      </trkpt>
      <trkpt lat="45.97257" lon="4.78282">
        <ele>232</ele>
        <time>2017-12-20T11:05:29Z</time>
      </trkpt>
      <trkpt lat="45.97253" lon="4.78275">
        <ele>232</ele>
        <time>2017-12-20T11:05:30Z</time>
      </trkpt>
      <trkpt lat="45.97249" lon="4.78264">
        <ele>231</ele>
        <time>2017-12-20T11:05:32Z</time>
      </trkpt>
      <trkpt lat="45.97244" lon="4.78257">
        <ele>231</ele>
        <time>2017-12-20T11:05:33Z</time>
      </trkpt>
      <trkpt lat="45.9724" lon="4.78251">
        <ele>231</ele>
        <time>2017-12-20T11:05:34Z</time>
      </trkpt>
      <trkpt lat="45.97237" lon="4.78246">
        <ele>231</ele>
        <time>2017-12-20T11:05:35Z</time>
      </trkpt>
      <trkpt lat="45.97233" lon="4.7824">
        <ele>231</ele>
        <time>2017-12-20T11:05:36Z</time>
      </trkpt>
      <trkpt lat="45.97229" lon="4.78233">
        <ele>231</ele>
        <time>2017-12-20T11:05:37Z</time>
      </trkpt>
      <trkpt lat="45.97224" lon="4.78226">
        <ele>231</ele>
        <time>2017-12-20T11:05:38Z</time>
      </trkpt>
      <trkpt lat="45.9722" lon="4.78219">
        <ele>231</ele>
        <time>2017-12-20T11:05:39Z</time>
      </trkpt>
      <trkpt lat="45.97217" lon="4.78212">
        <ele>231</ele>
        <time>2017-12-20T11:05:40Z</time>
      </trkpt>
      <trkpt lat="45.97213" lon="4.78206">
        <ele>231</ele>
        <time>2017-12-20T11:05:41Z</time>
      </trkpt>
      <trkpt lat="45.9721" lon="4.782">
        <ele>231</ele>
        <time>2017-12-20T11:05:42Z</time>
      </trkpt>
      <trkpt lat="45.97206" lon="4.78193">
        <ele>231</ele>
        <time>2017-12-20T11:05:43Z</time>
      </trkpt>
      <trkpt lat="45.97201" lon="4.78186">
        <ele>231</ele>
        <time>2017-12-20T11:05:44Z</time>
      </trkpt>
      <trkpt lat="45.97197" lon="4.78178">
        <ele>231</ele>
        <time>2017-12-20T11:05:45Z</time>
      </trkpt>
      <trkpt lat="45.97192" lon="4.78169">
        <ele>231</ele>
        <time>2017-12-20T11:05:46Z</time>
      </trkpt>
      <trkpt lat="45.97187" lon="4.78162">
        <ele>231</ele>
        <time>2017-12-20T11:05:47Z</time>
      </trkpt>
      <trkpt lat="45.97184" lon="4.78154">
        <ele>231</ele>
        <time>2017-12-20T11:05:48Z</time>
      </trkpt>
      <trkpt lat="45.97179" lon="4.78146">
        <ele>231</ele>
        <time>2017-12-20T11:05:49Z</time>
      </trkpt>
      <trkpt lat="45.97176" lon="4.78138">
        <ele>231</ele>
        <time>2017-12-20T11:05:50Z</time>
      </trkpt>
      <trkpt lat="45.97173" lon="4.78131">
        <ele>231</ele>
        <time>2017-12-20T11:05:51Z</time>
      </trkpt>
      <trkpt lat="45.97168" lon="4.78124">
        <ele>231</ele>
        <time>2017-12-20T11:05:52Z</time>
      </trkpt>
      <trkpt lat="45.97165" lon="4.78118">
        <ele>230</ele>
        <time>2017-12-20T11:05:53Z</time>
      </trkpt>
      <trkpt lat="45.9716" lon="4.78111">
        <ele>230</ele>
        <time>2017-12-20T11:05:54Z</time>
      </trkpt>
      <trkpt lat="45.97157" lon="4.78105">
        <ele>230</ele>
        <time>2017-12-20T11:05:55Z</time>
      </trkpt>
      <trkpt lat="45.97153" lon="4.78099">
        <ele>230</ele>
        <time>2017-12-20T11:05:56Z</time>
      </trkpt>
      <trkpt lat="45.97148" lon="4.78092">
        <ele>230</ele>
        <time>2017-12-20T11:05:57Z</time>
      </trkpt>
      <trkpt lat="45.97145" lon="4.78086">
        <ele>230</ele>
        <time>2017-12-20T11:05:58Z</time>
      </trkpt>
      <trkpt lat="45.9714" lon="4.78079">
        <ele>230</ele>
        <time>2017-12-20T11:05:59Z</time>
      </trkpt>
      <trkpt lat="45.97135" lon="4.78073">
        <ele>230</ele>
        <time>2017-12-20T11:06:00Z</time>
      </trkpt>
      <trkpt lat="45.9713" lon="4.78066">
        <ele>230</ele>
        <time>2017-12-20T11:06:01Z</time>
      </trkpt>
      <trkpt lat="45.97125" lon="4.7806">
        <ele>229</ele>
        <time>2017-12-20T11:06:02Z</time>
      </trkpt>
      <trkpt lat="45.97119" lon="4.78055">
        <ele>229</ele>
        <time>2017-12-20T11:06:03Z</time>
      </trkpt>
      <trkpt lat="45.97114" lon="4.78048">
        <ele>229</ele>
        <time>2017-12-20T11:06:04Z</time>
      </trkpt>
      <trkpt lat="45.97109" lon="4.78043">
        <ele>229</ele>
        <time>2017-12-20T11:06:05Z</time>
      </trkpt>
      <trkpt lat="45.97102" lon="4.78037">
        <ele>229</ele>
        <time>2017-12-20T11:06:06Z</time>
      </trkpt>
      <trkpt lat="45.97094" lon="4.7803">
        <ele>229</ele>
        <time>2017-12-20T11:06:07Z</time>
      </trkpt>
      <trkpt lat="45.97088" lon="4.78024">
        <ele>229</ele>
        <time>2017-12-20T11:06:08Z</time>
      </trkpt>
      <trkpt lat="45.97082" lon="4.78019">
        <ele>229</ele>
        <time>2017-12-20T11:06:09Z</time>
      </trkpt>
      <trkpt lat="45.97075" lon="4.78014">
        <ele>229</ele>
        <time>2017-12-20T11:06:10Z</time>
      </trkpt>
      <trkpt lat="45.97069" lon="4.78009">
        <ele>229</ele>
        <time>2017-12-20T11:06:11Z</time>
      </trkpt>
      <trkpt lat="45.97063" lon="4.78003">
        <ele>229</ele>
        <time>2017-12-20T11:06:12Z</time>
      </trkpt>
      <trkpt lat="45.97058" lon="4.77997">
        <ele>229</ele>
        <time>2017-12-20T11:06:13Z</time>
      </trkpt>
      <trkpt lat="45.97052" lon="4.77991">
        <ele>229</ele>
        <time>2017-12-20T11:06:14Z</time>
      </trkpt>
      <trkpt lat="45.97047" lon="4.77986">
        <ele>229</ele>
        <time>2017-12-20T11:06:15Z</time>
      </trkpt>
      <trkpt lat="45.97044" lon="4.7798">
        <ele>229</ele>
        <time>2017-12-20T11:06:16Z</time>
      </trkpt>
      <trkpt lat="45.97039" lon="4.77974">
        <ele>229</ele>
        <time>2017-12-20T11:06:17Z</time>
      </trkpt>
      <trkpt lat="45.97034" lon="4.77968">
        <ele>229</ele>
        <time>2017-12-20T11:06:18Z</time>
      </trkpt>
      <trkpt lat="45.97029" lon="4.77962">
        <ele>228</ele>
        <time>2017-12-20T11:06:19Z</time>
      </trkpt>
      <trkpt lat="45.97025" lon="4.77956">
        <ele>228</ele>
        <time>2017-12-20T11:06:20Z</time>
      </trkpt>
      <trkpt lat="45.97021" lon="4.77951">
        <ele>228</ele>
        <time>2017-12-20T11:06:21Z</time>
      </trkpt>
      <trkpt lat="45.97016" lon="4.77945">
        <ele>228</ele>
        <time>2017-12-20T11:06:22Z</time>
      </trkpt>
      <trkpt lat="45.97012" lon="4.77938">
        <ele>228</ele>
        <time>2017-12-20T11:06:23Z</time>
      </trkpt>
      <trkpt lat="45.97006" lon="4.77932">
        <ele>228</ele>
        <time>2017-12-20T11:06:24Z</time>
      </trkpt>
      <trkpt lat="45.97002" lon="4.77926">
        <ele>227</ele>
        <time>2017-12-20T11:06:25Z</time>
      </trkpt>
      <trkpt lat="45.96997" lon="4.77919">
        <ele>227</ele>
        <time>2017-12-20T11:06:26Z</time>
      </trkpt>
      <trkpt lat="45.96992" lon="4.77913">
        <ele>227</ele>
        <time>2017-12-20T11:06:27Z</time>
      </trkpt>
      <trkpt lat="45.96987" lon="4.77908">
        <ele>227</ele>
        <time>2017-12-20T11:06:28Z</time>
      </trkpt>
      <trkpt lat="45.96982" lon="4.77902">
        <ele>227</ele>
        <time>2017-12-20T11:06:29Z</time>
      </trkpt>
      <trkpt lat="45.96977" lon="4.77896">
        <ele>228</ele>
        <time>2017-12-20T11:06:30Z</time>
      </trkpt>
      <trkpt lat="45.96972" lon="4.7789">
        <ele>228</ele>
        <time>2017-12-20T11:06:31Z</time>
      </trkpt>
      <trkpt lat="45.96968" lon="4.77884">
        <ele>228</ele>
        <time>2017-12-20T11:06:32Z</time>
      </trkpt>
      <trkpt lat="45.96963" lon="4.77879">
        <ele>228</ele>
        <time>2017-12-20T11:06:33Z</time>
      </trkpt>
      <trkpt lat="45.96959" lon="4.77874">
        <ele>228</ele>
        <time>2017-12-20T11:06:34Z</time>
      </trkpt>
      <trkpt lat="45.96955" lon="4.77869">
        <ele>228</ele>
        <time>2017-12-20T11:06:35Z</time>
      </trkpt>
      <trkpt lat="45.9695" lon="4.77863">
        <ele>228</ele>
        <time>2017-12-20T11:06:36Z</time>
      </trkpt>
      <trkpt lat="45.96946" lon="4.77857">
        <ele>228</ele>
        <time>2017-12-20T11:06:37Z</time>
      </trkpt>
      <trkpt lat="45.9694" lon="4.77851">
        <ele>228</ele>
        <time>2017-12-20T11:06:38Z</time>
      </trkpt>
      <trkpt lat="45.96936" lon="4.77847">
        <ele>228</ele>
        <time>2017-12-20T11:06:39Z</time>
      </trkpt>
      <trkpt lat="45.96932" lon="4.7784">
        <ele>228</ele>
        <time>2017-12-20T11:06:40Z</time>
      </trkpt>
      <trkpt lat="45.96926" lon="4.77834">
        <ele>228</ele>
        <time>2017-12-20T11:06:41Z</time>
      </trkpt>
      <trkpt lat="45.9692" lon="4.77828">
        <ele>228</ele>
        <time>2017-12-20T11:06:42Z</time>
      </trkpt>
      <trkpt lat="45.96915" lon="4.77823">
        <ele>228</ele>
        <time>2017-12-20T11:06:43Z</time>
      </trkpt>
      <trkpt lat="45.96908" lon="4.77817">
        <ele>228</ele>
        <time>2017-12-20T11:06:44Z</time>
      </trkpt>
      <trkpt lat="45.96903" lon="4.77811">
        <ele>228</ele>
        <time>2017-12-20T11:06:45Z</time>
      </trkpt>
      <trkpt lat="45.96897" lon="4.77805">
        <ele>228</ele>
        <time>2017-12-20T11:06:46Z</time>
      </trkpt>
      <trkpt lat="45.96891" lon="4.778">
        <ele>228</ele>
        <time>2017-12-20T11:06:47Z</time>
      </trkpt>
      <trkpt lat="45.96885" lon="4.77794">
        <ele>228</ele>
        <time>2017-12-20T11:06:48Z</time>
      </trkpt>
      <trkpt lat="45.9688" lon="4.77788">
        <ele>228</ele>
        <time>2017-12-20T11:06:49Z</time>
      </trkpt>
      <trkpt lat="45.96875" lon="4.77782">
        <ele>228</ele>
        <time>2017-12-20T11:06:50Z</time>
      </trkpt>
      <trkpt lat="45.9687" lon="4.77777">
        <ele>228</ele>
        <time>2017-12-20T11:06:51Z</time>
      </trkpt>
      <trkpt lat="45.96866" lon="4.77773">
        <ele>228</ele>
        <time>2017-12-20T11:06:52Z</time>
      </trkpt>
      <trkpt lat="45.9686" lon="4.77768">
        <ele>228</ele>
        <time>2017-12-20T11:06:53Z</time>
      </trkpt>
      <trkpt lat="45.96855" lon="4.77763">
        <ele>228</ele>
        <time>2017-12-20T11:06:54Z</time>
      </trkpt>
      <trkpt lat="45.9685" lon="4.77758">
        <ele>228</ele>
        <time>2017-12-20T11:06:55Z</time>
      </trkpt>
      <trkpt lat="45.96844" lon="4.77753">
        <ele>228</ele>
        <time>2017-12-20T11:06:56Z</time>
      </trkpt>
      <trkpt lat="45.96838" lon="4.77747">
        <ele>228</ele>
        <time>2017-12-20T11:06:57Z</time>
      </trkpt>
      <trkpt lat="45.96833" lon="4.77741">
        <ele>228</ele>
        <time>2017-12-20T11:06:58Z</time>
      </trkpt>
      <trkpt lat="45.96827" lon="4.77735">
        <ele>228</ele>
        <time>2017-12-20T11:06:59Z</time>
      </trkpt>
      <trkpt lat="45.96821" lon="4.77729">
        <ele>228</ele>
        <time>2017-12-20T11:07:00Z</time>
      </trkpt>
      <trkpt lat="45.96816" lon="4.77724">
        <ele>228</ele>
        <time>2017-12-20T11:07:01Z</time>
      </trkpt>
      <trkpt lat="45.9681" lon="4.77718">
        <ele>228</ele>
        <time>2017-12-20T11:07:02Z</time>
      </trkpt>
      <trkpt lat="45.96805" lon="4.77711">
        <ele>228</ele>
        <time>2017-12-20T11:07:03Z</time>
      </trkpt>
      <trkpt lat="45.96799" lon="4.77704">
        <ele>228</ele>
        <time>2017-12-20T11:07:04Z</time>
      </trkpt>
      <trkpt lat="45.96793" lon="4.77697">
        <ele>228</ele>
        <time>2017-12-20T11:07:05Z</time>
      </trkpt>
      <trkpt lat="45.96787" lon="4.7769">
        <ele>227</ele>
        <time>2017-12-20T11:07:06Z</time>
      </trkpt>
      <trkpt lat="45.96782" lon="4.77684">
        <ele>227</ele>
        <time>2017-12-20T11:07:07Z</time>
      </trkpt>
      <trkpt lat="45.96776" lon="4.77678">
        <ele>227</ele>
        <time>2017-12-20T11:07:08Z</time>
      </trkpt>
      <trkpt lat="45.96771" lon="4.77672">
        <ele>227</ele>
        <time>2017-12-20T11:07:09Z</time>
      </trkpt>
      <trkpt lat="45.96766" lon="4.77666">
        <ele>227</ele>
        <time>2017-12-20T11:07:10Z</time>
      </trkpt>
      <trkpt lat="45.96762" lon="4.7766">
        <ele>227</ele>
        <time>2017-12-20T11:07:11Z</time>
      </trkpt>
      <trkpt lat="45.96758" lon="4.77654">
        <ele>227</ele>
        <time>2017-12-20T11:07:12Z</time>
      </trkpt>
      <trkpt lat="45.96753" lon="4.77648">
        <ele>227</ele>
        <time>2017-12-20T11:07:13Z</time>
      </trkpt>
      <trkpt lat="45.96748" lon="4.77642">
        <ele>227</ele>
        <time>2017-12-20T11:07:14Z</time>
      </trkpt>
      <trkpt lat="45.96744" lon="4.77636">
        <ele>227</ele>
        <time>2017-12-20T11:07:15Z</time>
      </trkpt>
      <trkpt lat="45.96739" lon="4.7763">
        <ele>226</ele>
        <time>2017-12-20T11:07:16Z</time>
      </trkpt>
      <trkpt lat="45.96735" lon="4.77625">
        <ele>226</ele>
        <time>2017-12-20T11:07:17Z</time>
      </trkpt>
      <trkpt lat="45.9673" lon="4.77618">
        <ele>226</ele>
        <time>2017-12-20T11:07:18Z</time>
      </trkpt>
      <trkpt lat="45.96723" lon="4.77612">
        <ele>226</ele>
        <time>2017-12-20T11:07:19Z</time>
      </trkpt>
      <trkpt lat="45.96718" lon="4.77606">
        <ele>226</ele>
        <time>2017-12-20T11:07:20Z</time>
      </trkpt>
      <trkpt lat="45.96713" lon="4.77598">
        <ele>226</ele>
        <time>2017-12-20T11:07:21Z</time>
      </trkpt>
      <trkpt lat="45.96707" lon="4.77591">
        <ele>226</ele>
        <time>2017-12-20T11:07:22Z</time>
      </trkpt>
      <trkpt lat="45.96699" lon="4.77583">
        <ele>226</ele>
        <time>2017-12-20T11:07:23Z</time>
      </trkpt>
      <trkpt lat="45.96693" lon="4.77577">
        <ele>225</ele>
        <time>2017-12-20T11:07:24Z</time>
      </trkpt>
      <trkpt lat="45.96688" lon="4.77573">
        <ele>225</ele>
        <time>2017-12-20T11:07:25Z</time>
      </trkpt>
      <trkpt lat="45.96682" lon="4.77567">
        <ele>225</ele>
        <time>2017-12-20T11:07:26Z</time>
      </trkpt>
      <trkpt lat="45.96676" lon="4.77562">
        <ele>225</ele>
        <time>2017-12-20T11:07:27Z</time>
      </trkpt>
      <trkpt lat="45.9667" lon="4.77558">
        <ele>225</ele>
        <time>2017-12-20T11:07:28Z</time>
      </trkpt>
      <trkpt lat="45.96664" lon="4.77553">
        <ele>224</ele>
        <time>2017-12-20T11:07:29Z</time>
      </trkpt>
      <trkpt lat="45.96658" lon="4.77549">
        <ele>224</ele>
        <time>2017-12-20T11:07:30Z</time>
      </trkpt>
      <trkpt lat="45.96652" lon="4.77545">
        <ele>224</ele>
        <time>2017-12-20T11:07:31Z</time>
      </trkpt>
      <trkpt lat="45.96646" lon="4.77541">
        <ele>224</ele>
        <time>2017-12-20T11:07:32Z</time>
      </trkpt>
      <trkpt lat="45.96642" lon="4.77537">
        <ele>224</ele>
        <time>2017-12-20T11:07:33Z</time>
      </trkpt>
      <trkpt lat="45.96636" lon="4.77534">
        <ele>224</ele>
        <time>2017-12-20T11:07:34Z</time>
      </trkpt>
      <trkpt lat="45.9663" lon="4.77531">
        <ele>224</ele>
        <time>2017-12-20T11:07:35Z</time>
      </trkpt>
      <trkpt lat="45.96624" lon="4.77527">
        <ele>224</ele>
        <time>2017-12-20T11:07:36Z</time>
      </trkpt>
      <trkpt lat="45.9662" lon="4.77524">
        <ele>224</ele>
        <time>2017-12-20T11:07:37Z</time>
      </trkpt>
      <trkpt lat="45.96614" lon="4.7752">
        <ele>224</ele>
        <time>2017-12-20T11:07:38Z</time>
      </trkpt>
      <trkpt lat="45.96608" lon="4.77516">
        <ele>224</ele>
        <time>2017-12-20T11:07:39Z</time>
      </trkpt>
      <trkpt lat="45.96603" lon="4.77513">
        <ele>224</ele>
        <time>2017-12-20T11:07:40Z</time>
      </trkpt>
      <trkpt lat="45.96598" lon="4.7751">
        <ele>224</ele>
        <time>2017-12-20T11:07:41Z</time>
      </trkpt>
      <trkpt lat="45.96593" lon="4.77506">
        <ele>224</ele>
        <time>2017-12-20T11:07:42Z</time>
      </trkpt>
      <trkpt lat="45.96586" lon="4.77503">
        <ele>224</ele>
        <time>2017-12-20T11:07:43Z</time>
      </trkpt>
      <trkpt lat="45.9658" lon="4.77498">
        <ele>224</ele>
        <time>2017-12-20T11:07:44Z</time>
      </trkpt>
      <trkpt lat="45.96574" lon="4.77494">
        <ele>224</ele>
        <time>2017-12-20T11:07:45Z</time>
      </trkpt>
      <trkpt lat="45.96567" lon="4.7749">
        <ele>224</ele>
        <time>2017-12-20T11:07:46Z</time>
      </trkpt>
      <trkpt lat="45.9656" lon="4.77486">
        <ele>224</ele>
        <time>2017-12-20T11:07:47Z</time>
      </trkpt>
      <trkpt lat="45.96554" lon="4.77481">
        <ele>223</ele>
        <time>2017-12-20T11:07:48Z</time>
      </trkpt>
      <trkpt lat="45.96547" lon="4.77477">
        <ele>223</ele>
        <time>2017-12-20T11:07:49Z</time>
      </trkpt>
      <trkpt lat="45.96541" lon="4.77471">
        <ele>223</ele>
        <time>2017-12-20T11:07:50Z</time>
      </trkpt>
      <trkpt lat="45.96533" lon="4.77465">
        <ele>223</ele>
        <time>2017-12-20T11:07:51Z</time>
      </trkpt>
      <trkpt lat="45.96528" lon="4.77462">
        <ele>223</ele>
        <time>2017-12-20T11:07:52Z</time>
      </trkpt>
      <trkpt lat="45.96521" lon="4.77458">
        <ele>223</ele>
        <time>2017-12-20T11:07:53Z</time>
      </trkpt>
      <trkpt lat="45.96515" lon="4.77453">
        <ele>223</ele>
        <time>2017-12-20T11:07:54Z</time>
      </trkpt>
      <trkpt lat="45.96508" lon="4.77449">
        <ele>223</ele>
        <time>2017-12-20T11:07:55Z</time>
      </trkpt>
      <trkpt lat="45.96502" lon="4.77447">
        <ele>223</ele>
        <time>2017-12-20T11:07:56Z</time>
      </trkpt>
      <trkpt lat="45.96497" lon="4.77444">
        <ele>222</ele>
        <time>2017-12-20T11:07:57Z</time>
      </trkpt>
      <trkpt lat="45.9649" lon="4.77441">
        <ele>222</ele>
        <time>2017-12-20T11:07:58Z</time>
      </trkpt>
      <trkpt lat="45.96483" lon="4.77437">
        <ele>222</ele>
        <time>2017-12-20T11:07:59Z</time>
      </trkpt>
      <trkpt lat="45.96477" lon="4.77432">
        <ele>221</ele>
        <time>2017-12-20T11:08:00Z</time>
      </trkpt>
      <trkpt lat="45.9647" lon="4.77428">
        <ele>221</ele>
        <time>2017-12-20T11:08:01Z</time>
      </trkpt>
      <trkpt lat="45.96464" lon="4.77424">
        <ele>221</ele>
        <time>2017-12-20T11:08:02Z</time>
      </trkpt>
      <trkpt lat="45.96456" lon="4.77419">
        <ele>221</ele>
        <time>2017-12-20T11:08:03Z</time>
      </trkpt>
      <trkpt lat="45.9645" lon="4.77415">
        <ele>222</ele>
        <time>2017-12-20T11:08:04Z</time>
      </trkpt>
      <trkpt lat="45.96444" lon="4.77411">
        <ele>222</ele>
        <time>2017-12-20T11:08:05Z</time>
      </trkpt>
      <trkpt lat="45.96437" lon="4.77407">
        <ele>222</ele>
        <time>2017-12-20T11:08:06Z</time>
      </trkpt>
      <trkpt lat="45.96426" lon="4.77401">
        <ele>222</ele>
        <time>2017-12-20T11:08:07Z</time>
      </trkpt>
      <trkpt lat="45.96419" lon="4.77398">
        <ele>222</ele>
        <time>2017-12-20T11:08:08Z</time>
      </trkpt>
      <trkpt lat="45.96412" lon="4.77393">
        <ele>220</ele>
        <time>2017-12-20T11:08:09Z</time>
      </trkpt>
      <trkpt lat="45.96406" lon="4.77389">
        <ele>220</ele>
        <time>2017-12-20T11:08:10Z</time>
      </trkpt>
      <trkpt lat="45.96401" lon="4.77386">
        <ele>220</ele>
        <time>2017-12-20T11:08:11Z</time>
      </trkpt>
      <trkpt lat="45.96394" lon="4.77381">
        <ele>220</ele>
        <time>2017-12-20T11:08:12Z</time>
      </trkpt>
      <trkpt lat="45.96387" lon="4.77378">
        <ele>220</ele>
        <time>2017-12-20T11:08:13Z</time>
      </trkpt>
      <trkpt lat="45.96384" lon="4.77375">
        <ele>220</ele>
        <time>2017-12-20T11:08:14Z</time>
      </trkpt>
      <trkpt lat="45.96378" lon="4.77371">
        <ele>220</ele>
        <time>2017-12-20T11:08:15Z</time>
      </trkpt>
      <trkpt lat="45.96372" lon="4.77368">
        <ele>220</ele>
        <time>2017-12-20T11:08:16Z</time>
      </trkpt>
      <trkpt lat="45.96369" lon="4.77368">
        <ele>219</ele>
        <time>2017-12-20T11:08:17Z</time>
      </trkpt>
      <trkpt lat="45.96365" lon="4.77364">
        <ele>220</ele>
        <time>2017-12-20T11:08:18Z</time>
      </trkpt>
      <trkpt lat="45.96361" lon="4.77361">
        <ele>219</ele>
        <time>2017-12-20T11:08:19Z</time>
      </trkpt>
      <trkpt lat="45.96357" lon="4.77358">
        <ele>220</ele>
        <time>2017-12-20T11:08:20Z</time>
      </trkpt>
      <trkpt lat="45.96349" lon="4.77355">
        <ele>219</ele>
        <time>2017-12-20T11:08:21Z</time>
      </trkpt>
      <trkpt lat="45.96342" lon="4.77351">
        <ele>220</ele>
        <time>2017-12-20T11:08:22Z</time>
      </trkpt>
      <trkpt lat="45.96334" lon="4.77347">
        <ele>220</ele>
        <time>2017-12-20T11:08:23Z</time>
      </trkpt>
      <trkpt lat="45.96327" lon="4.77342">
        <ele>219</ele>
        <time>2017-12-20T11:08:24Z</time>
      </trkpt>
      <trkpt lat="45.96317" lon="4.77337">
        <ele>218</ele>
        <time>2017-12-20T11:08:25Z</time>
      </trkpt>
      <trkpt lat="45.9631" lon="4.77333">
        <ele>219</ele>
        <time>2017-12-20T11:08:26Z</time>
      </trkpt>
      <trkpt lat="45.96303" lon="4.77329">
        <ele>219</ele>
        <time>2017-12-20T11:08:27Z</time>
      </trkpt>
      <trkpt lat="45.96295" lon="4.77328">
        <ele>219</ele>
        <time>2017-12-20T11:08:28Z</time>
      </trkpt>
      <trkpt lat="45.96288" lon="4.77325">
        <ele>219</ele>
        <time>2017-12-20T11:08:29Z</time>
      </trkpt>
      <trkpt lat="45.96282" lon="4.77321">
        <ele>219</ele>
        <time>2017-12-20T11:08:30Z</time>
      </trkpt>
      <trkpt lat="45.96275" lon="4.77317">
        <ele>219</ele>
        <time>2017-12-20T11:08:31Z</time>
      </trkpt>
      <trkpt lat="45.96268" lon="4.77314">
        <ele>218</ele>
        <time>2017-12-20T11:08:32Z</time>
      </trkpt>
      <trkpt lat="45.96262" lon="4.7731">
        <ele>218</ele>
        <time>2017-12-20T11:08:33Z</time>
      </trkpt>
      <trkpt lat="45.96256" lon="4.77306">
        <ele>218</ele>
        <time>2017-12-20T11:08:34Z</time>
      </trkpt>
      <trkpt lat="45.9625" lon="4.77303">
        <ele>217</ele>
        <time>2017-12-20T11:08:35Z</time>
      </trkpt>
      <trkpt lat="45.96244" lon="4.77299">
        <ele>217</ele>
        <time>2017-12-20T11:08:36Z</time>
      </trkpt>
      <trkpt lat="45.96238" lon="4.77296">
        <ele>217</ele>
        <time>2017-12-20T11:08:37Z</time>
      </trkpt>
      <trkpt lat="45.96233" lon="4.77292">
        <ele>217</ele>
        <time>2017-12-20T11:08:38Z</time>
      </trkpt>
      <trkpt lat="45.96226" lon="4.77289">
        <ele>217</ele>
        <time>2017-12-20T11:08:39Z</time>
      </trkpt>
      <trkpt lat="45.96219" lon="4.77285">
        <ele>217</ele>
        <time>2017-12-20T11:08:40Z</time>
      </trkpt>
      <trkpt lat="45.96213" lon="4.77282">
        <ele>217</ele>
        <time>2017-12-20T11:08:41Z</time>
      </trkpt>
      <trkpt lat="45.96209" lon="4.77278">
        <ele>217</ele>
        <time>2017-12-20T11:08:42Z</time>
      </trkpt>
      <trkpt lat="45.96203" lon="4.77273">
        <ele>217</ele>
        <time>2017-12-20T11:08:43Z</time>
      </trkpt>
      <trkpt lat="45.96197" lon="4.77271">
        <ele>216</ele>
        <time>2017-12-20T11:08:44Z</time>
      </trkpt>
      <trkpt lat="45.96187" lon="4.77268">
        <ele>216</ele>
        <time>2017-12-20T11:08:45Z</time>
      </trkpt>
      <trkpt lat="45.96181" lon="4.77265">
        <ele>216</ele>
        <time>2017-12-20T11:08:46Z</time>
      </trkpt>
      <trkpt lat="45.96175" lon="4.77261">
        <ele>216</ele>
        <time>2017-12-20T11:08:47Z</time>
      </trkpt>
      <trkpt lat="45.9617" lon="4.77259">
        <ele>216</ele>
        <time>2017-12-20T11:08:48Z</time>
      </trkpt>
      <trkpt lat="45.96164" lon="4.77256">
        <ele>215</ele>
        <time>2017-12-20T11:08:49Z</time>
      </trkpt>
      <trkpt lat="45.96158" lon="4.77252">
        <ele>215</ele>
        <time>2017-12-20T11:08:50Z</time>
      </trkpt>
      <trkpt lat="45.96153" lon="4.77248">
        <ele>215</ele>
        <time>2017-12-20T11:08:51Z</time>
      </trkpt>
      <trkpt lat="45.96147" lon="4.77246">
        <ele>215</ele>
        <time>2017-12-20T11:08:52Z</time>
      </trkpt>
      <trkpt lat="45.96142" lon="4.77243">
        <ele>215</ele>
        <time>2017-12-20T11:08:53Z</time>
      </trkpt>
      <trkpt lat="45.96136" lon="4.77241">
        <ele>215</ele>
        <time>2017-12-20T11:08:54Z</time>
      </trkpt>
      <trkpt lat="45.96129" lon="4.77239">
        <ele>215</ele>
        <time>2017-12-20T11:08:55Z</time>
      </trkpt>
      <trkpt lat="45.96123" lon="4.77239">
        <ele>214</ele>
        <time>2017-12-20T11:08:56Z</time>
      </trkpt>
      <trkpt lat="45.96111" lon="4.77239">
        <ele>214</ele>
        <time>2017-12-20T11:08:57Z</time>
      </trkpt>
      <trkpt lat="45.96105" lon="4.77239">
        <ele>213</ele>
        <time>2017-12-20T11:08:58Z</time>
      </trkpt>
      <trkpt lat="45.96098" lon="4.7724">
        <ele>213</ele>
        <time>2017-12-20T11:08:59Z</time>
      </trkpt>
      <trkpt lat="45.96093" lon="4.77241">
        <ele>212</ele>
        <time>2017-12-20T11:09:00Z</time>
      </trkpt>
      <trkpt lat="45.96087" lon="4.77239">
        <ele>212</ele>
        <time>2017-12-20T11:09:01Z</time>
      </trkpt>
      <trkpt lat="45.9608" lon="4.77239">
        <ele>210</ele>
        <time>2017-12-20T11:09:02Z</time>
      </trkpt>
      <trkpt lat="45.96072" lon="4.77242">
        <ele>210</ele>
        <time>2017-12-20T11:09:03Z</time>
      </trkpt>
      <trkpt lat="45.96065" lon="4.77243">
        <ele>209</ele>
        <time>2017-12-20T11:09:04Z</time>
      </trkpt>
      <trkpt lat="45.96055" lon="4.77244">
        <ele>209</ele>
        <time>2017-12-20T11:09:05Z</time>
      </trkpt>
      <trkpt lat="45.96051" lon="4.77245">
        <ele>209</ele>
        <time>2017-12-20T11:09:06Z</time>
      </trkpt>
      <trkpt lat="45.96044" lon="4.77246">
        <ele>208</ele>
        <time>2017-12-20T11:09:07Z</time>
      </trkpt>
      <trkpt lat="45.96038" lon="4.77245">
        <ele>208</ele>
        <time>2017-12-20T11:09:08Z</time>
      </trkpt>
      <trkpt lat="45.96029" lon="4.77244">
        <ele>207</ele>
        <time>2017-12-20T11:09:09Z</time>
      </trkpt>
      <trkpt lat="45.96021" lon="4.77243">
        <ele>207</ele>
        <time>2017-12-20T11:09:10Z</time>
      </trkpt>
      <trkpt lat="45.96014" lon="4.77244">
        <ele>206</ele>
        <time>2017-12-20T11:09:11Z</time>
      </trkpt>
      <trkpt lat="45.96008" lon="4.77243">
        <ele>205</ele>
        <time>2017-12-20T11:09:12Z</time>
      </trkpt>
      <trkpt lat="45.96" lon="4.7724">
        <ele>203</ele>
        <time>2017-12-20T11:09:13Z</time>
      </trkpt>
      <trkpt lat="45.95991" lon="4.77236">
        <ele>202</ele>
        <time>2017-12-20T11:09:14Z</time>
      </trkpt>
      <trkpt lat="45.95983" lon="4.77233">
        <ele>202</ele>
        <time>2017-12-20T11:09:15Z</time>
      </trkpt>
      <trkpt lat="45.95976" lon="4.77227">
        <ele>202</ele>
        <time>2017-12-20T11:09:16Z</time>
      </trkpt>
      <trkpt lat="45.95971" lon="4.77219">
        <ele>202</ele>
        <time>2017-12-20T11:09:17Z</time>
      </trkpt>
      <trkpt lat="45.95965" lon="4.77212">
        <ele>202</ele>
        <time>2017-12-20T11:09:18Z</time>
      </trkpt>
      <trkpt lat="45.95959" lon="4.77202">
        <ele>201</ele>
        <time>2017-12-20T11:09:19Z</time>
      </trkpt>
      <trkpt lat="45.95954" lon="4.77192">
        <ele>201</ele>
        <time>2017-12-20T11:09:20Z</time>
      </trkpt>
      <trkpt lat="45.95951" lon="4.77181">
        <ele>201</ele>
        <time>2017-12-20T11:09:21Z</time>
      </trkpt>
      <trkpt lat="45.95948" lon="4.77168">
        <ele>201</ele>
        <time>2017-12-20T11:09:22Z</time>
      </trkpt>
      <trkpt lat="45.95946" lon="4.77157">
        <ele>201</ele>
        <time>2017-12-20T11:09:23Z</time>
      </trkpt>
      <trkpt lat="45.95944" lon="4.77145">
        <ele>201</ele>
        <time>2017-12-20T11:09:24Z</time>
      </trkpt>
      <trkpt lat="45.95945" lon="4.77134">
        <ele>201</ele>
        <time>2017-12-20T11:09:25Z</time>
      </trkpt>
      <trkpt lat="45.95945" lon="4.77124">
        <ele>202</ele>
        <time>2017-12-20T11:09:26Z</time>
      </trkpt>
      <trkpt lat="45.95946" lon="4.77113">
        <ele>202</ele>
        <time>2017-12-20T11:09:27Z</time>
      </trkpt>
      <trkpt lat="45.95949" lon="4.77102">
        <ele>202</ele>
        <time>2017-12-20T11:09:28Z</time>
      </trkpt>
      <trkpt lat="45.95952" lon="4.77093">
        <ele>202</ele>
        <time>2017-12-20T11:09:29Z</time>
      </trkpt>
      <trkpt lat="45.95953" lon="4.77083">
        <ele>200</ele>
        <time>2017-12-20T11:09:30Z</time>
      </trkpt>
      <trkpt lat="45.95956" lon="4.77074">
        <ele>201</ele>
        <time>2017-12-20T11:09:31Z</time>
      </trkpt>
      <trkpt lat="45.95961" lon="4.77065">
        <ele>201</ele>
        <time>2017-12-20T11:09:32Z</time>
      </trkpt>
      <trkpt lat="45.95963" lon="4.77056">
        <ele>201</ele>
        <time>2017-12-20T11:09:33Z</time>
      </trkpt>
      <trkpt lat="45.95966" lon="4.77047">
        <ele>201</ele>
        <time>2017-12-20T11:09:34Z</time>
      </trkpt>
      <trkpt lat="45.9597" lon="4.77036">
        <ele>200</ele>
        <time>2017-12-20T11:09:35Z</time>
      </trkpt>
      <trkpt lat="45.95974" lon="4.77026">
        <ele>200</ele>
        <time>2017-12-20T11:09:36Z</time>
      </trkpt>
      <trkpt lat="45.95977" lon="4.77016">
        <ele>200</ele>
        <time>2017-12-20T11:09:37Z</time>
      </trkpt>
      <trkpt lat="45.9598" lon="4.77007">
        <ele>200</ele>
        <time>2017-12-20T11:09:38Z</time>
      </trkpt>
      <trkpt lat="45.95983" lon="4.76998">
        <ele>198</ele>
        <time>2017-12-20T11:09:39Z</time>
      </trkpt>
      <trkpt lat="45.95987" lon="4.76987">
        <ele>198</ele>
        <time>2017-12-20T11:09:40Z</time>
      </trkpt>
      <trkpt lat="45.95988" lon="4.76975">
        <ele>197</ele>
        <time>2017-12-20T11:09:41Z</time>
      </trkpt>
      <trkpt lat="45.95986" lon="4.76964">
        <ele>197</ele>
        <time>2017-12-20T11:09:42Z</time>
      </trkpt>
      <trkpt lat="45.95984" lon="4.76952">
        <ele>196</ele>
        <time>2017-12-20T11:09:43Z</time>
      </trkpt>
      <trkpt lat="45.9598" lon="4.76942">
        <ele>196</ele>
        <time>2017-12-20T11:09:44Z</time>
      </trkpt>
      <trkpt lat="45.95976" lon="4.76932">
        <ele>196</ele>
        <time>2017-12-20T11:09:45Z</time>
      </trkpt>
      <trkpt lat="45.95969" lon="4.76925">
        <ele>195</ele>
        <time>2017-12-20T11:09:46Z</time>
      </trkpt>
      <trkpt lat="45.95961" lon="4.76917">
        <ele>193</ele>
        <time>2017-12-20T11:09:47Z</time>
      </trkpt>
      <trkpt lat="45.95954" lon="4.7691">
        <ele>193</ele>
        <time>2017-12-20T11:09:48Z</time>
      </trkpt>
      <trkpt lat="45.95947" lon="4.76902">
        <ele>193</ele>
        <time>2017-12-20T11:09:49Z</time>
      </trkpt>
      <trkpt lat="45.95941" lon="4.76891">
        <ele>192</ele>
        <time>2017-12-20T11:09:50Z</time>
      </trkpt>
      <trkpt lat="45.95933" lon="4.76884">
        <ele>192</ele>
        <time>2017-12-20T11:09:51Z</time>
      </trkpt>
      <trkpt lat="45.95927" lon="4.76876">
        <ele>192</ele>
        <time>2017-12-20T11:09:52Z</time>
      </trkpt>
      <trkpt lat="45.9592" lon="4.76868">
        <ele>192</ele>
        <time>2017-12-20T11:09:53Z</time>
      </trkpt>
      <trkpt lat="45.95913" lon="4.76861">
        <ele>191</ele>
        <time>2017-12-20T11:09:54Z</time>
      </trkpt>
      <trkpt lat="45.95905" lon="4.76853">
        <ele>191</ele>
        <time>2017-12-20T11:09:55Z</time>
      </trkpt>
      <trkpt lat="45.95898" lon="4.76845">
        <ele>191</ele>
        <time>2017-12-20T11:09:56Z</time>
      </trkpt>
      <trkpt lat="45.95891" lon="4.76837">
        <ele>191</ele>
        <time>2017-12-20T11:09:57Z</time>
      </trkpt>
      <trkpt lat="45.95884" lon="4.7683">
        <ele>191</ele>
        <time>2017-12-20T11:09:58Z</time>
      </trkpt>
      <trkpt lat="45.95877" lon="4.76824">
        <ele>191</ele>
        <time>2017-12-20T11:09:59Z</time>
      </trkpt>
      <trkpt lat="45.95872" lon="4.76819">
        <ele>191</ele>
        <time>2017-12-20T11:10:00Z</time>
      </trkpt>
      <trkpt lat="45.95865" lon="4.76814">
        <ele>191</ele>
        <time>2017-12-20T11:10:01Z</time>
      </trkpt>
      <trkpt lat="45.95859" lon="4.76807">
        <ele>191</ele>
        <time>2017-12-20T11:10:02Z</time>
      </trkpt>
      <trkpt lat="45.95853" lon="4.76801">
        <ele>191</ele>
        <time>2017-12-20T11:10:03Z</time>
      </trkpt>
      <trkpt lat="45.95847" lon="4.76794">
        <ele>191</ele>
        <time>2017-12-20T11:10:04Z</time>
      </trkpt>
      <trkpt lat="45.95845" lon="4.76789">
        <ele>191</ele>
        <time>2017-12-20T11:10:05Z</time>
      </trkpt>
      <trkpt lat="45.95841" lon="4.7678">
        <ele>191</ele>
        <time>2017-12-20T11:10:06Z</time>
      </trkpt>
      <trkpt lat="45.95839" lon="4.76774">
        <ele>191</ele>
        <time>2017-12-20T11:10:07Z</time>
      </trkpt>
      <trkpt lat="45.95837" lon="4.76768">
        <ele>191</ele>
        <time>2017-12-20T11:10:08Z</time>
      </trkpt>
      <trkpt lat="45.95835" lon="4.7676">
        <ele>191</ele>
        <time>2017-12-20T11:10:09Z</time>
      </trkpt>
      <trkpt lat="45.95833" lon="4.76752">
        <ele>191</ele>
        <time>2017-12-20T11:10:10Z</time>
      </trkpt>
      <trkpt lat="45.95831" lon="4.76742">
        <ele>190</ele>
        <time>2017-12-20T11:10:11Z</time>
      </trkpt>
      <trkpt lat="45.9583" lon="4.76734">
        <ele>190</ele>
        <time>2017-12-20T11:10:12Z</time>
      </trkpt>
      <trkpt lat="45.95829" lon="4.76726">
        <ele>190</ele>
        <time>2017-12-20T11:10:13Z</time>
      </trkpt>
      <trkpt lat="45.95828" lon="4.76718">
        <ele>189</ele>
        <time>2017-12-20T11:10:14Z</time>
      </trkpt>
      <trkpt lat="45.95826" lon="4.7671">
        <ele>189</ele>
        <time>2017-12-20T11:10:15Z</time>
      </trkpt>
      <trkpt lat="45.95825" lon="4.76703">
        <ele>189</ele>
        <time>2017-12-20T11:10:16Z</time>
      </trkpt>
      <trkpt lat="45.95823" lon="4.76695">
        <ele>189</ele>
        <time>2017-12-20T11:10:17Z</time>
      </trkpt>
      <trkpt lat="45.95821" lon="4.76687">
        <ele>189</ele>
        <time>2017-12-20T11:10:18Z</time>
      </trkpt>
      <trkpt lat="45.95819" lon="4.76679">
        <ele>189</ele>
        <time>2017-12-20T11:10:19Z</time>
      </trkpt>
      <trkpt lat="45.95818" lon="4.76671">
        <ele>188</ele>
        <time>2017-12-20T11:10:20Z</time>
      </trkpt>
      <trkpt lat="45.95818" lon="4.76663">
        <ele>188</ele>
        <time>2017-12-20T11:10:21Z</time>
      </trkpt>
      <trkpt lat="45.95816" lon="4.76654">
        <ele>188</ele>
        <time>2017-12-20T11:10:22Z</time>
      </trkpt>
      <trkpt lat="45.95817" lon="4.76645">
        <ele>188</ele>
        <time>2017-12-20T11:10:23Z</time>
      </trkpt>
      <trkpt lat="45.95819" lon="4.76637">
        <ele>188</ele>
        <time>2017-12-20T11:10:24Z</time>
      </trkpt>
      <trkpt lat="45.95817" lon="4.7663">
        <ele>188</ele>
        <time>2017-12-20T11:10:25Z</time>
      </trkpt>
      <trkpt lat="45.95816" lon="4.76622">
        <ele>188</ele>
        <time>2017-12-20T11:10:26Z</time>
      </trkpt>
      <trkpt lat="45.95815" lon="4.76613">
        <ele>188</ele>
        <time>2017-12-20T11:10:27Z</time>
      </trkpt>
      <trkpt lat="45.95813" lon="4.76607">
        <ele>188</ele>
        <time>2017-12-20T11:10:28Z</time>
      </trkpt>
      <trkpt lat="45.95812" lon="4.76599">
        <ele>188</ele>
        <time>2017-12-20T11:10:29Z</time>
      </trkpt>
      <trkpt lat="45.9581" lon="4.76592">
        <ele>188</ele>
        <time>2017-12-20T11:10:30Z</time>
      </trkpt>
      <trkpt lat="45.95809" lon="4.76585">
        <ele>188</ele>
        <time>2017-12-20T11:10:31Z</time>
      </trkpt>
      <trkpt lat="45.95808" lon="4.76575">
        <ele>187</ele>
        <time>2017-12-20T11:10:32Z</time>
      </trkpt>
      <trkpt lat="45.95807" lon="4.76567">
        <ele>187</ele>
        <time>2017-12-20T11:10:33Z</time>
      </trkpt>
      <trkpt lat="45.95806" lon="4.76557">
        <ele>187</ele>
        <time>2017-12-20T11:10:34Z</time>
      </trkpt>
      <trkpt lat="45.95805" lon="4.76549">
        <ele>187</ele>
        <time>2017-12-20T11:10:35Z</time>
      </trkpt>
      <trkpt lat="45.95803" lon="4.76541">
        <ele>187</ele>
        <time>2017-12-20T11:10:36Z</time>
      </trkpt>
      <trkpt lat="45.95802" lon="4.76533">
        <ele>187</ele>
        <time>2017-12-20T11:10:37Z</time>
      </trkpt>
      <trkpt lat="45.95801" lon="4.76525">
        <ele>187</ele>
        <time>2017-12-20T11:10:38Z</time>
      </trkpt>
      <trkpt lat="45.95799" lon="4.76517">
        <ele>187</ele>
        <time>2017-12-20T11:10:39Z</time>
      </trkpt>
      <trkpt lat="45.95797" lon="4.76509">
        <ele>187</ele>
        <time>2017-12-20T11:10:40Z</time>
      </trkpt>
      <trkpt lat="45.95796" lon="4.76502">
        <ele>187</ele>
        <time>2017-12-20T11:10:41Z</time>
      </trkpt>
      <trkpt lat="45.95795" lon="4.76493">
        <ele>187</ele>
        <time>2017-12-20T11:10:42Z</time>
      </trkpt>
      <trkpt lat="45.95795" lon="4.76486">
        <ele>187</ele>
        <time>2017-12-20T11:10:43Z</time>
      </trkpt>
      <trkpt lat="45.95794" lon="4.76479">
        <ele>187</ele>
        <time>2017-12-20T11:10:44Z</time>
      </trkpt>
      <trkpt lat="45.95793" lon="4.76471">
        <ele>187</ele>
        <time>2017-12-20T11:10:45Z</time>
      </trkpt>
      <trkpt lat="45.95791" lon="4.76463">
        <ele>186</ele>
        <time>2017-12-20T11:10:46Z</time>
      </trkpt>
      <trkpt lat="45.95789" lon="4.76455">
        <ele>186</ele>
        <time>2017-12-20T11:10:47Z</time>
      </trkpt>
      <trkpt lat="45.95788" lon="4.76446">
        <ele>186</ele>
        <time>2017-12-20T11:10:48Z</time>
      </trkpt>
      <trkpt lat="45.95787" lon="4.76438">
        <ele>186</ele>
        <time>2017-12-20T11:10:49Z</time>
      </trkpt>
      <trkpt lat="45.95786" lon="4.7643">
        <ele>186</ele>
        <time>2017-12-20T11:10:50Z</time>
      </trkpt>
      <trkpt lat="45.95785" lon="4.76422">
        <ele>186</ele>
        <time>2017-12-20T11:10:51Z</time>
      </trkpt>
      <trkpt lat="45.95786" lon="4.76413">
        <ele>186</ele>
        <time>2017-12-20T11:10:52Z</time>
      </trkpt>
      <trkpt lat="45.95784" lon="4.76405">
        <ele>186</ele>
        <time>2017-12-20T11:10:53Z</time>
      </trkpt>
      <trkpt lat="45.95785" lon="4.76398">
        <ele>186</ele>
        <time>2017-12-20T11:10:54Z</time>
      </trkpt>
      <trkpt lat="45.95783" lon="4.76389">
        <ele>186</ele>
        <time>2017-12-20T11:10:55Z</time>
      </trkpt>
      <trkpt lat="45.95784" lon="4.76381">
        <ele>186</ele>
        <time>2017-12-20T11:10:56Z</time>
      </trkpt>
      <trkpt lat="45.95784" lon="4.76373">
        <ele>186</ele>
        <time>2017-12-20T11:10:57Z</time>
      </trkpt>
      <trkpt lat="45.95784" lon="4.76363">
        <ele>186</ele>
        <time>2017-12-20T11:10:58Z</time>
      </trkpt>
      <trkpt lat="45.95783" lon="4.76354">
        <ele>186</ele>
        <time>2017-12-20T11:10:59Z</time>
      </trkpt>
      <trkpt lat="45.95781" lon="4.76346">
        <ele>186</ele>
        <time>2017-12-20T11:11:00Z</time>
      </trkpt>
      <trkpt lat="45.9578" lon="4.76337">
        <ele>186</ele>
        <time>2017-12-20T11:11:01Z</time>
      </trkpt>
      <trkpt lat="45.9578" lon="4.76327">
        <ele>186</ele>
        <time>2017-12-20T11:11:02Z</time>
      </trkpt>
      <trkpt lat="45.9578" lon="4.76319">
        <ele>186</ele>
        <time>2017-12-20T11:11:03Z</time>
      </trkpt>
      <trkpt lat="45.95779" lon="4.76311">
        <ele>186</ele>
        <time>2017-12-20T11:11:04Z</time>
      </trkpt>
      <trkpt lat="45.95779" lon="4.76303">
        <ele>186</ele>
        <time>2017-12-20T11:11:05Z</time>
      </trkpt>
      <trkpt lat="45.95779" lon="4.76295">
        <ele>186</ele>
        <time>2017-12-20T11:11:06Z</time>
      </trkpt>
      <trkpt lat="45.95778" lon="4.76287">
        <ele>186</ele>
        <time>2017-12-20T11:11:07Z</time>
      </trkpt>
      <trkpt lat="45.95777" lon="4.7628">
        <ele>186</ele>
        <time>2017-12-20T11:11:08Z</time>
      </trkpt>
      <trkpt lat="45.95777" lon="4.76272">
        <ele>186</ele>
        <time>2017-12-20T11:11:09Z</time>
      </trkpt>
      <trkpt lat="45.95777" lon="4.76265">
        <ele>186</ele>
        <time>2017-12-20T11:11:10Z</time>
      </trkpt>
      <trkpt lat="45.95776" lon="4.76258">
        <ele>186</ele>
        <time>2017-12-20T11:11:11Z</time>
      </trkpt>
      <trkpt lat="45.95775" lon="4.76252">
        <ele>186</ele>
        <time>2017-12-20T11:11:12Z</time>
      </trkpt>
      <trkpt lat="45.95774" lon="4.76243">
        <ele>186</ele>
        <time>2017-12-20T11:11:13Z</time>
      </trkpt>
      <trkpt lat="45.95774" lon="4.76236">
        <ele>186</ele>
        <time>2017-12-20T11:11:14Z</time>
      </trkpt>
      <trkpt lat="45.95774" lon="4.76227">
        <ele>186</ele>
        <time>2017-12-20T11:11:15Z</time>
      </trkpt>
      <trkpt lat="45.95773" lon="4.7622">
        <ele>186</ele>
        <time>2017-12-20T11:11:16Z</time>
      </trkpt>
      <trkpt lat="45.95773" lon="4.76212">
        <ele>186</ele>
        <time>2017-12-20T11:11:17Z</time>
      </trkpt>
      <trkpt lat="45.95772" lon="4.76204">
        <ele>186</ele>
        <time>2017-12-20T11:11:18Z</time>
      </trkpt>
      <trkpt lat="45.95771" lon="4.76195">
        <ele>186</ele>
        <time>2017-12-20T11:11:19Z</time>
      </trkpt>
      <trkpt lat="45.95771" lon="4.76187">
        <ele>186</ele>
        <time>2017-12-20T11:11:20Z</time>
      </trkpt>
      <trkpt lat="45.9577" lon="4.76178">
        <ele>186</ele>
        <time>2017-12-20T11:11:21Z</time>
      </trkpt>
      <trkpt lat="45.95768" lon="4.76171">
        <ele>186</ele>
        <time>2017-12-20T11:11:22Z</time>
      </trkpt>
      <trkpt lat="45.95767" lon="4.76162">
        <ele>186</ele>
        <time>2017-12-20T11:11:23Z</time>
      </trkpt>
      <trkpt lat="45.95766" lon="4.76153">
        <ele>186</ele>
        <time>2017-12-20T11:11:24Z</time>
      </trkpt>
      <trkpt lat="45.95766" lon="4.76145">
        <ele>186</ele>
        <time>2017-12-20T11:11:25Z</time>
      </trkpt>
      <trkpt lat="45.95765" lon="4.76136">
        <ele>186</ele>
        <time>2017-12-20T11:11:26Z</time>
      </trkpt>
      <trkpt lat="45.95764" lon="4.76128">
        <ele>186</ele>
        <time>2017-12-20T11:11:27Z</time>
      </trkpt>
      <trkpt lat="45.95763" lon="4.76119">
        <ele>186</ele>
        <time>2017-12-20T11:11:28Z</time>
      </trkpt>
      <trkpt lat="45.95762" lon="4.76112">
        <ele>186</ele>
        <time>2017-12-20T11:11:29Z</time>
      </trkpt>
      <trkpt lat="45.95761" lon="4.76105">
        <ele>186</ele>
        <time>2017-12-20T11:11:30Z</time>
      </trkpt>
      <trkpt lat="45.95758" lon="4.76099">
        <ele>186</ele>
        <time>2017-12-20T11:11:31Z</time>
      </trkpt>
      <trkpt lat="45.95758" lon="4.76092">
        <ele>186</ele>
        <time>2017-12-20T11:11:32Z</time>
      </trkpt>
      <trkpt lat="45.95756" lon="4.76086">
        <ele>185</ele>
        <time>2017-12-20T11:11:33Z</time>
      </trkpt>
      <trkpt lat="45.95751" lon="4.76076">
        <ele>186</ele>
        <time>2017-12-20T11:11:35Z</time>
      </trkpt>
      <trkpt lat="45.95747" lon="4.76069">
        <ele>185</ele>
        <time>2017-12-20T11:11:36Z</time>
      </trkpt>
      <trkpt lat="45.95744" lon="4.76063">
        <ele>185</ele>
        <time>2017-12-20T11:11:37Z</time>
      </trkpt>
      <trkpt lat="45.95741" lon="4.76056">
        <ele>184</ele>
        <time>2017-12-20T11:11:38Z</time>
      </trkpt>
      <trkpt lat="45.95737" lon="4.76049">
        <ele>184</ele>
        <time>2017-12-20T11:11:39Z</time>
      </trkpt>
      <trkpt lat="45.95734" lon="4.76042">
        <ele>184</ele>
        <time>2017-12-20T11:11:40Z</time>
      </trkpt>
      <trkpt lat="45.95733" lon="4.76036">
        <ele>184</ele>
        <time>2017-12-20T11:11:41Z</time>
      </trkpt>
      <trkpt lat="45.95729" lon="4.76029">
        <ele>184</ele>
        <time>2017-12-20T11:11:42Z</time>
      </trkpt>
      <trkpt lat="45.95726" lon="4.76021">
        <ele>185</ele>
        <time>2017-12-20T11:11:43Z</time>
      </trkpt>
      <trkpt lat="45.95722" lon="4.76014">
        <ele>184</ele>
        <time>2017-12-20T11:11:44Z</time>
      </trkpt>
      <trkpt lat="45.95719" lon="4.76007">
        <ele>184</ele>
        <time>2017-12-20T11:11:45Z</time>
      </trkpt>
      <trkpt lat="45.95717" lon="4.76">
        <ele>185</ele>
        <time>2017-12-20T11:11:46Z</time>
      </trkpt>
      <trkpt lat="45.95713" lon="4.75992">
        <ele>185</ele>
        <time>2017-12-20T11:11:47Z</time>
      </trkpt>
      <trkpt lat="45.9571" lon="4.75984">
        <ele>185</ele>
        <time>2017-12-20T11:11:48Z</time>
      </trkpt>
      <trkpt lat="45.95707" lon="4.75978">
        <ele>185</ele>
        <time>2017-12-20T11:11:49Z</time>
      </trkpt>
      <trkpt lat="45.95703" lon="4.75971">
        <ele>185</ele>
        <time>2017-12-20T11:11:50Z</time>
      </trkpt>
      <trkpt lat="45.957" lon="4.75964">
        <ele>185</ele>
        <time>2017-12-20T11:11:51Z</time>
      </trkpt>
      <trkpt lat="45.95696" lon="4.75957">
        <ele>185</ele>
        <time>2017-12-20T11:11:52Z</time>
      </trkpt>
      <trkpt lat="45.95693" lon="4.7595">
        <ele>185</ele>
        <time>2017-12-20T11:11:53Z</time>
      </trkpt>
      <trkpt lat="45.95691" lon="4.75944">
        <ele>185</ele>
        <time>2017-12-20T11:11:54Z</time>
      </trkpt>
      <trkpt lat="45.95688" lon="4.75937">
        <ele>185</ele>
        <time>2017-12-20T11:11:55Z</time>
      </trkpt>
      <trkpt lat="45.95685" lon="4.7593">
        <ele>185</ele>
        <time>2017-12-20T11:11:56Z</time>
      </trkpt>
      <trkpt lat="45.95681" lon="4.75922">
        <ele>185</ele>
        <time>2017-12-20T11:11:57Z</time>
      </trkpt>
      <trkpt lat="45.95679" lon="4.75915">
        <ele>185</ele>
        <time>2017-12-20T11:11:58Z</time>
      </trkpt>
      <trkpt lat="45.95676" lon="4.75908">
        <ele>185</ele>
        <time>2017-12-20T11:11:59Z</time>
      </trkpt>
      <trkpt lat="45.95672" lon="4.75901">
        <ele>185</ele>
        <time>2017-12-20T11:12:00Z</time>
      </trkpt>
      <trkpt lat="45.9567" lon="4.75892">
        <ele>186</ele>
        <time>2017-12-20T11:12:01Z</time>
      </trkpt>
      <trkpt lat="45.95668" lon="4.75886">
        <ele>186</ele>
        <time>2017-12-20T11:12:02Z</time>
      </trkpt>
      <trkpt lat="45.95665" lon="4.75878">
        <ele>184</ele>
        <time>2017-12-20T11:12:03Z</time>
      </trkpt>
      <trkpt lat="45.95662" lon="4.7587">
        <ele>184</ele>
        <time>2017-12-20T11:12:04Z</time>
      </trkpt>
      <trkpt lat="45.95661" lon="4.75862">
        <ele>184</ele>
        <time>2017-12-20T11:12:05Z</time>
      </trkpt>
      <trkpt lat="45.95659" lon="4.75856">
        <ele>184</ele>
        <time>2017-12-20T11:12:06Z</time>
      </trkpt>
      <trkpt lat="45.95657" lon="4.75847">
        <ele>185</ele>
        <time>2017-12-20T11:12:07Z</time>
      </trkpt>
      <trkpt lat="45.95655" lon="4.7584">
        <ele>185</ele>
        <time>2017-12-20T11:12:08Z</time>
      </trkpt>
      <trkpt lat="45.95653" lon="4.75831">
        <ele>186</ele>
        <time>2017-12-20T11:12:09Z</time>
      </trkpt>
      <trkpt lat="45.95652" lon="4.75823">
        <ele>185</ele>
        <time>2017-12-20T11:12:10Z</time>
      </trkpt>
      <trkpt lat="45.95651" lon="4.75816">
        <ele>185</ele>
        <time>2017-12-20T11:12:11Z</time>
      </trkpt>
      <trkpt lat="45.95649" lon="4.75808">
        <ele>185</ele>
        <time>2017-12-20T11:12:12Z</time>
      </trkpt>
      <trkpt lat="45.95647" lon="4.758">
        <ele>185</ele>
        <time>2017-12-20T11:12:13Z</time>
      </trkpt>
      <trkpt lat="45.95645" lon="4.75793">
        <ele>185</ele>
        <time>2017-12-20T11:12:14Z</time>
      </trkpt>
      <trkpt lat="45.95644" lon="4.75786">
        <ele>186</ele>
        <time>2017-12-20T11:12:15Z</time>
      </trkpt>
      <trkpt lat="45.95644" lon="4.75779">
        <ele>186</ele>
        <time>2017-12-20T11:12:16Z</time>
      </trkpt>
      <trkpt lat="45.95644" lon="4.75769">
        <ele>186</ele>
        <time>2017-12-20T11:12:17Z</time>
      </trkpt>
      <trkpt lat="45.95643" lon="4.75763">
        <ele>186</ele>
        <time>2017-12-20T11:12:18Z</time>
      </trkpt>
      <trkpt lat="45.95642" lon="4.75755">
        <ele>186</ele>
        <time>2017-12-20T11:12:19Z</time>
      </trkpt>
      <trkpt lat="45.95641" lon="4.75748">
        <ele>187</ele>
        <time>2017-12-20T11:12:20Z</time>
      </trkpt>
      <trkpt lat="45.9564" lon="4.75741">
        <ele>187</ele>
        <time>2017-12-20T11:12:21Z</time>
      </trkpt>
      <trkpt lat="45.95641" lon="4.75734">
        <ele>187</ele>
        <time>2017-12-20T11:12:22Z</time>
      </trkpt>
      <trkpt lat="45.95639" lon="4.75727">
        <ele>187</ele>
        <time>2017-12-20T11:12:23Z</time>
      </trkpt>
      <trkpt lat="45.95639" lon="4.75718">
        <ele>187</ele>
        <time>2017-12-20T11:12:24Z</time>
      </trkpt>
      <trkpt lat="45.95637" lon="4.7571">
        <ele>187</ele>
        <time>2017-12-20T11:12:25Z</time>
      </trkpt>
      <trkpt lat="45.95636" lon="4.75703">
        <ele>187</ele>
        <time>2017-12-20T11:12:26Z</time>
      </trkpt>
      <trkpt lat="45.95634" lon="4.75695">
        <ele>187</ele>
        <time>2017-12-20T11:12:27Z</time>
      </trkpt>
      <trkpt lat="45.95632" lon="4.75686">
        <ele>187</ele>
        <time>2017-12-20T11:12:28Z</time>
      </trkpt>
      <trkpt lat="45.95631" lon="4.75678">
        <ele>188</ele>
        <time>2017-12-20T11:12:29Z</time>
      </trkpt>
      <trkpt lat="45.95628" lon="4.7567">
        <ele>187</ele>
        <time>2017-12-20T11:12:30Z</time>
      </trkpt>
      <trkpt lat="45.95626" lon="4.75662">
        <ele>188</ele>
        <time>2017-12-20T11:12:31Z</time>
      </trkpt>
      <trkpt lat="45.95625" lon="4.75653">
        <ele>188</ele>
        <time>2017-12-20T11:12:32Z</time>
      </trkpt>
      <trkpt lat="45.95623" lon="4.75645">
        <ele>188</ele>
        <time>2017-12-20T11:12:33Z</time>
      </trkpt>
      <trkpt lat="45.95621" lon="4.75636">
        <ele>188</ele>
        <time>2017-12-20T11:12:34Z</time>
      </trkpt>
      <trkpt lat="45.9562" lon="4.75629">
        <ele>188</ele>
        <time>2017-12-20T11:12:35Z</time>
      </trkpt>
      <trkpt lat="45.95618" lon="4.75621">
        <ele>188</ele>
        <time>2017-12-20T11:12:36Z</time>
      </trkpt>
      <trkpt lat="45.95615" lon="4.75614">
        <ele>188</ele>
        <time>2017-12-20T11:12:37Z</time>
      </trkpt>
      <trkpt lat="45.95611" lon="4.75607">
        <ele>188</ele>
        <time>2017-12-20T11:12:38Z</time>
      </trkpt>
      <trkpt lat="45.95609" lon="4.75601">
        <ele>188</ele>
        <time>2017-12-20T11:12:39Z</time>
      </trkpt>
      <trkpt lat="45.95607" lon="4.75595">
        <ele>187</ele>
        <time>2017-12-20T11:12:40Z</time>
      </trkpt>
      <trkpt lat="45.95605" lon="4.75587">
        <ele>187</ele>
        <time>2017-12-20T11:12:41Z</time>
      </trkpt>
      <trkpt lat="45.95602" lon="4.75581">
        <ele>188</ele>
        <time>2017-12-20T11:12:42Z</time>
      </trkpt>
      <trkpt lat="45.95599" lon="4.75575">
        <ele>188</ele>
        <time>2017-12-20T11:12:43Z</time>
      </trkpt>
      <trkpt lat="45.95596" lon="4.75568">
        <ele>188</ele>
        <time>2017-12-20T11:12:44Z</time>
      </trkpt>
      <trkpt lat="45.95592" lon="4.75561">
        <ele>188</ele>
        <time>2017-12-20T11:12:45Z</time>
      </trkpt>
      <trkpt lat="45.95589" lon="4.75554">
        <ele>188</ele>
        <time>2017-12-20T11:12:46Z</time>
      </trkpt>
      <trkpt lat="45.95584" lon="4.75547">
        <ele>189</ele>
        <time>2017-12-20T11:12:47Z</time>
      </trkpt>
      <trkpt lat="45.95581" lon="4.75542">
        <ele>186</ele>
        <time>2017-12-20T11:12:48Z</time>
      </trkpt>
      <trkpt lat="45.95576" lon="4.75537">
        <ele>186</ele>
        <time>2017-12-20T11:12:49Z</time>
      </trkpt>
      <trkpt lat="45.95572" lon="4.75533">
        <ele>186</ele>
        <time>2017-12-20T11:12:50Z</time>
      </trkpt>
      <trkpt lat="45.95569" lon="4.75528">
        <ele>186</ele>
        <time>2017-12-20T11:12:51Z</time>
      </trkpt>
      <trkpt lat="45.95565" lon="4.75524">
        <ele>187</ele>
        <time>2017-12-20T11:12:52Z</time>
      </trkpt>
      <trkpt lat="45.9556" lon="4.75515">
        <ele>187</ele>
        <time>2017-12-20T11:12:54Z</time>
      </trkpt>
      <trkpt lat="45.95557" lon="4.7551">
        <ele>187</ele>
        <time>2017-12-20T11:12:55Z</time>
      </trkpt>
      <trkpt lat="45.95552" lon="4.75505">
        <ele>186</ele>
        <time>2017-12-20T11:12:56Z</time>
      </trkpt>
      <trkpt lat="45.95549" lon="4.75499">
        <ele>187</ele>
        <time>2017-12-20T11:12:57Z</time>
      </trkpt>
      <trkpt lat="45.95545" lon="4.75488">
        <ele>187</ele>
        <time>2017-12-20T11:13:01Z</time>
      </trkpt>
      <trkpt lat="45.95546" lon="4.75483">
        <ele>187</ele>
        <time>2017-12-20T11:13:02Z</time>
      </trkpt>
      <trkpt lat="45.95545" lon="4.75474">
        <ele>187</ele>
        <time>2017-12-20T11:13:04Z</time>
      </trkpt>
      <trkpt lat="45.95545" lon="4.7547">
        <ele>187</ele>
        <time>2017-12-20T11:13:05Z</time>
      </trkpt>
      <trkpt lat="45.95543" lon="4.75458">
        <ele>188</ele>
        <time>2017-12-20T11:13:07Z</time>
      </trkpt>
      <trkpt lat="45.95539" lon="4.75453">
        <ele>187</ele>
        <time>2017-12-20T11:13:08Z</time>
      </trkpt>
      <trkpt lat="45.95536" lon="4.75449">
        <ele>187</ele>
        <time>2017-12-20T11:13:09Z</time>
      </trkpt>
      <trkpt lat="45.95531" lon="4.75444">
        <ele>187</ele>
        <time>2017-12-20T11:13:10Z</time>
      </trkpt>
      <trkpt lat="45.95527" lon="4.75439">
        <ele>187</ele>
        <time>2017-12-20T11:13:11Z</time>
      </trkpt>
      <trkpt lat="45.95524" lon="4.75432">
        <ele>187</ele>
        <time>2017-12-20T11:13:12Z</time>
      </trkpt>
      <trkpt lat="45.95521" lon="4.75426">
        <ele>187</ele>
        <time>2017-12-20T11:13:13Z</time>
      </trkpt>
      <trkpt lat="45.95518" lon="4.7542">
        <ele>186</ele>
        <time>2017-12-20T11:13:14Z</time>
      </trkpt>
      <trkpt lat="45.95515" lon="4.75408">
        <ele>187</ele>
        <time>2017-12-20T11:13:16Z</time>
      </trkpt>
      <trkpt lat="45.95513" lon="4.75402">
        <ele>188</ele>
        <time>2017-12-20T11:13:17Z</time>
      </trkpt>
      <trkpt lat="45.9551" lon="4.75394">
        <ele>188</ele>
        <time>2017-12-20T11:13:18Z</time>
      </trkpt>
      <trkpt lat="45.95507" lon="4.75388">
        <ele>188</ele>
        <time>2017-12-20T11:13:19Z</time>
      </trkpt>
      <trkpt lat="45.95503" lon="4.75382">
        <ele>188</ele>
        <time>2017-12-20T11:13:20Z</time>
      </trkpt>
      <trkpt lat="45.955" lon="4.75376">
        <ele>185</ele>
        <time>2017-12-20T11:13:21Z</time>
      </trkpt>
      <trkpt lat="45.95498" lon="4.7537">
        <ele>186</ele>
        <time>2017-12-20T11:13:22Z</time>
      </trkpt>
      <trkpt lat="45.95494" lon="4.75364">
        <ele>186</ele>
        <time>2017-12-20T11:13:23Z</time>
      </trkpt>
      <trkpt lat="45.95492" lon="4.75358">
        <ele>186</ele>
        <time>2017-12-20T11:13:24Z</time>
      </trkpt>
      <trkpt lat="45.95489" lon="4.75352">
        <ele>186</ele>
        <time>2017-12-20T11:13:25Z</time>
      </trkpt>
      <trkpt lat="45.95485" lon="4.75345">
        <ele>187</ele>
        <time>2017-12-20T11:13:26Z</time>
      </trkpt>
      <trkpt lat="45.95481" lon="4.75339">
        <ele>186</ele>
        <time>2017-12-20T11:13:27Z</time>
      </trkpt>
      <trkpt lat="45.95477" lon="4.75334">
        <ele>186</ele>
        <time>2017-12-20T11:13:28Z</time>
      </trkpt>
      <trkpt lat="45.95476" lon="4.75328">
        <ele>188</ele>
        <time>2017-12-20T11:13:29Z</time>
      </trkpt>
      <trkpt lat="45.95473" lon="4.75322">
        <ele>188</ele>
        <time>2017-12-20T11:13:30Z</time>
      </trkpt>
      <trkpt lat="45.9547" lon="4.75315">
        <ele>188</ele>
        <time>2017-12-20T11:13:31Z</time>
      </trkpt>
      <trkpt lat="45.95467" lon="4.7531">
        <ele>188</ele>
        <time>2017-12-20T11:13:32Z</time>
      </trkpt>
      <trkpt lat="45.95464" lon="4.75305">
        <ele>188</ele>
        <time>2017-12-20T11:13:33Z</time>
      </trkpt>
      <trkpt lat="45.9546" lon="4.75297">
        <ele>188</ele>
        <time>2017-12-20T11:13:34Z</time>
      </trkpt>
      <trkpt lat="45.95457" lon="4.75291">
        <ele>188</ele>
        <time>2017-12-20T11:13:35Z</time>
      </trkpt>
      <trkpt lat="45.95454" lon="4.75286">
        <ele>189</ele>
        <time>2017-12-20T11:13:36Z</time>
      </trkpt>
      <trkpt lat="45.95451" lon="4.75281">
        <ele>189</ele>
        <time>2017-12-20T11:13:37Z</time>
      </trkpt>
      <trkpt lat="45.95445" lon="4.75271">
        <ele>189</ele>
        <time>2017-12-20T11:13:39Z</time>
      </trkpt>
      <trkpt lat="45.95442" lon="4.75266">
        <ele>189</ele>
        <time>2017-12-20T11:13:40Z</time>
      </trkpt>
      <trkpt lat="45.95439" lon="4.7526">
        <ele>189</ele>
        <time>2017-12-20T11:13:41Z</time>
      </trkpt>
      <trkpt lat="45.95436" lon="4.75254">
        <ele>189</ele>
        <time>2017-12-20T11:13:42Z</time>
      </trkpt>
      <trkpt lat="45.95432" lon="4.7525">
        <ele>190</ele>
        <time>2017-12-20T11:13:43Z</time>
      </trkpt>
      <trkpt lat="45.95428" lon="4.75245">
        <ele>190</ele>
        <time>2017-12-20T11:13:44Z</time>
      </trkpt>
      <trkpt lat="45.95423" lon="4.75239">
        <ele>190</ele>
        <time>2017-12-20T11:13:45Z</time>
      </trkpt>
      <trkpt lat="45.95421" lon="4.75234">
        <ele>190</ele>
        <time>2017-12-20T11:13:46Z</time>
      </trkpt>
      <trkpt lat="45.95418" lon="4.75227">
        <ele>191</ele>
        <time>2017-12-20T11:13:47Z</time>
      </trkpt>
      <trkpt lat="45.95414" lon="4.75221">
        <ele>189</ele>
        <time>2017-12-20T11:13:48Z</time>
      </trkpt>
      <trkpt lat="45.95412" lon="4.75214">
        <ele>189</ele>
        <time>2017-12-20T11:13:49Z</time>
      </trkpt>
      <trkpt lat="45.95409" lon="4.75207">
        <ele>189</ele>
        <time>2017-12-20T11:13:50Z</time>
      </trkpt>
      <trkpt lat="45.95405" lon="4.75201">
        <ele>189</ele>
        <time>2017-12-20T11:13:51Z</time>
      </trkpt>
      <trkpt lat="45.95404" lon="4.75196">
        <ele>189</ele>
        <time>2017-12-20T11:13:52Z</time>
      </trkpt>
      <trkpt lat="45.954" lon="4.7519">
        <ele>189</ele>
        <time>2017-12-20T11:13:53Z</time>
      </trkpt>
      <trkpt lat="45.95397" lon="4.75184">
        <ele>189</ele>
        <time>2017-12-20T11:13:54Z</time>
      </trkpt>
      <trkpt lat="45.95393" lon="4.75179">
        <ele>189</ele>
        <time>2017-12-20T11:13:55Z</time>
      </trkpt>
      <trkpt lat="45.9539" lon="4.75173">
        <ele>189</ele>
        <time>2017-12-20T11:13:56Z</time>
      </trkpt>
      <trkpt lat="45.95386" lon="4.75167">
        <ele>191</ele>
        <time>2017-12-20T11:13:57Z</time>
      </trkpt>
      <trkpt lat="45.95382" lon="4.75162">
        <ele>191</ele>
        <time>2017-12-20T11:13:58Z</time>
      </trkpt>
      <trkpt lat="45.95379" lon="4.75151">
        <ele>191</ele>
        <time>2017-12-20T11:14:00Z</time>
      </trkpt>
      <trkpt lat="45.95375" lon="4.75145">
        <ele>191</ele>
        <time>2017-12-20T11:14:01Z</time>
      </trkpt>
      <trkpt lat="45.95372" lon="4.75138">
        <ele>191</ele>
        <time>2017-12-20T11:14:02Z</time>
      </trkpt>
      <trkpt lat="45.95369" lon="4.75131">
        <ele>191</ele>
        <time>2017-12-20T11:14:03Z</time>
      </trkpt>
      <trkpt lat="45.95364" lon="4.75125">
        <ele>191</ele>
        <time>2017-12-20T11:14:04Z</time>
      </trkpt>
      <trkpt lat="45.9536" lon="4.75119">
        <ele>192</ele>
        <time>2017-12-20T11:14:05Z</time>
      </trkpt>
      <trkpt lat="45.95358" lon="4.75112">
        <ele>192</ele>
        <time>2017-12-20T11:14:06Z</time>
      </trkpt>
      <trkpt lat="45.95354" lon="4.75108">
        <ele>192</ele>
        <time>2017-12-20T11:14:07Z</time>
      </trkpt>
      <trkpt lat="45.95351" lon="4.75103">
        <ele>192</ele>
        <time>2017-12-20T11:14:08Z</time>
      </trkpt>
      <trkpt lat="45.95347" lon="4.75097">
        <ele>192</ele>
        <time>2017-12-20T11:14:09Z</time>
      </trkpt>
      <trkpt lat="45.95343" lon="4.75092">
        <ele>192</ele>
        <time>2017-12-20T11:14:10Z</time>
      </trkpt>
      <trkpt lat="45.95339" lon="4.75086">
        <ele>193</ele>
        <time>2017-12-20T11:14:11Z</time>
      </trkpt>
      <trkpt lat="45.95335" lon="4.75081">
        <ele>193</ele>
        <time>2017-12-20T11:14:12Z</time>
      </trkpt>
      <trkpt lat="45.95331" lon="4.75076">
        <ele>193</ele>
        <time>2017-12-20T11:14:13Z</time>
      </trkpt>
      <trkpt lat="45.95327" lon="4.75071">
        <ele>192</ele>
        <time>2017-12-20T11:14:14Z</time>
      </trkpt>
      <trkpt lat="45.95325" lon="4.75064">
        <ele>192</ele>
        <time>2017-12-20T11:14:15Z</time>
      </trkpt>
      <trkpt lat="45.95321" lon="4.75059">
        <ele>192</ele>
        <time>2017-12-20T11:14:16Z</time>
      </trkpt>
      <trkpt lat="45.95316" lon="4.75051">
        <ele>192</ele>
        <time>2017-12-20T11:14:17Z</time>
      </trkpt>
      <trkpt lat="45.95313" lon="4.75047">
        <ele>192</ele>
        <time>2017-12-20T11:14:18Z</time>
      </trkpt>
      <trkpt lat="45.95308" lon="4.75041">
        <ele>192</ele>
        <time>2017-12-20T11:14:19Z</time>
      </trkpt>
      <trkpt lat="45.95306" lon="4.75037">
        <ele>192</ele>
        <time>2017-12-20T11:14:20Z</time>
      </trkpt>
      <trkpt lat="45.95303" lon="4.75029">
        <ele>192</ele>
        <time>2017-12-20T11:14:21Z</time>
      </trkpt>
      <trkpt lat="45.95298" lon="4.75023">
        <ele>192</ele>
        <time>2017-12-20T11:14:22Z</time>
      </trkpt>
      <trkpt lat="45.95295" lon="4.75017">
        <ele>192</ele>
        <time>2017-12-20T11:14:23Z</time>
      </trkpt>
      <trkpt lat="45.95291" lon="4.75012">
        <ele>191</ele>
        <time>2017-12-20T11:14:24Z</time>
      </trkpt>
      <trkpt lat="45.95287" lon="4.75007">
        <ele>191</ele>
        <time>2017-12-20T11:14:25Z</time>
      </trkpt>
      <trkpt lat="45.95283" lon="4.75002">
        <ele>191</ele>
        <time>2017-12-20T11:14:26Z</time>
      </trkpt>
      <trkpt lat="45.95279" lon="4.74997">
        <ele>192</ele>
        <time>2017-12-20T11:14:27Z</time>
      </trkpt>
      <trkpt lat="45.95275" lon="4.7499">
        <ele>192</ele>
        <time>2017-12-20T11:14:28Z</time>
      </trkpt>
      <trkpt lat="45.95271" lon="4.74984">
        <ele>192</ele>
        <time>2017-12-20T11:14:29Z</time>
      </trkpt>
      <trkpt lat="45.95267" lon="4.74978">
        <ele>192</ele>
        <time>2017-12-20T11:14:30Z</time>
      </trkpt>
      <trkpt lat="45.95264" lon="4.74972">
        <ele>192</ele>
        <time>2017-12-20T11:14:31Z</time>
      </trkpt>
      <trkpt lat="45.9526" lon="4.74967">
        <ele>192</ele>
        <time>2017-12-20T11:14:32Z</time>
      </trkpt>
      <trkpt lat="45.95256" lon="4.74962">
        <ele>192</ele>
        <time>2017-12-20T11:14:33Z</time>
      </trkpt>
      <trkpt lat="45.95252" lon="4.74956">
        <ele>192</ele>
        <time>2017-12-20T11:14:34Z</time>
      </trkpt>
      <trkpt lat="45.95248" lon="4.74951">
        <ele>192</ele>
        <time>2017-12-20T11:14:35Z</time>
      </trkpt>
      <trkpt lat="45.95245" lon="4.74946">
        <ele>192</ele>
        <time>2017-12-20T11:14:36Z</time>
      </trkpt>
      <trkpt lat="45.95242" lon="4.7494">
        <ele>192</ele>
        <time>2017-12-20T11:14:37Z</time>
      </trkpt>
      <trkpt lat="45.95239" lon="4.74934">
        <ele>192</ele>
        <time>2017-12-20T11:14:38Z</time>
      </trkpt>
      <trkpt lat="45.95235" lon="4.74927">
        <ele>192</ele>
        <time>2017-12-20T11:14:39Z</time>
      </trkpt>
      <trkpt lat="45.95231" lon="4.7492">
        <ele>192</ele>
        <time>2017-12-20T11:14:40Z</time>
      </trkpt>
      <trkpt lat="45.95228" lon="4.74912">
        <ele>193</ele>
        <time>2017-12-20T11:14:41Z</time>
      </trkpt>
      <trkpt lat="45.95223" lon="4.74906">
        <ele>193</ele>
        <time>2017-12-20T11:14:42Z</time>
      </trkpt>
      <trkpt lat="45.9522" lon="4.74901">
        <ele>193</ele>
        <time>2017-12-20T11:14:43Z</time>
      </trkpt>
      <trkpt lat="45.95216" lon="4.74894">
        <ele>193</ele>
        <time>2017-12-20T11:14:44Z</time>
      </trkpt>
      <trkpt lat="45.95212" lon="4.74888">
        <ele>193</ele>
        <time>2017-12-20T11:14:45Z</time>
      </trkpt>
      <trkpt lat="45.95209" lon="4.74883">
        <ele>193</ele>
        <time>2017-12-20T11:14:46Z</time>
      </trkpt>
      <trkpt lat="45.95205" lon="4.74878">
        <ele>194</ele>
        <time>2017-12-20T11:14:47Z</time>
      </trkpt>
      <trkpt lat="45.95202" lon="4.74871">
        <ele>194</ele>
        <time>2017-12-20T11:14:48Z</time>
      </trkpt>
      <trkpt lat="45.95198" lon="4.74865">
        <ele>194</ele>
        <time>2017-12-20T11:14:49Z</time>
      </trkpt>
      <trkpt lat="45.95194" lon="4.74861">
        <ele>194</ele>
        <time>2017-12-20T11:14:50Z</time>
      </trkpt>
      <trkpt lat="45.95191" lon="4.74854">
        <ele>194</ele>
        <time>2017-12-20T11:14:51Z</time>
      </trkpt>
      <trkpt lat="45.95187" lon="4.74847">
        <ele>194</ele>
        <time>2017-12-20T11:14:52Z</time>
      </trkpt>
      <trkpt lat="45.95183" lon="4.74841">
        <ele>194</ele>
        <time>2017-12-20T11:14:53Z</time>
      </trkpt>
      <trkpt lat="45.95179" lon="4.74836">
        <ele>194</ele>
        <time>2017-12-20T11:14:54Z</time>
      </trkpt>
      <trkpt lat="45.95176" lon="4.7483">
        <ele>194</ele>
        <time>2017-12-20T11:14:55Z</time>
      </trkpt>
      <trkpt lat="45.95172" lon="4.7482">
        <ele>194</ele>
        <time>2017-12-20T11:14:57Z</time>
      </trkpt>
      <trkpt lat="45.9517" lon="4.74813">
        <ele>194</ele>
        <time>2017-12-20T11:14:58Z</time>
      </trkpt>
      <trkpt lat="45.95162" lon="4.74805">
        <ele>194</ele>
        <time>2017-12-20T11:14:59Z</time>
      </trkpt>
      <trkpt lat="45.95156" lon="4.748">
        <ele>194</ele>
        <time>2017-12-20T11:15:00Z</time>
      </trkpt>
      <trkpt lat="45.95151" lon="4.74794">
        <ele>194</ele>
        <time>2017-12-20T11:15:01Z</time>
      </trkpt>
      <trkpt lat="45.95148" lon="4.74787">
        <ele>194</ele>
        <time>2017-12-20T11:15:02Z</time>
      </trkpt>
      <trkpt lat="45.95142" lon="4.7478">
        <ele>194</ele>
        <time>2017-12-20T11:15:03Z</time>
      </trkpt>
      <trkpt lat="45.95138" lon="4.74773">
        <ele>194</ele>
        <time>2017-12-20T11:15:04Z</time>
      </trkpt>
      <trkpt lat="45.95132" lon="4.74767">
        <ele>194</ele>
        <time>2017-12-20T11:15:05Z</time>
      </trkpt>
      <trkpt lat="45.95129" lon="4.7476">
        <ele>194</ele>
        <time>2017-12-20T11:15:06Z</time>
      </trkpt>
      <trkpt lat="45.95126" lon="4.74754">
        <ele>194</ele>
        <time>2017-12-20T11:15:07Z</time>
      </trkpt>
      <trkpt lat="45.95121" lon="4.74748">
        <ele>194</ele>
        <time>2017-12-20T11:15:08Z</time>
      </trkpt>
      <trkpt lat="45.95117" lon="4.74741">
        <ele>194</ele>
        <time>2017-12-20T11:15:09Z</time>
      </trkpt>
      <trkpt lat="45.95112" lon="4.74734">
        <ele>194</ele>
        <time>2017-12-20T11:15:10Z</time>
      </trkpt>
      <trkpt lat="45.95108" lon="4.74727">
        <ele>194</ele>
        <time>2017-12-20T11:15:11Z</time>
      </trkpt>
      <trkpt lat="45.95105" lon="4.7472">
        <ele>194</ele>
        <time>2017-12-20T11:15:12Z</time>
      </trkpt>
      <trkpt lat="45.95101" lon="4.74712">
        <ele>194</ele>
        <time>2017-12-20T11:15:13Z</time>
      </trkpt>
      <trkpt lat="45.95097" lon="4.74706">
        <ele>194</ele>
        <time>2017-12-20T11:15:14Z</time>
      </trkpt>
      <trkpt lat="45.95091" lon="4.747">
        <ele>194</ele>
        <time>2017-12-20T11:15:15Z</time>
      </trkpt>
      <trkpt lat="45.95088" lon="4.74695">
        <ele>194</ele>
        <time>2017-12-20T11:15:16Z</time>
      </trkpt>
      <trkpt lat="45.95085" lon="4.74688">
        <ele>195</ele>
        <time>2017-12-20T11:15:17Z</time>
      </trkpt>
      <trkpt lat="45.95082" lon="4.74682">
        <ele>194</ele>
        <time>2017-12-20T11:15:18Z</time>
      </trkpt>
      <trkpt lat="45.95078" lon="4.74676">
        <ele>194</ele>
        <time>2017-12-20T11:15:19Z</time>
      </trkpt>
      <trkpt lat="45.95075" lon="4.74669">
        <ele>195</ele>
        <time>2017-12-20T11:15:20Z</time>
      </trkpt>
      <trkpt lat="45.95072" lon="4.74662">
        <ele>195</ele>
        <time>2017-12-20T11:15:21Z</time>
      </trkpt>
      <trkpt lat="45.95066" lon="4.74653">
        <ele>195</ele>
        <time>2017-12-20T11:15:23Z</time>
      </trkpt>
      <trkpt lat="45.95062" lon="4.74646">
        <ele>194</ele>
        <time>2017-12-20T11:15:24Z</time>
      </trkpt>
      <trkpt lat="45.95058" lon="4.74638">
        <ele>194</ele>
        <time>2017-12-20T11:15:25Z</time>
      </trkpt>
      <trkpt lat="45.95055" lon="4.74632">
        <ele>194</ele>
        <time>2017-12-20T11:15:26Z</time>
      </trkpt>
      <trkpt lat="45.95051" lon="4.74626">
        <ele>194</ele>
        <time>2017-12-20T11:15:27Z</time>
      </trkpt>
      <trkpt lat="45.95047" lon="4.74618">
        <ele>194</ele>
        <time>2017-12-20T11:15:28Z</time>
      </trkpt>
      <trkpt lat="45.95044" lon="4.74612">
        <ele>194</ele>
        <time>2017-12-20T11:15:29Z</time>
      </trkpt>
      <trkpt lat="45.95041" lon="4.74606">
        <ele>194</ele>
        <time>2017-12-20T11:15:30Z</time>
      </trkpt>
      <trkpt lat="45.95037" lon="4.74599">
        <ele>194</ele>
        <time>2017-12-20T11:15:31Z</time>
      </trkpt>
      <trkpt lat="45.95033" lon="4.74593">
        <ele>194</ele>
        <time>2017-12-20T11:15:32Z</time>
      </trkpt>
      <trkpt lat="45.95028" lon="4.74586">
        <ele>194</ele>
        <time>2017-12-20T11:15:33Z</time>
      </trkpt>
      <trkpt lat="45.95025" lon="4.7458">
        <ele>194</ele>
        <time>2017-12-20T11:15:34Z</time>
      </trkpt>
      <trkpt lat="45.95021" lon="4.74572">
        <ele>194</ele>
        <time>2017-12-20T11:15:35Z</time>
      </trkpt>
      <trkpt lat="45.95018" lon="4.74565">
        <ele>194</ele>
        <time>2017-12-20T11:15:36Z</time>
      </trkpt>
      <trkpt lat="45.95013" lon="4.74555">
        <ele>194</ele>
        <time>2017-12-20T11:15:38Z</time>
      </trkpt>
      <trkpt lat="45.9501" lon="4.74549">
        <ele>194</ele>
        <time>2017-12-20T11:15:39Z</time>
      </trkpt>
      <trkpt lat="45.95004" lon="4.74541">
        <ele>194</ele>
        <time>2017-12-20T11:15:40Z</time>
      </trkpt>
      <trkpt lat="45.95002" lon="4.74535">
        <ele>194</ele>
        <time>2017-12-20T11:15:41Z</time>
      </trkpt>
      <trkpt lat="45.94999" lon="4.7453">
        <ele>193</ele>
        <time>2017-12-20T11:15:42Z</time>
      </trkpt>
      <trkpt lat="45.94995" lon="4.74524">
        <ele>193</ele>
        <time>2017-12-20T11:15:43Z</time>
      </trkpt>
      <trkpt lat="45.94993" lon="4.74517">
        <ele>193</ele>
        <time>2017-12-20T11:15:44Z</time>
      </trkpt>
      <trkpt lat="45.9499" lon="4.74512">
        <ele>193</ele>
        <time>2017-12-20T11:15:45Z</time>
      </trkpt>
      <trkpt lat="45.94988" lon="4.74506">
        <ele>193</ele>
        <time>2017-12-20T11:15:46Z</time>
      </trkpt>
      <trkpt lat="45.94986" lon="4.745">
        <ele>193</ele>
        <time>2017-12-20T11:15:47Z</time>
      </trkpt>
      <trkpt lat="45.94985" lon="4.74494">
        <ele>193</ele>
        <time>2017-12-20T11:15:48Z</time>
      </trkpt>
      <trkpt lat="45.9498" lon="4.74487">
        <ele>193</ele>
        <time>2017-12-20T11:15:49Z</time>
      </trkpt>
      <trkpt lat="45.94977" lon="4.7448">
        <ele>193</ele>
        <time>2017-12-20T11:15:50Z</time>
      </trkpt>
      <trkpt lat="45.94973" lon="4.74473">
        <ele>193</ele>
        <time>2017-12-20T11:15:51Z</time>
      </trkpt>
      <trkpt lat="45.94969" lon="4.74466">
        <ele>193</ele>
        <time>2017-12-20T11:15:52Z</time>
      </trkpt>
      <trkpt lat="45.94965" lon="4.74459">
        <ele>193</ele>
        <time>2017-12-20T11:15:53Z</time>
      </trkpt>
      <trkpt lat="45.94961" lon="4.74452">
        <ele>192</ele>
        <time>2017-12-20T11:15:54Z</time>
      </trkpt>
      <trkpt lat="45.94958" lon="4.74444">
        <ele>192</ele>
        <time>2017-12-20T11:15:55Z</time>
      </trkpt>
      <trkpt lat="45.94954" lon="4.74437">
        <ele>192</ele>
        <time>2017-12-20T11:15:56Z</time>
      </trkpt>
      <trkpt lat="45.9495" lon="4.7443">
        <ele>192</ele>
        <time>2017-12-20T11:15:57Z</time>
      </trkpt>
      <trkpt lat="45.94945" lon="4.74423">
        <ele>192</ele>
        <time>2017-12-20T11:15:58Z</time>
      </trkpt>
      <trkpt lat="45.94944" lon="4.74418">
        <ele>192</ele>
        <time>2017-12-20T11:15:59Z</time>
      </trkpt>
      <trkpt lat="45.9494" lon="4.7441">
        <ele>192</ele>
        <time>2017-12-20T11:16:00Z</time>
      </trkpt>
      <trkpt lat="45.94936" lon="4.74402">
        <ele>192</ele>
        <time>2017-12-20T11:16:01Z</time>
      </trkpt>
      <trkpt lat="45.94932" lon="4.74395">
        <ele>192</ele>
        <time>2017-12-20T11:16:02Z</time>
      </trkpt>
      <trkpt lat="45.94927" lon="4.74387">
        <ele>192</ele>
        <time>2017-12-20T11:16:03Z</time>
      </trkpt>
      <trkpt lat="45.94923" lon="4.74379">
        <ele>192</ele>
        <time>2017-12-20T11:16:04Z</time>
      </trkpt>
      <trkpt lat="45.94918" lon="4.74371">
        <ele>192</ele>
        <time>2017-12-20T11:16:05Z</time>
      </trkpt>
      <trkpt lat="45.94915" lon="4.74364">
        <ele>191</ele>
        <time>2017-12-20T11:16:06Z</time>
      </trkpt>
      <trkpt lat="45.94911" lon="4.74357">
        <ele>191</ele>
        <time>2017-12-20T11:16:07Z</time>
      </trkpt>
      <trkpt lat="45.94908" lon="4.7435">
        <ele>191</ele>
        <time>2017-12-20T11:16:08Z</time>
      </trkpt>
      <trkpt lat="45.94904" lon="4.74343">
        <ele>191</ele>
        <time>2017-12-20T11:16:09Z</time>
      </trkpt>
      <trkpt lat="45.949" lon="4.74335">
        <ele>191</ele>
        <time>2017-12-20T11:16:10Z</time>
      </trkpt>
      <trkpt lat="45.94897" lon="4.74328">
        <ele>191</ele>
        <time>2017-12-20T11:16:11Z</time>
      </trkpt>
      <trkpt lat="45.94894" lon="4.74322">
        <ele>191</ele>
        <time>2017-12-20T11:16:12Z</time>
      </trkpt>
      <trkpt lat="45.94891" lon="4.74316">
        <ele>191</ele>
        <time>2017-12-20T11:16:13Z</time>
      </trkpt>
      <trkpt lat="45.9489" lon="4.74311">
        <ele>191</ele>
        <time>2017-12-20T11:16:14Z</time>
      </trkpt>
      <trkpt lat="45.94885" lon="4.74304">
        <ele>191</ele>
        <time>2017-12-20T11:16:15Z</time>
      </trkpt>
      <trkpt lat="45.94881" lon="4.74298">
        <ele>191</ele>
        <time>2017-12-20T11:16:16Z</time>
      </trkpt>
      <trkpt lat="45.94877" lon="4.7429">
        <ele>191</ele>
        <time>2017-12-20T11:16:17Z</time>
      </trkpt>
      <trkpt lat="45.94873" lon="4.74284">
        <ele>191</ele>
        <time>2017-12-20T11:16:18Z</time>
      </trkpt>
      <trkpt lat="45.94869" lon="4.74277">
        <ele>191</ele>
        <time>2017-12-20T11:16:19Z</time>
      </trkpt>
      <trkpt lat="45.94866" lon="4.7427">
        <ele>190</ele>
        <time>2017-12-20T11:16:20Z</time>
      </trkpt>
      <trkpt lat="45.94862" lon="4.74262">
        <ele>190</ele>
        <time>2017-12-20T11:16:21Z</time>
      </trkpt>
      <trkpt lat="45.94859" lon="4.74254">
        <ele>190</ele>
        <time>2017-12-20T11:16:22Z</time>
      </trkpt>
      <trkpt lat="45.94856" lon="4.74246">
        <ele>190</ele>
        <time>2017-12-20T11:16:23Z</time>
      </trkpt>
      <trkpt lat="45.94853" lon="4.74239">
        <ele>190</ele>
        <time>2017-12-20T11:16:24Z</time>
      </trkpt>
      <trkpt lat="45.94849" lon="4.74231">
        <ele>190</ele>
        <time>2017-12-20T11:16:25Z</time>
      </trkpt>
      <trkpt lat="45.94842" lon="4.74222">
        <ele>190</ele>
        <time>2017-12-20T11:16:26Z</time>
      </trkpt>
      <trkpt lat="45.94836" lon="4.74213">
        <ele>190</ele>
        <time>2017-12-20T11:16:27Z</time>
      </trkpt>
      <trkpt lat="45.94833" lon="4.74205">
        <ele>189</ele>
        <time>2017-12-20T11:16:28Z</time>
      </trkpt>
      <trkpt lat="45.9483" lon="4.74199">
        <ele>189</ele>
        <time>2017-12-20T11:16:29Z</time>
      </trkpt>
      <trkpt lat="45.94826" lon="4.74192">
        <ele>189</ele>
        <time>2017-12-20T11:16:30Z</time>
      </trkpt>
      <trkpt lat="45.94823" lon="4.74184">
        <ele>189</ele>
        <time>2017-12-20T11:16:31Z</time>
      </trkpt>
      <trkpt lat="45.94819" lon="4.74178">
        <ele>189</ele>
        <time>2017-12-20T11:16:32Z</time>
      </trkpt>
      <trkpt lat="45.94815" lon="4.74172">
        <ele>189</ele>
        <time>2017-12-20T11:16:33Z</time>
      </trkpt>
      <trkpt lat="45.9481" lon="4.74166">
        <ele>189</ele>
        <time>2017-12-20T11:16:34Z</time>
      </trkpt>
      <trkpt lat="45.94806" lon="4.7416">
        <ele>189</ele>
        <time>2017-12-20T11:16:35Z</time>
      </trkpt>
      <trkpt lat="45.94803" lon="4.74154">
        <ele>189</ele>
        <time>2017-12-20T11:16:36Z</time>
      </trkpt>
      <trkpt lat="45.948" lon="4.74148">
        <ele>189</ele>
        <time>2017-12-20T11:16:37Z</time>
      </trkpt>
      <trkpt lat="45.94797" lon="4.74142">
        <ele>189</ele>
        <time>2017-12-20T11:16:38Z</time>
      </trkpt>
      <trkpt lat="45.94794" lon="4.74137">
        <ele>189</ele>
        <time>2017-12-20T11:16:39Z</time>
      </trkpt>
      <trkpt lat="45.9479" lon="4.74132">
        <ele>189</ele>
        <time>2017-12-20T11:16:40Z</time>
      </trkpt>
      <trkpt lat="45.94787" lon="4.74126">
        <ele>189</ele>
        <time>2017-12-20T11:16:41Z</time>
      </trkpt>
      <trkpt lat="45.94783" lon="4.74121">
        <ele>189</ele>
        <time>2017-12-20T11:16:42Z</time>
      </trkpt>
      <trkpt lat="45.94779" lon="4.74116">
        <ele>189</ele>
        <time>2017-12-20T11:16:43Z</time>
      </trkpt>
      <trkpt lat="45.94775" lon="4.7411">
        <ele>189</ele>
        <time>2017-12-20T11:16:44Z</time>
      </trkpt>
      <trkpt lat="45.9477" lon="4.74103">
        <ele>189</ele>
        <time>2017-12-20T11:16:45Z</time>
      </trkpt>
      <trkpt lat="45.94765" lon="4.74097">
        <ele>189</ele>
        <time>2017-12-20T11:16:46Z</time>
      </trkpt>
      <trkpt lat="45.94763" lon="4.74092">
        <ele>189</ele>
        <time>2017-12-20T11:16:47Z</time>
      </trkpt>
      <trkpt lat="45.94757" lon="4.74084">
        <ele>189</ele>
        <time>2017-12-20T11:16:48Z</time>
      </trkpt>
      <trkpt lat="45.94753" lon="4.74077">
        <ele>189</ele>
        <time>2017-12-20T11:16:49Z</time>
      </trkpt>
      <trkpt lat="45.94748" lon="4.7407">
        <ele>188</ele>
        <time>2017-12-20T11:16:50Z</time>
      </trkpt>
      <trkpt lat="45.94743" lon="4.74064">
        <ele>188</ele>
        <time>2017-12-20T11:16:51Z</time>
      </trkpt>
      <trkpt lat="45.94738" lon="4.7406">
        <ele>188</ele>
        <time>2017-12-20T11:16:52Z</time>
      </trkpt>
      <trkpt lat="45.94732" lon="4.74055">
        <ele>188</ele>
        <time>2017-12-20T11:16:53Z</time>
      </trkpt>
      <trkpt lat="45.94728" lon="4.74049">
        <ele>188</ele>
        <time>2017-12-20T11:16:54Z</time>
      </trkpt>
      <trkpt lat="45.94722" lon="4.74043">
        <ele>187</ele>
        <time>2017-12-20T11:16:55Z</time>
      </trkpt>
      <trkpt lat="45.94719" lon="4.74038">
        <ele>187</ele>
        <time>2017-12-20T11:16:56Z</time>
      </trkpt>
      <trkpt lat="45.94715" lon="4.74032">
        <ele>187</ele>
        <time>2017-12-20T11:16:57Z</time>
      </trkpt>
      <trkpt lat="45.94711" lon="4.74027">
        <ele>187</ele>
        <time>2017-12-20T11:16:58Z</time>
      </trkpt>
      <trkpt lat="45.94708" lon="4.74023">
        <ele>187</ele>
        <time>2017-12-20T11:16:59Z</time>
      </trkpt>
      <trkpt lat="45.94703" lon="4.74016">
        <ele>187</ele>
        <time>2017-12-20T11:17:00Z</time>
      </trkpt>
      <trkpt lat="45.94699" lon="4.74011">
        <ele>187</ele>
        <time>2017-12-20T11:17:01Z</time>
      </trkpt>
      <trkpt lat="45.94696" lon="4.74004">
        <ele>187</ele>
        <time>2017-12-20T11:17:02Z</time>
      </trkpt>
      <trkpt lat="45.94693" lon="4.73999">
        <ele>187</ele>
        <time>2017-12-20T11:17:03Z</time>
      </trkpt>
      <trkpt lat="45.94688" lon="4.73993">
        <ele>187</ele>
        <time>2017-12-20T11:17:04Z</time>
      </trkpt>
      <trkpt lat="45.94683" lon="4.73987">
        <ele>187</ele>
        <time>2017-12-20T11:17:05Z</time>
      </trkpt>
      <trkpt lat="45.94678" lon="4.73981">
        <ele>187</ele>
        <time>2017-12-20T11:17:06Z</time>
      </trkpt>
      <trkpt lat="45.94675" lon="4.73975">
        <ele>187</ele>
        <time>2017-12-20T11:17:07Z</time>
      </trkpt>
      <trkpt lat="45.9467" lon="4.73968">
        <ele>187</ele>
        <time>2017-12-20T11:17:08Z</time>
      </trkpt>
      <trkpt lat="45.94666" lon="4.73962">
        <ele>187</ele>
        <time>2017-12-20T11:17:09Z</time>
      </trkpt>
      <trkpt lat="45.94661" lon="4.73957">
        <ele>187</ele>
        <time>2017-12-20T11:17:10Z</time>
      </trkpt>
      <trkpt lat="45.94656" lon="4.73951">
        <ele>187</ele>
        <time>2017-12-20T11:17:11Z</time>
      </trkpt>
      <trkpt lat="45.94652" lon="4.73944">
        <ele>187</ele>
        <time>2017-12-20T11:17:12Z</time>
      </trkpt>
      <trkpt lat="45.94647" lon="4.73939">
        <ele>187</ele>
        <time>2017-12-20T11:17:13Z</time>
      </trkpt>
      <trkpt lat="45.94643" lon="4.73933">
        <ele>187</ele>
        <time>2017-12-20T11:17:14Z</time>
      </trkpt>
      <trkpt lat="45.94638" lon="4.73928">
        <ele>187</ele>
        <time>2017-12-20T11:17:15Z</time>
      </trkpt>
      <trkpt lat="45.94635" lon="4.73923">
        <ele>187</ele>
        <time>2017-12-20T11:17:16Z</time>
      </trkpt>
      <trkpt lat="45.9463" lon="4.73918">
        <ele>187</ele>
        <time>2017-12-20T11:17:17Z</time>
      </trkpt>
      <trkpt lat="45.94627" lon="4.73914">
        <ele>187</ele>
        <time>2017-12-20T11:17:18Z</time>
      </trkpt>
      <trkpt lat="45.94624" lon="4.7391">
        <ele>187</ele>
        <time>2017-12-20T11:17:19Z</time>
      </trkpt>
      <trkpt lat="45.94619" lon="4.73904">
        <ele>187</ele>
        <time>2017-12-20T11:17:20Z</time>
      </trkpt>
      <trkpt lat="45.94616" lon="4.73899">
        <ele>187</ele>
        <time>2017-12-20T11:17:21Z</time>
      </trkpt>
      <trkpt lat="45.94611" lon="4.73894">
        <ele>187</ele>
        <time>2017-12-20T11:17:22Z</time>
      </trkpt>
      <trkpt lat="45.94606" lon="4.73888">
        <ele>187</ele>
        <time>2017-12-20T11:17:23Z</time>
      </trkpt>
      <trkpt lat="45.94601" lon="4.73883">
        <ele>187</ele>
        <time>2017-12-20T11:17:24Z</time>
      </trkpt>
      <trkpt lat="45.94597" lon="4.73877">
        <ele>187</ele>
        <time>2017-12-20T11:17:25Z</time>
      </trkpt>
      <trkpt lat="45.94592" lon="4.73872">
        <ele>187</ele>
        <time>2017-12-20T11:17:26Z</time>
      </trkpt>
      <trkpt lat="45.94588" lon="4.73868">
        <ele>187</ele>
        <time>2017-12-20T11:17:27Z</time>
      </trkpt>
      <trkpt lat="45.94583" lon="4.73862">
        <ele>186</ele>
        <time>2017-12-20T11:17:28Z</time>
      </trkpt>
      <trkpt lat="45.94577" lon="4.73853">
        <ele>186</ele>
        <time>2017-12-20T11:17:30Z</time>
      </trkpt>
      <trkpt lat="45.94573" lon="4.73848">
        <ele>186</ele>
        <time>2017-12-20T11:17:31Z</time>
      </trkpt>
      <trkpt lat="45.94569" lon="4.73843">
        <ele>186</ele>
        <time>2017-12-20T11:17:32Z</time>
      </trkpt>
      <trkpt lat="45.94565" lon="4.73839">
        <ele>186</ele>
        <time>2017-12-20T11:17:33Z</time>
      </trkpt>
      <trkpt lat="45.94558" lon="4.73833">
        <ele>186</ele>
        <time>2017-12-20T11:17:34Z</time>
      </trkpt>
      <trkpt lat="45.94554" lon="4.73829">
        <ele>186</ele>
        <time>2017-12-20T11:17:35Z</time>
      </trkpt>
      <trkpt lat="45.9455" lon="4.73825">
        <ele>186</ele>
        <time>2017-12-20T11:17:36Z</time>
      </trkpt>
      <trkpt lat="45.94545" lon="4.7382">
        <ele>186</ele>
        <time>2017-12-20T11:17:37Z</time>
      </trkpt>
      <trkpt lat="45.94542" lon="4.73816">
        <ele>186</ele>
        <time>2017-12-20T11:17:38Z</time>
      </trkpt>
      <trkpt lat="45.94537" lon="4.73811">
        <ele>186</ele>
        <time>2017-12-20T11:17:39Z</time>
      </trkpt>
      <trkpt lat="45.94532" lon="4.73807">
        <ele>186</ele>
        <time>2017-12-20T11:17:40Z</time>
      </trkpt>
      <trkpt lat="45.94528" lon="4.73803">
        <ele>186</ele>
        <time>2017-12-20T11:17:41Z</time>
      </trkpt>
      <trkpt lat="45.94525" lon="4.73798">
        <ele>186</ele>
        <time>2017-12-20T11:17:42Z</time>
      </trkpt>
      <trkpt lat="45.94521" lon="4.73794">
        <ele>186</ele>
        <time>2017-12-20T11:17:43Z</time>
      </trkpt>
      <trkpt lat="45.94514" lon="4.73789">
        <ele>186</ele>
        <time>2017-12-20T11:17:45Z</time>
      </trkpt>
      <trkpt lat="45.9451" lon="4.73785">
        <ele>186</ele>
        <time>2017-12-20T11:17:46Z</time>
      </trkpt>
      <trkpt lat="45.94506" lon="4.73781">
        <ele>186</ele>
        <time>2017-12-20T11:17:47Z</time>
      </trkpt>
      <trkpt lat="45.94503" lon="4.73776">
        <ele>186</ele>
        <time>2017-12-20T11:17:48Z</time>
      </trkpt>
      <trkpt lat="45.94497" lon="4.73767">
        <ele>186</ele>
        <time>2017-12-20T11:17:50Z</time>
      </trkpt>
      <trkpt lat="45.94493" lon="4.73761">
        <ele>186</ele>
        <time>2017-12-20T11:17:51Z</time>
      </trkpt>
      <trkpt lat="45.94491" lon="4.73749">
        <ele>186</ele>
        <time>2017-12-20T11:17:53Z</time>
      </trkpt>
      <trkpt lat="45.94492" lon="4.73743">
        <ele>186</ele>
        <time>2017-12-20T11:17:54Z</time>
      </trkpt>
      <trkpt lat="45.94493" lon="4.73736">
        <ele>186</ele>
        <time>2017-12-20T11:17:55Z</time>
      </trkpt>
      <trkpt lat="45.94494" lon="4.73728">
        <ele>186</ele>
        <time>2017-12-20T11:17:56Z</time>
      </trkpt>
      <trkpt lat="45.94496" lon="4.7372">
        <ele>186</ele>
        <time>2017-12-20T11:17:57Z</time>
      </trkpt>
      <trkpt lat="45.94498" lon="4.73713">
        <ele>186</ele>
        <time>2017-12-20T11:17:58Z</time>
      </trkpt>
      <trkpt lat="45.94499" lon="4.73704">
        <ele>186</ele>
        <time>2017-12-20T11:17:59Z</time>
      </trkpt>
      <trkpt lat="45.94499" lon="4.73693">
        <ele>186</ele>
        <time>2017-12-20T11:18:00Z</time>
      </trkpt>
      <trkpt lat="45.94501" lon="4.73685">
        <ele>185</ele>
        <time>2017-12-20T11:18:01Z</time>
      </trkpt>
      <trkpt lat="45.945" lon="4.73675">
        <ele>185</ele>
        <time>2017-12-20T11:18:02Z</time>
      </trkpt>
      <trkpt lat="45.94501" lon="4.73665">
        <ele>185</ele>
        <time>2017-12-20T11:18:03Z</time>
      </trkpt>
      <trkpt lat="45.94502" lon="4.73657">
        <ele>185</ele>
        <time>2017-12-20T11:18:04Z</time>
      </trkpt>
      <trkpt lat="45.94504" lon="4.73649">
        <ele>184</ele>
        <time>2017-12-20T11:18:05Z</time>
      </trkpt>
      <trkpt lat="45.94504" lon="4.73641">
        <ele>184</ele>
        <time>2017-12-20T11:18:06Z</time>
      </trkpt>
      <trkpt lat="45.94505" lon="4.73634">
        <ele>184</ele>
        <time>2017-12-20T11:18:07Z</time>
      </trkpt>
      <trkpt lat="45.94505" lon="4.73628">
        <ele>184</ele>
        <time>2017-12-20T11:18:08Z</time>
      </trkpt>
      <trkpt lat="45.94506" lon="4.7362">
        <ele>184</ele>
        <time>2017-12-20T11:18:09Z</time>
      </trkpt>
      <trkpt lat="45.94506" lon="4.73612">
        <ele>184</ele>
        <time>2017-12-20T11:18:10Z</time>
      </trkpt>
      <trkpt lat="45.94507" lon="4.73603">
        <ele>184</ele>
        <time>2017-12-20T11:18:11Z</time>
      </trkpt>
      <trkpt lat="45.94507" lon="4.73595">
        <ele>184</ele>
        <time>2017-12-20T11:18:12Z</time>
      </trkpt>
      <trkpt lat="45.94509" lon="4.73586">
        <ele>185</ele>
        <time>2017-12-20T11:18:13Z</time>
      </trkpt>
      <trkpt lat="45.94509" lon="4.73576">
        <ele>184</ele>
        <time>2017-12-20T11:18:14Z</time>
      </trkpt>
      <trkpt lat="45.94508" lon="4.73566">
        <ele>184</ele>
        <time>2017-12-20T11:18:15Z</time>
      </trkpt>
      <trkpt lat="45.94509" lon="4.73555">
        <ele>183</ele>
        <time>2017-12-20T11:18:16Z</time>
      </trkpt>
      <trkpt lat="45.9451" lon="4.73546">
        <ele>183</ele>
        <time>2017-12-20T11:18:17Z</time>
      </trkpt>
      <trkpt lat="45.9451" lon="4.73535">
        <ele>183</ele>
        <time>2017-12-20T11:18:18Z</time>
      </trkpt>
      <trkpt lat="45.9451" lon="4.73525">
        <ele>183</ele>
        <time>2017-12-20T11:18:19Z</time>
      </trkpt>
      <trkpt lat="45.9451" lon="4.73515">
        <ele>183</ele>
        <time>2017-12-20T11:18:20Z</time>
      </trkpt>
      <trkpt lat="45.9451" lon="4.73505">
        <ele>183</ele>
        <time>2017-12-20T11:18:21Z</time>
      </trkpt>
      <trkpt lat="45.94512" lon="4.73493">
        <ele>182</ele>
        <time>2017-12-20T11:18:22Z</time>
      </trkpt>
      <trkpt lat="45.94511" lon="4.73483">
        <ele>182</ele>
        <time>2017-12-20T11:18:23Z</time>
      </trkpt>
      <trkpt lat="45.94511" lon="4.73472">
        <ele>182</ele>
        <time>2017-12-20T11:18:24Z</time>
      </trkpt>
      <trkpt lat="45.9451" lon="4.73461">
        <ele>181</ele>
        <time>2017-12-20T11:18:25Z</time>
      </trkpt>
      <trkpt lat="45.9451" lon="4.7345">
        <ele>181</ele>
        <time>2017-12-20T11:18:26Z</time>
      </trkpt>
      <trkpt lat="45.94509" lon="4.73439">
        <ele>181</ele>
        <time>2017-12-20T11:18:27Z</time>
      </trkpt>
      <trkpt lat="45.94508" lon="4.73429">
        <ele>180</ele>
        <time>2017-12-20T11:18:28Z</time>
      </trkpt>
      <trkpt lat="45.94506" lon="4.73419">
        <ele>180</ele>
        <time>2017-12-20T11:18:29Z</time>
      </trkpt>
      <trkpt lat="45.94506" lon="4.73409">
        <ele>179</ele>
        <time>2017-12-20T11:18:30Z</time>
      </trkpt>
      <trkpt lat="45.94506" lon="4.73396">
        <ele>179</ele>
        <time>2017-12-20T11:18:31Z</time>
      </trkpt>
      <trkpt lat="45.94505" lon="4.73386">
        <ele>179</ele>
        <time>2017-12-20T11:18:32Z</time>
      </trkpt>
      <trkpt lat="45.94504" lon="4.73375">
        <ele>178</ele>
        <time>2017-12-20T11:18:33Z</time>
      </trkpt>
      <trkpt lat="45.94503" lon="4.73365">
        <ele>178</ele>
        <time>2017-12-20T11:18:34Z</time>
      </trkpt>
      <trkpt lat="45.94502" lon="4.73355">
        <ele>178</ele>
        <time>2017-12-20T11:18:35Z</time>
      </trkpt>
      <trkpt lat="45.945" lon="4.73344">
        <ele>177</ele>
        <time>2017-12-20T11:18:36Z</time>
      </trkpt>
      <trkpt lat="45.94499" lon="4.73334">
        <ele>177</ele>
        <time>2017-12-20T11:18:37Z</time>
      </trkpt>
      <trkpt lat="45.94497" lon="4.73325">
        <ele>177</ele>
        <time>2017-12-20T11:18:38Z</time>
      </trkpt>
      <trkpt lat="45.94496" lon="4.73314">
        <ele>177</ele>
        <time>2017-12-20T11:18:39Z</time>
      </trkpt>
      <trkpt lat="45.94495" lon="4.73303">
        <ele>177</ele>
        <time>2017-12-20T11:18:40Z</time>
      </trkpt>
      <trkpt lat="45.94493" lon="4.73293">
        <ele>177</ele>
        <time>2017-12-20T11:18:41Z</time>
      </trkpt>
      <trkpt lat="45.94491" lon="4.73282">
        <ele>177</ele>
        <time>2017-12-20T11:18:42Z</time>
      </trkpt>
      <trkpt lat="45.9449" lon="4.73272">
        <ele>177</ele>
        <time>2017-12-20T11:18:43Z</time>
      </trkpt>
      <trkpt lat="45.94489" lon="4.73262">
        <ele>176</ele>
        <time>2017-12-20T11:18:44Z</time>
      </trkpt>
      <trkpt lat="45.94489" lon="4.73254">
        <ele>176</ele>
        <time>2017-12-20T11:18:45Z</time>
      </trkpt>
      <trkpt lat="45.94487" lon="4.73247">
        <ele>175</ele>
        <time>2017-12-20T11:18:46Z</time>
      </trkpt>
      <trkpt lat="45.94485" lon="4.73237">
        <ele>175</ele>
        <time>2017-12-20T11:18:47Z</time>
      </trkpt>
      <trkpt lat="45.94486" lon="4.73225">
        <ele>175</ele>
        <time>2017-12-20T11:18:48Z</time>
      </trkpt>
      <trkpt lat="45.94486" lon="4.73214">
        <ele>175</ele>
        <time>2017-12-20T11:18:49Z</time>
      </trkpt>
      <trkpt lat="45.94487" lon="4.73203">
        <ele>175</ele>
        <time>2017-12-20T11:18:50Z</time>
      </trkpt>
      <trkpt lat="45.94485" lon="4.73193">
        <ele>174</ele>
        <time>2017-12-20T11:18:51Z</time>
      </trkpt>
      <trkpt lat="45.94483" lon="4.73183">
        <ele>174</ele>
        <time>2017-12-20T11:18:52Z</time>
      </trkpt>
      <trkpt lat="45.94481" lon="4.73173">
        <ele>174</ele>
        <time>2017-12-20T11:18:53Z</time>
      </trkpt>
      <trkpt lat="45.9448" lon="4.73163">
        <ele>173</ele>
        <time>2017-12-20T11:18:54Z</time>
      </trkpt>
      <trkpt lat="45.94479" lon="4.73154">
        <ele>173</ele>
        <time>2017-12-20T11:18:55Z</time>
      </trkpt>
      <trkpt lat="45.94477" lon="4.73144">
        <ele>172</ele>
        <time>2017-12-20T11:18:56Z</time>
      </trkpt>
      <trkpt lat="45.94477" lon="4.73134">
        <ele>172</ele>
        <time>2017-12-20T11:18:57Z</time>
      </trkpt>
      <trkpt lat="45.94476" lon="4.73124">
        <ele>172</ele>
        <time>2017-12-20T11:18:58Z</time>
      </trkpt>
      <trkpt lat="45.94474" lon="4.73115">
        <ele>172</ele>
        <time>2017-12-20T11:18:59Z</time>
      </trkpt>
      <trkpt lat="45.94473" lon="4.73105">
        <ele>172</ele>
        <time>2017-12-20T11:19:00Z</time>
      </trkpt>
      <trkpt lat="45.94471" lon="4.73095">
        <ele>172</ele>
        <time>2017-12-20T11:19:01Z</time>
      </trkpt>
      <trkpt lat="45.94469" lon="4.73085">
        <ele>172</ele>
        <time>2017-12-20T11:19:02Z</time>
      </trkpt>
      <trkpt lat="45.94469" lon="4.73075">
        <ele>170</ele>
        <time>2017-12-20T11:19:03Z</time>
      </trkpt>
      <trkpt lat="45.94468" lon="4.73065">
        <ele>170</ele>
        <time>2017-12-20T11:19:04Z</time>
      </trkpt>
      <trkpt lat="45.94466" lon="4.73056">
        <ele>170</ele>
        <time>2017-12-20T11:19:05Z</time>
      </trkpt>
      <trkpt lat="45.94465" lon="4.73047">
        <ele>170</ele>
        <time>2017-12-20T11:19:06Z</time>
      </trkpt>
      <trkpt lat="45.94463" lon="4.73037">
        <ele>170</ele>
        <time>2017-12-20T11:19:07Z</time>
      </trkpt>
      <trkpt lat="45.94462" lon="4.73028">
        <ele>169</ele>
        <time>2017-12-20T11:19:08Z</time>
      </trkpt>
      <trkpt lat="45.94461" lon="4.7302">
        <ele>169</ele>
        <time>2017-12-20T11:19:09Z</time>
      </trkpt>
      <trkpt lat="45.94459" lon="4.73011">
        <ele>169</ele>
        <time>2017-12-20T11:19:10Z</time>
      </trkpt>
      <trkpt lat="45.94458" lon="4.73003">
        <ele>169</ele>
        <time>2017-12-20T11:19:11Z</time>
      </trkpt>
      <trkpt lat="45.94457" lon="4.72996">
        <ele>168</ele>
        <time>2017-12-20T11:19:12Z</time>
      </trkpt>
      <trkpt lat="45.94455" lon="4.72989">
        <ele>168</ele>
        <time>2017-12-20T11:19:13Z</time>
      </trkpt>
      <trkpt lat="45.94454" lon="4.72982">
        <ele>167</ele>
        <time>2017-12-20T11:19:14Z</time>
      </trkpt>
      <trkpt lat="45.94454" lon="4.72973">
        <ele>167</ele>
        <time>2017-12-20T11:19:15Z</time>
      </trkpt>
      <trkpt lat="45.94453" lon="4.72966">
        <ele>167</ele>
        <time>2017-12-20T11:19:16Z</time>
      </trkpt>
      <trkpt lat="45.94452" lon="4.72959">
        <ele>167</ele>
        <time>2017-12-20T11:19:17Z</time>
      </trkpt>
      <trkpt lat="45.94451" lon="4.72953">
        <ele>167</ele>
        <time>2017-12-20T11:19:18Z</time>
      </trkpt>
      <trkpt lat="45.9445" lon="4.72947">
        <ele>167</ele>
        <time>2017-12-20T11:19:19Z</time>
      </trkpt>
      <trkpt lat="45.9445" lon="4.72939">
        <ele>167</ele>
        <time>2017-12-20T11:19:20Z</time>
      </trkpt>
      <trkpt lat="45.94448" lon="4.72927">
        <ele>167</ele>
        <time>2017-12-20T11:19:22Z</time>
      </trkpt>
      <trkpt lat="45.94447" lon="4.72921">
        <ele>167</ele>
        <time>2017-12-20T11:19:23Z</time>
      </trkpt>
      <trkpt lat="45.94446" lon="4.72915">
        <ele>166</ele>
        <time>2017-12-20T11:19:24Z</time>
      </trkpt>
      <trkpt lat="45.94445" lon="4.72908">
        <ele>166</ele>
        <time>2017-12-20T11:19:25Z</time>
      </trkpt>
      <trkpt lat="45.94444" lon="4.72901">
        <ele>166</ele>
        <time>2017-12-20T11:19:26Z</time>
      </trkpt>
      <trkpt lat="45.94442" lon="4.72894">
        <ele>166</ele>
        <time>2017-12-20T11:19:27Z</time>
      </trkpt>
      <trkpt lat="45.94441" lon="4.72887">
        <ele>166</ele>
        <time>2017-12-20T11:19:28Z</time>
      </trkpt>
      <trkpt lat="45.9444" lon="4.72881">
        <ele>166</ele>
        <time>2017-12-20T11:19:29Z</time>
      </trkpt>
      <trkpt lat="45.94439" lon="4.72875">
        <ele>166</ele>
        <time>2017-12-20T11:19:30Z</time>
      </trkpt>
      <trkpt lat="45.94438" lon="4.72867">
        <ele>166</ele>
        <time>2017-12-20T11:19:31Z</time>
      </trkpt>
      <trkpt lat="45.94437" lon="4.72855">
        <ele>166</ele>
        <time>2017-12-20T11:19:33Z</time>
      </trkpt>
      <trkpt lat="45.94436" lon="4.72847">
        <ele>166</ele>
        <time>2017-12-20T11:19:34Z</time>
      </trkpt>
      <trkpt lat="45.94435" lon="4.72841">
        <ele>166</ele>
        <time>2017-12-20T11:19:35Z</time>
      </trkpt>
      <trkpt lat="45.94433" lon="4.72833">
        <ele>167</ele>
        <time>2017-12-20T11:19:36Z</time>
      </trkpt>
      <trkpt lat="45.94432" lon="4.72825">
        <ele>167</ele>
        <time>2017-12-20T11:19:37Z</time>
      </trkpt>
      <trkpt lat="45.94431" lon="4.72816">
        <ele>167</ele>
        <time>2017-12-20T11:19:38Z</time>
      </trkpt>
      <trkpt lat="45.9443" lon="4.72807">
        <ele>167</ele>
        <time>2017-12-20T11:19:39Z</time>
      </trkpt>
      <trkpt lat="45.94428" lon="4.72797">
        <ele>167</ele>
        <time>2017-12-20T11:19:40Z</time>
      </trkpt>
      <trkpt lat="45.94427" lon="4.72788">
        <ele>168</ele>
        <time>2017-12-20T11:19:41Z</time>
      </trkpt>
      <trkpt lat="45.94426" lon="4.72777">
        <ele>168</ele>
        <time>2017-12-20T11:19:42Z</time>
      </trkpt>
      <trkpt lat="45.94425" lon="4.72768">
        <ele>169</ele>
        <time>2017-12-20T11:19:43Z</time>
      </trkpt>
      <trkpt lat="45.94423" lon="4.72758">
        <ele>170</ele>
        <time>2017-12-20T11:19:44Z</time>
      </trkpt>
      <trkpt lat="45.94422" lon="4.72748">
        <ele>171</ele>
        <time>2017-12-20T11:19:45Z</time>
      </trkpt>
      <trkpt lat="45.94421" lon="4.72738">
        <ele>171</ele>
        <time>2017-12-20T11:19:46Z</time>
      </trkpt>
      <trkpt lat="45.94421" lon="4.7273">
        <ele>171</ele>
        <time>2017-12-20T11:19:47Z</time>
      </trkpt>
      <trkpt lat="45.94419" lon="4.72721">
        <ele>171</ele>
        <time>2017-12-20T11:19:48Z</time>
      </trkpt>
      <trkpt lat="45.94419" lon="4.72711">
        <ele>172</ele>
        <time>2017-12-20T11:19:49Z</time>
      </trkpt>
      <trkpt lat="45.94418" lon="4.72702">
        <ele>172</ele>
        <time>2017-12-20T11:19:50Z</time>
      </trkpt>
      <trkpt lat="45.94416" lon="4.72693">
        <ele>173</ele>
        <time>2017-12-20T11:19:51Z</time>
      </trkpt>
      <trkpt lat="45.94415" lon="4.72685">
        <ele>173</ele>
        <time>2017-12-20T11:19:52Z</time>
      </trkpt>
      <trkpt lat="45.94414" lon="4.72676">
        <ele>173</ele>
        <time>2017-12-20T11:19:53Z</time>
      </trkpt>
      <trkpt lat="45.94413" lon="4.72668">
        <ele>174</ele>
        <time>2017-12-20T11:19:54Z</time>
      </trkpt>
      <trkpt lat="45.94412" lon="4.7266">
        <ele>174</ele>
        <time>2017-12-20T11:19:55Z</time>
      </trkpt>
      <trkpt lat="45.94411" lon="4.72652">
        <ele>174</ele>
        <time>2017-12-20T11:19:56Z</time>
      </trkpt>
      <trkpt lat="45.9441" lon="4.72643">
        <ele>174</ele>
        <time>2017-12-20T11:19:57Z</time>
      </trkpt>
      <trkpt lat="45.94409" lon="4.72634">
        <ele>174</ele>
        <time>2017-12-20T11:19:58Z</time>
      </trkpt>
      <trkpt lat="45.94409" lon="4.72624">
        <ele>173</ele>
        <time>2017-12-20T11:19:59Z</time>
      </trkpt>
      <trkpt lat="45.94408" lon="4.72616">
        <ele>173</ele>
        <time>2017-12-20T11:20:00Z</time>
      </trkpt>
      <trkpt lat="45.94406" lon="4.7261">
        <ele>173</ele>
        <time>2017-12-20T11:20:01Z</time>
      </trkpt>
      <trkpt lat="45.94405" lon="4.72604">
        <ele>173</ele>
        <time>2017-12-20T11:20:02Z</time>
      </trkpt>
      <trkpt lat="45.94405" lon="4.72596">
        <ele>173</ele>
        <time>2017-12-20T11:20:03Z</time>
      </trkpt>
      <trkpt lat="45.94403" lon="4.72588">
        <ele>173</ele>
        <time>2017-12-20T11:20:04Z</time>
      </trkpt>
      <trkpt lat="45.94401" lon="4.7258">
        <ele>173</ele>
        <time>2017-12-20T11:20:05Z</time>
      </trkpt>
      <trkpt lat="45.944" lon="4.72572">
        <ele>173</ele>
        <time>2017-12-20T11:20:06Z</time>
      </trkpt>
      <trkpt lat="45.94399" lon="4.72564">
        <ele>173</ele>
        <time>2017-12-20T11:20:07Z</time>
      </trkpt>
      <trkpt lat="45.94397" lon="4.72555">
        <ele>173</ele>
        <time>2017-12-20T11:20:08Z</time>
      </trkpt>
      <trkpt lat="45.94397" lon="4.72548">
        <ele>173</ele>
        <time>2017-12-20T11:20:09Z</time>
      </trkpt>
      <trkpt lat="45.94395" lon="4.7254">
        <ele>174</ele>
        <time>2017-12-20T11:20:10Z</time>
      </trkpt>
      <trkpt lat="45.94393" lon="4.72531">
        <ele>174</ele>
        <time>2017-12-20T11:20:11Z</time>
      </trkpt>
      <trkpt lat="45.94389" lon="4.72523">
        <ele>174</ele>
        <time>2017-12-20T11:20:12Z</time>
      </trkpt>
      <trkpt lat="45.94386" lon="4.72515">
        <ele>174</ele>
        <time>2017-12-20T11:20:13Z</time>
      </trkpt>
      <trkpt lat="45.94385" lon="4.72502">
        <ele>174</ele>
        <time>2017-12-20T11:20:14Z</time>
      </trkpt>
      <trkpt lat="45.94381" lon="4.72495">
        <ele>173</ele>
        <time>2017-12-20T11:20:15Z</time>
      </trkpt>
      <trkpt lat="45.94378" lon="4.72488">
        <ele>173</ele>
        <time>2017-12-20T11:20:16Z</time>
      </trkpt>
      <trkpt lat="45.94375" lon="4.72481">
        <ele>173</ele>
        <time>2017-12-20T11:20:17Z</time>
      </trkpt>
      <trkpt lat="45.94372" lon="4.72475">
        <ele>173</ele>
        <time>2017-12-20T11:20:18Z</time>
      </trkpt>
      <trkpt lat="45.94371" lon="4.72467">
        <ele>173</ele>
        <time>2017-12-20T11:20:19Z</time>
      </trkpt>
      <trkpt lat="45.94368" lon="4.7246">
        <ele>173</ele>
        <time>2017-12-20T11:20:20Z</time>
      </trkpt>
      <trkpt lat="45.94364" lon="4.72454">
        <ele>173</ele>
        <time>2017-12-20T11:20:21Z</time>
      </trkpt>
      <trkpt lat="45.94363" lon="4.72447">
        <ele>173</ele>
        <time>2017-12-20T11:20:22Z</time>
      </trkpt>
      <trkpt lat="45.94358" lon="4.72437">
        <ele>173</ele>
        <time>2017-12-20T11:20:24Z</time>
      </trkpt>
      <trkpt lat="45.94355" lon="4.72432">
        <ele>173</ele>
        <time>2017-12-20T11:20:25Z</time>
      </trkpt>
      <trkpt lat="45.94352" lon="4.72427">
        <ele>173</ele>
        <time>2017-12-20T11:20:26Z</time>
      </trkpt>
      <trkpt lat="45.94351" lon="4.72419">
        <ele>173</ele>
        <time>2017-12-20T11:20:27Z</time>
      </trkpt>
      <trkpt lat="45.94348" lon="4.72414">
        <ele>173</ele>
        <time>2017-12-20T11:20:28Z</time>
      </trkpt>
      <trkpt lat="45.94344" lon="4.72409">
        <ele>173</ele>
        <time>2017-12-20T11:20:29Z</time>
      </trkpt>
      <trkpt lat="45.94342" lon="4.72403">
        <ele>173</ele>
        <time>2017-12-20T11:20:30Z</time>
      </trkpt>
      <trkpt lat="45.94339" lon="4.72397">
        <ele>172</ele>
        <time>2017-12-20T11:20:31Z</time>
      </trkpt>
      <trkpt lat="45.94335" lon="4.72389">
        <ele>172</ele>
        <time>2017-12-20T11:20:32Z</time>
      </trkpt>
      <trkpt lat="45.94332" lon="4.72382">
        <ele>172</ele>
        <time>2017-12-20T11:20:33Z</time>
      </trkpt>
      <trkpt lat="45.94329" lon="4.72375">
        <ele>172</ele>
        <time>2017-12-20T11:20:34Z</time>
      </trkpt>
      <trkpt lat="45.94325" lon="4.72368">
        <ele>172</ele>
        <time>2017-12-20T11:20:35Z</time>
      </trkpt>
      <trkpt lat="45.94324" lon="4.72359">
        <ele>172</ele>
        <time>2017-12-20T11:20:36Z</time>
      </trkpt>
      <trkpt lat="45.9432" lon="4.72352">
        <ele>172</ele>
        <time>2017-12-20T11:20:37Z</time>
      </trkpt>
      <trkpt lat="45.94315" lon="4.72343">
        <ele>172</ele>
        <time>2017-12-20T11:20:38Z</time>
      </trkpt>
      <trkpt lat="45.94312" lon="4.72335">
        <ele>172</ele>
        <time>2017-12-20T11:20:39Z</time>
      </trkpt>
      <trkpt lat="45.94308" lon="4.72328">
        <ele>171</ele>
        <time>2017-12-20T11:20:40Z</time>
      </trkpt>
      <trkpt lat="45.94305" lon="4.7232">
        <ele>171</ele>
        <time>2017-12-20T11:20:41Z</time>
      </trkpt>
      <trkpt lat="45.94301" lon="4.72313">
        <ele>171</ele>
        <time>2017-12-20T11:20:42Z</time>
      </trkpt>
      <trkpt lat="45.94299" lon="4.72306">
        <ele>171</ele>
        <time>2017-12-20T11:20:43Z</time>
      </trkpt>
      <trkpt lat="45.94295" lon="4.723">
        <ele>171</ele>
        <time>2017-12-20T11:20:44Z</time>
      </trkpt>
      <trkpt lat="45.94291" lon="4.72293">
        <ele>171</ele>
        <time>2017-12-20T11:20:45Z</time>
      </trkpt>
      <trkpt lat="45.94289" lon="4.72285">
        <ele>171</ele>
        <time>2017-12-20T11:20:46Z</time>
      </trkpt>
      <trkpt lat="45.94285" lon="4.72281">
        <ele>171</ele>
        <time>2017-12-20T11:20:47Z</time>
      </trkpt>
      <trkpt lat="45.94278" lon="4.72276">
        <ele>171</ele>
        <time>2017-12-20T11:20:49Z</time>
      </trkpt>
      <trkpt lat="45.94275" lon="4.72274">
        <ele>171</ele>
        <time>2017-12-20T11:20:50Z</time>
      </trkpt>
      <trkpt lat="45.94267" lon="4.72275">
        <ele>171</ele>
        <time>2017-12-20T11:20:51Z</time>
      </trkpt>
      <trkpt lat="45.9426" lon="4.72276">
        <ele>171</ele>
        <time>2017-12-20T11:20:52Z</time>
      </trkpt>
      <trkpt lat="45.94254" lon="4.72278">
        <ele>171</ele>
        <time>2017-12-20T11:20:53Z</time>
      </trkpt>
      <trkpt lat="45.94248" lon="4.72281">
        <ele>171</ele>
        <time>2017-12-20T11:20:54Z</time>
      </trkpt>
      <trkpt lat="45.94241" lon="4.72283">
        <ele>171</ele>
        <time>2017-12-20T11:20:55Z</time>
      </trkpt>
      <trkpt lat="45.94235" lon="4.72286">
        <ele>171</ele>
        <time>2017-12-20T11:20:56Z</time>
      </trkpt>
      <trkpt lat="45.94229" lon="4.72287">
        <ele>171</ele>
        <time>2017-12-20T11:20:57Z</time>
      </trkpt>
      <trkpt lat="45.94223" lon="4.72288">
        <ele>171</ele>
        <time>2017-12-20T11:20:58Z</time>
      </trkpt>
      <trkpt lat="45.94216" lon="4.72291">
        <ele>171</ele>
        <time>2017-12-20T11:20:59Z</time>
      </trkpt>
      <trkpt lat="45.94211" lon="4.72292">
        <ele>171</ele>
        <time>2017-12-20T11:21:00Z</time>
      </trkpt>
      <trkpt lat="45.94206" lon="4.72293">
        <ele>171</ele>
        <time>2017-12-20T11:21:01Z</time>
      </trkpt>
      <trkpt lat="45.94201" lon="4.72292">
        <ele>171</ele>
        <time>2017-12-20T11:21:02Z</time>
      </trkpt>
      <trkpt lat="45.94195" lon="4.72291">
        <ele>171</ele>
        <time>2017-12-20T11:21:03Z</time>
      </trkpt>
      <trkpt lat="45.9419" lon="4.7229">
        <ele>171</ele>
        <time>2017-12-20T11:21:04Z</time>
      </trkpt>
      <trkpt lat="45.94185" lon="4.7229">
        <ele>171</ele>
        <time>2017-12-20T11:21:05Z</time>
      </trkpt>
      <trkpt lat="45.94179" lon="4.72289">
        <ele>171</ele>
        <time>2017-12-20T11:21:06Z</time>
      </trkpt>
      <trkpt lat="45.94174" lon="4.72289">
        <ele>171</ele>
        <time>2017-12-20T11:21:07Z</time>
      </trkpt>
      <trkpt lat="45.94169" lon="4.72287">
        <ele>171</ele>
        <time>2017-12-20T11:21:08Z</time>
      </trkpt>
      <trkpt lat="45.94164" lon="4.72286">
        <ele>171</ele>
        <time>2017-12-20T11:21:09Z</time>
      </trkpt>
      <trkpt lat="45.94158" lon="4.72284">
        <ele>171</ele>
        <time>2017-12-20T11:21:10Z</time>
      </trkpt>
      <trkpt lat="45.94153" lon="4.72282">
        <ele>171</ele>
        <time>2017-12-20T11:21:11Z</time>
      </trkpt>
      <trkpt lat="45.94149" lon="4.7228">
        <ele>171</ele>
        <time>2017-12-20T11:21:12Z</time>
      </trkpt>
      <trkpt lat="45.94144" lon="4.72278">
        <ele>171</ele>
        <time>2017-12-20T11:21:13Z</time>
      </trkpt>
      <trkpt lat="45.94138" lon="4.72275">
        <ele>171</ele>
        <time>2017-12-20T11:21:14Z</time>
      </trkpt>
      <trkpt lat="45.94134" lon="4.72271">
        <ele>171</ele>
        <time>2017-12-20T11:21:15Z</time>
      </trkpt>
      <trkpt lat="45.94129" lon="4.72267">
        <ele>171</ele>
        <time>2017-12-20T11:21:16Z</time>
      </trkpt>
      <trkpt lat="45.94122" lon="4.72263">
        <ele>171</ele>
        <time>2017-12-20T11:21:17Z</time>
      </trkpt>
      <trkpt lat="45.94117" lon="4.72261">
        <ele>171</ele>
        <time>2017-12-20T11:21:18Z</time>
      </trkpt>
      <trkpt lat="45.94109" lon="4.7226">
        <ele>171</ele>
        <time>2017-12-20T11:21:19Z</time>
      </trkpt>
      <trkpt lat="45.94102" lon="4.7226">
        <ele>171</ele>
        <time>2017-12-20T11:21:20Z</time>
      </trkpt>
      <trkpt lat="45.94096" lon="4.72261">
        <ele>171</ele>
        <time>2017-12-20T11:21:21Z</time>
      </trkpt>
      <trkpt lat="45.94089" lon="4.72263">
        <ele>171</ele>
        <time>2017-12-20T11:21:22Z</time>
      </trkpt>
      <trkpt lat="45.94083" lon="4.72266">
        <ele>171</ele>
        <time>2017-12-20T11:21:23Z</time>
      </trkpt>
      <trkpt lat="45.94077" lon="4.7227">
        <ele>171</ele>
        <time>2017-12-20T11:21:24Z</time>
      </trkpt>
      <trkpt lat="45.94071" lon="4.72276">
        <ele>171</ele>
        <time>2017-12-20T11:21:25Z</time>
      </trkpt>
      <trkpt lat="45.94065" lon="4.72283">
        <ele>171</ele>
        <time>2017-12-20T11:21:26Z</time>
      </trkpt>
      <trkpt lat="45.94059" lon="4.72288">
        <ele>171</ele>
        <time>2017-12-20T11:21:27Z</time>
      </trkpt>
      <trkpt lat="45.94054" lon="4.72296">
        <ele>171</ele>
        <time>2017-12-20T11:21:28Z</time>
      </trkpt>
      <trkpt lat="45.94049" lon="4.72301">
        <ele>171</ele>
        <time>2017-12-20T11:21:29Z</time>
      </trkpt>
      <trkpt lat="45.94044" lon="4.72307">
        <ele>171</ele>
        <time>2017-12-20T11:21:30Z</time>
      </trkpt>
      <trkpt lat="45.9404" lon="4.72314">
        <ele>171</ele>
        <time>2017-12-20T11:21:31Z</time>
      </trkpt>
      <trkpt lat="45.94035" lon="4.7232">
        <ele>171</ele>
        <time>2017-12-20T11:21:32Z</time>
      </trkpt>
      <trkpt lat="45.9403" lon="4.72325">
        <ele>171</ele>
        <time>2017-12-20T11:21:33Z</time>
      </trkpt>
      <trkpt lat="45.94025" lon="4.72331">
        <ele>171</ele>
        <time>2017-12-20T11:21:34Z</time>
      </trkpt>
      <trkpt lat="45.94021" lon="4.72337">
        <ele>171</ele>
        <time>2017-12-20T11:21:35Z</time>
      </trkpt>
      <trkpt lat="45.94016" lon="4.72343">
        <ele>171</ele>
        <time>2017-12-20T11:21:36Z</time>
      </trkpt>
      <trkpt lat="45.94011" lon="4.7235">
        <ele>171</ele>
        <time>2017-12-20T11:21:37Z</time>
      </trkpt>
      <trkpt lat="45.94006" lon="4.72353">
        <ele>171</ele>
        <time>2017-12-20T11:21:38Z</time>
      </trkpt>
      <trkpt lat="45.94001" lon="4.72358">
        <ele>171</ele>
        <time>2017-12-20T11:21:39Z</time>
      </trkpt>
      <trkpt lat="45.93996" lon="4.72365">
        <ele>171</ele>
        <time>2017-12-20T11:21:40Z</time>
      </trkpt>
      <trkpt lat="45.9399" lon="4.72371">
        <ele>171</ele>
        <time>2017-12-20T11:21:41Z</time>
      </trkpt>
      <trkpt lat="45.93985" lon="4.72378">
        <ele>171</ele>
        <time>2017-12-20T11:21:42Z</time>
      </trkpt>
      <trkpt lat="45.9398" lon="4.72384">
        <ele>171</ele>
        <time>2017-12-20T11:21:43Z</time>
      </trkpt>
      <trkpt lat="45.93975" lon="4.72391">
        <ele>171</ele>
        <time>2017-12-20T11:21:44Z</time>
      </trkpt>
      <trkpt lat="45.9397" lon="4.72397">
        <ele>171</ele>
        <time>2017-12-20T11:21:45Z</time>
      </trkpt>
      <trkpt lat="45.93965" lon="4.72402">
        <ele>171</ele>
        <time>2017-12-20T11:21:46Z</time>
      </trkpt>
      <trkpt lat="45.9396" lon="4.72409">
        <ele>171</ele>
        <time>2017-12-20T11:21:47Z</time>
      </trkpt>
      <trkpt lat="45.93955" lon="4.72415">
        <ele>171</ele>
        <time>2017-12-20T11:21:48Z</time>
      </trkpt>
      <trkpt lat="45.93951" lon="4.7242">
        <ele>171</ele>
        <time>2017-12-20T11:21:49Z</time>
      </trkpt>
      <trkpt lat="45.93946" lon="4.72427">
        <ele>171</ele>
        <time>2017-12-20T11:21:50Z</time>
      </trkpt>
      <trkpt lat="45.93942" lon="4.72433">
        <ele>171</ele>
        <time>2017-12-20T11:21:51Z</time>
      </trkpt>
      <trkpt lat="45.93937" lon="4.72437">
        <ele>171</ele>
        <time>2017-12-20T11:21:52Z</time>
      </trkpt>
      <trkpt lat="45.93933" lon="4.72442">
        <ele>171</ele>
        <time>2017-12-20T11:21:53Z</time>
      </trkpt>
      <trkpt lat="45.93929" lon="4.72446">
        <ele>171</ele>
        <time>2017-12-20T11:21:54Z</time>
      </trkpt>
      <trkpt lat="45.93925" lon="4.72452">
        <ele>171</ele>
        <time>2017-12-20T11:21:55Z</time>
      </trkpt>
      <trkpt lat="45.93921" lon="4.72457">
        <ele>171</ele>
        <time>2017-12-20T11:21:56Z</time>
      </trkpt>
      <trkpt lat="45.93916" lon="4.72463">
        <ele>172</ele>
        <time>2017-12-20T11:21:57Z</time>
      </trkpt>
      <trkpt lat="45.93912" lon="4.72468">
        <ele>172</ele>
        <time>2017-12-20T11:21:58Z</time>
      </trkpt>
      <trkpt lat="45.93908" lon="4.72473">
        <ele>172</ele>
        <time>2017-12-20T11:21:59Z</time>
      </trkpt>
      <trkpt lat="45.93904" lon="4.72478">
        <ele>172</ele>
        <time>2017-12-20T11:22:00Z</time>
      </trkpt>
      <trkpt lat="45.939" lon="4.72482">
        <ele>172</ele>
        <time>2017-12-20T11:22:01Z</time>
      </trkpt>
      <trkpt lat="45.93895" lon="4.72487">
        <ele>172</ele>
        <time>2017-12-20T11:22:02Z</time>
      </trkpt>
      <trkpt lat="45.93891" lon="4.72491">
        <ele>172</ele>
        <time>2017-12-20T11:22:03Z</time>
      </trkpt>
      <trkpt lat="45.93887" lon="4.72496">
        <ele>172</ele>
        <time>2017-12-20T11:22:04Z</time>
      </trkpt>
      <trkpt lat="45.93883" lon="4.72501">
        <ele>173</ele>
        <time>2017-12-20T11:22:05Z</time>
      </trkpt>
      <trkpt lat="45.93879" lon="4.72505">
        <ele>173</ele>
        <time>2017-12-20T11:22:06Z</time>
      </trkpt>
      <trkpt lat="45.93872" lon="4.72509">
        <ele>173</ele>
        <time>2017-12-20T11:22:08Z</time>
      </trkpt>
      <trkpt lat="45.93867" lon="4.7251">
        <ele>173</ele>
        <time>2017-12-20T11:22:09Z</time>
      </trkpt>
      <trkpt lat="45.93859" lon="4.72505">
        <ele>173</ele>
        <time>2017-12-20T11:22:11Z</time>
      </trkpt>
      <trkpt lat="45.93857" lon="4.72508">
        <ele>173</ele>
        <time>2017-12-20T11:22:12Z</time>
      </trkpt>
      <trkpt lat="45.9385" lon="4.72507">
        <ele>174</ele>
        <time>2017-12-20T11:22:14Z</time>
      </trkpt>
      <trkpt lat="45.93848" lon="4.72505">
        <ele>174</ele>
        <time>2017-12-20T11:22:15Z</time>
      </trkpt>
      <trkpt lat="45.93843" lon="4.72498">
        <ele>173</ele>
        <time>2017-12-20T11:22:16Z</time>
      </trkpt>
      <trkpt lat="45.93841" lon="4.72494">
        <ele>173</ele>
        <time>2017-12-20T11:22:17Z</time>
      </trkpt>
      <trkpt lat="45.93833" lon="4.72475">
        <ele>173</ele>
        <time>2017-12-20T11:22:18Z</time>
      </trkpt>
      <trkpt lat="45.93826" lon="4.72476">
        <ele>173</ele>
        <time>2017-12-20T11:22:19Z</time>
      </trkpt>
      <trkpt lat="45.93821" lon="4.7247">
        <ele>172</ele>
        <time>2017-12-20T11:22:20Z</time>
      </trkpt>
      <trkpt lat="45.93817" lon="4.72466">
        <ele>172</ele>
        <time>2017-12-20T11:22:21Z</time>
      </trkpt>
      <trkpt lat="45.93814" lon="4.72463">
        <ele>172</ele>
        <time>2017-12-20T11:22:22Z</time>
      </trkpt>
      <trkpt lat="45.93807" lon="4.72454">
        <ele>172</ele>
        <time>2017-12-20T11:22:24Z</time>
      </trkpt>
      <trkpt lat="45.93803" lon="4.72451">
        <ele>172</ele>
        <time>2017-12-20T11:22:25Z</time>
      </trkpt>
      <trkpt lat="45.93796" lon="4.72444">
        <ele>172</ele>
        <time>2017-12-20T11:22:27Z</time>
      </trkpt>
      <trkpt lat="45.93791" lon="4.7244">
        <ele>172</ele>
        <time>2017-12-20T11:22:28Z</time>
      </trkpt>
      <trkpt lat="45.93787" lon="4.72437">
        <ele>172</ele>
        <time>2017-12-20T11:22:29Z</time>
      </trkpt>
      <trkpt lat="45.93784" lon="4.72433">
        <ele>172</ele>
        <time>2017-12-20T11:22:30Z</time>
      </trkpt>
      <trkpt lat="45.93779" lon="4.72428">
        <ele>172</ele>
        <time>2017-12-20T11:22:31Z</time>
      </trkpt>
      <trkpt lat="45.93776" lon="4.72424">
        <ele>171</ele>
        <time>2017-12-20T11:22:32Z</time>
      </trkpt>
      <trkpt lat="45.93769" lon="4.72419">
        <ele>171</ele>
        <time>2017-12-20T11:22:33Z</time>
      </trkpt>
      <trkpt lat="45.93765" lon="4.72415">
        <ele>171</ele>
        <time>2017-12-20T11:22:34Z</time>
      </trkpt>
      <trkpt lat="45.9376" lon="4.7241">
        <ele>171</ele>
        <time>2017-12-20T11:22:35Z</time>
      </trkpt>
      <trkpt lat="45.93755" lon="4.72406">
        <ele>171</ele>
        <time>2017-12-20T11:22:36Z</time>
      </trkpt>
      <trkpt lat="45.93751" lon="4.72401">
        <ele>171</ele>
        <time>2017-12-20T11:22:37Z</time>
      </trkpt>
      <trkpt lat="45.93748" lon="4.72398">
        <ele>171</ele>
        <time>2017-12-20T11:22:38Z</time>
      </trkpt>
      <trkpt lat="45.93743" lon="4.72395">
        <ele>171</ele>
        <time>2017-12-20T11:22:39Z</time>
      </trkpt>
      <trkpt lat="45.93739" lon="4.72391">
        <ele>171</ele>
        <time>2017-12-20T11:22:40Z</time>
      </trkpt>
      <trkpt lat="45.93734" lon="4.72388">
        <ele>171</ele>
        <time>2017-12-20T11:22:41Z</time>
      </trkpt>
      <trkpt lat="45.93727" lon="4.72382">
        <ele>171</ele>
        <time>2017-12-20T11:22:42Z</time>
      </trkpt>
      <trkpt lat="45.93724" lon="4.72377">
        <ele>171</ele>
        <time>2017-12-20T11:22:43Z</time>
      </trkpt>
      <trkpt lat="45.9372" lon="4.72372">
        <ele>172</ele>
        <time>2017-12-20T11:22:44Z</time>
      </trkpt>
      <trkpt lat="45.93714" lon="4.72366">
        <ele>172</ele>
        <time>2017-12-20T11:22:46Z</time>
      </trkpt>
      <trkpt lat="45.93708" lon="4.7236">
        <ele>171</ele>
        <time>2017-12-20T11:22:47Z</time>
      </trkpt>
      <trkpt lat="45.93703" lon="4.72356">
        <ele>171</ele>
        <time>2017-12-20T11:22:48Z</time>
      </trkpt>
      <trkpt lat="45.937" lon="4.72352">
        <ele>171</ele>
        <time>2017-12-20T11:22:49Z</time>
      </trkpt>
      <trkpt lat="45.93698" lon="4.72349">
        <ele>171</ele>
        <time>2017-12-20T11:22:50Z</time>
      </trkpt>
      <trkpt lat="45.93693" lon="4.72344">
        <ele>171</ele>
        <time>2017-12-20T11:22:51Z</time>
      </trkpt>
      <trkpt lat="45.93686" lon="4.72337">
        <ele>171</ele>
        <time>2017-12-20T11:22:54Z</time>
      </trkpt>
      <trkpt lat="45.93682" lon="4.72334">
        <ele>171</ele>
        <time>2017-12-20T11:22:55Z</time>
      </trkpt>
      <trkpt lat="45.93679" lon="4.7233">
        <ele>171</ele>
        <time>2017-12-20T11:22:56Z</time>
      </trkpt>
      <trkpt lat="45.93676" lon="4.72325">
        <ele>171</ele>
        <time>2017-12-20T11:22:57Z</time>
      </trkpt>
      <trkpt lat="45.93668" lon="4.7232">
        <ele>171</ele>
        <time>2017-12-20T11:22:59Z</time>
      </trkpt>
      <trkpt lat="45.93665" lon="4.72316">
        <ele>172</ele>
        <time>2017-12-20T11:23:00Z</time>
      </trkpt>
      <trkpt lat="45.93658" lon="4.72308">
        <ele>172</ele>
        <time>2017-12-20T11:23:02Z</time>
      </trkpt>
      <trkpt lat="45.93653" lon="4.72305">
        <ele>172</ele>
        <time>2017-12-20T11:23:03Z</time>
      </trkpt>
      <trkpt lat="45.93648" lon="4.72301">
        <ele>172</ele>
        <time>2017-12-20T11:23:04Z</time>
      </trkpt>
      <trkpt lat="45.93643" lon="4.72297">
        <ele>172</ele>
        <time>2017-12-20T11:23:05Z</time>
      </trkpt>
      <trkpt lat="45.93639" lon="4.72292">
        <ele>172</ele>
        <time>2017-12-20T11:23:06Z</time>
      </trkpt>
      <trkpt lat="45.93636" lon="4.72288">
        <ele>172</ele>
        <time>2017-12-20T11:23:07Z</time>
      </trkpt>
      <trkpt lat="45.93632" lon="4.72285">
        <ele>172</ele>
        <time>2017-12-20T11:23:08Z</time>
      </trkpt>
      <trkpt lat="45.93627" lon="4.7228">
        <ele>172</ele>
        <time>2017-12-20T11:23:09Z</time>
      </trkpt>
      <trkpt lat="45.93622" lon="4.72276">
        <ele>172</ele>
        <time>2017-12-20T11:23:10Z</time>
      </trkpt>
      <trkpt lat="45.93618" lon="4.72272">
        <ele>172</ele>
        <time>2017-12-20T11:23:11Z</time>
      </trkpt>
      <trkpt lat="45.93611" lon="4.72265">
        <ele>172</ele>
        <time>2017-12-20T11:23:13Z</time>
      </trkpt>
      <trkpt lat="45.93607" lon="4.72262">
        <ele>173</ele>
        <time>2017-12-20T11:23:14Z</time>
      </trkpt>
      <trkpt lat="45.936" lon="4.72257">
        <ele>173</ele>
        <time>2017-12-20T11:23:16Z</time>
      </trkpt>
      <trkpt lat="45.93598" lon="4.72254">
        <ele>173</ele>
        <time>2017-12-20T11:23:17Z</time>
      </trkpt>
      <trkpt lat="45.93594" lon="4.72249">
        <ele>173</ele>
        <time>2017-12-20T11:23:18Z</time>
      </trkpt>
      <trkpt lat="45.93591" lon="4.72245">
        <ele>173</ele>
        <time>2017-12-20T11:23:19Z</time>
      </trkpt>
      <trkpt lat="45.93585" lon="4.72239">
        <ele>173</ele>
        <time>2017-12-20T11:23:21Z</time>
      </trkpt>
      <trkpt lat="45.93582" lon="4.72238">
        <ele>173</ele>
        <time>2017-12-20T11:23:22Z</time>
      </trkpt>
      <trkpt lat="45.93582" lon="4.72227">
        <ele>173</ele>
        <time>2017-12-20T11:23:26Z</time>
      </trkpt>
      <trkpt lat="45.9358" lon="4.72225">
        <ele>173</ele>
        <time>2017-12-20T11:23:27Z</time>
      </trkpt>
      <trkpt lat="45.93572" lon="4.72221">
        <ele>173</ele>
        <time>2017-12-20T11:23:30Z</time>
      </trkpt>
      <trkpt lat="45.9357" lon="4.7222">
        <ele>173</ele>
        <time>2017-12-20T11:23:31Z</time>
      </trkpt>
      <trkpt lat="45.93564" lon="4.72216">
        <ele>173</ele>
        <time>2017-12-20T11:23:34Z</time>
      </trkpt>
      <trkpt lat="45.9356" lon="4.72218">
        <ele>173</ele>
        <time>2017-12-20T11:23:35Z</time>
      </trkpt>
      <trkpt lat="45.93553" lon="4.72226">
        <ele>173</ele>
        <time>2017-12-20T11:23:37Z</time>
      </trkpt>
      <trkpt lat="45.9355" lon="4.7223">
        <ele>172</ele>
        <time>2017-12-20T11:23:38Z</time>
      </trkpt>
      <trkpt lat="45.93545" lon="4.72239">
        <ele>172</ele>
        <time>2017-12-20T11:23:40Z</time>
      </trkpt>
      <trkpt lat="45.93543" lon="4.72245">
        <ele>172</ele>
        <time>2017-12-20T11:23:41Z</time>
      </trkpt>
      <trkpt lat="45.93539" lon="4.72253">
        <ele>172</ele>
        <time>2017-12-20T11:23:42Z</time>
      </trkpt>
      <trkpt lat="45.93536" lon="4.72259">
        <ele>172</ele>
        <time>2017-12-20T11:23:43Z</time>
      </trkpt>
      <trkpt lat="45.93533" lon="4.72266">
        <ele>172</ele>
        <time>2017-12-20T11:23:44Z</time>
      </trkpt>
      <trkpt lat="45.93531" lon="4.72272">
        <ele>172</ele>
        <time>2017-12-20T11:23:45Z</time>
      </trkpt>
      <trkpt lat="45.93528" lon="4.72278">
        <ele>172</ele>
        <time>2017-12-20T11:23:46Z</time>
      </trkpt>
      <trkpt lat="45.93526" lon="4.72284">
        <ele>172</ele>
        <time>2017-12-20T11:23:47Z</time>
      </trkpt>
      <trkpt lat="45.93523" lon="4.7229">
        <ele>172</ele>
        <time>2017-12-20T11:23:48Z</time>
      </trkpt>
      <trkpt lat="45.93519" lon="4.72296">
        <ele>172</ele>
        <time>2017-12-20T11:23:49Z</time>
      </trkpt>
      <trkpt lat="45.93515" lon="4.72301">
        <ele>172</ele>
        <time>2017-12-20T11:23:50Z</time>
      </trkpt>
      <trkpt lat="45.93511" lon="4.72307">
        <ele>173</ele>
        <time>2017-12-20T11:23:51Z</time>
      </trkpt>
      <trkpt lat="45.93508" lon="4.72312">
        <ele>173</ele>
        <time>2017-12-20T11:23:52Z</time>
      </trkpt>
      <trkpt lat="45.93505" lon="4.72318">
        <ele>173</ele>
        <time>2017-12-20T11:23:53Z</time>
      </trkpt>
      <trkpt lat="45.93497" lon="4.72323">
        <ele>173</ele>
        <time>2017-12-20T11:23:54Z</time>
      </trkpt>
      <trkpt lat="45.93493" lon="4.72328">
        <ele>173</ele>
        <time>2017-12-20T11:23:55Z</time>
      </trkpt>
      <trkpt lat="45.93489" lon="4.72335">
        <ele>173</ele>
        <time>2017-12-20T11:23:56Z</time>
      </trkpt>
      <trkpt lat="45.93485" lon="4.72341">
        <ele>173</ele>
        <time>2017-12-20T11:23:57Z</time>
      </trkpt>
      <trkpt lat="45.93482" lon="4.72347">
        <ele>173</ele>
        <time>2017-12-20T11:23:58Z</time>
      </trkpt>
      <trkpt lat="45.93477" lon="4.72354">
        <ele>173</ele>
        <time>2017-12-20T11:23:59Z</time>
      </trkpt>
      <trkpt lat="45.93471" lon="4.72358">
        <ele>173</ele>
        <time>2017-12-20T11:24:00Z</time>
      </trkpt>
      <trkpt lat="45.93467" lon="4.72363">
        <ele>173</ele>
        <time>2017-12-20T11:24:01Z</time>
      </trkpt>
      <trkpt lat="45.93462" lon="4.72369">
        <ele>173</ele>
        <time>2017-12-20T11:24:02Z</time>
      </trkpt>
      <trkpt lat="45.93458" lon="4.72375">
        <ele>173</ele>
        <time>2017-12-20T11:24:03Z</time>
      </trkpt>
      <trkpt lat="45.93453" lon="4.7238">
        <ele>173</ele>
        <time>2017-12-20T11:24:04Z</time>
      </trkpt>
      <trkpt lat="45.93448" lon="4.72383">
        <ele>173</ele>
        <time>2017-12-20T11:24:05Z</time>
      </trkpt>
      <trkpt lat="45.93444" lon="4.72386">
        <ele>173</ele>
        <time>2017-12-20T11:24:06Z</time>
      </trkpt>
      <trkpt lat="45.9344" lon="4.72389">
        <ele>173</ele>
        <time>2017-12-20T11:24:07Z</time>
      </trkpt>
      <trkpt lat="45.93436" lon="4.72393">
        <ele>173</ele>
        <time>2017-12-20T11:24:08Z</time>
      </trkpt>
      <trkpt lat="45.93432" lon="4.72396">
        <ele>173</ele>
        <time>2017-12-20T11:24:09Z</time>
      </trkpt>
      <trkpt lat="45.93423" lon="4.724">
        <ele>174</ele>
        <time>2017-12-20T11:24:12Z</time>
      </trkpt>
      <trkpt lat="45.93421" lon="4.724">
        <ele>174</ele>
        <time>2017-12-20T11:24:13Z</time>
      </trkpt>
      <trkpt lat="45.93413" lon="4.724">
        <ele>174</ele>
        <time>2017-12-20T11:24:15Z</time>
      </trkpt>
      <trkpt lat="45.93409" lon="4.72401">
        <ele>174</ele>
        <time>2017-12-20T11:24:16Z</time>
      </trkpt>
      <trkpt lat="45.93401" lon="4.724">
        <ele>174</ele>
        <time>2017-12-20T11:24:19Z</time>
      </trkpt>
      <trkpt lat="45.93395" lon="4.72405">
        <ele>174</ele>
        <time>2017-12-20T11:24:20Z</time>
      </trkpt>
      <trkpt lat="45.9339" lon="4.7241">
        <ele>174</ele>
        <time>2017-12-20T11:24:21Z</time>
      </trkpt>
      <trkpt lat="45.93385" lon="4.72416">
        <ele>174</ele>
        <time>2017-12-20T11:24:22Z</time>
      </trkpt>
      <trkpt lat="45.93384" lon="4.72425">
        <ele>173</ele>
        <time>2017-12-20T11:24:23Z</time>
      </trkpt>
      <trkpt lat="45.93384" lon="4.72432">
        <ele>173</ele>
        <time>2017-12-20T11:24:24Z</time>
      </trkpt>
      <trkpt lat="45.93385" lon="4.72435">
        <ele>173</ele>
        <time>2017-12-20T11:24:25Z</time>
      </trkpt>
      <trkpt lat="45.93387" lon="4.72444">
        <ele>173</ele>
        <time>2017-12-20T11:24:26Z</time>
      </trkpt>
      <trkpt lat="45.93387" lon="4.72453">
        <ele>173</ele>
        <time>2017-12-20T11:24:27Z</time>
      </trkpt>
      <trkpt lat="45.93386" lon="4.7246">
        <ele>173</ele>
        <time>2017-12-20T11:24:28Z</time>
      </trkpt>
      <trkpt lat="45.93383" lon="4.72466">
        <ele>173</ele>
        <time>2017-12-20T11:24:29Z</time>
      </trkpt>
      <trkpt lat="45.93379" lon="4.7247">
        <ele>173</ele>
        <time>2017-12-20T11:24:30Z</time>
      </trkpt>
      <trkpt lat="45.93377" lon="4.72477">
        <ele>173</ele>
        <time>2017-12-20T11:24:31Z</time>
      </trkpt>
      <trkpt lat="45.93373" lon="4.72481">
        <ele>173</ele>
        <time>2017-12-20T11:24:32Z</time>
      </trkpt>
      <trkpt lat="45.93369" lon="4.72486">
        <ele>173</ele>
        <time>2017-12-20T11:24:33Z</time>
      </trkpt>
      <trkpt lat="45.93366" lon="4.72492">
        <ele>173</ele>
        <time>2017-12-20T11:24:34Z</time>
      </trkpt>
      <trkpt lat="45.93362" lon="4.72497">
        <ele>173</ele>
        <time>2017-12-20T11:24:35Z</time>
      </trkpt>
      <trkpt lat="45.93356" lon="4.72499">
        <ele>173</ele>
        <time>2017-12-20T11:24:36Z</time>
      </trkpt>
      <trkpt lat="45.93352" lon="4.72505">
        <ele>172</ele>
        <time>2017-12-20T11:24:37Z</time>
      </trkpt>
      <trkpt lat="45.93348" lon="4.72512">
        <ele>172</ele>
        <time>2017-12-20T11:24:38Z</time>
      </trkpt>
      <trkpt lat="45.93343" lon="4.72517">
        <ele>172</ele>
        <time>2017-12-20T11:24:39Z</time>
      </trkpt>
      <trkpt lat="45.93338" lon="4.72524">
        <ele>172</ele>
        <time>2017-12-20T11:24:40Z</time>
      </trkpt>
      <trkpt lat="45.93332" lon="4.7253">
        <ele>172</ele>
        <time>2017-12-20T11:24:41Z</time>
      </trkpt>
      <trkpt lat="45.93327" lon="4.72535">
        <ele>172</ele>
        <time>2017-12-20T11:24:42Z</time>
      </trkpt>
      <trkpt lat="45.93322" lon="4.7254">
        <ele>172</ele>
        <time>2017-12-20T11:24:43Z</time>
      </trkpt>
      <trkpt lat="45.93318" lon="4.72547">
        <ele>172</ele>
        <time>2017-12-20T11:24:44Z</time>
      </trkpt>
      <trkpt lat="45.93313" lon="4.72552">
        <ele>172</ele>
        <time>2017-12-20T11:24:45Z</time>
      </trkpt>
      <trkpt lat="45.93309" lon="4.72557">
        <ele>172</ele>
        <time>2017-12-20T11:24:46Z</time>
      </trkpt>
      <trkpt lat="45.93305" lon="4.72562">
        <ele>172</ele>
        <time>2017-12-20T11:24:47Z</time>
      </trkpt>
      <trkpt lat="45.93301" lon="4.72567">
        <ele>171</ele>
        <time>2017-12-20T11:24:48Z</time>
      </trkpt>
      <trkpt lat="45.93298" lon="4.72571">
        <ele>171</ele>
        <time>2017-12-20T11:24:49Z</time>
      </trkpt>
      <trkpt lat="45.93294" lon="4.72576">
        <ele>171</ele>
        <time>2017-12-20T11:24:50Z</time>
      </trkpt>
      <trkpt lat="45.9329" lon="4.7258">
        <ele>171</ele>
        <time>2017-12-20T11:24:51Z</time>
      </trkpt>
      <trkpt lat="45.93285" lon="4.72585">
        <ele>170</ele>
        <time>2017-12-20T11:24:52Z</time>
      </trkpt>
      <trkpt lat="45.9328" lon="4.7259">
        <ele>170</ele>
        <time>2017-12-20T11:24:53Z</time>
      </trkpt>
      <trkpt lat="45.93276" lon="4.72595">
        <ele>170</ele>
        <time>2017-12-20T11:24:54Z</time>
      </trkpt>
      <trkpt lat="45.93272" lon="4.726">
        <ele>170</ele>
        <time>2017-12-20T11:24:55Z</time>
      </trkpt>
      <trkpt lat="45.93268" lon="4.72606">
        <ele>170</ele>
        <time>2017-12-20T11:24:56Z</time>
      </trkpt>
      <trkpt lat="45.93263" lon="4.72611">
        <ele>170</ele>
        <time>2017-12-20T11:24:57Z</time>
      </trkpt>
      <trkpt lat="45.93258" lon="4.72617">
        <ele>170</ele>
        <time>2017-12-20T11:24:58Z</time>
      </trkpt>
      <trkpt lat="45.93254" lon="4.72623">
        <ele>170</ele>
        <time>2017-12-20T11:24:59Z</time>
      </trkpt>
      <trkpt lat="45.9325" lon="4.72627">
        <ele>170</ele>
        <time>2017-12-20T11:25:00Z</time>
      </trkpt>
      <trkpt lat="45.93244" lon="4.72632">
        <ele>170</ele>
        <time>2017-12-20T11:25:01Z</time>
      </trkpt>
      <trkpt lat="45.9324" lon="4.72638">
        <ele>170</ele>
        <time>2017-12-20T11:25:02Z</time>
      </trkpt>
      <trkpt lat="45.93237" lon="4.72642">
        <ele>170</ele>
        <time>2017-12-20T11:25:03Z</time>
      </trkpt>
      <trkpt lat="45.93232" lon="4.72647">
        <ele>170</ele>
        <time>2017-12-20T11:25:04Z</time>
      </trkpt>
      <trkpt lat="45.93228" lon="4.72652">
        <ele>170</ele>
        <time>2017-12-20T11:25:05Z</time>
      </trkpt>
      <trkpt lat="45.93226" lon="4.72656">
        <ele>170</ele>
        <time>2017-12-20T11:25:06Z</time>
      </trkpt>
      <trkpt lat="45.93222" lon="4.72661">
        <ele>170</ele>
        <time>2017-12-20T11:25:07Z</time>
      </trkpt>
      <trkpt lat="45.93218" lon="4.72666">
        <ele>170</ele>
        <time>2017-12-20T11:25:08Z</time>
      </trkpt>
      <trkpt lat="45.93213" lon="4.7267">
        <ele>169</ele>
        <time>2017-12-20T11:25:09Z</time>
      </trkpt>
      <trkpt lat="45.93208" lon="4.72674">
        <ele>169</ele>
        <time>2017-12-20T11:25:10Z</time>
      </trkpt>
      <trkpt lat="45.93204" lon="4.72679">
        <ele>169</ele>
        <time>2017-12-20T11:25:11Z</time>
      </trkpt>
      <trkpt lat="45.93199" lon="4.72685">
        <ele>169</ele>
        <time>2017-12-20T11:25:12Z</time>
      </trkpt>
      <trkpt lat="45.93194" lon="4.7269">
        <ele>169</ele>
        <time>2017-12-20T11:25:13Z</time>
      </trkpt>
      <trkpt lat="45.9319" lon="4.72695">
        <ele>169</ele>
        <time>2017-12-20T11:25:14Z</time>
      </trkpt>
      <trkpt lat="45.93185" lon="4.727">
        <ele>169</ele>
        <time>2017-12-20T11:25:15Z</time>
      </trkpt>
      <trkpt lat="45.93181" lon="4.72706">
        <ele>169</ele>
        <time>2017-12-20T11:25:16Z</time>
      </trkpt>
      <trkpt lat="45.93177" lon="4.72713">
        <ele>169</ele>
        <time>2017-12-20T11:25:17Z</time>
      </trkpt>
      <trkpt lat="45.93172" lon="4.72717">
        <ele>170</ele>
        <time>2017-12-20T11:25:18Z</time>
      </trkpt>
      <trkpt lat="45.93167" lon="4.72722">
        <ele>170</ele>
        <time>2017-12-20T11:25:19Z</time>
      </trkpt>
      <trkpt lat="45.93162" lon="4.72727">
        <ele>170</ele>
        <time>2017-12-20T11:25:20Z</time>
      </trkpt>
      <trkpt lat="45.93156" lon="4.72732">
        <ele>170</ele>
        <time>2017-12-20T11:25:21Z</time>
      </trkpt>
      <trkpt lat="45.93151" lon="4.72738">
        <ele>170</ele>
        <time>2017-12-20T11:25:22Z</time>
      </trkpt>
      <trkpt lat="45.93146" lon="4.72746">
        <ele>170</ele>
        <time>2017-12-20T11:25:23Z</time>
      </trkpt>
      <trkpt lat="45.93141" lon="4.72751">
        <ele>171</ele>
        <time>2017-12-20T11:25:24Z</time>
      </trkpt>
      <trkpt lat="45.93135" lon="4.72757">
        <ele>171</ele>
        <time>2017-12-20T11:25:25Z</time>
      </trkpt>
      <trkpt lat="45.9313" lon="4.72764">
        <ele>171</ele>
        <time>2017-12-20T11:25:26Z</time>
      </trkpt>
      <trkpt lat="45.93125" lon="4.72769">
        <ele>171</ele>
        <time>2017-12-20T11:25:27Z</time>
      </trkpt>
      <trkpt lat="45.93121" lon="4.72775">
        <ele>171</ele>
        <time>2017-12-20T11:25:28Z</time>
      </trkpt>
      <trkpt lat="45.93117" lon="4.7278">
        <ele>171</ele>
        <time>2017-12-20T11:25:29Z</time>
      </trkpt>
      <trkpt lat="45.93113" lon="4.72785">
        <ele>171</ele>
        <time>2017-12-20T11:25:30Z</time>
      </trkpt>
      <trkpt lat="45.93109" lon="4.7279">
        <ele>171</ele>
        <time>2017-12-20T11:25:31Z</time>
      </trkpt>
      <trkpt lat="45.93105" lon="4.72794">
        <ele>171</ele>
        <time>2017-12-20T11:25:32Z</time>
      </trkpt>
      <trkpt lat="45.93101" lon="4.72799">
        <ele>171</ele>
        <time>2017-12-20T11:25:33Z</time>
      </trkpt>
      <trkpt lat="45.93097" lon="4.72802">
        <ele>171</ele>
        <time>2017-12-20T11:25:34Z</time>
      </trkpt>
      <trkpt lat="45.93093" lon="4.72806">
        <ele>172</ele>
        <time>2017-12-20T11:25:35Z</time>
      </trkpt>
      <trkpt lat="45.93089" lon="4.72812">
        <ele>172</ele>
        <time>2017-12-20T11:25:36Z</time>
      </trkpt>
      <trkpt lat="45.93084" lon="4.72817">
        <ele>172</ele>
        <time>2017-12-20T11:25:37Z</time>
      </trkpt>
      <trkpt lat="45.9308" lon="4.72821">
        <ele>173</ele>
        <time>2017-12-20T11:25:38Z</time>
      </trkpt>
      <trkpt lat="45.93077" lon="4.72825">
        <ele>173</ele>
        <time>2017-12-20T11:25:39Z</time>
      </trkpt>
      <trkpt lat="45.93072" lon="4.72829">
        <ele>173</ele>
        <time>2017-12-20T11:25:40Z</time>
      </trkpt>
      <trkpt lat="45.93067" lon="4.72838">
        <ele>173</ele>
        <time>2017-12-20T11:25:41Z</time>
      </trkpt>
      <trkpt lat="45.93063" lon="4.72843">
        <ele>172</ele>
        <time>2017-12-20T11:25:42Z</time>
      </trkpt>
      <trkpt lat="45.93059" lon="4.72847">
        <ele>172</ele>
        <time>2017-12-20T11:25:43Z</time>
      </trkpt>
      <trkpt lat="45.93055" lon="4.72855">
        <ele>172</ele>
        <time>2017-12-20T11:25:44Z</time>
      </trkpt>
      <trkpt lat="45.93049" lon="4.72858">
        <ele>172</ele>
        <time>2017-12-20T11:25:45Z</time>
      </trkpt>
      <trkpt lat="45.93044" lon="4.7286">
        <ele>172</ele>
        <time>2017-12-20T11:25:46Z</time>
      </trkpt>
      <trkpt lat="45.93039" lon="4.72866">
        <ele>172</ele>
        <time>2017-12-20T11:25:47Z</time>
      </trkpt>
      <trkpt lat="45.93033" lon="4.72871">
        <ele>172</ele>
        <time>2017-12-20T11:25:48Z</time>
      </trkpt>
      <trkpt lat="45.93028" lon="4.72878">
        <ele>172</ele>
        <time>2017-12-20T11:25:49Z</time>
      </trkpt>
      <trkpt lat="45.93024" lon="4.72884">
        <ele>172</ele>
        <time>2017-12-20T11:25:50Z</time>
      </trkpt>
      <trkpt lat="45.9302" lon="4.72889">
        <ele>172</ele>
        <time>2017-12-20T11:25:51Z</time>
      </trkpt>
      <trkpt lat="45.93015" lon="4.72894">
        <ele>172</ele>
        <time>2017-12-20T11:25:52Z</time>
      </trkpt>
      <trkpt lat="45.93011" lon="4.72899">
        <ele>172</ele>
        <time>2017-12-20T11:25:53Z</time>
      </trkpt>
      <trkpt lat="45.93007" lon="4.72904">
        <ele>171</ele>
        <time>2017-12-20T11:25:54Z</time>
      </trkpt>
      <trkpt lat="45.93004" lon="4.72909">
        <ele>171</ele>
        <time>2017-12-20T11:25:55Z</time>
      </trkpt>
      <trkpt lat="45.93" lon="4.72914">
        <ele>171</ele>
        <time>2017-12-20T11:25:56Z</time>
      </trkpt>
      <trkpt lat="45.92996" lon="4.72918">
        <ele>171</ele>
        <time>2017-12-20T11:25:57Z</time>
      </trkpt>
      <trkpt lat="45.92992" lon="4.72923">
        <ele>171</ele>
        <time>2017-12-20T11:25:58Z</time>
      </trkpt>
      <trkpt lat="45.92988" lon="4.72926">
        <ele>171</ele>
        <time>2017-12-20T11:25:59Z</time>
      </trkpt>
      <trkpt lat="45.92984" lon="4.72931">
        <ele>171</ele>
        <time>2017-12-20T11:26:00Z</time>
      </trkpt>
      <trkpt lat="45.92981" lon="4.72935">
        <ele>171</ele>
        <time>2017-12-20T11:26:01Z</time>
      </trkpt>
      <trkpt lat="45.92977" lon="4.72941">
        <ele>171</ele>
        <time>2017-12-20T11:26:02Z</time>
      </trkpt>
      <trkpt lat="45.92973" lon="4.72945">
        <ele>171</ele>
        <time>2017-12-20T11:26:03Z</time>
      </trkpt>
      <trkpt lat="45.92968" lon="4.72951">
        <ele>171</ele>
        <time>2017-12-20T11:26:04Z</time>
      </trkpt>
      <trkpt lat="45.92965" lon="4.72958">
        <ele>171</ele>
        <time>2017-12-20T11:26:05Z</time>
      </trkpt>
      <trkpt lat="45.92962" lon="4.72962">
        <ele>171</ele>
        <time>2017-12-20T11:26:06Z</time>
      </trkpt>
      <trkpt lat="45.92958" lon="4.72968">
        <ele>171</ele>
        <time>2017-12-20T11:26:07Z</time>
      </trkpt>
      <trkpt lat="45.92954" lon="4.72971">
        <ele>171</ele>
        <time>2017-12-20T11:26:08Z</time>
      </trkpt>
      <trkpt lat="45.92949" lon="4.72979">
        <ele>171</ele>
        <time>2017-12-20T11:26:09Z</time>
      </trkpt>
      <trkpt lat="45.92944" lon="4.72985">
        <ele>171</ele>
        <time>2017-12-20T11:26:10Z</time>
      </trkpt>
      <trkpt lat="45.9294" lon="4.7299">
        <ele>171</ele>
        <time>2017-12-20T11:26:11Z</time>
      </trkpt>
      <trkpt lat="45.92936" lon="4.72996">
        <ele>171</ele>
        <time>2017-12-20T11:26:12Z</time>
      </trkpt>
      <trkpt lat="45.92932" lon="4.73001">
        <ele>171</ele>
        <time>2017-12-20T11:26:13Z</time>
      </trkpt>
      <trkpt lat="45.92929" lon="4.73007">
        <ele>172</ele>
        <time>2017-12-20T11:26:14Z</time>
      </trkpt>
      <trkpt lat="45.92925" lon="4.73013">
        <ele>172</ele>
        <time>2017-12-20T11:26:15Z</time>
      </trkpt>
      <trkpt lat="45.9292" lon="4.73018">
        <ele>172</ele>
        <time>2017-12-20T11:26:16Z</time>
      </trkpt>
      <trkpt lat="45.92916" lon="4.73022">
        <ele>172</ele>
        <time>2017-12-20T11:26:17Z</time>
      </trkpt>
      <trkpt lat="45.92912" lon="4.73027">
        <ele>172</ele>
        <time>2017-12-20T11:26:18Z</time>
      </trkpt>
      <trkpt lat="45.92908" lon="4.73033">
        <ele>172</ele>
        <time>2017-12-20T11:26:19Z</time>
      </trkpt>
      <trkpt lat="45.92903" lon="4.73038">
        <ele>172</ele>
        <time>2017-12-20T11:26:20Z</time>
      </trkpt>
      <trkpt lat="45.92899" lon="4.73043">
        <ele>172</ele>
        <time>2017-12-20T11:26:21Z</time>
      </trkpt>
      <trkpt lat="45.92896" lon="4.73048">
        <ele>172</ele>
        <time>2017-12-20T11:26:22Z</time>
      </trkpt>
      <trkpt lat="45.92892" lon="4.73054">
        <ele>172</ele>
        <time>2017-12-20T11:26:23Z</time>
      </trkpt>
      <trkpt lat="45.9289" lon="4.73059">
        <ele>172</ele>
        <time>2017-12-20T11:26:24Z</time>
      </trkpt>
      <trkpt lat="45.92885" lon="4.73066">
        <ele>172</ele>
        <time>2017-12-20T11:26:25Z</time>
      </trkpt>
      <trkpt lat="45.92882" lon="4.73071">
        <ele>172</ele>
        <time>2017-12-20T11:26:26Z</time>
      </trkpt>
      <trkpt lat="45.9288" lon="4.73076">
        <ele>172</ele>
        <time>2017-12-20T11:26:27Z</time>
      </trkpt>
      <trkpt lat="45.92876" lon="4.73082">
        <ele>172</ele>
        <time>2017-12-20T11:26:28Z</time>
      </trkpt>
      <trkpt lat="45.92869" lon="4.73089">
        <ele>172</ele>
        <time>2017-12-20T11:26:30Z</time>
      </trkpt>
      <trkpt lat="45.92866" lon="4.73094">
        <ele>172</ele>
        <time>2017-12-20T11:26:31Z</time>
      </trkpt>
      <trkpt lat="45.92862" lon="4.73099">
        <ele>171</ele>
        <time>2017-12-20T11:26:32Z</time>
      </trkpt>
      <trkpt lat="45.92858" lon="4.73101">
        <ele>171</ele>
        <time>2017-12-20T11:26:33Z</time>
      </trkpt>
      <trkpt lat="45.9285" lon="4.731">
        <ele>171</ele>
        <time>2017-12-20T11:26:35Z</time>
      </trkpt>
      <trkpt lat="45.92848" lon="4.73094">
        <ele>171</ele>
        <time>2017-12-20T11:26:36Z</time>
      </trkpt>
      <trkpt lat="45.92846" lon="4.73082">
        <ele>171</ele>
        <time>2017-12-20T11:26:38Z</time>
      </trkpt>
      <trkpt lat="45.92846" lon="4.73074">
        <ele>171</ele>
        <time>2017-12-20T11:26:39Z</time>
      </trkpt>
      <trkpt lat="45.92845" lon="4.73067">
        <ele>171</ele>
        <time>2017-12-20T11:26:40Z</time>
      </trkpt>
      <trkpt lat="45.92844" lon="4.7306">
        <ele>171</ele>
        <time>2017-12-20T11:26:41Z</time>
      </trkpt>
      <trkpt lat="45.92843" lon="4.73051">
        <ele>171</ele>
        <time>2017-12-20T11:26:42Z</time>
      </trkpt>
      <trkpt lat="45.92841" lon="4.73044">
        <ele>171</ele>
        <time>2017-12-20T11:26:43Z</time>
      </trkpt>
      <trkpt lat="45.92839" lon="4.73036">
        <ele>171</ele>
        <time>2017-12-20T11:26:44Z</time>
      </trkpt>
      <trkpt lat="45.92838" lon="4.73027">
        <ele>171</ele>
        <time>2017-12-20T11:26:45Z</time>
      </trkpt>
      <trkpt lat="45.92836" lon="4.73017">
        <ele>171</ele>
        <time>2017-12-20T11:26:46Z</time>
      </trkpt>
      <trkpt lat="45.92836" lon="4.73009">
        <ele>170</ele>
        <time>2017-12-20T11:26:47Z</time>
      </trkpt>
      <trkpt lat="45.92835" lon="4.73">
        <ele>170</ele>
        <time>2017-12-20T11:26:48Z</time>
      </trkpt>
      <trkpt lat="45.92833" lon="4.72992">
        <ele>170</ele>
        <time>2017-12-20T11:26:49Z</time>
      </trkpt>
      <trkpt lat="45.92833" lon="4.72983">
        <ele>171</ele>
        <time>2017-12-20T11:26:50Z</time>
      </trkpt>
      <trkpt lat="45.92833" lon="4.72976">
        <ele>170</ele>
        <time>2017-12-20T11:26:51Z</time>
      </trkpt>
      <trkpt lat="45.92832" lon="4.7297">
        <ele>170</ele>
        <time>2017-12-20T11:26:52Z</time>
      </trkpt>
      <trkpt lat="45.9283" lon="4.72963">
        <ele>170</ele>
        <time>2017-12-20T11:26:53Z</time>
      </trkpt>
      <trkpt lat="45.92829" lon="4.72951">
        <ele>170</ele>
        <time>2017-12-20T11:26:55Z</time>
      </trkpt>
      <trkpt lat="45.92829" lon="4.72945">
        <ele>170</ele>
        <time>2017-12-20T11:26:56Z</time>
      </trkpt>
      <trkpt lat="45.92828" lon="4.72937">
        <ele>170</ele>
        <time>2017-12-20T11:26:57Z</time>
      </trkpt>
      <trkpt lat="45.92827" lon="4.7293">
        <ele>170</ele>
        <time>2017-12-20T11:26:58Z</time>
      </trkpt>
      <trkpt lat="45.92828" lon="4.72922">
        <ele>170</ele>
        <time>2017-12-20T11:26:59Z</time>
      </trkpt>
      <trkpt lat="45.92827" lon="4.72913">
        <ele>170</ele>
        <time>2017-12-20T11:27:00Z</time>
      </trkpt>
      <trkpt lat="45.92825" lon="4.72906">
        <ele>170</ele>
        <time>2017-12-20T11:27:01Z</time>
      </trkpt>
      <trkpt lat="45.92824" lon="4.72898">
        <ele>170</ele>
        <time>2017-12-20T11:27:02Z</time>
      </trkpt>
      <trkpt lat="45.92823" lon="4.72891">
        <ele>170</ele>
        <time>2017-12-20T11:27:03Z</time>
      </trkpt>
      <trkpt lat="45.92822" lon="4.72883">
        <ele>170</ele>
        <time>2017-12-20T11:27:04Z</time>
      </trkpt>
      <trkpt lat="45.92821" lon="4.72877">
        <ele>170</ele>
        <time>2017-12-20T11:27:05Z</time>
      </trkpt>
      <trkpt lat="45.9282" lon="4.7287">
        <ele>170</ele>
        <time>2017-12-20T11:27:06Z</time>
      </trkpt>
      <trkpt lat="45.92818" lon="4.72863">
        <ele>170</ele>
        <time>2017-12-20T11:27:07Z</time>
      </trkpt>
      <trkpt lat="45.92815" lon="4.72856">
        <ele>170</ele>
        <time>2017-12-20T11:27:08Z</time>
      </trkpt>
      <trkpt lat="45.92813" lon="4.72849">
        <ele>170</ele>
        <time>2017-12-20T11:27:09Z</time>
      </trkpt>
      <trkpt lat="45.92812" lon="4.72843">
        <ele>170</ele>
        <time>2017-12-20T11:27:10Z</time>
      </trkpt>
      <trkpt lat="45.92811" lon="4.72836">
        <ele>170</ele>
        <time>2017-12-20T11:27:11Z</time>
      </trkpt>
      <trkpt lat="45.9281" lon="4.72828">
        <ele>171</ele>
        <time>2017-12-20T11:27:12Z</time>
      </trkpt>
      <trkpt lat="45.9281" lon="4.7282">
        <ele>171</ele>
        <time>2017-12-20T11:27:13Z</time>
      </trkpt>
      <trkpt lat="45.92809" lon="4.72815">
        <ele>171</ele>
        <time>2017-12-20T11:27:14Z</time>
      </trkpt>
      <trkpt lat="45.92807" lon="4.72808">
        <ele>171</ele>
        <time>2017-12-20T11:27:15Z</time>
      </trkpt>
      <trkpt lat="45.92806" lon="4.728">
        <ele>171</ele>
        <time>2017-12-20T11:27:16Z</time>
      </trkpt>
      <trkpt lat="45.92802" lon="4.72789">
        <ele>171</ele>
        <time>2017-12-20T11:27:18Z</time>
      </trkpt>
      <trkpt lat="45.92799" lon="4.72786">
        <ele>171</ele>
        <time>2017-12-20T11:27:19Z</time>
      </trkpt>
      <trkpt lat="45.92793" lon="4.72786">
        <ele>171</ele>
        <time>2017-12-20T11:27:21Z</time>
      </trkpt>
      <trkpt lat="45.92787" lon="4.72787">
        <ele>171</ele>
        <time>2017-12-20T11:27:22Z</time>
      </trkpt>
      <trkpt lat="45.92783" lon="4.7279">
        <ele>170</ele>
        <time>2017-12-20T11:27:23Z</time>
      </trkpt>
      <trkpt lat="45.92779" lon="4.72793">
        <ele>170</ele>
        <time>2017-12-20T11:27:24Z</time>
      </trkpt>
      <trkpt lat="45.92774" lon="4.72797">
        <ele>170</ele>
        <time>2017-12-20T11:27:25Z</time>
      </trkpt>
      <trkpt lat="45.9277" lon="4.72801">
        <ele>170</ele>
        <time>2017-12-20T11:27:26Z</time>
      </trkpt>
      <trkpt lat="45.92765" lon="4.72804">
        <ele>170</ele>
        <time>2017-12-20T11:27:27Z</time>
      </trkpt>
      <trkpt lat="45.92762" lon="4.72808">
        <ele>170</ele>
        <time>2017-12-20T11:27:28Z</time>
      </trkpt>
      <trkpt lat="45.92757" lon="4.72812">
        <ele>170</ele>
        <time>2017-12-20T11:27:29Z</time>
      </trkpt>
      <trkpt lat="45.92751" lon="4.72816">
        <ele>170</ele>
        <time>2017-12-20T11:27:30Z</time>
      </trkpt>
      <trkpt lat="45.92745" lon="4.72821">
        <ele>169</ele>
        <time>2017-12-20T11:27:31Z</time>
      </trkpt>
      <trkpt lat="45.9274" lon="4.72824">
        <ele>169</ele>
        <time>2017-12-20T11:27:32Z</time>
      </trkpt>
      <trkpt lat="45.92736" lon="4.72828">
        <ele>169</ele>
        <time>2017-12-20T11:27:33Z</time>
      </trkpt>
      <trkpt lat="45.92732" lon="4.72833">
        <ele>169</ele>
        <time>2017-12-20T11:27:34Z</time>
      </trkpt>
      <trkpt lat="45.92725" lon="4.7284">
        <ele>169</ele>
        <time>2017-12-20T11:27:36Z</time>
      </trkpt>
      <trkpt lat="45.92721" lon="4.72843">
        <ele>169</ele>
        <time>2017-12-20T11:27:37Z</time>
      </trkpt>
      <trkpt lat="45.92717" lon="4.72848">
        <ele>169</ele>
        <time>2017-12-20T11:27:38Z</time>
      </trkpt>
      <trkpt lat="45.92712" lon="4.72852">
        <ele>169</ele>
        <time>2017-12-20T11:27:39Z</time>
      </trkpt>
      <trkpt lat="45.92707" lon="4.72855">
        <ele>169</ele>
        <time>2017-12-20T11:27:40Z</time>
      </trkpt>
      <trkpt lat="45.92702" lon="4.72859">
        <ele>169</ele>
        <time>2017-12-20T11:27:41Z</time>
      </trkpt>
      <trkpt lat="45.92698" lon="4.72863">
        <ele>169</ele>
        <time>2017-12-20T11:27:42Z</time>
      </trkpt>
      <trkpt lat="45.92693" lon="4.72866">
        <ele>169</ele>
        <time>2017-12-20T11:27:43Z</time>
      </trkpt>
      <trkpt lat="45.92688" lon="4.7287">
        <ele>169</ele>
        <time>2017-12-20T11:27:44Z</time>
      </trkpt>
      <trkpt lat="45.92682" lon="4.72874">
        <ele>169</ele>
        <time>2017-12-20T11:27:45Z</time>
      </trkpt>
      <trkpt lat="45.92677" lon="4.72877">
        <ele>170</ele>
        <time>2017-12-20T11:27:46Z</time>
      </trkpt>
      <trkpt lat="45.92671" lon="4.72881">
        <ele>170</ele>
        <time>2017-12-20T11:27:47Z</time>
      </trkpt>
      <trkpt lat="45.92666" lon="4.72884">
        <ele>169</ele>
        <time>2017-12-20T11:27:48Z</time>
      </trkpt>
      <trkpt lat="45.92662" lon="4.72888">
        <ele>169</ele>
        <time>2017-12-20T11:27:49Z</time>
      </trkpt>
      <trkpt lat="45.92657" lon="4.72893">
        <ele>169</ele>
        <time>2017-12-20T11:27:50Z</time>
      </trkpt>
      <trkpt lat="45.92652" lon="4.72897">
        <ele>170</ele>
        <time>2017-12-20T11:27:51Z</time>
      </trkpt>
      <trkpt lat="45.92647" lon="4.72903">
        <ele>170</ele>
        <time>2017-12-20T11:27:52Z</time>
      </trkpt>
      <trkpt lat="45.92642" lon="4.72908">
        <ele>169</ele>
        <time>2017-12-20T11:27:53Z</time>
      </trkpt>
      <trkpt lat="45.92637" lon="4.72911">
        <ele>169</ele>
        <time>2017-12-20T11:27:54Z</time>
      </trkpt>
      <trkpt lat="45.92632" lon="4.72916">
        <ele>169</ele>
        <time>2017-12-20T11:27:55Z</time>
      </trkpt>
      <trkpt lat="45.92626" lon="4.7292">
        <ele>170</ele>
        <time>2017-12-20T11:27:56Z</time>
      </trkpt>
      <trkpt lat="45.92621" lon="4.72924">
        <ele>169</ele>
        <time>2017-12-20T11:27:57Z</time>
      </trkpt>
      <trkpt lat="45.92616" lon="4.72928">
        <ele>169</ele>
        <time>2017-12-20T11:27:58Z</time>
      </trkpt>
      <trkpt lat="45.92611" lon="4.72934">
        <ele>169</ele>
        <time>2017-12-20T11:27:59Z</time>
      </trkpt>
      <trkpt lat="45.92605" lon="4.72938">
        <ele>169</ele>
        <time>2017-12-20T11:28:00Z</time>
      </trkpt>
      <trkpt lat="45.926" lon="4.72943">
        <ele>169</ele>
        <time>2017-12-20T11:28:01Z</time>
      </trkpt>
      <trkpt lat="45.92595" lon="4.7295">
        <ele>169</ele>
        <time>2017-12-20T11:28:02Z</time>
      </trkpt>
      <trkpt lat="45.9259" lon="4.72955">
        <ele>169</ele>
        <time>2017-12-20T11:28:03Z</time>
      </trkpt>
      <trkpt lat="45.92586" lon="4.72959">
        <ele>169</ele>
        <time>2017-12-20T11:28:04Z</time>
      </trkpt>
      <trkpt lat="45.92581" lon="4.72964">
        <ele>169</ele>
        <time>2017-12-20T11:28:05Z</time>
      </trkpt>
      <trkpt lat="45.92576" lon="4.72969">
        <ele>169</ele>
        <time>2017-12-20T11:28:06Z</time>
      </trkpt>
      <trkpt lat="45.92571" lon="4.72975">
        <ele>169</ele>
        <time>2017-12-20T11:28:07Z</time>
      </trkpt>
      <trkpt lat="45.92566" lon="4.72979">
        <ele>169</ele>
        <time>2017-12-20T11:28:08Z</time>
      </trkpt>
      <trkpt lat="45.92561" lon="4.72984">
        <ele>169</ele>
        <time>2017-12-20T11:28:09Z</time>
      </trkpt>
      <trkpt lat="45.92556" lon="4.72988">
        <ele>169</ele>
        <time>2017-12-20T11:28:10Z</time>
      </trkpt>
      <trkpt lat="45.92551" lon="4.72994">
        <ele>169</ele>
        <time>2017-12-20T11:28:11Z</time>
      </trkpt>
      <trkpt lat="45.92546" lon="4.72999">
        <ele>169</ele>
        <time>2017-12-20T11:28:12Z</time>
      </trkpt>
      <trkpt lat="45.92542" lon="4.73003">
        <ele>169</ele>
        <time>2017-12-20T11:28:13Z</time>
      </trkpt>
      <trkpt lat="45.92537" lon="4.73007">
        <ele>169</ele>
        <time>2017-12-20T11:28:14Z</time>
      </trkpt>
      <trkpt lat="45.92532" lon="4.73012">
        <ele>169</ele>
        <time>2017-12-20T11:28:15Z</time>
      </trkpt>
      <trkpt lat="45.92526" lon="4.73016">
        <ele>169</ele>
        <time>2017-12-20T11:28:16Z</time>
      </trkpt>
      <trkpt lat="45.92521" lon="4.73021">
        <ele>169</ele>
        <time>2017-12-20T11:28:17Z</time>
      </trkpt>
      <trkpt lat="45.92517" lon="4.73025">
        <ele>169</ele>
        <time>2017-12-20T11:28:18Z</time>
      </trkpt>
      <trkpt lat="45.92511" lon="4.7303">
        <ele>169</ele>
        <time>2017-12-20T11:28:19Z</time>
      </trkpt>
      <trkpt lat="45.92507" lon="4.73034">
        <ele>169</ele>
        <time>2017-12-20T11:28:20Z</time>
      </trkpt>
      <trkpt lat="45.92502" lon="4.73039">
        <ele>169</ele>
        <time>2017-12-20T11:28:21Z</time>
      </trkpt>
      <trkpt lat="45.92496" lon="4.73043">
        <ele>170</ele>
        <time>2017-12-20T11:28:22Z</time>
      </trkpt>
      <trkpt lat="45.92491" lon="4.73047">
        <ele>170</ele>
        <time>2017-12-20T11:28:23Z</time>
      </trkpt>
      <trkpt lat="45.92486" lon="4.73051">
        <ele>170</ele>
        <time>2017-12-20T11:28:24Z</time>
      </trkpt>
      <trkpt lat="45.92481" lon="4.73056">
        <ele>170</ele>
        <time>2017-12-20T11:28:25Z</time>
      </trkpt>
      <trkpt lat="45.92476" lon="4.73062">
        <ele>170</ele>
        <time>2017-12-20T11:28:26Z</time>
      </trkpt>
      <trkpt lat="45.92471" lon="4.73066">
        <ele>170</ele>
        <time>2017-12-20T11:28:27Z</time>
      </trkpt>
      <trkpt lat="45.92466" lon="4.7307">
        <ele>170</ele>
        <time>2017-12-20T11:28:28Z</time>
      </trkpt>
      <trkpt lat="45.92462" lon="4.73073">
        <ele>170</ele>
        <time>2017-12-20T11:28:29Z</time>
      </trkpt>
      <trkpt lat="45.92458" lon="4.73077">
        <ele>170</ele>
        <time>2017-12-20T11:28:30Z</time>
      </trkpt>
      <trkpt lat="45.92453" lon="4.73081">
        <ele>170</ele>
        <time>2017-12-20T11:28:31Z</time>
      </trkpt>
      <trkpt lat="45.92449" lon="4.73085">
        <ele>170</ele>
        <time>2017-12-20T11:28:32Z</time>
      </trkpt>
      <trkpt lat="45.92444" lon="4.73089">
        <ele>170</ele>
        <time>2017-12-20T11:28:33Z</time>
      </trkpt>
      <trkpt lat="45.9244" lon="4.73094">
        <ele>170</ele>
        <time>2017-12-20T11:28:34Z</time>
      </trkpt>
      <trkpt lat="45.92435" lon="4.73098">
        <ele>171</ele>
        <time>2017-12-20T11:28:35Z</time>
      </trkpt>
      <trkpt lat="45.92431" lon="4.73102">
        <ele>171</ele>
        <time>2017-12-20T11:28:36Z</time>
      </trkpt>
      <trkpt lat="45.92426" lon="4.73106">
        <ele>171</ele>
        <time>2017-12-20T11:28:37Z</time>
      </trkpt>
      <trkpt lat="45.92421" lon="4.73109">
        <ele>170</ele>
        <time>2017-12-20T11:28:38Z</time>
      </trkpt>
      <trkpt lat="45.92416" lon="4.73112">
        <ele>171</ele>
        <time>2017-12-20T11:28:39Z</time>
      </trkpt>
      <trkpt lat="45.92413" lon="4.73118">
        <ele>171</ele>
        <time>2017-12-20T11:28:40Z</time>
      </trkpt>
      <trkpt lat="45.9241" lon="4.73123">
        <ele>171</ele>
        <time>2017-12-20T11:28:41Z</time>
      </trkpt>
      <trkpt lat="45.92408" lon="4.7313">
        <ele>171</ele>
        <time>2017-12-20T11:28:42Z</time>
      </trkpt>
      <trkpt lat="45.92407" lon="4.73137">
        <ele>171</ele>
        <time>2017-12-20T11:28:43Z</time>
      </trkpt>
      <trkpt lat="45.92406" lon="4.73145">
        <ele>171</ele>
        <time>2017-12-20T11:28:44Z</time>
      </trkpt>
      <trkpt lat="45.92407" lon="4.73151">
        <ele>171</ele>
        <time>2017-12-20T11:28:45Z</time>
      </trkpt>
      <trkpt lat="45.92407" lon="4.73159">
        <ele>170</ele>
        <time>2017-12-20T11:28:46Z</time>
      </trkpt>
      <trkpt lat="45.92409" lon="4.73166">
        <ele>170</ele>
        <time>2017-12-20T11:28:47Z</time>
      </trkpt>
      <trkpt lat="45.92409" lon="4.73173">
        <ele>170</ele>
        <time>2017-12-20T11:28:48Z</time>
      </trkpt>
      <trkpt lat="45.92409" lon="4.73182">
        <ele>171</ele>
        <time>2017-12-20T11:28:49Z</time>
      </trkpt>
      <trkpt lat="45.92409" lon="4.73189">
        <ele>171</ele>
        <time>2017-12-20T11:28:50Z</time>
      </trkpt>
      <trkpt lat="45.92409" lon="4.73196">
        <ele>171</ele>
        <time>2017-12-20T11:28:51Z</time>
      </trkpt>
      <trkpt lat="45.92409" lon="4.73203">
        <ele>171</ele>
        <time>2017-12-20T11:28:52Z</time>
      </trkpt>
      <trkpt lat="45.92409" lon="4.73211">
        <ele>171</ele>
        <time>2017-12-20T11:28:53Z</time>
      </trkpt>
      <trkpt lat="45.92409" lon="4.73219">
        <ele>171</ele>
        <time>2017-12-20T11:28:54Z</time>
      </trkpt>
      <trkpt lat="45.9241" lon="4.73228">
        <ele>171</ele>
        <time>2017-12-20T11:28:55Z</time>
      </trkpt>
      <trkpt lat="45.9241" lon="4.73234">
        <ele>171</ele>
        <time>2017-12-20T11:28:56Z</time>
      </trkpt>
      <trkpt lat="45.9241" lon="4.73242">
        <ele>171</ele>
        <time>2017-12-20T11:28:57Z</time>
      </trkpt>
      <trkpt lat="45.92411" lon="4.73249">
        <ele>171</ele>
        <time>2017-12-20T11:28:58Z</time>
      </trkpt>
      <trkpt lat="45.92411" lon="4.73256">
        <ele>171</ele>
        <time>2017-12-20T11:28:59Z</time>
      </trkpt>
      <trkpt lat="45.92411" lon="4.73264">
        <ele>171</ele>
        <time>2017-12-20T11:29:00Z</time>
      </trkpt>
      <trkpt lat="45.92412" lon="4.73272">
        <ele>171</ele>
        <time>2017-12-20T11:29:01Z</time>
      </trkpt>
      <trkpt lat="45.92414" lon="4.73282">
        <ele>171</ele>
        <time>2017-12-20T11:29:03Z</time>
      </trkpt>
      <trkpt lat="45.92414" lon="4.73289">
        <ele>171</ele>
        <time>2017-12-20T11:29:04Z</time>
      </trkpt>
      <trkpt lat="45.92415" lon="4.73297">
        <ele>171</ele>
        <time>2017-12-20T11:29:05Z</time>
      </trkpt>
      <trkpt lat="45.92415" lon="4.73304">
        <ele>171</ele>
        <time>2017-12-20T11:29:06Z</time>
      </trkpt>
      <trkpt lat="45.92416" lon="4.73311">
        <ele>171</ele>
        <time>2017-12-20T11:29:07Z</time>
      </trkpt>
      <trkpt lat="45.92416" lon="4.73317">
        <ele>171</ele>
        <time>2017-12-20T11:29:08Z</time>
      </trkpt>
      <trkpt lat="45.92418" lon="4.73325">
        <ele>171</ele>
        <time>2017-12-20T11:29:09Z</time>
      </trkpt>
      <trkpt lat="45.92419" lon="4.73332">
        <ele>171</ele>
        <time>2017-12-20T11:29:10Z</time>
      </trkpt>
      <trkpt lat="45.92421" lon="4.7334">
        <ele>171</ele>
        <time>2017-12-20T11:29:11Z</time>
      </trkpt>
      <trkpt lat="45.92422" lon="4.73347">
        <ele>171</ele>
        <time>2017-12-20T11:29:12Z</time>
      </trkpt>
      <trkpt lat="45.92423" lon="4.73354">
        <ele>171</ele>
        <time>2017-12-20T11:29:13Z</time>
      </trkpt>
      <trkpt lat="45.92423" lon="4.73361">
        <ele>172</ele>
        <time>2017-12-20T11:29:14Z</time>
      </trkpt>
      <trkpt lat="45.92424" lon="4.73369">
        <ele>172</ele>
        <time>2017-12-20T11:29:15Z</time>
      </trkpt>
      <trkpt lat="45.92425" lon="4.73376">
        <ele>172</ele>
        <time>2017-12-20T11:29:16Z</time>
      </trkpt>
      <trkpt lat="45.92427" lon="4.73384">
        <ele>172</ele>
        <time>2017-12-20T11:29:17Z</time>
      </trkpt>
      <trkpt lat="45.92428" lon="4.73391">
        <ele>172</ele>
        <time>2017-12-20T11:29:18Z</time>
      </trkpt>
      <trkpt lat="45.9243" lon="4.73398">
        <ele>172</ele>
        <time>2017-12-20T11:29:19Z</time>
      </trkpt>
      <trkpt lat="45.92432" lon="4.73403">
        <ele>172</ele>
        <time>2017-12-20T11:29:20Z</time>
      </trkpt>
      <trkpt lat="45.92435" lon="4.73409">
        <ele>172</ele>
        <time>2017-12-20T11:29:21Z</time>
      </trkpt>
      <trkpt lat="45.92439" lon="4.73413">
        <ele>172</ele>
        <time>2017-12-20T11:29:22Z</time>
      </trkpt>
      <trkpt lat="45.92444" lon="4.73416">
        <ele>172</ele>
        <time>2017-12-20T11:29:23Z</time>
      </trkpt>
      <trkpt lat="45.92448" lon="4.73419">
        <ele>173</ele>
        <time>2017-12-20T11:29:24Z</time>
      </trkpt>
      <trkpt lat="45.92452" lon="4.73422">
        <ele>173</ele>
        <time>2017-12-20T11:29:25Z</time>
      </trkpt>
      <trkpt lat="45.92456" lon="4.73426">
        <ele>173</ele>
        <time>2017-12-20T11:29:26Z</time>
      </trkpt>
      <trkpt lat="45.9246" lon="4.73429">
        <ele>173</ele>
        <time>2017-12-20T11:29:27Z</time>
      </trkpt>
      <trkpt lat="45.92464" lon="4.73437">
        <ele>173</ele>
        <time>2017-12-20T11:29:28Z</time>
      </trkpt>
      <trkpt lat="45.92466" lon="4.73442">
        <ele>173</ele>
        <time>2017-12-20T11:29:29Z</time>
      </trkpt>
      <trkpt lat="45.92468" lon="4.73448">
        <ele>173</ele>
        <time>2017-12-20T11:29:30Z</time>
      </trkpt>
      <trkpt lat="45.92469" lon="4.73456">
        <ele>173</ele>
        <time>2017-12-20T11:29:31Z</time>
      </trkpt>
      <trkpt lat="45.9247" lon="4.73464">
        <ele>173</ele>
        <time>2017-12-20T11:29:32Z</time>
      </trkpt>
      <trkpt lat="45.9247" lon="4.7347">
        <ele>173</ele>
        <time>2017-12-20T11:29:33Z</time>
      </trkpt>
      <trkpt lat="45.92471" lon="4.7348">
        <ele>173</ele>
        <time>2017-12-20T11:29:34Z</time>
      </trkpt>
      <trkpt lat="45.9247" lon="4.73488">
        <ele>173</ele>
        <time>2017-12-20T11:29:35Z</time>
      </trkpt>
      <trkpt lat="45.9247" lon="4.73496">
        <ele>173</ele>
        <time>2017-12-20T11:29:36Z</time>
      </trkpt>
      <trkpt lat="45.9247" lon="4.73508">
        <ele>174</ele>
        <time>2017-12-20T11:29:38Z</time>
      </trkpt>
      <trkpt lat="45.92468" lon="4.73514">
        <ele>174</ele>
        <time>2017-12-20T11:29:39Z</time>
      </trkpt>
      <trkpt lat="45.92469" lon="4.73525">
        <ele>174</ele>
        <time>2017-12-20T11:29:41Z</time>
      </trkpt>
      <trkpt lat="45.92468" lon="4.73531">
        <ele>174</ele>
        <time>2017-12-20T11:29:42Z</time>
      </trkpt>
      <trkpt lat="45.92469" lon="4.73542">
        <ele>173</ele>
        <time>2017-12-20T11:29:44Z</time>
      </trkpt>
      <trkpt lat="45.92468" lon="4.73548">
        <ele>173</ele>
        <time>2017-12-20T11:29:45Z</time>
      </trkpt>
      <trkpt lat="45.92467" lon="4.7356">
        <ele>173</ele>
        <time>2017-12-20T11:29:47Z</time>
      </trkpt>
      <trkpt lat="45.92466" lon="4.73566">
        <ele>173</ele>
        <time>2017-12-20T11:29:48Z</time>
      </trkpt>
      <trkpt lat="45.92467" lon="4.73573">
        <ele>173</ele>
        <time>2017-12-20T11:29:49Z</time>
      </trkpt>
      <trkpt lat="45.92467" lon="4.7358">
        <ele>173</ele>
        <time>2017-12-20T11:29:50Z</time>
      </trkpt>
      <trkpt lat="45.92467" lon="4.73588">
        <ele>174</ele>
        <time>2017-12-20T11:29:51Z</time>
      </trkpt>
      <trkpt lat="45.92467" lon="4.73595">
        <ele>174</ele>
        <time>2017-12-20T11:29:52Z</time>
      </trkpt>
      <trkpt lat="45.92467" lon="4.73602">
        <ele>174</ele>
        <time>2017-12-20T11:29:53Z</time>
      </trkpt>
      <trkpt lat="45.92467" lon="4.73609">
        <ele>174</ele>
        <time>2017-12-20T11:29:54Z</time>
      </trkpt>
      <trkpt lat="45.92468" lon="4.73622">
        <ele>174</ele>
        <time>2017-12-20T11:29:56Z</time>
      </trkpt>
      <trkpt lat="45.92468" lon="4.73627">
        <ele>174</ele>
        <time>2017-12-20T11:29:57Z</time>
      </trkpt>
      <trkpt lat="45.92469" lon="4.73634">
        <ele>174</ele>
        <time>2017-12-20T11:29:58Z</time>
      </trkpt>
      <trkpt lat="45.92469" lon="4.73642">
        <ele>174</ele>
        <time>2017-12-20T11:29:59Z</time>
      </trkpt>
      <trkpt lat="45.92467" lon="4.73653">
        <ele>174</ele>
        <time>2017-12-20T11:30:01Z</time>
      </trkpt>
      <trkpt lat="45.92467" lon="4.73659">
        <ele>174</ele>
        <time>2017-12-20T11:30:02Z</time>
      </trkpt>
      <trkpt lat="45.92467" lon="4.73669">
        <ele>174</ele>
        <time>2017-12-20T11:30:04Z</time>
      </trkpt>
      <trkpt lat="45.92466" lon="4.73676">
        <ele>174</ele>
        <time>2017-12-20T11:30:05Z</time>
      </trkpt>
      <trkpt lat="45.92467" lon="4.73687">
        <ele>174</ele>
        <time>2017-12-20T11:30:07Z</time>
      </trkpt>
      <trkpt lat="45.92466" lon="4.73692">
        <ele>174</ele>
        <time>2017-12-20T11:30:08Z</time>
      </trkpt>
      <trkpt lat="45.92463" lon="4.73704">
        <ele>174</ele>
        <time>2017-12-20T11:30:11Z</time>
      </trkpt>
      <trkpt lat="45.92462" lon="4.73706">
        <ele>174</ele>
        <time>2017-12-20T11:30:12Z</time>
      </trkpt>
      <trkpt lat="45.92458" lon="4.73713">
        <ele>174</ele>
        <time>2017-12-20T11:31:01.782Z</time>
      </trkpt>
    </trkseg>
  </trk>
</gpx>